<?xml version='1.0' encoding='UTF-8'?><gpx version="1.1" creator="JPX - https://github.com/jenetics/jpx" xmlns="http://www.topografix.com/GPX/1/1"><trk><trkseg><trkpt lat="44.3192833" lon="9.3128483"><ele>6.0</ele><time>2026-04-21T13:59:18.665Z</time></trkpt><trkpt lat="44.3193233" lon="9.3127633"><ele>6.0</ele><time>2026-04-21T13:59:21.665Z</time></trkpt><trkpt lat="44.3193633" lon="9.3126667"><ele>6.0</ele><time>2026-04-21T13:59:24.665Z</time></trkpt><trkpt lat="44.3193983" lon="9.3125883"><ele>6.0</ele><time>2026-04-21T13:59:27.665Z</time></trkpt><trkpt lat="44.3194683" lon="9.3124983"><ele>6.0</ele><time>2026-04-21T13:59:29.665Z</time></trkpt><trkpt lat="44.3195433" lon="9.31237"><ele>6.0</ele><time>2026-04-21T13:59:31.666Z</time></trkpt><trkpt lat="44.3196067" lon="9.3122283"><ele>5.5</ele><time>2026-04-21T13:59:33.665Z</time></trkpt><trkpt lat="44.319645" lon="9.3121483"><ele>5.0</ele><time>2026-04-21T13:59:34.665Z</time></trkpt><trkpt lat="44.3196883" lon="9.3120483"><ele>4.5</ele><time>2026-04-21T13:59:35.666Z</time></trkpt><trkpt lat="44.3197333" lon="9.31194"><ele>4.0</ele><time>2026-04-21T13:59:36.665Z</time></trkpt><trkpt lat="44.3197833" lon="9.3118183"><ele>3.5</ele><time>2026-04-21T13:59:37.665Z</time></trkpt><trkpt lat="44.3198367" lon="9.3117017"><ele>3.0</ele><time>2026-04-21T13:59:38.665Z</time></trkpt><trkpt lat="44.3198967" lon="9.3115933"><ele>3.0</ele><time>2026-04-21T13:59:39.665Z</time></trkpt><trkpt lat="44.3199617" lon="9.3114917"><ele>3.0</ele><time>2026-04-21T13:59:40.666Z</time></trkpt><trkpt lat="44.3200217" lon="9.31139"><ele>3.0</ele><time>2026-04-21T13:59:41.665Z</time></trkpt><trkpt lat="44.3200867" lon="9.311285"><ele>3.0</ele><time>2026-04-21T13:59:42.665Z</time></trkpt><trkpt lat="44.3201567" lon="9.3111917"><ele>3.0</ele><time>2026-04-21T13:59:43.666Z</time></trkpt><trkpt lat="44.3202283" lon="9.311095"><ele>3.0</ele><time>2026-04-21T13:59:44.665Z</time></trkpt><trkpt lat="44.3202967" lon="9.310985"><ele>3.0</ele><time>2026-04-21T13:59:45.665Z</time></trkpt><trkpt lat="44.32038" lon="9.3108783"><ele>3.0</ele><time>2026-04-21T13:59:46.665Z</time></trkpt><trkpt lat="44.320455" lon="9.31078"><ele>3.0</ele><time>2026-04-21T13:59:47.666Z</time></trkpt><trkpt lat="44.3205233" lon="9.310685"><ele>3.0</ele><time>2026-04-21T13:59:48.665Z</time></trkpt><trkpt lat="44.320595" lon="9.3105767"><ele>3.2</ele><time>2026-04-21T13:59:49.665Z</time></trkpt><trkpt lat="44.320665" lon="9.3104633"><ele>3.4</ele><time>2026-04-21T13:59:50.666Z</time></trkpt><trkpt lat="44.3207383" lon="9.3103483"><ele>3.6000000000000005</ele><time>2026-04-21T13:59:51.666Z</time></trkpt><trkpt lat="44.320825" lon="9.3102367"><ele>3.8000000000000003</ele><time>2026-04-21T13:59:52.665Z</time></trkpt><trkpt lat="44.3208917" lon="9.3101217"><ele>4.0</ele><time>2026-04-21T13:59:53.665Z</time></trkpt><trkpt lat="44.3209567" lon="9.3100183"><ele>3.9999999999999996</ele><time>2026-04-21T13:59:54.665Z</time></trkpt><trkpt lat="44.3210083" lon="9.3099217"><ele>4.0</ele><time>2026-04-21T13:59:55.666Z</time></trkpt><trkpt lat="44.3210667" lon="9.3098283"><ele>4.0</ele><time>2026-04-21T13:59:56.665Z</time></trkpt><trkpt lat="44.3211133" lon="9.3097467"><ele>4.0</ele><time>2026-04-21T13:59:57.665Z</time></trkpt><trkpt lat="44.3211733" lon="9.3096617"><ele>3.9999999999999996</ele><time>2026-04-21T13:59:58.665Z</time></trkpt><trkpt lat="44.3212317" lon="9.3095817"><ele>4.0</ele><time>2026-04-21T13:59:59.665Z</time></trkpt><trkpt lat="44.3213033" lon="9.3094883"><ele>4.0</ele><time>2026-04-21T14:00:00.665Z</time></trkpt><trkpt lat="44.3213733" lon="9.3093783"><ele>4.0</ele><time>2026-04-21T14:00:01.665Z</time></trkpt><trkpt lat="44.32144" lon="9.3092583"><ele>4.0</ele><time>2026-04-21T14:00:02.666Z</time></trkpt><trkpt lat="44.321515" lon="9.30911"><ele>4.0</ele><time>2026-04-21T14:00:03.665Z</time></trkpt><trkpt lat="44.32158" lon="9.3089817"><ele>4.2</ele><time>2026-04-21T14:00:04.666Z</time></trkpt><trkpt lat="44.3216983" lon="9.3087667"><ele>4.4</ele><time>2026-04-21T14:00:06.665Z</time></trkpt><trkpt lat="44.3217583" lon="9.3086717"><ele>4.6</ele><time>2026-04-21T14:00:07.666Z</time></trkpt><trkpt lat="44.3218183" lon="9.3085917"><ele>4.8</ele><time>2026-04-21T14:00:08.666Z</time></trkpt><trkpt lat="44.3218717" lon="9.30854"><ele>5.0</ele><time>2026-04-21T14:00:09.666Z</time></trkpt><trkpt lat="44.3219667" lon="9.30853"><ele>5.0</ele><time>2026-04-21T14:00:11.666Z</time></trkpt><trkpt lat="44.3220333" lon="9.3086383"><ele>5.0</ele><time>2026-04-21T14:00:13.666Z</time></trkpt><trkpt lat="44.322" lon="9.3088167"><ele>5.0</ele><time>2026-04-21T14:00:15.665Z</time></trkpt><trkpt lat="44.32195" lon="9.3089267"><ele>5.0</ele><time>2026-04-21T14:00:16.666Z</time></trkpt><trkpt lat="44.3218783" lon="9.3090483"><ele>5.0</ele><time>2026-04-21T14:00:17.666Z</time></trkpt><trkpt lat="44.3217967" lon="9.3091867"><ele>5.8</ele><time>2026-04-21T14:00:18.666Z</time></trkpt><trkpt lat="44.321715" lon="9.3093183"><ele>6.6</ele><time>2026-04-21T14:00:19.666Z</time></trkpt><trkpt lat="44.3216333" lon="9.3094417"><ele>7.4</ele><time>2026-04-21T14:00:20.665Z</time></trkpt><trkpt lat="44.3215633" lon="9.3095483"><ele>8.2</ele><time>2026-04-21T14:00:21.665Z</time></trkpt><trkpt lat="44.3215017" lon="9.309625"><ele>9.0</ele><time>2026-04-21T14:00:22.665Z</time></trkpt><trkpt lat="44.321445" lon="9.3097067"><ele>8.0</ele><time>2026-04-21T14:00:23.666Z</time></trkpt><trkpt lat="44.3213917" lon="9.30981"><ele>7.0</ele><time>2026-04-21T14:00:24.666Z</time></trkpt><trkpt lat="44.3213367" lon="9.309915"><ele>6.0</ele><time>2026-04-21T14:00:25.665Z</time></trkpt><trkpt lat="44.3212967" lon="9.3100383"><ele>5.0</ele><time>2026-04-21T14:00:26.666Z</time></trkpt><trkpt lat="44.3212483" lon="9.3101583"><ele>4.0</ele><time>2026-04-21T14:00:27.666Z</time></trkpt><trkpt lat="44.3212067" lon="9.3102917"><ele>4.0</ele><time>2026-04-21T14:00:28.666Z</time></trkpt><trkpt lat="44.32116" lon="9.3104267"><ele>4.0</ele><time>2026-04-21T14:00:29.666Z</time></trkpt><trkpt lat="44.3211" lon="9.3105533"><ele>4.0</ele><time>2026-04-21T14:00:30.666Z</time></trkpt><trkpt lat="44.3210367" lon="9.31068"><ele>4.0</ele><time>2026-04-21T14:00:31.665Z</time></trkpt><trkpt lat="44.32098" lon="9.310805"><ele>4.0</ele><time>2026-04-21T14:00:32.666Z</time></trkpt><trkpt lat="44.3209233" lon="9.31093"><ele>4.800000000000001</ele><time>2026-04-21T14:00:33.666Z</time></trkpt><trkpt lat="44.3208667" lon="9.3110583"><ele>5.6000000000000005</ele><time>2026-04-21T14:00:34.665Z</time></trkpt><trkpt lat="44.3208267" lon="9.3111833"><ele>6.4</ele><time>2026-04-21T14:00:35.665Z</time></trkpt><trkpt lat="44.3207783" lon="9.31132"><ele>7.2</ele><time>2026-04-21T14:00:36.666Z</time></trkpt><trkpt lat="44.3207317" lon="9.311455"><ele>8.0</ele><time>2026-04-21T14:00:37.666Z</time></trkpt><trkpt lat="44.3206783" lon="9.3115783"><ele>8.8</ele><time>2026-04-21T14:00:38.665Z</time></trkpt><trkpt lat="44.3206217" lon="9.3117067"><ele>9.600000000000001</ele><time>2026-04-21T14:00:39.665Z</time></trkpt><trkpt lat="44.3205683" lon="9.311835"><ele>10.399999999999999</ele><time>2026-04-21T14:00:40.665Z</time></trkpt><trkpt lat="44.32052" lon="9.3119583"><ele>11.2</ele><time>2026-04-21T14:00:41.666Z</time></trkpt><trkpt lat="44.3204767" lon="9.312085"><ele>12.0</ele><time>2026-04-21T14:00:42.666Z</time></trkpt><trkpt lat="44.3204283" lon="9.3122033"><ele>10.4</ele><time>2026-04-21T14:00:43.666Z</time></trkpt><trkpt lat="44.3203833" lon="9.312325"><ele>8.799999999999999</ele><time>2026-04-21T14:00:44.665Z</time></trkpt><trkpt lat="44.32033" lon="9.312445"><ele>7.2</ele><time>2026-04-21T14:00:45.666Z</time></trkpt><trkpt lat="44.32029" lon="9.3125667"><ele>5.6</ele><time>2026-04-21T14:00:46.666Z</time></trkpt><trkpt lat="44.32025" lon="9.3126583"><ele>4.0</ele><time>2026-04-21T14:00:47.666Z</time></trkpt><trkpt lat="44.3202117" lon="9.3127683"><ele>4.0</ele><time>2026-04-21T14:00:48.665Z</time></trkpt><trkpt lat="44.320175" lon="9.31287"><ele>3.9999999999999996</ele><time>2026-04-21T14:00:49.665Z</time></trkpt><trkpt lat="44.3201433" lon="9.3129567"><ele>4.0</ele><time>2026-04-21T14:00:50.665Z</time></trkpt><trkpt lat="44.3201133" lon="9.313045"><ele>4.0</ele><time>2026-04-21T14:00:51.666Z</time></trkpt><trkpt lat="44.3200833" lon="9.3131433"><ele>3.9999999999999996</ele><time>2026-04-21T14:00:52.665Z</time></trkpt><trkpt lat="44.3200567" lon="9.3132383"><ele>4.0</ele><time>2026-04-21T14:00:53.665Z</time></trkpt><trkpt lat="44.3200217" lon="9.3133283"><ele>4.0</ele><time>2026-04-21T14:00:54.665Z</time></trkpt><trkpt lat="44.3199933" lon="9.3134217"><ele>4.428571428571429</ele><time>2026-04-21T14:00:55.666Z</time></trkpt><trkpt lat="44.31996" lon="9.3135167"><ele>4.857142857142857</ele><time>2026-04-21T14:00:56.665Z</time></trkpt><trkpt lat="44.3199283" lon="9.3135983"><ele>5.285714285714286</ele><time>2026-04-21T14:00:57.665Z</time></trkpt><trkpt lat="44.3198983" lon="9.3136833"><ele>5.714285714285714</ele><time>2026-04-21T14:00:58.666Z</time></trkpt><trkpt lat="44.3198667" lon="9.3137717"><ele>6.142857142857142</ele><time>2026-04-21T14:00:59.666Z</time></trkpt><trkpt lat="44.31983" lon="9.3138683"><ele>6.571428571428571</ele><time>2026-04-21T14:01:00.665Z</time></trkpt><trkpt lat="44.3197817" lon="9.313965"><ele>7.0</ele><time>2026-04-21T14:01:01.665Z</time></trkpt><trkpt lat="44.3197283" lon="9.3140717"><ele>7.0</ele><time>2026-04-21T14:01:02.665Z</time></trkpt><trkpt lat="44.3196783" lon="9.3141817"><ele>6.999999999999999</ele><time>2026-04-21T14:01:03.665Z</time></trkpt><trkpt lat="44.31963" lon="9.3142967"><ele>6.999999999999999</ele><time>2026-04-21T14:01:04.666Z</time></trkpt><trkpt lat="44.31958" lon="9.314415"><ele>7.0</ele><time>2026-04-21T14:01:05.666Z</time></trkpt><trkpt lat="44.3195333" lon="9.314535"><ele>7.0</ele><time>2026-04-21T14:01:06.665Z</time></trkpt><trkpt lat="44.3194883" lon="9.3146517"><ele>7.500000000000001</ele><time>2026-04-21T14:01:07.665Z</time></trkpt><trkpt lat="44.319445" lon="9.3147667"><ele>8.0</ele><time>2026-04-21T14:01:08.665Z</time></trkpt><trkpt lat="44.3194017" lon="9.3148767"><ele>8.5</ele><time>2026-04-21T14:01:09.666Z</time></trkpt><trkpt lat="44.319365" lon="9.3149767"><ele>9.0</ele><time>2026-04-21T14:01:10.665Z</time></trkpt><trkpt lat="44.31932" lon="9.3150733"><ele>9.5</ele><time>2026-04-21T14:01:11.666Z</time></trkpt><trkpt lat="44.3192783" lon="9.3151717"><ele>10.0</ele><time>2026-04-21T14:01:12.665Z</time></trkpt><trkpt lat="44.3192383" lon="9.31527"><ele>10.0</ele><time>2026-04-21T14:01:13.665Z</time></trkpt><trkpt lat="44.319195" lon="9.3153633"><ele>10.0</ele><time>2026-04-21T14:01:14.665Z</time></trkpt><trkpt lat="44.319155" lon="9.3154533"><ele>10.0</ele><time>2026-04-21T14:01:15.665Z</time></trkpt><trkpt lat="44.3191233" lon="9.315555"><ele>10.0</ele><time>2026-04-21T14:01:16.666Z</time></trkpt><trkpt lat="44.3190883" lon="9.31565"><ele>10.0</ele><time>2026-04-21T14:01:17.665Z</time></trkpt><trkpt lat="44.3190533" lon="9.3157317"><ele>10.0</ele><time>2026-04-21T14:01:18.665Z</time></trkpt><trkpt lat="44.318995" lon="9.31587"><ele>10.0</ele><time>2026-04-21T14:01:20.665Z</time></trkpt><trkpt lat="44.3189433" lon="9.31599"><ele>10.0</ele><time>2026-04-21T14:01:22.665Z</time></trkpt><trkpt lat="44.3189" lon="9.3160933"><ele>10.0</ele><time>2026-04-21T14:01:24.666Z</time></trkpt><trkpt lat="44.3188617" lon="9.3162117"><ele>10.0</ele><time>2026-04-21T14:01:26.665Z</time></trkpt><trkpt lat="44.3188167" lon="9.3163367"><ele>10.0</ele><time>2026-04-21T14:01:28.665Z</time></trkpt><trkpt lat="44.3187717" lon="9.31646"><ele>9.666666666666668</ele><time>2026-04-21T14:01:30.665Z</time></trkpt><trkpt lat="44.318745" lon="9.3165533"><ele>9.333333333333334</ele><time>2026-04-21T14:01:42.665Z</time></trkpt><trkpt lat="44.3186933" lon="9.31665"><ele>9.0</ele><time>2026-04-21T14:01:55.666Z</time></trkpt><trkpt lat="44.31862" lon="9.3166517"><ele>8.666666666666666</ele><time>2026-04-21T14:01:57.665Z</time></trkpt><trkpt lat="44.3185217" lon="9.316595"><ele>8.333333333333332</ele><time>2026-04-21T14:01:59.665Z</time></trkpt><trkpt lat="44.3184333" lon="9.3165567"><ele>8.0</ele><time>2026-04-21T14:02:01.666Z</time></trkpt><trkpt lat="44.3183267" lon="9.3165217"><ele>8.0</ele><time>2026-04-21T14:02:03.665Z</time></trkpt><trkpt lat="44.318235" lon="9.3165267"><ele>8.0</ele><time>2026-04-21T14:02:05.665Z</time></trkpt><trkpt lat="44.31815" lon="9.3166283"><ele>8.0</ele><time>2026-04-21T14:02:07.666Z</time></trkpt><trkpt lat="44.31809" lon="9.3167617"><ele>8.0</ele><time>2026-04-21T14:02:09.665Z</time></trkpt><trkpt lat="44.3180283" lon="9.3169017"><ele>8.0</ele><time>2026-04-21T14:02:11.665Z</time></trkpt><trkpt lat="44.31796" lon="9.317035"><ele>7.999999999999999</ele><time>2026-04-21T14:02:13.666Z</time></trkpt><trkpt lat="44.3179183" lon="9.3171483"><ele>8.0</ele><time>2026-04-21T14:02:15.665Z</time></trkpt><trkpt lat="44.3178867" lon="9.3172317"><ele>8.0</ele><time>2026-04-21T14:02:17.666Z</time></trkpt><trkpt lat="44.317865" lon="9.3173167"><ele>8.0</ele><time>2026-04-21T14:03:22.666Z</time></trkpt><trkpt lat="44.31782" lon="9.3174033"><ele>7.999999999999999</ele><time>2026-04-21T14:03:24.665Z</time></trkpt><trkpt lat="44.317765" lon="9.3175067"><ele>8.0</ele><time>2026-04-21T14:03:26.665Z</time></trkpt><trkpt lat="44.317715" lon="9.317625"><ele>7.666666666666666</ele><time>2026-04-21T14:03:28.665Z</time></trkpt><trkpt lat="44.317655" lon="9.3177183"><ele>7.333333333333333</ele><time>2026-04-21T14:03:30.666Z</time></trkpt><trkpt lat="44.3175783" lon="9.3177417"><ele>7.0</ele><time>2026-04-21T14:03:32.665Z</time></trkpt><trkpt lat="44.3174767" lon="9.31766"><ele>6.666666666666666</ele><time>2026-04-21T14:03:34.665Z</time></trkpt><trkpt lat="44.3174167" lon="9.317605"><ele>6.333333333333333</ele><time>2026-04-21T14:03:35.665Z</time></trkpt><trkpt lat="44.3173483" lon="9.31755"><ele>6.0</ele><time>2026-04-21T14:03:36.665Z</time></trkpt><trkpt lat="44.3172583" lon="9.31748"><ele>5.8</ele><time>2026-04-21T14:03:37.666Z</time></trkpt><trkpt lat="44.3171583" lon="9.3173933"><ele>5.6</ele><time>2026-04-21T14:03:38.665Z</time></trkpt><trkpt lat="44.317065" lon="9.3173067"><ele>5.4</ele><time>2026-04-21T14:03:39.665Z</time></trkpt><trkpt lat="44.3169733" lon="9.3172283"><ele>5.2</ele><time>2026-04-21T14:03:40.666Z</time></trkpt><trkpt lat="44.3169017" lon="9.3171667"><ele>5.0</ele><time>2026-04-21T14:03:41.665Z</time></trkpt><trkpt lat="44.3168333" lon="9.3171167"><ele>5.0</ele><time>2026-04-21T14:03:42.666Z</time></trkpt><trkpt lat="44.31675" lon="9.3170567"><ele>5.0</ele><time>2026-04-21T14:03:44.666Z</time></trkpt><trkpt lat="44.3166833" lon="9.317005"><ele>5.0</ele><time>2026-04-21T14:03:51.665Z</time></trkpt><trkpt lat="44.3166067" lon="9.31704"><ele>5.0</ele><time>2026-04-21T14:03:58.665Z</time></trkpt><trkpt lat="44.31657" lon="9.3171233"><ele>5.0</ele><time>2026-04-21T14:03:59.666Z</time></trkpt><trkpt lat="44.3165317" lon="9.3172283"><ele>5.0</ele><time>2026-04-21T14:04:00.666Z</time></trkpt><trkpt lat="44.31648" lon="9.3173383"><ele>5.0</ele><time>2026-04-21T14:04:01.665Z</time></trkpt><trkpt lat="44.31642" lon="9.3174567"><ele>5.0</ele><time>2026-04-21T14:04:02.666Z</time></trkpt><trkpt lat="44.3163683" lon="9.31758"><ele>5.0</ele><time>2026-04-21T14:04:03.665Z</time></trkpt><trkpt lat="44.3163083" lon="9.3177"><ele>5.0</ele><time>2026-04-21T14:04:04.665Z</time></trkpt><trkpt lat="44.316235" lon="9.3178267"><ele>5.0</ele><time>2026-04-21T14:04:05.665Z</time></trkpt><trkpt lat="44.3161617" lon="9.3179617"><ele>4.4</ele><time>2026-04-21T14:04:06.666Z</time></trkpt><trkpt lat="44.3160967" lon="9.3181033"><ele>3.8</ele><time>2026-04-21T14:04:07.666Z</time></trkpt><trkpt lat="44.3160433" lon="9.3182283"><ele>3.2</ele><time>2026-04-21T14:04:08.665Z</time></trkpt><trkpt lat="44.31599" lon="9.3183433"><ele>2.6</ele><time>2026-04-21T14:04:09.665Z</time></trkpt><trkpt lat="44.3159467" lon="9.318455"><ele>2.0</ele><time>2026-04-21T14:04:10.665Z</time></trkpt><trkpt lat="44.3159033" lon="9.318565"><ele>1.9999999999999998</ele><time>2026-04-21T14:04:11.666Z</time></trkpt><trkpt lat="44.315855" lon="9.3186583"><ele>2.0</ele><time>2026-04-21T14:04:12.665Z</time></trkpt><trkpt lat="44.3158233" lon="9.3187483"><ele>2.0</ele><time>2026-04-21T14:04:13.665Z</time></trkpt><trkpt lat="44.3157917" lon="9.31885"><ele>2.0</ele><time>2026-04-21T14:04:15.665Z</time></trkpt><trkpt lat="44.3157783" lon="9.3189867"><ele>1.9999999999999998</ele><time>2026-04-21T14:04:21.665Z</time></trkpt><trkpt lat="44.3157317" lon="9.3190667"><ele>2.0</ele><time>2026-04-21T14:04:22.666Z</time></trkpt><trkpt lat="44.31568" lon="9.319155"><ele>2.4000000000000004</ele><time>2026-04-21T14:04:23.665Z</time></trkpt><trkpt lat="44.31562" lon="9.31926"><ele>2.8000000000000003</ele><time>2026-04-21T14:04:24.666Z</time></trkpt><trkpt lat="44.315555" lon="9.3193833"><ele>3.2</ele><time>2026-04-21T14:04:25.665Z</time></trkpt><trkpt lat="44.315495" lon="9.3194983"><ele>3.6</ele><time>2026-04-21T14:04:26.666Z</time></trkpt><trkpt lat="44.3154383" lon="9.3196133"><ele>4.0</ele><time>2026-04-21T14:04:27.665Z</time></trkpt><trkpt lat="44.3153833" lon="9.3197217"><ele>3.6</ele><time>2026-04-21T14:04:28.666Z</time></trkpt><trkpt lat="44.3153267" lon="9.319835"><ele>3.2</ele><time>2026-04-21T14:04:29.665Z</time></trkpt><trkpt lat="44.3152817" lon="9.3199533"><ele>2.8000000000000003</ele><time>2026-04-21T14:04:30.665Z</time></trkpt><trkpt lat="44.315225" lon="9.3200867"><ele>2.4000000000000004</ele><time>2026-04-21T14:04:31.665Z</time></trkpt><trkpt lat="44.3151717" lon="9.320215"><ele>2.0</ele><time>2026-04-21T14:04:32.665Z</time></trkpt><trkpt lat="44.3151167" lon="9.32033"><ele>2.0</ele><time>2026-04-21T14:04:33.666Z</time></trkpt><trkpt lat="44.31506" lon="9.3204667"><ele>2.0</ele><time>2026-04-21T14:04:34.665Z</time></trkpt><trkpt lat="44.315005" lon="9.3206083"><ele>2.0</ele><time>2026-04-21T14:04:35.665Z</time></trkpt><trkpt lat="44.31495" lon="9.3207433"><ele>2.0</ele><time>2026-04-21T14:04:36.666Z</time></trkpt><trkpt lat="44.3148967" lon="9.3208783"><ele>2.0</ele><time>2026-04-21T14:04:37.665Z</time></trkpt><trkpt lat="44.314845" lon="9.32101"><ele>2.0</ele><time>2026-04-21T14:04:38.665Z</time></trkpt><trkpt lat="44.3147933" lon="9.3211333"><ele>2.0</ele><time>2026-04-21T14:04:39.666Z</time></trkpt><trkpt lat="44.3147433" lon="9.3212583"><ele>2.0</ele><time>2026-04-21T14:04:40.665Z</time></trkpt><trkpt lat="44.3146933" lon="9.321375"><ele>2.0</ele><time>2026-04-21T14:04:41.665Z</time></trkpt><trkpt lat="44.3146433" lon="9.32148"><ele>2.0</ele><time>2026-04-21T14:04:42.665Z</time></trkpt><trkpt lat="44.3145917" lon="9.32159"><ele>2.0</ele><time>2026-04-21T14:04:43.665Z</time></trkpt><trkpt lat="44.3145367" lon="9.3217083"><ele>2.0</ele><time>2026-04-21T14:04:44.665Z</time></trkpt><trkpt lat="44.314475" lon="9.3218183"><ele>2.0</ele><time>2026-04-21T14:04:45.665Z</time></trkpt><trkpt lat="44.3144183" lon="9.321915"><ele>2.0</ele><time>2026-04-21T14:04:46.666Z</time></trkpt><trkpt lat="44.31437" lon="9.321985"><ele>1.9999999999999998</ele><time>2026-04-21T14:04:47.665Z</time></trkpt><trkpt lat="44.314315" lon="9.3220383"><ele>2.0</ele><time>2026-04-21T14:04:49.665Z</time></trkpt><trkpt lat="44.314385" lon="9.32204"><ele>2.0</ele><time>2026-04-21T14:04:56.665Z</time></trkpt><trkpt lat="44.314435" lon="9.3219267"><ele>2.0</ele><time>2026-04-21T14:05:04.666Z</time></trkpt><trkpt lat="44.3144733" lon="9.32182"><ele>1.9999999999999998</ele><time>2026-04-21T14:05:05.665Z</time></trkpt><trkpt lat="44.3145167" lon="9.3217083"><ele>2.0</ele><time>2026-04-21T14:05:06.666Z</time></trkpt><trkpt lat="44.3145667" lon="9.3215817"><ele>2.0</ele><time>2026-04-21T14:05:07.666Z</time></trkpt><trkpt lat="44.31462" lon="9.32144"><ele>2.0</ele><time>2026-04-21T14:05:08.665Z</time></trkpt><trkpt lat="44.314685" lon="9.3212917"><ele>2.0</ele><time>2026-04-21T14:05:09.666Z</time></trkpt><trkpt lat="44.3147633" lon="9.3211433"><ele>2.0</ele><time>2026-04-21T14:05:10.665Z</time></trkpt><trkpt lat="44.314845" lon="9.3210067"><ele>2.0</ele><time>2026-04-21T14:05:11.666Z</time></trkpt><trkpt lat="44.3149117" lon="9.3208567"><ele>2.0</ele><time>2026-04-21T14:05:12.666Z</time></trkpt><trkpt lat="44.3151117" lon="9.32035"><ele>2.0</ele><time>2026-04-21T14:05:15.666Z</time></trkpt><trkpt lat="44.3151867" lon="9.3201783"><ele>2.0</ele><time>2026-04-21T14:05:16.665Z</time></trkpt><trkpt lat="44.3152583" lon="9.3200117"><ele>2.0</ele><time>2026-04-21T14:05:17.665Z</time></trkpt><trkpt lat="44.3153383" lon="9.31984"><ele>2.0</ele><time>2026-04-21T14:05:18.665Z</time></trkpt><trkpt lat="44.315425" lon="9.3196633"><ele>1.3333333333333333</ele><time>2026-04-21T14:05:19.665Z</time></trkpt><trkpt lat="44.3155167" lon="9.3194783"><ele>0.6666666666666666</ele><time>2026-04-21T14:05:20.665Z</time></trkpt><trkpt lat="44.3156" lon="9.31931"><ele>0.0</ele><time>2026-04-21T14:05:21.666Z</time></trkpt><trkpt lat="44.3156783" lon="9.3191267"><ele>0.6666666666666666</ele><time>2026-04-21T14:05:22.665Z</time></trkpt><trkpt lat="44.315755" lon="9.3189483"><ele>1.3333333333333333</ele><time>2026-04-21T14:05:23.665Z</time></trkpt><trkpt lat="44.3158383" lon="9.3187583"><ele>2.0</ele><time>2026-04-21T14:05:24.665Z</time></trkpt><trkpt lat="44.3159133" lon="9.3185733"><ele>2.0</ele><time>2026-04-21T14:05:25.665Z</time></trkpt><trkpt lat="44.3159983" lon="9.318405"><ele>2.0</ele><time>2026-04-21T14:05:26.665Z</time></trkpt><trkpt lat="44.3160783" lon="9.3182317"><ele>2.0</ele><time>2026-04-21T14:05:27.666Z</time></trkpt><trkpt lat="44.316145" lon="9.3180567"><ele>2.0</ele><time>2026-04-21T14:05:28.665Z</time></trkpt><trkpt lat="44.31622" lon="9.3178883"><ele>1.75</ele><time>2026-04-21T14:05:29.666Z</time></trkpt><trkpt lat="44.3163017" lon="9.3177167"><ele>1.5</ele><time>2026-04-21T14:05:30.666Z</time></trkpt><trkpt lat="44.3163683" lon="9.3175517"><ele>1.25</ele><time>2026-04-21T14:05:31.666Z</time></trkpt><trkpt lat="44.3164367" lon="9.3173817"><ele>1.0</ele><time>2026-04-21T14:05:32.665Z</time></trkpt><trkpt lat="44.3165" lon="9.3172317"><ele>1.75</ele><time>2026-04-21T14:05:33.666Z</time></trkpt><trkpt lat="44.3165633" lon="9.3170983"><ele>2.5</ele><time>2026-04-21T14:05:34.665Z</time></trkpt><trkpt lat="44.3166133" lon="9.316965"><ele>3.25</ele><time>2026-04-21T14:05:35.665Z</time></trkpt><trkpt lat="44.3166767" lon="9.3168217"><ele>4.0</ele><time>2026-04-21T14:05:36.666Z</time></trkpt><trkpt lat="44.3167483" lon="9.31666"><ele>4.0</ele><time>2026-04-21T14:05:37.666Z</time></trkpt><trkpt lat="44.3168383" lon="9.3164917"><ele>4.0</ele><time>2026-04-21T14:05:38.666Z</time></trkpt><trkpt lat="44.3169267" lon="9.3163083"><ele>4.0</ele><time>2026-04-21T14:05:39.665Z</time></trkpt><trkpt lat="44.3171683" lon="9.3157717"><ele>3.5</ele><time>2026-04-21T14:05:42.666Z</time></trkpt><trkpt lat="44.3172283" lon="9.3155967"><ele>3.0</ele><time>2026-04-21T14:05:43.665Z</time></trkpt><trkpt lat="44.3172967" lon="9.3154333"><ele>2.5</ele><time>2026-04-21T14:05:44.665Z</time></trkpt><trkpt lat="44.3173633" lon="9.3152967"><ele>2.0</ele><time>2026-04-21T14:05:45.666Z</time></trkpt><trkpt lat="44.3174217" lon="9.3151883"><ele>3.0</ele><time>2026-04-21T14:05:46.666Z</time></trkpt><trkpt lat="44.3174667" lon="9.3151267"><ele>4.0</ele><time>2026-04-21T14:05:47.666Z</time></trkpt><trkpt lat="44.3175633" lon="9.3151083"><ele>5.0</ele><time>2026-04-21T14:05:49.666Z</time></trkpt><trkpt lat="44.31765" lon="9.3151717"><ele>6.0</ele><time>2026-04-21T14:05:51.666Z</time></trkpt><trkpt lat="44.3178667" lon="9.3154067"><ele>6.0</ele><time>2026-04-21T14:05:54.666Z</time></trkpt><trkpt lat="44.3179567" lon="9.3154933"><ele>6.0</ele><time>2026-04-21T14:05:55.666Z</time></trkpt><trkpt lat="44.3180383" lon="9.3155283"><ele>6.0</ele><time>2026-04-21T14:05:56.666Z</time></trkpt><trkpt lat="44.3181117" lon="9.3155367"><ele>6.0</ele><time>2026-04-21T14:05:57.665Z</time></trkpt><trkpt lat="44.3182317" lon="9.3153483"><ele>6.0</ele><time>2026-04-21T14:05:59.665Z</time></trkpt><trkpt lat="44.318315" lon="9.3151783"><ele>6.666666666666666</ele><time>2026-04-21T14:06:00.664Z</time></trkpt><trkpt lat="44.3183833" lon="9.3149567"><ele>7.333333333333333</ele><time>2026-04-21T14:06:01.664Z</time></trkpt><trkpt lat="44.3184383" lon="9.3147517"><ele>8.0</ele><time>2026-04-21T14:06:02.664Z</time></trkpt><trkpt lat="44.3184933" lon="9.3145917"><ele>7.0</ele><time>2026-04-21T14:06:03.664Z</time></trkpt><trkpt lat="44.3185433" lon="9.3144367"><ele>6.0</ele><time>2026-04-21T14:06:04.664Z</time></trkpt><trkpt lat="44.3186017" lon="9.3142817"><ele>5.0</ele><time>2026-04-21T14:06:05.665Z</time></trkpt><trkpt lat="44.3186633" lon="9.31414"><ele>4.0</ele><time>2026-04-21T14:06:06.665Z</time></trkpt><trkpt lat="44.3187267" lon="9.314005"><ele>3.5</ele><time>2026-04-21T14:06:07.665Z</time></trkpt><trkpt lat="44.3188617" lon="9.3137583"><ele>3.0</ele><time>2026-04-21T14:06:09.664Z</time></trkpt><trkpt lat="44.31892" lon="9.313635"><ele>2.5</ele><time>2026-04-21T14:06:10.665Z</time></trkpt><trkpt lat="44.3189883" lon="9.3135067"><ele>2.0</ele><time>2026-04-21T14:06:11.665Z</time></trkpt><trkpt lat="44.319045" lon="9.313395"><ele>2.6666666666666665</ele><time>2026-04-21T14:06:12.664Z</time></trkpt><trkpt lat="44.3191033" lon="9.3133"><ele>3.333333333333333</ele><time>2026-04-21T14:06:13.665Z</time></trkpt><trkpt lat="44.3191483" lon="9.3131967"><ele>4.0</ele><time>2026-04-21T14:06:14.664Z</time></trkpt><trkpt lat="44.3191883" lon="9.3131083"><ele>4.666666666666667</ele><time>2026-04-21T14:06:15.664Z</time></trkpt><trkpt lat="44.31922" lon="9.31303"><ele>5.333333333333333</ele><time>2026-04-21T14:06:16.664Z</time></trkpt><trkpt lat="44.319245" lon="9.312935"><ele>6.0</ele><time>2026-04-21T14:06:18.664Z</time></trkpt><trkpt lat="44.319295" lon="9.3128317"><ele>6.0</ele><time>2026-04-21T14:07:19.665Z</time></trkpt><trkpt lat="44.3193367" lon="9.3127333"><ele>6.0</ele><time>2026-04-21T14:07:20.664Z</time></trkpt><trkpt lat="44.319385" lon="9.31263"><ele>6.0</ele><time>2026-04-21T14:07:21.664Z</time></trkpt><trkpt lat="44.3194583" lon="9.3125183"><ele>6.0</ele><time>2026-04-21T14:07:22.664Z</time></trkpt><trkpt lat="44.31953" lon="9.3123967"><ele>6.0</ele><time>2026-04-21T14:07:23.664Z</time></trkpt><trkpt lat="44.3195917" lon="9.3122567"><ele>5.3999999999999995</ele><time>2026-04-21T14:07:24.665Z</time></trkpt><trkpt lat="44.319645" lon="9.312115"><ele>4.8</ele><time>2026-04-21T14:07:25.664Z</time></trkpt><trkpt lat="44.3197017" lon="9.3119833"><ele>4.199999999999999</ele><time>2026-04-21T14:07:26.665Z</time></trkpt><trkpt lat="44.3197467" lon="9.3118567"><ele>3.5999999999999996</ele><time>2026-04-21T14:07:27.664Z</time></trkpt><trkpt lat="44.3197983" lon="9.3117333"><ele>3.0</ele><time>2026-04-21T14:07:28.665Z</time></trkpt><trkpt lat="44.31986" lon="9.311605"><ele>3.0</ele><time>2026-04-21T14:07:29.664Z</time></trkpt><trkpt lat="44.3199233" lon="9.311485"><ele>3.0</ele><time>2026-04-21T14:07:30.664Z</time></trkpt><trkpt lat="44.3200017" lon="9.3113667"><ele>3.0</ele><time>2026-04-21T14:07:31.664Z</time></trkpt><trkpt lat="44.3200667" lon="9.3112283"><ele>3.0</ele><time>2026-04-21T14:07:32.664Z</time></trkpt><trkpt lat="44.3201617" lon="9.3111"><ele>3.0</ele><time>2026-04-21T14:07:33.664Z</time></trkpt><trkpt lat="44.3202783" lon="9.310975"><ele>3.0</ele><time>2026-04-21T14:07:34.664Z</time></trkpt><trkpt lat="44.3204667" lon="9.3107317"><ele>3.0</ele><time>2026-04-21T14:07:36.665Z</time></trkpt><trkpt lat="44.3205567" lon="9.3105983"><ele>3.25</ele><time>2026-04-21T14:07:37.664Z</time></trkpt><trkpt lat="44.320645" lon="9.3104683"><ele>3.5</ele><time>2026-04-21T14:07:38.664Z</time></trkpt><trkpt lat="44.3207383" lon="9.3103367"><ele>3.75</ele><time>2026-04-21T14:07:39.664Z</time></trkpt><trkpt lat="44.3208333" lon="9.3101883"><ele>4.0</ele><time>2026-04-21T14:07:40.664Z</time></trkpt><trkpt lat="44.3209217" lon="9.3100467"><ele>4.0</ele><time>2026-04-21T14:07:41.665Z</time></trkpt><trkpt lat="44.321" lon="9.3099083"><ele>4.0</ele><time>2026-04-21T14:07:42.665Z</time></trkpt><trkpt lat="44.321085" lon="9.3097967"><ele>4.0</ele><time>2026-04-21T14:07:43.664Z</time></trkpt><trkpt lat="44.321145" lon="9.3097067"><ele>4.0</ele><time>2026-04-21T14:07:44.665Z</time></trkpt><trkpt lat="44.3211967" lon="9.3096233"><ele>4.0</ele><time>2026-04-21T14:07:45.665Z</time></trkpt><trkpt lat="44.32127" lon="9.3095283"><ele>4.0</ele><time>2026-04-21T14:07:46.664Z</time></trkpt><trkpt lat="44.3213533" lon="9.3094117"><ele>4.0</ele><time>2026-04-21T14:07:47.665Z</time></trkpt><trkpt lat="44.3214483" lon="9.30925"><ele>4.0</ele><time>2026-04-21T14:07:48.664Z</time></trkpt><trkpt lat="44.32153" lon="9.3090933"><ele>4.0</ele><time>2026-04-21T14:07:49.664Z</time></trkpt><trkpt lat="44.3216083" lon="9.3089633"><ele>4.166666666666666</ele><time>2026-04-21T14:07:50.665Z</time></trkpt><trkpt lat="44.3216717" lon="9.3088433"><ele>4.333333333333333</ele><time>2026-04-21T14:07:51.665Z</time></trkpt><trkpt lat="44.32173" lon="9.3087233"><ele>4.5</ele><time>2026-04-21T14:07:52.665Z</time></trkpt><trkpt lat="44.32178" lon="9.3086217"><ele>4.666666666666667</ele><time>2026-04-21T14:07:53.664Z</time></trkpt><trkpt lat="44.3218383" lon="9.3085583"><ele>4.833333333333334</ele><time>2026-04-21T14:07:54.665Z</time></trkpt><trkpt lat="44.3219" lon="9.3085233"><ele>5.0</ele><time>2026-04-21T14:07:55.665Z</time></trkpt><trkpt lat="44.3219983" lon="9.3085467"><ele>5.0</ele><time>2026-04-21T14:07:57.665Z</time></trkpt><trkpt lat="44.3220567" lon="9.3086767"><ele>5.0</ele><time>2026-04-21T14:07:59.664Z</time></trkpt><trkpt lat="44.3220383" lon="9.308765"><ele>5.0</ele><time>2026-04-21T14:08:00.664Z</time></trkpt><trkpt lat="44.321995" lon="9.3088783"><ele>5.0</ele><time>2026-04-21T14:08:01.664Z</time></trkpt><trkpt lat="44.32191" lon="9.3090217"><ele>5.0</ele><time>2026-04-21T14:08:02.664Z</time></trkpt><trkpt lat="44.3218" lon="9.3091567"><ele>6.0</ele><time>2026-04-21T14:08:03.665Z</time></trkpt><trkpt lat="44.3216917" lon="9.3092983"><ele>7.0</ele><time>2026-04-21T14:08:04.664Z</time></trkpt><trkpt lat="44.3216" lon="9.3094267"><ele>8.0</ele><time>2026-04-21T14:08:05.665Z</time></trkpt><trkpt lat="44.3215183" lon="9.3095533"><ele>9.0</ele><time>2026-04-21T14:08:06.664Z</time></trkpt><trkpt lat="44.3214533" lon="9.30966"><ele>7.75</ele><time>2026-04-21T14:08:07.665Z</time></trkpt><trkpt lat="44.3213817" lon="9.3097783"><ele>6.5</ele><time>2026-04-21T14:08:08.664Z</time></trkpt><trkpt lat="44.321325" lon="9.3099133"><ele>5.25</ele><time>2026-04-21T14:08:09.665Z</time></trkpt><trkpt lat="44.321285" lon="9.3100583"><ele>4.0</ele><time>2026-04-21T14:08:10.664Z</time></trkpt><trkpt lat="44.3212267" lon="9.310215"><ele>4.0</ele><time>2026-04-21T14:08:11.665Z</time></trkpt><trkpt lat="44.32118" lon="9.310365"><ele>4.0</ele><time>2026-04-21T14:08:12.665Z</time></trkpt><trkpt lat="44.3211167" lon="9.3105183"><ele>4.0</ele><time>2026-04-21T14:08:13.665Z</time></trkpt><trkpt lat="44.321055" lon="9.3106667"><ele>4.0</ele><time>2026-04-21T14:08:14.664Z</time></trkpt><trkpt lat="44.3209867" lon="9.310805"><ele>5.0</ele><time>2026-04-21T14:08:15.664Z</time></trkpt><trkpt lat="44.3209217" lon="9.3109467"><ele>6.0</ele><time>2026-04-21T14:08:16.664Z</time></trkpt><trkpt lat="44.3208733" lon="9.3110967"><ele>7.0</ele><time>2026-04-21T14:08:17.664Z</time></trkpt><trkpt lat="44.320825" lon="9.3112483"><ele>8.0</ele><time>2026-04-21T14:08:18.664Z</time></trkpt><trkpt lat="44.3207717" lon="9.311375"><ele>8.8</ele><time>2026-04-21T14:08:19.664Z</time></trkpt><trkpt lat="44.32072" lon="9.3115033"><ele>9.600000000000001</ele><time>2026-04-21T14:08:20.665Z</time></trkpt><trkpt lat="44.3206667" lon="9.3116233"><ele>10.399999999999999</ele><time>2026-04-21T14:08:21.665Z</time></trkpt><trkpt lat="44.32062" lon="9.3117317"><ele>11.2</ele><time>2026-04-21T14:08:22.664Z</time></trkpt><trkpt lat="44.3205767" lon="9.3118317"><ele>12.0</ele><time>2026-04-21T14:08:23.665Z</time></trkpt><trkpt lat="44.3205333" lon="9.31194"><ele>10.666666666666666</ele><time>2026-04-21T14:08:24.665Z</time></trkpt><trkpt lat="44.3204933" lon="9.3120533"><ele>9.333333333333334</ele><time>2026-04-21T14:08:25.664Z</time></trkpt><trkpt lat="44.32045" lon="9.312165"><ele>8.0</ele><time>2026-04-21T14:08:26.664Z</time></trkpt><trkpt lat="44.3204033" lon="9.3122783"><ele>6.666666666666666</ele><time>2026-04-21T14:08:27.664Z</time></trkpt><trkpt lat="44.3203533" lon="9.312385"><ele>5.333333333333333</ele><time>2026-04-21T14:08:28.665Z</time></trkpt><trkpt lat="44.320315" lon="9.31248"><ele>4.0</ele><time>2026-04-21T14:08:29.664Z</time></trkpt><trkpt lat="44.320275" lon="9.3125683"><ele>3.9999999999999996</ele><time>2026-04-21T14:08:30.664Z</time></trkpt><trkpt lat="44.3202433" lon="9.3126533"><ele>4.0</ele><time>2026-04-21T14:08:31.665Z</time></trkpt><trkpt lat="44.3202117" lon="9.3127333"><ele>4.0</ele><time>2026-04-21T14:08:32.664Z</time></trkpt><trkpt lat="44.3201833" lon="9.312815"><ele>4.0</ele><time>2026-04-21T14:08:33.664Z</time></trkpt><trkpt lat="44.320125" lon="9.3129667"><ele>3.9999999999999996</ele><time>2026-04-21T14:08:35.665Z</time></trkpt><trkpt lat="44.3200983" lon="9.3130517"><ele>4.0</ele><time>2026-04-21T14:08:36.664Z</time></trkpt><trkpt lat="44.320075" lon="9.31315"><ele>4.714285714285714</ele><time>2026-04-21T14:08:37.664Z</time></trkpt><trkpt lat="44.3200417" lon="9.313245"><ele>5.428571428571429</ele><time>2026-04-21T14:08:38.665Z</time></trkpt><trkpt lat="44.3199983" lon="9.3133333"><ele>6.142857142857143</ele><time>2026-04-21T14:08:39.665Z</time></trkpt><trkpt lat="44.3199633" lon="9.3134217"><ele>6.857142857142858</ele><time>2026-04-21T14:08:40.665Z</time></trkpt><trkpt lat="44.3199333" lon="9.313505"><ele>7.571428571428571</ele><time>2026-04-21T14:08:41.664Z</time></trkpt><trkpt lat="44.3198883" lon="9.313615"><ele>8.285714285714286</ele><time>2026-04-21T14:08:43.665Z</time></trkpt><trkpt lat="44.3198483" lon="9.3136833"><ele>9.0</ele><time>2026-04-21T14:08:45.664Z</time></trkpt><trkpt lat="44.3198133" lon="9.3137783"><ele>9.0</ele><time>2026-04-21T14:08:47.665Z</time></trkpt><trkpt lat="44.3197633" lon="9.313885"><ele>9.0</ele><time>2026-04-21T14:08:49.664Z</time></trkpt><trkpt lat="44.3197033" lon="9.3140117"><ele>9.0</ele><time>2026-04-21T14:08:51.664Z</time></trkpt><trkpt lat="44.3196717" lon="9.314095"><ele>9.0</ele><time>2026-04-21T14:08:52.665Z</time></trkpt><trkpt lat="44.3196417" lon="9.314175"><ele>9.0</ele><time>2026-04-21T14:08:53.665Z</time></trkpt><trkpt lat="44.319585" lon="9.3143233"><ele>9.2</ele><time>2026-04-21T14:08:55.665Z</time></trkpt><trkpt lat="44.3195317" lon="9.3144417"><ele>9.4</ele><time>2026-04-21T14:08:57.664Z</time></trkpt><trkpt lat="44.319495" lon="9.3145483"><ele>9.6</ele><time>2026-04-21T14:08:59.664Z</time></trkpt><trkpt lat="44.31945" lon="9.31466"><ele>9.8</ele><time>2026-04-21T14:09:01.664Z</time></trkpt><trkpt lat="44.3193933" lon="9.314805"><ele>10.0</ele><time>2026-04-21T14:09:03.664Z</time></trkpt><trkpt lat="44.3193583" lon="9.31489"><ele>10.0</ele><time>2026-04-21T14:09:04.664Z</time></trkpt><trkpt lat="44.3193217" lon="9.314985"><ele>10.0</ele><time>2026-04-21T14:09:05.664Z</time></trkpt><trkpt lat="44.3192783" lon="9.3150783"><ele>10.0</ele><time>2026-04-21T14:09:06.664Z</time></trkpt><trkpt lat="44.3192433" lon="9.315175"><ele>10.0</ele><time>2026-04-21T14:09:07.665Z</time></trkpt><trkpt lat="44.3192067" lon="9.31527"><ele>10.0</ele><time>2026-04-21T14:09:08.665Z</time></trkpt><trkpt lat="44.3191667" lon="9.3153617"><ele>10.0</ele><time>2026-04-21T14:09:09.664Z</time></trkpt><trkpt lat="44.3191333" lon="9.3154617"><ele>10.0</ele><time>2026-04-21T14:09:10.664Z</time></trkpt><trkpt lat="44.3191033" lon="9.315565"><ele>10.0</ele><time>2026-04-21T14:09:11.664Z</time></trkpt><trkpt lat="44.319065" lon="9.3156617"><ele>10.0</ele><time>2026-04-21T14:09:12.665Z</time></trkpt><trkpt lat="44.319025" lon="9.3157467"><ele>10.0</ele><time>2026-04-21T14:09:13.665Z</time></trkpt><trkpt lat="44.31899" lon="9.3158367"><ele>10.0</ele><time>2026-04-21T14:09:14.665Z</time></trkpt><trkpt lat="44.3189567" lon="9.31592"><ele>10.0</ele><time>2026-04-21T14:09:15.665Z</time></trkpt><trkpt lat="44.3189217" lon="9.316005"><ele>10.0</ele><time>2026-04-21T14:09:16.665Z</time></trkpt><trkpt lat="44.3188967" lon="9.3160967"><ele>10.0</ele><time>2026-04-21T14:09:17.664Z</time></trkpt><trkpt lat="44.3188683" lon="9.3161967"><ele>10.0</ele><time>2026-04-21T14:09:18.664Z</time></trkpt><trkpt lat="44.318835" lon="9.3162833"><ele>10.0</ele><time>2026-04-21T14:09:19.665Z</time></trkpt><trkpt lat="44.3188067" lon="9.31637"><ele>10.0</ele><time>2026-04-21T14:09:20.664Z</time></trkpt><trkpt lat="44.31875" lon="9.31651"><ele>10.0</ele><time>2026-04-21T14:09:22.664Z</time></trkpt><trkpt lat="44.3186883" lon="9.3165917"><ele>10.0</ele><time>2026-04-21T14:09:24.665Z</time></trkpt><trkpt lat="44.318645" lon="9.3166633"><ele>9.6</ele><time>2026-04-21T14:09:27.665Z</time></trkpt><trkpt lat="44.3185483" lon="9.3166433"><ele>9.2</ele><time>2026-04-21T14:09:30.664Z</time></trkpt><trkpt lat="44.31843" lon="9.3165617"><ele>8.8</ele><time>2026-04-21T14:09:32.665Z</time></trkpt><trkpt lat="44.318365" lon="9.3165233"><ele>8.4</ele><time>2026-04-21T14:09:33.665Z</time></trkpt><trkpt lat="44.3182533" lon="9.3164817"><ele>8.0</ele><time>2026-04-21T14:09:35.664Z</time></trkpt><trkpt lat="44.3181867" lon="9.316495"><ele>7.999999999999999</ele><time>2026-04-21T14:09:36.664Z</time></trkpt><trkpt lat="44.3181267" lon="9.3165617"><ele>8.0</ele><time>2026-04-21T14:09:37.664Z</time></trkpt><trkpt lat="44.3180733" lon="9.316645"><ele>8.0</ele><time>2026-04-21T14:09:38.665Z</time></trkpt><trkpt lat="44.31803" lon="9.316745"><ele>8.0</ele><time>2026-04-21T14:09:39.664Z</time></trkpt><trkpt lat="44.3179883" lon="9.3168483"><ele>7.999999999999999</ele><time>2026-04-21T14:09:40.664Z</time></trkpt><trkpt lat="44.3179517" lon="9.3169367"><ele>8.0</ele><time>2026-04-21T14:09:41.664Z</time></trkpt><trkpt lat="44.3179183" lon="9.3170167"><ele>8.0</ele><time>2026-04-21T14:09:42.664Z</time></trkpt><trkpt lat="44.3178667" lon="9.3171367"><ele>8.0</ele><time>2026-04-21T14:09:44.665Z</time></trkpt><trkpt lat="44.3178633" lon="9.3172667"><ele>8.0</ele><time>2026-04-21T14:10:24.664Z</time></trkpt><trkpt lat="44.3178133" lon="9.3173767"><ele>8.0</ele><time>2026-04-21T14:10:26.664Z</time></trkpt><trkpt lat="44.31775" lon="9.31751"><ele>8.0</ele><time>2026-04-21T14:10:28.664Z</time></trkpt><trkpt lat="44.3176833" lon="9.3176383"><ele>7.666666666666666</ele><time>2026-04-21T14:10:30.664Z</time></trkpt><trkpt lat="44.31763" lon="9.3177267"><ele>7.333333333333333</ele><time>2026-04-21T14:10:32.665Z</time></trkpt><trkpt lat="44.31756" lon="9.3177367"><ele>7.0</ele><time>2026-04-21T14:10:34.664Z</time></trkpt><trkpt lat="44.3174633" lon="9.31765"><ele>6.666666666666666</ele><time>2026-04-21T14:10:36.664Z</time></trkpt><trkpt lat="44.3174067" lon="9.317605"><ele>6.333333333333333</ele><time>2026-04-21T14:10:37.664Z</time></trkpt><trkpt lat="44.3173467" lon="9.317555"><ele>6.0</ele><time>2026-04-21T14:10:38.665Z</time></trkpt><trkpt lat="44.3172817" lon="9.3175033"><ele>5.833333333333333</ele><time>2026-04-21T14:10:39.665Z</time></trkpt><trkpt lat="44.317205" lon="9.317435"><ele>5.666666666666667</ele><time>2026-04-21T14:10:40.664Z</time></trkpt><trkpt lat="44.3171267" lon="9.3173667"><ele>5.5</ele><time>2026-04-21T14:10:41.665Z</time></trkpt><trkpt lat="44.3170567" lon="9.317295"><ele>5.333333333333334</ele><time>2026-04-21T14:10:42.665Z</time></trkpt><trkpt lat="44.3169967" lon="9.3172333"><ele>5.166666666666667</ele><time>2026-04-21T14:10:43.665Z</time></trkpt><trkpt lat="44.316935" lon="9.3171867"><ele>5.0</ele><time>2026-04-21T14:10:44.665Z</time></trkpt><trkpt lat="44.31688" lon="9.3171433"><ele>4.8</ele><time>2026-04-21T14:10:45.664Z</time></trkpt><trkpt lat="44.3167883" lon="9.3170767"><ele>4.6</ele><time>2026-04-21T14:10:47.664Z</time></trkpt><trkpt lat="44.3167167" lon="9.3170317"><ele>4.4</ele><time>2026-04-21T14:10:49.664Z</time></trkpt><trkpt lat="44.3166067" lon="9.3169783"><ele>4.2</ele><time>2026-04-21T14:11:00.664Z</time></trkpt><trkpt lat="44.3165533" lon="9.3170833"><ele>4.0</ele><time>2026-04-21T14:11:02.664Z</time></trkpt><trkpt lat="44.31652" lon="9.31718"><ele>4.2</ele><time>2026-04-21T14:11:03.664Z</time></trkpt><trkpt lat="44.3164767" lon="9.3172867"><ele>4.4</ele><time>2026-04-21T14:11:04.664Z</time></trkpt><trkpt lat="44.31642" lon="9.3174067"><ele>4.6</ele><time>2026-04-21T14:11:05.665Z</time></trkpt><trkpt lat="44.3163633" lon="9.31753"><ele>4.8</ele><time>2026-04-21T14:11:06.665Z</time></trkpt><trkpt lat="44.3163067" lon="9.317665"><ele>5.0</ele><time>2026-04-21T14:11:07.665Z</time></trkpt><trkpt lat="44.3162483" lon="9.3177883"><ele>4.25</ele><time>2026-04-21T14:11:08.665Z</time></trkpt><trkpt lat="44.31619" lon="9.3179317"><ele>3.5</ele><time>2026-04-21T14:11:09.664Z</time></trkpt><trkpt lat="44.3161317" lon="9.318075"><ele>2.75</ele><time>2026-04-21T14:11:10.664Z</time></trkpt><trkpt lat="44.3160717" lon="9.31821"><ele>2.0</ele><time>2026-04-21T14:11:11.664Z</time></trkpt><trkpt lat="44.316" lon="9.31835"><ele>2.0</ele><time>2026-04-21T14:11:12.665Z</time></trkpt><trkpt lat="44.3159417" lon="9.3184883"><ele>2.0</ele><time>2026-04-21T14:11:13.665Z</time></trkpt><trkpt lat="44.31589" lon="9.3186133"><ele>2.0</ele><time>2026-04-21T14:11:14.665Z</time></trkpt><trkpt lat="44.31583" lon="9.318735"><ele>2.0</ele><time>2026-04-21T14:11:15.664Z</time></trkpt><trkpt lat="44.3157733" lon="9.3188517"><ele>2.0</ele><time>2026-04-21T14:11:16.665Z</time></trkpt><trkpt lat="44.3157083" lon="9.3189767"><ele>2.5</ele><time>2026-04-21T14:11:17.664Z</time></trkpt><trkpt lat="44.3156433" lon="9.3191067"><ele>3.0</ele><time>2026-04-21T14:11:18.664Z</time></trkpt><trkpt lat="44.3155733" lon="9.3192417"><ele>3.5</ele><time>2026-04-21T14:11:19.664Z</time></trkpt><trkpt lat="44.315515" lon="9.3193767"><ele>4.0</ele><time>2026-04-21T14:11:20.664Z</time></trkpt><trkpt lat="44.3154567" lon="9.3194983"><ele>3.6666666666666665</ele><time>2026-04-21T14:11:21.665Z</time></trkpt><trkpt lat="44.3154233" lon="9.31959"><ele>3.333333333333333</ele><time>2026-04-21T14:11:22.665Z</time></trkpt><trkpt lat="44.315375" lon="9.3196967"><ele>3.0</ele><time>2026-04-21T14:11:24.664Z</time></trkpt><trkpt lat="44.3153183" lon="9.3197933"><ele>2.6666666666666665</ele><time>2026-04-21T14:11:26.665Z</time></trkpt><trkpt lat="44.3152817" lon="9.3198783"><ele>2.333333333333333</ele><time>2026-04-21T14:11:27.664Z</time></trkpt><trkpt lat="44.31523" lon="9.3200017"><ele>2.0</ele><time>2026-04-21T14:11:28.665Z</time></trkpt><trkpt lat="44.3151633" lon="9.320155"><ele>2.0</ele><time>2026-04-21T14:11:29.665Z</time></trkpt><trkpt lat="44.3150983" lon="9.320315"><ele>2.0</ele><time>2026-04-21T14:11:30.665Z</time></trkpt><trkpt lat="44.31503" lon="9.3204767"><ele>2.0</ele><time>2026-04-21T14:11:31.664Z</time></trkpt><trkpt lat="44.314965" lon="9.320645"><ele>2.0</ele><time>2026-04-21T14:11:32.664Z</time></trkpt><trkpt lat="44.3149" lon="9.320775"><ele>1.8</ele><time>2026-04-21T14:11:33.665Z</time></trkpt><trkpt lat="44.3148483" lon="9.320885"><ele>1.6</ele><time>2026-04-21T14:11:34.664Z</time></trkpt><trkpt lat="44.314805" lon="9.32098"><ele>1.4000000000000001</ele><time>2026-04-21T14:11:35.665Z</time></trkpt><trkpt lat="44.3147633" lon="9.321085"><ele>1.2000000000000002</ele><time>2026-04-21T14:11:36.665Z</time></trkpt><trkpt lat="44.31472" lon="9.3211967"><ele>1.0</ele><time>2026-04-21T14:11:37.665Z</time></trkpt><trkpt lat="44.3146633" lon="9.3213183"><ele>1.2000000000000002</ele><time>2026-04-21T14:11:38.665Z</time></trkpt><trkpt lat="44.31461" lon="9.3214567"><ele>1.4000000000000001</ele><time>2026-04-21T14:11:39.664Z</time></trkpt><trkpt lat="44.31455" lon="9.3215983"><ele>1.6</ele><time>2026-04-21T14:11:40.665Z</time></trkpt><trkpt lat="44.3144933" lon="9.321735"><ele>1.8</ele><time>2026-04-21T14:11:41.664Z</time></trkpt><trkpt lat="44.3144467" lon="9.3218633"><ele>2.0</ele><time>2026-04-21T14:11:42.664Z</time></trkpt><trkpt lat="44.3144017" lon="9.32199"><ele>2.0</ele><time>2026-04-21T14:11:43.664Z</time></trkpt><trkpt lat="44.3143483" lon="9.32212"><ele>2.0</ele><time>2026-04-21T14:11:44.664Z</time></trkpt><trkpt lat="44.31429" lon="9.3222583"><ele>2.0</ele><time>2026-04-21T14:11:45.665Z</time></trkpt><trkpt lat="44.314225" lon="9.32241"><ele>2.0</ele><time>2026-04-21T14:11:46.664Z</time></trkpt><trkpt lat="44.3141633" lon="9.32256"><ele>2.5</ele><time>2026-04-21T14:11:47.665Z</time></trkpt><trkpt lat="44.31409" lon="9.3227"><ele>3.0</ele><time>2026-04-21T14:11:48.665Z</time></trkpt><trkpt lat="44.31402" lon="9.322855"><ele>3.5</ele><time>2026-04-21T14:11:49.664Z</time></trkpt><trkpt lat="44.3139533" lon="9.3230133"><ele>4.0</ele><time>2026-04-21T14:11:50.664Z</time></trkpt><trkpt lat="44.3138817" lon="9.323185"><ele>3.0</ele><time>2026-04-21T14:11:51.665Z</time></trkpt><trkpt lat="44.3138083" lon="9.3233583"><ele>2.0</ele><time>2026-04-21T14:11:52.664Z</time></trkpt><trkpt lat="44.313735" lon="9.323535"><ele>1.0</ele><time>2026-04-21T14:11:53.664Z</time></trkpt><trkpt lat="44.3136767" lon="9.3236867"><ele>0.0</ele><time>2026-04-21T14:11:54.664Z</time></trkpt><trkpt lat="44.3136083" lon="9.3238333"><ele>0.6</ele><time>2026-04-21T14:11:55.665Z</time></trkpt><trkpt lat="44.31354" lon="9.323985"><ele>1.2</ele><time>2026-04-21T14:11:56.665Z</time></trkpt><trkpt lat="44.31348" lon="9.3241333"><ele>1.7999999999999998</ele><time>2026-04-21T14:11:57.665Z</time></trkpt><trkpt lat="44.3134267" lon="9.324255"><ele>2.4</ele><time>2026-04-21T14:11:58.664Z</time></trkpt><trkpt lat="44.3133833" lon="9.3243433"><ele>3.0</ele><time>2026-04-21T14:11:59.664Z</time></trkpt><trkpt lat="44.3133483" lon="9.32442"><ele>3.0</ele><time>2026-04-21T14:12:00.664Z</time></trkpt><trkpt lat="44.3133017" lon="9.3245567"><ele>3.0</ele><time>2026-04-21T14:12:02.664Z</time></trkpt><trkpt lat="44.3132433" lon="9.3246683"><ele>3.0</ele><time>2026-04-21T14:12:04.664Z</time></trkpt><trkpt lat="44.3131417" lon="9.324755"><ele>3.0</ele><time>2026-04-21T14:12:06.664Z</time></trkpt><trkpt lat="44.3130783" lon="9.3248517"><ele>3.0</ele><time>2026-04-21T14:12:08.665Z</time></trkpt><trkpt lat="44.31305" lon="9.3249317"><ele>3.0</ele><time>2026-04-21T14:12:09.665Z</time></trkpt><trkpt lat="44.31302" lon="9.325035"><ele>3.0</ele><time>2026-04-21T14:12:10.665Z</time></trkpt><trkpt lat="44.31298" lon="9.325145"><ele>3.0</ele><time>2026-04-21T14:12:11.665Z</time></trkpt><trkpt lat="44.3129267" lon="9.3252683"><ele>3.0</ele><time>2026-04-21T14:12:12.665Z</time></trkpt><trkpt lat="44.31287" lon="9.3254017"><ele>3.0</ele><time>2026-04-21T14:12:13.664Z</time></trkpt><trkpt lat="44.312805" lon="9.3255483"><ele>3.75</ele><time>2026-04-21T14:12:14.665Z</time></trkpt><trkpt lat="44.3127317" lon="9.325695"><ele>4.5</ele><time>2026-04-21T14:12:15.665Z</time></trkpt><trkpt lat="44.312655" lon="9.3258283"><ele>5.25</ele><time>2026-04-21T14:12:16.664Z</time></trkpt><trkpt lat="44.312595" lon="9.3259517"><ele>6.0</ele><time>2026-04-21T14:12:17.665Z</time></trkpt><trkpt lat="44.312545" lon="9.3260733"><ele>6.0</ele><time>2026-04-21T14:12:18.664Z</time></trkpt><trkpt lat="44.3124933" lon="9.3262017"><ele>6.0</ele><time>2026-04-21T14:12:19.664Z</time></trkpt><trkpt lat="44.31245" lon="9.326315"><ele>6.0</ele><time>2026-04-21T14:12:20.664Z</time></trkpt><trkpt lat="44.3124183" lon="9.3264083"><ele>6.0</ele><time>2026-04-21T14:12:21.664Z</time></trkpt><trkpt lat="44.31239" lon="9.3264917"><ele>6.0</ele><time>2026-04-21T14:12:22.664Z</time></trkpt><trkpt lat="44.3123667" lon="9.326585"><ele>6.0</ele><time>2026-04-21T14:12:23.664Z</time></trkpt><trkpt lat="44.312345" lon="9.3266867"><ele>6.166666666666667</ele><time>2026-04-21T14:12:24.664Z</time></trkpt><trkpt lat="44.3123117" lon="9.3267883"><ele>6.333333333333334</ele><time>2026-04-21T14:12:25.664Z</time></trkpt><trkpt lat="44.3122783" lon="9.326895"><ele>6.5</ele><time>2026-04-21T14:12:26.665Z</time></trkpt><trkpt lat="44.3122367" lon="9.3269967"><ele>6.666666666666667</ele><time>2026-04-21T14:12:27.664Z</time></trkpt><trkpt lat="44.3122" lon="9.3271117"><ele>6.833333333333334</ele><time>2026-04-21T14:12:28.665Z</time></trkpt><trkpt lat="44.312165" lon="9.327235"><ele>7.0</ele><time>2026-04-21T14:12:29.664Z</time></trkpt><trkpt lat="44.3121383" lon="9.3273767"><ele>6.6</ele><time>2026-04-21T14:12:30.665Z</time></trkpt><trkpt lat="44.3121217" lon="9.3275233"><ele>6.199999999999999</ele><time>2026-04-21T14:12:31.664Z</time></trkpt><trkpt lat="44.3120917" lon="9.3276667"><ele>5.8</ele><time>2026-04-21T14:12:32.664Z</time></trkpt><trkpt lat="44.31206" lon="9.3278117"><ele>5.4</ele><time>2026-04-21T14:12:33.664Z</time></trkpt><trkpt lat="44.3120217" lon="9.3279517"><ele>5.0</ele><time>2026-04-21T14:12:34.665Z</time></trkpt><trkpt lat="44.3119883" lon="9.3280767"><ele>5.0</ele><time>2026-04-21T14:12:35.664Z</time></trkpt><trkpt lat="44.31196" lon="9.3282017"><ele>5.0</ele><time>2026-04-21T14:12:36.664Z</time></trkpt><trkpt lat="44.311945" lon="9.3283317"><ele>5.0</ele><time>2026-04-21T14:12:37.664Z</time></trkpt><trkpt lat="44.31194" lon="9.328465"><ele>5.0</ele><time>2026-04-21T14:12:38.664Z</time></trkpt><trkpt lat="44.3119467" lon="9.3286167"><ele>5.0</ele><time>2026-04-21T14:12:39.665Z</time></trkpt><trkpt lat="44.3119433" lon="9.328775"><ele>5.0</ele><time>2026-04-21T14:12:40.664Z</time></trkpt><trkpt lat="44.3119433" lon="9.3289467"><ele>5.0</ele><time>2026-04-21T14:12:41.664Z</time></trkpt><trkpt lat="44.311945" lon="9.3291167"><ele>5.0</ele><time>2026-04-21T14:12:42.664Z</time></trkpt><trkpt lat="44.3119467" lon="9.3292933"><ele>5.0</ele><time>2026-04-21T14:12:43.665Z</time></trkpt><trkpt lat="44.3119417" lon="9.3294883"><ele>5.0</ele><time>2026-04-21T14:12:44.664Z</time></trkpt><trkpt lat="44.3119383" lon="9.3296667"><ele>5.0</ele><time>2026-04-21T14:12:45.664Z</time></trkpt><trkpt lat="44.3119367" lon="9.3298367"><ele>5.0</ele><time>2026-04-21T14:12:46.664Z</time></trkpt><trkpt lat="44.3119017" lon="9.3300117"><ele>5.0</ele><time>2026-04-21T14:12:47.665Z</time></trkpt><trkpt lat="44.31188" lon="9.330175"><ele>5.0</ele><time>2026-04-21T14:12:48.665Z</time></trkpt><trkpt lat="44.3118483" lon="9.330345"><ele>5.0</ele><time>2026-04-21T14:12:49.664Z</time></trkpt><trkpt lat="44.3118167" lon="9.3305017"><ele>5.0</ele><time>2026-04-21T14:12:50.664Z</time></trkpt><trkpt lat="44.3117933" lon="9.3306417"><ele>5.0</ele><time>2026-04-21T14:12:51.664Z</time></trkpt><trkpt lat="44.3117733" lon="9.33078"><ele>5.0</ele><time>2026-04-21T14:12:52.665Z</time></trkpt><trkpt lat="44.3117533" lon="9.3309133"><ele>4.8</ele><time>2026-04-21T14:12:53.664Z</time></trkpt><trkpt lat="44.3117283" lon="9.331035"><ele>4.6</ele><time>2026-04-21T14:12:54.665Z</time></trkpt><trkpt lat="44.3117033" lon="9.3311817"><ele>4.4</ele><time>2026-04-21T14:12:55.664Z</time></trkpt><trkpt lat="44.3116783" lon="9.3313283"><ele>4.2</ele><time>2026-04-21T14:12:56.665Z</time></trkpt><trkpt lat="44.311655" lon="9.3314617"><ele>4.0</ele><time>2026-04-21T14:12:57.664Z</time></trkpt><trkpt lat="44.3116283" lon="9.3316"><ele>3.9999999999999996</ele><time>2026-04-21T14:12:58.664Z</time></trkpt><trkpt lat="44.3116" lon="9.3317283"><ele>4.0</ele><time>2026-04-21T14:12:59.664Z</time></trkpt><trkpt lat="44.3115783" lon="9.3318383"><ele>4.0</ele><time>2026-04-21T14:13:00.665Z</time></trkpt><trkpt lat="44.3115617" lon="9.3319333"><ele>4.0</ele><time>2026-04-21T14:13:01.665Z</time></trkpt><trkpt lat="44.31155" lon="9.33207"><ele>3.9999999999999996</ele><time>2026-04-21T14:13:03.664Z</time></trkpt><trkpt lat="44.3115667" lon="9.33218"><ele>4.0</ele><time>2026-04-21T14:13:14.664Z</time></trkpt><trkpt lat="44.3116" lon="9.3322717"><ele>3.6666666666666665</ele><time>2026-04-21T14:13:16.664Z</time></trkpt><trkpt lat="44.31165" lon="9.3323783"><ele>3.333333333333333</ele><time>2026-04-21T14:13:18.664Z</time></trkpt><trkpt lat="44.3117183" lon="9.33248"><ele>3.0</ele><time>2026-04-21T14:13:20.665Z</time></trkpt><trkpt lat="44.3117583" lon="9.3325483"><ele>2.6666666666666665</ele><time>2026-04-21T14:13:21.664Z</time></trkpt><trkpt lat="44.3118" lon="9.3326267"><ele>2.333333333333333</ele><time>2026-04-21T14:13:22.664Z</time></trkpt><trkpt lat="44.3118433" lon="9.332715"><ele>2.0</ele><time>2026-04-21T14:13:23.665Z</time></trkpt><trkpt lat="44.3118983" lon="9.3327983"><ele>2.0</ele><time>2026-04-21T14:13:24.664Z</time></trkpt><trkpt lat="44.3119967" lon="9.3329333"><ele>2.0</ele><time>2026-04-21T14:13:25.665Z</time></trkpt><trkpt lat="44.3120883" lon="9.3330633"><ele>2.0</ele><time>2026-04-21T14:13:26.665Z</time></trkpt><trkpt lat="44.3121683" lon="9.33316"><ele>2.0</ele><time>2026-04-21T14:13:27.665Z</time></trkpt><trkpt lat="44.3122267" lon="9.3332317"><ele>1.8333333333333333</ele><time>2026-04-21T14:13:28.664Z</time></trkpt><trkpt lat="44.3122833" lon="9.3332733"><ele>1.6666666666666665</ele><time>2026-04-21T14:13:29.664Z</time></trkpt><trkpt lat="44.3123683" lon="9.3333167"><ele>1.5</ele><time>2026-04-21T14:13:31.663Z</time></trkpt><trkpt lat="44.31243" lon="9.3334"><ele>1.3333333333333333</ele><time>2026-04-21T14:13:33.663Z</time></trkpt><trkpt lat="44.3125067" lon="9.3335317"><ele>1.1666666666666665</ele><time>2026-04-21T14:13:35.663Z</time></trkpt><trkpt lat="44.3125483" lon="9.3336083"><ele>1.0</ele><time>2026-04-21T14:13:36.664Z</time></trkpt><trkpt lat="44.3126017" lon="9.3336967"><ele>0.9999999999999999</ele><time>2026-04-21T14:13:37.663Z</time></trkpt><trkpt lat="44.3126617" lon="9.3337817"><ele>1.0</ele><time>2026-04-21T14:13:38.663Z</time></trkpt><trkpt lat="44.31272" lon="9.333865"><ele>1.0</ele><time>2026-04-21T14:13:39.663Z</time></trkpt><trkpt lat="44.312765" lon="9.33395"><ele>1.0</ele><time>2026-04-21T14:13:40.664Z</time></trkpt><trkpt lat="44.3128233" lon="9.334045"><ele>0.9999999999999999</ele><time>2026-04-21T14:13:41.663Z</time></trkpt><trkpt lat="44.31288" lon="9.3341467"><ele>1.0</ele><time>2026-04-21T14:13:42.664Z</time></trkpt><trkpt lat="44.3129267" lon="9.3342317"><ele>1.4</ele><time>2026-04-21T14:13:43.664Z</time></trkpt><trkpt lat="44.31298" lon="9.3343117"><ele>1.8</ele><time>2026-04-21T14:13:44.664Z</time></trkpt><trkpt lat="44.31302" lon="9.3343867"><ele>2.1999999999999997</ele><time>2026-04-21T14:13:45.664Z</time></trkpt><trkpt lat="44.3130917" lon="9.334525"><ele>2.6</ele><time>2026-04-21T14:13:47.664Z</time></trkpt><trkpt lat="44.3131717" lon="9.3346417"><ele>3.0</ele><time>2026-04-21T14:13:49.664Z</time></trkpt><trkpt lat="44.313225" lon="9.3347233"><ele>4.0</ele><time>2026-04-21T14:13:51.664Z</time></trkpt><trkpt lat="44.3132767" lon="9.3348283"><ele>5.0</ele><time>2026-04-21T14:13:56.663Z</time></trkpt><trkpt lat="44.3133233" lon="9.334985"><ele>6.000000000000001</ele><time>2026-04-21T14:13:58.664Z</time></trkpt><trkpt lat="44.3133733" lon="9.3350883"><ele>7.0</ele><time>2026-04-21T14:13:59.664Z</time></trkpt><trkpt lat="44.3134433" lon="9.3352183"><ele>8.0</ele><time>2026-04-21T14:14:00.663Z</time></trkpt><trkpt lat="44.3135183" lon="9.335355"><ele>8.0</ele><time>2026-04-21T14:14:01.664Z</time></trkpt><trkpt lat="44.3136" lon="9.33551"><ele>8.0</ele><time>2026-04-21T14:14:02.663Z</time></trkpt><trkpt lat="44.3136917" lon="9.3356683"><ele>8.0</ele><time>2026-04-21T14:14:03.664Z</time></trkpt><trkpt lat="44.3137883" lon="9.3358317"><ele>8.0</ele><time>2026-04-21T14:14:04.664Z</time></trkpt><trkpt lat="44.3138783" lon="9.3360483"><ele>8.0</ele><time>2026-04-21T14:14:05.663Z</time></trkpt><trkpt lat="44.31398" lon="9.3362733"><ele>8.0</ele><time>2026-04-21T14:14:06.663Z</time></trkpt><trkpt lat="44.3140833" lon="9.3365017"><ele>8.0</ele><time>2026-04-21T14:14:07.664Z</time></trkpt><trkpt lat="44.3141833" lon="9.3367267"><ele>6.666666666666666</ele><time>2026-04-21T14:14:08.663Z</time></trkpt><trkpt lat="44.314285" lon="9.3369383"><ele>5.333333333333333</ele><time>2026-04-21T14:14:09.663Z</time></trkpt><trkpt lat="44.3143983" lon="9.3371533"><ele>4.0</ele><time>2026-04-21T14:14:10.664Z</time></trkpt><trkpt lat="44.31451" lon="9.3373567"><ele>3.333333333333333</ele><time>2026-04-21T14:14:11.664Z</time></trkpt><trkpt lat="44.314615" lon="9.3375583"><ele>2.6666666666666665</ele><time>2026-04-21T14:14:12.663Z</time></trkpt><trkpt lat="44.3147217" lon="9.3377633"><ele>2.0</ele><time>2026-04-21T14:14:13.663Z</time></trkpt><trkpt lat="44.3148267" lon="9.3379783"><ele>1.6666666666666665</ele><time>2026-04-21T14:14:14.664Z</time></trkpt><trkpt lat="44.31494" lon="9.338185"><ele>1.3333333333333333</ele><time>2026-04-21T14:14:15.663Z</time></trkpt><trkpt lat="44.3150467" lon="9.3384067"><ele>1.0</ele><time>2026-04-21T14:14:16.663Z</time></trkpt><trkpt lat="44.315165" lon="9.3386083"><ele>1.0</ele><time>2026-04-21T14:14:17.663Z</time></trkpt><trkpt lat="44.3152783" lon="9.3388033"><ele>1.0</ele><time>2026-04-21T14:14:18.663Z</time></trkpt><trkpt lat="44.3153983" lon="9.3389867"><ele>1.0</ele><time>2026-04-21T14:14:19.664Z</time></trkpt><trkpt lat="44.31552" lon="9.339165"><ele>2.0</ele><time>2026-04-21T14:14:20.664Z</time></trkpt><trkpt lat="44.3156483" lon="9.3393367"><ele>3.0</ele><time>2026-04-21T14:14:21.663Z</time></trkpt><trkpt lat="44.31579" lon="9.3395033"><ele>4.0</ele><time>2026-04-21T14:14:22.663Z</time></trkpt><trkpt lat="44.315935" lon="9.3396567"><ele>3.6666666666666665</ele><time>2026-04-21T14:14:23.664Z</time></trkpt><trkpt lat="44.3160883" lon="9.3398083"><ele>3.333333333333333</ele><time>2026-04-21T14:14:24.663Z</time></trkpt><trkpt lat="44.3162367" lon="9.3399583"><ele>3.0</ele><time>2026-04-21T14:14:25.663Z</time></trkpt><trkpt lat="44.3163917" lon="9.340105"><ele>3.666666666666667</ele><time>2026-04-21T14:14:26.663Z</time></trkpt><trkpt lat="44.31655" lon="9.340245"><ele>4.333333333333334</ele><time>2026-04-21T14:14:27.663Z</time></trkpt><trkpt lat="44.31671" lon="9.34039"><ele>5.0</ele><time>2026-04-21T14:14:28.664Z</time></trkpt><trkpt lat="44.3168467" lon="9.3405333"><ele>5.0</ele><time>2026-04-21T14:14:29.663Z</time></trkpt><trkpt lat="44.3169767" lon="9.3406633"><ele>5.0</ele><time>2026-04-21T14:14:30.663Z</time></trkpt><trkpt lat="44.3170933" lon="9.340765"><ele>5.0</ele><time>2026-04-21T14:14:31.663Z</time></trkpt><trkpt lat="44.31719" lon="9.3408583"><ele>5.0</ele><time>2026-04-21T14:14:32.664Z</time></trkpt><trkpt lat="44.3172633" lon="9.3409417"><ele>5.0</ele><time>2026-04-21T14:14:33.664Z</time></trkpt><trkpt lat="44.3173367" lon="9.3410267"><ele>5.0</ele><time>2026-04-21T14:14:34.664Z</time></trkpt><trkpt lat="44.3174033" lon="9.3410983"><ele>5.0</ele><time>2026-04-21T14:14:35.664Z</time></trkpt><trkpt lat="44.317465" lon="9.3411567"><ele>5.0</ele><time>2026-04-21T14:14:36.663Z</time></trkpt><trkpt lat="44.317565" lon="9.3412433"><ele>5.0</ele><time>2026-04-21T14:14:38.663Z</time></trkpt><trkpt lat="44.3176383" lon="9.3413017"><ele>5.0</ele><time>2026-04-21T14:14:44.664Z</time></trkpt><trkpt lat="44.3177533" lon="9.3414183"><ele>5.0</ele><time>2026-04-21T14:14:46.664Z</time></trkpt><trkpt lat="44.3178383" lon="9.341505"><ele>5.0</ele><time>2026-04-21T14:14:47.664Z</time></trkpt><trkpt lat="44.3179467" lon="9.34161"><ele>5.0</ele><time>2026-04-21T14:14:48.663Z</time></trkpt><trkpt lat="44.3180567" lon="9.3417083"><ele>5.4</ele><time>2026-04-21T14:14:49.664Z</time></trkpt><trkpt lat="44.3181433" lon="9.341795"><ele>5.8</ele><time>2026-04-21T14:14:50.664Z</time></trkpt><trkpt lat="44.3182167" lon="9.34187"><ele>6.199999999999999</ele><time>2026-04-21T14:14:51.664Z</time></trkpt><trkpt lat="44.3183" lon="9.3419283"><ele>6.6</ele><time>2026-04-21T14:14:53.663Z</time></trkpt><trkpt lat="44.3183583" lon="9.3419917"><ele>7.0</ele><time>2026-04-21T14:14:57.664Z</time></trkpt><trkpt lat="44.3184717" lon="9.3419533"><ele>7.0</ele><time>2026-04-21T14:14:59.664Z</time></trkpt><trkpt lat="44.3185233" lon="9.3418833"><ele>6.999999999999999</ele><time>2026-04-21T14:15:00.663Z</time></trkpt><trkpt lat="44.3185617" lon="9.3417767"><ele>6.999999999999999</ele><time>2026-04-21T14:15:01.664Z</time></trkpt><trkpt lat="44.3186083" lon="9.341635"><ele>7.0</ele><time>2026-04-21T14:15:02.663Z</time></trkpt><trkpt lat="44.3186567" lon="9.3414783"><ele>7.0</ele><time>2026-04-21T14:15:03.663Z</time></trkpt><trkpt lat="44.3187067" lon="9.341335"><ele>7.166666666666667</ele><time>2026-04-21T14:15:04.664Z</time></trkpt><trkpt lat="44.3187517" lon="9.3412"><ele>7.333333333333334</ele><time>2026-04-21T14:15:05.663Z</time></trkpt><trkpt lat="44.31878" lon="9.341105"><ele>7.5</ele><time>2026-04-21T14:15:06.663Z</time></trkpt><trkpt lat="44.3188183" lon="9.3410283"><ele>7.666666666666666</ele><time>2026-04-21T14:15:07.663Z</time></trkpt><trkpt lat="44.31888" lon="9.3409133"><ele>7.833333333333333</ele><time>2026-04-21T14:15:09.664Z</time></trkpt><trkpt lat="44.3189483" lon="9.34086"><ele>8.0</ele><time>2026-04-21T14:15:11.663Z</time></trkpt><trkpt lat="44.3190183" lon="9.340865"><ele>7.999999999999999</ele><time>2026-04-21T14:15:13.663Z</time></trkpt><trkpt lat="44.3191033" lon="9.340915"><ele>8.0</ele><time>2026-04-21T14:15:15.663Z</time></trkpt><trkpt lat="44.3191883" lon="9.3409633"><ele>8.0</ele><time>2026-04-21T14:15:17.663Z</time></trkpt><trkpt lat="44.3192633" lon="9.341005"><ele>8.0</ele><time>2026-04-21T14:15:19.663Z</time></trkpt><trkpt lat="44.3193533" lon="9.3409817"><ele>7.999999999999999</ele><time>2026-04-21T14:15:32.664Z</time></trkpt><trkpt lat="44.3194383" lon="9.3410017"><ele>8.0</ele><time>2026-04-21T14:15:34.664Z</time></trkpt><trkpt lat="44.31951" lon="9.341035"><ele>8.0</ele><time>2026-04-21T14:15:35.663Z</time></trkpt><trkpt lat="44.3195917" lon="9.34106"><ele>8.0</ele><time>2026-04-21T14:15:36.664Z</time></trkpt><trkpt lat="44.3196833" lon="9.3410867"><ele>8.0</ele><time>2026-04-21T14:15:37.663Z</time></trkpt><trkpt lat="44.3197817" lon="9.3411267"><ele>8.0</ele><time>2026-04-21T14:15:38.664Z</time></trkpt><trkpt lat="44.319875" lon="9.3411783"><ele>8.0</ele><time>2026-04-21T14:15:39.664Z</time></trkpt><trkpt lat="44.319955" lon="9.3412367"><ele>8.200000000000001</ele><time>2026-04-21T14:15:40.664Z</time></trkpt><trkpt lat="44.320035" lon="9.3413"><ele>8.4</ele><time>2026-04-21T14:15:41.663Z</time></trkpt><trkpt lat="44.3201217" lon="9.341385"><ele>8.600000000000001</ele><time>2026-04-21T14:15:42.663Z</time></trkpt><trkpt lat="44.3202133" lon="9.3414733"><ele>8.8</ele><time>2026-04-21T14:15:43.664Z</time></trkpt><trkpt lat="44.3202933" lon="9.3415533"><ele>9.0</ele><time>2026-04-21T14:15:44.663Z</time></trkpt><trkpt lat="44.32039" lon="9.3416617"><ele>9.0</ele><time>2026-04-21T14:15:45.664Z</time></trkpt><trkpt lat="44.320455" lon="9.341735"><ele>9.0</ele><time>2026-04-21T14:15:46.663Z</time></trkpt><trkpt lat="44.3205183" lon="9.3418017"><ele>9.0</ele><time>2026-04-21T14:15:47.663Z</time></trkpt><trkpt lat="44.320585" lon="9.3418667"><ele>9.0</ele><time>2026-04-21T14:15:48.663Z</time></trkpt><trkpt lat="44.3206583" lon="9.3419367"><ele>9.0</ele><time>2026-04-21T14:15:49.664Z</time></trkpt><trkpt lat="44.3207283" lon="9.3419967"><ele>9.0</ele><time>2026-04-21T14:15:50.664Z</time></trkpt><trkpt lat="44.3207917" lon="9.3420583"><ele>9.2</ele><time>2026-04-21T14:15:51.664Z</time></trkpt><trkpt lat="44.32086" lon="9.3421283"><ele>9.4</ele><time>2026-04-21T14:15:52.663Z</time></trkpt><trkpt lat="44.3209433" lon="9.3421833"><ele>9.6</ele><time>2026-04-21T14:15:53.664Z</time></trkpt><trkpt lat="44.3210367" lon="9.3422233"><ele>9.8</ele><time>2026-04-21T14:15:54.663Z</time></trkpt><trkpt lat="44.3211183" lon="9.3422667"><ele>10.0</ele><time>2026-04-21T14:15:55.664Z</time></trkpt><trkpt lat="44.3211983" lon="9.3423317"><ele>9.6</ele><time>2026-04-21T14:15:56.663Z</time></trkpt><trkpt lat="44.3212867" lon="9.342405"><ele>9.2</ele><time>2026-04-21T14:15:57.663Z</time></trkpt><trkpt lat="44.3213667" lon="9.3424767"><ele>8.8</ele><time>2026-04-21T14:15:58.664Z</time></trkpt><trkpt lat="44.3214483" lon="9.34256"><ele>8.4</ele><time>2026-04-21T14:15:59.663Z</time></trkpt><trkpt lat="44.3215217" lon="9.3426417"><ele>8.0</ele><time>2026-04-21T14:16:00.663Z</time></trkpt><trkpt lat="44.321605" lon="9.3427217"><ele>8.0</ele><time>2026-04-21T14:16:01.664Z</time></trkpt><trkpt lat="44.3216783" lon="9.3428"><ele>8.0</ele><time>2026-04-21T14:16:02.663Z</time></trkpt><trkpt lat="44.321755" lon="9.342885"><ele>8.0</ele><time>2026-04-21T14:16:03.663Z</time></trkpt><trkpt lat="44.3218383" lon="9.3429833"><ele>8.0</ele><time>2026-04-21T14:16:04.664Z</time></trkpt><trkpt lat="44.32192" lon="9.3430733"><ele>8.0</ele><time>2026-04-21T14:16:05.663Z</time></trkpt><trkpt lat="44.322005" lon="9.3431583"><ele>7.800000000000001</ele><time>2026-04-21T14:16:06.663Z</time></trkpt><trkpt lat="44.3221" lon="9.343235"><ele>7.6000000000000005</ele><time>2026-04-21T14:16:07.663Z</time></trkpt><trkpt lat="44.322195" lon="9.34329"><ele>7.3999999999999995</ele><time>2026-04-21T14:16:08.663Z</time></trkpt><trkpt lat="44.3222867" lon="9.3433417"><ele>7.199999999999999</ele><time>2026-04-21T14:16:09.663Z</time></trkpt><trkpt lat="44.3223817" lon="9.3433833"><ele>7.0</ele><time>2026-04-21T14:16:10.663Z</time></trkpt><trkpt lat="44.3224683" lon="9.3434233"><ele>8.8</ele><time>2026-04-21T14:16:11.664Z</time></trkpt><trkpt lat="44.3225583" lon="9.3434633"><ele>10.6</ele><time>2026-04-21T14:16:12.663Z</time></trkpt><trkpt lat="44.322635" lon="9.3435117"><ele>12.400000000000002</ele><time>2026-04-21T14:16:13.663Z</time></trkpt><trkpt lat="44.32272" lon="9.34357"><ele>14.200000000000001</ele><time>2026-04-21T14:16:14.664Z</time></trkpt><trkpt lat="44.322805" lon="9.34365"><ele>16.0</ele><time>2026-04-21T14:16:15.664Z</time></trkpt><trkpt lat="44.3228767" lon="9.3437217"><ele>16.0</ele><time>2026-04-21T14:16:16.663Z</time></trkpt><trkpt lat="44.322955" lon="9.3438033"><ele>16.0</ele><time>2026-04-21T14:16:17.663Z</time></trkpt><trkpt lat="44.3230433" lon="9.3438717"><ele>16.0</ele><time>2026-04-21T14:16:18.663Z</time></trkpt><trkpt lat="44.3231283" lon="9.3439417"><ele>16.0</ele><time>2026-04-21T14:16:19.663Z</time></trkpt><trkpt lat="44.323205" lon="9.3440083"><ele>16.0</ele><time>2026-04-21T14:16:20.664Z</time></trkpt><trkpt lat="44.3232867" lon="9.3440733"><ele>15.8</ele><time>2026-04-21T14:16:21.663Z</time></trkpt><trkpt lat="44.323365" lon="9.3441417"><ele>15.600000000000001</ele><time>2026-04-21T14:16:22.664Z</time></trkpt><trkpt lat="44.3234533" lon="9.3441917"><ele>15.4</ele><time>2026-04-21T14:16:23.663Z</time></trkpt><trkpt lat="44.3235283" lon="9.344235"><ele>15.2</ele><time>2026-04-21T14:16:24.664Z</time></trkpt><trkpt lat="44.32362" lon="9.3442767"><ele>15.0</ele><time>2026-04-21T14:16:25.664Z</time></trkpt><trkpt lat="44.3237067" lon="9.3443183"><ele>15.0</ele><time>2026-04-21T14:16:26.663Z</time></trkpt><trkpt lat="44.3237917" lon="9.3443383"><ele>15.0</ele><time>2026-04-21T14:16:27.663Z</time></trkpt><trkpt lat="44.3238917" lon="9.344355"><ele>15.0</ele><time>2026-04-21T14:16:28.664Z</time></trkpt><trkpt lat="44.323965" lon="9.3443917"><ele>15.0</ele><time>2026-04-21T14:16:29.664Z</time></trkpt><trkpt lat="44.3240617" lon="9.344425"><ele>15.0</ele><time>2026-04-21T14:16:30.663Z</time></trkpt><trkpt lat="44.3241633" lon="9.344455"><ele>16.2</ele><time>2026-04-21T14:16:31.663Z</time></trkpt><trkpt lat="44.32426" lon="9.344475"><ele>17.4</ele><time>2026-04-21T14:16:32.664Z</time></trkpt><trkpt lat="44.3243467" lon="9.3445033"><ele>18.6</ele><time>2026-04-21T14:16:33.663Z</time></trkpt><trkpt lat="44.3244367" lon="9.34454"><ele>19.8</ele><time>2026-04-21T14:16:34.663Z</time></trkpt><trkpt lat="44.3245283" lon="9.3445767"><ele>21.0</ele><time>2026-04-21T14:16:35.663Z</time></trkpt><trkpt lat="44.3246167" lon="9.3446283"><ele>21.0</ele><time>2026-04-21T14:16:36.663Z</time></trkpt><trkpt lat="44.3247083" lon="9.34469"><ele>21.0</ele><time>2026-04-21T14:16:37.663Z</time></trkpt><trkpt lat="44.3248117" lon="9.3447433"><ele>21.0</ele><time>2026-04-21T14:16:38.663Z</time></trkpt><trkpt lat="44.3249133" lon="9.34478"><ele>21.0</ele><time>2026-04-21T14:16:39.663Z</time></trkpt><trkpt lat="44.3250117" lon="9.3448117"><ele>21.0</ele><time>2026-04-21T14:16:40.664Z</time></trkpt><trkpt lat="44.3251133" lon="9.3448467"><ele>19.6</ele><time>2026-04-21T14:16:41.664Z</time></trkpt><trkpt lat="44.32521" lon="9.344875"><ele>18.200000000000003</ele><time>2026-04-21T14:16:42.663Z</time></trkpt><trkpt lat="44.3253033" lon="9.3448883"><ele>16.799999999999997</ele><time>2026-04-21T14:16:43.664Z</time></trkpt><trkpt lat="44.3254" lon="9.344925"><ele>15.399999999999999</ele><time>2026-04-21T14:16:44.664Z</time></trkpt><trkpt lat="44.3255017" lon="9.3449533"><ele>14.0</ele><time>2026-04-21T14:16:45.664Z</time></trkpt><trkpt lat="44.325605" lon="9.34499"><ele>14.0</ele><time>2026-04-21T14:16:46.663Z</time></trkpt><trkpt lat="44.3257" lon="9.345035"><ele>14.0</ele><time>2026-04-21T14:16:47.663Z</time></trkpt><trkpt lat="44.3258117" lon="9.34509"><ele>14.0</ele><time>2026-04-21T14:16:48.663Z</time></trkpt><trkpt lat="44.3259267" lon="9.3451467"><ele>14.0</ele><time>2026-04-21T14:16:49.664Z</time></trkpt><trkpt lat="44.3260383" lon="9.3452183"><ele>14.0</ele><time>2026-04-21T14:16:50.664Z</time></trkpt><trkpt lat="44.3261433" lon="9.3452567"><ele>13.999999999999998</ele><time>2026-04-21T14:16:51.664Z</time></trkpt><trkpt lat="44.3262367" lon="9.3453133"><ele>13.999999999999998</ele><time>2026-04-21T14:16:52.663Z</time></trkpt><trkpt lat="44.3263333" lon="9.3453517"><ele>14.0</ele><time>2026-04-21T14:16:53.663Z</time></trkpt><trkpt lat="44.3264333" lon="9.345405"><ele>14.0</ele><time>2026-04-21T14:16:54.664Z</time></trkpt><trkpt lat="44.3265283" lon="9.3454633"><ele>13.399999999999999</ele><time>2026-04-21T14:16:55.664Z</time></trkpt><trkpt lat="44.3266333" lon="9.3455233"><ele>12.799999999999999</ele><time>2026-04-21T14:16:56.663Z</time></trkpt><trkpt lat="44.326735" lon="9.3455817"><ele>12.2</ele><time>2026-04-21T14:16:57.664Z</time></trkpt><trkpt lat="44.326835" lon="9.3456417"><ele>11.600000000000001</ele><time>2026-04-21T14:16:58.664Z</time></trkpt><trkpt lat="44.3269383" lon="9.3457"><ele>11.0</ele><time>2026-04-21T14:16:59.663Z</time></trkpt><trkpt lat="44.3270267" lon="9.3457483"><ele>11.0</ele><time>2026-04-21T14:17:00.663Z</time></trkpt><trkpt lat="44.327115" lon="9.345785"><ele>11.0</ele><time>2026-04-21T14:17:01.664Z</time></trkpt><trkpt lat="44.3271983" lon="9.34581"><ele>11.0</ele><time>2026-04-21T14:17:02.663Z</time></trkpt><trkpt lat="44.3272967" lon="9.3458317"><ele>11.0</ele><time>2026-04-21T14:17:03.663Z</time></trkpt><trkpt lat="44.3273883" lon="9.3458433"><ele>11.0</ele><time>2026-04-21T14:17:04.663Z</time></trkpt><trkpt lat="44.3275033" lon="9.3458567"><ele>11.0</ele><time>2026-04-21T14:17:05.663Z</time></trkpt><trkpt lat="44.3276083" lon="9.3458633"><ele>11.0</ele><time>2026-04-21T14:17:06.663Z</time></trkpt><trkpt lat="44.3277183" lon="9.3458567"><ele>11.0</ele><time>2026-04-21T14:17:07.664Z</time></trkpt><trkpt lat="44.3278267" lon="9.3458567"><ele>11.0</ele><time>2026-04-21T14:17:08.663Z</time></trkpt><trkpt lat="44.3279217" lon="9.3458617"><ele>11.0</ele><time>2026-04-21T14:17:09.664Z</time></trkpt><trkpt lat="44.3280217" lon="9.3458717"><ele>11.200000000000001</ele><time>2026-04-21T14:17:10.664Z</time></trkpt><trkpt lat="44.3281267" lon="9.345885"><ele>11.4</ele><time>2026-04-21T14:17:11.663Z</time></trkpt><trkpt lat="44.3282267" lon="9.3458883"><ele>11.6</ele><time>2026-04-21T14:17:12.664Z</time></trkpt><trkpt lat="44.3283283" lon="9.3458983"><ele>11.8</ele><time>2026-04-21T14:17:13.663Z</time></trkpt><trkpt lat="44.3284267" lon="9.345905"><ele>12.0</ele><time>2026-04-21T14:17:14.664Z</time></trkpt><trkpt lat="44.3285217" lon="9.345905"><ele>12.0</ele><time>2026-04-21T14:17:15.663Z</time></trkpt><trkpt lat="44.3286083" lon="9.345905"><ele>12.0</ele><time>2026-04-21T14:17:16.663Z</time></trkpt><trkpt lat="44.3287067" lon="9.34589"><ele>12.0</ele><time>2026-04-21T14:17:17.663Z</time></trkpt><trkpt lat="44.328795" lon="9.3458517"><ele>12.0</ele><time>2026-04-21T14:17:18.663Z</time></trkpt><trkpt lat="44.328875" lon="9.3457933"><ele>12.0</ele><time>2026-04-21T14:17:19.663Z</time></trkpt><trkpt lat="44.3289483" lon="9.3457467"><ele>12.0</ele><time>2026-04-21T14:17:20.663Z</time></trkpt><trkpt lat="44.3290317" lon="9.345675"><ele>11.5</ele><time>2026-04-21T14:17:22.664Z</time></trkpt><trkpt lat="44.3290967" lon="9.3456167"><ele>11.0</ele><time>2026-04-21T14:17:26.664Z</time></trkpt><trkpt lat="44.329185" lon="9.34557"><ele>10.5</ele><time>2026-04-21T14:17:47.664Z</time></trkpt><trkpt lat="44.3292683" lon="9.3455267"><ele>10.0</ele><time>2026-04-21T14:17:49.663Z</time></trkpt><trkpt lat="44.3293733" lon="9.3454717"><ele>9.5</ele><time>2026-04-21T14:17:51.664Z</time></trkpt><trkpt lat="44.329435" lon="9.3454483"><ele>9.0</ele><time>2026-04-21T14:17:52.663Z</time></trkpt><trkpt lat="44.3295017" lon="9.3454367"><ele>11.8</ele><time>2026-04-21T14:17:53.663Z</time></trkpt><trkpt lat="44.3295667" lon="9.3454233"><ele>14.6</ele><time>2026-04-21T14:17:54.664Z</time></trkpt><trkpt lat="44.3296817" lon="9.3453983"><ele>17.4</ele><time>2026-04-21T14:17:56.663Z</time></trkpt><trkpt lat="44.3298067" lon="9.3454033"><ele>20.2</ele><time>2026-04-21T14:17:58.664Z</time></trkpt><trkpt lat="44.3299267" lon="9.3454367"><ele>23.0</ele><time>2026-04-21T14:18:00.664Z</time></trkpt><trkpt lat="44.33004" lon="9.3454433"><ele>23.0</ele><time>2026-04-21T14:18:02.664Z</time></trkpt><trkpt lat="44.3301067" lon="9.3454633"><ele>23.0</ele><time>2026-04-21T14:18:04.663Z</time></trkpt><trkpt lat="44.3302317" lon="9.3454983"><ele>23.0</ele><time>2026-04-21T14:18:06.664Z</time></trkpt><trkpt lat="44.3303283" lon="9.3455033"><ele>23.0</ele><time>2026-04-21T14:18:07.663Z</time></trkpt><trkpt lat="44.3304367" lon="9.3455117"><ele>23.0</ele><time>2026-04-21T14:18:08.663Z</time></trkpt><trkpt lat="44.3305567" lon="9.345495"><ele>24.666666666666668</ele><time>2026-04-21T14:18:09.664Z</time></trkpt><trkpt lat="44.3307183" lon="9.34546"><ele>26.333333333333336</ele><time>2026-04-21T14:18:10.663Z</time></trkpt><trkpt lat="44.3308917" lon="9.3454417"><ele>28.0</ele><time>2026-04-21T14:18:11.663Z</time></trkpt><trkpt lat="44.331055" lon="9.3454567"><ele>28.0</ele><time>2026-04-21T14:18:12.663Z</time></trkpt><trkpt lat="44.3312033" lon="9.3454733"><ele>28.0</ele><time>2026-04-21T14:18:13.664Z</time></trkpt><trkpt lat="44.3313467" lon="9.3454883"><ele>28.0</ele><time>2026-04-21T14:18:14.663Z</time></trkpt><trkpt lat="44.33148" lon="9.3454967"><ele>28.0</ele><time>2026-04-21T14:18:15.664Z</time></trkpt><trkpt lat="44.331595" lon="9.345495"><ele>27.833333333333336</ele><time>2026-04-21T14:18:16.664Z</time></trkpt><trkpt lat="44.331705" lon="9.3455"><ele>27.666666666666668</ele><time>2026-04-21T14:18:17.663Z</time></trkpt><trkpt lat="44.3318017" lon="9.3454917"><ele>27.5</ele><time>2026-04-21T14:18:18.664Z</time></trkpt><trkpt lat="44.3318717" lon="9.3455033"><ele>27.333333333333336</ele><time>2026-04-21T14:18:19.663Z</time></trkpt><trkpt lat="44.3319517" lon="9.3455433"><ele>27.166666666666668</ele><time>2026-04-21T14:18:21.663Z</time></trkpt><trkpt lat="44.331995" lon="9.3456117"><ele>27.0</ele><time>2026-04-21T14:18:25.663Z</time></trkpt><trkpt lat="44.3320917" lon="9.3456017"><ele>24.0</ele><time>2026-04-21T14:23:07.663Z</time></trkpt><trkpt lat="44.3321633" lon="9.3455683"><ele>21.000000000000004</ele><time>2026-04-21T14:23:28.662Z</time></trkpt><trkpt lat="44.332265" lon="9.3455683"><ele>18.0</ele><time>2026-04-21T14:23:30.662Z</time></trkpt><trkpt lat="44.33235" lon="9.3455867"><ele>15.0</ele><time>2026-04-21T14:23:31.662Z</time></trkpt><trkpt lat="44.3324383" lon="9.3455967"><ele>12.0</ele><time>2026-04-21T14:23:32.663Z</time></trkpt><trkpt lat="44.3325433" lon="9.3456033"><ele>12.0</ele><time>2026-04-21T14:23:33.663Z</time></trkpt><trkpt lat="44.3326383" lon="9.3456017"><ele>12.0</ele><time>2026-04-21T14:23:34.662Z</time></trkpt><trkpt lat="44.3327367" lon="9.34559"><ele>12.0</ele><time>2026-04-21T14:23:35.662Z</time></trkpt><trkpt lat="44.3328283" lon="9.34558"><ele>12.0</ele><time>2026-04-21T14:23:36.663Z</time></trkpt><trkpt lat="44.3329017" lon="9.3455717"><ele>12.0</ele><time>2026-04-21T14:23:37.662Z</time></trkpt><trkpt lat="44.3329733" lon="9.3455667"><ele>12.0</ele><time>2026-04-21T14:23:38.662Z</time></trkpt><trkpt lat="44.3330883" lon="9.3455583"><ele>12.399999999999999</ele><time>2026-04-21T14:23:40.662Z</time></trkpt><trkpt lat="44.3331867" lon="9.34555"><ele>12.799999999999999</ele><time>2026-04-21T14:23:42.662Z</time></trkpt><trkpt lat="44.3332767" lon="9.34553"><ele>13.2</ele><time>2026-04-21T14:23:44.662Z</time></trkpt><trkpt lat="44.3333683" lon="9.3455583"><ele>13.6</ele><time>2026-04-21T14:23:46.663Z</time></trkpt><trkpt lat="44.3334533" lon="9.34561"><ele>14.0</ele><time>2026-04-21T14:23:48.662Z</time></trkpt><trkpt lat="44.3335483" lon="9.3457"><ele>14.0</ele><time>2026-04-21T14:23:50.662Z</time></trkpt><trkpt lat="44.3336467" lon="9.3457483"><ele>13.999999999999998</ele><time>2026-04-21T14:23:52.663Z</time></trkpt><trkpt lat="44.33375" lon="9.3457567"><ele>13.999999999999998</ele><time>2026-04-21T14:23:54.663Z</time></trkpt><trkpt lat="44.33386" lon="9.3457867"><ele>14.0</ele><time>2026-04-21T14:23:56.663Z</time></trkpt><trkpt lat="44.33394" lon="9.345825"><ele>14.0</ele><time>2026-04-21T14:23:57.662Z</time></trkpt><trkpt lat="44.3340333" lon="9.34587"><ele>13.799999999999999</ele><time>2026-04-21T14:23:58.663Z</time></trkpt><trkpt lat="44.3341217" lon="9.34592"><ele>13.599999999999998</ele><time>2026-04-21T14:23:59.662Z</time></trkpt><trkpt lat="44.3342083" lon="9.3459567"><ele>13.4</ele><time>2026-04-21T14:24:00.662Z</time></trkpt><trkpt lat="44.334275" lon="9.3459783"><ele>13.2</ele><time>2026-04-21T14:24:01.663Z</time></trkpt><trkpt lat="44.3343517" lon="9.3460267"><ele>13.0</ele><time>2026-04-21T14:24:03.663Z</time></trkpt><trkpt lat="44.3344533" lon="9.3460967"><ele>12.999999999999998</ele><time>2026-04-21T14:24:05.663Z</time></trkpt><trkpt lat="44.3345667" lon="9.34616"><ele>13.0</ele><time>2026-04-21T14:24:07.662Z</time></trkpt><trkpt lat="44.33463" lon="9.3462017"><ele>13.0</ele><time>2026-04-21T14:24:08.663Z</time></trkpt><trkpt lat="44.3347" lon="9.3462433"><ele>13.0</ele><time>2026-04-21T14:24:09.663Z</time></trkpt><trkpt lat="44.33477" lon="9.3462817"><ele>12.999999999999998</ele><time>2026-04-21T14:24:10.662Z</time></trkpt><trkpt lat="44.3348433" lon="9.3463183"><ele>13.0</ele><time>2026-04-21T14:24:11.662Z</time></trkpt><trkpt lat="44.334905" lon="9.3463667"><ele>12.666666666666666</ele><time>2026-04-21T14:24:12.662Z</time></trkpt><trkpt lat="44.3349667" lon="9.3464067"><ele>12.333333333333332</ele><time>2026-04-21T14:24:13.662Z</time></trkpt><trkpt lat="44.3350333" lon="9.3464583"><ele>12.0</ele><time>2026-04-21T14:24:14.663Z</time></trkpt><trkpt lat="44.3351033" lon="9.3465183"><ele>11.666666666666666</ele><time>2026-04-21T14:24:15.662Z</time></trkpt><trkpt lat="44.3351633" lon="9.3465933"><ele>11.333333333333332</ele><time>2026-04-21T14:24:16.662Z</time></trkpt><trkpt lat="44.3352133" lon="9.3466717"><ele>11.0</ele><time>2026-04-21T14:24:17.663Z</time></trkpt><trkpt lat="44.3352617" lon="9.3467417"><ele>11.0</ele><time>2026-04-21T14:24:18.662Z</time></trkpt><trkpt lat="44.3353217" lon="9.3468617"><ele>11.0</ele><time>2026-04-21T14:24:20.662Z</time></trkpt><trkpt lat="44.3353967" lon="9.346995"><ele>11.0</ele><time>2026-04-21T14:24:22.662Z</time></trkpt><trkpt lat="44.3354317" lon="9.34707"><ele>11.0</ele><time>2026-04-21T14:24:23.662Z</time></trkpt><trkpt lat="44.3354767" lon="9.3471417"><ele>11.0</ele><time>2026-04-21T14:24:24.663Z</time></trkpt><trkpt lat="44.3355267" lon="9.3472167"><ele>11.0</ele><time>2026-04-21T14:24:25.662Z</time></trkpt><trkpt lat="44.33558" lon="9.347295"><ele>11.166666666666666</ele><time>2026-04-21T14:24:26.663Z</time></trkpt><trkpt lat="44.3356467" lon="9.3473817"><ele>11.333333333333332</ele><time>2026-04-21T14:24:27.663Z</time></trkpt><trkpt lat="44.3356983" lon="9.347445"><ele>11.5</ele><time>2026-04-21T14:24:28.662Z</time></trkpt><trkpt lat="44.3357567" lon="9.3474967"><ele>11.666666666666666</ele><time>2026-04-21T14:24:29.663Z</time></trkpt><trkpt lat="44.335815" lon="9.3475433"><ele>11.833333333333334</ele><time>2026-04-21T14:24:30.662Z</time></trkpt><trkpt lat="44.33587" lon="9.3475867"><ele>12.0</ele><time>2026-04-21T14:24:31.662Z</time></trkpt><trkpt lat="44.3359633" lon="9.3476433"><ele>12.0</ele><time>2026-04-21T14:24:33.662Z</time></trkpt><trkpt lat="44.3360583" lon="9.3477017"><ele>12.0</ele><time>2026-04-21T14:24:35.663Z</time></trkpt><trkpt lat="44.3361667" lon="9.347775"><ele>12.0</ele><time>2026-04-21T14:24:37.663Z</time></trkpt><trkpt lat="44.33623" lon="9.3478117"><ele>12.0</ele><time>2026-04-21T14:24:38.662Z</time></trkpt><trkpt lat="44.336295" lon="9.347855"><ele>12.0</ele><time>2026-04-21T14:24:39.662Z</time></trkpt><trkpt lat="44.3363617" lon="9.3479"><ele>12.0</ele><time>2026-04-21T14:24:40.663Z</time></trkpt><trkpt lat="44.3364367" lon="9.347945"><ele>12.0</ele><time>2026-04-21T14:24:41.662Z</time></trkpt><trkpt lat="44.3365117" lon="9.3479867"><ele>12.0</ele><time>2026-04-21T14:24:42.662Z</time></trkpt><trkpt lat="44.336595" lon="9.348025"><ele>12.0</ele><time>2026-04-21T14:24:43.663Z</time></trkpt><trkpt lat="44.33667" lon="9.348065"><ele>12.0</ele><time>2026-04-21T14:24:44.662Z</time></trkpt><trkpt lat="44.3367483" lon="9.3480983"><ele>12.0</ele><time>2026-04-21T14:24:45.662Z</time></trkpt><trkpt lat="44.3368183" lon="9.3481467"><ele>12.0</ele><time>2026-04-21T14:24:46.663Z</time></trkpt><trkpt lat="44.3368783" lon="9.3481983"><ele>12.0</ele><time>2026-04-21T14:24:47.662Z</time></trkpt><trkpt lat="44.336945" lon="9.3482333"><ele>12.0</ele><time>2026-04-21T14:24:48.662Z</time></trkpt><trkpt lat="44.3370133" lon="9.34828"><ele>12.0</ele><time>2026-04-21T14:24:49.663Z</time></trkpt><trkpt lat="44.3370783" lon="9.348335"><ele>12.0</ele><time>2026-04-21T14:24:50.663Z</time></trkpt><trkpt lat="44.3371517" lon="9.348385"><ele>12.0</ele><time>2026-04-21T14:24:51.662Z</time></trkpt><trkpt lat="44.33723" lon="9.3484417"><ele>12.0</ele><time>2026-04-21T14:24:52.662Z</time></trkpt><trkpt lat="44.3373083" lon="9.3484983"><ele>13.399999999999999</ele><time>2026-04-21T14:24:53.663Z</time></trkpt><trkpt lat="44.3373983" lon="9.34854"><ele>14.799999999999999</ele><time>2026-04-21T14:24:54.663Z</time></trkpt><trkpt lat="44.337485" lon="9.3485733"><ele>16.2</ele><time>2026-04-21T14:24:55.662Z</time></trkpt><trkpt lat="44.337575" lon="9.3485983"><ele>17.599999999999998</ele><time>2026-04-21T14:24:56.662Z</time></trkpt><trkpt lat="44.3376583" lon="9.3486267"><ele>19.0</ele><time>2026-04-21T14:24:57.662Z</time></trkpt><trkpt lat="44.33775" lon="9.348655"><ele>19.0</ele><time>2026-04-21T14:24:58.662Z</time></trkpt><trkpt lat="44.33786" lon="9.3486633"><ele>19.0</ele><time>2026-04-21T14:24:59.663Z</time></trkpt><trkpt lat="44.33796" lon="9.3486567"><ele>19.0</ele><time>2026-04-21T14:25:00.662Z</time></trkpt><trkpt lat="44.3380617" lon="9.348655"><ele>19.0</ele><time>2026-04-21T14:25:01.662Z</time></trkpt><trkpt lat="44.338155" lon="9.348665"><ele>19.0</ele><time>2026-04-21T14:25:02.662Z</time></trkpt><trkpt lat="44.3382417" lon="9.3486617"><ele>20.25</ele><time>2026-04-21T14:25:03.662Z</time></trkpt><trkpt lat="44.33834" lon="9.34867"><ele>21.5</ele><time>2026-04-21T14:25:04.663Z</time></trkpt><trkpt lat="44.3384533" lon="9.3487033"><ele>22.75</ele><time>2026-04-21T14:25:05.662Z</time></trkpt><trkpt lat="44.3385717" lon="9.348745"><ele>24.0</ele><time>2026-04-21T14:25:06.662Z</time></trkpt><trkpt lat="44.3386883" lon="9.3487883"><ele>24.0</ele><time>2026-04-21T14:25:07.662Z</time></trkpt><trkpt lat="44.3387967" lon="9.34882"><ele>24.0</ele><time>2026-04-21T14:25:08.662Z</time></trkpt><trkpt lat="44.3388867" lon="9.3488533"><ele>24.0</ele><time>2026-04-21T14:25:09.662Z</time></trkpt><trkpt lat="44.3389683" lon="9.34888"><ele>24.0</ele><time>2026-04-21T14:25:10.662Z</time></trkpt><trkpt lat="44.3390617" lon="9.3488983"><ele>24.0</ele><time>2026-04-21T14:25:11.662Z</time></trkpt><trkpt lat="44.3391483" lon="9.3489183"><ele>22.5</ele><time>2026-04-21T14:25:12.663Z</time></trkpt><trkpt lat="44.33923" lon="9.3489333"><ele>21.0</ele><time>2026-04-21T14:25:13.662Z</time></trkpt><trkpt lat="44.3393083" lon="9.3489317"><ele>19.5</ele><time>2026-04-21T14:25:14.662Z</time></trkpt><trkpt lat="44.3393833" lon="9.3489417"><ele>18.0</ele><time>2026-04-21T14:25:15.662Z</time></trkpt><trkpt lat="44.339465" lon="9.3489467"><ele>16.5</ele><time>2026-04-21T14:25:16.663Z</time></trkpt><trkpt lat="44.3395367" lon="9.348975"><ele>15.0</ele><time>2026-04-21T14:25:17.662Z</time></trkpt><trkpt lat="44.3396033" lon="9.3490017"><ele>15.0</ele><time>2026-04-21T14:25:18.663Z</time></trkpt><trkpt lat="44.3396767" lon="9.349015"><ele>15.0</ele><time>2026-04-21T14:25:19.662Z</time></trkpt><trkpt lat="44.33975" lon="9.34904"><ele>15.0</ele><time>2026-04-21T14:25:20.662Z</time></trkpt><trkpt lat="44.3398233" lon="9.3490733"><ele>15.0</ele><time>2026-04-21T14:25:21.663Z</time></trkpt><trkpt lat="44.339885" lon="9.3491233"><ele>15.0</ele><time>2026-04-21T14:25:22.662Z</time></trkpt><trkpt lat="44.3399433" lon="9.3491717"><ele>15.0</ele><time>2026-04-21T14:25:23.662Z</time></trkpt><trkpt lat="44.3400017" lon="9.3492183"><ele>15.0</ele><time>2026-04-21T14:25:24.662Z</time></trkpt><trkpt lat="44.3400617" lon="9.349285"><ele>14.5</ele><time>2026-04-21T14:25:25.662Z</time></trkpt><trkpt lat="44.3401183" lon="9.3493517"><ele>14.0</ele><time>2026-04-21T14:25:26.662Z</time></trkpt><trkpt lat="44.34017" lon="9.3494133"><ele>13.5</ele><time>2026-04-21T14:25:27.663Z</time></trkpt><trkpt lat="44.340215" lon="9.3494767"><ele>13.0</ele><time>2026-04-21T14:25:28.662Z</time></trkpt><trkpt lat="44.340265" lon="9.3495483"><ele>12.5</ele><time>2026-04-21T14:25:29.662Z</time></trkpt><trkpt lat="44.34033" lon="9.3496283"><ele>12.0</ele><time>2026-04-21T14:25:30.662Z</time></trkpt><trkpt lat="44.3403967" lon="9.34971"><ele>12.0</ele><time>2026-04-21T14:25:31.663Z</time></trkpt><trkpt lat="44.3404783" lon="9.34979"><ele>12.0</ele><time>2026-04-21T14:25:32.663Z</time></trkpt><trkpt lat="44.3405617" lon="9.349865"><ele>12.0</ele><time>2026-04-21T14:25:33.662Z</time></trkpt><trkpt lat="44.3406467" lon="9.3499383"><ele>12.0</ele><time>2026-04-21T14:25:34.663Z</time></trkpt><trkpt lat="44.3407133" lon="9.3500117"><ele>12.0</ele><time>2026-04-21T14:25:35.662Z</time></trkpt><trkpt lat="44.3407817" lon="9.350065"><ele>13.6</ele><time>2026-04-21T14:25:36.662Z</time></trkpt><trkpt lat="44.3408533" lon="9.350105"><ele>15.2</ele><time>2026-04-21T14:25:37.662Z</time></trkpt><trkpt lat="44.3409217" lon="9.350145"><ele>16.8</ele><time>2026-04-21T14:25:38.662Z</time></trkpt><trkpt lat="44.34099" lon="9.350185"><ele>18.4</ele><time>2026-04-21T14:25:39.663Z</time></trkpt><trkpt lat="44.341105" lon="9.3502517"><ele>20.0</ele><time>2026-04-21T14:25:41.663Z</time></trkpt><trkpt lat="44.341235" lon="9.3502533"><ele>20.0</ele><time>2026-04-21T14:25:43.662Z</time></trkpt><trkpt lat="44.3413" lon="9.3501933"><ele>20.0</ele><time>2026-04-21T14:25:44.662Z</time></trkpt><trkpt lat="44.34135" lon="9.350125"><ele>20.0</ele><time>2026-04-21T14:25:45.662Z</time></trkpt><trkpt lat="44.34139" lon="9.35005"><ele>20.0</ele><time>2026-04-21T14:25:46.663Z</time></trkpt><trkpt lat="44.3414183" lon="9.3499617"><ele>20.0</ele><time>2026-04-21T14:25:47.662Z</time></trkpt><trkpt lat="44.3414367" lon="9.3498583"><ele>20.0</ele><time>2026-04-21T14:25:48.662Z</time></trkpt><trkpt lat="44.3414317" lon="9.349745"><ele>20.0</ele><time>2026-04-21T14:25:49.662Z</time></trkpt><trkpt lat="44.3414083" lon="9.3496233"><ele>20.833333333333336</ele><time>2026-04-21T14:25:50.663Z</time></trkpt><trkpt lat="44.3413833" lon="9.3494967"><ele>21.666666666666668</ele><time>2026-04-21T14:25:51.662Z</time></trkpt><trkpt lat="44.3413583" lon="9.34937"><ele>22.5</ele><time>2026-04-21T14:25:52.663Z</time></trkpt><trkpt lat="44.34134" lon="9.3492533"><ele>23.333333333333336</ele><time>2026-04-21T14:25:53.663Z</time></trkpt><trkpt lat="44.3413167" lon="9.34915"><ele>24.166666666666668</ele><time>2026-04-21T14:25:54.663Z</time></trkpt><trkpt lat="44.3413033" lon="9.349055"><ele>25.0</ele><time>2026-04-21T14:25:55.663Z</time></trkpt><trkpt lat="44.3412867" lon="9.34897"><ele>27.4</ele><time>2026-04-21T14:25:56.662Z</time></trkpt><trkpt lat="44.34129" lon="9.3488117"><ele>29.8</ele><time>2026-04-21T14:25:58.662Z</time></trkpt><trkpt lat="44.341375" lon="9.3486883"><ele>32.2</ele><time>2026-04-21T14:26:00.662Z</time></trkpt><trkpt lat="44.34144" lon="9.3486733"><ele>34.6</ele><time>2026-04-21T14:26:01.663Z</time></trkpt><trkpt lat="44.3415217" lon="9.3486917"><ele>37.0</ele><time>2026-04-21T14:26:02.663Z</time></trkpt><trkpt lat="44.3416" lon="9.3487417"><ele>37.0</ele><time>2026-04-21T14:26:03.662Z</time></trkpt><trkpt lat="44.34166" lon="9.34883"><ele>37.0</ele><time>2026-04-21T14:26:04.663Z</time></trkpt><trkpt lat="44.3417067" lon="9.3489383"><ele>37.0</ele><time>2026-04-21T14:26:05.663Z</time></trkpt><trkpt lat="44.3417533" lon="9.3490717"><ele>37.0</ele><time>2026-04-21T14:26:06.662Z</time></trkpt><trkpt lat="44.341785" lon="9.349185"><ele>37.0</ele><time>2026-04-21T14:26:07.662Z</time></trkpt><trkpt lat="44.3418333" lon="9.3492783"><ele>34.6</ele><time>2026-04-21T14:26:08.663Z</time></trkpt><trkpt lat="44.3418833" lon="9.3493533"><ele>32.2</ele><time>2026-04-21T14:26:09.662Z</time></trkpt><trkpt lat="44.3419417" lon="9.3494217"><ele>29.8</ele><time>2026-04-21T14:26:10.662Z</time></trkpt><trkpt lat="44.3420233" lon="9.3495067"><ele>27.4</ele><time>2026-04-21T14:26:11.662Z</time></trkpt><trkpt lat="44.34212" lon="9.34961"><ele>25.0</ele><time>2026-04-21T14:26:12.662Z</time></trkpt><trkpt lat="44.3422133" lon="9.34973"><ele>26.4</ele><time>2026-04-21T14:26:13.662Z</time></trkpt><trkpt lat="44.3422983" lon="9.3498383"><ele>27.8</ele><time>2026-04-21T14:26:14.663Z</time></trkpt><trkpt lat="44.34238" lon="9.3499283"><ele>29.200000000000003</ele><time>2026-04-21T14:26:15.662Z</time></trkpt><trkpt lat="44.3424533" lon="9.3500083"><ele>30.6</ele><time>2026-04-21T14:26:16.662Z</time></trkpt><trkpt lat="44.3425167" lon="9.3500717"><ele>32.0</ele><time>2026-04-21T14:26:17.663Z</time></trkpt><trkpt lat="44.3425867" lon="9.3501217"><ele>31.999999999999996</ele><time>2026-04-21T14:26:18.662Z</time></trkpt><trkpt lat="44.3426683" lon="9.3501567"><ele>32.0</ele><time>2026-04-21T14:26:19.662Z</time></trkpt><trkpt lat="44.3427517" lon="9.350175"><ele>32.0</ele><time>2026-04-21T14:26:20.663Z</time></trkpt><trkpt lat="44.3428383" lon="9.3501817"><ele>32.0</ele><time>2026-04-21T14:26:21.662Z</time></trkpt><trkpt lat="44.34292" lon="9.350165"><ele>31.999999999999996</ele><time>2026-04-21T14:26:22.662Z</time></trkpt><trkpt lat="44.3429933" lon="9.350135"><ele>32.0</ele><time>2026-04-21T14:26:23.662Z</time></trkpt><trkpt lat="44.343065" lon="9.3501017"><ele>33.6</ele><time>2026-04-21T14:26:24.663Z</time></trkpt><trkpt lat="44.3431267" lon="9.35006"><ele>35.2</ele><time>2026-04-21T14:26:25.662Z</time></trkpt><trkpt lat="44.3432067" lon="9.3500067"><ele>36.8</ele><time>2026-04-21T14:26:26.663Z</time></trkpt><trkpt lat="44.34329" lon="9.3499617"><ele>38.4</ele><time>2026-04-21T14:26:27.663Z</time></trkpt><trkpt lat="44.3433967" lon="9.3499083"><ele>40.0</ele><time>2026-04-21T14:26:28.662Z</time></trkpt><trkpt lat="44.3435017" lon="9.34987"><ele>40.0</ele><time>2026-04-21T14:26:29.662Z</time></trkpt><trkpt lat="44.3435967" lon="9.3498267"><ele>40.0</ele><time>2026-04-21T14:26:30.663Z</time></trkpt><trkpt lat="44.3436883" lon="9.3497867"><ele>40.0</ele><time>2026-04-21T14:26:31.663Z</time></trkpt><trkpt lat="44.3437767" lon="9.3497567"><ele>40.0</ele><time>2026-04-21T14:26:32.663Z</time></trkpt><trkpt lat="44.3438617" lon="9.3497117"><ele>40.0</ele><time>2026-04-21T14:26:33.662Z</time></trkpt><trkpt lat="44.3439567" lon="9.3496817"><ele>38.8</ele><time>2026-04-21T14:26:34.662Z</time></trkpt><trkpt lat="44.3440383" lon="9.3496417"><ele>37.6</ele><time>2026-04-21T14:26:35.662Z</time></trkpt><trkpt lat="44.3441283" lon="9.3496"><ele>36.4</ele><time>2026-04-21T14:26:36.662Z</time></trkpt><trkpt lat="44.344225" lon="9.3495833"><ele>35.2</ele><time>2026-04-21T14:26:37.662Z</time></trkpt><trkpt lat="44.3443217" lon="9.349565"><ele>34.0</ele><time>2026-04-21T14:26:38.663Z</time></trkpt><trkpt lat="44.3444133" lon="9.3495417"><ele>34.0</ele><time>2026-04-21T14:26:39.663Z</time></trkpt><trkpt lat="44.3445033" lon="9.34952"><ele>34.0</ele><time>2026-04-21T14:26:40.662Z</time></trkpt><trkpt lat="44.3445917" lon="9.3494883"><ele>34.0</ele><time>2026-04-21T14:26:41.662Z</time></trkpt><trkpt lat="44.3446633" lon="9.34945"><ele>34.0</ele><time>2026-04-21T14:26:42.662Z</time></trkpt><trkpt lat="44.3447217" lon="9.3494017"><ele>34.0</ele><time>2026-04-21T14:26:43.662Z</time></trkpt><trkpt lat="44.344795" lon="9.3493483"><ele>34.0</ele><time>2026-04-21T14:26:45.662Z</time></trkpt><trkpt lat="44.3448667" lon="9.3492617"><ele>34.6</ele><time>2026-04-21T14:27:56.662Z</time></trkpt><trkpt lat="44.3449733" lon="9.3491333"><ele>35.2</ele><time>2026-04-21T14:27:58.662Z</time></trkpt><trkpt lat="44.3450367" lon="9.3490533"><ele>35.800000000000004</ele><time>2026-04-21T14:27:59.662Z</time></trkpt><trkpt lat="44.345095" lon="9.34897"><ele>36.4</ele><time>2026-04-21T14:28:00.662Z</time></trkpt><trkpt lat="44.3451533" lon="9.3489033"><ele>37.0</ele><time>2026-04-21T14:28:01.663Z</time></trkpt><trkpt lat="44.3452083" lon="9.3488383"><ele>37.0</ele><time>2026-04-21T14:28:02.663Z</time></trkpt><trkpt lat="44.3452667" lon="9.34878"><ele>37.0</ele><time>2026-04-21T14:28:03.662Z</time></trkpt><trkpt lat="44.3453233" lon="9.3487267"><ele>37.0</ele><time>2026-04-21T14:28:04.662Z</time></trkpt><trkpt lat="44.3454267" lon="9.348645"><ele>37.0</ele><time>2026-04-21T14:28:06.663Z</time></trkpt><trkpt lat="44.34553" lon="9.3485467"><ele>37.0</ele><time>2026-04-21T14:28:08.663Z</time></trkpt><trkpt lat="44.34559" lon="9.3485033"><ele>33.6</ele><time>2026-04-21T14:28:09.663Z</time></trkpt><trkpt lat="44.3457033" lon="9.3484233"><ele>30.200000000000003</ele><time>2026-04-21T14:28:11.662Z</time></trkpt><trkpt lat="44.3458167" lon="9.3483783"><ele>26.8</ele><time>2026-04-21T14:28:13.662Z</time></trkpt><trkpt lat="44.3458933" lon="9.34836"><ele>23.4</ele><time>2026-04-21T14:28:14.662Z</time></trkpt><trkpt lat="44.3459817" lon="9.3483417"><ele>20.0</ele><time>2026-04-21T14:28:15.662Z</time></trkpt><trkpt lat="44.34607" lon="9.3483233"><ele>20.0</ele><time>2026-04-21T14:28:16.663Z</time></trkpt><trkpt lat="44.3461483" lon="9.3483"><ele>20.0</ele><time>2026-04-21T14:28:17.662Z</time></trkpt><trkpt lat="44.3462233" lon="9.3482783"><ele>20.0</ele><time>2026-04-21T14:28:18.662Z</time></trkpt><trkpt lat="44.346305" lon="9.348255"><ele>20.0</ele><time>2026-04-21T14:28:19.662Z</time></trkpt><trkpt lat="44.3463817" lon="9.3482317"><ele>20.0</ele><time>2026-04-21T14:28:20.662Z</time></trkpt><trkpt lat="44.346465" lon="9.34821"><ele>20.0</ele><time>2026-04-21T14:28:21.663Z</time></trkpt><trkpt lat="44.346545" lon="9.3481883"><ele>20.0</ele><time>2026-04-21T14:28:22.662Z</time></trkpt><trkpt lat="44.34662" lon="9.3481683"><ele>20.0</ele><time>2026-04-21T14:28:23.662Z</time></trkpt><trkpt lat="44.346695" lon="9.3481533"><ele>20.0</ele><time>2026-04-21T14:28:24.662Z</time></trkpt><trkpt lat="44.34677" lon="9.3481383"><ele>20.0</ele><time>2026-04-21T14:28:25.663Z</time></trkpt><trkpt lat="44.3468467" lon="9.3481217"><ele>20.0</ele><time>2026-04-21T14:28:26.662Z</time></trkpt><trkpt lat="44.34692" lon="9.3481117"><ele>20.0</ele><time>2026-04-21T14:28:27.662Z</time></trkpt><trkpt lat="44.3469967" lon="9.3481067"><ele>20.0</ele><time>2026-04-21T14:28:28.663Z</time></trkpt><trkpt lat="44.34708" lon="9.3480983"><ele>20.0</ele><time>2026-04-21T14:28:29.663Z</time></trkpt><trkpt lat="44.34716" lon="9.34809"><ele>20.0</ele><time>2026-04-21T14:28:30.663Z</time></trkpt><trkpt lat="44.347245" lon="9.3480783"><ele>20.0</ele><time>2026-04-21T14:28:31.662Z</time></trkpt><trkpt lat="44.347335" lon="9.3480683"><ele>20.0</ele><time>2026-04-21T14:28:32.662Z</time></trkpt><trkpt lat="44.3474233" lon="9.34804"><ele>20.0</ele><time>2026-04-21T14:28:33.662Z</time></trkpt><trkpt lat="44.34752" lon="9.3480133"><ele>20.4</ele><time>2026-04-21T14:28:34.662Z</time></trkpt><trkpt lat="44.347615" lon="9.3479917"><ele>20.8</ele><time>2026-04-21T14:28:35.663Z</time></trkpt><trkpt lat="44.3477017" lon="9.3479667"><ele>21.200000000000003</ele><time>2026-04-21T14:28:36.663Z</time></trkpt><trkpt lat="44.347785" lon="9.3479433"><ele>21.6</ele><time>2026-04-21T14:28:37.663Z</time></trkpt><trkpt lat="44.3478717" lon="9.347915"><ele>22.0</ele><time>2026-04-21T14:28:38.663Z</time></trkpt><trkpt lat="44.3479667" lon="9.3478867"><ele>22.200000000000003</ele><time>2026-04-21T14:28:39.663Z</time></trkpt><trkpt lat="44.3480633" lon="9.3478633"><ele>22.4</ele><time>2026-04-21T14:28:40.663Z</time></trkpt><trkpt lat="44.3481633" lon="9.34783"><ele>22.6</ele><time>2026-04-21T14:28:41.663Z</time></trkpt><trkpt lat="44.3482583" lon="9.3478033"><ele>22.799999999999997</ele><time>2026-04-21T14:28:42.662Z</time></trkpt><trkpt lat="44.34835" lon="9.3477817"><ele>23.0</ele><time>2026-04-21T14:28:43.662Z</time></trkpt><trkpt lat="44.3484383" lon="9.3477567"><ele>23.0</ele><time>2026-04-21T14:28:44.663Z</time></trkpt><trkpt lat="44.34853" lon="9.3477267"><ele>23.0</ele><time>2026-04-21T14:28:45.663Z</time></trkpt><trkpt lat="44.3485983" lon="9.3477"><ele>23.0</ele><time>2026-04-21T14:28:46.662Z</time></trkpt><trkpt lat="44.34867" lon="9.34767"><ele>23.0</ele><time>2026-04-21T14:28:48.662Z</time></trkpt><trkpt lat="44.3487433" lon="9.3476267"><ele>23.0</ele><time>2026-04-21T14:28:51.662Z</time></trkpt><trkpt lat="44.3488267" lon="9.3476117"><ele>23.0</ele><time>2026-04-21T14:28:52.663Z</time></trkpt><trkpt lat="44.3489233" lon="9.3475833"><ele>22.75</ele><time>2026-04-21T14:28:53.662Z</time></trkpt><trkpt lat="44.3490517" lon="9.347565"><ele>22.5</ele><time>2026-04-21T14:28:54.663Z</time></trkpt><trkpt lat="44.3491933" lon="9.3475317"><ele>22.25</ele><time>2026-04-21T14:28:55.662Z</time></trkpt><trkpt lat="44.349325" lon="9.3475017"><ele>22.0</ele><time>2026-04-21T14:28:56.663Z</time></trkpt><trkpt lat="44.34943" lon="9.3474767"><ele>22.0</ele><time>2026-04-21T14:28:57.662Z</time></trkpt><trkpt lat="44.3495267" lon="9.3474417"><ele>22.0</ele><time>2026-04-21T14:28:58.662Z</time></trkpt><trkpt lat="44.3496067" lon="9.347405"><ele>22.0</ele><time>2026-04-21T14:28:59.662Z</time></trkpt><trkpt lat="44.3496783" lon="9.3473633"><ele>22.0</ele><time>2026-04-21T14:29:00.662Z</time></trkpt><trkpt lat="44.3497483" lon="9.347305"><ele>22.0</ele><time>2026-04-21T14:29:01.662Z</time></trkpt><trkpt lat="44.3497967" lon="9.34722"><ele>22.0</ele><time>2026-04-21T14:29:02.663Z</time></trkpt><trkpt lat="44.349825" lon="9.3471067"><ele>23.25</ele><time>2026-04-21T14:29:03.662Z</time></trkpt><trkpt lat="44.3498367" lon="9.3469433"><ele>24.5</ele><time>2026-04-21T14:29:04.662Z</time></trkpt><trkpt lat="44.3498417" lon="9.3467717"><ele>25.75</ele><time>2026-04-21T14:29:05.662Z</time></trkpt><trkpt lat="44.3498517" lon="9.3465883"><ele>27.0</ele><time>2026-04-21T14:29:06.662Z</time></trkpt><trkpt lat="44.3498683" lon="9.3463967"><ele>27.0</ele><time>2026-04-21T14:29:07.662Z</time></trkpt><trkpt lat="44.349895" lon="9.3462067"><ele>27.0</ele><time>2026-04-21T14:29:08.663Z</time></trkpt><trkpt lat="44.34992" lon="9.3460183"><ele>27.0</ele><time>2026-04-21T14:29:09.663Z</time></trkpt><trkpt lat="44.349945" lon="9.34582"><ele>27.0</ele><time>2026-04-21T14:29:10.663Z</time></trkpt><trkpt lat="44.3499733" lon="9.3456183"><ele>27.0</ele><time>2026-04-21T14:29:11.662Z</time></trkpt><trkpt lat="44.3499967" lon="9.3454183"><ele>27.0</ele><time>2026-04-21T14:29:12.663Z</time></trkpt><trkpt lat="44.3500083" lon="9.3452433"><ele>27.0</ele><time>2026-04-21T14:29:13.663Z</time></trkpt><trkpt lat="44.350025" lon="9.3450783"><ele>27.0</ele><time>2026-04-21T14:29:14.662Z</time></trkpt><trkpt lat="44.3500367" lon="9.34493"><ele>27.0</ele><time>2026-04-21T14:29:15.663Z</time></trkpt><trkpt lat="44.350045" lon="9.3447883"><ele>27.000000000000004</ele><time>2026-04-21T14:29:16.662Z</time></trkpt><trkpt lat="44.3500617" lon="9.3446467"><ele>27.000000000000004</ele><time>2026-04-21T14:29:17.662Z</time></trkpt><trkpt lat="44.35006" lon="9.3445167"><ele>27.0</ele><time>2026-04-21T14:29:18.662Z</time></trkpt><trkpt lat="44.3500667" lon="9.3444017"><ele>27.0</ele><time>2026-04-21T14:29:19.662Z</time></trkpt><trkpt lat="44.3500817" lon="9.3442917"><ele>27.0</ele><time>2026-04-21T14:29:20.663Z</time></trkpt><trkpt lat="44.3500883" lon="9.3441833"><ele>27.0</ele><time>2026-04-21T14:29:21.663Z</time></trkpt><trkpt lat="44.3501" lon="9.344095"><ele>27.0</ele><time>2026-04-21T14:29:22.663Z</time></trkpt><trkpt lat="44.35012" lon="9.34401"><ele>27.0</ele><time>2026-04-21T14:29:23.662Z</time></trkpt><trkpt lat="44.350135" lon="9.3439183"><ele>27.0</ele><time>2026-04-21T14:29:24.663Z</time></trkpt><trkpt lat="44.3501583" lon="9.34383"><ele>27.0</ele><time>2026-04-21T14:29:25.663Z</time></trkpt><trkpt lat="44.3501817" lon="9.343745"><ele>27.0</ele><time>2026-04-21T14:29:26.663Z</time></trkpt><trkpt lat="44.3502183" lon="9.343585"><ele>27.0</ele><time>2026-04-21T14:29:28.662Z</time></trkpt><trkpt lat="44.3502533" lon="9.3434167"><ele>27.0</ele><time>2026-04-21T14:29:30.662Z</time></trkpt><trkpt lat="44.3502683" lon="9.3433233"><ele>27.0</ele><time>2026-04-21T14:29:31.662Z</time></trkpt><trkpt lat="44.3503" lon="9.3432367"><ele>27.0</ele><time>2026-04-21T14:29:32.663Z</time></trkpt><trkpt lat="44.350345" lon="9.3431383"><ele>27.0</ele><time>2026-04-21T14:29:33.663Z</time></trkpt><trkpt lat="44.3504167" lon="9.3430367"><ele>27.0</ele><time>2026-04-21T14:29:34.662Z</time></trkpt><trkpt lat="44.3505167" lon="9.342955"><ele>26.8</ele><time>2026-04-21T14:29:35.662Z</time></trkpt><trkpt lat="44.35062" lon="9.342905"><ele>26.6</ele><time>2026-04-21T14:29:36.662Z</time></trkpt><trkpt lat="44.3507167" lon="9.3428717"><ele>26.400000000000002</ele><time>2026-04-21T14:29:37.662Z</time></trkpt><trkpt lat="44.35082" lon="9.34285"><ele>26.200000000000003</ele><time>2026-04-21T14:29:38.662Z</time></trkpt><trkpt lat="44.3509217" lon="9.342855"><ele>26.0</ele><time>2026-04-21T14:29:39.663Z</time></trkpt><trkpt lat="44.3510233" lon="9.3428883"><ele>26.0</ele><time>2026-04-21T14:29:40.662Z</time></trkpt><trkpt lat="44.35113" lon="9.3429283"><ele>26.0</ele><time>2026-04-21T14:29:41.662Z</time></trkpt><trkpt lat="44.35123" lon="9.3429817"><ele>26.0</ele><time>2026-04-21T14:29:42.662Z</time></trkpt><trkpt lat="44.3513283" lon="9.3430433"><ele>26.0</ele><time>2026-04-21T14:29:43.663Z</time></trkpt><trkpt lat="44.3514133" lon="9.3431033"><ele>26.0</ele><time>2026-04-21T14:29:44.662Z</time></trkpt><trkpt lat="44.3514917" lon="9.343155"><ele>26.166666666666664</ele><time>2026-04-21T14:29:45.663Z</time></trkpt><trkpt lat="44.3515667" lon="9.343205"><ele>26.333333333333332</ele><time>2026-04-21T14:29:46.662Z</time></trkpt><trkpt lat="44.3516483" lon="9.3432583"><ele>26.5</ele><time>2026-04-21T14:29:47.662Z</time></trkpt><trkpt lat="44.3517267" lon="9.3433167"><ele>26.666666666666664</ele><time>2026-04-21T14:29:48.662Z</time></trkpt><trkpt lat="44.35179" lon="9.34337"><ele>26.833333333333332</ele><time>2026-04-21T14:29:49.662Z</time></trkpt><trkpt lat="44.35186" lon="9.343435"><ele>27.0</ele><time>2026-04-21T14:29:50.662Z</time></trkpt><trkpt lat="44.3519167" lon="9.3434933"><ele>27.0</ele><time>2026-04-21T14:29:51.663Z</time></trkpt><trkpt lat="44.3519933" lon="9.3436217"><ele>27.000000000000004</ele><time>2026-04-21T14:29:53.663Z</time></trkpt><trkpt lat="44.3520333" lon="9.3437067"><ele>27.000000000000004</ele><time>2026-04-21T14:29:54.662Z</time></trkpt><trkpt lat="44.3520933" lon="9.3438033"><ele>27.0</ele><time>2026-04-21T14:29:55.662Z</time></trkpt><trkpt lat="44.352155" lon="9.343915"><ele>27.0</ele><time>2026-04-21T14:29:56.663Z</time></trkpt><trkpt lat="44.35222" lon="9.3440717"><ele>26.75</ele><time>2026-04-21T14:29:57.662Z</time></trkpt><trkpt lat="44.3522583" lon="9.3442583"><ele>26.5</ele><time>2026-04-21T14:29:58.662Z</time></trkpt><trkpt lat="44.3522967" lon="9.3444483"><ele>26.25</ele><time>2026-04-21T14:29:59.662Z</time></trkpt><trkpt lat="44.3523183" lon="9.3446183"><ele>26.0</ele><time>2026-04-21T14:30:00.662Z</time></trkpt><trkpt lat="44.35234" lon="9.344775"><ele>27.4</ele><time>2026-04-21T14:30:01.663Z</time></trkpt><trkpt lat="44.3523567" lon="9.3449083"><ele>28.8</ele><time>2026-04-21T14:30:02.663Z</time></trkpt><trkpt lat="44.352375" lon="9.3450233"><ele>30.199999999999996</ele><time>2026-04-21T14:30:03.663Z</time></trkpt><trkpt lat="44.3524233" lon="9.34513"><ele>31.599999999999998</ele><time>2026-04-21T14:30:04.662Z</time></trkpt><trkpt lat="44.3524783" lon="9.3452433"><ele>33.0</ele><time>2026-04-21T14:30:05.662Z</time></trkpt><trkpt lat="44.352545" lon="9.3453633"><ele>33.0</ele><time>2026-04-21T14:30:06.663Z</time></trkpt><trkpt lat="44.3526133" lon="9.3455067"><ele>33.0</ele><time>2026-04-21T14:30:07.662Z</time></trkpt><trkpt lat="44.3526883" lon="9.3456817"><ele>33.0</ele><time>2026-04-21T14:30:08.662Z</time></trkpt><trkpt lat="44.3527567" lon="9.3458733"><ele>33.0</ele><time>2026-04-21T14:30:09.662Z</time></trkpt><trkpt lat="44.3528183" lon="9.34608"><ele>35.333333333333336</ele><time>2026-04-21T14:30:10.663Z</time></trkpt><trkpt lat="44.35289" lon="9.3463067"><ele>37.66666666666667</ele><time>2026-04-21T14:30:11.662Z</time></trkpt><trkpt lat="44.3529667" lon="9.3465367"><ele>40.0</ele><time>2026-04-21T14:30:12.662Z</time></trkpt><trkpt lat="44.353055" lon="9.3467467"><ele>40.0</ele><time>2026-04-21T14:30:13.663Z</time></trkpt><trkpt lat="44.3531583" lon="9.3469467"><ele>40.0</ele><time>2026-04-21T14:30:14.663Z</time></trkpt><trkpt lat="44.3532633" lon="9.347145"><ele>40.0</ele><time>2026-04-21T14:30:15.662Z</time></trkpt><trkpt lat="44.3534067" lon="9.3473533"><ele>48.66666666666667</ele><time>2026-04-21T14:30:16.662Z</time></trkpt><trkpt lat="44.3535467" lon="9.3475783"><ele>57.333333333333336</ele><time>2026-04-21T14:30:17.662Z</time></trkpt><trkpt lat="44.3536667" lon="9.3478"><ele>66.0</ele><time>2026-04-21T14:30:18.663Z</time></trkpt><trkpt lat="44.3538267" lon="9.34802"><ele>59.333333333333336</ele><time>2026-04-21T14:30:19.662Z</time></trkpt><trkpt lat="44.3539683" lon="9.34824"><ele>52.66666666666667</ele><time>2026-04-21T14:30:20.662Z</time></trkpt><trkpt lat="44.3540933" lon="9.3484517"><ele>46.0</ele><time>2026-04-21T14:30:21.662Z</time></trkpt><trkpt lat="44.3542217" lon="9.3486467"><ele>46.0</ele><time>2026-04-21T14:30:22.662Z</time></trkpt><trkpt lat="44.3543433" lon="9.3488267"><ele>46.0</ele><time>2026-04-21T14:30:23.662Z</time></trkpt><trkpt lat="44.3544933" lon="9.3489683"><ele>46.0</ele><time>2026-04-21T14:30:24.663Z</time></trkpt><trkpt lat="44.3546467" lon="9.349105"><ele>45.333333333333336</ele><time>2026-04-21T14:30:25.662Z</time></trkpt><trkpt lat="44.35483" lon="9.3492133"><ele>44.666666666666664</ele><time>2026-04-21T14:30:26.663Z</time></trkpt><trkpt lat="44.3549983" lon="9.34935"><ele>44.0</ele><time>2026-04-21T14:30:27.662Z</time></trkpt><trkpt lat="44.3551617" lon="9.3494883"><ele>44.0</ele><time>2026-04-21T14:30:28.663Z</time></trkpt><trkpt lat="44.35532" lon="9.3496133"><ele>44.0</ele><time>2026-04-21T14:30:29.663Z</time></trkpt><trkpt lat="44.355475" lon="9.349725"><ele>44.0</ele><time>2026-04-21T14:30:30.663Z</time></trkpt><trkpt lat="44.355635" lon="9.3498333"><ele>46.0</ele><time>2026-04-21T14:30:31.663Z</time></trkpt><trkpt lat="44.3557917" lon="9.3499383"><ele>48.0</ele><time>2026-04-21T14:30:32.662Z</time></trkpt><trkpt lat="44.3559533" lon="9.3500267"><ele>50.0</ele><time>2026-04-21T14:30:33.663Z</time></trkpt><trkpt lat="44.3561167" lon="9.350115"><ele>50.0</ele><time>2026-04-21T14:30:34.662Z</time></trkpt><trkpt lat="44.3562633" lon="9.350195"><ele>50.0</ele><time>2026-04-21T14:30:35.662Z</time></trkpt><trkpt lat="44.3564083" lon="9.3502717"><ele>50.0</ele><time>2026-04-21T14:30:36.662Z</time></trkpt><trkpt lat="44.3565383" lon="9.3503733"><ele>51.5</ele><time>2026-04-21T14:30:37.663Z</time></trkpt><trkpt lat="44.3566833" lon="9.3504517"><ele>53.0</ele><time>2026-04-21T14:30:38.662Z</time></trkpt><trkpt lat="44.3568233" lon="9.350515"><ele>54.5</ele><time>2026-04-21T14:30:39.663Z</time></trkpt><trkpt lat="44.3569617" lon="9.35055"><ele>56.0</ele><time>2026-04-21T14:30:40.662Z</time></trkpt><trkpt lat="44.3570917" lon="9.3505583"><ele>50.25</ele><time>2026-04-21T14:30:41.662Z</time></trkpt><trkpt lat="44.3572233" lon="9.350535"><ele>44.5</ele><time>2026-04-21T14:30:42.662Z</time></trkpt><trkpt lat="44.3573567" lon="9.3505017"><ele>38.75</ele><time>2026-04-21T14:30:43.663Z</time></trkpt><trkpt lat="44.3574817" lon="9.3504517"><ele>33.0</ele><time>2026-04-21T14:30:44.662Z</time></trkpt><trkpt lat="44.3576067" lon="9.350405"><ele>33.0</ele><time>2026-04-21T14:30:45.662Z</time></trkpt><trkpt lat="44.3577317" lon="9.3503633"><ele>33.0</ele><time>2026-04-21T14:30:46.662Z</time></trkpt><trkpt lat="44.3578417" lon="9.35033"><ele>33.0</ele><time>2026-04-21T14:30:47.662Z</time></trkpt><trkpt lat="44.35796" lon="9.3503117"><ele>33.0</ele><time>2026-04-21T14:30:48.663Z</time></trkpt><trkpt lat="44.358075" lon="9.3503017"><ele>33.75</ele><time>2026-04-21T14:30:49.662Z</time></trkpt><trkpt lat="44.358185" lon="9.3503133"><ele>34.5</ele><time>2026-04-21T14:30:50.663Z</time></trkpt><trkpt lat="44.3582983" lon="9.350345"><ele>35.25</ele><time>2026-04-21T14:30:51.663Z</time></trkpt><trkpt lat="44.3584233" lon="9.350405"><ele>36.0</ele><time>2026-04-21T14:30:52.662Z</time></trkpt><trkpt lat="44.358545" lon="9.350495"><ele>36.0</ele><time>2026-04-21T14:30:53.662Z</time></trkpt><trkpt lat="44.3586517" lon="9.3506133"><ele>36.0</ele><time>2026-04-21T14:30:54.663Z</time></trkpt><trkpt lat="44.3587433" lon="9.35075"><ele>36.0</ele><time>2026-04-21T14:30:55.663Z</time></trkpt><trkpt lat="44.3588283" lon="9.3508933"><ele>36.0</ele><time>2026-04-21T14:30:56.662Z</time></trkpt><trkpt lat="44.3589017" lon="9.3510617"><ele>36.0</ele><time>2026-04-21T14:30:57.662Z</time></trkpt><trkpt lat="44.358965" lon="9.3512283"><ele>36.0</ele><time>2026-04-21T14:30:58.663Z</time></trkpt><trkpt lat="44.3590333" lon="9.3513817"><ele>36.0</ele><time>2026-04-21T14:30:59.663Z</time></trkpt><trkpt lat="44.3591083" lon="9.3515417"><ele>36.0</ele><time>2026-04-21T14:31:00.662Z</time></trkpt><trkpt lat="44.3591883" lon="9.3517"><ele>37.333333333333336</ele><time>2026-04-21T14:31:01.662Z</time></trkpt><trkpt lat="44.3592817" lon="9.3518767"><ele>38.66666666666667</ele><time>2026-04-21T14:31:02.662Z</time></trkpt><trkpt lat="44.3593833" lon="9.352045"><ele>40.0</ele><time>2026-04-21T14:31:03.663Z</time></trkpt><trkpt lat="44.3594933" lon="9.3522183"><ele>40.0</ele><time>2026-04-21T14:31:04.663Z</time></trkpt><trkpt lat="44.3596367" lon="9.3523917"><ele>40.0</ele><time>2026-04-21T14:31:05.662Z</time></trkpt><trkpt lat="44.35978" lon="9.3525767"><ele>40.0</ele><time>2026-04-21T14:31:06.662Z</time></trkpt><trkpt lat="44.3599417" lon="9.3527667"><ele>40.0</ele><time>2026-04-21T14:31:07.662Z</time></trkpt><trkpt lat="44.360095" lon="9.35296"><ele>40.0</ele><time>2026-04-21T14:31:08.662Z</time></trkpt><trkpt lat="44.3602433" lon="9.3531483"><ele>40.0</ele><time>2026-04-21T14:31:09.663Z</time></trkpt><trkpt lat="44.3603633" lon="9.3533317"><ele>39.66666666666667</ele><time>2026-04-21T14:31:10.662Z</time></trkpt><trkpt lat="44.3604683" lon="9.3535333"><ele>39.333333333333336</ele><time>2026-04-21T14:31:11.662Z</time></trkpt><trkpt lat="44.36055" lon="9.35375"><ele>39.0</ele><time>2026-04-21T14:31:12.663Z</time></trkpt><trkpt lat="44.36064" lon="9.3539733"><ele>42.66666666666667</ele><time>2026-04-21T14:31:13.662Z</time></trkpt><trkpt lat="44.360725" lon="9.354215"><ele>46.333333333333336</ele><time>2026-04-21T14:31:14.663Z</time></trkpt><trkpt lat="44.3608033" lon="9.35445"><ele>50.0</ele><time>2026-04-21T14:31:15.662Z</time></trkpt><trkpt lat="44.3608817" lon="9.3546733"><ele>57.333333333333336</ele><time>2026-04-21T14:31:16.662Z</time></trkpt><trkpt lat="44.3609667" lon="9.3548917"><ele>64.66666666666667</ele><time>2026-04-21T14:31:17.663Z</time></trkpt><trkpt lat="44.3610683" lon="9.3550983"><ele>72.0</ele><time>2026-04-21T14:31:18.662Z</time></trkpt><trkpt lat="44.3611683" lon="9.3553"><ele>72.0</ele><time>2026-04-21T14:31:19.662Z</time></trkpt><trkpt lat="44.3612667" lon="9.3554967"><ele>72.0</ele><time>2026-04-21T14:31:20.663Z</time></trkpt><trkpt lat="44.361355" lon="9.3557067"><ele>72.0</ele><time>2026-04-21T14:31:21.662Z</time></trkpt><trkpt lat="44.36141" lon="9.3559333"><ele>67.33333333333333</ele><time>2026-04-21T14:31:22.662Z</time></trkpt><trkpt lat="44.3614533" lon="9.3561817"><ele>62.666666666666664</ele><time>2026-04-21T14:31:23.663Z</time></trkpt><trkpt lat="44.3614967" lon="9.3564267"><ele>58.0</ele><time>2026-04-21T14:31:24.662Z</time></trkpt><trkpt lat="44.3615467" lon="9.3566433"><ele>58.0</ele><time>2026-04-21T14:31:25.663Z</time></trkpt><trkpt lat="44.3616083" lon="9.356835"><ele>58.0</ele><time>2026-04-21T14:31:26.663Z</time></trkpt><trkpt lat="44.3616733" lon="9.3569967"><ele>58.0</ele><time>2026-04-21T14:31:27.663Z</time></trkpt><trkpt lat="44.3617733" lon="9.3571333"><ele>58.0</ele><time>2026-04-21T14:31:28.662Z</time></trkpt><trkpt lat="44.3618867" lon="9.3572483"><ele>59.666666666666664</ele><time>2026-04-21T14:31:29.662Z</time></trkpt><trkpt lat="44.36209" lon="9.3573033"><ele>61.33333333333333</ele><time>2026-04-21T14:31:30.662Z</time></trkpt><trkpt lat="44.3622867" lon="9.357335"><ele>63.0</ele><time>2026-04-21T14:31:31.662Z</time></trkpt><trkpt lat="44.3624617" lon="9.35735"><ele>63.0</ele><time>2026-04-21T14:31:32.663Z</time></trkpt><trkpt lat="44.36264" lon="9.3573633"><ele>63.0</ele><time>2026-04-21T14:31:33.662Z</time></trkpt><trkpt lat="44.362825" lon="9.3573817"><ele>63.0</ele><time>2026-04-21T14:31:34.662Z</time></trkpt><trkpt lat="44.3630167" lon="9.3573917"><ele>58.0</ele><time>2026-04-21T14:31:35.661Z</time></trkpt><trkpt lat="44.3632233" lon="9.3574067"><ele>53.0</ele><time>2026-04-21T14:31:36.661Z</time></trkpt><trkpt lat="44.3634233" lon="9.3574367"><ele>48.0</ele><time>2026-04-21T14:31:37.661Z</time></trkpt><trkpt lat="44.363605" lon="9.357455"><ele>48.0</ele><time>2026-04-21T14:31:38.662Z</time></trkpt><trkpt lat="44.363795" lon="9.357465"><ele>48.0</ele><time>2026-04-21T14:31:39.661Z</time></trkpt><trkpt lat="44.363985" lon="9.3574833"><ele>48.0</ele><time>2026-04-21T14:31:40.662Z</time></trkpt><trkpt lat="44.36417" lon="9.3575083"><ele>47.333333333333336</ele><time>2026-04-21T14:31:41.661Z</time></trkpt><trkpt lat="44.3643567" lon="9.3575383"><ele>46.66666666666667</ele><time>2026-04-21T14:31:42.662Z</time></trkpt><trkpt lat="44.36455" lon="9.3575617"><ele>46.0</ele><time>2026-04-21T14:31:43.662Z</time></trkpt><trkpt lat="44.364745" lon="9.3575917"><ele>48.0</ele><time>2026-04-21T14:31:44.662Z</time></trkpt><trkpt lat="44.3649283" lon="9.3576117"><ele>50.0</ele><time>2026-04-21T14:31:45.661Z</time></trkpt><trkpt lat="44.36512" lon="9.3576233"><ele>52.0</ele><time>2026-04-21T14:31:46.661Z</time></trkpt><trkpt lat="44.3653033" lon="9.35763"><ele>52.0</ele><time>2026-04-21T14:31:47.662Z</time></trkpt><trkpt lat="44.365475" lon="9.35764"><ele>52.0</ele><time>2026-04-21T14:31:48.662Z</time></trkpt><trkpt lat="44.3656383" lon="9.3576567"><ele>52.0</ele><time>2026-04-21T14:31:49.662Z</time></trkpt><trkpt lat="44.365795" lon="9.357665"><ele>53.0</ele><time>2026-04-21T14:31:50.661Z</time></trkpt><trkpt lat="44.3659267" lon="9.3576467"><ele>54.0</ele><time>2026-04-21T14:31:51.661Z</time></trkpt><trkpt lat="44.366075" lon="9.3575833"><ele>55.0</ele><time>2026-04-21T14:31:52.662Z</time></trkpt><trkpt lat="44.3662133" lon="9.35749"><ele>56.0</ele><time>2026-04-21T14:31:53.662Z</time></trkpt><trkpt lat="44.3663467" lon="9.3573767"><ele>56.25</ele><time>2026-04-21T14:31:54.661Z</time></trkpt><trkpt lat="44.3664633" lon="9.3572667"><ele>56.5</ele><time>2026-04-21T14:31:55.662Z</time></trkpt><trkpt lat="44.3665733" lon="9.3571783"><ele>56.75</ele><time>2026-04-21T14:31:56.661Z</time></trkpt><trkpt lat="44.3666983" lon="9.3570833"><ele>57.0</ele><time>2026-04-21T14:31:57.661Z</time></trkpt><trkpt lat="44.3668267" lon="9.357"><ele>57.0</ele><time>2026-04-21T14:31:58.661Z</time></trkpt><trkpt lat="44.3669733" lon="9.3569217"><ele>57.0</ele><time>2026-04-21T14:31:59.662Z</time></trkpt><trkpt lat="44.367125" lon="9.3568583"><ele>57.0</ele><time>2026-04-21T14:32:00.661Z</time></trkpt><trkpt lat="44.3672833" lon="9.3568067"><ele>61.0</ele><time>2026-04-21T14:32:01.661Z</time></trkpt><trkpt lat="44.3674467" lon="9.356765"><ele>65.0</ele><time>2026-04-21T14:32:02.661Z</time></trkpt><trkpt lat="44.3676183" lon="9.3567467"><ele>69.0</ele><time>2026-04-21T14:32:03.661Z</time></trkpt><trkpt lat="44.367785" lon="9.3567383"><ele>69.0</ele><time>2026-04-21T14:32:04.661Z</time></trkpt><trkpt lat="44.3679417" lon="9.3567067"><ele>69.0</ele><time>2026-04-21T14:32:05.662Z</time></trkpt><trkpt lat="44.3681067" lon="9.35665"><ele>69.0</ele><time>2026-04-21T14:32:06.661Z</time></trkpt><trkpt lat="44.3682633" lon="9.356565"><ele>69.25</ele><time>2026-04-21T14:32:07.662Z</time></trkpt><trkpt lat="44.3684067" lon="9.356475"><ele>69.5</ele><time>2026-04-21T14:32:08.661Z</time></trkpt><trkpt lat="44.368505" lon="9.3563467"><ele>69.75</ele><time>2026-04-21T14:32:09.662Z</time></trkpt><trkpt lat="44.3686017" lon="9.3562267"><ele>70.0</ele><time>2026-04-21T14:32:10.662Z</time></trkpt><trkpt lat="44.36869" lon="9.3561217"><ele>70.0</ele><time>2026-04-21T14:32:11.661Z</time></trkpt><trkpt lat="44.368785" lon="9.3560683"><ele>70.0</ele><time>2026-04-21T14:32:12.661Z</time></trkpt><trkpt lat="44.368885" lon="9.356065"><ele>70.0</ele><time>2026-04-21T14:32:13.661Z</time></trkpt><trkpt lat="44.3689983" lon="9.3561033"><ele>70.0</ele><time>2026-04-21T14:32:14.661Z</time></trkpt><trkpt lat="44.369125" lon="9.356195"><ele>68.0</ele><time>2026-04-21T14:32:15.661Z</time></trkpt><trkpt lat="44.3692783" lon="9.3563183"><ele>66.0</ele><time>2026-04-21T14:32:16.661Z</time></trkpt><trkpt lat="44.3694467" lon="9.3564317"><ele>64.0</ele><time>2026-04-21T14:32:17.662Z</time></trkpt><trkpt lat="44.3696183" lon="9.3565183"><ele>72.66666666666666</ele><time>2026-04-21T14:32:18.661Z</time></trkpt><trkpt lat="44.3697967" lon="9.3565817"><ele>81.33333333333333</ele><time>2026-04-21T14:32:19.661Z</time></trkpt><trkpt lat="44.3699467" lon="9.356625"><ele>90.0</ele><time>2026-04-21T14:32:20.662Z</time></trkpt><trkpt lat="44.3700933" lon="9.3566467"><ele>90.0</ele><time>2026-04-21T14:32:21.662Z</time></trkpt><trkpt lat="44.3702383" lon="9.356675"><ele>90.0</ele><time>2026-04-21T14:32:22.661Z</time></trkpt><trkpt lat="44.3703883" lon="9.356715"><ele>90.0</ele><time>2026-04-21T14:32:23.661Z</time></trkpt><trkpt lat="44.3705133" lon="9.356775"><ele>90.0</ele><time>2026-04-21T14:32:24.662Z</time></trkpt><trkpt lat="44.3706167" lon="9.35686"><ele>90.75</ele><time>2026-04-21T14:32:25.662Z</time></trkpt><trkpt lat="44.3706983" lon="9.3569717"><ele>91.5</ele><time>2026-04-21T14:32:26.661Z</time></trkpt><trkpt lat="44.3707867" lon="9.3571117"><ele>92.25</ele><time>2026-04-21T14:32:27.661Z</time></trkpt><trkpt lat="44.3708633" lon="9.3572783"><ele>93.0</ele><time>2026-04-21T14:32:28.661Z</time></trkpt><trkpt lat="44.3709233" lon="9.3574583"><ele>93.0</ele><time>2026-04-21T14:32:29.661Z</time></trkpt><trkpt lat="44.3709667" lon="9.3576267"><ele>93.0</ele><time>2026-04-21T14:32:30.661Z</time></trkpt><trkpt lat="44.3709817" lon="9.3577917"><ele>93.0</ele><time>2026-04-21T14:32:31.662Z</time></trkpt><trkpt lat="44.3709833" lon="9.357965"><ele>93.0</ele><time>2026-04-21T14:32:32.661Z</time></trkpt><trkpt lat="44.3709383" lon="9.3581667"><ele>95.66666666666666</ele><time>2026-04-21T14:32:33.661Z</time></trkpt><trkpt lat="44.3708633" lon="9.3583817"><ele>98.33333333333333</ele><time>2026-04-21T14:32:34.661Z</time></trkpt><trkpt lat="44.37082" lon="9.3585933"><ele>101.0</ele><time>2026-04-21T14:32:35.661Z</time></trkpt><trkpt lat="44.3707733" lon="9.35877"><ele>102.75</ele><time>2026-04-21T14:32:36.661Z</time></trkpt><trkpt lat="44.3707417" lon="9.3589267"><ele>104.5</ele><time>2026-04-21T14:32:37.661Z</time></trkpt><trkpt lat="44.3707317" lon="9.3590733"><ele>106.25</ele><time>2026-04-21T14:32:38.662Z</time></trkpt><trkpt lat="44.3707483" lon="9.3592333"><ele>108.0</ele><time>2026-04-21T14:32:39.661Z</time></trkpt><trkpt lat="44.3708033" lon="9.3594033"><ele>108.0</ele><time>2026-04-21T14:32:40.662Z</time></trkpt><trkpt lat="44.37088" lon="9.3595917"><ele>108.0</ele><time>2026-04-21T14:32:41.661Z</time></trkpt><trkpt lat="44.370975" lon="9.3597817"><ele>108.0</ele><time>2026-04-21T14:32:42.661Z</time></trkpt><trkpt lat="44.3709967" lon="9.3599733"><ele>109.5</ele><time>2026-04-21T14:32:43.662Z</time></trkpt><trkpt lat="44.37102" lon="9.3601517"><ele>111.0</ele><time>2026-04-21T14:32:44.661Z</time></trkpt><trkpt lat="44.371045" lon="9.36031"><ele>112.5</ele><time>2026-04-21T14:32:45.662Z</time></trkpt><trkpt lat="44.3710833" lon="9.3604467"><ele>114.0</ele><time>2026-04-21T14:32:46.661Z</time></trkpt><trkpt lat="44.3711483" lon="9.3605667"><ele>118.25</ele><time>2026-04-21T14:32:47.662Z</time></trkpt><trkpt lat="44.3712383" lon="9.36065"><ele>122.5</ele><time>2026-04-21T14:32:48.661Z</time></trkpt><trkpt lat="44.3713333" lon="9.3607083"><ele>126.75</ele><time>2026-04-21T14:32:49.661Z</time></trkpt><trkpt lat="44.3714367" lon="9.360735"><ele>131.0</ele><time>2026-04-21T14:32:50.661Z</time></trkpt><trkpt lat="44.3715717" lon="9.36076"><ele>122.0</ele><time>2026-04-21T14:32:51.661Z</time></trkpt><trkpt lat="44.371715" lon="9.3607817"><ele>113.0</ele><time>2026-04-21T14:32:52.662Z</time></trkpt><trkpt lat="44.371865" lon="9.3608033"><ele>104.0</ele><time>2026-04-21T14:32:53.661Z</time></trkpt><trkpt lat="44.3720133" lon="9.3608133"><ele>95.0</ele><time>2026-04-21T14:32:54.661Z</time></trkpt><trkpt lat="44.3721467" lon="9.360835"><ele>92.0</ele><time>2026-04-21T14:32:55.661Z</time></trkpt><trkpt lat="44.37228" lon="9.3608533"><ele>89.0</ele><time>2026-04-21T14:32:56.662Z</time></trkpt><trkpt lat="44.3724267" lon="9.3608783"><ele>86.0</ele><time>2026-04-21T14:32:57.662Z</time></trkpt><trkpt lat="44.37258" lon="9.3608883"><ele>83.0</ele><time>2026-04-21T14:32:58.661Z</time></trkpt><trkpt lat="44.3727283" lon="9.3608867"><ele>83.0</ele><time>2026-04-21T14:32:59.661Z</time></trkpt><trkpt lat="44.3728633" lon="9.36089"><ele>83.0</ele><time>2026-04-21T14:33:00.662Z</time></trkpt><trkpt lat="44.3729917" lon="9.3608883"><ele>83.0</ele><time>2026-04-21T14:33:01.662Z</time></trkpt><trkpt lat="44.373115" lon="9.3608917"><ele>83.0</ele><time>2026-04-21T14:33:02.661Z</time></trkpt><trkpt lat="44.373235" lon="9.3608917"><ele>81.4</ele><time>2026-04-21T14:33:03.661Z</time></trkpt><trkpt lat="44.3733433" lon="9.3608883"><ele>79.80000000000001</ele><time>2026-04-21T14:33:04.662Z</time></trkpt><trkpt lat="44.373445" lon="9.3608867"><ele>78.2</ele><time>2026-04-21T14:33:05.661Z</time></trkpt><trkpt lat="44.373535" lon="9.3608883"><ele>76.6</ele><time>2026-04-21T14:33:06.662Z</time></trkpt><trkpt lat="44.373615" lon="9.3608783"><ele>75.0</ele><time>2026-04-21T14:33:07.661Z</time></trkpt><trkpt lat="44.3736867" lon="9.3608967"><ele>75.0</ele><time>2026-04-21T14:33:08.661Z</time></trkpt><trkpt lat="44.373745" lon="9.3610683"><ele>75.0</ele><time>2026-04-21T14:33:10.662Z</time></trkpt><trkpt lat="44.3737417" lon="9.3612067"><ele>75.0</ele><time>2026-04-21T14:33:11.662Z</time></trkpt><trkpt lat="44.3737167" lon="9.3613683"><ele>75.0</ele><time>2026-04-21T14:33:12.661Z</time></trkpt><trkpt lat="44.37366" lon="9.3615617"><ele>79.75</ele><time>2026-04-21T14:33:13.661Z</time></trkpt><trkpt lat="44.37361" lon="9.3617483"><ele>84.5</ele><time>2026-04-21T14:33:14.661Z</time></trkpt><trkpt lat="44.3735433" lon="9.3619083"><ele>89.25</ele><time>2026-04-21T14:33:15.662Z</time></trkpt><trkpt lat="44.3734967" lon="9.36204"><ele>94.0</ele><time>2026-04-21T14:33:16.662Z</time></trkpt><trkpt lat="44.3734467" lon="9.3621517"><ele>94.66666666666666</ele><time>2026-04-21T14:33:17.661Z</time></trkpt><trkpt lat="44.373405" lon="9.36225"><ele>95.33333333333333</ele><time>2026-04-21T14:33:18.661Z</time></trkpt><trkpt lat="44.3733867" lon="9.3623467"><ele>96.0</ele><time>2026-04-21T14:33:19.662Z</time></trkpt><trkpt lat="44.3733667" lon="9.3624483"><ele>96.66666666666666</ele><time>2026-04-21T14:33:20.662Z</time></trkpt><trkpt lat="44.3733667" lon="9.3625483"><ele>97.33333333333333</ele><time>2026-04-21T14:33:21.661Z</time></trkpt><trkpt lat="44.3733683" lon="9.3626383"><ele>98.0</ele><time>2026-04-21T14:33:22.662Z</time></trkpt><trkpt lat="44.3734633" lon="9.3627533"><ele>98.0</ele><time>2026-04-21T14:33:24.661Z</time></trkpt><trkpt lat="44.3735567" lon="9.3627883"><ele>98.0</ele><time>2026-04-21T14:33:25.661Z</time></trkpt><trkpt lat="44.3736567" lon="9.3628267"><ele>98.0</ele><time>2026-04-21T14:33:26.662Z</time></trkpt><trkpt lat="44.373785" lon="9.362915"><ele>98.0</ele><time>2026-04-21T14:33:27.661Z</time></trkpt><trkpt lat="44.3739167" lon="9.3630233"><ele>96.0</ele><time>2026-04-21T14:33:28.662Z</time></trkpt><trkpt lat="44.3740433" lon="9.3631317"><ele>94.0</ele><time>2026-04-21T14:33:29.661Z</time></trkpt><trkpt lat="44.37415" lon="9.3632667"><ele>92.0</ele><time>2026-04-21T14:33:30.661Z</time></trkpt><trkpt lat="44.374245" lon="9.3633683"><ele>90.0</ele><time>2026-04-21T14:33:31.662Z</time></trkpt><trkpt lat="44.374335" lon="9.3634683"><ele>90.0</ele><time>2026-04-21T14:33:32.661Z</time></trkpt><trkpt lat="44.374425" lon="9.36357"><ele>90.0</ele><time>2026-04-21T14:33:33.662Z</time></trkpt><trkpt lat="44.3744917" lon="9.3636617"><ele>90.0</ele><time>2026-04-21T14:33:34.661Z</time></trkpt><trkpt lat="44.3745333" lon="9.3637583"><ele>90.0</ele><time>2026-04-21T14:33:35.661Z</time></trkpt><trkpt lat="44.3745633" lon="9.3638683"><ele>90.0</ele><time>2026-04-21T14:33:36.661Z</time></trkpt><trkpt lat="44.37457" lon="9.36401"><ele>88.33333333333333</ele><time>2026-04-21T14:33:37.662Z</time></trkpt><trkpt lat="44.37458" lon="9.3641333"><ele>86.66666666666667</ele><time>2026-04-21T14:33:38.661Z</time></trkpt><trkpt lat="44.3746133" lon="9.364245"><ele>85.0</ele><time>2026-04-21T14:33:39.662Z</time></trkpt><trkpt lat="44.37464" lon="9.36434"><ele>83.33333333333334</ele><time>2026-04-21T14:33:40.662Z</time></trkpt><trkpt lat="44.3747067" lon="9.364425"><ele>81.66666666666667</ele><time>2026-04-21T14:33:41.662Z</time></trkpt><trkpt lat="44.3747783" lon="9.3644983"><ele>80.0</ele><time>2026-04-21T14:33:42.661Z</time></trkpt><trkpt lat="44.3748683" lon="9.3645733"><ele>80.0</ele><time>2026-04-21T14:33:43.661Z</time></trkpt><trkpt lat="44.3749667" lon="9.3646467"><ele>80.0</ele><time>2026-04-21T14:33:44.661Z</time></trkpt><trkpt lat="44.375065" lon="9.36474"><ele>80.0</ele><time>2026-04-21T14:33:45.661Z</time></trkpt><trkpt lat="44.3751567" lon="9.3648317"><ele>80.0</ele><time>2026-04-21T14:33:46.661Z</time></trkpt><trkpt lat="44.3752333" lon="9.3649183"><ele>80.0</ele><time>2026-04-21T14:33:47.662Z</time></trkpt><trkpt lat="44.37532" lon="9.36502"><ele>78.25</ele><time>2026-04-21T14:33:48.661Z</time></trkpt><trkpt lat="44.3754" lon="9.36514"><ele>76.5</ele><time>2026-04-21T14:33:49.661Z</time></trkpt><trkpt lat="44.3754667" lon="9.3652767"><ele>74.75</ele><time>2026-04-21T14:33:50.661Z</time></trkpt><trkpt lat="44.3755233" lon="9.3654233"><ele>73.0</ele><time>2026-04-21T14:33:51.662Z</time></trkpt><trkpt lat="44.3755667" lon="9.365575"><ele>76.5</ele><time>2026-04-21T14:33:52.661Z</time></trkpt><trkpt lat="44.3755983" lon="9.3657217"><ele>80.0</ele><time>2026-04-21T14:33:53.661Z</time></trkpt><trkpt lat="44.375665" lon="9.3658467"><ele>83.5</ele><time>2026-04-21T14:33:54.661Z</time></trkpt><trkpt lat="44.3757567" lon="9.3659417"><ele>87.0</ele><time>2026-04-21T14:33:55.662Z</time></trkpt><trkpt lat="44.3758767" lon="9.3660183"><ele>87.0</ele><time>2026-04-21T14:33:56.661Z</time></trkpt><trkpt lat="44.3760167" lon="9.3661033"><ele>87.0</ele><time>2026-04-21T14:33:57.661Z</time></trkpt><trkpt lat="44.3761517" lon="9.3662"><ele>87.0</ele><time>2026-04-21T14:33:58.662Z</time></trkpt><trkpt lat="44.3762883" lon="9.3663317"><ele>84.33333333333333</ele><time>2026-04-21T14:33:59.661Z</time></trkpt><trkpt lat="44.3764383" lon="9.3664733"><ele>81.66666666666666</ele><time>2026-04-21T14:34:00.662Z</time></trkpt><trkpt lat="44.3765783" lon="9.36662"><ele>79.0</ele><time>2026-04-21T14:34:01.661Z</time></trkpt><trkpt lat="44.3766783" lon="9.3667667"><ele>79.0</ele><time>2026-04-21T14:34:02.661Z</time></trkpt><trkpt lat="44.37679" lon="9.3669017"><ele>79.0</ele><time>2026-04-21T14:34:03.662Z</time></trkpt><trkpt lat="44.3769083" lon="9.3670317"><ele>79.0</ele><time>2026-04-21T14:34:04.662Z</time></trkpt><trkpt lat="44.3770233" lon="9.3671417"><ele>79.0</ele><time>2026-04-21T14:34:05.661Z</time></trkpt><trkpt lat="44.377135" lon="9.36726"><ele>77.5</ele><time>2026-04-21T14:34:06.662Z</time></trkpt><trkpt lat="44.37724" lon="9.367375"><ele>76.0</ele><time>2026-04-21T14:34:07.661Z</time></trkpt><trkpt lat="44.37735" lon="9.3674983"><ele>74.5</ele><time>2026-04-21T14:34:08.661Z</time></trkpt><trkpt lat="44.3774633" lon="9.367635"><ele>73.0</ele><time>2026-04-21T14:34:09.661Z</time></trkpt><trkpt lat="44.3775633" lon="9.36779"><ele>73.0</ele><time>2026-04-21T14:34:10.662Z</time></trkpt><trkpt lat="44.377675" lon="9.3679517"><ele>73.0</ele><time>2026-04-21T14:34:11.662Z</time></trkpt><trkpt lat="44.3777783" lon="9.368125"><ele>73.0</ele><time>2026-04-21T14:34:12.661Z</time></trkpt><trkpt lat="44.377875" lon="9.3683217"><ele>70.66666666666666</ele><time>2026-04-21T14:34:13.661Z</time></trkpt><trkpt lat="44.3779983" lon="9.3685167"><ele>68.33333333333333</ele><time>2026-04-21T14:34:14.661Z</time></trkpt><trkpt lat="44.3781267" lon="9.368725"><ele>66.0</ele><time>2026-04-21T14:34:15.661Z</time></trkpt><trkpt lat="44.3782417" lon="9.3689267"><ele>71.33333333333333</ele><time>2026-04-21T14:34:16.662Z</time></trkpt><trkpt lat="44.3783717" lon="9.3691117"><ele>76.66666666666666</ele><time>2026-04-21T14:34:17.662Z</time></trkpt><trkpt lat="44.3784917" lon="9.3693033"><ele>82.0</ele><time>2026-04-21T14:34:18.661Z</time></trkpt><trkpt lat="44.37862" lon="9.3694767"><ele>82.0</ele><time>2026-04-21T14:34:19.662Z</time></trkpt><trkpt lat="44.378735" lon="9.369635"><ele>82.0</ele><time>2026-04-21T14:34:20.661Z</time></trkpt><trkpt lat="44.378845" lon="9.3697883"><ele>82.0</ele><time>2026-04-21T14:34:21.662Z</time></trkpt><trkpt lat="44.3789633" lon="9.3699633"><ele>80.33333333333333</ele><time>2026-04-21T14:34:22.661Z</time></trkpt><trkpt lat="44.379085" lon="9.3701383"><ele>78.66666666666667</ele><time>2026-04-21T14:34:23.661Z</time></trkpt><trkpt lat="44.3792083" lon="9.370325"><ele>77.0</ele><time>2026-04-21T14:34:24.662Z</time></trkpt><trkpt lat="44.3793433" lon="9.3705233"><ele>76.66666666666667</ele><time>2026-04-21T14:34:25.661Z</time></trkpt><trkpt lat="44.3794733" lon="9.3707267"><ele>76.33333333333333</ele><time>2026-04-21T14:34:26.661Z</time></trkpt><trkpt lat="44.3796" lon="9.3709217"><ele>76.0</ele><time>2026-04-21T14:34:27.661Z</time></trkpt><trkpt lat="44.3797083" lon="9.3711033"><ele>76.0</ele><time>2026-04-21T14:34:28.662Z</time></trkpt><trkpt lat="44.3798283" lon="9.3712817"><ele>76.0</ele><time>2026-04-21T14:34:29.662Z</time></trkpt><trkpt lat="44.379975" lon="9.3714683"><ele>76.0</ele><time>2026-04-21T14:34:30.661Z</time></trkpt><trkpt lat="44.380105" lon="9.3716433"><ele>73.0</ele><time>2026-04-21T14:34:31.661Z</time></trkpt><trkpt lat="44.3802467" lon="9.37182"><ele>70.0</ele><time>2026-04-21T14:34:32.662Z</time></trkpt><trkpt lat="44.3804017" lon="9.3720217"><ele>67.0</ele><time>2026-04-21T14:34:33.661Z</time></trkpt><trkpt lat="44.380525" lon="9.3721867"><ele>70.0</ele><time>2026-04-21T14:34:34.661Z</time></trkpt><trkpt lat="44.3806683" lon="9.3723767"><ele>73.0</ele><time>2026-04-21T14:34:35.662Z</time></trkpt><trkpt lat="44.3807917" lon="9.37253"><ele>76.0</ele><time>2026-04-21T14:34:36.661Z</time></trkpt><trkpt lat="44.38092" lon="9.3726833"><ele>76.0</ele><time>2026-04-21T14:34:37.661Z</time></trkpt><trkpt lat="44.3810217" lon="9.37285"><ele>76.0</ele><time>2026-04-21T14:34:38.662Z</time></trkpt><trkpt lat="44.3811267" lon="9.373015"><ele>76.0</ele><time>2026-04-21T14:34:39.661Z</time></trkpt><trkpt lat="44.3812233" lon="9.3731983"><ele>77.0</ele><time>2026-04-21T14:34:40.662Z</time></trkpt><trkpt lat="44.3813183" lon="9.373405"><ele>78.0</ele><time>2026-04-21T14:34:41.661Z</time></trkpt><trkpt lat="44.3813883" lon="9.37364"><ele>79.0</ele><time>2026-04-21T14:34:42.662Z</time></trkpt><trkpt lat="44.3814567" lon="9.3738717"><ele>79.0</ele><time>2026-04-21T14:34:43.662Z</time></trkpt><trkpt lat="44.3815433" lon="9.374105"><ele>79.0</ele><time>2026-04-21T14:34:44.661Z</time></trkpt><trkpt lat="44.38164" lon="9.3743383"><ele>79.0</ele><time>2026-04-21T14:34:45.662Z</time></trkpt><trkpt lat="44.3817317" lon="9.374565"><ele>84.0</ele><time>2026-04-21T14:34:46.661Z</time></trkpt><trkpt lat="44.38181" lon="9.374785"><ele>89.0</ele><time>2026-04-21T14:34:47.662Z</time></trkpt><trkpt lat="44.3818833" lon="9.37501"><ele>94.0</ele><time>2026-04-21T14:34:48.662Z</time></trkpt><trkpt lat="44.38194" lon="9.3752167"><ele>94.0</ele><time>2026-04-21T14:34:49.662Z</time></trkpt><trkpt lat="44.38198" lon="9.375405"><ele>94.0</ele><time>2026-04-21T14:34:50.661Z</time></trkpt><trkpt lat="44.3820667" lon="9.3755817"><ele>94.0</ele><time>2026-04-21T14:34:51.661Z</time></trkpt><trkpt lat="44.3821433" lon="9.3757283"><ele>94.0</ele><time>2026-04-21T14:34:52.661Z</time></trkpt><trkpt lat="44.3822483" lon="9.37584"><ele>87.33333333333333</ele><time>2026-04-21T14:34:53.662Z</time></trkpt><trkpt lat="44.3823767" lon="9.37599"><ele>80.66666666666667</ele><time>2026-04-21T14:34:54.661Z</time></trkpt><trkpt lat="44.3825033" lon="9.3761383"><ele>74.0</ele><time>2026-04-21T14:34:55.662Z</time></trkpt><trkpt lat="44.3826317" lon="9.3762917"><ele>76.0</ele><time>2026-04-21T14:34:56.661Z</time></trkpt><trkpt lat="44.3827883" lon="9.3764633"><ele>78.0</ele><time>2026-04-21T14:34:57.662Z</time></trkpt><trkpt lat="44.382925" lon="9.3766183"><ele>80.0</ele><time>2026-04-21T14:34:58.662Z</time></trkpt><trkpt lat="44.38306" lon="9.3767683"><ele>80.0</ele><time>2026-04-21T14:34:59.661Z</time></trkpt><trkpt lat="44.3831933" lon="9.376925"><ele>80.0</ele><time>2026-04-21T14:35:00.661Z</time></trkpt><trkpt lat="44.3833317" lon="9.377075"><ele>80.0</ele><time>2026-04-21T14:35:01.661Z</time></trkpt><trkpt lat="44.38347" lon="9.3772167"><ele>83.33333333333334</ele><time>2026-04-21T14:35:02.662Z</time></trkpt><trkpt lat="44.3836" lon="9.3773483"><ele>86.66666666666667</ele><time>2026-04-21T14:35:03.661Z</time></trkpt><trkpt lat="44.383725" lon="9.3774967"><ele>90.0</ele><time>2026-04-21T14:35:04.661Z</time></trkpt><trkpt lat="44.383845" lon="9.3776667"><ele>89.75</ele><time>2026-04-21T14:35:05.661Z</time></trkpt><trkpt lat="44.383955" lon="9.3778183"><ele>89.5</ele><time>2026-04-21T14:35:06.661Z</time></trkpt><trkpt lat="44.384055" lon="9.37796"><ele>89.25</ele><time>2026-04-21T14:35:07.661Z</time></trkpt><trkpt lat="44.3841683" lon="9.3780917"><ele>89.0</ele><time>2026-04-21T14:35:08.662Z</time></trkpt><trkpt lat="44.3842983" lon="9.3782083"><ele>89.0</ele><time>2026-04-21T14:35:09.661Z</time></trkpt><trkpt lat="44.38444" lon="9.3782917"><ele>89.0</ele><time>2026-04-21T14:35:10.661Z</time></trkpt><trkpt lat="44.38458" lon="9.3783517"><ele>89.0</ele><time>2026-04-21T14:35:11.661Z</time></trkpt><trkpt lat="44.384745" lon="9.3784067"><ele>86.66666666666667</ele><time>2026-04-21T14:35:12.662Z</time></trkpt><trkpt lat="44.3849167" lon="9.3784517"><ele>84.33333333333333</ele><time>2026-04-21T14:35:13.662Z</time></trkpt><trkpt lat="44.385075" lon="9.37851"><ele>82.0</ele><time>2026-04-21T14:35:14.661Z</time></trkpt><trkpt lat="44.3852383" lon="9.3785617"><ele>82.0</ele><time>2026-04-21T14:35:15.662Z</time></trkpt><trkpt lat="44.3854333" lon="9.37863"><ele>82.0</ele><time>2026-04-21T14:35:16.662Z</time></trkpt><trkpt lat="44.3856033" lon="9.3787133"><ele>82.0</ele><time>2026-04-21T14:35:17.661Z</time></trkpt><trkpt lat="44.385745" lon="9.3787767"><ele>81.25</ele><time>2026-04-21T14:35:18.661Z</time></trkpt><trkpt lat="44.385885" lon="9.3788417"><ele>80.5</ele><time>2026-04-21T14:35:19.661Z</time></trkpt><trkpt lat="44.386015" lon="9.3789233"><ele>79.75</ele><time>2026-04-21T14:35:20.661Z</time></trkpt><trkpt lat="44.3861533" lon="9.3790267"><ele>79.0</ele><time>2026-04-21T14:35:21.662Z</time></trkpt><trkpt lat="44.3862867" lon="9.3791283"><ele>80.0</ele><time>2026-04-21T14:35:22.662Z</time></trkpt><trkpt lat="44.3864133" lon="9.3792317"><ele>81.0</ele><time>2026-04-21T14:35:23.662Z</time></trkpt><trkpt lat="44.3865233" lon="9.3793267"><ele>82.0</ele><time>2026-04-21T14:35:24.662Z</time></trkpt><trkpt lat="44.38662" lon="9.37942"><ele>83.0</ele><time>2026-04-21T14:35:25.662Z</time></trkpt><trkpt lat="44.3867117" lon="9.3795433"><ele>84.5</ele><time>2026-04-21T14:35:26.662Z</time></trkpt><trkpt lat="44.3867983" lon="9.3796867"><ele>86.0</ele><time>2026-04-21T14:35:27.661Z</time></trkpt><trkpt lat="44.3868733" lon="9.3798433"><ele>87.5</ele><time>2026-04-21T14:35:28.661Z</time></trkpt><trkpt lat="44.38694" lon="9.3799933"><ele>89.0</ele><time>2026-04-21T14:35:29.661Z</time></trkpt><trkpt lat="44.3870067" lon="9.3801383"><ele>89.0</ele><time>2026-04-21T14:35:30.661Z</time></trkpt><trkpt lat="44.3870733" lon="9.3802733"><ele>89.0</ele><time>2026-04-21T14:35:31.661Z</time></trkpt><trkpt lat="44.3871667" lon="9.3803883"><ele>89.0</ele><time>2026-04-21T14:35:32.662Z</time></trkpt><trkpt lat="44.3872733" lon="9.380475"><ele>89.0</ele><time>2026-04-21T14:35:33.661Z</time></trkpt><trkpt lat="44.38741" lon="9.38055"><ele>90.66666666666667</ele><time>2026-04-21T14:35:34.661Z</time></trkpt><trkpt lat="44.387555" lon="9.380615"><ele>92.33333333333333</ele><time>2026-04-21T14:35:35.661Z</time></trkpt><trkpt lat="44.387705" lon="9.3806817"><ele>94.0</ele><time>2026-04-21T14:35:36.662Z</time></trkpt><trkpt lat="44.3878667" lon="9.380705"><ele>94.0</ele><time>2026-04-21T14:35:37.661Z</time></trkpt><trkpt lat="44.3880233" lon="9.3807217"><ele>94.0</ele><time>2026-04-21T14:35:38.661Z</time></trkpt><trkpt lat="44.38818" lon="9.3806933"><ele>94.0</ele><time>2026-04-21T14:35:39.661Z</time></trkpt><trkpt lat="44.38834" lon="9.380665"><ele>94.0</ele><time>2026-04-21T14:35:40.661Z</time></trkpt><trkpt lat="44.3884983" lon="9.3805983"><ele>94.0</ele><time>2026-04-21T14:35:41.662Z</time></trkpt><trkpt lat="44.3886483" lon="9.3804917"><ele>94.0</ele><time>2026-04-21T14:35:42.661Z</time></trkpt><trkpt lat="44.3888067" lon="9.3803783"><ele>94.0</ele><time>2026-04-21T14:35:43.661Z</time></trkpt><trkpt lat="44.38896" lon="9.3802583"><ele>94.0</ele><time>2026-04-21T14:35:44.661Z</time></trkpt><trkpt lat="44.3891117" lon="9.3801183"><ele>94.0</ele><time>2026-04-21T14:35:45.662Z</time></trkpt><trkpt lat="44.3892633" lon="9.3799867"><ele>94.0</ele><time>2026-04-21T14:35:46.661Z</time></trkpt><trkpt lat="44.3894133" lon="9.3798517"><ele>94.0</ele><time>2026-04-21T14:35:47.661Z</time></trkpt><trkpt lat="44.3895517" lon="9.3797"><ele>94.0</ele><time>2026-04-21T14:35:48.661Z</time></trkpt><trkpt lat="44.3896983" lon="9.3795667"><ele>94.66666666666666</ele><time>2026-04-21T14:35:49.661Z</time></trkpt><trkpt lat="44.3898417" lon="9.3794283"><ele>95.33333333333333</ele><time>2026-04-21T14:35:50.662Z</time></trkpt><trkpt lat="44.3899867" lon="9.3792767"><ele>96.0</ele><time>2026-04-21T14:35:51.661Z</time></trkpt><trkpt lat="44.3901217" lon="9.3791117"><ele>96.0</ele><time>2026-04-21T14:35:52.662Z</time></trkpt><trkpt lat="44.3902633" lon="9.3789533"><ele>96.0</ele><time>2026-04-21T14:35:53.661Z</time></trkpt><trkpt lat="44.3903917" lon="9.3787883"><ele>96.0</ele><time>2026-04-21T14:35:54.662Z</time></trkpt><trkpt lat="44.3905183" lon="9.3786533"><ele>96.75</ele><time>2026-04-21T14:35:55.662Z</time></trkpt><trkpt lat="44.39063" lon="9.3785167"><ele>97.5</ele><time>2026-04-21T14:35:56.662Z</time></trkpt><trkpt lat="44.3907367" lon="9.3783833"><ele>98.25</ele><time>2026-04-21T14:35:57.662Z</time></trkpt><trkpt lat="44.390845" lon="9.3782833"><ele>99.0</ele><time>2026-04-21T14:35:58.661Z</time></trkpt><trkpt lat="44.3909533" lon="9.3781867"><ele>99.0</ele><time>2026-04-21T14:35:59.662Z</time></trkpt><trkpt lat="44.3910483" lon="9.378095"><ele>99.0</ele><time>2026-04-21T14:36:00.661Z</time></trkpt><trkpt lat="44.3911483" lon="9.37804"><ele>99.0</ele><time>2026-04-21T14:36:01.662Z</time></trkpt><trkpt lat="44.3912517" lon="9.3780483"><ele>99.0</ele><time>2026-04-21T14:36:02.662Z</time></trkpt><trkpt lat="44.3913483" lon="9.3780917"><ele>99.0</ele><time>2026-04-21T14:36:03.661Z</time></trkpt><trkpt lat="44.391445" lon="9.378175"><ele>99.0</ele><time>2026-04-21T14:36:04.662Z</time></trkpt><trkpt lat="44.39152" lon="9.3782383"><ele>99.0</ele><time>2026-04-21T14:36:05.661Z</time></trkpt><trkpt lat="44.39159" lon="9.3782967"><ele>99.0</ele><time>2026-04-21T14:36:06.661Z</time></trkpt><trkpt lat="44.3916433" lon="9.3783517"><ele>99.0</ele><time>2026-04-21T14:36:07.661Z</time></trkpt><trkpt lat="44.3917133" lon="9.3784283"><ele>99.0</ele><time>2026-04-21T14:36:09.661Z</time></trkpt><trkpt lat="44.391765" lon="9.3784817"><ele>99.0</ele><time>2026-04-21T14:36:11.661Z</time></trkpt><trkpt lat="44.3918133" lon="9.3785417"><ele>99.0</ele><time>2026-04-21T14:36:13.661Z</time></trkpt><trkpt lat="44.39186" lon="9.3786533"><ele>99.0</ele><time>2026-04-21T14:36:15.662Z</time></trkpt><trkpt lat="44.391935" lon="9.3787683"><ele>99.0</ele><time>2026-04-21T14:36:17.661Z</time></trkpt><trkpt lat="44.392005" lon="9.37889"><ele>99.0</ele><time>2026-04-21T14:36:19.662Z</time></trkpt><trkpt lat="44.3921483" lon="9.3789383"><ele>99.6</ele><time>2026-04-21T14:36:21.662Z</time></trkpt><trkpt lat="44.392245" lon="9.3789633"><ele>100.2</ele><time>2026-04-21T14:36:22.662Z</time></trkpt><trkpt lat="44.39234" lon="9.3789667"><ele>100.8</ele><time>2026-04-21T14:36:23.661Z</time></trkpt><trkpt lat="44.392435" lon="9.37896"><ele>101.39999999999999</ele><time>2026-04-21T14:36:24.661Z</time></trkpt><trkpt lat="44.3925283" lon="9.378935"><ele>102.0</ele><time>2026-04-21T14:36:25.661Z</time></trkpt><trkpt lat="44.392615" lon="9.3789033"><ele>102.0</ele><time>2026-04-21T14:36:26.661Z</time></trkpt><trkpt lat="44.39271" lon="9.3788917"><ele>102.0</ele><time>2026-04-21T14:36:27.661Z</time></trkpt><trkpt lat="44.3928267" lon="9.378865"><ele>102.0</ele><time>2026-04-21T14:36:28.662Z</time></trkpt><trkpt lat="44.3929717" lon="9.3788583"><ele>102.0</ele><time>2026-04-21T14:36:29.662Z</time></trkpt><trkpt lat="44.3931217" lon="9.3788567"><ele>103.75</ele><time>2026-04-21T14:36:30.662Z</time></trkpt><trkpt lat="44.3932583" lon="9.378855"><ele>105.5</ele><time>2026-04-21T14:36:31.661Z</time></trkpt><trkpt lat="44.3933817" lon="9.37885"><ele>107.25</ele><time>2026-04-21T14:36:32.661Z</time></trkpt><trkpt lat="44.3934967" lon="9.37887"><ele>109.0</ele><time>2026-04-21T14:36:33.661Z</time></trkpt><trkpt lat="44.3936333" lon="9.3789367"><ele>109.0</ele><time>2026-04-21T14:36:34.661Z</time></trkpt><trkpt lat="44.39377" lon="9.3789467"><ele>109.0</ele><time>2026-04-21T14:36:35.661Z</time></trkpt><trkpt lat="44.3939017" lon="9.37896"><ele>109.0</ele><time>2026-04-21T14:36:36.661Z</time></trkpt><trkpt lat="44.3940367" lon="9.3789933"><ele>109.0</ele><time>2026-04-21T14:36:37.661Z</time></trkpt><trkpt lat="44.3941717" lon="9.3790383"><ele>110.66666666666667</ele><time>2026-04-21T14:36:38.661Z</time></trkpt><trkpt lat="44.394315" lon="9.3791017"><ele>112.33333333333334</ele><time>2026-04-21T14:36:39.662Z</time></trkpt><trkpt lat="44.3944617" lon="9.37918"><ele>114.0</ele><time>2026-04-21T14:36:40.662Z</time></trkpt><trkpt lat="44.3946133" lon="9.3792467"><ele>111.66666666666666</ele><time>2026-04-21T14:36:41.661Z</time></trkpt><trkpt lat="44.3947783" lon="9.3793067"><ele>109.33333333333333</ele><time>2026-04-21T14:36:42.662Z</time></trkpt><trkpt lat="44.39494" lon="9.3793417"><ele>107.0</ele><time>2026-04-21T14:36:43.661Z</time></trkpt><trkpt lat="44.3950983" lon="9.3793783"><ele>107.0</ele><time>2026-04-21T14:36:44.661Z</time></trkpt><trkpt lat="44.39525" lon="9.379415"><ele>107.0</ele><time>2026-04-21T14:36:45.661Z</time></trkpt><trkpt lat="44.3954083" lon="9.3794367"><ele>107.0</ele><time>2026-04-21T14:36:46.662Z</time></trkpt><trkpt lat="44.3955583" lon="9.3794667"><ele>106.0</ele><time>2026-04-21T14:36:47.662Z</time></trkpt><trkpt lat="44.3957" lon="9.3795033"><ele>105.0</ele><time>2026-04-21T14:36:48.662Z</time></trkpt><trkpt lat="44.3958383" lon="9.3795683"><ele>104.0</ele><time>2026-04-21T14:36:49.662Z</time></trkpt><trkpt lat="44.3959683" lon="9.37967"><ele>103.0</ele><time>2026-04-21T14:36:50.661Z</time></trkpt><trkpt lat="44.3960667" lon="9.3798083"><ele>106.75</ele><time>2026-04-21T14:36:51.661Z</time></trkpt><trkpt lat="44.39614" lon="9.3799733"><ele>110.5</ele><time>2026-04-21T14:36:52.661Z</time></trkpt><trkpt lat="44.3961917" lon="9.3801317"><ele>114.25</ele><time>2026-04-21T14:36:53.661Z</time></trkpt><trkpt lat="44.396255" lon="9.38025"><ele>118.0</ele><time>2026-04-21T14:36:54.661Z</time></trkpt><trkpt lat="44.39633" lon="9.3803217"><ele>114.5</ele><time>2026-04-21T14:36:55.662Z</time></trkpt><trkpt lat="44.3964267" lon="9.3803283"><ele>111.0</ele><time>2026-04-21T14:36:56.662Z</time></trkpt><trkpt lat="44.3965467" lon="9.3803017"><ele>107.5</ele><time>2026-04-21T14:36:57.662Z</time></trkpt><trkpt lat="44.39667" lon="9.3802017"><ele>104.0</ele><time>2026-04-21T14:36:58.661Z</time></trkpt><trkpt lat="44.3967883" lon="9.3800817"><ele>104.0</ele><time>2026-04-21T14:36:59.662Z</time></trkpt><trkpt lat="44.396915" lon="9.3799567"><ele>104.0</ele><time>2026-04-21T14:37:00.661Z</time></trkpt><trkpt lat="44.3970383" lon="9.3798483"><ele>104.0</ele><time>2026-04-21T14:37:01.662Z</time></trkpt><trkpt lat="44.3971533" lon="9.3797683"><ele>104.0</ele><time>2026-04-21T14:37:02.661Z</time></trkpt><trkpt lat="44.397265" lon="9.37973"><ele>105.0</ele><time>2026-04-21T14:37:03.662Z</time></trkpt><trkpt lat="44.3973817" lon="9.37973"><ele>106.0</ele><time>2026-04-21T14:37:04.662Z</time></trkpt><trkpt lat="44.39751" lon="9.37977"><ele>107.0</ele><time>2026-04-21T14:37:05.662Z</time></trkpt><trkpt lat="44.39764" lon="9.3798467"><ele>108.0</ele><time>2026-04-21T14:37:06.661Z</time></trkpt><trkpt lat="44.39775" lon="9.3799517"><ele>108.0</ele><time>2026-04-21T14:37:07.662Z</time></trkpt><trkpt lat="44.3978767" lon="9.3800733"><ele>108.0</ele><time>2026-04-21T14:37:08.661Z</time></trkpt><trkpt lat="44.3979983" lon="9.3802083"><ele>108.0</ele><time>2026-04-21T14:37:09.661Z</time></trkpt><trkpt lat="44.3981117" lon="9.3803333"><ele>108.25</ele><time>2026-04-21T14:37:10.662Z</time></trkpt><trkpt lat="44.3982283" lon="9.3804533"><ele>108.5</ele><time>2026-04-21T14:37:11.661Z</time></trkpt><trkpt lat="44.3983317" lon="9.38056"><ele>108.75</ele><time>2026-04-21T14:37:12.662Z</time></trkpt><trkpt lat="44.3984267" lon="9.3806467"><ele>109.0</ele><time>2026-04-21T14:37:13.661Z</time></trkpt><trkpt lat="44.3985217" lon="9.3807133"><ele>109.0</ele><time>2026-04-21T14:37:14.662Z</time></trkpt><trkpt lat="44.3986217" lon="9.3807667"><ele>109.0</ele><time>2026-04-21T14:37:15.662Z</time></trkpt><trkpt lat="44.3987283" lon="9.380815"><ele>109.0</ele><time>2026-04-21T14:37:16.661Z</time></trkpt><trkpt lat="44.3988467" lon="9.3808483"><ele>109.0</ele><time>2026-04-21T14:37:17.662Z</time></trkpt><trkpt lat="44.39897" lon="9.3809083"><ele>111.0</ele><time>2026-04-21T14:37:18.662Z</time></trkpt><trkpt lat="44.3990967" lon="9.3809783"><ele>113.0</ele><time>2026-04-21T14:37:19.661Z</time></trkpt><trkpt lat="44.39923" lon="9.3810567"><ele>115.0</ele><time>2026-04-21T14:37:20.661Z</time></trkpt><trkpt lat="44.3993683" lon="9.38112"><ele>117.0</ele><time>2026-04-21T14:37:21.662Z</time></trkpt><trkpt lat="44.39951" lon="9.3811767"><ele>116.0</ele><time>2026-04-21T14:37:22.662Z</time></trkpt><trkpt lat="44.3996683" lon="9.3812417"><ele>115.0</ele><time>2026-04-21T14:37:23.661Z</time></trkpt><trkpt lat="44.3998317" lon="9.38131"><ele>114.0</ele><time>2026-04-21T14:37:24.661Z</time></trkpt><trkpt lat="44.4000183" lon="9.3813833"><ele>114.0</ele><time>2026-04-21T14:37:25.661Z</time></trkpt><trkpt lat="44.4001917" lon="9.3814633"><ele>114.0</ele><time>2026-04-21T14:37:26.661Z</time></trkpt><trkpt lat="44.4003767" lon="9.3815383"><ele>114.0</ele><time>2026-04-21T14:37:27.661Z</time></trkpt><trkpt lat="44.4005617" lon="9.3816133"><ele>117.66666666666666</ele><time>2026-04-21T14:37:28.661Z</time></trkpt><trkpt lat="44.4007267" lon="9.3816733"><ele>121.33333333333333</ele><time>2026-04-21T14:37:29.661Z</time></trkpt><trkpt lat="44.400885" lon="9.3817233"><ele>125.0</ele><time>2026-04-21T14:37:30.662Z</time></trkpt><trkpt lat="44.40105" lon="9.381735"><ele>125.0</ele><time>2026-04-21T14:37:31.661Z</time></trkpt><trkpt lat="44.4012233" lon="9.3817117"><ele>125.0</ele><time>2026-04-21T14:37:32.662Z</time></trkpt><trkpt lat="44.4013767" lon="9.3816817"><ele>125.0</ele><time>2026-04-21T14:37:33.662Z</time></trkpt><trkpt lat="44.4015333" lon="9.38169"><ele>127.33333333333333</ele><time>2026-04-21T14:37:34.662Z</time></trkpt><trkpt lat="44.4016783" lon="9.3817383"><ele>129.66666666666666</ele><time>2026-04-21T14:37:35.661Z</time></trkpt><trkpt lat="44.40183" lon="9.3817983"><ele>132.0</ele><time>2026-04-21T14:37:36.662Z</time></trkpt><trkpt lat="44.401975" lon="9.3818333"><ele>132.0</ele><time>2026-04-21T14:37:37.661Z</time></trkpt><trkpt lat="44.40212" lon="9.3818617"><ele>132.0</ele><time>2026-04-21T14:37:38.661Z</time></trkpt><trkpt lat="44.40226" lon="9.3819033"><ele>132.0</ele><time>2026-04-21T14:37:39.662Z</time></trkpt><trkpt lat="44.4023983" lon="9.381955"><ele>132.0</ele><time>2026-04-21T14:37:40.662Z</time></trkpt><trkpt lat="44.4025467" lon="9.38203"><ele>129.66666666666666</ele><time>2026-04-21T14:37:41.661Z</time></trkpt><trkpt lat="44.402675" lon="9.382155"><ele>127.33333333333333</ele><time>2026-04-21T14:37:42.661Z</time></trkpt><trkpt lat="44.40281" lon="9.38232"><ele>125.0</ele><time>2026-04-21T14:37:43.661Z</time></trkpt><trkpt lat="44.4029417" lon="9.3824867"><ele>125.66666666666666</ele><time>2026-04-21T14:37:44.662Z</time></trkpt><trkpt lat="44.40308" lon="9.38266"><ele>126.33333333333334</ele><time>2026-04-21T14:37:45.661Z</time></trkpt><trkpt lat="44.403205" lon="9.382855"><ele>127.0</ele><time>2026-04-21T14:37:46.661Z</time></trkpt><trkpt lat="44.4033367" lon="9.3830283"><ele>127.0</ele><time>2026-04-21T14:37:47.662Z</time></trkpt><trkpt lat="44.4034517" lon="9.38322"><ele>127.0</ele><time>2026-04-21T14:37:48.661Z</time></trkpt><trkpt lat="44.4035467" lon="9.3834283"><ele>127.0</ele><time>2026-04-21T14:37:49.662Z</time></trkpt><trkpt lat="44.4036233" lon="9.38365"><ele>123.0</ele><time>2026-04-21T14:37:50.662Z</time></trkpt><trkpt lat="44.4036833" lon="9.383855"><ele>119.0</ele><time>2026-04-21T14:37:51.661Z</time></trkpt><trkpt lat="44.40375" lon="9.384045"><ele>115.0</ele><time>2026-04-21T14:37:52.661Z</time></trkpt><trkpt lat="44.4038367" lon="9.3842083"><ele>117.33333333333334</ele><time>2026-04-21T14:37:53.661Z</time></trkpt><trkpt lat="44.40395" lon="9.3843733"><ele>119.66666666666666</ele><time>2026-04-21T14:37:54.661Z</time></trkpt><trkpt lat="44.4040983" lon="9.3845267"><ele>122.0</ele><time>2026-04-21T14:37:55.661Z</time></trkpt><trkpt lat="44.40424" lon="9.3846883"><ele>122.0</ele><time>2026-04-21T14:37:56.662Z</time></trkpt><trkpt lat="44.40437" lon="9.384835"><ele>122.0</ele><time>2026-04-21T14:37:57.661Z</time></trkpt><trkpt lat="44.4045" lon="9.3849567"><ele>122.0</ele><time>2026-04-21T14:37:58.662Z</time></trkpt><trkpt lat="44.40465" lon="9.3850667"><ele>128.0</ele><time>2026-04-21T14:37:59.662Z</time></trkpt><trkpt lat="44.4048117" lon="9.38515"><ele>134.0</ele><time>2026-04-21T14:38:00.662Z</time></trkpt><trkpt lat="44.4049867" lon="9.385235"><ele>140.0</ele><time>2026-04-21T14:38:01.662Z</time></trkpt><trkpt lat="44.4051667" lon="9.3853217"><ele>140.0</ele><time>2026-04-21T14:38:02.662Z</time></trkpt><trkpt lat="44.4053333" lon="9.385405"><ele>140.0</ele><time>2026-04-21T14:38:03.661Z</time></trkpt><trkpt lat="44.4054917" lon="9.3854867"><ele>140.0</ele><time>2026-04-21T14:38:04.661Z</time></trkpt><trkpt lat="44.405635" lon="9.38555"><ele>135.25</ele><time>2026-04-21T14:38:05.662Z</time></trkpt><trkpt lat="44.4057583" lon="9.38565"><ele>130.5</ele><time>2026-04-21T14:38:06.662Z</time></trkpt><trkpt lat="44.4058717" lon="9.38577"><ele>125.75</ele><time>2026-04-21T14:38:07.662Z</time></trkpt><trkpt lat="44.405965" lon="9.3859167"><ele>121.0</ele><time>2026-04-21T14:38:08.661Z</time></trkpt><trkpt lat="44.4060383" lon="9.3861017"><ele>121.0</ele><time>2026-04-21T14:38:09.661Z</time></trkpt><trkpt lat="44.4061117" lon="9.3862717"><ele>121.0</ele><time>2026-04-21T14:38:10.662Z</time></trkpt><trkpt lat="44.4062033" lon="9.3864367"><ele>121.0</ele><time>2026-04-21T14:38:11.661Z</time></trkpt><trkpt lat="44.4063" lon="9.3865717"><ele>121.0</ele><time>2026-04-21T14:38:12.662Z</time></trkpt><trkpt lat="44.4064233" lon="9.38666"><ele>122.5</ele><time>2026-04-21T14:38:13.662Z</time></trkpt><trkpt lat="44.40656" lon="9.3867067"><ele>124.0</ele><time>2026-04-21T14:38:14.661Z</time></trkpt><trkpt lat="44.4067" lon="9.386725"><ele>125.5</ele><time>2026-04-21T14:38:15.662Z</time></trkpt><trkpt lat="44.4068667" lon="9.3867517"><ele>127.0</ele><time>2026-04-21T14:38:16.662Z</time></trkpt><trkpt lat="44.407035" lon="9.3867883"><ele>127.66666666666667</ele><time>2026-04-21T14:38:17.662Z</time></trkpt><trkpt lat="44.40719" lon="9.3868283"><ele>128.33333333333334</ele><time>2026-04-21T14:38:18.662Z</time></trkpt><trkpt lat="44.40733" lon="9.3868967"><ele>129.0</ele><time>2026-04-21T14:38:19.661Z</time></trkpt><trkpt lat="44.4074717" lon="9.387005"><ele>129.0</ele><time>2026-04-21T14:38:20.662Z</time></trkpt><trkpt lat="44.40762" lon="9.3871317"><ele>129.0</ele><time>2026-04-21T14:38:21.662Z</time></trkpt><trkpt lat="44.4077667" lon="9.3872633"><ele>129.0</ele><time>2026-04-21T14:38:22.661Z</time></trkpt><trkpt lat="44.4079167" lon="9.387395"><ele>132.66666666666666</ele><time>2026-04-21T14:38:23.662Z</time></trkpt><trkpt lat="44.4080683" lon="9.38752"><ele>136.33333333333331</ele><time>2026-04-21T14:38:24.662Z</time></trkpt><trkpt lat="44.408215" lon="9.38764"><ele>140.0</ele><time>2026-04-21T14:38:25.661Z</time></trkpt><trkpt lat="44.4083567" lon="9.387755"><ele>140.0</ele><time>2026-04-21T14:38:26.662Z</time></trkpt><trkpt lat="44.40849" lon="9.387875"><ele>140.0</ele><time>2026-04-21T14:38:27.661Z</time></trkpt><trkpt lat="44.4086183" lon="9.3879767"><ele>140.0</ele><time>2026-04-21T14:38:28.661Z</time></trkpt><trkpt lat="44.4087467" lon="9.3880567"><ele>140.0</ele><time>2026-04-21T14:38:29.661Z</time></trkpt><trkpt lat="44.4089033" lon="9.3881017"><ele>137.33333333333331</ele><time>2026-04-21T14:38:30.662Z</time></trkpt><trkpt lat="44.409065" lon="9.3881183"><ele>134.66666666666666</ele><time>2026-04-21T14:38:31.661Z</time></trkpt><trkpt lat="44.4092367" lon="9.3881267"><ele>132.0</ele><time>2026-04-21T14:38:32.661Z</time></trkpt><trkpt lat="44.4094067" lon="9.388125"><ele>132.0</ele><time>2026-04-21T14:38:33.661Z</time></trkpt><trkpt lat="44.40956" lon="9.38811"><ele>132.0</ele><time>2026-04-21T14:38:34.662Z</time></trkpt><trkpt lat="44.40972" lon="9.3881117"><ele>132.0</ele><time>2026-04-21T14:38:35.661Z</time></trkpt><trkpt lat="44.409885" lon="9.38811"><ele>136.0</ele><time>2026-04-21T14:38:36.661Z</time></trkpt><trkpt lat="44.4100517" lon="9.388155"><ele>140.0</ele><time>2026-04-21T14:38:37.661Z</time></trkpt><trkpt lat="44.4102133" lon="9.388215"><ele>144.0</ele><time>2026-04-21T14:38:38.661Z</time></trkpt><trkpt lat="44.4103817" lon="9.3882883"><ele>146.0</ele><time>2026-04-21T14:38:39.661Z</time></trkpt><trkpt lat="44.4105683" lon="9.3883683"><ele>148.0</ele><time>2026-04-21T14:38:40.662Z</time></trkpt><trkpt lat="44.410755" lon="9.3883983"><ele>150.0</ele><time>2026-04-21T14:38:41.661Z</time></trkpt><trkpt lat="44.4109633" lon="9.3884517"><ele>150.0</ele><time>2026-04-21T14:38:42.662Z</time></trkpt><trkpt lat="44.4111483" lon="9.3884767"><ele>150.0</ele><time>2026-04-21T14:38:43.662Z</time></trkpt><trkpt lat="44.411325" lon="9.388495"><ele>150.0</ele><time>2026-04-21T14:38:44.661Z</time></trkpt><trkpt lat="44.4114867" lon="9.38849"><ele>150.0</ele><time>2026-04-21T14:38:45.661Z</time></trkpt><trkpt lat="44.41164" lon="9.388445"><ele>150.0</ele><time>2026-04-21T14:38:46.661Z</time></trkpt><trkpt lat="44.41179" lon="9.38836"><ele>150.0</ele><time>2026-04-21T14:38:47.662Z</time></trkpt><trkpt lat="44.41194" lon="9.3882267"><ele>150.0</ele><time>2026-04-21T14:38:48.662Z</time></trkpt><trkpt lat="44.4120867" lon="9.38808"><ele>150.0</ele><time>2026-04-21T14:38:49.661Z</time></trkpt><trkpt lat="44.4122383" lon="9.38793"><ele>150.0</ele><time>2026-04-21T14:38:50.662Z</time></trkpt><trkpt lat="44.4123733" lon="9.3877783"><ele>157.0</ele><time>2026-04-21T14:38:51.662Z</time></trkpt><trkpt lat="44.4124867" lon="9.38765"><ele>164.0</ele><time>2026-04-21T14:38:52.661Z</time></trkpt><trkpt lat="44.4125867" lon="9.387565"><ele>171.0</ele><time>2026-04-21T14:38:53.662Z</time></trkpt><trkpt lat="44.4126917" lon="9.3875033"><ele>178.0</ele><time>2026-04-21T14:38:54.662Z</time></trkpt><trkpt lat="44.4127883" lon="9.38747"><ele>178.0</ele><time>2026-04-21T14:38:55.661Z</time></trkpt><trkpt lat="44.4128933" lon="9.38752"><ele>178.0</ele><time>2026-04-21T14:38:56.662Z</time></trkpt><trkpt lat="44.4130183" lon="9.3876183"><ele>178.0</ele><time>2026-04-21T14:38:57.661Z</time></trkpt><trkpt lat="44.4131633" lon="9.3877383"><ele>178.0</ele><time>2026-04-21T14:38:58.662Z</time></trkpt><trkpt lat="44.41329" lon="9.3879"><ele>165.66666666666669</ele><time>2026-04-21T14:38:59.662Z</time></trkpt><trkpt lat="44.413425" lon="9.38808"><ele>153.33333333333334</ele><time>2026-04-21T14:39:00.662Z</time></trkpt><trkpt lat="44.413565" lon="9.3882783"><ele>141.0</ele><time>2026-04-21T14:39:01.661Z</time></trkpt><trkpt lat="44.4137183" lon="9.3884433"><ele>142.0</ele><time>2026-04-21T14:39:02.661Z</time></trkpt><trkpt lat="44.4138683" lon="9.3886067"><ele>143.0</ele><time>2026-04-21T14:39:03.662Z</time></trkpt><trkpt lat="44.4140083" lon="9.38877"><ele>144.0</ele><time>2026-04-21T14:39:04.661Z</time></trkpt><trkpt lat="44.4141317" lon="9.3889183"><ele>144.0</ele><time>2026-04-21T14:39:05.661Z</time></trkpt><trkpt lat="44.414245" lon="9.3890367"><ele>144.0</ele><time>2026-04-21T14:39:06.662Z</time></trkpt><trkpt lat="44.4143533" lon="9.3891267"><ele>144.0</ele><time>2026-04-21T14:39:07.661Z</time></trkpt><trkpt lat="44.4144733" lon="9.3891767"><ele>144.0</ele><time>2026-04-21T14:39:08.661Z</time></trkpt><trkpt lat="44.4146167" lon="9.38921"><ele>144.0</ele><time>2026-04-21T14:39:09.661Z</time></trkpt><trkpt lat="44.4147767" lon="9.3892383"><ele>144.0</ele><time>2026-04-21T14:39:10.662Z</time></trkpt><trkpt lat="44.4149517" lon="9.389265"><ele>144.0</ele><time>2026-04-21T14:39:11.661Z</time></trkpt><trkpt lat="44.4151233" lon="9.3892883"><ele>144.0</ele><time>2026-04-21T14:39:12.662Z</time></trkpt><trkpt lat="44.4152967" lon="9.3893183"><ele>144.0</ele><time>2026-04-21T14:39:13.662Z</time></trkpt><trkpt lat="44.4154583" lon="9.38935"><ele>144.0</ele><time>2026-04-21T14:39:14.662Z</time></trkpt><trkpt lat="44.415625" lon="9.3893867"><ele>144.66666666666666</ele><time>2026-04-21T14:39:15.662Z</time></trkpt><trkpt lat="44.4157783" lon="9.3894133"><ele>145.33333333333331</ele><time>2026-04-21T14:39:16.662Z</time></trkpt><trkpt lat="44.4159283" lon="9.389445"><ele>146.0</ele><time>2026-04-21T14:39:17.661Z</time></trkpt><trkpt lat="44.416075" lon="9.3895017"><ele>146.0</ele><time>2026-04-21T14:39:18.661Z</time></trkpt><trkpt lat="44.4162067" lon="9.3895733"><ele>146.0</ele><time>2026-04-21T14:39:19.661Z</time></trkpt><trkpt lat="44.41634" lon="9.38967"><ele>146.0</ele><time>2026-04-21T14:39:20.661Z</time></trkpt><trkpt lat="44.4164767" lon="9.3897833"><ele>149.33333333333331</ele><time>2026-04-21T14:39:21.662Z</time></trkpt><trkpt lat="44.41661" lon="9.3899033"><ele>152.66666666666666</ele><time>2026-04-21T14:39:22.661Z</time></trkpt><trkpt lat="44.416735" lon="9.3900267"><ele>156.0</ele><time>2026-04-21T14:39:23.662Z</time></trkpt><trkpt lat="44.41686" lon="9.39013"><ele>156.0</ele><time>2026-04-21T14:39:24.661Z</time></trkpt><trkpt lat="44.4169967" lon="9.39023"><ele>156.0</ele><time>2026-04-21T14:39:25.661Z</time></trkpt><trkpt lat="44.417135" lon="9.3903033"><ele>156.0</ele><time>2026-04-21T14:39:26.662Z</time></trkpt><trkpt lat="44.4172683" lon="9.3903267"><ele>156.0</ele><time>2026-04-21T14:39:27.661Z</time></trkpt><trkpt lat="44.4174167" lon="9.3903183"><ele>153.33333333333334</ele><time>2026-04-21T14:39:28.661Z</time></trkpt><trkpt lat="44.4175733" lon="9.39028"><ele>150.66666666666669</ele><time>2026-04-21T14:39:29.661Z</time></trkpt><trkpt lat="44.4177383" lon="9.39025"><ele>148.0</ele><time>2026-04-21T14:39:30.662Z</time></trkpt><trkpt lat="44.4178933" lon="9.3902267"><ele>150.0</ele><time>2026-04-21T14:39:31.662Z</time></trkpt><trkpt lat="44.4180783" lon="9.390195"><ele>152.0</ele><time>2026-04-21T14:39:32.661Z</time></trkpt><trkpt lat="44.418255" lon="9.39016"><ele>154.0</ele><time>2026-04-21T14:39:33.661Z</time></trkpt><trkpt lat="44.4184233" lon="9.3901333"><ele>154.0</ele><time>2026-04-21T14:39:34.662Z</time></trkpt><trkpt lat="44.4185833" lon="9.3900983"><ele>154.0</ele><time>2026-04-21T14:39:35.661Z</time></trkpt><trkpt lat="44.41873" lon="9.390055"><ele>154.0</ele><time>2026-04-21T14:39:36.661Z</time></trkpt><trkpt lat="44.418885" lon="9.3900117"><ele>155.75</ele><time>2026-04-21T14:39:37.661Z</time></trkpt><trkpt lat="44.4190433" lon="9.38996"><ele>157.5</ele><time>2026-04-21T14:39:38.661Z</time></trkpt><trkpt lat="44.4191817" lon="9.3899217"><ele>159.25</ele><time>2026-04-21T14:39:39.661Z</time></trkpt><trkpt lat="44.4192983" lon="9.3898933"><ele>161.0</ele><time>2026-04-21T14:39:40.661Z</time></trkpt><trkpt lat="44.4193933" lon="9.389865"><ele>161.0</ele><time>2026-04-21T14:39:41.661Z</time></trkpt><trkpt lat="44.419505" lon="9.389845"><ele>161.0</ele><time>2026-04-21T14:39:42.661Z</time></trkpt><trkpt lat="44.41961" lon="9.3898267"><ele>161.0</ele><time>2026-04-21T14:39:43.662Z</time></trkpt><trkpt lat="44.4197083" lon="9.3898233"><ele>161.0</ele><time>2026-04-21T14:39:44.661Z</time></trkpt><trkpt lat="44.419815" lon="9.3898133"><ele>161.0</ele><time>2026-04-21T14:39:45.661Z</time></trkpt><trkpt lat="44.4199183" lon="9.3898"><ele>161.83333333333331</ele><time>2026-04-21T14:39:46.661Z</time></trkpt><trkpt lat="44.4200083" lon="9.38977"><ele>162.66666666666666</ele><time>2026-04-21T14:39:47.661Z</time></trkpt><trkpt lat="44.4200967" lon="9.38975"><ele>163.5</ele><time>2026-04-21T14:39:48.661Z</time></trkpt><trkpt lat="44.4201767" lon="9.389715"><ele>164.33333333333334</ele><time>2026-04-21T14:39:49.661Z</time></trkpt><trkpt lat="44.4202417" lon="9.3896617"><ele>165.16666666666669</ele><time>2026-04-21T14:39:50.661Z</time></trkpt><trkpt lat="44.42027" lon="9.3895417"><ele>166.0</ele><time>2026-04-21T14:39:51.661Z</time></trkpt><trkpt lat="44.4202667" lon="9.3893917"><ele>164.5</ele><time>2026-04-21T14:39:52.662Z</time></trkpt><trkpt lat="44.4202483" lon="9.3892133"><ele>163.0</ele><time>2026-04-21T14:39:53.661Z</time></trkpt><trkpt lat="44.4202383" lon="9.389035"><ele>161.5</ele><time>2026-04-21T14:39:54.662Z</time></trkpt><trkpt lat="44.4202517" lon="9.3888717"><ele>160.0</ele><time>2026-04-21T14:39:55.661Z</time></trkpt><trkpt lat="44.4202717" lon="9.3887083"><ele>160.0</ele><time>2026-04-21T14:39:56.662Z</time></trkpt><trkpt lat="44.4203117" lon="9.3885517"><ele>160.0</ele><time>2026-04-21T14:39:57.661Z</time></trkpt><trkpt lat="44.4203683" lon="9.388395"><ele>160.0</ele><time>2026-04-21T14:39:58.662Z</time></trkpt><trkpt lat="44.4204333" lon="9.3882417"><ele>160.0</ele><time>2026-04-21T14:39:59.661Z</time></trkpt><trkpt lat="44.42051" lon="9.3880617"><ele>160.25</ele><time>2026-04-21T14:40:00.662Z</time></trkpt><trkpt lat="44.4205867" lon="9.3878983"><ele>160.5</ele><time>2026-04-21T14:40:01.661Z</time></trkpt><trkpt lat="44.420665" lon="9.387755"><ele>160.75</ele><time>2026-04-21T14:40:02.661Z</time></trkpt><trkpt lat="44.42072" lon="9.3876333"><ele>161.0</ele><time>2026-04-21T14:40:03.662Z</time></trkpt><trkpt lat="44.4207933" lon="9.3875467"><ele>161.0</ele><time>2026-04-21T14:40:04.661Z</time></trkpt><trkpt lat="44.4208483" lon="9.3874733"><ele>161.0</ele><time>2026-04-21T14:40:05.662Z</time></trkpt><trkpt lat="44.4209167" lon="9.387415"><ele>161.0</ele><time>2026-04-21T14:40:06.661Z</time></trkpt><trkpt lat="44.420995" lon="9.387355"><ele>161.0</ele><time>2026-04-21T14:40:07.661Z</time></trkpt><trkpt lat="44.4211017" lon="9.3873233"><ele>161.0</ele><time>2026-04-21T14:40:08.662Z</time></trkpt><trkpt lat="44.4212283" lon="9.387325"><ele>162.0</ele><time>2026-04-21T14:40:09.662Z</time></trkpt><trkpt lat="44.4213417" lon="9.3873217"><ele>163.0</ele><time>2026-04-21T14:40:10.661Z</time></trkpt><trkpt lat="44.42145" lon="9.3873083"><ele>164.0</ele><time>2026-04-21T14:40:11.661Z</time></trkpt><trkpt lat="44.42157" lon="9.387285"><ele>165.0</ele><time>2026-04-21T14:40:12.661Z</time></trkpt><trkpt lat="44.4216817" lon="9.38727"><ele>165.0</ele><time>2026-04-21T14:40:13.661Z</time></trkpt><trkpt lat="44.4218017" lon="9.3872433"><ele>165.0</ele><time>2026-04-21T14:40:14.661Z</time></trkpt><trkpt lat="44.4219133" lon="9.38722"><ele>165.0</ele><time>2026-04-21T14:40:15.662Z</time></trkpt><trkpt lat="44.4220167" lon="9.387165"><ele>165.0</ele><time>2026-04-21T14:40:16.662Z</time></trkpt><trkpt lat="44.422105" lon="9.387105"><ele>165.0</ele><time>2026-04-21T14:40:17.661Z</time></trkpt><trkpt lat="44.4221917" lon="9.38705"><ele>165.6</ele><time>2026-04-21T14:40:18.662Z</time></trkpt><trkpt lat="44.4222917" lon="9.3870217"><ele>166.2</ele><time>2026-04-21T14:40:19.662Z</time></trkpt><trkpt lat="44.4224033" lon="9.38697"><ele>166.8</ele><time>2026-04-21T14:40:20.662Z</time></trkpt><trkpt lat="44.4225067" lon="9.3869183"><ele>167.4</ele><time>2026-04-21T14:40:21.661Z</time></trkpt><trkpt lat="44.4225917" lon="9.3868483"><ele>168.0</ele><time>2026-04-21T14:40:22.661Z</time></trkpt><trkpt lat="44.4226883" lon="9.3867917"><ele>168.0</ele><time>2026-04-21T14:40:23.662Z</time></trkpt><trkpt lat="44.422785" lon="9.386715"><ele>168.0</ele><time>2026-04-21T14:40:24.662Z</time></trkpt><trkpt lat="44.4228633" lon="9.3866117"><ele>168.0</ele><time>2026-04-21T14:40:25.662Z</time></trkpt><trkpt lat="44.4229483" lon="9.3865067"><ele>168.0</ele><time>2026-04-21T14:40:26.661Z</time></trkpt><trkpt lat="44.4230267" lon="9.3863817"><ele>169.5</ele><time>2026-04-21T14:40:27.662Z</time></trkpt><trkpt lat="44.4231083" lon="9.386265"><ele>171.0</ele><time>2026-04-21T14:40:28.661Z</time></trkpt><trkpt lat="44.423185" lon="9.386165"><ele>172.5</ele><time>2026-04-21T14:40:29.661Z</time></trkpt><trkpt lat="44.4232583" lon="9.3860383"><ele>174.0</ele><time>2026-04-21T14:40:30.662Z</time></trkpt><trkpt lat="44.42333" lon="9.3859167"><ele>174.0</ele><time>2026-04-21T14:40:31.661Z</time></trkpt><trkpt lat="44.42341" lon="9.3857917"><ele>174.0</ele><time>2026-04-21T14:40:32.662Z</time></trkpt><trkpt lat="44.423485" lon="9.3856717"><ele>174.0</ele><time>2026-04-21T14:40:33.661Z</time></trkpt><trkpt lat="44.42356" lon="9.38555"><ele>174.0</ele><time>2026-04-21T14:40:34.661Z</time></trkpt><trkpt lat="44.4236383" lon="9.3854233"><ele>173.5</ele><time>2026-04-21T14:40:35.661Z</time></trkpt><trkpt lat="44.4237383" lon="9.385295"><ele>173.0</ele><time>2026-04-21T14:40:36.661Z</time></trkpt><trkpt lat="44.4238483" lon="9.3851617"><ele>172.5</ele><time>2026-04-21T14:40:37.661Z</time></trkpt><trkpt lat="44.4239683" lon="9.3850483"><ele>172.0</ele><time>2026-04-21T14:40:38.661Z</time></trkpt><trkpt lat="44.4240817" lon="9.3849167"><ele>172.0</ele><time>2026-04-21T14:40:39.662Z</time></trkpt><trkpt lat="44.4241967" lon="9.3848033"><ele>172.0</ele><time>2026-04-21T14:40:40.662Z</time></trkpt><trkpt lat="44.4243133" lon="9.3846833"><ele>172.0</ele><time>2026-04-21T14:40:41.661Z</time></trkpt><trkpt lat="44.4244333" lon="9.3845883"><ele>172.0</ele><time>2026-04-21T14:40:42.661Z</time></trkpt><trkpt lat="44.4245667" lon="9.3844933"><ele>179.0</ele><time>2026-04-21T14:40:43.662Z</time></trkpt><trkpt lat="44.4247017" lon="9.3844083"><ele>186.0</ele><time>2026-04-21T14:40:44.661Z</time></trkpt><trkpt lat="44.4248367" lon="9.3843083"><ele>193.0</ele><time>2026-04-21T14:40:45.662Z</time></trkpt><trkpt lat="44.42497" lon="9.38419"><ele>193.0</ele><time>2026-04-21T14:40:46.662Z</time></trkpt><trkpt lat="44.4250933" lon="9.3840767"><ele>193.0</ele><time>2026-04-21T14:40:47.661Z</time></trkpt><trkpt lat="44.4252017" lon="9.3839683"><ele>193.0</ele><time>2026-04-21T14:40:48.661Z</time></trkpt><trkpt lat="44.4253" lon="9.38385"><ele>193.0</ele><time>2026-04-21T14:40:49.661Z</time></trkpt><trkpt lat="44.425395" lon="9.383725"><ele>188.75</ele><time>2026-04-21T14:40:50.661Z</time></trkpt><trkpt lat="44.4254783" lon="9.3835917"><ele>184.5</ele><time>2026-04-21T14:40:51.662Z</time></trkpt><trkpt lat="44.425545" lon="9.3834383"><ele>180.25</ele><time>2026-04-21T14:40:52.662Z</time></trkpt><trkpt lat="44.4256133" lon="9.38326"><ele>176.0</ele><time>2026-04-21T14:40:53.661Z</time></trkpt><trkpt lat="44.4256867" lon="9.38307"><ele>182.0</ele><time>2026-04-21T14:40:54.661Z</time></trkpt><trkpt lat="44.425765" lon="9.382875"><ele>188.0</ele><time>2026-04-21T14:40:55.661Z</time></trkpt><trkpt lat="44.4258283" lon="9.3826967"><ele>194.0</ele><time>2026-04-21T14:40:56.661Z</time></trkpt><trkpt lat="44.425895" lon="9.3825267"><ele>200.0</ele><time>2026-04-21T14:40:57.662Z</time></trkpt><trkpt lat="44.4259633" lon="9.3823767"><ele>200.0</ele><time>2026-04-21T14:40:58.661Z</time></trkpt><trkpt lat="44.42605" lon="9.3822533"><ele>200.0</ele><time>2026-04-21T14:40:59.662Z</time></trkpt><trkpt lat="44.426155" lon="9.3821333"><ele>200.0</ele><time>2026-04-21T14:41:00.661Z</time></trkpt><trkpt lat="44.4262717" lon="9.3820217"><ele>200.0</ele><time>2026-04-21T14:41:01.662Z</time></trkpt><trkpt lat="44.4263817" lon="9.38189"><ele>206.33333333333334</ele><time>2026-04-21T14:41:02.662Z</time></trkpt><trkpt lat="44.4264833" lon="9.3817467"><ele>212.66666666666669</ele><time>2026-04-21T14:41:03.661Z</time></trkpt><trkpt lat="44.4265967" lon="9.3815867"><ele>219.0</ele><time>2026-04-21T14:41:04.661Z</time></trkpt><trkpt lat="44.4267133" lon="9.381435"><ele>213.0</ele><time>2026-04-21T14:41:05.661Z</time></trkpt><trkpt lat="44.4268467" lon="9.381275"><ele>207.0</ele><time>2026-04-21T14:41:06.661Z</time></trkpt><trkpt lat="44.4269783" lon="9.3811083"><ele>201.0</ele><time>2026-04-21T14:41:07.661Z</time></trkpt><trkpt lat="44.4271083" lon="9.3809383"><ele>207.33333333333331</ele><time>2026-04-21T14:41:08.662Z</time></trkpt><trkpt lat="44.4272333" lon="9.3807583"><ele>213.66666666666666</ele><time>2026-04-21T14:41:09.662Z</time></trkpt><trkpt lat="44.4273383" lon="9.3805683"><ele>220.0</ele><time>2026-04-21T14:41:10.662Z</time></trkpt><trkpt lat="44.42744" lon="9.380365"><ele>220.0</ele><time>2026-04-21T14:41:11.661Z</time></trkpt><trkpt lat="44.4275333" lon="9.3801383"><ele>220.0</ele><time>2026-04-21T14:41:12.662Z</time></trkpt><trkpt lat="44.427625" lon="9.3799183"><ele>220.0</ele><time>2026-04-21T14:41:13.661Z</time></trkpt><trkpt lat="44.4277033" lon="9.3797083"><ele>216.33333333333331</ele><time>2026-04-21T14:41:14.662Z</time></trkpt><trkpt lat="44.4277717" lon="9.3795033"><ele>212.66666666666669</ele><time>2026-04-21T14:41:15.662Z</time></trkpt><trkpt lat="44.427845" lon="9.3793133"><ele>209.0</ele><time>2026-04-21T14:41:16.661Z</time></trkpt><trkpt lat="44.427915" lon="9.37915"><ele>215.5</ele><time>2026-04-21T14:41:17.661Z</time></trkpt><trkpt lat="44.4279983" lon="9.3790133"><ele>222.0</ele><time>2026-04-21T14:41:18.662Z</time></trkpt><trkpt lat="44.4280883" lon="9.3788883"><ele>228.5</ele><time>2026-04-21T14:41:19.662Z</time></trkpt><trkpt lat="44.428165" lon="9.3787733"><ele>235.0</ele><time>2026-04-21T14:41:20.662Z</time></trkpt><trkpt lat="44.4282167" lon="9.378655"><ele>235.0</ele><time>2026-04-21T14:41:21.661Z</time></trkpt><trkpt lat="44.4282467" lon="9.3785733"><ele>235.0</ele><time>2026-04-21T14:41:22.661Z</time></trkpt><trkpt lat="44.4282867" lon="9.37849"><ele>235.0</ele><time>2026-04-21T14:43:47.661Z</time></trkpt><trkpt lat="44.4283733" lon="9.3783267"><ele>235.0</ele><time>2026-04-21T14:43:49.661Z</time></trkpt><trkpt lat="44.4284367" lon="9.3782133"><ele>235.0</ele><time>2026-04-21T14:43:50.662Z</time></trkpt><trkpt lat="44.4285233" lon="9.3781117"><ele>229.4</ele><time>2026-04-21T14:43:51.662Z</time></trkpt><trkpt lat="44.42861" lon="9.3780067"><ele>223.8</ele><time>2026-04-21T14:43:52.661Z</time></trkpt><trkpt lat="44.4286933" lon="9.3779133"><ele>218.2</ele><time>2026-04-21T14:43:53.662Z</time></trkpt><trkpt lat="44.4287683" lon="9.3778017"><ele>212.6</ele><time>2026-04-21T14:43:54.661Z</time></trkpt><trkpt lat="44.4288367" lon="9.3776867"><ele>207.0</ele><time>2026-04-21T14:43:55.661Z</time></trkpt><trkpt lat="44.4289033" lon="9.3775583"><ele>219.25</ele><time>2026-04-21T14:43:56.661Z</time></trkpt><trkpt lat="44.42896" lon="9.37743"><ele>231.5</ele><time>2026-04-21T14:43:57.661Z</time></trkpt><trkpt lat="44.428995" lon="9.3772783"><ele>243.75</ele><time>2026-04-21T14:43:58.662Z</time></trkpt><trkpt lat="44.4290233" lon="9.377125"><ele>256.0</ele><time>2026-04-21T14:43:59.662Z</time></trkpt><trkpt lat="44.429045" lon="9.3769517"><ele>256.0</ele><time>2026-04-21T14:44:00.662Z</time></trkpt><trkpt lat="44.4290633" lon="9.3767483"><ele>256.0</ele><time>2026-04-21T14:44:01.661Z</time></trkpt><trkpt lat="44.4290833" lon="9.376555"><ele>256.0</ele><time>2026-04-21T14:44:02.661Z</time></trkpt><trkpt lat="44.4291067" lon="9.3763517"><ele>256.0</ele><time>2026-04-21T14:44:03.662Z</time></trkpt><trkpt lat="44.4291283" lon="9.3761567"><ele>251.75</ele><time>2026-04-21T14:44:04.662Z</time></trkpt><trkpt lat="44.4291583" lon="9.3759683"><ele>247.5</ele><time>2026-04-21T14:44:05.661Z</time></trkpt><trkpt lat="44.429195" lon="9.375795"><ele>243.25</ele><time>2026-04-21T14:44:06.661Z</time></trkpt><trkpt lat="44.4292467" lon="9.3756383"><ele>239.0</ele><time>2026-04-21T14:44:07.661Z</time></trkpt><trkpt lat="44.4293067" lon="9.3755317"><ele>238.66666666666669</ele><time>2026-04-21T14:44:08.662Z</time></trkpt><trkpt lat="44.429365" lon="9.3754733"><ele>238.33333333333334</ele><time>2026-04-21T14:44:09.661Z</time></trkpt><trkpt lat="44.4294333" lon="9.3754367"><ele>238.0</ele><time>2026-04-21T14:44:10.661Z</time></trkpt><trkpt lat="44.4295017" lon="9.37545"><ele>237.66666666666669</ele><time>2026-04-21T14:44:11.662Z</time></trkpt><trkpt lat="44.4295867" lon="9.3754883"><ele>237.33333333333334</ele><time>2026-04-21T14:44:12.662Z</time></trkpt><trkpt lat="44.4296817" lon="9.3755083"><ele>237.0</ele><time>2026-04-21T14:44:13.662Z</time></trkpt><trkpt lat="44.4297933" lon="9.3755233"><ele>237.0</ele><time>2026-04-21T14:44:14.662Z</time></trkpt><trkpt lat="44.4299217" lon="9.3754917"><ele>237.0</ele><time>2026-04-21T14:44:15.661Z</time></trkpt><trkpt lat="44.4300417" lon="9.37542"><ele>237.0</ele><time>2026-04-21T14:44:16.661Z</time></trkpt><trkpt lat="44.4301633" lon="9.375315"><ele>237.0</ele><time>2026-04-21T14:44:17.661Z</time></trkpt><trkpt lat="44.430285" lon="9.3751617"><ele>237.0</ele><time>2026-04-21T14:44:18.661Z</time></trkpt><trkpt lat="44.430405" lon="9.3750267"><ele>237.0</ele><time>2026-04-21T14:44:19.662Z</time></trkpt><trkpt lat="44.4305017" lon="9.3749067"><ele>237.0</ele><time>2026-04-21T14:44:20.661Z</time></trkpt><trkpt lat="44.430575" lon="9.3747733"><ele>237.0</ele><time>2026-04-21T14:44:21.661Z</time></trkpt><trkpt lat="44.43062" lon="9.3746233"><ele>245.5</ele><time>2026-04-21T14:44:22.662Z</time></trkpt><trkpt lat="44.430645" lon="9.374455"><ele>254.0</ele><time>2026-04-21T14:44:23.661Z</time></trkpt><trkpt lat="44.430685" lon="9.3742683"><ele>262.5</ele><time>2026-04-21T14:44:24.661Z</time></trkpt><trkpt lat="44.4307433" lon="9.374075"><ele>271.0</ele><time>2026-04-21T14:44:25.662Z</time></trkpt><trkpt lat="44.4308083" lon="9.3738717"><ele>264.3333333333333</ele><time>2026-04-21T14:44:26.662Z</time></trkpt><trkpt lat="44.4308767" lon="9.3736617"><ele>257.6666666666667</ele><time>2026-04-21T14:44:27.661Z</time></trkpt><trkpt lat="44.4309567" lon="9.3734483"><ele>251.0</ele><time>2026-04-21T14:44:28.662Z</time></trkpt><trkpt lat="44.431045" lon="9.37324"><ele>251.0</ele><time>2026-04-21T14:44:29.662Z</time></trkpt><trkpt lat="44.431145" lon="9.3730367"><ele>251.0</ele><time>2026-04-21T14:44:30.662Z</time></trkpt><trkpt lat="44.4312483" lon="9.3728217"><ele>251.0</ele><time>2026-04-21T14:44:31.662Z</time></trkpt><trkpt lat="44.431345" lon="9.372605"><ele>256.0</ele><time>2026-04-21T14:44:32.661Z</time></trkpt><trkpt lat="44.4314367" lon="9.3723717"><ele>261.0</ele><time>2026-04-21T14:44:33.661Z</time></trkpt><trkpt lat="44.4315167" lon="9.3721433"><ele>266.0</ele><time>2026-04-21T14:44:34.661Z</time></trkpt><trkpt lat="44.431595" lon="9.37192"><ele>266.0</ele><time>2026-04-21T14:44:35.662Z</time></trkpt><trkpt lat="44.4316633" lon="9.37172"><ele>266.0</ele><time>2026-04-21T14:44:36.661Z</time></trkpt><trkpt lat="44.431725" lon="9.3715517"><ele>266.0</ele><time>2026-04-21T14:44:37.661Z</time></trkpt><trkpt lat="44.43179" lon="9.3714233"><ele>266.0</ele><time>2026-04-21T14:44:38.662Z</time></trkpt><trkpt lat="44.43187" lon="9.371345"><ele>265.75</ele><time>2026-04-21T14:44:39.662Z</time></trkpt><trkpt lat="44.4319683" lon="9.3713233"><ele>265.5</ele><time>2026-04-21T14:44:40.661Z</time></trkpt><trkpt lat="44.4320783" lon="9.3713167"><ele>265.25</ele><time>2026-04-21T14:44:41.661Z</time></trkpt><trkpt lat="44.4322083" lon="9.3713233"><ele>265.0</ele><time>2026-04-21T14:44:42.661Z</time></trkpt><trkpt lat="44.4323483" lon="9.3713383"><ele>272.66666666666663</ele><time>2026-04-21T14:44:43.661Z</time></trkpt><trkpt lat="44.4325033" lon="9.371365"><ele>280.3333333333333</ele><time>2026-04-21T14:44:44.661Z</time></trkpt><trkpt lat="44.4326483" lon="9.3713867"><ele>288.0</ele><time>2026-04-21T14:44:45.662Z</time></trkpt><trkpt lat="44.4328" lon="9.3713967"><ele>288.0</ele><time>2026-04-21T14:44:46.661Z</time></trkpt><trkpt lat="44.4329433" lon="9.3714"><ele>288.0</ele><time>2026-04-21T14:44:47.661Z</time></trkpt><trkpt lat="44.4330633" lon="9.3713533"><ele>288.0</ele><time>2026-04-21T14:44:48.662Z</time></trkpt><trkpt lat="44.4331667" lon="9.3712717"><ele>288.0</ele><time>2026-04-21T14:44:49.662Z</time></trkpt><trkpt lat="44.4332783" lon="9.3711483"><ele>285.3333333333333</ele><time>2026-04-21T14:44:50.662Z</time></trkpt><trkpt lat="44.4333933" lon="9.3709983"><ele>282.66666666666663</ele><time>2026-04-21T14:44:51.662Z</time></trkpt><trkpt lat="44.43352" lon="9.370845"><ele>280.0</ele><time>2026-04-21T14:44:52.661Z</time></trkpt><trkpt lat="44.4336433" lon="9.3707"><ele>280.0</ele><time>2026-04-21T14:44:53.662Z</time></trkpt><trkpt lat="44.4337667" lon="9.37056"><ele>280.0</ele><time>2026-04-21T14:44:54.662Z</time></trkpt><trkpt lat="44.4338667" lon="9.3704567"><ele>280.0</ele><time>2026-04-21T14:44:55.662Z</time></trkpt><trkpt lat="44.43395" lon="9.3704317"><ele>280.0</ele><time>2026-04-21T14:44:56.661Z</time></trkpt><trkpt lat="44.43403" lon="9.3704483"><ele>280.0</ele><time>2026-04-21T14:44:57.661Z</time></trkpt><trkpt lat="44.4341183" lon="9.3705"><ele>284.75</ele><time>2026-04-21T14:44:58.661Z</time></trkpt><trkpt lat="44.43421" lon="9.3705717"><ele>289.5</ele><time>2026-04-21T14:44:59.661Z</time></trkpt><trkpt lat="44.4343183" lon="9.37066"><ele>294.25</ele><time>2026-04-21T14:45:00.662Z</time></trkpt><trkpt lat="44.43444" lon="9.370745"><ele>299.0</ele><time>2026-04-21T14:45:01.661Z</time></trkpt><trkpt lat="44.4345483" lon="9.3708167"><ele>300.0</ele><time>2026-04-21T14:45:02.661Z</time></trkpt><trkpt lat="44.43464" lon="9.370865"><ele>301.0</ele><time>2026-04-21T14:45:03.661Z</time></trkpt><trkpt lat="44.4347233" lon="9.3708417"><ele>302.0</ele><time>2026-04-21T14:45:04.662Z</time></trkpt><trkpt lat="44.4347883" lon="9.3707867"><ele>303.0</ele><time>2026-04-21T14:45:05.662Z</time></trkpt><trkpt lat="44.434835" lon="9.37069"><ele>304.0</ele><time>2026-04-21T14:45:06.661Z</time></trkpt><trkpt lat="44.4348517" lon="9.3705583"><ele>305.0</ele><time>2026-04-21T14:45:07.662Z</time></trkpt><trkpt lat="44.4348483" lon="9.3703633"><ele>305.0</ele><time>2026-04-21T14:45:08.662Z</time></trkpt><trkpt lat="44.4348283" lon="9.3701517"><ele>305.0</ele><time>2026-04-21T14:45:09.662Z</time></trkpt><trkpt lat="44.43481" lon="9.3699317"><ele>305.0</ele><time>2026-04-21T14:45:10.662Z</time></trkpt><trkpt lat="44.4348133" lon="9.3697317"><ele>304.25</ele><time>2026-04-21T14:45:11.661Z</time></trkpt><trkpt lat="44.4348367" lon="9.3695483"><ele>303.5</ele><time>2026-04-21T14:45:12.661Z</time></trkpt><trkpt lat="44.434885" lon="9.369375"><ele>302.75</ele><time>2026-04-21T14:45:13.661Z</time></trkpt><trkpt lat="44.43494" lon="9.3691833"><ele>302.0</ele><time>2026-04-21T14:45:14.661Z</time></trkpt><trkpt lat="44.4350033" lon="9.3689917"><ele>298.5</ele><time>2026-04-21T14:45:15.661Z</time></trkpt><trkpt lat="44.4350683" lon="9.3688183"><ele>295.0</ele><time>2026-04-21T14:45:16.662Z</time></trkpt><trkpt lat="44.4351367" lon="9.3686833"><ele>291.5</ele><time>2026-04-21T14:45:17.662Z</time></trkpt><trkpt lat="44.4352117" lon="9.36855"><ele>288.0</ele><time>2026-04-21T14:45:18.662Z</time></trkpt><trkpt lat="44.4353117" lon="9.36844"><ele>288.0</ele><time>2026-04-21T14:45:19.661Z</time></trkpt><trkpt lat="44.4354283" lon="9.3683533"><ele>288.0</ele><time>2026-04-21T14:45:20.661Z</time></trkpt><trkpt lat="44.4355533" lon="9.368285"><ele>288.0</ele><time>2026-04-21T14:45:21.662Z</time></trkpt><trkpt lat="44.4356967" lon="9.3682333"><ele>288.0</ele><time>2026-04-21T14:45:22.661Z</time></trkpt><trkpt lat="44.43584" lon="9.3681867"><ele>287.5</ele><time>2026-04-21T14:45:23.661Z</time></trkpt><trkpt lat="44.4359717" lon="9.3681267"><ele>287.0</ele><time>2026-04-21T14:45:24.662Z</time></trkpt><trkpt lat="44.4360783" lon="9.3680483"><ele>286.5</ele><time>2026-04-21T14:45:25.661Z</time></trkpt><trkpt lat="44.4361567" lon="9.36792"><ele>286.0</ele><time>2026-04-21T14:45:26.661Z</time></trkpt><trkpt lat="44.43623" lon="9.3677717"><ele>286.0</ele><time>2026-04-21T14:45:27.661Z</time></trkpt><trkpt lat="44.4363017" lon="9.3676633"><ele>286.0</ele><time>2026-04-21T14:45:28.661Z</time></trkpt><trkpt lat="44.4363783" lon="9.36759"><ele>286.0</ele><time>2026-04-21T14:45:29.661Z</time></trkpt><trkpt lat="44.4364767" lon="9.3675417"><ele>286.0</ele><time>2026-04-21T14:45:30.662Z</time></trkpt><trkpt lat="44.43659" lon="9.3674817"><ele>286.0</ele><time>2026-04-21T14:45:31.662Z</time></trkpt><trkpt lat="44.43672" lon="9.3674333"><ele>295.3333333333333</ele><time>2026-04-21T14:45:32.661Z</time></trkpt><trkpt lat="44.4368583" lon="9.3673833"><ele>304.6666666666667</ele><time>2026-04-21T14:45:33.662Z</time></trkpt><trkpt lat="44.43701" lon="9.3673333"><ele>314.0</ele><time>2026-04-21T14:45:34.661Z</time></trkpt><trkpt lat="44.4371667" lon="9.367255"><ele>313.6666666666667</ele><time>2026-04-21T14:45:35.662Z</time></trkpt><trkpt lat="44.4373267" lon="9.36719"><ele>313.3333333333333</ele><time>2026-04-21T14:45:36.661Z</time></trkpt><trkpt lat="44.437485" lon="9.3671167"><ele>313.0</ele><time>2026-04-21T14:45:37.662Z</time></trkpt><trkpt lat="44.43765" lon="9.3670233"><ele>313.0</ele><time>2026-04-21T14:45:38.661Z</time></trkpt><trkpt lat="44.437795" lon="9.3669067"><ele>313.0</ele><time>2026-04-21T14:45:39.662Z</time></trkpt><trkpt lat="44.4379383" lon="9.3667917"><ele>313.0</ele><time>2026-04-21T14:45:40.662Z</time></trkpt><trkpt lat="44.438075" lon="9.3666783"><ele>312.75</ele><time>2026-04-21T14:45:41.661Z</time></trkpt><trkpt lat="44.438205" lon="9.3665667"><ele>312.5</ele><time>2026-04-21T14:45:42.661Z</time></trkpt><trkpt lat="44.4383017" lon="9.366435"><ele>312.25</ele><time>2026-04-21T14:45:43.661Z</time></trkpt><trkpt lat="44.4383783" lon="9.36634"><ele>312.0</ele><time>2026-04-21T14:45:44.661Z</time></trkpt><trkpt lat="44.438455" lon="9.3663"><ele>312.0</ele><time>2026-04-21T14:45:45.661Z</time></trkpt><trkpt lat="44.4385283" lon="9.3662917"><ele>312.0</ele><time>2026-04-21T14:45:46.662Z</time></trkpt><trkpt lat="44.4386217" lon="9.36632"><ele>312.0</ele><time>2026-04-21T14:45:47.662Z</time></trkpt><trkpt lat="44.43874" lon="9.3663733"><ele>312.0</ele><time>2026-04-21T14:45:48.662Z</time></trkpt><trkpt lat="44.4388633" lon="9.3664083"><ele>312.0</ele><time>2026-04-21T14:45:49.662Z</time></trkpt><trkpt lat="44.43898" lon="9.3664083"><ele>313.75</ele><time>2026-04-21T14:45:50.662Z</time></trkpt><trkpt lat="44.4390983" lon="9.3663833"><ele>315.5</ele><time>2026-04-21T14:45:51.661Z</time></trkpt><trkpt lat="44.43922" lon="9.3663433"><ele>317.25</ele><time>2026-04-21T14:45:52.662Z</time></trkpt><trkpt lat="44.4393383" lon="9.3662733"><ele>319.0</ele><time>2026-04-21T14:45:53.662Z</time></trkpt><trkpt lat="44.439445" lon="9.3661783"><ele>319.0</ele><time>2026-04-21T14:45:54.662Z</time></trkpt><trkpt lat="44.43955" lon="9.366065"><ele>319.0</ele><time>2026-04-21T14:45:55.661Z</time></trkpt><trkpt lat="44.4396717" lon="9.3659433"><ele>319.0</ele><time>2026-04-21T14:45:56.661Z</time></trkpt><trkpt lat="44.4397917" lon="9.36582"><ele>319.0</ele><time>2026-04-21T14:45:57.662Z</time></trkpt><trkpt lat="44.4399217" lon="9.3656983"><ele>318.75</ele><time>2026-04-21T14:45:58.661Z</time></trkpt><trkpt lat="44.4400567" lon="9.3655867"><ele>318.5</ele><time>2026-04-21T14:45:59.662Z</time></trkpt><trkpt lat="44.4401967" lon="9.3655017"><ele>318.25</ele><time>2026-04-21T14:46:00.662Z</time></trkpt><trkpt lat="44.4403183" lon="9.36543"><ele>318.0</ele><time>2026-04-21T14:46:01.662Z</time></trkpt><trkpt lat="44.44044" lon="9.3653417"><ele>323.0</ele><time>2026-04-21T14:46:02.662Z</time></trkpt><trkpt lat="44.4405433" lon="9.36531"><ele>328.0</ele><time>2026-04-21T14:46:03.661Z</time></trkpt><trkpt lat="44.4406483" lon="9.3653367"><ele>333.0</ele><time>2026-04-21T14:46:04.662Z</time></trkpt><trkpt lat="44.44074" lon="9.3653733"><ele>338.0</ele><time>2026-04-21T14:46:05.661Z</time></trkpt><trkpt lat="44.440835" lon="9.36539"><ele>343.0</ele><time>2026-04-21T14:46:06.662Z</time></trkpt><trkpt lat="44.4409183" lon="9.36537"><ele>343.0</ele><time>2026-04-21T14:46:07.662Z</time></trkpt><trkpt lat="44.4409933" lon="9.3653167"><ele>343.0</ele><time>2026-04-21T14:46:08.662Z</time></trkpt><trkpt lat="44.441065" lon="9.3652383"><ele>343.0</ele><time>2026-04-21T14:46:09.661Z</time></trkpt><trkpt lat="44.441125" lon="9.3651333"><ele>343.0</ele><time>2026-04-21T14:46:10.662Z</time></trkpt><trkpt lat="44.4411667" lon="9.365045"><ele>343.0</ele><time>2026-04-21T14:46:11.662Z</time></trkpt><trkpt lat="44.4411933" lon="9.364965"><ele>343.0</ele><time>2026-04-21T14:46:12.661Z</time></trkpt><trkpt lat="44.44124" lon="9.3648517"><ele>343.0</ele><time>2026-04-21T14:47:45.661Z</time></trkpt><trkpt lat="44.4412917" lon="9.3647417"><ele>343.0</ele><time>2026-04-21T14:47:46.661Z</time></trkpt><trkpt lat="44.4413533" lon="9.3646217"><ele>343.0</ele><time>2026-04-21T14:47:47.661Z</time></trkpt><trkpt lat="44.4414217" lon="9.3645183"><ele>343.0</ele><time>2026-04-21T14:47:48.661Z</time></trkpt><trkpt lat="44.4415017" lon="9.3644267"><ele>343.0</ele><time>2026-04-21T14:47:49.662Z</time></trkpt><trkpt lat="44.4415983" lon="9.36437"><ele>343.0</ele><time>2026-04-21T14:47:50.662Z</time></trkpt><trkpt lat="44.441685" lon="9.36432"><ele>343.0</ele><time>2026-04-21T14:47:51.661Z</time></trkpt><trkpt lat="44.4417533" lon="9.3642617"><ele>343.0</ele><time>2026-04-21T14:47:52.662Z</time></trkpt><trkpt lat="44.441805" lon="9.36417"><ele>343.0</ele><time>2026-04-21T14:47:53.662Z</time></trkpt><trkpt lat="44.4418483" lon="9.3640517"><ele>343.0</ele><time>2026-04-21T14:47:54.661Z</time></trkpt><trkpt lat="44.4418967" lon="9.363945"><ele>343.0</ele><time>2026-04-21T14:47:55.662Z</time></trkpt><trkpt lat="44.4419517" lon="9.3638683"><ele>341.0</ele><time>2026-04-21T14:47:56.661Z</time></trkpt><trkpt lat="44.442015" lon="9.3638117"><ele>339.0</ele><time>2026-04-21T14:47:57.662Z</time></trkpt><trkpt lat="44.4420917" lon="9.36379"><ele>337.0</ele><time>2026-04-21T14:47:58.662Z</time></trkpt><trkpt lat="44.4421833" lon="9.3638"><ele>335.0</ele><time>2026-04-21T14:47:59.662Z</time></trkpt><trkpt lat="44.4422967" lon="9.3638333"><ele>333.0</ele><time>2026-04-21T14:48:00.662Z</time></trkpt><trkpt lat="44.4424233" lon="9.3638833"><ele>339.0</ele><time>2026-04-21T14:48:01.661Z</time></trkpt><trkpt lat="44.4425517" lon="9.3639083"><ele>345.0</ele><time>2026-04-21T14:48:02.661Z</time></trkpt><trkpt lat="44.44268" lon="9.3639217"><ele>351.0</ele><time>2026-04-21T14:48:03.662Z</time></trkpt><trkpt lat="44.4428133" lon="9.3639267"><ele>357.0</ele><time>2026-04-21T14:48:04.662Z</time></trkpt><trkpt lat="44.4429517" lon="9.363915"><ele>358.5</ele><time>2026-04-21T14:48:05.661Z</time></trkpt><trkpt lat="44.4431017" lon="9.36391"><ele>360.0</ele><time>2026-04-21T14:48:06.661Z</time></trkpt><trkpt lat="44.4432333" lon="9.3639"><ele>361.5</ele><time>2026-04-21T14:48:07.662Z</time></trkpt><trkpt lat="44.4433533" lon="9.3638967"><ele>363.0</ele><time>2026-04-21T14:48:08.661Z</time></trkpt><trkpt lat="44.4434567" lon="9.3639533"><ele>363.0</ele><time>2026-04-21T14:48:09.661Z</time></trkpt><trkpt lat="44.443555" lon="9.3640417"><ele>363.0</ele><time>2026-04-21T14:48:10.661Z</time></trkpt><trkpt lat="44.44365" lon="9.3641567"><ele>363.0</ele><time>2026-04-21T14:48:11.661Z</time></trkpt><trkpt lat="44.4437367" lon="9.364275"><ele>363.0</ele><time>2026-04-21T14:48:12.662Z</time></trkpt><trkpt lat="44.44384" lon="9.3643717"><ele>362.0</ele><time>2026-04-21T14:48:13.662Z</time></trkpt><trkpt lat="44.443965" lon="9.36444"><ele>361.0</ele><time>2026-04-21T14:48:14.661Z</time></trkpt><trkpt lat="44.444105" lon="9.3644533"><ele>360.0</ele><time>2026-04-21T14:48:15.662Z</time></trkpt><trkpt lat="44.4442417" lon="9.3644683"><ele>359.0</ele><time>2026-04-21T14:48:16.662Z</time></trkpt><trkpt lat="44.444355" lon="9.3644967"><ele>359.0</ele><time>2026-04-21T14:48:17.662Z</time></trkpt><trkpt lat="44.44446" lon="9.3645383"><ele>359.0</ele><time>2026-04-21T14:48:18.662Z</time></trkpt><trkpt lat="44.444555" lon="9.364565"><ele>359.0</ele><time>2026-04-21T14:48:19.661Z</time></trkpt><trkpt lat="44.4446417" lon="9.364555"><ele>359.0</ele><time>2026-04-21T14:48:20.661Z</time></trkpt><trkpt lat="44.4447233" lon="9.36449"><ele>359.0</ele><time>2026-04-21T14:48:21.661Z</time></trkpt><trkpt lat="44.4448133" lon="9.3643833"><ele>361.25</ele><time>2026-04-21T14:48:22.661Z</time></trkpt><trkpt lat="44.4449133" lon="9.3642817"><ele>363.5</ele><time>2026-04-21T14:48:23.661Z</time></trkpt><trkpt lat="44.4450217" lon="9.3642083"><ele>365.75</ele><time>2026-04-21T14:48:24.662Z</time></trkpt><trkpt lat="44.445135" lon="9.3641767"><ele>368.0</ele><time>2026-04-21T14:48:25.661Z</time></trkpt><trkpt lat="44.4452567" lon="9.364175"><ele>368.0</ele><time>2026-04-21T14:48:26.661Z</time></trkpt><trkpt lat="44.4453867" lon="9.3642"><ele>368.0</ele><time>2026-04-21T14:48:27.661Z</time></trkpt><trkpt lat="44.4455367" lon="9.36426"><ele>368.0</ele><time>2026-04-21T14:48:28.662Z</time></trkpt><trkpt lat="44.445695" lon="9.3643233"><ele>369.6666666666667</ele><time>2026-04-21T14:48:29.661Z</time></trkpt><trkpt lat="44.4458617" lon="9.3643783"><ele>371.3333333333333</ele><time>2026-04-21T14:48:30.661Z</time></trkpt><trkpt lat="44.44604" lon="9.3644067"><ele>373.0</ele><time>2026-04-21T14:48:31.661Z</time></trkpt><trkpt lat="44.4462283" lon="9.36443"><ele>370.0</ele><time>2026-04-21T14:48:32.661Z</time></trkpt><trkpt lat="44.4464183" lon="9.3644783"><ele>367.0</ele><time>2026-04-21T14:48:33.661Z</time></trkpt><trkpt lat="44.4466033" lon="9.36453"><ele>364.0</ele><time>2026-04-21T14:48:34.661Z</time></trkpt><trkpt lat="44.44678" lon="9.3646"><ele>364.0</ele><time>2026-04-21T14:48:35.661Z</time></trkpt><trkpt lat="44.44695" lon="9.36466"><ele>364.0</ele><time>2026-04-21T14:48:36.662Z</time></trkpt><trkpt lat="44.44711" lon="9.364715"><ele>364.0</ele><time>2026-04-21T14:48:37.661Z</time></trkpt><trkpt lat="44.4472517" lon="9.36479"><ele>374.3333333333333</ele><time>2026-04-21T14:48:38.662Z</time></trkpt><trkpt lat="44.4474" lon="9.36486"><ele>384.66666666666663</ele><time>2026-04-21T14:48:39.661Z</time></trkpt><trkpt lat="44.4475483" lon="9.3648933"><ele>395.0</ele><time>2026-04-21T14:48:40.661Z</time></trkpt><trkpt lat="44.4477" lon="9.36489"><ele>395.0</ele><time>2026-04-21T14:48:41.661Z</time></trkpt><trkpt lat="44.4478417" lon="9.3648683"><ele>395.0</ele><time>2026-04-21T14:48:42.661Z</time></trkpt><trkpt lat="44.447975" lon="9.364865"><ele>395.0</ele><time>2026-04-21T14:48:43.661Z</time></trkpt><trkpt lat="44.4480983" lon="9.364905"><ele>395.0</ele><time>2026-04-21T14:48:44.662Z</time></trkpt><trkpt lat="44.448225" lon="9.3649583"><ele>394.5</ele><time>2026-04-21T14:48:45.661Z</time></trkpt><trkpt lat="44.4483633" lon="9.3650283"><ele>394.0</ele><time>2026-04-21T14:48:46.662Z</time></trkpt><trkpt lat="44.4485033" lon="9.3650667"><ele>393.5</ele><time>2026-04-21T14:48:47.661Z</time></trkpt><trkpt lat="44.448615" lon="9.365075"><ele>393.0</ele><time>2026-04-21T14:48:48.662Z</time></trkpt><trkpt lat="44.4487133" lon="9.3651083"><ele>394.3333333333333</ele><time>2026-04-21T14:48:49.662Z</time></trkpt><trkpt lat="44.4488" lon="9.3651667"><ele>395.66666666666663</ele><time>2026-04-21T14:48:50.661Z</time></trkpt><trkpt lat="44.4488833" lon="9.3652167"><ele>397.0</ele><time>2026-04-21T14:48:51.661Z</time></trkpt><trkpt lat="44.4489817" lon="9.3652133"><ele>398.3333333333333</ele><time>2026-04-21T14:48:52.662Z</time></trkpt><trkpt lat="44.4490483" lon="9.365165"><ele>399.66666666666663</ele><time>2026-04-21T14:48:53.661Z</time></trkpt><trkpt lat="44.44911" lon="9.3650967"><ele>401.0</ele><time>2026-04-21T14:48:54.661Z</time></trkpt><trkpt lat="44.4491417" lon="9.365005"><ele>401.0</ele><time>2026-04-21T14:48:55.661Z</time></trkpt><trkpt lat="44.449155" lon="9.3649"><ele>401.0</ele><time>2026-04-21T14:48:56.662Z</time></trkpt><trkpt lat="44.4491383" lon="9.3647833"><ele>401.0</ele><time>2026-04-21T14:48:57.662Z</time></trkpt><trkpt lat="44.4490983" lon="9.36466"><ele>401.0</ele><time>2026-04-21T14:48:58.661Z</time></trkpt><trkpt lat="44.449015" lon="9.3645317"><ele>401.0</ele><time>2026-04-21T14:48:59.661Z</time></trkpt><trkpt lat="44.4489567" lon="9.364405"><ele>399.4</ele><time>2026-04-21T14:49:00.662Z</time></trkpt><trkpt lat="44.4489217" lon="9.3642833"><ele>397.8</ele><time>2026-04-21T14:49:01.661Z</time></trkpt><trkpt lat="44.44892" lon="9.36418"><ele>396.2</ele><time>2026-04-21T14:49:02.661Z</time></trkpt><trkpt lat="44.448955" lon="9.3640983"><ele>394.59999999999997</ele><time>2026-04-21T14:49:03.661Z</time></trkpt><trkpt lat="44.4490233" lon="9.363985"><ele>393.0</ele><time>2026-04-21T14:49:04.662Z</time></trkpt><trkpt lat="44.4491317" lon="9.3638917"><ele>391.75</ele><time>2026-04-21T14:49:05.661Z</time></trkpt><trkpt lat="44.449255" lon="9.3638217"><ele>390.5</ele><time>2026-04-21T14:49:06.662Z</time></trkpt><trkpt lat="44.4493867" lon="9.363775"><ele>389.25</ele><time>2026-04-21T14:49:07.661Z</time></trkpt><trkpt lat="44.4495017" lon="9.36375"><ele>388.0</ele><time>2026-04-21T14:49:08.661Z</time></trkpt><trkpt lat="44.4496167" lon="9.3637283"><ele>391.79999999999995</ele><time>2026-04-21T14:49:09.662Z</time></trkpt><trkpt lat="44.4497117" lon="9.3636767"><ele>395.6</ele><time>2026-04-21T14:49:10.661Z</time></trkpt><trkpt lat="44.4497917" lon="9.3635917"><ele>399.4</ele><time>2026-04-21T14:49:11.662Z</time></trkpt><trkpt lat="44.4498567" lon="9.3634817"><ele>403.20000000000005</ele><time>2026-04-21T14:49:12.662Z</time></trkpt><trkpt lat="44.4498967" lon="9.3633317"><ele>407.0</ele><time>2026-04-21T14:49:13.662Z</time></trkpt><trkpt lat="44.4499083" lon="9.3631667"><ele>406.25</ele><time>2026-04-21T14:49:14.662Z</time></trkpt><trkpt lat="44.44989" lon="9.363"><ele>405.5</ele><time>2026-04-21T14:49:15.661Z</time></trkpt><trkpt lat="44.44985" lon="9.3628317"><ele>404.75</ele><time>2026-04-21T14:49:16.661Z</time></trkpt><trkpt lat="44.449825" lon="9.3626733"><ele>404.0</ele><time>2026-04-21T14:49:17.661Z</time></trkpt><trkpt lat="44.4498183" lon="9.36253"><ele>404.0</ele><time>2026-04-21T14:49:18.662Z</time></trkpt><trkpt lat="44.4498367" lon="9.36242"><ele>404.0</ele><time>2026-04-21T14:49:19.661Z</time></trkpt><trkpt lat="44.4498867" lon="9.362325"><ele>404.0</ele><time>2026-04-21T14:49:20.662Z</time></trkpt><trkpt lat="44.4499617" lon="9.3622533"><ele>404.0</ele><time>2026-04-21T14:49:21.661Z</time></trkpt><trkpt lat="44.4500617" lon="9.3621983"><ele>404.0</ele><time>2026-04-21T14:49:22.661Z</time></trkpt><trkpt lat="44.4501717" lon="9.362165"><ele>401.75</ele><time>2026-04-21T14:49:23.661Z</time></trkpt><trkpt lat="44.45029" lon="9.3621467"><ele>399.5</ele><time>2026-04-21T14:49:24.661Z</time></trkpt><trkpt lat="44.450435" lon="9.36215"><ele>397.25</ele><time>2026-04-21T14:49:25.662Z</time></trkpt><trkpt lat="44.45057" lon="9.3621433"><ele>395.0</ele><time>2026-04-21T14:49:26.662Z</time></trkpt><trkpt lat="44.4506767" lon="9.3621167"><ele>398.8</ele><time>2026-04-21T14:49:27.661Z</time></trkpt><trkpt lat="44.4507483" lon="9.362045"><ele>402.6</ele><time>2026-04-21T14:49:28.662Z</time></trkpt><trkpt lat="44.4508133" lon="9.3619767"><ele>406.4</ele><time>2026-04-21T14:49:29.662Z</time></trkpt><trkpt lat="44.4508517" lon="9.3618733"><ele>410.2</ele><time>2026-04-21T14:49:30.661Z</time></trkpt><trkpt lat="44.4508667" lon="9.3617283"><ele>414.0</ele><time>2026-04-21T14:49:31.661Z</time></trkpt><trkpt lat="44.4508683" lon="9.3615633"><ele>414.0</ele><time>2026-04-21T14:49:32.661Z</time></trkpt><trkpt lat="44.4508717" lon="9.3613983"><ele>414.0</ele><time>2026-04-21T14:49:33.661Z</time></trkpt><trkpt lat="44.4509017" lon="9.3612533"><ele>414.0</ele><time>2026-04-21T14:49:34.662Z</time></trkpt><trkpt lat="44.4509583" lon="9.3611"><ele>414.0</ele><time>2026-04-21T14:49:35.661Z</time></trkpt><trkpt lat="44.451035" lon="9.3609433"><ele>414.5</ele><time>2026-04-21T14:49:36.661Z</time></trkpt><trkpt lat="44.4511217" lon="9.360785"><ele>415.0</ele><time>2026-04-21T14:49:37.661Z</time></trkpt><trkpt lat="44.4511967" lon="9.36063"><ele>415.5</ele><time>2026-04-21T14:49:38.66Z</time></trkpt><trkpt lat="44.4512783" lon="9.3604967"><ele>416.0</ele><time>2026-04-21T14:49:39.662Z</time></trkpt><trkpt lat="44.451375" lon="9.36039"><ele>415.99999999999994</ele><time>2026-04-21T14:49:40.662Z</time></trkpt><trkpt lat="44.4514733" lon="9.3603"><ele>416.0</ele><time>2026-04-21T14:49:41.661Z</time></trkpt><trkpt lat="44.45155" lon="9.36024"><ele>416.0</ele><time>2026-04-21T14:49:42.662Z</time></trkpt><trkpt lat="44.4516283" lon="9.3601817"><ele>416.0</ele><time>2026-04-21T14:49:44.661Z</time></trkpt><trkpt lat="44.45167" lon="9.3601117"><ele>415.99999999999994</ele><time>2026-04-21T14:50:30.662Z</time></trkpt><trkpt lat="44.451735" lon="9.36007"><ele>416.0</ele><time>2026-04-21T14:50:31.661Z</time></trkpt><trkpt lat="44.4518067" lon="9.3600417"><ele>415.99999999999994</ele><time>2026-04-21T14:50:32.661Z</time></trkpt><trkpt lat="44.45188" lon="9.3600367"><ele>416.0</ele><time>2026-04-21T14:50:33.662Z</time></trkpt><trkpt lat="44.4519517" lon="9.36006"><ele>416.0</ele><time>2026-04-21T14:50:34.662Z</time></trkpt><trkpt lat="44.45202" lon="9.36013"><ele>416.0</ele><time>2026-04-21T14:50:35.661Z</time></trkpt><trkpt lat="44.45209" lon="9.3602183"><ele>415.99999999999994</ele><time>2026-04-21T14:50:36.662Z</time></trkpt><trkpt lat="44.4521583" lon="9.3603467"><ele>416.0</ele><time>2026-04-21T14:50:37.661Z</time></trkpt><trkpt lat="44.452215" lon="9.3604733"><ele>419.20000000000005</ele><time>2026-04-21T14:50:38.661Z</time></trkpt><trkpt lat="44.4522783" lon="9.36058"><ele>422.40000000000003</ele><time>2026-04-21T14:50:39.661Z</time></trkpt><trkpt lat="44.4523567" lon="9.3606583"><ele>425.6</ele><time>2026-04-21T14:50:40.661Z</time></trkpt><trkpt lat="44.4524517" lon="9.360715"><ele>428.8</ele><time>2026-04-21T14:50:41.662Z</time></trkpt><trkpt lat="44.452545" lon="9.3607183"><ele>432.0</ele><time>2026-04-21T14:50:42.662Z</time></trkpt><trkpt lat="44.4526517" lon="9.3606917"><ele>432.0</ele><time>2026-04-21T14:50:43.662Z</time></trkpt><trkpt lat="44.4527383" lon="9.36068"><ele>432.0</ele><time>2026-04-21T14:50:44.662Z</time></trkpt><trkpt lat="44.4528183" lon="9.36071"><ele>432.0</ele><time>2026-04-21T14:50:45.661Z</time></trkpt><trkpt lat="44.45287" lon="9.36077"><ele>432.0</ele><time>2026-04-21T14:50:46.661Z</time></trkpt><trkpt lat="44.452905" lon="9.3608683"><ele>432.0</ele><time>2026-04-21T14:50:47.661Z</time></trkpt><trkpt lat="44.4529017" lon="9.360965"><ele>432.0</ele><time>2026-04-21T14:50:48.662Z</time></trkpt><trkpt lat="44.4528667" lon="9.36108"><ele>432.0</ele><time>2026-04-21T14:50:49.661Z</time></trkpt><trkpt lat="44.4528083" lon="9.3611633"><ele>432.00000000000006</ele><time>2026-04-21T14:50:50.662Z</time></trkpt><trkpt lat="44.4527283" lon="9.3611933"><ele>432.00000000000006</ele><time>2026-04-21T14:50:51.662Z</time></trkpt><trkpt lat="44.4526433" lon="9.36119"><ele>432.0</ele><time>2026-04-21T14:50:52.661Z</time></trkpt><trkpt lat="44.4525383" lon="9.3611417"><ele>432.0</ele><time>2026-04-21T14:50:53.661Z</time></trkpt><trkpt lat="44.45241" lon="9.361035"><ele>432.0</ele><time>2026-04-21T14:50:54.662Z</time></trkpt><trkpt lat="44.4522917" lon="9.3609517"><ele>432.0</ele><time>2026-04-21T14:50:55.662Z</time></trkpt><trkpt lat="44.4521683" lon="9.3609083"><ele>432.0</ele><time>2026-04-21T14:50:56.661Z</time></trkpt><trkpt lat="44.4520533" lon="9.3609133"><ele>432.0</ele><time>2026-04-21T14:50:57.661Z</time></trkpt><trkpt lat="44.4519383" lon="9.360965"><ele>432.75</ele><time>2026-04-21T14:50:58.661Z</time></trkpt><trkpt lat="44.4518217" lon="9.3610533"><ele>433.5</ele><time>2026-04-21T14:50:59.662Z</time></trkpt><trkpt lat="44.45172" lon="9.36117"><ele>434.25</ele><time>2026-04-21T14:51:00.661Z</time></trkpt><trkpt lat="44.45163" lon="9.3613117"><ele>435.0</ele><time>2026-04-21T14:51:01.661Z</time></trkpt><trkpt lat="44.4515617" lon="9.361475"><ele>435.0</ele><time>2026-04-21T14:51:02.662Z</time></trkpt><trkpt lat="44.4514967" lon="9.3616383"><ele>435.0</ele><time>2026-04-21T14:51:03.661Z</time></trkpt><trkpt lat="44.4514183" lon="9.36178"><ele>435.0</ele><time>2026-04-21T14:51:04.662Z</time></trkpt><trkpt lat="44.451335" lon="9.3618967"><ele>435.0</ele><time>2026-04-21T14:51:05.662Z</time></trkpt><trkpt lat="44.4512617" lon="9.36201"><ele>436.3333333333333</ele><time>2026-04-21T14:51:06.661Z</time></trkpt><trkpt lat="44.4512083" lon="9.3621167"><ele>437.66666666666663</ele><time>2026-04-21T14:51:07.662Z</time></trkpt><trkpt lat="44.451185" lon="9.3622383"><ele>439.0</ele><time>2026-04-21T14:51:08.661Z</time></trkpt><trkpt lat="44.451205" lon="9.3623383"><ele>440.3333333333333</ele><time>2026-04-21T14:51:09.662Z</time></trkpt><trkpt lat="44.451255" lon="9.3624183"><ele>441.66666666666663</ele><time>2026-04-21T14:51:10.662Z</time></trkpt><trkpt lat="44.4513233" lon="9.3624733"><ele>443.0</ele><time>2026-04-21T14:51:11.661Z</time></trkpt><trkpt lat="44.4514033" lon="9.3624933"><ele>443.0</ele><time>2026-04-21T14:51:12.661Z</time></trkpt><trkpt lat="44.4515" lon="9.3624567"><ele>443.0</ele><time>2026-04-21T14:51:13.662Z</time></trkpt><trkpt lat="44.4515817" lon="9.3623567"><ele>443.0</ele><time>2026-04-21T14:51:14.662Z</time></trkpt><trkpt lat="44.4516433" lon="9.3622133"><ele>443.0</ele><time>2026-04-21T14:51:15.661Z</time></trkpt><trkpt lat="44.4516933" lon="9.3620333"><ele>441.0</ele><time>2026-04-21T14:51:16.661Z</time></trkpt><trkpt lat="44.45175" lon="9.3618717"><ele>439.0</ele><time>2026-04-21T14:51:17.661Z</time></trkpt><trkpt lat="44.4518317" lon="9.36174"><ele>437.0</ele><time>2026-04-21T14:51:18.662Z</time></trkpt><trkpt lat="44.4519367" lon="9.3616383"><ele>435.0</ele><time>2026-04-21T14:51:19.661Z</time></trkpt><trkpt lat="44.4520517" lon="9.36156"><ele>437.8</ele><time>2026-04-21T14:51:20.662Z</time></trkpt><trkpt lat="44.4521583" lon="9.3614933"><ele>440.6</ele><time>2026-04-21T14:51:21.662Z</time></trkpt><trkpt lat="44.4522567" lon="9.3614433"><ele>443.4</ele><time>2026-04-21T14:51:22.662Z</time></trkpt><trkpt lat="44.4523483" lon="9.361405"><ele>446.2</ele><time>2026-04-21T14:51:23.661Z</time></trkpt><trkpt lat="44.452435" lon="9.3614017"><ele>449.0</ele><time>2026-04-21T14:51:24.662Z</time></trkpt><trkpt lat="44.4525167" lon="9.3614183"><ele>449.0</ele><time>2026-04-21T14:51:25.662Z</time></trkpt><trkpt lat="44.4526017" lon="9.36147"><ele>449.0</ele><time>2026-04-21T14:51:26.662Z</time></trkpt><trkpt lat="44.4527" lon="9.3615333"><ele>449.0</ele><time>2026-04-21T14:51:27.662Z</time></trkpt><trkpt lat="44.4527917" lon="9.3615783"><ele>449.0</ele><time>2026-04-21T14:51:28.662Z</time></trkpt><trkpt lat="44.452885" lon="9.36159"><ele>449.0</ele><time>2026-04-21T14:51:29.662Z</time></trkpt><trkpt lat="44.45298" lon="9.3615467"><ele>450.2</ele><time>2026-04-21T14:51:30.662Z</time></trkpt><trkpt lat="44.4530667" lon="9.36146"><ele>451.4</ele><time>2026-04-21T14:51:31.662Z</time></trkpt><trkpt lat="44.4531467" lon="9.3613483"><ele>452.6</ele><time>2026-04-21T14:51:32.662Z</time></trkpt><trkpt lat="44.45324" lon="9.361265"><ele>453.8</ele><time>2026-04-21T14:51:33.661Z</time></trkpt><trkpt lat="44.4533333" lon="9.3612217"><ele>455.0</ele><time>2026-04-21T14:51:34.662Z</time></trkpt><trkpt lat="44.4534167" lon="9.36122"><ele>455.0</ele><time>2026-04-21T14:51:35.661Z</time></trkpt><trkpt lat="44.4534933" lon="9.3612583"><ele>455.0</ele><time>2026-04-21T14:51:36.662Z</time></trkpt><trkpt lat="44.45356" lon="9.3613633"><ele>455.0</ele><time>2026-04-21T14:51:37.661Z</time></trkpt><trkpt lat="44.4536183" lon="9.3615133"><ele>455.0</ele><time>2026-04-21T14:51:38.661Z</time></trkpt><trkpt lat="44.453685" lon="9.3616833"><ele>455.0</ele><time>2026-04-21T14:51:39.662Z</time></trkpt><trkpt lat="44.45379" lon="9.3618333"><ele>454.0</ele><time>2026-04-21T14:51:40.662Z</time></trkpt><trkpt lat="44.4539167" lon="9.3619867"><ele>453.0</ele><time>2026-04-21T14:51:41.661Z</time></trkpt><trkpt lat="44.4540617" lon="9.3621217"><ele>452.0</ele><time>2026-04-21T14:51:42.662Z</time></trkpt><trkpt lat="44.4542083" lon="9.3622267"><ele>455.3333333333333</ele><time>2026-04-21T14:51:43.661Z</time></trkpt><trkpt lat="44.45437" lon="9.3623033"><ele>458.66666666666663</ele><time>2026-04-21T14:51:44.662Z</time></trkpt><trkpt lat="44.4545417" lon="9.36235"><ele>462.0</ele><time>2026-04-21T14:51:45.661Z</time></trkpt><trkpt lat="44.4547" lon="9.362395"><ele>462.0</ele><time>2026-04-21T14:51:46.662Z</time></trkpt><trkpt lat="44.4548567" lon="9.3624317"><ele>462.0</ele><time>2026-04-21T14:51:47.661Z</time></trkpt><trkpt lat="44.4549983" lon="9.362465"><ele>462.0</ele><time>2026-04-21T14:51:48.661Z</time></trkpt><trkpt lat="44.4551217" lon="9.3625017"><ele>462.0</ele><time>2026-04-21T14:51:49.661Z</time></trkpt><trkpt lat="44.4552383" lon="9.3625633"><ele>462.0</ele><time>2026-04-21T14:51:50.661Z</time></trkpt><trkpt lat="44.455325" lon="9.36265"><ele>462.0</ele><time>2026-04-21T14:51:51.661Z</time></trkpt><trkpt lat="44.4554183" lon="9.3628017"><ele>462.0</ele><time>2026-04-21T14:51:52.661Z</time></trkpt><trkpt lat="44.45549" lon="9.3629917"><ele>462.0</ele><time>2026-04-21T14:51:53.661Z</time></trkpt><trkpt lat="44.455565" lon="9.3631983"><ele>462.66666666666663</ele><time>2026-04-21T14:51:54.662Z</time></trkpt><trkpt lat="44.4556433" lon="9.3634217"><ele>463.3333333333333</ele><time>2026-04-21T14:51:55.661Z</time></trkpt><trkpt lat="44.4557217" lon="9.363635"><ele>464.0</ele><time>2026-04-21T14:51:56.662Z</time></trkpt><trkpt lat="44.45581" lon="9.3638283"><ele>465.79999999999995</ele><time>2026-04-21T14:51:57.661Z</time></trkpt><trkpt lat="44.4558767" lon="9.3639833"><ele>467.59999999999997</ele><time>2026-04-21T14:51:58.662Z</time></trkpt><trkpt lat="44.4558983" lon="9.3640883"><ele>469.4</ele><time>2026-04-21T14:51:59.661Z</time></trkpt><trkpt lat="44.4559117" lon="9.3642217"><ele>471.2</ele><time>2026-04-21T14:52:00.661Z</time></trkpt><trkpt lat="44.455905" lon="9.3643483"><ele>473.0</ele><time>2026-04-21T14:52:01.661Z</time></trkpt><trkpt lat="44.45586" lon="9.3644317"><ele>473.0</ele><time>2026-04-21T14:52:02.661Z</time></trkpt><trkpt lat="44.4558" lon="9.3644733"><ele>472.99999999999994</ele><time>2026-04-21T14:52:03.661Z</time></trkpt><trkpt lat="44.4557283" lon="9.3644833"><ele>472.99999999999994</ele><time>2026-04-21T14:52:04.661Z</time></trkpt><trkpt lat="44.4556483" lon="9.3644383"><ele>473.0</ele><time>2026-04-21T14:52:05.661Z</time></trkpt><trkpt lat="44.455585" lon="9.3643317"><ele>473.0</ele><time>2026-04-21T14:52:06.662Z</time></trkpt><trkpt lat="44.4555467" lon="9.36416"><ele>473.0</ele><time>2026-04-21T14:52:07.661Z</time></trkpt><trkpt lat="44.4554983" lon="9.36398"><ele>473.0</ele><time>2026-04-21T14:52:08.662Z</time></trkpt><trkpt lat="44.4554583" lon="9.3637833"><ele>473.0</ele><time>2026-04-21T14:52:09.661Z</time></trkpt><trkpt lat="44.455415" lon="9.3635917"><ele>473.0</ele><time>2026-04-21T14:52:10.661Z</time></trkpt><trkpt lat="44.4553667" lon="9.3634033"><ele>473.75</ele><time>2026-04-21T14:52:11.661Z</time></trkpt><trkpt lat="44.4552983" lon="9.3632367"><ele>474.5</ele><time>2026-04-21T14:52:12.662Z</time></trkpt><trkpt lat="44.4552267" lon="9.3630917"><ele>475.25</ele><time>2026-04-21T14:52:13.662Z</time></trkpt><trkpt lat="44.4551417" lon="9.3629767"><ele>476.0</ele><time>2026-04-21T14:52:14.662Z</time></trkpt><trkpt lat="44.4550633" lon="9.3629183"><ele>476.0</ele><time>2026-04-21T14:52:15.662Z</time></trkpt><trkpt lat="44.4549933" lon="9.3628933"><ele>476.0</ele><time>2026-04-21T14:52:16.662Z</time></trkpt><trkpt lat="44.4549167" lon="9.3629083"><ele>476.0</ele><time>2026-04-21T14:52:17.661Z</time></trkpt><trkpt lat="44.4548483" lon="9.3629733"><ele>476.0</ele><time>2026-04-21T14:52:18.662Z</time></trkpt><trkpt lat="44.4547717" lon="9.3630967"><ele>476.0</ele><time>2026-04-21T14:52:19.661Z</time></trkpt><trkpt lat="44.4546917" lon="9.3632667"><ele>474.66666666666663</ele><time>2026-04-21T14:52:20.661Z</time></trkpt><trkpt lat="44.4546" lon="9.3634533"><ele>473.33333333333337</ele><time>2026-04-21T14:52:21.662Z</time></trkpt><trkpt lat="44.4544933" lon="9.36365"><ele>472.0</ele><time>2026-04-21T14:52:22.661Z</time></trkpt><trkpt lat="44.454385" lon="9.3638167"><ele>474.75</ele><time>2026-04-21T14:52:23.661Z</time></trkpt><trkpt lat="44.4542883" lon="9.3639817"><ele>477.5</ele><time>2026-04-21T14:52:24.662Z</time></trkpt><trkpt lat="44.45421" lon="9.36414"><ele>480.25</ele><time>2026-04-21T14:52:25.661Z</time></trkpt><trkpt lat="44.454155" lon="9.3642967"><ele>483.0</ele><time>2026-04-21T14:52:26.661Z</time></trkpt><trkpt lat="44.4541267" lon="9.3644733"><ele>483.0</ele><time>2026-04-21T14:52:27.662Z</time></trkpt><trkpt lat="44.454135" lon="9.3646717"><ele>483.0</ele><time>2026-04-21T14:52:28.661Z</time></trkpt><trkpt lat="44.4541383" lon="9.3648617"><ele>483.0</ele><time>2026-04-21T14:52:29.661Z</time></trkpt><trkpt lat="44.4541283" lon="9.3650233"><ele>483.0</ele><time>2026-04-21T14:52:30.661Z</time></trkpt><trkpt lat="44.4540917" lon="9.3651567"><ele>483.0</ele><time>2026-04-21T14:52:31.662Z</time></trkpt><trkpt lat="44.4540217" lon="9.36523"><ele>482.99999999999994</ele><time>2026-04-21T14:52:32.661Z</time></trkpt><trkpt lat="44.4539383" lon="9.365265"><ele>482.99999999999994</ele><time>2026-04-21T14:52:33.662Z</time></trkpt><trkpt lat="44.4538283" lon="9.36527"><ele>483.0</ele><time>2026-04-21T14:52:34.661Z</time></trkpt><trkpt lat="44.4537033" lon="9.36527"><ele>483.0</ele><time>2026-04-21T14:52:35.661Z</time></trkpt><trkpt lat="44.4535967" lon="9.3652867"><ele>483.0</ele><time>2026-04-21T14:52:36.661Z</time></trkpt><trkpt lat="44.453525" lon="9.3653183"><ele>483.0</ele><time>2026-04-21T14:52:37.661Z</time></trkpt><trkpt lat="44.453465" lon="9.3653833"><ele>483.0</ele><time>2026-04-21T14:52:38.661Z</time></trkpt><trkpt lat="44.453425" lon="9.365465"><ele>483.0</ele><time>2026-04-21T14:52:39.661Z</time></trkpt><trkpt lat="44.453415" lon="9.3655683"><ele>483.0</ele><time>2026-04-21T14:52:40.662Z</time></trkpt><trkpt lat="44.4534333" lon="9.3656917"><ele>483.0</ele><time>2026-04-21T14:52:41.662Z</time></trkpt><trkpt lat="44.4534817" lon="9.3658167"><ele>484.5</ele><time>2026-04-21T14:52:42.662Z</time></trkpt><trkpt lat="44.4535517" lon="9.3659517"><ele>486.0</ele><time>2026-04-21T14:52:43.661Z</time></trkpt><trkpt lat="44.4536417" lon="9.36605"><ele>487.5</ele><time>2026-04-21T14:52:44.661Z</time></trkpt><trkpt lat="44.45375" lon="9.3661083"><ele>489.0</ele><time>2026-04-21T14:52:45.662Z</time></trkpt><trkpt lat="44.4538567" lon="9.3661217"><ele>492.0</ele><time>2026-04-21T14:52:46.661Z</time></trkpt><trkpt lat="44.4539517" lon="9.3660733"><ele>495.0</ele><time>2026-04-21T14:52:47.661Z</time></trkpt><trkpt lat="44.4540467" lon="9.3659817"><ele>498.0</ele><time>2026-04-21T14:52:48.661Z</time></trkpt><trkpt lat="44.4541433" lon="9.3658317"><ele>501.0</ele><time>2026-04-21T14:52:49.661Z</time></trkpt><trkpt lat="44.4542467" lon="9.3656383"><ele>499.75</ele><time>2026-04-21T14:52:50.661Z</time></trkpt><trkpt lat="44.4543433" lon="9.3654533"><ele>498.5</ele><time>2026-04-21T14:52:51.661Z</time></trkpt><trkpt lat="44.4544167" lon="9.3652867"><ele>497.25</ele><time>2026-04-21T14:52:52.661Z</time></trkpt><trkpt lat="44.454465" lon="9.36513"><ele>496.0</ele><time>2026-04-21T14:52:53.662Z</time></trkpt><trkpt lat="44.4545133" lon="9.3650017"><ele>496.0</ele><time>2026-04-21T14:52:54.662Z</time></trkpt><trkpt lat="44.45456" lon="9.3649117"><ele>496.0</ele><time>2026-04-21T14:52:55.661Z</time></trkpt><trkpt lat="44.4546933" lon="9.364845"><ele>496.0</ele><time>2026-04-21T14:52:57.662Z</time></trkpt><trkpt lat="44.45478" lon="9.3648667"><ele>496.0</ele><time>2026-04-21T14:52:58.662Z</time></trkpt><trkpt lat="44.45488" lon="9.3649517"><ele>496.0</ele><time>2026-04-21T14:52:59.662Z</time></trkpt><trkpt lat="44.4549733" lon="9.36506"><ele>498.0</ele><time>2026-04-21T14:53:00.661Z</time></trkpt><trkpt lat="44.4550633" lon="9.3652083"><ele>500.0</ele><time>2026-04-21T14:53:01.662Z</time></trkpt><trkpt lat="44.455145" lon="9.36537"><ele>502.0</ele><time>2026-04-21T14:53:02.662Z</time></trkpt><trkpt lat="44.4552283" lon="9.3655333"><ele>504.0</ele><time>2026-04-21T14:53:03.662Z</time></trkpt><trkpt lat="44.4553133" lon="9.3657067"><ele>502.66666666666663</ele><time>2026-04-21T14:53:04.661Z</time></trkpt><trkpt lat="44.4554183" lon="9.36589"><ele>501.3333333333333</ele><time>2026-04-21T14:53:05.661Z</time></trkpt><trkpt lat="44.4555183" lon="9.3660767"><ele>500.0</ele><time>2026-04-21T14:53:06.661Z</time></trkpt><trkpt lat="44.4556217" lon="9.3662817"><ele>505.66666666666663</ele><time>2026-04-21T14:53:07.661Z</time></trkpt><trkpt lat="44.4557133" lon="9.366465"><ele>511.33333333333337</ele><time>2026-04-21T14:53:08.661Z</time></trkpt><trkpt lat="44.4558" lon="9.3666467"><ele>517.0</ele><time>2026-04-21T14:53:09.662Z</time></trkpt><trkpt lat="44.4558567" lon="9.36684"><ele>517.0</ele><time>2026-04-21T14:53:10.661Z</time></trkpt><trkpt lat="44.4559067" lon="9.36705"><ele>517.0</ele><time>2026-04-21T14:53:11.661Z</time></trkpt><trkpt lat="44.4559417" lon="9.3672633"><ele>517.0</ele><time>2026-04-21T14:53:12.662Z</time></trkpt><trkpt lat="44.4559917" lon="9.3674617"><ele>516.4</ele><time>2026-04-21T14:53:13.661Z</time></trkpt><trkpt lat="44.456035" lon="9.36761"><ele>515.8000000000001</ele><time>2026-04-21T14:53:14.662Z</time></trkpt><trkpt lat="44.4560983" lon="9.367705"><ele>515.2</ele><time>2026-04-21T14:53:15.661Z</time></trkpt><trkpt lat="44.45618" lon="9.3677483"><ele>514.6</ele><time>2026-04-21T14:53:16.662Z</time></trkpt><trkpt lat="44.4563083" lon="9.3677483"><ele>514.0</ele><time>2026-04-21T14:53:17.661Z</time></trkpt><trkpt lat="44.456455" lon="9.3677283"><ele>514.0</ele><time>2026-04-21T14:53:18.662Z</time></trkpt><trkpt lat="44.4566017" lon="9.36766"><ele>514.0</ele><time>2026-04-21T14:53:19.661Z</time></trkpt><trkpt lat="44.4567233" lon="9.3676133"><ele>514.0</ele><time>2026-04-21T14:53:20.662Z</time></trkpt><trkpt lat="44.4568267" lon="9.3675967"><ele>514.0</ele><time>2026-04-21T14:53:21.661Z</time></trkpt><trkpt lat="44.4569167" lon="9.3676283"><ele>514.0</ele><time>2026-04-21T14:53:22.661Z</time></trkpt><trkpt lat="44.4570083" lon="9.3677017"><ele>514.0</ele><time>2026-04-21T14:53:23.661Z</time></trkpt><trkpt lat="44.45711" lon="9.3677767"><ele>514.0</ele><time>2026-04-21T14:53:24.661Z</time></trkpt><trkpt lat="44.4572167" lon="9.36785"><ele>514.0</ele><time>2026-04-21T14:53:25.661Z</time></trkpt><trkpt lat="44.457315" lon="9.36791"><ele>514.0</ele><time>2026-04-21T14:53:26.662Z</time></trkpt><trkpt lat="44.45743" lon="9.36794"><ele>514.6</ele><time>2026-04-21T14:53:27.662Z</time></trkpt><trkpt lat="44.45754" lon="9.3679267"><ele>515.2</ele><time>2026-04-21T14:53:28.662Z</time></trkpt><trkpt lat="44.457655" lon="9.3679167"><ele>515.8000000000001</ele><time>2026-04-21T14:53:29.662Z</time></trkpt><trkpt lat="44.4577533" lon="9.3679167"><ele>516.4</ele><time>2026-04-21T14:53:30.661Z</time></trkpt><trkpt lat="44.457835" lon="9.3679583"><ele>517.0</ele><time>2026-04-21T14:53:31.662Z</time></trkpt><trkpt lat="44.4579133" lon="9.3680417"><ele>521.4</ele><time>2026-04-21T14:53:32.662Z</time></trkpt><trkpt lat="44.457995" lon="9.368105"><ele>525.8000000000001</ele><time>2026-04-21T14:53:33.661Z</time></trkpt><trkpt lat="44.4580983" lon="9.3681467"><ele>530.2</ele><time>2026-04-21T14:53:34.661Z</time></trkpt><trkpt lat="44.458205" lon="9.3681517"><ele>534.6</ele><time>2026-04-21T14:53:35.662Z</time></trkpt><trkpt lat="44.4583" lon="9.3681483"><ele>539.0</ele><time>2026-04-21T14:53:36.661Z</time></trkpt><trkpt lat="44.458395" lon="9.3681717"><ele>539.0</ele><time>2026-04-21T14:53:37.661Z</time></trkpt><trkpt lat="44.45849" lon="9.3682217"><ele>539.0</ele><time>2026-04-21T14:53:38.661Z</time></trkpt><trkpt lat="44.4585733" lon="9.3682817"><ele>539.0</ele><time>2026-04-21T14:53:39.661Z</time></trkpt><trkpt lat="44.4586533" lon="9.3683667"><ele>539.0</ele><time>2026-04-21T14:53:40.662Z</time></trkpt><trkpt lat="44.45874" lon="9.3684533"><ele>539.0</ele><time>2026-04-21T14:53:41.661Z</time></trkpt><trkpt lat="44.4588317" lon="9.368535"><ele>540.4</ele><time>2026-04-21T14:53:42.662Z</time></trkpt><trkpt lat="44.458925" lon="9.3686083"><ele>541.8</ele><time>2026-04-21T14:53:43.661Z</time></trkpt><trkpt lat="44.45901" lon="9.3686517"><ele>543.2</ele><time>2026-04-21T14:53:44.662Z</time></trkpt><trkpt lat="44.4590983" lon="9.3686833"><ele>544.6</ele><time>2026-04-21T14:53:45.662Z</time></trkpt><trkpt lat="44.4591867" lon="9.3686983"><ele>546.0</ele><time>2026-04-21T14:53:46.662Z</time></trkpt><trkpt lat="44.4592617" lon="9.3686767"><ele>546.0</ele><time>2026-04-21T14:53:47.661Z</time></trkpt><trkpt lat="44.4593233" lon="9.3685917"><ele>546.0</ele><time>2026-04-21T14:53:48.661Z</time></trkpt><trkpt lat="44.4593683" lon="9.368475"><ele>546.0</ele><time>2026-04-21T14:53:49.661Z</time></trkpt><trkpt lat="44.45939" lon="9.368325"><ele>546.0</ele><time>2026-04-21T14:53:50.661Z</time></trkpt><trkpt lat="44.4594017" lon="9.368175"><ele>546.0</ele><time>2026-04-21T14:53:51.661Z</time></trkpt><trkpt lat="44.4593717" lon="9.3679817"><ele>547.0</ele><time>2026-04-21T14:53:52.662Z</time></trkpt><trkpt lat="44.4593267" lon="9.3677783"><ele>548.0</ele><time>2026-04-21T14:53:53.662Z</time></trkpt><trkpt lat="44.4592483" lon="9.3675117"><ele>549.0</ele><time>2026-04-21T14:53:54.662Z</time></trkpt><trkpt lat="44.4591967" lon="9.36726"><ele>549.6666666666666</ele><time>2026-04-21T14:53:55.661Z</time></trkpt><trkpt lat="44.45916" lon="9.3670067"><ele>550.3333333333333</ele><time>2026-04-21T14:53:56.661Z</time></trkpt><trkpt lat="44.45913" lon="9.3667567"><ele>551.0</ele><time>2026-04-21T14:53:57.662Z</time></trkpt><trkpt lat="44.45909" lon="9.366505"><ele>550.0</ele><time>2026-04-21T14:53:58.662Z</time></trkpt><trkpt lat="44.4590367" lon="9.366285"><ele>549.0</ele><time>2026-04-21T14:53:59.661Z</time></trkpt><trkpt lat="44.4589617" lon="9.3660967"><ele>548.0</ele><time>2026-04-21T14:54:00.662Z</time></trkpt><trkpt lat="44.4588783" lon="9.3659167"><ele>548.0</ele><time>2026-04-21T14:54:01.662Z</time></trkpt><trkpt lat="44.458805" lon="9.3657817"><ele>548.0</ele><time>2026-04-21T14:54:02.661Z</time></trkpt><trkpt lat="44.45877" lon="9.3656667"><ele>548.0</ele><time>2026-04-21T14:54:03.662Z</time></trkpt><trkpt lat="44.4587833" lon="9.3655517"><ele>548.0</ele><time>2026-04-21T14:54:04.661Z</time></trkpt><trkpt lat="44.4588167" lon="9.3654433"><ele>548.0</ele><time>2026-04-21T14:54:05.661Z</time></trkpt><trkpt lat="44.45888" lon="9.3653867"><ele>548.0</ele><time>2026-04-21T14:54:06.662Z</time></trkpt><trkpt lat="44.4589433" lon="9.3653783"><ele>548.0</ele><time>2026-04-21T14:54:07.661Z</time></trkpt><trkpt lat="44.45902" lon="9.3654167"><ele>548.0</ele><time>2026-04-21T14:54:08.662Z</time></trkpt><trkpt lat="44.4591067" lon="9.365475"><ele>548.0</ele><time>2026-04-21T14:54:09.661Z</time></trkpt><trkpt lat="44.4592067" lon="9.36559"><ele>548.0</ele><time>2026-04-21T14:54:10.661Z</time></trkpt><trkpt lat="44.45931" lon="9.3657083"><ele>548.0</ele><time>2026-04-21T14:54:11.661Z</time></trkpt><trkpt lat="44.459425" lon="9.365835"><ele>548.0</ele><time>2026-04-21T14:54:12.661Z</time></trkpt><trkpt lat="44.45956" lon="9.3659517"><ele>548.0</ele><time>2026-04-21T14:54:13.662Z</time></trkpt><trkpt lat="44.459715" lon="9.366035"><ele>549.3333333333333</ele><time>2026-04-21T14:54:14.662Z</time></trkpt><trkpt lat="44.45987" lon="9.3660933"><ele>550.6666666666666</ele><time>2026-04-21T14:54:15.661Z</time></trkpt><trkpt lat="44.4600283" lon="9.36614"><ele>552.0</ele><time>2026-04-21T14:54:16.662Z</time></trkpt><trkpt lat="44.460185" lon="9.3661867"><ele>552.0</ele><time>2026-04-21T14:54:17.661Z</time></trkpt><trkpt lat="44.46036" lon="9.3662517"><ele>552.0</ele><time>2026-04-21T14:54:18.661Z</time></trkpt><trkpt lat="44.4605317" lon="9.3663417"><ele>552.0</ele><time>2026-04-21T14:54:19.662Z</time></trkpt><trkpt lat="44.4606867" lon="9.366445"><ele>558.25</ele><time>2026-04-21T14:54:20.661Z</time></trkpt><trkpt lat="44.4608233" lon="9.3665267"><ele>564.5</ele><time>2026-04-21T14:54:21.661Z</time></trkpt><trkpt lat="44.460965" lon="9.36658"><ele>570.75</ele><time>2026-04-21T14:54:22.661Z</time></trkpt><trkpt lat="44.461115" lon="9.366605"><ele>577.0</ele><time>2026-04-21T14:54:23.662Z</time></trkpt><trkpt lat="44.4612633" lon="9.36659"><ele>576.3333333333334</ele><time>2026-04-21T14:54:24.662Z</time></trkpt><trkpt lat="44.4614217" lon="9.3665733"><ele>575.6666666666666</ele><time>2026-04-21T14:54:25.661Z</time></trkpt><trkpt lat="44.4615917" lon="9.36654"><ele>575.0</ele><time>2026-04-21T14:54:26.661Z</time></trkpt><trkpt lat="44.46176" lon="9.3665033"><ele>575.0</ele><time>2026-04-21T14:54:27.662Z</time></trkpt><trkpt lat="44.4619333" lon="9.366425"><ele>575.0</ele><time>2026-04-21T14:54:28.662Z</time></trkpt><trkpt lat="44.4621067" lon="9.366345"><ele>575.0</ele><time>2026-04-21T14:54:29.661Z</time></trkpt><trkpt lat="44.462275" lon="9.3662283"><ele>572.3333333333333</ele><time>2026-04-21T14:54:30.661Z</time></trkpt><trkpt lat="44.4624333" lon="9.366125"><ele>569.6666666666666</ele><time>2026-04-21T14:54:31.662Z</time></trkpt><trkpt lat="44.462585" lon="9.3660317"><ele>567.0</ele><time>2026-04-21T14:54:32.662Z</time></trkpt><trkpt lat="44.4627183" lon="9.3659333"><ele>567.0</ele><time>2026-04-21T14:54:33.662Z</time></trkpt><trkpt lat="44.4628367" lon="9.3658283"><ele>567.0</ele><time>2026-04-21T14:54:34.662Z</time></trkpt><trkpt lat="44.462935" lon="9.3657033"><ele>567.0</ele><time>2026-04-21T14:54:35.662Z</time></trkpt><trkpt lat="44.463015" lon="9.3655833"><ele>567.0</ele><time>2026-04-21T14:54:36.662Z</time></trkpt><trkpt lat="44.463085" lon="9.365495"><ele>564.5</ele><time>2026-04-21T14:54:37.661Z</time></trkpt><trkpt lat="44.4631517" lon="9.3654417"><ele>562.0</ele><time>2026-04-21T14:54:38.661Z</time></trkpt><trkpt lat="44.4633017" lon="9.3654433"><ele>559.5</ele><time>2026-04-21T14:54:40.661Z</time></trkpt><trkpt lat="44.46341" lon="9.3654767"><ele>557.0</ele><time>2026-04-21T14:54:41.661Z</time></trkpt><trkpt lat="44.4635433" lon="9.36551"><ele>557.0</ele><time>2026-04-21T14:54:42.661Z</time></trkpt><trkpt lat="44.4636567" lon="9.3655183"><ele>557.0</ele><time>2026-04-21T14:54:43.661Z</time></trkpt><trkpt lat="44.4637567" lon="9.3654783"><ele>557.0</ele><time>2026-04-21T14:54:44.661Z</time></trkpt><trkpt lat="44.463845" lon="9.36539"><ele>557.0</ele><time>2026-04-21T14:54:45.661Z</time></trkpt><trkpt lat="44.4639333" lon="9.3652817"><ele>557.0</ele><time>2026-04-21T14:54:46.661Z</time></trkpt><trkpt lat="44.46402" lon="9.3651517"><ele>559.25</ele><time>2026-04-21T14:54:47.661Z</time></trkpt><trkpt lat="44.4641083" lon="9.3650117"><ele>561.5</ele><time>2026-04-21T14:54:48.662Z</time></trkpt><trkpt lat="44.4641967" lon="9.3648617"><ele>563.75</ele><time>2026-04-21T14:54:49.662Z</time></trkpt><trkpt lat="44.4642867" lon="9.3647283"><ele>566.0</ele><time>2026-04-21T14:54:50.661Z</time></trkpt><trkpt lat="44.4643683" lon="9.3646"><ele>566.0</ele><time>2026-04-21T14:54:51.662Z</time></trkpt><trkpt lat="44.4644467" lon="9.3645133"><ele>566.0</ele><time>2026-04-21T14:54:52.662Z</time></trkpt><trkpt lat="44.46453" lon="9.3644683"><ele>566.0</ele><time>2026-04-21T14:54:53.662Z</time></trkpt><trkpt lat="44.464625" lon="9.36445"><ele>566.0</ele><time>2026-04-21T14:54:54.661Z</time></trkpt><trkpt lat="44.464735" lon="9.3644317"><ele>566.0</ele><time>2026-04-21T14:54:55.661Z</time></trkpt><trkpt lat="44.46487" lon="9.3644083"><ele>569.75</ele><time>2026-04-21T14:54:56.662Z</time></trkpt><trkpt lat="44.465" lon="9.3643933"><ele>573.5</ele><time>2026-04-21T14:54:57.662Z</time></trkpt><trkpt lat="44.4651267" lon="9.364375"><ele>577.25</ele><time>2026-04-21T14:54:58.661Z</time></trkpt><trkpt lat="44.4652633" lon="9.3643567"><ele>581.0</ele><time>2026-04-21T14:54:59.662Z</time></trkpt><trkpt lat="44.465415" lon="9.3643267"><ele>582.0</ele><time>2026-04-21T14:55:00.662Z</time></trkpt><trkpt lat="44.4655617" lon="9.3643183"><ele>583.0</ele><time>2026-04-21T14:55:01.661Z</time></trkpt><trkpt lat="44.4657117" lon="9.36433"><ele>584.0</ele><time>2026-04-21T14:55:02.661Z</time></trkpt><trkpt lat="44.4658567" lon="9.3643683"><ele>585.0</ele><time>2026-04-21T14:55:03.661Z</time></trkpt><trkpt lat="44.466005" lon="9.3644283"><ele>585.0</ele><time>2026-04-21T14:55:04.661Z</time></trkpt><trkpt lat="44.4661533" lon="9.3645133"><ele>585.0</ele><time>2026-04-21T14:55:05.662Z</time></trkpt><trkpt lat="44.4662967" lon="9.3646017"><ele>585.0</ele><time>2026-04-21T14:55:06.661Z</time></trkpt><trkpt lat="44.4664383" lon="9.3647"><ele>590.25</ele><time>2026-04-21T14:55:07.661Z</time></trkpt><trkpt lat="44.466565" lon="9.3647783"><ele>595.5</ele><time>2026-04-21T14:55:08.661Z</time></trkpt><trkpt lat="44.4666917" lon="9.3648567"><ele>600.75</ele><time>2026-04-21T14:55:09.662Z</time></trkpt><trkpt lat="44.4668133" lon="9.3649133"><ele>606.0</ele><time>2026-04-21T14:55:10.661Z</time></trkpt><trkpt lat="44.4669167" lon="9.36494"><ele>606.0</ele><time>2026-04-21T14:55:11.662Z</time></trkpt><trkpt lat="44.4670233" lon="9.3649283"><ele>606.0</ele><time>2026-04-21T14:55:12.662Z</time></trkpt><trkpt lat="44.467105" lon="9.3648667"><ele>606.0</ele><time>2026-04-21T14:55:13.662Z</time></trkpt><trkpt lat="44.4671867" lon="9.36477"><ele>606.0</ele><time>2026-04-21T14:55:14.661Z</time></trkpt><trkpt lat="44.4672617" lon="9.3646267"><ele>606.0</ele><time>2026-04-21T14:55:15.661Z</time></trkpt><trkpt lat="44.46735" lon="9.3645067"><ele>603.8</ele><time>2026-04-21T14:55:16.662Z</time></trkpt><trkpt lat="44.4674267" lon="9.3643983"><ele>601.6</ele><time>2026-04-21T14:55:17.661Z</time></trkpt><trkpt lat="44.4675033" lon="9.3643467"><ele>599.4</ele><time>2026-04-21T14:55:18.661Z</time></trkpt><trkpt lat="44.4676383" lon="9.3643517"><ele>597.2</ele><time>2026-04-21T14:55:20.662Z</time></trkpt><trkpt lat="44.46771" lon="9.36444"><ele>595.0</ele><time>2026-04-21T14:55:21.661Z</time></trkpt><trkpt lat="44.4677517" lon="9.3645633"><ele>596.6</ele><time>2026-04-21T14:55:22.661Z</time></trkpt><trkpt lat="44.4677567" lon="9.3646983"><ele>598.2</ele><time>2026-04-21T14:55:23.661Z</time></trkpt><trkpt lat="44.4677383" lon="9.3648167"><ele>599.8</ele><time>2026-04-21T14:55:24.662Z</time></trkpt><trkpt lat="44.46767" lon="9.3649367"><ele>601.4</ele><time>2026-04-21T14:55:25.661Z</time></trkpt><trkpt lat="44.4675717" lon="9.3650183"><ele>603.0</ele><time>2026-04-21T14:55:26.661Z</time></trkpt><trkpt lat="44.4674483" lon="9.365105"><ele>603.0</ele><time>2026-04-21T14:55:27.661Z</time></trkpt><trkpt lat="44.4673017" lon="9.36515"><ele>603.0</ele><time>2026-04-21T14:55:28.661Z</time></trkpt><trkpt lat="44.4671167" lon="9.3651783"><ele>603.0</ele><time>2026-04-21T14:55:29.662Z</time></trkpt><trkpt lat="44.466955" lon="9.3651783"><ele>603.75</ele><time>2026-04-21T14:55:30.661Z</time></trkpt><trkpt lat="44.46681" lon="9.3651483"><ele>604.5</ele><time>2026-04-21T14:55:31.661Z</time></trkpt><trkpt lat="44.466675" lon="9.3651083"><ele>605.25</ele><time>2026-04-21T14:55:32.661Z</time></trkpt><trkpt lat="44.4665267" lon="9.36507"><ele>606.0</ele><time>2026-04-21T14:55:33.661Z</time></trkpt><trkpt lat="44.46637" lon="9.365025"><ele>606.3333333333334</ele><time>2026-04-21T14:55:34.662Z</time></trkpt><trkpt lat="44.466215" lon="9.3649833"><ele>606.6666666666667</ele><time>2026-04-21T14:55:35.662Z</time></trkpt><trkpt lat="44.466065" lon="9.3649517"><ele>607.0</ele><time>2026-04-21T14:55:36.662Z</time></trkpt><trkpt lat="44.46593" lon="9.3648867"><ele>607.0</ele><time>2026-04-21T14:55:37.662Z</time></trkpt><trkpt lat="44.4658183" lon="9.3648533"><ele>607.0</ele><time>2026-04-21T14:55:38.661Z</time></trkpt><trkpt lat="44.4657317" lon="9.364835"><ele>607.0</ele><time>2026-04-21T14:55:39.662Z</time></trkpt><trkpt lat="44.4656567" lon="9.36485"><ele>607.0</ele><time>2026-04-21T14:55:40.661Z</time></trkpt><trkpt lat="44.46559" lon="9.3649067"><ele>607.0</ele><time>2026-04-21T14:55:41.661Z</time></trkpt><trkpt lat="44.4655233" lon="9.3649967"><ele>607.0</ele><time>2026-04-21T14:55:42.662Z</time></trkpt><trkpt lat="44.465485" lon="9.3651167"><ele>607.0</ele><time>2026-04-21T14:55:43.662Z</time></trkpt><trkpt lat="44.46546" lon="9.3652533"><ele>607.0</ele><time>2026-04-21T14:55:44.661Z</time></trkpt><trkpt lat="44.465475" lon="9.365415"><ele>607.0</ele><time>2026-04-21T14:55:45.661Z</time></trkpt><trkpt lat="44.4655" lon="9.3655933"><ele>607.0</ele><time>2026-04-21T14:55:46.661Z</time></trkpt><trkpt lat="44.465515" lon="9.3657533"><ele>607.4</ele><time>2026-04-21T14:55:47.662Z</time></trkpt><trkpt lat="44.4654833" lon="9.3659"><ele>607.8000000000001</ele><time>2026-04-21T14:55:48.661Z</time></trkpt><trkpt lat="44.4654183" lon="9.3660267"><ele>608.2</ele><time>2026-04-21T14:55:49.661Z</time></trkpt><trkpt lat="44.4653667" lon="9.3661433"><ele>608.6</ele><time>2026-04-21T14:55:50.661Z</time></trkpt><trkpt lat="44.465335" lon="9.3662717"><ele>609.0</ele><time>2026-04-21T14:55:51.661Z</time></trkpt><trkpt lat="44.46534" lon="9.3664383"><ele>611.0</ele><time>2026-04-21T14:55:52.662Z</time></trkpt><trkpt lat="44.46536" lon="9.366605"><ele>613.0</ele><time>2026-04-21T14:55:53.661Z</time></trkpt><trkpt lat="44.46538" lon="9.3667617"><ele>615.0</ele><time>2026-04-21T14:55:54.661Z</time></trkpt><trkpt lat="44.4653783" lon="9.3668983"><ele>617.0</ele><time>2026-04-21T14:55:55.662Z</time></trkpt><trkpt lat="44.4653517" lon="9.367"><ele>619.0</ele><time>2026-04-21T14:55:56.662Z</time></trkpt><trkpt lat="44.4652983" lon="9.3670717"><ele>619.0</ele><time>2026-04-21T14:55:57.662Z</time></trkpt><trkpt lat="44.465235" lon="9.3671017"><ele>619.0</ele><time>2026-04-21T14:55:58.661Z</time></trkpt><trkpt lat="44.4651517" lon="9.36708"><ele>619.0</ele><time>2026-04-21T14:55:59.661Z</time></trkpt><trkpt lat="44.4650617" lon="9.3670217"><ele>619.0</ele><time>2026-04-21T14:56:00.662Z</time></trkpt><trkpt lat="44.464985" lon="9.3669067"><ele>619.0</ele><time>2026-04-21T14:56:01.661Z</time></trkpt><trkpt lat="44.464915" lon="9.36679"><ele>619.0</ele><time>2026-04-21T14:56:02.662Z</time></trkpt><trkpt lat="44.4648467" lon="9.366705"><ele>619.0</ele><time>2026-04-21T14:56:03.662Z</time></trkpt><trkpt lat="44.4647783" lon="9.3666767"><ele>619.0</ele><time>2026-04-21T14:56:04.661Z</time></trkpt><trkpt lat="44.4647083" lon="9.3667"><ele>619.0</ele><time>2026-04-21T14:56:05.661Z</time></trkpt><trkpt lat="44.4646467" lon="9.36676"><ele>619.0</ele><time>2026-04-21T14:56:06.661Z</time></trkpt><trkpt lat="44.4646133" lon="9.3668783"><ele>619.0</ele><time>2026-04-21T14:56:07.661Z</time></trkpt><trkpt lat="44.4646183" lon="9.3669967"><ele>619.0</ele><time>2026-04-21T14:56:08.662Z</time></trkpt><trkpt lat="44.4646617" lon="9.367135"><ele>619.0</ele><time>2026-04-21T14:56:09.661Z</time></trkpt><trkpt lat="44.4647367" lon="9.3672783"><ele>619.0</ele><time>2026-04-21T14:56:10.661Z</time></trkpt><trkpt lat="44.4648367" lon="9.367425"><ele>619.0</ele><time>2026-04-21T14:56:11.661Z</time></trkpt><trkpt lat="44.4649617" lon="9.36757"><ele>620.75</ele><time>2026-04-21T14:56:12.661Z</time></trkpt><trkpt lat="44.465075" lon="9.3677"><ele>622.5</ele><time>2026-04-21T14:56:13.661Z</time></trkpt><trkpt lat="44.4651933" lon="9.3678033"><ele>624.25</ele><time>2026-04-21T14:56:14.661Z</time></trkpt><trkpt lat="44.4653133" lon="9.3678733"><ele>626.0</ele><time>2026-04-21T14:56:15.661Z</time></trkpt><trkpt lat="44.4654233" lon="9.3679033"><ele>629.25</ele><time>2026-04-21T14:56:16.661Z</time></trkpt><trkpt lat="44.4655267" lon="9.3678983"><ele>632.5</ele><time>2026-04-21T14:56:17.661Z</time></trkpt><trkpt lat="44.4656267" lon="9.3678467"><ele>635.75</ele><time>2026-04-21T14:56:18.661Z</time></trkpt><trkpt lat="44.465735" lon="9.3677467"><ele>639.0</ele><time>2026-04-21T14:56:19.661Z</time></trkpt><trkpt lat="44.4658383" lon="9.3676017"><ele>639.0</ele><time>2026-04-21T14:56:20.662Z</time></trkpt><trkpt lat="44.4659183" lon="9.3674783"><ele>639.0</ele><time>2026-04-21T14:56:21.661Z</time></trkpt><trkpt lat="44.4659517" lon="9.3673217"><ele>639.0</ele><time>2026-04-21T14:56:22.661Z</time></trkpt><trkpt lat="44.465995" lon="9.3671517"><ele>639.0</ele><time>2026-04-21T14:56:23.661Z</time></trkpt><trkpt lat="44.4660333" lon="9.3669967"><ele>636.25</ele><time>2026-04-21T14:56:24.661Z</time></trkpt><trkpt lat="44.4660833" lon="9.3668583"><ele>633.5</ele><time>2026-04-21T14:56:25.662Z</time></trkpt><trkpt lat="44.4661367" lon="9.3667133"><ele>630.75</ele><time>2026-04-21T14:56:26.662Z</time></trkpt><trkpt lat="44.4661983" lon="9.3665617"><ele>628.0</ele><time>2026-04-21T14:56:27.661Z</time></trkpt><trkpt lat="44.4662683" lon="9.366405"><ele>627.25</ele><time>2026-04-21T14:56:28.661Z</time></trkpt><trkpt lat="44.46635" lon="9.3662617"><ele>626.5</ele><time>2026-04-21T14:56:29.662Z</time></trkpt><trkpt lat="44.4664417" lon="9.3661367"><ele>625.75</ele><time>2026-04-21T14:56:30.661Z</time></trkpt><trkpt lat="44.46654" lon="9.3660333"><ele>625.0</ele><time>2026-04-21T14:56:31.661Z</time></trkpt><trkpt lat="44.46664" lon="9.3659733"><ele>625.0</ele><time>2026-04-21T14:56:32.661Z</time></trkpt><trkpt lat="44.46673" lon="9.3659483"><ele>625.0</ele><time>2026-04-21T14:56:33.662Z</time></trkpt><trkpt lat="44.466805" lon="9.36599"><ele>625.0</ele><time>2026-04-21T14:56:34.662Z</time></trkpt><trkpt lat="44.466875" lon="9.3660683"><ele>625.0</ele><time>2026-04-21T14:56:35.662Z</time></trkpt><trkpt lat="44.466915" lon="9.3661717"><ele>625.0</ele><time>2026-04-21T14:56:36.661Z</time></trkpt><trkpt lat="44.466915" lon="9.3663"><ele>625.0</ele><time>2026-04-21T14:56:37.662Z</time></trkpt><trkpt lat="44.46688" lon="9.3664183"><ele>629.0</ele><time>2026-04-21T14:56:38.662Z</time></trkpt><trkpt lat="44.466795" lon="9.36651"><ele>633.0</ele><time>2026-04-21T14:56:39.661Z</time></trkpt><trkpt lat="44.4666883" lon="9.3665733"><ele>637.0</ele><time>2026-04-21T14:56:40.661Z</time></trkpt><trkpt lat="44.46656" lon="9.3666433"><ele>641.0</ele><time>2026-04-21T14:56:41.662Z</time></trkpt><trkpt lat="44.4664617" lon="9.36674"><ele>641.0</ele><time>2026-04-21T14:56:42.661Z</time></trkpt><trkpt lat="44.4663783" lon="9.3668517"><ele>641.0</ele><time>2026-04-21T14:56:43.662Z</time></trkpt><trkpt lat="44.4663017" lon="9.36697"><ele>641.0</ele><time>2026-04-21T14:56:44.661Z</time></trkpt><trkpt lat="44.46625" lon="9.36715"><ele>641.0</ele><time>2026-04-21T14:56:45.662Z</time></trkpt><trkpt lat="44.46621" lon="9.3673333"><ele>640.5</ele><time>2026-04-21T14:56:46.662Z</time></trkpt><trkpt lat="44.4661783" lon="9.3675317"><ele>640.0</ele><time>2026-04-21T14:56:47.661Z</time></trkpt><trkpt lat="44.466155" lon="9.3677367"><ele>639.5</ele><time>2026-04-21T14:56:48.661Z</time></trkpt><trkpt lat="44.4661433" lon="9.367955"><ele>639.0</ele><time>2026-04-21T14:56:49.661Z</time></trkpt><trkpt lat="44.4661217" lon="9.3681717"><ele>641.0</ele><time>2026-04-21T14:56:50.661Z</time></trkpt><trkpt lat="44.4660883" lon="9.3683783"><ele>643.0</ele><time>2026-04-21T14:56:51.662Z</time></trkpt><trkpt lat="44.4660417" lon="9.3685617"><ele>645.0</ele><time>2026-04-21T14:56:52.661Z</time></trkpt><trkpt lat="44.4659767" lon="9.3687183"><ele>647.0</ele><time>2026-04-21T14:56:53.661Z</time></trkpt><trkpt lat="44.46587" lon="9.3688383"><ele>646.5</ele><time>2026-04-21T14:56:54.662Z</time></trkpt><trkpt lat="44.4657367" lon="9.368945"><ele>646.0</ele><time>2026-04-21T14:56:55.661Z</time></trkpt><trkpt lat="44.4656133" lon="9.3690383"><ele>645.5</ele><time>2026-04-21T14:56:56.661Z</time></trkpt><trkpt lat="44.4654967" lon="9.3691033"><ele>645.0</ele><time>2026-04-21T14:56:57.662Z</time></trkpt><trkpt lat="44.4654" lon="9.3691533"><ele>645.0</ele><time>2026-04-21T14:56:58.661Z</time></trkpt><trkpt lat="44.4653283" lon="9.3692167"><ele>645.0</ele><time>2026-04-21T14:56:59.661Z</time></trkpt><trkpt lat="44.4652817" lon="9.369335"><ele>645.0</ele><time>2026-04-21T14:57:00.662Z</time></trkpt><trkpt lat="44.4652767" lon="9.3694633"><ele>645.0</ele><time>2026-04-21T14:57:01.661Z</time></trkpt><trkpt lat="44.4652767" lon="9.3696083"><ele>645.0</ele><time>2026-04-21T14:57:02.661Z</time></trkpt><trkpt lat="44.4653067" lon="9.36979"><ele>648.4</ele><time>2026-04-21T14:57:03.662Z</time></trkpt><trkpt lat="44.4653133" lon="9.3699717"><ele>651.8</ele><time>2026-04-21T14:57:04.662Z</time></trkpt><trkpt lat="44.46529" lon="9.3701383"><ele>655.2</ele><time>2026-04-21T14:57:05.662Z</time></trkpt><trkpt lat="44.465245" lon="9.37025"><ele>658.6</ele><time>2026-04-21T14:57:06.662Z</time></trkpt><trkpt lat="44.46518" lon="9.3703167"><ele>662.0</ele><time>2026-04-21T14:57:07.661Z</time></trkpt><trkpt lat="44.465105" lon="9.3703367"><ele>662.0</ele><time>2026-04-21T14:57:08.661Z</time></trkpt><trkpt lat="44.465015" lon="9.3703083"><ele>662.0</ele><time>2026-04-21T14:57:09.661Z</time></trkpt><trkpt lat="44.4649133" lon="9.3702383"><ele>662.0</ele><time>2026-04-21T14:57:10.662Z</time></trkpt><trkpt lat="44.464805" lon="9.37012"><ele>662.0</ele><time>2026-04-21T14:57:11.662Z</time></trkpt><trkpt lat="44.464715" lon="9.3699917"><ele>662.0</ele><time>2026-04-21T14:57:12.661Z</time></trkpt><trkpt lat="44.4646267" lon="9.36989"><ele>662.0</ele><time>2026-04-21T14:57:13.662Z</time></trkpt><trkpt lat="44.4645367" lon="9.36986"><ele>662.0</ele><time>2026-04-21T14:57:14.661Z</time></trkpt><trkpt lat="44.4644283" lon="9.3698583"><ele>662.0</ele><time>2026-04-21T14:57:15.661Z</time></trkpt><trkpt lat="44.464315" lon="9.369905"><ele>662.0</ele><time>2026-04-21T14:57:16.661Z</time></trkpt><trkpt lat="44.4641917" lon="9.3699667"><ele>661.25</ele><time>2026-04-21T14:57:17.661Z</time></trkpt><trkpt lat="44.4640667" lon="9.3700467"><ele>660.5</ele><time>2026-04-21T14:57:18.661Z</time></trkpt><trkpt lat="44.4639417" lon="9.370115"><ele>659.75</ele><time>2026-04-21T14:57:19.662Z</time></trkpt><trkpt lat="44.4638217" lon="9.3701483"><ele>659.0</ele><time>2026-04-21T14:57:20.661Z</time></trkpt><trkpt lat="44.46372" lon="9.3701633"><ele>660.8333333333333</ele><time>2026-04-21T14:57:21.661Z</time></trkpt><trkpt lat="44.46364" lon="9.37019"><ele>662.6666666666666</ele><time>2026-04-21T14:57:22.662Z</time></trkpt><trkpt lat="44.463565" lon="9.370235"><ele>664.5</ele><time>2026-04-21T14:57:23.662Z</time></trkpt><trkpt lat="44.4635167" lon="9.3702967"><ele>666.3333333333334</ele><time>2026-04-21T14:57:24.662Z</time></trkpt><trkpt lat="44.463505" lon="9.3704617"><ele>668.1666666666667</ele><time>2026-04-21T14:57:26.661Z</time></trkpt><trkpt lat="44.46355" lon="9.37055"><ele>670.0</ele><time>2026-04-21T14:57:27.661Z</time></trkpt><trkpt lat="44.4636317" lon="9.370605"><ele>672.25</ele><time>2026-04-21T14:57:28.661Z</time></trkpt><trkpt lat="44.46373" lon="9.3706133"><ele>674.5</ele><time>2026-04-21T14:57:29.661Z</time></trkpt><trkpt lat="44.46383" lon="9.3705617"><ele>676.75</ele><time>2026-04-21T14:57:30.661Z</time></trkpt><trkpt lat="44.46393" lon="9.37048"><ele>679.0</ele><time>2026-04-21T14:57:31.661Z</time></trkpt><trkpt lat="44.4640433" lon="9.3703567"><ele>674.0</ele><time>2026-04-21T14:57:32.662Z</time></trkpt><trkpt lat="44.4641783" lon="9.3702367"><ele>669.0</ele><time>2026-04-21T14:57:33.661Z</time></trkpt><trkpt lat="44.4643067" lon="9.37017"><ele>664.0</ele><time>2026-04-21T14:57:34.662Z</time></trkpt><trkpt lat="44.464435" lon="9.3701417"><ele>659.0</ele><time>2026-04-21T14:57:35.662Z</time></trkpt><trkpt lat="44.4645467" lon="9.3701517"><ele>659.6</ele><time>2026-04-21T14:57:36.661Z</time></trkpt><trkpt lat="44.464635" lon="9.37021"><ele>660.2</ele><time>2026-04-21T14:57:37.662Z</time></trkpt><trkpt lat="44.46471" lon="9.37029"><ele>660.8000000000001</ele><time>2026-04-21T14:57:38.662Z</time></trkpt><trkpt lat="44.4647567" lon="9.3704"><ele>661.4000000000001</ele><time>2026-04-21T14:57:39.662Z</time></trkpt><trkpt lat="44.464785" lon="9.3705133"><ele>662.0</ele><time>2026-04-21T14:57:40.661Z</time></trkpt><trkpt lat="44.4647933" lon="9.3706817"><ele>665.0</ele><time>2026-04-21T14:57:41.662Z</time></trkpt><trkpt lat="44.4647983" lon="9.3708517"><ele>668.0</ele><time>2026-04-21T14:57:42.661Z</time></trkpt><trkpt lat="44.464805" lon="9.37102"><ele>671.0</ele><time>2026-04-21T14:57:43.661Z</time></trkpt><trkpt lat="44.46485" lon="9.3711583"><ele>674.0</ele><time>2026-04-21T14:57:44.662Z</time></trkpt><trkpt lat="44.464925" lon="9.3712633"><ele>674.0</ele><time>2026-04-21T14:57:45.661Z</time></trkpt><trkpt lat="44.4650217" lon="9.371355"><ele>674.0</ele><time>2026-04-21T14:57:46.662Z</time></trkpt><trkpt lat="44.4651183" lon="9.3714167"><ele>674.0</ele><time>2026-04-21T14:57:47.662Z</time></trkpt><trkpt lat="44.4652" lon="9.3714383"><ele>674.0</ele><time>2026-04-21T14:57:48.661Z</time></trkpt><trkpt lat="44.4653033" lon="9.3714233"><ele>674.0</ele><time>2026-04-21T14:57:49.662Z</time></trkpt><trkpt lat="44.465395" lon="9.37138"><ele>676.75</ele><time>2026-04-21T14:57:50.662Z</time></trkpt><trkpt lat="44.4654783" lon="9.3712933"><ele>679.5</ele><time>2026-04-21T14:57:51.662Z</time></trkpt><trkpt lat="44.46552" lon="9.3711683"><ele>682.25</ele><time>2026-04-21T14:57:52.661Z</time></trkpt><trkpt lat="44.4655283" lon="9.3709983"><ele>685.0</ele><time>2026-04-21T14:57:53.662Z</time></trkpt><trkpt lat="44.4655217" lon="9.370795"><ele>685.0</ele><time>2026-04-21T14:57:54.662Z</time></trkpt><trkpt lat="44.465515" lon="9.3705717"><ele>685.0</ele><time>2026-04-21T14:57:55.662Z</time></trkpt><trkpt lat="44.4655433" lon="9.37034"><ele>685.0</ele><time>2026-04-21T14:57:56.661Z</time></trkpt><trkpt lat="44.4655883" lon="9.3701417"><ele>682.75</ele><time>2026-04-21T14:57:57.661Z</time></trkpt><trkpt lat="44.4656267" lon="9.3699667"><ele>680.5</ele><time>2026-04-21T14:57:58.662Z</time></trkpt><trkpt lat="44.465675" lon="9.3698283"><ele>678.25</ele><time>2026-04-21T14:57:59.661Z</time></trkpt><trkpt lat="44.46575" lon="9.3697317"><ele>676.0</ele><time>2026-04-21T14:58:00.662Z</time></trkpt><trkpt lat="44.4658483" lon="9.3696667"><ele>675.75</ele><time>2026-04-21T14:58:01.662Z</time></trkpt><trkpt lat="44.46596" lon="9.3696417"><ele>675.5</ele><time>2026-04-21T14:58:02.662Z</time></trkpt><trkpt lat="44.4660867" lon="9.3696317"><ele>675.25</ele><time>2026-04-21T14:58:03.661Z</time></trkpt><trkpt lat="44.4662217" lon="9.3696367"><ele>675.0</ele><time>2026-04-21T14:58:04.661Z</time></trkpt><trkpt lat="44.4663533" lon="9.3696567"><ele>678.3333333333334</ele><time>2026-04-21T14:58:05.661Z</time></trkpt><trkpt lat="44.466515" lon="9.369695"><ele>681.6666666666667</ele><time>2026-04-21T14:58:06.661Z</time></trkpt><trkpt lat="44.466665" lon="9.3697367"><ele>685.0</ele><time>2026-04-21T14:58:07.661Z</time></trkpt><trkpt lat="44.46682" lon="9.3697617"><ele>685.0</ele><time>2026-04-21T14:58:08.662Z</time></trkpt><trkpt lat="44.4669617" lon="9.3697367"><ele>685.0</ele><time>2026-04-21T14:58:09.661Z</time></trkpt><trkpt lat="44.4670783" lon="9.3696733"><ele>685.0</ele><time>2026-04-21T14:58:10.662Z</time></trkpt><trkpt lat="44.4671767" lon="9.36956"><ele>685.0</ele><time>2026-04-21T14:58:11.661Z</time></trkpt><trkpt lat="44.46727" lon="9.3694317"><ele>684.0</ele><time>2026-04-21T14:58:12.662Z</time></trkpt><trkpt lat="44.4673567" lon="9.369315"><ele>683.0</ele><time>2026-04-21T14:58:13.662Z</time></trkpt><trkpt lat="44.467465" lon="9.369225"><ele>682.0</ele><time>2026-04-21T14:58:14.661Z</time></trkpt><trkpt lat="44.467595" lon="9.3691717"><ele>681.0</ele><time>2026-04-21T14:58:15.661Z</time></trkpt><trkpt lat="44.467725" lon="9.3691267"><ele>681.0</ele><time>2026-04-21T14:58:16.661Z</time></trkpt><trkpt lat="44.467865" lon="9.3690783"><ele>681.0</ele><time>2026-04-21T14:58:17.662Z</time></trkpt><trkpt lat="44.46801" lon="9.3690067"><ele>681.0</ele><time>2026-04-21T14:58:18.662Z</time></trkpt><trkpt lat="44.4681483" lon="9.36892"><ele>681.0</ele><time>2026-04-21T14:58:19.661Z</time></trkpt><trkpt lat="44.4682833" lon="9.3688217"><ele>680.3333333333334</ele><time>2026-04-21T14:58:20.661Z</time></trkpt><trkpt lat="44.4684233" lon="9.36874"><ele>679.6666666666667</ele><time>2026-04-21T14:58:21.661Z</time></trkpt><trkpt lat="44.4685683" lon="9.368675"><ele>679.0</ele><time>2026-04-21T14:58:22.661Z</time></trkpt><trkpt lat="44.4687183" lon="9.3686183"><ele>681.0</ele><time>2026-04-21T14:58:23.661Z</time></trkpt><trkpt lat="44.46887" lon="9.3685817"><ele>683.0</ele><time>2026-04-21T14:58:24.661Z</time></trkpt><trkpt lat="44.469015" lon="9.36855"><ele>685.0</ele><time>2026-04-21T14:58:25.661Z</time></trkpt><trkpt lat="44.4691567" lon="9.3685283"><ele>687.0</ele><time>2026-04-21T14:58:26.661Z</time></trkpt><trkpt lat="44.4693033" lon="9.3685183"><ele>687.0</ele><time>2026-04-21T14:58:27.661Z</time></trkpt><trkpt lat="44.469455" lon="9.3684917"><ele>687.0</ele><time>2026-04-21T14:58:28.661Z</time></trkpt><trkpt lat="44.46962" lon="9.368495"><ele>687.0</ele><time>2026-04-21T14:58:29.662Z</time></trkpt><trkpt lat="44.4697883" lon="9.3685117"><ele>688.6666666666666</ele><time>2026-04-21T14:58:30.662Z</time></trkpt><trkpt lat="44.46996" lon="9.3685567"><ele>690.3333333333333</ele><time>2026-04-21T14:58:31.661Z</time></trkpt><trkpt lat="44.4701167" lon="9.3685983"><ele>692.0</ele><time>2026-04-21T14:58:32.661Z</time></trkpt><trkpt lat="44.4702583" lon="9.3686167"><ele>692.0</ele><time>2026-04-21T14:58:33.662Z</time></trkpt><trkpt lat="44.4703833" lon="9.3685817"><ele>692.0</ele><time>2026-04-21T14:58:34.661Z</time></trkpt><trkpt lat="44.4704817" lon="9.368525"><ele>692.0</ele><time>2026-04-21T14:58:35.661Z</time></trkpt><trkpt lat="44.4705933" lon="9.3684217"><ele>692.0</ele><time>2026-04-21T14:58:36.662Z</time></trkpt><trkpt lat="44.47069" lon="9.36828"><ele>692.25</ele><time>2026-04-21T14:58:37.662Z</time></trkpt><trkpt lat="44.47079" lon="9.3681167"><ele>692.5</ele><time>2026-04-21T14:58:38.661Z</time></trkpt><trkpt lat="44.470875" lon="9.3679717"><ele>692.75</ele><time>2026-04-21T14:58:39.662Z</time></trkpt><trkpt lat="44.470975" lon="9.367855"><ele>693.0</ele><time>2026-04-21T14:58:40.662Z</time></trkpt><trkpt lat="44.4710833" lon="9.3678017"><ele>693.0</ele><time>2026-04-21T14:58:41.662Z</time></trkpt><trkpt lat="44.4712133" lon="9.3677817"><ele>693.0</ele><time>2026-04-21T14:58:42.661Z</time></trkpt><trkpt lat="44.4713433" lon="9.3677833"><ele>693.0</ele><time>2026-04-21T14:58:43.661Z</time></trkpt><trkpt lat="44.4714733" lon="9.36778"><ele>693.0</ele><time>2026-04-21T14:58:44.661Z</time></trkpt><trkpt lat="44.471585" lon="9.36773"><ele>694.5999999999999</ele><time>2026-04-21T14:58:45.662Z</time></trkpt><trkpt lat="44.4716917" lon="9.3676683"><ele>696.1999999999999</ele><time>2026-04-21T14:58:46.662Z</time></trkpt><trkpt lat="44.4717783" lon="9.36758"><ele>697.8</ele><time>2026-04-21T14:58:47.661Z</time></trkpt><trkpt lat="44.47185" lon="9.3674717"><ele>699.4</ele><time>2026-04-21T14:58:48.662Z</time></trkpt><trkpt lat="44.4719067" lon="9.3673417"><ele>701.0</ele><time>2026-04-21T14:58:49.661Z</time></trkpt><trkpt lat="44.4719483" lon="9.3671883"><ele>702.0</ele><time>2026-04-21T14:58:50.662Z</time></trkpt><trkpt lat="44.4719733" lon="9.3670167"><ele>703.0</ele><time>2026-04-21T14:58:51.661Z</time></trkpt><trkpt lat="44.471995" lon="9.3668317"><ele>704.0</ele><time>2026-04-21T14:58:52.661Z</time></trkpt><trkpt lat="44.47201" lon="9.3666233"><ele>705.0</ele><time>2026-04-21T14:58:53.662Z</time></trkpt><trkpt lat="44.4720283" lon="9.3663967"><ele>705.6666666666666</ele><time>2026-04-21T14:58:54.661Z</time></trkpt><trkpt lat="44.4720467" lon="9.3661667"><ele>706.3333333333333</ele><time>2026-04-21T14:58:55.662Z</time></trkpt><trkpt lat="44.4720617" lon="9.3659383"><ele>707.0</ele><time>2026-04-21T14:58:56.661Z</time></trkpt><trkpt lat="44.4720917" lon="9.36569"><ele>709.3333333333333</ele><time>2026-04-21T14:58:57.662Z</time></trkpt><trkpt lat="44.4721167" lon="9.3654483"><ele>711.6666666666666</ele><time>2026-04-21T14:58:58.661Z</time></trkpt><trkpt lat="44.4721383" lon="9.365235"><ele>714.0</ele><time>2026-04-21T14:58:59.661Z</time></trkpt><trkpt lat="44.4721717" lon="9.365045"><ele>714.0</ele><time>2026-04-21T14:59:00.662Z</time></trkpt><trkpt lat="44.4722167" lon="9.3648817"><ele>714.0</ele><time>2026-04-21T14:59:01.662Z</time></trkpt><trkpt lat="44.4722867" lon="9.364745"><ele>714.0</ele><time>2026-04-21T14:59:02.662Z</time></trkpt><trkpt lat="44.4723683" lon="9.3646267"><ele>714.0</ele><time>2026-04-21T14:59:03.662Z</time></trkpt><trkpt lat="44.4724867" lon="9.3645467"><ele>711.5</ele><time>2026-04-21T14:59:04.661Z</time></trkpt><trkpt lat="44.4726183" lon="9.3645"><ele>709.0</ele><time>2026-04-21T14:59:05.661Z</time></trkpt><trkpt lat="44.472755" lon="9.364485"><ele>706.5</ele><time>2026-04-21T14:59:06.662Z</time></trkpt><trkpt lat="44.47289" lon="9.3644783"><ele>704.0</ele><time>2026-04-21T14:59:07.661Z</time></trkpt><trkpt lat="44.473015" lon="9.3644667"><ele>707.3333333333333</ele><time>2026-04-21T14:59:08.661Z</time></trkpt><trkpt lat="44.4731167" lon="9.3644333"><ele>710.6666666666666</ele><time>2026-04-21T14:59:09.661Z</time></trkpt><trkpt lat="44.4731933" lon="9.364375"><ele>714.0</ele><time>2026-04-21T14:59:10.662Z</time></trkpt><trkpt lat="44.47325" lon="9.3643083"><ele>717.3333333333334</ele><time>2026-04-21T14:59:11.661Z</time></trkpt><trkpt lat="44.473285" lon="9.3642167"><ele>720.6666666666667</ele><time>2026-04-21T14:59:12.662Z</time></trkpt><trkpt lat="44.4732917" lon="9.36409"><ele>724.0</ele><time>2026-04-21T14:59:13.661Z</time></trkpt><trkpt lat="44.4732733" lon="9.3639317"><ele>725.6666666666667</ele><time>2026-04-21T14:59:14.662Z</time></trkpt><trkpt lat="44.473215" lon="9.3637083"><ele>727.3333333333334</ele><time>2026-04-21T14:59:15.662Z</time></trkpt><trkpt lat="44.4731667" lon="9.3634733"><ele>729.0</ele><time>2026-04-21T14:59:16.661Z</time></trkpt><trkpt lat="44.4731333" lon="9.3632267"><ele>732.0</ele><time>2026-04-21T14:59:17.661Z</time></trkpt><trkpt lat="44.4731033" lon="9.3629983"><ele>735.0</ele><time>2026-04-21T14:59:18.662Z</time></trkpt><trkpt lat="44.4730683" lon="9.3627767"><ele>738.0</ele><time>2026-04-21T14:59:19.661Z</time></trkpt><trkpt lat="44.47303" lon="9.3625667"><ele>738.0</ele><time>2026-04-21T14:59:20.661Z</time></trkpt><trkpt lat="44.4729783" lon="9.3623583"><ele>738.0</ele><time>2026-04-21T14:59:21.662Z</time></trkpt><trkpt lat="44.47291" lon="9.3621517"><ele>738.0</ele><time>2026-04-21T14:59:22.661Z</time></trkpt><trkpt lat="44.4728183" lon="9.3619517"><ele>731.6666666666666</ele><time>2026-04-21T14:59:23.661Z</time></trkpt><trkpt lat="44.4727033" lon="9.3617533"><ele>725.3333333333333</ele><time>2026-04-21T14:59:24.661Z</time></trkpt><trkpt lat="44.4725833" lon="9.3615667"><ele>719.0</ele><time>2026-04-21T14:59:25.662Z</time></trkpt><trkpt lat="44.47248" lon="9.3614"><ele>717.5</ele><time>2026-04-21T14:59:26.661Z</time></trkpt><trkpt lat="44.4723783" lon="9.3612583"><ele>716.0</ele><time>2026-04-21T14:59:27.662Z</time></trkpt><trkpt lat="44.47228" lon="9.3611533"><ele>714.5</ele><time>2026-04-21T14:59:28.662Z</time></trkpt><trkpt lat="44.4721567" lon="9.361095"><ele>713.0</ele><time>2026-04-21T14:59:29.662Z</time></trkpt><trkpt lat="44.472035" lon="9.3610317"><ele>713.0</ele><time>2026-04-21T14:59:30.661Z</time></trkpt><trkpt lat="44.4719317" lon="9.3609433"><ele>713.0</ele><time>2026-04-21T14:59:31.661Z</time></trkpt><trkpt lat="44.4718483" lon="9.36082"><ele>713.0</ele><time>2026-04-21T14:59:32.661Z</time></trkpt><trkpt lat="44.4717833" lon="9.3606733"><ele>713.0</ele><time>2026-04-21T14:59:33.662Z</time></trkpt><trkpt lat="44.47171" lon="9.3605267"><ele>715.0</ele><time>2026-04-21T14:59:34.662Z</time></trkpt><trkpt lat="44.4716233" lon="9.3603883"><ele>717.0</ele><time>2026-04-21T14:59:35.661Z</time></trkpt><trkpt lat="44.471525" lon="9.36027"><ele>719.0</ele><time>2026-04-21T14:59:36.662Z</time></trkpt><trkpt lat="44.471405" lon="9.3601683"><ele>721.0</ele><time>2026-04-21T14:59:37.661Z</time></trkpt><trkpt lat="44.4712633" lon="9.3600767"><ele>721.0</ele><time>2026-04-21T14:59:38.661Z</time></trkpt><trkpt lat="44.4711317" lon="9.3599833"><ele>721.0</ele><time>2026-04-21T14:59:39.661Z</time></trkpt><trkpt lat="44.471015" lon="9.3599017"><ele>721.0</ele><time>2026-04-21T14:59:40.661Z</time></trkpt><trkpt lat="44.4709333" lon="9.35983"><ele>721.0</ele><time>2026-04-21T14:59:41.661Z</time></trkpt><trkpt lat="44.47089" lon="9.35975"><ele>721.0</ele><time>2026-04-21T14:59:42.661Z</time></trkpt><trkpt lat="44.4708667" lon="9.3596667"><ele>721.4</ele><time>2026-04-21T14:59:43.661Z</time></trkpt><trkpt lat="44.4708817" lon="9.359545"><ele>721.8</ele><time>2026-04-21T14:59:44.661Z</time></trkpt><trkpt lat="44.470915" lon="9.3594217"><ele>722.1999999999999</ele><time>2026-04-21T14:59:45.661Z</time></trkpt><trkpt lat="44.47096" lon="9.3592583"><ele>722.5999999999999</ele><time>2026-04-21T14:59:46.662Z</time></trkpt><trkpt lat="44.470985" lon="9.3591067"><ele>723.0</ele><time>2026-04-21T14:59:47.662Z</time></trkpt><trkpt lat="44.4709833" lon="9.3589367"><ele>725.0</ele><time>2026-04-21T14:59:48.661Z</time></trkpt><trkpt lat="44.4709683" lon="9.35875"><ele>727.0</ele><time>2026-04-21T14:59:49.661Z</time></trkpt><trkpt lat="44.4709633" lon="9.35856"><ele>729.0</ele><time>2026-04-21T14:59:50.661Z</time></trkpt><trkpt lat="44.47097" lon="9.3584033"><ele>731.0</ele><time>2026-04-21T14:59:51.661Z</time></trkpt><trkpt lat="44.4709733" lon="9.35828"><ele>731.0</ele><time>2026-04-21T14:59:52.661Z</time></trkpt><trkpt lat="44.47096" lon="9.35817"><ele>731.0</ele><time>2026-04-21T14:59:53.661Z</time></trkpt><trkpt lat="44.4709267" lon="9.3580733"><ele>731.0</ele><time>2026-04-21T14:59:54.662Z</time></trkpt><trkpt lat="44.4708667" lon="9.358025"><ele>731.0</ele><time>2026-04-21T14:59:55.662Z</time></trkpt><trkpt lat="44.47078" lon="9.3580117"><ele>731.0</ele><time>2026-04-21T14:59:56.661Z</time></trkpt><trkpt lat="44.4706617" lon="9.3580383"><ele>731.0</ele><time>2026-04-21T14:59:57.661Z</time></trkpt><trkpt lat="44.470555" lon="9.3580367"><ele>732.4</ele><time>2026-04-21T14:59:58.661Z</time></trkpt><trkpt lat="44.470475" lon="9.35796"><ele>733.8</ele><time>2026-04-21T14:59:59.661Z</time></trkpt><trkpt lat="44.4704217" lon="9.357835"><ele>735.1999999999999</ele><time>2026-04-21T15:00:00.661Z</time></trkpt><trkpt lat="44.4703967" lon="9.3577017"><ele>736.5999999999999</ele><time>2026-04-21T15:00:01.661Z</time></trkpt><trkpt lat="44.470405" lon="9.3575467"><ele>738.0</ele><time>2026-04-21T15:00:02.661Z</time></trkpt><trkpt lat="44.4704333" lon="9.3574017"><ele>738.0</ele><time>2026-04-21T15:00:03.661Z</time></trkpt><trkpt lat="44.4704933" lon="9.35728"><ele>738.0</ele><time>2026-04-21T15:00:04.661Z</time></trkpt><trkpt lat="44.47058" lon="9.3571767"><ele>738.0</ele><time>2026-04-21T15:00:05.661Z</time></trkpt><trkpt lat="44.4706733" lon="9.3570783"><ele>738.0</ele><time>2026-04-21T15:00:06.662Z</time></trkpt><trkpt lat="44.4707667" lon="9.3569633"><ele>736.25</ele><time>2026-04-21T15:00:07.662Z</time></trkpt><trkpt lat="44.470875" lon="9.3568517"><ele>734.5</ele><time>2026-04-21T15:00:08.661Z</time></trkpt><trkpt lat="44.4709867" lon="9.35672"><ele>732.75</ele><time>2026-04-21T15:00:09.661Z</time></trkpt><trkpt lat="44.471095" lon="9.3565833"><ele>731.0</ele><time>2026-04-21T15:00:10.661Z</time></trkpt><trkpt lat="44.4711917" lon="9.356435"><ele>733.5</ele><time>2026-04-21T15:00:11.662Z</time></trkpt><trkpt lat="44.47126" lon="9.3562867"><ele>736.0</ele><time>2026-04-21T15:00:12.661Z</time></trkpt><trkpt lat="44.4713233" lon="9.3561583"><ele>738.5</ele><time>2026-04-21T15:00:13.661Z</time></trkpt><trkpt lat="44.47136" lon="9.3560183"><ele>741.0</ele><time>2026-04-21T15:00:14.661Z</time></trkpt><trkpt lat="44.4713683" lon="9.3558683"><ele>741.0</ele><time>2026-04-21T15:00:15.662Z</time></trkpt><trkpt lat="44.4713567" lon="9.3557317"><ele>741.0</ele><time>2026-04-21T15:00:16.661Z</time></trkpt><trkpt lat="44.471315" lon="9.35563"><ele>741.0</ele><time>2026-04-21T15:00:17.661Z</time></trkpt><trkpt lat="44.4712583" lon="9.3555633"><ele>741.0</ele><time>2026-04-21T15:00:18.662Z</time></trkpt><trkpt lat="44.4711717" lon="9.3555533"><ele>741.0</ele><time>2026-04-21T15:00:19.661Z</time></trkpt><trkpt lat="44.47108" lon="9.355565"><ele>741.0</ele><time>2026-04-21T15:00:20.662Z</time></trkpt><trkpt lat="44.47096" lon="9.3556067"><ele>741.0</ele><time>2026-04-21T15:00:21.662Z</time></trkpt><trkpt lat="44.47085" lon="9.3555967"><ele>741.0</ele><time>2026-04-21T15:00:22.661Z</time></trkpt><trkpt lat="44.4707333" lon="9.3555733"><ele>741.0</ele><time>2026-04-21T15:00:23.662Z</time></trkpt><trkpt lat="44.4706167" lon="9.355515"><ele>741.0</ele><time>2026-04-21T15:00:24.662Z</time></trkpt><trkpt lat="44.4704833" lon="9.3554567"><ele>752.0</ele><time>2026-04-21T15:00:25.661Z</time></trkpt><trkpt lat="44.47034" lon="9.3553783"><ele>763.0</ele><time>2026-04-21T15:00:26.662Z</time></trkpt><trkpt lat="44.47019" lon="9.3553"><ele>774.0</ele><time>2026-04-21T15:00:27.661Z</time></trkpt><trkpt lat="44.4700333" lon="9.3552417"><ele>774.0</ele><time>2026-04-21T15:00:28.661Z</time></trkpt><trkpt lat="44.4698967" lon="9.35518"><ele>774.0</ele><time>2026-04-21T15:00:29.662Z</time></trkpt><trkpt lat="44.46977" lon="9.3551167"><ele>774.0</ele><time>2026-04-21T15:00:30.662Z</time></trkpt><trkpt lat="44.4696633" lon="9.3550567"><ele>774.0</ele><time>2026-04-21T15:00:31.661Z</time></trkpt><trkpt lat="44.4695683" lon="9.3550167"><ele>771.75</ele><time>2026-04-21T15:00:32.661Z</time></trkpt><trkpt lat="44.4694767" lon="9.3550283"><ele>769.5</ele><time>2026-04-21T15:00:33.661Z</time></trkpt><trkpt lat="44.4693733" lon="9.3550583"><ele>767.25</ele><time>2026-04-21T15:00:34.662Z</time></trkpt><trkpt lat="44.4692483" lon="9.3550967"><ele>765.0</ele><time>2026-04-21T15:00:35.661Z</time></trkpt><trkpt lat="44.4691167" lon="9.3551567"><ele>765.0</ele><time>2026-04-21T15:00:36.662Z</time></trkpt><trkpt lat="44.468985" lon="9.3552"><ele>765.0</ele><time>2026-04-21T15:00:37.661Z</time></trkpt><trkpt lat="44.4688183" lon="9.3552217"><ele>765.0</ele><time>2026-04-21T15:00:38.661Z</time></trkpt><trkpt lat="44.4686533" lon="9.35523"><ele>761.0</ele><time>2026-04-21T15:00:39.662Z</time></trkpt><trkpt lat="44.4684867" lon="9.35522"><ele>757.0</ele><time>2026-04-21T15:00:40.662Z</time></trkpt><trkpt lat="44.468335" lon="9.3552033"><ele>753.0</ele><time>2026-04-21T15:00:41.662Z</time></trkpt><trkpt lat="44.4681983" lon="9.3552033"><ele>753.0</ele><time>2026-04-21T15:00:42.661Z</time></trkpt><trkpt lat="44.4680783" lon="9.3551983"><ele>753.0</ele><time>2026-04-21T15:00:43.661Z</time></trkpt><trkpt lat="44.4679783" lon="9.355185"><ele>753.0</ele><time>2026-04-21T15:00:44.661Z</time></trkpt><trkpt lat="44.4679067" lon="9.3551633"><ele>753.0</ele><time>2026-04-21T15:00:45.662Z</time></trkpt><trkpt lat="44.467855" lon="9.3551"><ele>753.0</ele><time>2026-04-21T15:00:46.661Z</time></trkpt><trkpt lat="44.46782" lon="9.355"><ele>753.0</ele><time>2026-04-21T15:00:47.662Z</time></trkpt><trkpt lat="44.4678017" lon="9.3549017"><ele>753.0</ele><time>2026-04-21T15:00:48.661Z</time></trkpt><trkpt lat="44.46783" lon="9.3547983"><ele>753.0</ele><time>2026-04-21T15:00:49.662Z</time></trkpt><trkpt lat="44.4679017" lon="9.3547017"><ele>753.0</ele><time>2026-04-21T15:00:50.661Z</time></trkpt><trkpt lat="44.4680017" lon="9.3546167"><ele>753.0</ele><time>2026-04-21T15:00:51.662Z</time></trkpt><trkpt lat="44.4681333" lon="9.3545267"><ele>753.0</ele><time>2026-04-21T15:00:52.661Z</time></trkpt><trkpt lat="44.4682883" lon="9.3544283"><ele>753.0</ele><time>2026-04-21T15:00:53.661Z</time></trkpt><trkpt lat="44.46844" lon="9.3543233"><ele>753.0</ele><time>2026-04-21T15:00:54.662Z</time></trkpt><trkpt lat="44.4685917" lon="9.3542017"><ele>753.0</ele><time>2026-04-21T15:00:55.661Z</time></trkpt><trkpt lat="44.468745" lon="9.354085"><ele>752.3333333333334</ele><time>2026-04-21T15:00:56.661Z</time></trkpt><trkpt lat="44.46889" lon="9.3539633"><ele>751.6666666666667</ele><time>2026-04-21T15:00:57.661Z</time></trkpt><trkpt lat="44.4690217" lon="9.3538283"><ele>751.0</ele><time>2026-04-21T15:00:58.662Z</time></trkpt><trkpt lat="44.4691483" lon="9.353695"><ele>751.0</ele><time>2026-04-21T15:00:59.662Z</time></trkpt><trkpt lat="44.4692783" lon="9.3535717"><ele>751.0</ele><time>2026-04-21T15:01:00.661Z</time></trkpt><trkpt lat="44.4694033" lon="9.35346"><ele>751.0</ele><time>2026-04-21T15:01:01.662Z</time></trkpt><trkpt lat="44.4695483" lon="9.353385"><ele>758.0</ele><time>2026-04-21T15:01:02.661Z</time></trkpt><trkpt lat="44.469695" lon="9.3533383"><ele>765.0</ele><time>2026-04-21T15:01:03.661Z</time></trkpt><trkpt lat="44.469835" lon="9.3532817"><ele>772.0</ele><time>2026-04-21T15:01:04.662Z</time></trkpt><trkpt lat="44.4699617" lon="9.3531983"><ele>779.0</ele><time>2026-04-21T15:01:05.662Z</time></trkpt><trkpt lat="44.4700683" lon="9.353055"><ele>774.25</ele><time>2026-04-21T15:01:06.661Z</time></trkpt><trkpt lat="44.470175" lon="9.3529083"><ele>769.5</ele><time>2026-04-21T15:01:07.661Z</time></trkpt><trkpt lat="44.470265" lon="9.3527383"><ele>764.75</ele><time>2026-04-21T15:01:08.662Z</time></trkpt><trkpt lat="44.470345" lon="9.3525633"><ele>760.0</ele><time>2026-04-21T15:01:09.662Z</time></trkpt><trkpt lat="44.4704117" lon="9.3524033"><ele>759.0</ele><time>2026-04-21T15:01:10.661Z</time></trkpt><trkpt lat="44.470455" lon="9.3522383"><ele>758.0</ele><time>2026-04-21T15:01:11.661Z</time></trkpt><trkpt lat="44.4704783" lon="9.3520767"><ele>757.0</ele><time>2026-04-21T15:01:12.661Z</time></trkpt><trkpt lat="44.4704717" lon="9.3519033"><ele>756.0</ele><time>2026-04-21T15:01:13.661Z</time></trkpt><trkpt lat="44.4704383" lon="9.3517333"><ele>756.0</ele><time>2026-04-21T15:01:14.661Z</time></trkpt><trkpt lat="44.4704117" lon="9.3515767"><ele>756.0</ele><time>2026-04-21T15:01:15.662Z</time></trkpt><trkpt lat="44.4703867" lon="9.3514133"><ele>756.0</ele><time>2026-04-21T15:01:16.661Z</time></trkpt><trkpt lat="44.4703817" lon="9.3512433"><ele>756.0</ele><time>2026-04-21T15:01:17.662Z</time></trkpt><trkpt lat="44.4704083" lon="9.3510783"><ele>761.75</ele><time>2026-04-21T15:01:18.662Z</time></trkpt><trkpt lat="44.4704567" lon="9.3509067"><ele>767.5</ele><time>2026-04-21T15:01:19.662Z</time></trkpt><trkpt lat="44.4705167" lon="9.35072"><ele>773.25</ele><time>2026-04-21T15:01:20.662Z</time></trkpt><trkpt lat="44.4705833" lon="9.350505"><ele>779.0</ele><time>2026-04-21T15:01:21.661Z</time></trkpt><trkpt lat="44.4706567" lon="9.35027"><ele>779.0</ele><time>2026-04-21T15:01:22.662Z</time></trkpt><trkpt lat="44.4707233" lon="9.3500367"><ele>779.0</ele><time>2026-04-21T15:01:23.661Z</time></trkpt><trkpt lat="44.47078" lon="9.349835"><ele>779.0</ele><time>2026-04-21T15:01:24.662Z</time></trkpt><trkpt lat="44.4708467" lon="9.349625"><ele>777.3333333333334</ele><time>2026-04-21T15:01:25.662Z</time></trkpt><trkpt lat="44.4709033" lon="9.34942"><ele>775.6666666666667</ele><time>2026-04-21T15:01:26.661Z</time></trkpt><trkpt lat="44.4709617" lon="9.3492067"><ele>774.0</ele><time>2026-04-21T15:01:27.661Z</time></trkpt><trkpt lat="44.47099" lon="9.3489633"><ele>775.0</ele><time>2026-04-21T15:01:28.662Z</time></trkpt><trkpt lat="44.4710133" lon="9.3487533"><ele>776.0</ele><time>2026-04-21T15:01:29.661Z</time></trkpt><trkpt lat="44.4710283" lon="9.34856"><ele>777.0</ele><time>2026-04-21T15:01:30.661Z</time></trkpt><trkpt lat="44.47103" lon="9.348385"><ele>778.0</ele><time>2026-04-21T15:01:31.662Z</time></trkpt><trkpt lat="44.47101" lon="9.34821"><ele>778.0</ele><time>2026-04-21T15:01:32.661Z</time></trkpt><trkpt lat="44.4709767" lon="9.3480483"><ele>778.0</ele><time>2026-04-21T15:01:33.662Z</time></trkpt><trkpt lat="44.4709383" lon="9.347915"><ele>778.0</ele><time>2026-04-21T15:01:34.661Z</time></trkpt><trkpt lat="44.4709117" lon="9.3477733"><ele>778.0</ele><time>2026-04-21T15:01:35.662Z</time></trkpt><trkpt lat="44.4709183" lon="9.3476233"><ele>778.0</ele><time>2026-04-21T15:01:36.662Z</time></trkpt><trkpt lat="44.4709317" lon="9.347465"><ele>779.75</ele><time>2026-04-21T15:01:37.661Z</time></trkpt><trkpt lat="44.4709317" lon="9.34729"><ele>781.5</ele><time>2026-04-21T15:01:38.662Z</time></trkpt><trkpt lat="44.470905" lon="9.3471017"><ele>783.25</ele><time>2026-04-21T15:01:39.661Z</time></trkpt><trkpt lat="44.4708683" lon="9.3469083"><ele>785.0</ele><time>2026-04-21T15:01:40.661Z</time></trkpt><trkpt lat="44.470815" lon="9.3467117"><ele>787.6666666666667</ele><time>2026-04-21T15:01:41.661Z</time></trkpt><trkpt lat="44.4707617" lon="9.3465033"><ele>790.3333333333333</ele><time>2026-04-21T15:01:42.661Z</time></trkpt><trkpt lat="44.470685" lon="9.3462983"><ele>793.0</ele><time>2026-04-21T15:01:43.661Z</time></trkpt><trkpt lat="44.470615" lon="9.3460967"><ele>791.25</ele><time>2026-04-21T15:01:44.661Z</time></trkpt><trkpt lat="44.4705333" lon="9.3459083"><ele>789.5</ele><time>2026-04-21T15:01:45.661Z</time></trkpt><trkpt lat="44.4704517" lon="9.3457433"><ele>787.75</ele><time>2026-04-21T15:01:46.661Z</time></trkpt><trkpt lat="44.470375" lon="9.3456017"><ele>786.0</ele><time>2026-04-21T15:01:47.661Z</time></trkpt><trkpt lat="44.4703083" lon="9.3454583"><ele>790.4</ele><time>2026-04-21T15:01:48.661Z</time></trkpt><trkpt lat="44.470245" lon="9.345345"><ele>794.8</ele><time>2026-04-21T15:01:49.661Z</time></trkpt><trkpt lat="44.4701683" lon="9.3452717"><ele>799.1999999999999</ele><time>2026-04-21T15:01:50.661Z</time></trkpt><trkpt lat="44.4700817" lon="9.3452233"><ele>803.5999999999999</ele><time>2026-04-21T15:01:51.661Z</time></trkpt><trkpt lat="44.46999" lon="9.345205"><ele>808.0</ele><time>2026-04-21T15:01:52.661Z</time></trkpt><trkpt lat="44.46988" lon="9.3452433"><ele>808.0</ele><time>2026-04-21T15:01:53.662Z</time></trkpt><trkpt lat="44.4697733" lon="9.3453117"><ele>808.0</ele><time>2026-04-21T15:01:54.662Z</time></trkpt><trkpt lat="44.4696883" lon="9.3454067"><ele>808.0</ele><time>2026-04-21T15:01:55.662Z</time></trkpt><trkpt lat="44.4696017" lon="9.345435"><ele>808.0</ele><time>2026-04-21T15:01:56.661Z</time></trkpt><trkpt lat="44.4695267" lon="9.34543"><ele>808.0</ele><time>2026-04-21T15:01:57.661Z</time></trkpt><trkpt lat="44.4694617" lon="9.34538"><ele>803.0</ele><time>2026-04-21T15:01:58.661Z</time></trkpt><trkpt lat="44.4694217" lon="9.3452817"><ele>798.0</ele><time>2026-04-21T15:01:59.661Z</time></trkpt><trkpt lat="44.4693917" lon="9.3451817"><ele>793.0</ele><time>2026-04-21T15:02:00.662Z</time></trkpt><trkpt lat="44.4693883" lon="9.3450383"><ele>788.0</ele><time>2026-04-21T15:02:01.661Z</time></trkpt><trkpt lat="44.4694083" lon="9.3448833"><ele>783.0</ele><time>2026-04-21T15:02:02.662Z</time></trkpt><trkpt lat="44.4694383" lon="9.3447217"><ele>781.0</ele><time>2026-04-21T15:02:03.662Z</time></trkpt><trkpt lat="44.4695117" lon="9.3445183"><ele>779.0</ele><time>2026-04-21T15:02:04.662Z</time></trkpt><trkpt lat="44.469635" lon="9.3443133"><ele>777.0</ele><time>2026-04-21T15:02:05.662Z</time></trkpt><trkpt lat="44.469755" lon="9.3441533"><ele>784.75</ele><time>2026-04-21T15:02:06.661Z</time></trkpt><trkpt lat="44.4698633" lon="9.344005"><ele>792.5</ele><time>2026-04-21T15:02:07.661Z</time></trkpt><trkpt lat="44.46996" lon="9.3438383"><ele>800.25</ele><time>2026-04-21T15:02:08.662Z</time></trkpt><trkpt lat="44.4700417" lon="9.3436867"><ele>808.0</ele><time>2026-04-21T15:02:09.661Z</time></trkpt><trkpt lat="44.47011" lon="9.3435317"><ele>808.0</ele><time>2026-04-21T15:02:10.662Z</time></trkpt><trkpt lat="44.4701533" lon="9.343395"><ele>808.0</ele><time>2026-04-21T15:02:11.661Z</time></trkpt><trkpt lat="44.470165" lon="9.3432633"><ele>808.0</ele><time>2026-04-21T15:02:12.662Z</time></trkpt><trkpt lat="44.4701417" lon="9.3431517"><ele>808.0</ele><time>2026-04-21T15:02:13.661Z</time></trkpt><trkpt lat="44.4701" lon="9.3430183"><ele>808.0</ele><time>2026-04-21T15:02:14.662Z</time></trkpt><trkpt lat="44.470045" lon="9.3428717"><ele>809.0</ele><time>2026-04-21T15:02:15.662Z</time></trkpt><trkpt lat="44.470015" lon="9.3427267"><ele>810.0</ele><time>2026-04-21T15:02:16.662Z</time></trkpt><trkpt lat="44.4700117" lon="9.3425783"><ele>811.0</ele><time>2026-04-21T15:02:17.662Z</time></trkpt><trkpt lat="44.4700283" lon="9.34243"><ele>812.0</ele><time>2026-04-21T15:02:18.662Z</time></trkpt><trkpt lat="44.470035" lon="9.3423033"><ele>813.0</ele><time>2026-04-21T15:02:19.661Z</time></trkpt><trkpt lat="44.470015" lon="9.3421783"><ele>816.5999999999999</ele><time>2026-04-21T15:02:20.662Z</time></trkpt><trkpt lat="44.4699883" lon="9.342075"><ele>820.1999999999999</ele><time>2026-04-21T15:02:21.661Z</time></trkpt><trkpt lat="44.469935" lon="9.3420033"><ele>823.8</ele><time>2026-04-21T15:02:22.661Z</time></trkpt><trkpt lat="44.4698533" lon="9.3419267"><ele>827.4</ele><time>2026-04-21T15:02:23.662Z</time></trkpt><trkpt lat="44.46976" lon="9.34183"><ele>831.0</ele><time>2026-04-21T15:02:24.661Z</time></trkpt><trkpt lat="44.46967" lon="9.3417217"><ele>829.3333333333334</ele><time>2026-04-21T15:02:25.661Z</time></trkpt><trkpt lat="44.4695833" lon="9.341615"><ele>827.6666666666667</ele><time>2026-04-21T15:02:26.661Z</time></trkpt><trkpt lat="44.4695117" lon="9.3415183"><ele>826.0</ele><time>2026-04-21T15:02:27.661Z</time></trkpt><trkpt lat="44.4694767" lon="9.34142"><ele>824.3333333333334</ele><time>2026-04-21T15:02:28.661Z</time></trkpt><trkpt lat="44.4694767" lon="9.3413217"><ele>822.6666666666667</ele><time>2026-04-21T15:02:29.662Z</time></trkpt><trkpt lat="44.4694983" lon="9.3412333"><ele>821.0</ele><time>2026-04-21T15:02:30.661Z</time></trkpt><trkpt lat="44.46954" lon="9.3411383"><ele>821.0</ele><time>2026-04-21T15:02:31.662Z</time></trkpt><trkpt lat="44.4695717" lon="9.3410383"><ele>821.0</ele><time>2026-04-21T15:02:32.662Z</time></trkpt><trkpt lat="44.469585" lon="9.3409367"><ele>821.0</ele><time>2026-04-21T15:02:33.661Z</time></trkpt><trkpt lat="44.4695683" lon="9.34084"><ele>821.0</ele><time>2026-04-21T15:02:34.661Z</time></trkpt><trkpt lat="44.469455" lon="9.340705"><ele>821.0</ele><time>2026-04-21T15:02:36.662Z</time></trkpt><trkpt lat="44.46935" lon="9.3406517"><ele>821.0</ele><time>2026-04-21T15:02:37.661Z</time></trkpt><trkpt lat="44.46922" lon="9.3406167"><ele>821.0</ele><time>2026-04-21T15:02:38.661Z</time></trkpt><trkpt lat="44.4690983" lon="9.3405617"><ele>821.0</ele><time>2026-04-21T15:02:39.661Z</time></trkpt><trkpt lat="44.46899" lon="9.34048"><ele>821.0</ele><time>2026-04-21T15:02:40.662Z</time></trkpt><trkpt lat="44.4688833" lon="9.34039"><ele>823.1999999999999</ele><time>2026-04-21T15:02:41.661Z</time></trkpt><trkpt lat="44.468785" lon="9.340315"><ele>825.4</ele><time>2026-04-21T15:02:42.662Z</time></trkpt><trkpt lat="44.4686783" lon="9.340265"><ele>827.6</ele><time>2026-04-21T15:02:43.661Z</time></trkpt><trkpt lat="44.4685783" lon="9.3402467"><ele>829.8</ele><time>2026-04-21T15:02:44.662Z</time></trkpt><trkpt lat="44.4684833" lon="9.3402833"><ele>832.0</ele><time>2026-04-21T15:02:45.661Z</time></trkpt><trkpt lat="44.4683867" lon="9.340345"><ele>832.0</ele><time>2026-04-21T15:02:46.661Z</time></trkpt><trkpt lat="44.46829" lon="9.340395"><ele>832.0</ele><time>2026-04-21T15:02:47.661Z</time></trkpt><trkpt lat="44.4681983" lon="9.3403817"><ele>832.0</ele><time>2026-04-21T15:02:48.661Z</time></trkpt><trkpt lat="44.4681117" lon="9.34032"><ele>832.0</ele><time>2026-04-21T15:02:49.661Z</time></trkpt><trkpt lat="44.468025" lon="9.3402417"><ele>832.0</ele><time>2026-04-21T15:02:50.661Z</time></trkpt><trkpt lat="44.46794" lon="9.3402"><ele>832.2</ele><time>2026-04-21T15:02:51.662Z</time></trkpt><trkpt lat="44.46784" lon="9.34019"><ele>832.4000000000001</ele><time>2026-04-21T15:02:52.661Z</time></trkpt><trkpt lat="44.4677533" lon="9.3402167"><ele>832.5999999999999</ele><time>2026-04-21T15:02:53.661Z</time></trkpt><trkpt lat="44.467665" lon="9.3402783"><ele>832.8</ele><time>2026-04-21T15:02:54.661Z</time></trkpt><trkpt lat="44.4675733" lon="9.34035"><ele>833.0</ele><time>2026-04-21T15:02:55.662Z</time></trkpt><trkpt lat="44.4674867" lon="9.3404033"><ele>833.0</ele><time>2026-04-21T15:02:56.661Z</time></trkpt><trkpt lat="44.46739" lon="9.3404"><ele>833.0</ele><time>2026-04-21T15:02:57.661Z</time></trkpt><trkpt lat="44.4672867" lon="9.34035"><ele>833.0</ele><time>2026-04-21T15:02:58.661Z</time></trkpt><trkpt lat="44.4671883" lon="9.3402617"><ele>833.0</ele><time>2026-04-21T15:02:59.661Z</time></trkpt><trkpt lat="44.4670733" lon="9.3401583"><ele>834.25</ele><time>2026-04-21T15:03:00.661Z</time></trkpt><trkpt lat="44.46696" lon="9.3400917"><ele>835.5</ele><time>2026-04-21T15:03:01.661Z</time></trkpt><trkpt lat="44.4668383" lon="9.3400667"><ele>836.75</ele><time>2026-04-21T15:03:02.661Z</time></trkpt><trkpt lat="44.4667017" lon="9.34007"><ele>838.0</ele><time>2026-04-21T15:03:03.662Z</time></trkpt><trkpt lat="44.4665717" lon="9.3401233"><ele>838.0</ele><time>2026-04-21T15:03:04.661Z</time></trkpt><trkpt lat="44.4664533" lon="9.3402033"><ele>838.0</ele><time>2026-04-21T15:03:05.662Z</time></trkpt><trkpt lat="44.4663483" lon="9.3402767"><ele>838.0</ele><time>2026-04-21T15:03:06.662Z</time></trkpt><trkpt lat="44.4662433" lon="9.3403083"><ele>838.0</ele><time>2026-04-21T15:03:07.661Z</time></trkpt><trkpt lat="44.466135" lon="9.3403033"><ele>838.5</ele><time>2026-04-21T15:03:08.661Z</time></trkpt><trkpt lat="44.4660233" lon="9.3402667"><ele>839.0</ele><time>2026-04-21T15:03:09.662Z</time></trkpt><trkpt lat="44.4659" lon="9.34018"><ele>839.5</ele><time>2026-04-21T15:03:10.661Z</time></trkpt><trkpt lat="44.465795" lon="9.3400733"><ele>840.0</ele><time>2026-04-21T15:03:11.662Z</time></trkpt><trkpt lat="44.4656933" lon="9.3399883"><ele>840.0</ele><time>2026-04-21T15:03:12.662Z</time></trkpt><trkpt lat="44.465595" lon="9.3399233"><ele>840.0</ele><time>2026-04-21T15:03:13.661Z</time></trkpt><trkpt lat="44.4654867" lon="9.3399183"><ele>840.0</ele><time>2026-04-21T15:03:14.661Z</time></trkpt><trkpt lat="44.465385" lon="9.3399267"><ele>840.0</ele><time>2026-04-21T15:03:15.661Z</time></trkpt><trkpt lat="44.4652833" lon="9.33994"><ele>840.0</ele><time>2026-04-21T15:03:16.661Z</time></trkpt><trkpt lat="44.4651783" lon="9.3399583"><ele>838.4</ele><time>2026-04-21T15:03:17.662Z</time></trkpt><trkpt lat="44.4650867" lon="9.33994"><ele>836.8</ele><time>2026-04-21T15:03:18.661Z</time></trkpt><trkpt lat="44.465005" lon="9.3398617"><ele>835.2</ele><time>2026-04-21T15:03:19.661Z</time></trkpt><trkpt lat="44.464935" lon="9.3397633"><ele>833.6</ele><time>2026-04-21T15:03:20.662Z</time></trkpt><trkpt lat="44.4648583" lon="9.3396783"><ele>832.0</ele><time>2026-04-21T15:03:21.661Z</time></trkpt><trkpt lat="44.4647783" lon="9.3396317"><ele>836.6</ele><time>2026-04-21T15:03:22.662Z</time></trkpt><trkpt lat="44.4646967" lon="9.3396317"><ele>841.2</ele><time>2026-04-21T15:03:23.661Z</time></trkpt><trkpt lat="44.4646133" lon="9.3396833"><ele>845.8</ele><time>2026-04-21T15:03:24.662Z</time></trkpt><trkpt lat="44.4645333" lon="9.3397667"><ele>850.4</ele><time>2026-04-21T15:03:25.661Z</time></trkpt><trkpt lat="44.4644533" lon="9.33991"><ele>855.0</ele><time>2026-04-21T15:03:26.661Z</time></trkpt><trkpt lat="44.46439" lon="9.3400967"><ele>855.0</ele><time>2026-04-21T15:03:27.661Z</time></trkpt><trkpt lat="44.4643083" lon="9.3402467"><ele>855.0</ele><time>2026-04-21T15:03:28.661Z</time></trkpt><trkpt lat="44.46421" lon="9.3403933"><ele>855.0</ele><time>2026-04-21T15:03:29.661Z</time></trkpt><trkpt lat="44.46409" lon="9.3404883"><ele>855.0</ele><time>2026-04-21T15:03:30.661Z</time></trkpt><trkpt lat="44.4639567" lon="9.3405483"><ele>854.75</ele><time>2026-04-21T15:03:31.662Z</time></trkpt><trkpt lat="44.4638267" lon="9.34063"><ele>854.5</ele><time>2026-04-21T15:03:32.661Z</time></trkpt><trkpt lat="44.4637033" lon="9.3407517"><ele>854.25</ele><time>2026-04-21T15:03:33.661Z</time></trkpt><trkpt lat="44.46358" lon="9.340885"><ele>854.0</ele><time>2026-04-21T15:03:34.661Z</time></trkpt><trkpt lat="44.46347" lon="9.34105"><ele>854.0</ele><time>2026-04-21T15:03:35.661Z</time></trkpt><trkpt lat="44.4633633" lon="9.3411917"><ele>854.0</ele><time>2026-04-21T15:03:36.662Z</time></trkpt><trkpt lat="44.4632683" lon="9.341335"><ele>854.0</ele><time>2026-04-21T15:03:37.661Z</time></trkpt><trkpt lat="44.4631633" lon="9.3414483"><ele>854.0</ele><time>2026-04-21T15:03:38.661Z</time></trkpt><trkpt lat="44.4630817" lon="9.3415367"><ele>850.0</ele><time>2026-04-21T15:03:39.662Z</time></trkpt><trkpt lat="44.46299" lon="9.3415867"><ele>846.0</ele><time>2026-04-21T15:03:40.662Z</time></trkpt><trkpt lat="44.4628783" lon="9.3415817"><ele>842.0</ele><time>2026-04-21T15:03:41.662Z</time></trkpt><trkpt lat="44.4627483" lon="9.3415367"><ele>838.0</ele><time>2026-04-21T15:03:42.662Z</time></trkpt><trkpt lat="44.4626183" lon="9.3415"><ele>838.0</ele><time>2026-04-21T15:03:43.661Z</time></trkpt><trkpt lat="44.4625033" lon="9.341475"><ele>838.0</ele><time>2026-04-21T15:03:44.661Z</time></trkpt><trkpt lat="44.4623933" lon="9.341435"><ele>838.0</ele><time>2026-04-21T15:03:45.662Z</time></trkpt><trkpt lat="44.46231" lon="9.3414033"><ele>838.0</ele><time>2026-04-21T15:03:46.662Z</time></trkpt><trkpt lat="44.46226" lon="9.3413367"><ele>838.0</ele><time>2026-04-21T15:03:47.661Z</time></trkpt><trkpt lat="44.4622317" lon="9.34125"><ele>841.25</ele><time>2026-04-21T15:03:48.662Z</time></trkpt><trkpt lat="44.462245" lon="9.3411417"><ele>844.5</ele><time>2026-04-21T15:03:49.662Z</time></trkpt><trkpt lat="44.46231" lon="9.3410017"><ele>847.75</ele><time>2026-04-21T15:03:50.662Z</time></trkpt><trkpt lat="44.4623983" lon="9.34085"><ele>851.0</ele><time>2026-04-21T15:03:51.662Z</time></trkpt><trkpt lat="44.4625033" lon="9.3406883"><ele>851.0</ele><time>2026-04-21T15:03:52.661Z</time></trkpt><trkpt lat="44.4626333" lon="9.34055"><ele>851.0</ele><time>2026-04-21T15:03:53.661Z</time></trkpt><trkpt lat="44.46278" lon="9.3404233"><ele>851.0</ele><time>2026-04-21T15:03:54.662Z</time></trkpt><trkpt lat="44.4629133" lon="9.3402883"><ele>853.0</ele><time>2026-04-21T15:03:55.661Z</time></trkpt><trkpt lat="44.4630267" lon="9.3401583"><ele>855.0</ele><time>2026-04-21T15:03:56.661Z</time></trkpt><trkpt lat="44.463115" lon="9.340005"><ele>857.0</ele><time>2026-04-21T15:03:57.661Z</time></trkpt><trkpt lat="44.4631833" lon="9.3398283"><ele>859.0</ele><time>2026-04-21T15:03:58.662Z</time></trkpt><trkpt lat="44.4632317" lon="9.3396467"><ele>859.0</ele><time>2026-04-21T15:03:59.662Z</time></trkpt><trkpt lat="44.46327" lon="9.3394267"><ele>859.0</ele><time>2026-04-21T15:04:00.661Z</time></trkpt><trkpt lat="44.4633167" lon="9.3391933"><ele>859.0</ele><time>2026-04-21T15:04:01.661Z</time></trkpt><trkpt lat="44.4633917" lon="9.3389783"><ele>857.0</ele><time>2026-04-21T15:04:02.661Z</time></trkpt><trkpt lat="44.4634483" lon="9.3387817"><ele>855.0</ele><time>2026-04-21T15:04:03.661Z</time></trkpt><trkpt lat="44.4634767" lon="9.3385717"><ele>853.0</ele><time>2026-04-21T15:04:04.661Z</time></trkpt><trkpt lat="44.463495" lon="9.33836"><ele>853.0</ele><time>2026-04-21T15:04:05.662Z</time></trkpt><trkpt lat="44.4634933" lon="9.338155"><ele>853.0</ele><time>2026-04-21T15:04:06.662Z</time></trkpt><trkpt lat="44.4635017" lon="9.3379767"><ele>853.0</ele><time>2026-04-21T15:04:07.661Z</time></trkpt><trkpt lat="44.4635517" lon="9.33782"><ele>853.0</ele><time>2026-04-21T15:04:08.662Z</time></trkpt><trkpt lat="44.4636" lon="9.3376733"><ele>853.4</ele><time>2026-04-21T15:04:09.661Z</time></trkpt><trkpt lat="44.4636433" lon="9.3375267"><ele>853.8</ele><time>2026-04-21T15:04:10.662Z</time></trkpt><trkpt lat="44.4636583" lon="9.3373867"><ele>854.2</ele><time>2026-04-21T15:04:11.662Z</time></trkpt><trkpt lat="44.4636433" lon="9.3372483"><ele>854.6</ele><time>2026-04-21T15:04:12.662Z</time></trkpt><trkpt lat="44.4636017" lon="9.3371033"><ele>855.0</ele><time>2026-04-21T15:04:13.661Z</time></trkpt><trkpt lat="44.463535" lon="9.3369617"><ele>861.25</ele><time>2026-04-21T15:04:14.661Z</time></trkpt><trkpt lat="44.4634467" lon="9.3368333"><ele>867.5</ele><time>2026-04-21T15:04:15.662Z</time></trkpt><trkpt lat="44.463335" lon="9.3367183"><ele>873.75</ele><time>2026-04-21T15:04:16.662Z</time></trkpt><trkpt lat="44.463225" lon="9.3365867"><ele>880.0</ele><time>2026-04-21T15:04:17.662Z</time></trkpt><trkpt lat="44.463105" lon="9.3364817"><ele>880.0</ele><time>2026-04-21T15:04:18.661Z</time></trkpt><trkpt lat="44.4629883" lon="9.3363967"><ele>880.0</ele><time>2026-04-21T15:04:19.661Z</time></trkpt><trkpt lat="44.462885" lon="9.33631"><ele>880.0</ele><time>2026-04-21T15:04:20.662Z</time></trkpt><trkpt lat="44.4627867" lon="9.3362217"><ele>880.0</ele><time>2026-04-21T15:04:21.661Z</time></trkpt><trkpt lat="44.4627067" lon="9.336105"><ele>880.8333333333333</ele><time>2026-04-21T15:04:22.661Z</time></trkpt><trkpt lat="44.4626517" lon="9.33597"><ele>881.6666666666666</ele><time>2026-04-21T15:04:23.661Z</time></trkpt><trkpt lat="44.4626117" lon="9.3358417"><ele>882.5</ele><time>2026-04-21T15:04:24.662Z</time></trkpt><trkpt lat="44.46259" lon="9.3357183"><ele>883.3333333333333</ele><time>2026-04-21T15:04:25.661Z</time></trkpt><trkpt lat="44.4625883" lon="9.33562"><ele>884.1666666666666</ele><time>2026-04-21T15:04:26.661Z</time></trkpt><trkpt lat="44.4626083" lon="9.335515"><ele>885.0</ele><time>2026-04-21T15:04:27.661Z</time></trkpt><trkpt lat="44.4626433" lon="9.335405"><ele>885.0</ele><time>2026-04-21T15:04:28.661Z</time></trkpt><trkpt lat="44.4627067" lon="9.3352833"><ele>885.0</ele><time>2026-04-21T15:04:29.661Z</time></trkpt><trkpt lat="44.462765" lon="9.3351467"><ele>885.0</ele><time>2026-04-21T15:04:30.662Z</time></trkpt><trkpt lat="44.46284" lon="9.33499"><ele>885.0</ele><time>2026-04-21T15:04:31.662Z</time></trkpt><trkpt lat="44.46292" lon="9.3348283"><ele>884.75</ele><time>2026-04-21T15:04:32.661Z</time></trkpt><trkpt lat="44.4629917" lon="9.3346333"><ele>884.5</ele><time>2026-04-21T15:04:33.661Z</time></trkpt><trkpt lat="44.463045" lon="9.3344733"><ele>884.25</ele><time>2026-04-21T15:04:34.661Z</time></trkpt><trkpt lat="44.463105" lon="9.3342967"><ele>884.0</ele><time>2026-04-21T15:04:35.661Z</time></trkpt><trkpt lat="44.4631633" lon="9.334125"><ele>884.0</ele><time>2026-04-21T15:04:36.661Z</time></trkpt><trkpt lat="44.4631983" lon="9.3339617"><ele>884.0</ele><time>2026-04-21T15:04:37.662Z</time></trkpt><trkpt lat="44.463215" lon="9.3337783"><ele>884.0</ele><time>2026-04-21T15:04:38.661Z</time></trkpt><trkpt lat="44.4632133" lon="9.3335967"><ele>884.0</ele><time>2026-04-21T15:04:39.661Z</time></trkpt><trkpt lat="44.4632" lon="9.3334183"><ele>882.4000000000001</ele><time>2026-04-21T15:04:40.661Z</time></trkpt><trkpt lat="44.4631817" lon="9.3332383"><ele>880.8000000000001</ele><time>2026-04-21T15:04:41.662Z</time></trkpt><trkpt lat="44.4631717" lon="9.33308"><ele>879.1999999999999</ele><time>2026-04-21T15:04:42.662Z</time></trkpt><trkpt lat="44.4631883" lon="9.3329417"><ele>877.5999999999999</ele><time>2026-04-21T15:04:43.662Z</time></trkpt><trkpt lat="44.4632383" lon="9.3328317"><ele>876.0</ele><time>2026-04-21T15:04:44.661Z</time></trkpt><trkpt lat="44.46331" lon="9.3327433"><ele>873.5</ele><time>2026-04-21T15:04:45.661Z</time></trkpt><trkpt lat="44.4634233" lon="9.3326833"><ele>871.0</ele><time>2026-04-21T15:04:46.662Z</time></trkpt><trkpt lat="44.46354" lon="9.3326283"><ele>868.5</ele><time>2026-04-21T15:04:47.661Z</time></trkpt><trkpt lat="44.4636633" lon="9.3325683"><ele>866.0</ele><time>2026-04-21T15:04:48.662Z</time></trkpt><trkpt lat="44.46378" lon="9.33251"><ele>867.75</ele><time>2026-04-21T15:04:49.662Z</time></trkpt><trkpt lat="44.4639017" lon="9.332485"><ele>869.5</ele><time>2026-04-21T15:04:50.661Z</time></trkpt><trkpt lat="44.46401" lon="9.33249"><ele>871.25</ele><time>2026-04-21T15:04:51.661Z</time></trkpt><trkpt lat="44.4641383" lon="9.3325233"><ele>873.0</ele><time>2026-04-21T15:04:52.661Z</time></trkpt><trkpt lat="44.4642617" lon="9.332525"><ele>873.0</ele><time>2026-04-21T15:04:53.661Z</time></trkpt><trkpt lat="44.4643833" lon="9.3325033"><ele>873.0</ele><time>2026-04-21T15:04:54.661Z</time></trkpt><trkpt lat="44.464475" lon="9.332435"><ele>873.0</ele><time>2026-04-21T15:04:55.662Z</time></trkpt><trkpt lat="44.4645633" lon="9.3323333"><ele>873.0</ele><time>2026-04-21T15:04:56.662Z</time></trkpt><trkpt lat="44.4646483" lon="9.3322417"><ele>873.0</ele><time>2026-04-21T15:04:57.662Z</time></trkpt><trkpt lat="44.4647417" lon="9.3321383"><ele>869.5</ele><time>2026-04-21T15:04:58.661Z</time></trkpt><trkpt lat="44.4648517" lon="9.3320533"><ele>866.0</ele><time>2026-04-21T15:04:59.662Z</time></trkpt><trkpt lat="44.4649867" lon="9.3319767"><ele>862.5</ele><time>2026-04-21T15:05:00.661Z</time></trkpt><trkpt lat="44.4651167" lon="9.3319183"><ele>859.0</ele><time>2026-04-21T15:05:01.662Z</time></trkpt><trkpt lat="44.4652517" lon="9.331865"><ele>859.0</ele><time>2026-04-21T15:05:02.661Z</time></trkpt><trkpt lat="44.4653633" lon="9.3317717"><ele>859.0000000000001</ele><time>2026-04-21T15:05:03.661Z</time></trkpt><trkpt lat="44.4654483" lon="9.331685"><ele>859.0000000000001</ele><time>2026-04-21T15:05:04.662Z</time></trkpt><trkpt lat="44.4655017" lon="9.3315717"><ele>859.0</ele><time>2026-04-21T15:05:05.662Z</time></trkpt><trkpt lat="44.46553" lon="9.331435"><ele>859.0</ele><time>2026-04-21T15:05:06.662Z</time></trkpt><trkpt lat="44.4655467" lon="9.3312967"><ele>858.6</ele><time>2026-04-21T15:05:07.661Z</time></trkpt><trkpt lat="44.465585" lon="9.331165"><ele>858.2</ele><time>2026-04-21T15:05:08.662Z</time></trkpt><trkpt lat="44.4656517" lon="9.3310667"><ele>857.8000000000001</ele><time>2026-04-21T15:05:09.662Z</time></trkpt><trkpt lat="44.4657367" lon="9.3309867"><ele>857.4000000000001</ele><time>2026-04-21T15:05:10.661Z</time></trkpt><trkpt lat="44.4658317" lon="9.330915"><ele>857.0</ele><time>2026-04-21T15:05:11.661Z</time></trkpt><trkpt lat="44.4659433" lon="9.33087"><ele>857.0</ele><time>2026-04-21T15:05:12.661Z</time></trkpt><trkpt lat="44.466045" lon="9.3308283"><ele>857.0</ele><time>2026-04-21T15:05:13.661Z</time></trkpt><trkpt lat="44.4661383" lon="9.33078"><ele>857.0</ele><time>2026-04-21T15:05:14.662Z</time></trkpt><trkpt lat="44.4662133" lon="9.3306917"><ele>857.0</ele><time>2026-04-21T15:05:15.661Z</time></trkpt><trkpt lat="44.46628" lon="9.3305467"><ele>857.0</ele><time>2026-04-21T15:05:16.662Z</time></trkpt><trkpt lat="44.4663483" lon="9.3304017"><ele>855.75</ele><time>2026-04-21T15:05:17.662Z</time></trkpt><trkpt lat="44.46642" lon="9.330215"><ele>854.5</ele><time>2026-04-21T15:05:18.662Z</time></trkpt><trkpt lat="44.4664817" lon="9.3300433"><ele>853.25</ele><time>2026-04-21T15:05:19.661Z</time></trkpt><trkpt lat="44.466525" lon="9.3298883"><ele>852.0</ele><time>2026-04-21T15:05:20.662Z</time></trkpt><trkpt lat="44.4665333" lon="9.3297433"><ele>851.6</ele><time>2026-04-21T15:05:21.661Z</time></trkpt><trkpt lat="44.466505" lon="9.3296233"><ele>851.2</ele><time>2026-04-21T15:05:22.661Z</time></trkpt><trkpt lat="44.46646" lon="9.3295017"><ele>850.8</ele><time>2026-04-21T15:05:23.661Z</time></trkpt><trkpt lat="44.4664183" lon="9.3293617"><ele>850.4</ele><time>2026-04-21T15:05:24.661Z</time></trkpt><trkpt lat="44.4663917" lon="9.329225"><ele>850.0</ele><time>2026-04-21T15:05:25.662Z</time></trkpt><trkpt lat="44.4664" lon="9.3290967"><ele>850.0</ele><time>2026-04-21T15:05:26.661Z</time></trkpt><trkpt lat="44.4664333" lon="9.3289783"><ele>850.0</ele><time>2026-04-21T15:05:27.661Z</time></trkpt><trkpt lat="44.46649" lon="9.3288717"><ele>850.0</ele><time>2026-04-21T15:05:28.662Z</time></trkpt><trkpt lat="44.4665783" lon="9.3287933"><ele>850.0</ele><time>2026-04-21T15:05:29.662Z</time></trkpt><trkpt lat="44.4666867" lon="9.3287333"><ele>850.0</ele><time>2026-04-21T15:05:30.662Z</time></trkpt><trkpt lat="44.466825" lon="9.3286883"><ele>850.5</ele><time>2026-04-21T15:05:31.661Z</time></trkpt><trkpt lat="44.4669483" lon="9.3286433"><ele>851.0</ele><time>2026-04-21T15:05:32.662Z</time></trkpt><trkpt lat="44.4670617" lon="9.32859"><ele>851.5</ele><time>2026-04-21T15:05:33.661Z</time></trkpt><trkpt lat="44.4671667" lon="9.3285167"><ele>852.0</ele><time>2026-04-21T15:05:34.661Z</time></trkpt><trkpt lat="44.46726" lon="9.3284267"><ele>852.0</ele><time>2026-04-21T15:05:35.662Z</time></trkpt><trkpt lat="44.4673283" lon="9.3283017"><ele>852.0</ele><time>2026-04-21T15:05:36.661Z</time></trkpt><trkpt lat="44.4673483" lon="9.328175"><ele>852.0</ele><time>2026-04-21T15:05:37.661Z</time></trkpt><trkpt lat="44.4673783" lon="9.32802"><ele>852.0</ele><time>2026-04-21T15:05:38.661Z</time></trkpt><trkpt lat="44.4674017" lon="9.3278567"><ele>852.0</ele><time>2026-04-21T15:05:39.661Z</time></trkpt><trkpt lat="44.46741" lon="9.3277217"><ele>850.5</ele><time>2026-04-21T15:05:40.661Z</time></trkpt><trkpt lat="44.4674267" lon="9.3276017"><ele>849.0</ele><time>2026-04-21T15:05:41.662Z</time></trkpt><trkpt lat="44.467465" lon="9.3275217"><ele>847.5</ele><time>2026-04-21T15:05:42.661Z</time></trkpt><trkpt lat="44.4675367" lon="9.3274867"><ele>846.0</ele><time>2026-04-21T15:05:43.662Z</time></trkpt><trkpt lat="44.4676167" lon="9.3275"><ele>844.5</ele><time>2026-04-21T15:05:44.662Z</time></trkpt><trkpt lat="44.4676983" lon="9.327545"><ele>843.0</ele><time>2026-04-21T15:05:45.661Z</time></trkpt><trkpt lat="44.467795" lon="9.327635"><ele>843.0</ele><time>2026-04-21T15:05:46.661Z</time></trkpt><trkpt lat="44.46791" lon="9.327745"><ele>843.0</ele><time>2026-04-21T15:05:47.662Z</time></trkpt><trkpt lat="44.46803" lon="9.3278583"><ele>843.0</ele><time>2026-04-21T15:05:48.661Z</time></trkpt><trkpt lat="44.4681533" lon="9.327925"><ele>843.0</ele><time>2026-04-21T15:05:49.661Z</time></trkpt><trkpt lat="44.4682783" lon="9.32794"><ele>842.75</ele><time>2026-04-21T15:05:50.662Z</time></trkpt><trkpt lat="44.4684033" lon="9.3279167"><ele>842.5</ele><time>2026-04-21T15:05:51.661Z</time></trkpt><trkpt lat="44.468535" lon="9.3278617"><ele>842.25</ele><time>2026-04-21T15:05:52.661Z</time></trkpt><trkpt lat="44.4686617" lon="9.3278067"><ele>842.0</ele><time>2026-04-21T15:05:53.662Z</time></trkpt><trkpt lat="44.46878" lon="9.3277317"><ele>842.5</ele><time>2026-04-21T15:05:54.662Z</time></trkpt><trkpt lat="44.4689" lon="9.3276067"><ele>843.0</ele><time>2026-04-21T15:05:55.661Z</time></trkpt><trkpt lat="44.469" lon="9.327455"><ele>843.5</ele><time>2026-04-21T15:05:56.661Z</time></trkpt><trkpt lat="44.46909" lon="9.3273"><ele>844.0</ele><time>2026-04-21T15:05:57.661Z</time></trkpt><trkpt lat="44.4691833" lon="9.32715"><ele>842.75</ele><time>2026-04-21T15:05:58.661Z</time></trkpt><trkpt lat="44.4692717" lon="9.3270083"><ele>841.5</ele><time>2026-04-21T15:05:59.661Z</time></trkpt><trkpt lat="44.4693683" lon="9.3268783"><ele>840.25</ele><time>2026-04-21T15:06:00.662Z</time></trkpt><trkpt lat="44.469465" lon="9.3267383"><ele>839.0</ele><time>2026-04-21T15:06:01.661Z</time></trkpt><trkpt lat="44.4695633" lon="9.3266067"><ele>838.75</ele><time>2026-04-21T15:06:02.662Z</time></trkpt><trkpt lat="44.469665" lon="9.3264933"><ele>838.5</ele><time>2026-04-21T15:06:03.661Z</time></trkpt><trkpt lat="44.4697633" lon="9.3264083"><ele>838.25</ele><time>2026-04-21T15:06:04.661Z</time></trkpt><trkpt lat="44.4698667" lon="9.3263633"><ele>838.0</ele><time>2026-04-21T15:06:05.661Z</time></trkpt><trkpt lat="44.4699917" lon="9.32635"><ele>838.0</ele><time>2026-04-21T15:06:06.662Z</time></trkpt><trkpt lat="44.470125" lon="9.3263867"><ele>838.0</ele><time>2026-04-21T15:06:07.662Z</time></trkpt><trkpt lat="44.4702667" lon="9.32645"><ele>838.0</ele><time>2026-04-21T15:06:08.661Z</time></trkpt><trkpt lat="44.4704083" lon="9.32651"><ele>838.0</ele><time>2026-04-21T15:06:09.662Z</time></trkpt><trkpt lat="44.470555" lon="9.3265317"><ele>836.3333333333333</ele><time>2026-04-21T15:06:10.662Z</time></trkpt><trkpt lat="44.47071" lon="9.3264983"><ele>834.6666666666667</ele><time>2026-04-21T15:06:11.662Z</time></trkpt><trkpt lat="44.4708683" lon="9.3264283"><ele>833.0</ele><time>2026-04-21T15:06:12.662Z</time></trkpt><trkpt lat="44.4710133" lon="9.3263367"><ele>833.0</ele><time>2026-04-21T15:06:13.661Z</time></trkpt><trkpt lat="44.471125" lon="9.3262383"><ele>833.0</ele><time>2026-04-21T15:06:14.662Z</time></trkpt><trkpt lat="44.4712267" lon="9.3260967"><ele>833.0</ele><time>2026-04-21T15:06:15.661Z</time></trkpt><trkpt lat="44.47128" lon="9.3259067"><ele>833.0</ele><time>2026-04-21T15:06:16.662Z</time></trkpt><trkpt lat="44.47133" lon="9.3256583"><ele>836.3333333333334</ele><time>2026-04-21T15:06:17.662Z</time></trkpt><trkpt lat="44.4713867" lon="9.3254167"><ele>839.6666666666667</ele><time>2026-04-21T15:06:18.661Z</time></trkpt><trkpt lat="44.47143" lon="9.3251967"><ele>843.0</ele><time>2026-04-21T15:06:19.661Z</time></trkpt><trkpt lat="44.4714783" lon="9.325005"><ele>843.0</ele><time>2026-04-21T15:06:20.662Z</time></trkpt><trkpt lat="44.4715167" lon="9.3248533"><ele>843.0</ele><time>2026-04-21T15:06:21.661Z</time></trkpt><trkpt lat="44.4715717" lon="9.3247383"><ele>843.0</ele><time>2026-04-21T15:06:22.661Z</time></trkpt><trkpt lat="44.4716467" lon="9.3246433"><ele>843.0</ele><time>2026-04-21T15:06:23.661Z</time></trkpt><trkpt lat="44.4717517" lon="9.3245833"><ele>843.0</ele><time>2026-04-21T15:06:24.661Z</time></trkpt><trkpt lat="44.47188" lon="9.3245533"><ele>840.0</ele><time>2026-04-21T15:06:25.661Z</time></trkpt><trkpt lat="44.4720367" lon="9.32456"><ele>837.0</ele><time>2026-04-21T15:06:26.662Z</time></trkpt><trkpt lat="44.472205" lon="9.32454"><ele>834.0</ele><time>2026-04-21T15:06:27.661Z</time></trkpt><trkpt lat="44.47237" lon="9.32449"><ele>834.0</ele><time>2026-04-21T15:06:28.661Z</time></trkpt><trkpt lat="44.472535" lon="9.32441"><ele>834.0</ele><time>2026-04-21T15:06:29.661Z</time></trkpt><trkpt lat="44.472715" lon="9.3243117"><ele>834.0</ele><time>2026-04-21T15:06:30.661Z</time></trkpt><trkpt lat="44.4729067" lon="9.3242217"><ele>834.6666666666667</ele><time>2026-04-21T15:06:31.661Z</time></trkpt><trkpt lat="44.473085" lon="9.3241567"><ele>835.3333333333334</ele><time>2026-04-21T15:06:32.662Z</time></trkpt><trkpt lat="44.4732417" lon="9.3240883"><ele>836.0</ele><time>2026-04-21T15:06:33.662Z</time></trkpt><trkpt lat="44.4733933" lon="9.324035"><ele>836.0</ele><time>2026-04-21T15:06:34.661Z</time></trkpt><trkpt lat="44.473545" lon="9.3240133"><ele>836.0</ele><time>2026-04-21T15:06:35.661Z</time></trkpt><trkpt lat="44.47369" lon="9.3240317"><ele>836.0</ele><time>2026-04-21T15:06:36.661Z</time></trkpt><trkpt lat="44.4738283" lon="9.32408"><ele>836.0</ele><time>2026-04-21T15:06:37.661Z</time></trkpt><trkpt lat="44.47399" lon="9.3241683"><ele>835.0</ele><time>2026-04-21T15:06:38.662Z</time></trkpt><trkpt lat="44.4741667" lon="9.3242767"><ele>834.0</ele><time>2026-04-21T15:06:39.661Z</time></trkpt><trkpt lat="44.47435" lon="9.3244"><ele>833.0</ele><time>2026-04-21T15:06:40.662Z</time></trkpt><trkpt lat="44.474525" lon="9.3245283"><ele>834.0</ele><time>2026-04-21T15:06:41.661Z</time></trkpt><trkpt lat="44.4746867" lon="9.3246467"><ele>835.0</ele><time>2026-04-21T15:06:42.661Z</time></trkpt><trkpt lat="44.474845" lon="9.3247633"><ele>836.0</ele><time>2026-04-21T15:06:43.661Z</time></trkpt><trkpt lat="44.4749917" lon="9.3248467"><ele>836.0</ele><time>2026-04-21T15:06:44.662Z</time></trkpt><trkpt lat="44.47512" lon="9.3249"><ele>836.0</ele><time>2026-04-21T15:06:45.661Z</time></trkpt><trkpt lat="44.4752533" lon="9.3249167"><ele>836.0</ele><time>2026-04-21T15:06:46.661Z</time></trkpt><trkpt lat="44.4753767" lon="9.3249"><ele>836.0</ele><time>2026-04-21T15:06:47.662Z</time></trkpt><trkpt lat="44.475505" lon="9.3248533"><ele>833.0</ele><time>2026-04-21T15:06:48.662Z</time></trkpt><trkpt lat="44.475635" lon="9.3247417"><ele>830.0</ele><time>2026-04-21T15:06:49.661Z</time></trkpt><trkpt lat="44.4757717" lon="9.3246283"><ele>827.0</ele><time>2026-04-21T15:06:50.662Z</time></trkpt><trkpt lat="44.4759217" lon="9.32451"><ele>826.3333333333334</ele><time>2026-04-21T15:06:51.661Z</time></trkpt><trkpt lat="44.4760767" lon="9.324415"><ele>825.6666666666667</ele><time>2026-04-21T15:06:52.661Z</time></trkpt><trkpt lat="44.4762167" lon="9.3243317"><ele>825.0</ele><time>2026-04-21T15:06:53.662Z</time></trkpt><trkpt lat="44.476355" lon="9.3242767"><ele>827.0</ele><time>2026-04-21T15:06:54.661Z</time></trkpt><trkpt lat="44.4764917" lon="9.3242617"><ele>829.0</ele><time>2026-04-21T15:06:55.661Z</time></trkpt><trkpt lat="44.4766417" lon="9.324275"><ele>831.0</ele><time>2026-04-21T15:06:56.661Z</time></trkpt><trkpt lat="44.4768083" lon="9.3243283"><ele>831.0</ele><time>2026-04-21T15:06:57.661Z</time></trkpt><trkpt lat="44.476975" lon="9.324405"><ele>831.0</ele><time>2026-04-21T15:06:58.662Z</time></trkpt><trkpt lat="44.4771483" lon="9.3245033"><ele>831.0</ele><time>2026-04-21T15:06:59.662Z</time></trkpt><trkpt lat="44.477315" lon="9.3246083"><ele>829.6666666666667</ele><time>2026-04-21T15:07:00.661Z</time></trkpt><trkpt lat="44.4774767" lon="9.3247067"><ele>828.3333333333334</ele><time>2026-04-21T15:07:01.66Z</time></trkpt><trkpt lat="44.4776417" lon="9.3248033"><ele>827.0</ele><time>2026-04-21T15:07:02.661Z</time></trkpt><trkpt lat="44.4777967" lon="9.3249017"><ele>827.0</ele><time>2026-04-21T15:07:03.661Z</time></trkpt><trkpt lat="44.4779217" lon="9.3249983"><ele>827.0</ele><time>2026-04-21T15:07:04.662Z</time></trkpt><trkpt lat="44.4780417" lon="9.32508"><ele>827.0</ele><time>2026-04-21T15:07:05.662Z</time></trkpt><trkpt lat="44.4781617" lon="9.325205"><ele>827.0</ele><time>2026-04-21T15:07:06.662Z</time></trkpt><trkpt lat="44.4782533" lon="9.3253617"><ele>826.0</ele><time>2026-04-21T15:07:07.662Z</time></trkpt><trkpt lat="44.4783333" lon="9.3255467"><ele>825.0</ele><time>2026-04-21T15:07:08.661Z</time></trkpt><trkpt lat="44.4784183" lon="9.3257333"><ele>824.0</ele><time>2026-04-21T15:07:09.661Z</time></trkpt><trkpt lat="44.47852" lon="9.3258833"><ele>824.0</ele><time>2026-04-21T15:07:10.661Z</time></trkpt><trkpt lat="44.4786383" lon="9.3260067"><ele>824.0</ele><time>2026-04-21T15:07:11.662Z</time></trkpt><trkpt lat="44.4787617" lon="9.3260783"><ele>824.0</ele><time>2026-04-21T15:07:12.661Z</time></trkpt><trkpt lat="44.478905" lon="9.3261317"><ele>824.0</ele><time>2026-04-21T15:07:13.661Z</time></trkpt><trkpt lat="44.479065" lon="9.326175"><ele>823.5</ele><time>2026-04-21T15:07:14.661Z</time></trkpt><trkpt lat="44.479205" lon="9.3262233"><ele>823.0</ele><time>2026-04-21T15:07:15.661Z</time></trkpt><trkpt lat="44.4793383" lon="9.3262667"><ele>822.5</ele><time>2026-04-21T15:07:16.661Z</time></trkpt><trkpt lat="44.4794583" lon="9.3263"><ele>822.0</ele><time>2026-04-21T15:07:17.662Z</time></trkpt><trkpt lat="44.4795433" lon="9.3263117"><ele>822.4000000000001</ele><time>2026-04-21T15:07:18.661Z</time></trkpt><trkpt lat="44.4796417" lon="9.3262567"><ele>822.8000000000001</ele><time>2026-04-21T15:07:20.662Z</time></trkpt><trkpt lat="44.4796817" lon="9.3261733"><ele>823.2</ele><time>2026-04-21T15:07:21.661Z</time></trkpt><trkpt lat="44.479705" lon="9.326045"><ele>823.6</ele><time>2026-04-21T15:07:22.662Z</time></trkpt><trkpt lat="44.4797233" lon="9.3258767"><ele>824.0</ele><time>2026-04-21T15:07:23.662Z</time></trkpt><trkpt lat="44.4797483" lon="9.325705"><ele>824.0</ele><time>2026-04-21T15:07:24.661Z</time></trkpt><trkpt lat="44.47978" lon="9.3255233"><ele>824.0</ele><time>2026-04-21T15:07:25.662Z</time></trkpt><trkpt lat="44.4798183" lon="9.3253183"><ele>824.0</ele><time>2026-04-21T15:07:26.661Z</time></trkpt><trkpt lat="44.4798367" lon="9.3250917"><ele>824.0</ele><time>2026-04-21T15:07:27.661Z</time></trkpt><trkpt lat="44.4798367" lon="9.3248417"><ele>823.6666666666667</ele><time>2026-04-21T15:07:28.661Z</time></trkpt><trkpt lat="44.4798217" lon="9.3245883"><ele>823.3333333333333</ele><time>2026-04-21T15:07:29.661Z</time></trkpt><trkpt lat="44.479785" lon="9.3243183"><ele>823.0</ele><time>2026-04-21T15:07:30.661Z</time></trkpt><trkpt lat="44.479745" lon="9.3240417"><ele>822.6666666666666</ele><time>2026-04-21T15:07:31.662Z</time></trkpt><trkpt lat="44.4797117" lon="9.3237867"><ele>822.3333333333333</ele><time>2026-04-21T15:07:32.662Z</time></trkpt><trkpt lat="44.4796833" lon="9.3235517"><ele>822.0</ele><time>2026-04-21T15:07:33.662Z</time></trkpt><trkpt lat="44.4796533" lon="9.3233267"><ele>822.0</ele><time>2026-04-21T15:07:34.662Z</time></trkpt><trkpt lat="44.4796217" lon="9.3231133"><ele>822.0</ele><time>2026-04-21T15:07:35.661Z</time></trkpt><trkpt lat="44.4795967" lon="9.3229333"><ele>822.0</ele><time>2026-04-21T15:07:36.661Z</time></trkpt><trkpt lat="44.4796233" lon="9.3227733"><ele>822.0</ele><time>2026-04-21T15:07:37.661Z</time></trkpt><trkpt lat="44.4796733" lon="9.3226217"><ele>822.6666666666667</ele><time>2026-04-21T15:07:38.661Z</time></trkpt><trkpt lat="44.479745" lon="9.322445"><ele>823.3333333333334</ele><time>2026-04-21T15:07:39.662Z</time></trkpt><trkpt lat="44.4798383" lon="9.3222383"><ele>824.0</ele><time>2026-04-21T15:07:40.662Z</time></trkpt><trkpt lat="44.4799417" lon="9.3220017"><ele>824.0</ele><time>2026-04-21T15:07:41.662Z</time></trkpt><trkpt lat="44.4800483" lon="9.3217417"><ele>824.0</ele><time>2026-04-21T15:07:42.661Z</time></trkpt><trkpt lat="44.4801533" lon="9.32148"><ele>824.0</ele><time>2026-04-21T15:07:43.662Z</time></trkpt><trkpt lat="44.4802617" lon="9.3212167"><ele>823.6666666666667</ele><time>2026-04-21T15:07:44.662Z</time></trkpt><trkpt lat="44.48036" lon="9.320975"><ele>823.3333333333333</ele><time>2026-04-21T15:07:45.661Z</time></trkpt><trkpt lat="44.4804567" lon="9.3207467"><ele>823.0</ele><time>2026-04-21T15:07:46.661Z</time></trkpt><trkpt lat="44.4805417" lon="9.3205167"><ele>827.0</ele><time>2026-04-21T15:07:47.662Z</time></trkpt><trkpt lat="44.4806233" lon="9.32028"><ele>831.0</ele><time>2026-04-21T15:07:48.661Z</time></trkpt><trkpt lat="44.4806883" lon="9.3200267"><ele>835.0</ele><time>2026-04-21T15:07:49.662Z</time></trkpt><trkpt lat="44.4807533" lon="9.3197817"><ele>833.0</ele><time>2026-04-21T15:07:50.661Z</time></trkpt><trkpt lat="44.480815" lon="9.319545"><ele>831.0</ele><time>2026-04-21T15:07:51.662Z</time></trkpt><trkpt lat="44.4808783" lon="9.3193333"><ele>829.0</ele><time>2026-04-21T15:07:52.661Z</time></trkpt><trkpt lat="44.4809633" lon="9.3191117"><ele>829.0</ele><time>2026-04-21T15:07:53.662Z</time></trkpt><trkpt lat="44.4810467" lon="9.3189167"><ele>829.0</ele><time>2026-04-21T15:07:54.662Z</time></trkpt><trkpt lat="44.4811433" lon="9.31874"><ele>829.0</ele><time>2026-04-21T15:07:55.661Z</time></trkpt><trkpt lat="44.481265" lon="9.318585"><ele>830.3333333333333</ele><time>2026-04-21T15:07:56.662Z</time></trkpt><trkpt lat="44.48141" lon="9.31845"><ele>831.6666666666667</ele><time>2026-04-21T15:07:57.661Z</time></trkpt><trkpt lat="44.4815567" lon="9.3183317"><ele>833.0</ele><time>2026-04-21T15:07:58.661Z</time></trkpt><trkpt lat="44.4817133" lon="9.3182067"><ele>833.0</ele><time>2026-04-21T15:07:59.662Z</time></trkpt><trkpt lat="44.4818483" lon="9.3180733"><ele>833.0</ele><time>2026-04-21T15:08:00.661Z</time></trkpt><trkpt lat="44.4819583" lon="9.3179167"><ele>833.0</ele><time>2026-04-21T15:08:01.661Z</time></trkpt><trkpt lat="44.48204" lon="9.3177167"><ele>836.0</ele><time>2026-04-21T15:08:02.662Z</time></trkpt><trkpt lat="44.48211" lon="9.3175117"><ele>839.0</ele><time>2026-04-21T15:08:03.661Z</time></trkpt><trkpt lat="44.4821583" lon="9.317275"><ele>842.0</ele><time>2026-04-21T15:08:04.661Z</time></trkpt><trkpt lat="44.482195" lon="9.317015"><ele>842.0</ele><time>2026-04-21T15:08:05.661Z</time></trkpt><trkpt lat="44.4822267" lon="9.3167417"><ele>842.0</ele><time>2026-04-21T15:08:06.661Z</time></trkpt><trkpt lat="44.4822667" lon="9.3164567"><ele>842.0</ele><time>2026-04-21T15:08:07.662Z</time></trkpt><trkpt lat="44.482305" lon="9.31617"><ele>840.6666666666667</ele><time>2026-04-21T15:08:08.662Z</time></trkpt><trkpt lat="44.482345" lon="9.31588"><ele>839.3333333333333</ele><time>2026-04-21T15:08:09.661Z</time></trkpt><trkpt lat="44.4823867" lon="9.3155833"><ele>838.0</ele><time>2026-04-21T15:08:10.662Z</time></trkpt><trkpt lat="44.4824217" lon="9.3153033"><ele>837.0</ele><time>2026-04-21T15:08:11.661Z</time></trkpt><trkpt lat="44.4824533" lon="9.3150333"><ele>836.0</ele><time>2026-04-21T15:08:12.661Z</time></trkpt><trkpt lat="44.48249" lon="9.31477"><ele>835.0</ele><time>2026-04-21T15:08:13.661Z</time></trkpt><trkpt lat="44.4825183" lon="9.3145133"><ele>834.6666666666666</ele><time>2026-04-21T15:08:14.662Z</time></trkpt><trkpt lat="44.4825483" lon="9.3142383"><ele>834.3333333333333</ele><time>2026-04-21T15:08:15.661Z</time></trkpt><trkpt lat="44.482585" lon="9.3139617"><ele>834.0</ele><time>2026-04-21T15:08:16.662Z</time></trkpt><trkpt lat="44.482615" lon="9.313685"><ele>834.0</ele><time>2026-04-21T15:08:17.662Z</time></trkpt><trkpt lat="44.4826417" lon="9.3134183"><ele>834.0</ele><time>2026-04-21T15:08:18.661Z</time></trkpt><trkpt lat="44.4826717" lon="9.31317"><ele>834.0</ele><time>2026-04-21T15:08:19.662Z</time></trkpt><trkpt lat="44.4827067" lon="9.31294"><ele>834.0</ele><time>2026-04-21T15:08:20.661Z</time></trkpt><trkpt lat="44.4827583" lon="9.3127183"><ele>834.0</ele><time>2026-04-21T15:08:21.661Z</time></trkpt><trkpt lat="44.4828283" lon="9.3125083"><ele>834.0</ele><time>2026-04-21T15:08:22.661Z</time></trkpt><trkpt lat="44.482905" lon="9.3122867"><ele>837.3333333333333</ele><time>2026-04-21T15:08:23.661Z</time></trkpt><trkpt lat="44.4829917" lon="9.312065"><ele>840.6666666666666</ele><time>2026-04-21T15:08:24.661Z</time></trkpt><trkpt lat="44.4830883" lon="9.31183"><ele>844.0</ele><time>2026-04-21T15:08:25.661Z</time></trkpt><trkpt lat="44.483195" lon="9.311605"><ele>840.3333333333333</ele><time>2026-04-21T15:08:26.662Z</time></trkpt><trkpt lat="44.4833033" lon="9.311365"><ele>836.6666666666667</ele><time>2026-04-21T15:08:27.661Z</time></trkpt><trkpt lat="44.4834267" lon="9.3111367"><ele>833.0</ele><time>2026-04-21T15:08:28.662Z</time></trkpt><trkpt lat="44.483545" lon="9.31091"><ele>833.0</ele><time>2026-04-21T15:08:29.662Z</time></trkpt><trkpt lat="44.48367" lon="9.3107017"><ele>833.0</ele><time>2026-04-21T15:08:30.661Z</time></trkpt><trkpt lat="44.48379" lon="9.3104917"><ele>833.0</ele><time>2026-04-21T15:08:31.662Z</time></trkpt><trkpt lat="44.4839" lon="9.3102733"><ele>835.0</ele><time>2026-04-21T15:08:32.661Z</time></trkpt><trkpt lat="44.4839883" lon="9.3100467"><ele>837.0</ele><time>2026-04-21T15:08:33.662Z</time></trkpt><trkpt lat="44.48406" lon="9.3098233"><ele>839.0</ele><time>2026-04-21T15:08:34.662Z</time></trkpt><trkpt lat="44.4841367" lon="9.3095867"><ele>839.0</ele><time>2026-04-21T15:08:35.661Z</time></trkpt><trkpt lat="44.4841917" lon="9.3093767"><ele>839.0</ele><time>2026-04-21T15:08:36.661Z</time></trkpt><trkpt lat="44.484255" lon="9.3091567"><ele>839.0</ele><time>2026-04-21T15:08:37.662Z</time></trkpt><trkpt lat="44.48433" lon="9.30895"><ele>840.0</ele><time>2026-04-21T15:08:38.661Z</time></trkpt><trkpt lat="44.4844183" lon="9.3087417"><ele>841.0</ele><time>2026-04-21T15:08:39.662Z</time></trkpt><trkpt lat="44.4845167" lon="9.308515"><ele>842.0</ele><time>2026-04-21T15:08:40.662Z</time></trkpt><trkpt lat="44.4846133" lon="9.3082983"><ele>842.0</ele><time>2026-04-21T15:08:41.662Z</time></trkpt><trkpt lat="44.4847" lon="9.3081"><ele>842.0</ele><time>2026-04-21T15:08:42.662Z</time></trkpt><trkpt lat="44.48478" lon="9.307915"><ele>842.0</ele><time>2026-04-21T15:08:43.661Z</time></trkpt><trkpt lat="44.484845" lon="9.30774"><ele>840.75</ele><time>2026-04-21T15:08:44.662Z</time></trkpt><trkpt lat="44.4848933" lon="9.3075633"><ele>839.5</ele><time>2026-04-21T15:08:45.662Z</time></trkpt><trkpt lat="44.4849267" lon="9.3073733"><ele>838.25</ele><time>2026-04-21T15:08:46.661Z</time></trkpt><trkpt lat="44.4849433" lon="9.3071867"><ele>837.0</ele><time>2026-04-21T15:08:47.661Z</time></trkpt><trkpt lat="44.484955" lon="9.3069867"><ele>837.0</ele><time>2026-04-21T15:08:48.661Z</time></trkpt><trkpt lat="44.4849533" lon="9.306785"><ele>837.0</ele><time>2026-04-21T15:08:49.661Z</time></trkpt><trkpt lat="44.4849583" lon="9.3066"><ele>837.0</ele><time>2026-04-21T15:08:50.661Z</time></trkpt><trkpt lat="44.484975" lon="9.3064417"><ele>837.0</ele><time>2026-04-21T15:08:51.661Z</time></trkpt><trkpt lat="44.4849933" lon="9.306305"><ele>837.5</ele><time>2026-04-21T15:08:52.662Z</time></trkpt><trkpt lat="44.485025" lon="9.306205"><ele>838.0</ele><time>2026-04-21T15:08:53.662Z</time></trkpt><trkpt lat="44.4851283" lon="9.3061017"><ele>838.5</ele><time>2026-04-21T15:08:55.661Z</time></trkpt><trkpt lat="44.4852" lon="9.3061"><ele>839.0</ele><time>2026-04-21T15:08:56.661Z</time></trkpt><trkpt lat="44.48528" lon="9.3061167"><ele>839.5</ele><time>2026-04-21T15:08:57.662Z</time></trkpt><trkpt lat="44.4853567" lon="9.3061317"><ele>840.0</ele><time>2026-04-21T15:08:58.661Z</time></trkpt><trkpt lat="44.48542" lon="9.30612"><ele>843.5</ele><time>2026-04-21T15:08:59.661Z</time></trkpt><trkpt lat="44.4855083" lon="9.3060133"><ele>847.0</ele><time>2026-04-21T15:09:01.662Z</time></trkpt><trkpt lat="44.4855117" lon="9.3058117"><ele>850.5</ele><time>2026-04-21T15:09:03.661Z</time></trkpt><trkpt lat="44.4855083" lon="9.30567"><ele>854.0</ele><time>2026-04-21T15:09:04.662Z</time></trkpt><trkpt lat="44.4855133" lon="9.3055317"><ele>854.8571428571429</ele><time>2026-04-21T15:09:05.661Z</time></trkpt><trkpt lat="44.4855233" lon="9.3054133"><ele>855.7142857142858</ele><time>2026-04-21T15:09:06.661Z</time></trkpt><trkpt lat="44.48552" lon="9.30532"><ele>856.5714285714286</ele><time>2026-04-21T15:09:07.661Z</time></trkpt><trkpt lat="44.4855" lon="9.305235"><ele>857.4285714285714</ele><time>2026-04-21T15:09:08.661Z</time></trkpt><trkpt lat="44.4854417" lon="9.3051867"><ele>858.2857142857143</ele><time>2026-04-21T15:09:09.662Z</time></trkpt><trkpt lat="44.4853633" lon="9.3051683"><ele>859.1428571428571</ele><time>2026-04-21T15:09:10.662Z</time></trkpt><trkpt lat="44.4852817" lon="9.3051733"><ele>860.0</ele><time>2026-04-21T15:09:11.661Z</time></trkpt><trkpt lat="44.485195" lon="9.3050967"><ele>856.5</ele><time>2026-04-21T15:09:13.661Z</time></trkpt><trkpt lat="44.4852117" lon="9.3048917"><ele>853.0</ele><time>2026-04-21T15:09:15.661Z</time></trkpt><trkpt lat="44.4852267" lon="9.3047567"><ele>849.5</ele><time>2026-04-21T15:09:16.662Z</time></trkpt><trkpt lat="44.4852533" lon="9.304565"><ele>846.0</ele><time>2026-04-21T15:09:17.661Z</time></trkpt><trkpt lat="44.485265" lon="9.3043817"><ele>846.0</ele><time>2026-04-21T15:09:18.662Z</time></trkpt><trkpt lat="44.4852483" lon="9.3041933"><ele>846.0</ele><time>2026-04-21T15:09:19.661Z</time></trkpt><trkpt lat="44.4852083" lon="9.303995"><ele>846.0</ele><time>2026-04-21T15:09:20.661Z</time></trkpt><trkpt lat="44.4851483" lon="9.3038183"><ele>846.0</ele><time>2026-04-21T15:09:21.661Z</time></trkpt><trkpt lat="44.48509" lon="9.3036483"><ele>847.25</ele><time>2026-04-21T15:09:22.661Z</time></trkpt><trkpt lat="44.485035" lon="9.3035167"><ele>848.5</ele><time>2026-04-21T15:09:23.661Z</time></trkpt><trkpt lat="44.48495" lon="9.3033567"><ele>849.75</ele><time>2026-04-21T15:09:24.661Z</time></trkpt><trkpt lat="44.4848467" lon="9.3032233"><ele>851.0</ele><time>2026-04-21T15:09:25.661Z</time></trkpt><trkpt lat="44.4847483" lon="9.3031017"><ele>849.0</ele><time>2026-04-21T15:09:26.661Z</time></trkpt><trkpt lat="44.4846583" lon="9.3029783"><ele>847.0</ele><time>2026-04-21T15:09:27.661Z</time></trkpt><trkpt lat="44.48459" lon="9.3028567"><ele>845.0</ele><time>2026-04-21T15:09:28.662Z</time></trkpt><trkpt lat="44.4845633" lon="9.3027067"><ele>843.0</ele><time>2026-04-21T15:09:29.661Z</time></trkpt><trkpt lat="44.4845667" lon="9.3025333"><ele>850.3333333333333</ele><time>2026-04-21T15:09:30.661Z</time></trkpt><trkpt lat="44.4845983" lon="9.3023383"><ele>857.6666666666666</ele><time>2026-04-21T15:09:31.661Z</time></trkpt><trkpt lat="44.4846383" lon="9.302135"><ele>865.0</ele><time>2026-04-21T15:09:32.662Z</time></trkpt><trkpt lat="44.4846833" lon="9.3019067"><ele>865.6666666666666</ele><time>2026-04-21T15:09:33.661Z</time></trkpt><trkpt lat="44.4847267" lon="9.3016517"><ele>866.3333333333333</ele><time>2026-04-21T15:09:34.662Z</time></trkpt><trkpt lat="44.4847733" lon="9.3013783"><ele>867.0</ele><time>2026-04-21T15:09:35.661Z</time></trkpt><trkpt lat="44.4848167" lon="9.3011"><ele>865.3333333333333</ele><time>2026-04-21T15:09:36.661Z</time></trkpt><trkpt lat="44.484865" lon="9.3007983"><ele>863.6666666666666</ele><time>2026-04-21T15:09:37.662Z</time></trkpt><trkpt lat="44.4849067" lon="9.300495"><ele>862.0</ele><time>2026-04-21T15:09:38.662Z</time></trkpt><trkpt lat="44.4849483" lon="9.300195"><ele>860.6666666666666</ele><time>2026-04-21T15:09:39.661Z</time></trkpt><trkpt lat="44.48499" lon="9.2998983"><ele>859.3333333333333</ele><time>2026-04-21T15:09:40.661Z</time></trkpt><trkpt lat="44.485025" lon="9.2996167"><ele>858.0</ele><time>2026-04-21T15:09:41.661Z</time></trkpt><trkpt lat="44.4850767" lon="9.2993233"><ele>857.0</ele><time>2026-04-21T15:09:42.662Z</time></trkpt><trkpt lat="44.485115" lon="9.299055"><ele>856.0</ele><time>2026-04-21T15:09:43.661Z</time></trkpt><trkpt lat="44.48515" lon="9.2988067"><ele>855.0</ele><time>2026-04-21T15:09:44.662Z</time></trkpt><trkpt lat="44.4851783" lon="9.2985733"><ele>854.25</ele><time>2026-04-21T15:09:45.662Z</time></trkpt><trkpt lat="44.48521" lon="9.2983733"><ele>853.5</ele><time>2026-04-21T15:09:46.661Z</time></trkpt><trkpt lat="44.4852233" lon="9.2981967"><ele>852.75</ele><time>2026-04-21T15:09:47.661Z</time></trkpt><trkpt lat="44.4852117" lon="9.2980283"><ele>852.0</ele><time>2026-04-21T15:09:48.661Z</time></trkpt><trkpt lat="44.48518" lon="9.2978567"><ele>852.0</ele><time>2026-04-21T15:09:49.662Z</time></trkpt><trkpt lat="44.4851417" lon="9.2976883"><ele>852.0</ele><time>2026-04-21T15:09:50.661Z</time></trkpt><trkpt lat="44.4850867" lon="9.2975333"><ele>852.0</ele><time>2026-04-21T15:09:51.662Z</time></trkpt><trkpt lat="44.4849983" lon="9.29741"><ele>852.0</ele><time>2026-04-21T15:09:52.662Z</time></trkpt><trkpt lat="44.4849083" lon="9.2973033"><ele>851.0</ele><time>2026-04-21T15:09:53.662Z</time></trkpt><trkpt lat="44.4848" lon="9.297195"><ele>850.0</ele><time>2026-04-21T15:09:54.662Z</time></trkpt><trkpt lat="44.484675" lon="9.29707"><ele>849.0</ele><time>2026-04-21T15:09:55.661Z</time></trkpt><trkpt lat="44.484565" lon="9.29694"><ele>848.0</ele><time>2026-04-21T15:09:56.662Z</time></trkpt><trkpt lat="44.48447" lon="9.29677"><ele>848.0</ele><time>2026-04-21T15:09:57.662Z</time></trkpt><trkpt lat="44.48438" lon="9.2965783"><ele>848.0</ele><time>2026-04-21T15:09:58.662Z</time></trkpt><trkpt lat="44.4842967" lon="9.2963667"><ele>848.0</ele><time>2026-04-21T15:09:59.662Z</time></trkpt><trkpt lat="44.4842133" lon="9.2961417"><ele>848.6666666666667</ele><time>2026-04-21T15:10:00.661Z</time></trkpt><trkpt lat="44.4841283" lon="9.29591"><ele>849.3333333333333</ele><time>2026-04-21T15:10:01.661Z</time></trkpt><trkpt lat="44.4840383" lon="9.29569"><ele>850.0</ele><time>2026-04-21T15:10:02.661Z</time></trkpt><trkpt lat="44.4839567" lon="9.2954583"><ele>849.6666666666666</ele><time>2026-04-21T15:10:03.662Z</time></trkpt><trkpt lat="44.4838567" lon="9.2952133"><ele>849.3333333333333</ele><time>2026-04-21T15:10:04.661Z</time></trkpt><trkpt lat="44.4837533" lon="9.2949633"><ele>849.0</ele><time>2026-04-21T15:10:05.662Z</time></trkpt><trkpt lat="44.4836467" lon="9.2947283"><ele>851.3333333333333</ele><time>2026-04-21T15:10:06.661Z</time></trkpt><trkpt lat="44.48355" lon="9.2945117"><ele>853.6666666666666</ele><time>2026-04-21T15:10:07.662Z</time></trkpt><trkpt lat="44.4834633" lon="9.2942933"><ele>856.0</ele><time>2026-04-21T15:10:08.661Z</time></trkpt><trkpt lat="44.4833867" lon="9.2940783"><ele>858.0</ele><time>2026-04-21T15:10:09.661Z</time></trkpt><trkpt lat="44.4833283" lon="9.293865"><ele>860.0</ele><time>2026-04-21T15:10:10.661Z</time></trkpt><trkpt lat="44.4833017" lon="9.2936467"><ele>862.0</ele><time>2026-04-21T15:10:11.662Z</time></trkpt><trkpt lat="44.48328" lon="9.2934267"><ele>862.0</ele><time>2026-04-21T15:10:12.662Z</time></trkpt><trkpt lat="44.483285" lon="9.2931917"><ele>862.0</ele><time>2026-04-21T15:10:13.662Z</time></trkpt><trkpt lat="44.483305" lon="9.2929367"><ele>862.0</ele><time>2026-04-21T15:10:14.662Z</time></trkpt><trkpt lat="44.4833183" lon="9.2926683"><ele>863.0</ele><time>2026-04-21T15:10:15.661Z</time></trkpt><trkpt lat="44.48332" lon="9.2923883"><ele>864.0</ele><time>2026-04-21T15:10:16.662Z</time></trkpt><trkpt lat="44.48331" lon="9.2921067"><ele>865.0</ele><time>2026-04-21T15:10:17.661Z</time></trkpt><trkpt lat="44.48329" lon="9.2918533"><ele>865.0</ele><time>2026-04-21T15:10:18.662Z</time></trkpt><trkpt lat="44.483275" lon="9.2916083"><ele>865.0</ele><time>2026-04-21T15:10:19.662Z</time></trkpt><trkpt lat="44.48327" lon="9.29137"><ele>865.0</ele><time>2026-04-21T15:10:20.662Z</time></trkpt><trkpt lat="44.483275" lon="9.2911233"><ele>863.0</ele><time>2026-04-21T15:10:21.662Z</time></trkpt><trkpt lat="44.4832883" lon="9.2908567"><ele>861.0</ele><time>2026-04-21T15:10:22.661Z</time></trkpt><trkpt lat="44.483305" lon="9.290585"><ele>859.0</ele><time>2026-04-21T15:10:23.662Z</time></trkpt><trkpt lat="44.4833333" lon="9.2902967"><ele>857.0</ele><time>2026-04-21T15:10:24.662Z</time></trkpt><trkpt lat="44.4833667" lon="9.2900167"><ele>855.0</ele><time>2026-04-21T15:10:25.661Z</time></trkpt><trkpt lat="44.483395" lon="9.2897483"><ele>853.0</ele><time>2026-04-21T15:10:26.662Z</time></trkpt><trkpt lat="44.4834283" lon="9.289495"><ele>852.75</ele><time>2026-04-21T15:10:27.661Z</time></trkpt><trkpt lat="44.4834467" lon="9.2892667"><ele>852.5</ele><time>2026-04-21T15:10:28.661Z</time></trkpt><trkpt lat="44.4834633" lon="9.289075"><ele>852.25</ele><time>2026-04-21T15:10:29.661Z</time></trkpt><trkpt lat="44.4834717" lon="9.2889167"><ele>852.0</ele><time>2026-04-21T15:10:30.661Z</time></trkpt><trkpt lat="44.4834733" lon="9.2887717"><ele>852.6</ele><time>2026-04-21T15:10:31.661Z</time></trkpt><trkpt lat="44.4834617" lon="9.2886333"><ele>853.2</ele><time>2026-04-21T15:10:32.662Z</time></trkpt><trkpt lat="44.4834333" lon="9.2884833"><ele>853.8</ele><time>2026-04-21T15:10:33.661Z</time></trkpt><trkpt lat="44.4834067" lon="9.28834"><ele>854.4</ele><time>2026-04-21T15:10:34.661Z</time></trkpt><trkpt lat="44.4833767" lon="9.28817"><ele>855.0</ele><time>2026-04-21T15:10:35.661Z</time></trkpt><trkpt lat="44.483345" lon="9.2879867"><ele>855.75</ele><time>2026-04-21T15:10:36.661Z</time></trkpt><trkpt lat="44.4833083" lon="9.287805"><ele>856.5</ele><time>2026-04-21T15:10:37.661Z</time></trkpt><trkpt lat="44.4832717" lon="9.28762"><ele>857.25</ele><time>2026-04-21T15:10:38.662Z</time></trkpt><trkpt lat="44.4832333" lon="9.2874317"><ele>858.0</ele><time>2026-04-21T15:10:39.661Z</time></trkpt><trkpt lat="44.4832" lon="9.287235"><ele>860.0</ele><time>2026-04-21T15:10:40.662Z</time></trkpt><trkpt lat="44.4831717" lon="9.2870317"><ele>862.0</ele><time>2026-04-21T15:10:41.661Z</time></trkpt><trkpt lat="44.4831517" lon="9.2868317"><ele>864.0</ele><time>2026-04-21T15:10:42.661Z</time></trkpt><trkpt lat="44.48313" lon="9.28663"><ele>866.0</ele><time>2026-04-21T15:10:43.661Z</time></trkpt><trkpt lat="44.48311" lon="9.286425"><ele>866.75</ele><time>2026-04-21T15:10:44.661Z</time></trkpt><trkpt lat="44.483105" lon="9.2862183"><ele>867.5</ele><time>2026-04-21T15:10:45.662Z</time></trkpt><trkpt lat="44.4831133" lon="9.286015"><ele>868.25</ele><time>2026-04-21T15:10:46.662Z</time></trkpt><trkpt lat="44.4831233" lon="9.2858167"><ele>869.0</ele><time>2026-04-21T15:10:47.662Z</time></trkpt><trkpt lat="44.4831417" lon="9.2856167"><ele>869.75</ele><time>2026-04-21T15:10:48.661Z</time></trkpt><trkpt lat="44.4831433" lon="9.28542"><ele>870.5</ele><time>2026-04-21T15:10:49.662Z</time></trkpt><trkpt lat="44.4831533" lon="9.2852183"><ele>871.25</ele><time>2026-04-21T15:10:50.662Z</time></trkpt><trkpt lat="44.4831367" lon="9.2850333"><ele>872.0</ele><time>2026-04-21T15:10:51.662Z</time></trkpt><trkpt lat="44.4831033" lon="9.2848533"><ele>870.0</ele><time>2026-04-21T15:10:52.661Z</time></trkpt><trkpt lat="44.4830633" lon="9.2846867"><ele>868.0</ele><time>2026-04-21T15:10:53.661Z</time></trkpt><trkpt lat="44.483015" lon="9.28453"><ele>866.0</ele><time>2026-04-21T15:10:54.661Z</time></trkpt><trkpt lat="44.4829583" lon="9.2843817"><ele>864.0</ele><time>2026-04-21T15:10:55.662Z</time></trkpt><trkpt lat="44.4828717" lon="9.2842467"><ele>864.0</ele><time>2026-04-21T15:10:56.662Z</time></trkpt><trkpt lat="44.482755" lon="9.2841183"><ele>864.0</ele><time>2026-04-21T15:10:57.661Z</time></trkpt><trkpt lat="44.482625" lon="9.283975"><ele>864.0</ele><time>2026-04-21T15:10:58.662Z</time></trkpt><trkpt lat="44.4824767" lon="9.2838183"><ele>863.0</ele><time>2026-04-21T15:10:59.662Z</time></trkpt><trkpt lat="44.4823167" lon="9.2836467"><ele>862.0</ele><time>2026-04-21T15:11:00.662Z</time></trkpt><trkpt lat="44.48216" lon="9.2834567"><ele>861.0</ele><time>2026-04-21T15:11:01.662Z</time></trkpt><trkpt lat="44.4819967" lon="9.283255"><ele>862.0</ele><time>2026-04-21T15:11:02.661Z</time></trkpt><trkpt lat="44.4818567" lon="9.28304"><ele>863.0</ele><time>2026-04-21T15:11:03.662Z</time></trkpt><trkpt lat="44.4817217" lon="9.28284"><ele>864.0</ele><time>2026-04-21T15:11:04.661Z</time></trkpt><trkpt lat="44.4815967" lon="9.2826367"><ele>864.0</ele><time>2026-04-21T15:11:05.662Z</time></trkpt><trkpt lat="44.4814983" lon="9.2824467"><ele>864.0</ele><time>2026-04-21T15:11:06.661Z</time></trkpt><trkpt lat="44.4814117" lon="9.282275"><ele>864.0</ele><time>2026-04-21T15:11:07.661Z</time></trkpt><trkpt lat="44.481345" lon="9.2820967"><ele>863.25</ele><time>2026-04-21T15:11:08.661Z</time></trkpt><trkpt lat="44.481305" lon="9.281895"><ele>862.5</ele><time>2026-04-21T15:11:09.662Z</time></trkpt><trkpt lat="44.4812733" lon="9.2817"><ele>861.75</ele><time>2026-04-21T15:11:10.661Z</time></trkpt><trkpt lat="44.4812533" lon="9.2815033"><ele>861.0</ele><time>2026-04-21T15:11:11.661Z</time></trkpt><trkpt lat="44.4812417" lon="9.281295"><ele>861.0</ele><time>2026-04-21T15:11:12.661Z</time></trkpt><trkpt lat="44.481265" lon="9.2810933"><ele>861.0</ele><time>2026-04-21T15:11:13.661Z</time></trkpt><trkpt lat="44.48132" lon="9.2808783"><ele>861.0</ele><time>2026-04-21T15:11:14.661Z</time></trkpt><trkpt lat="44.4813967" lon="9.280665"><ele>864.3333333333333</ele><time>2026-04-21T15:11:15.662Z</time></trkpt><trkpt lat="44.48149" lon="9.2804783"><ele>867.6666666666666</ele><time>2026-04-21T15:11:16.661Z</time></trkpt><trkpt lat="44.4816067" lon="9.2803083"><ele>871.0</ele><time>2026-04-21T15:11:17.661Z</time></trkpt><trkpt lat="44.4817383" lon="9.280145"><ele>871.0</ele><time>2026-04-21T15:11:18.662Z</time></trkpt><trkpt lat="44.4818633" lon="9.2799767"><ele>871.0</ele><time>2026-04-21T15:11:19.661Z</time></trkpt><trkpt lat="44.48199" lon="9.2798117"><ele>871.0</ele><time>2026-04-21T15:11:20.661Z</time></trkpt><trkpt lat="44.482095" lon="9.2796567"><ele>876.5</ele><time>2026-04-21T15:11:21.661Z</time></trkpt><trkpt lat="44.4821733" lon="9.2794967"><ele>882.0</ele><time>2026-04-21T15:11:22.661Z</time></trkpt><trkpt lat="44.4822183" lon="9.27933"><ele>887.5</ele><time>2026-04-21T15:11:23.661Z</time></trkpt><trkpt lat="44.4822367" lon="9.27915"><ele>893.0</ele><time>2026-04-21T15:11:24.662Z</time></trkpt><trkpt lat="44.4822267" lon="9.2789583"><ele>892.6666666666667</ele><time>2026-04-21T15:11:25.662Z</time></trkpt><trkpt lat="44.4822133" lon="9.2787433"><ele>892.3333333333333</ele><time>2026-04-21T15:11:26.662Z</time></trkpt><trkpt lat="44.4821883" lon="9.2785183"><ele>892.0</ele><time>2026-04-21T15:11:27.662Z</time></trkpt><trkpt lat="44.4821767" lon="9.2782783"><ele>892.0</ele><time>2026-04-21T15:11:28.661Z</time></trkpt><trkpt lat="44.4821633" lon="9.2780317"><ele>892.0</ele><time>2026-04-21T15:11:29.662Z</time></trkpt><trkpt lat="44.4821467" lon="9.27777"><ele>892.0</ele><time>2026-04-21T15:11:30.662Z</time></trkpt><trkpt lat="44.4821083" lon="9.2775017"><ele>887.3333333333333</ele><time>2026-04-21T15:11:31.661Z</time></trkpt><trkpt lat="44.4820467" lon="9.2772267"><ele>882.6666666666667</ele><time>2026-04-21T15:11:32.661Z</time></trkpt><trkpt lat="44.4819783" lon="9.27695"><ele>878.0</ele><time>2026-04-21T15:11:33.662Z</time></trkpt><trkpt lat="44.4819017" lon="9.2766567"><ele>880.6666666666667</ele><time>2026-04-21T15:11:34.661Z</time></trkpt><trkpt lat="44.4818283" lon="9.2763817"><ele>883.3333333333333</ele><time>2026-04-21T15:11:35.662Z</time></trkpt><trkpt lat="44.4817633" lon="9.2761183"><ele>886.0</ele><time>2026-04-21T15:11:36.662Z</time></trkpt><trkpt lat="44.481705" lon="9.27587"><ele>886.0</ele><time>2026-04-21T15:11:37.662Z</time></trkpt><trkpt lat="44.48166" lon="9.27565"><ele>886.0</ele><time>2026-04-21T15:11:38.662Z</time></trkpt><trkpt lat="44.4816283" lon="9.2754467"><ele>886.0</ele><time>2026-04-21T15:11:39.662Z</time></trkpt><trkpt lat="44.48162" lon="9.2752467"><ele>885.6666666666666</ele><time>2026-04-21T15:11:40.662Z</time></trkpt><trkpt lat="44.481655" lon="9.2750317"><ele>885.3333333333333</ele><time>2026-04-21T15:11:41.661Z</time></trkpt><trkpt lat="44.48171" lon="9.2748183"><ele>885.0</ele><time>2026-04-21T15:11:42.661Z</time></trkpt><trkpt lat="44.4817783" lon="9.2746083"><ele>886.0</ele><time>2026-04-21T15:11:43.661Z</time></trkpt><trkpt lat="44.4818417" lon="9.2744083"><ele>887.0</ele><time>2026-04-21T15:11:44.661Z</time></trkpt><trkpt lat="44.4818833" lon="9.2742117"><ele>888.0</ele><time>2026-04-21T15:11:45.661Z</time></trkpt><trkpt lat="44.4819033" lon="9.2740217"><ele>889.0</ele><time>2026-04-21T15:11:46.662Z</time></trkpt><trkpt lat="44.48188" lon="9.2738317"><ele>889.0</ele><time>2026-04-21T15:11:47.661Z</time></trkpt><trkpt lat="44.4818283" lon="9.2736467"><ele>889.0</ele><time>2026-04-21T15:11:48.661Z</time></trkpt><trkpt lat="44.4817517" lon="9.27345"><ele>889.0</ele><time>2026-04-21T15:11:49.661Z</time></trkpt><trkpt lat="44.481655" lon="9.27326"><ele>897.3333333333333</ele><time>2026-04-21T15:11:50.661Z</time></trkpt><trkpt lat="44.48155" lon="9.273075"><ele>905.6666666666667</ele><time>2026-04-21T15:11:51.662Z</time></trkpt><trkpt lat="44.4814367" lon="9.2729367"><ele>914.0</ele><time>2026-04-21T15:11:52.662Z</time></trkpt><trkpt lat="44.4813017" lon="9.2728167"><ele>906.0</ele><time>2026-04-21T15:11:53.661Z</time></trkpt><trkpt lat="44.4811483" lon="9.2727133"><ele>898.0</ele><time>2026-04-21T15:11:54.661Z</time></trkpt><trkpt lat="44.480985" lon="9.272615"><ele>890.0</ele><time>2026-04-21T15:11:55.662Z</time></trkpt><trkpt lat="44.4808133" lon="9.2724967"><ele>890.0</ele><time>2026-04-21T15:11:56.662Z</time></trkpt><trkpt lat="44.48063" lon="9.2723817"><ele>890.0</ele><time>2026-04-21T15:11:57.661Z</time></trkpt><trkpt lat="44.4804333" lon="9.2722417"><ele>890.0</ele><time>2026-04-21T15:11:58.662Z</time></trkpt><trkpt lat="44.4802417" lon="9.27211"><ele>889.0</ele><time>2026-04-21T15:11:59.662Z</time></trkpt><trkpt lat="44.480065" lon="9.27198"><ele>888.0</ele><time>2026-04-21T15:12:00.662Z</time></trkpt><trkpt lat="44.4799" lon="9.2718467"><ele>887.0</ele><time>2026-04-21T15:12:01.661Z</time></trkpt><trkpt lat="44.4797533" lon="9.2717083"><ele>887.0</ele><time>2026-04-21T15:12:02.662Z</time></trkpt><trkpt lat="44.4796183" lon="9.2715417"><ele>887.0</ele><time>2026-04-21T15:12:03.662Z</time></trkpt><trkpt lat="44.4794983" lon="9.2713717"><ele>887.0</ele><time>2026-04-21T15:12:04.661Z</time></trkpt><trkpt lat="44.47941" lon="9.271205"><ele>887.0</ele><time>2026-04-21T15:12:05.661Z</time></trkpt><trkpt lat="44.47934" lon="9.27103"><ele>887.0</ele><time>2026-04-21T15:12:06.661Z</time></trkpt><trkpt lat="44.4793017" lon="9.2708167"><ele>887.0</ele><time>2026-04-21T15:12:07.662Z</time></trkpt><trkpt lat="44.4792633" lon="9.2705817"><ele>890.0</ele><time>2026-04-21T15:12:08.662Z</time></trkpt><trkpt lat="44.4792233" lon="9.2703383"><ele>893.0</ele><time>2026-04-21T15:12:09.661Z</time></trkpt><trkpt lat="44.4791783" lon="9.2700883"><ele>896.0</ele><time>2026-04-21T15:12:10.662Z</time></trkpt><trkpt lat="44.47912" lon="9.2698417"><ele>900.0</ele><time>2026-04-21T15:12:11.662Z</time></trkpt><trkpt lat="44.4790433" lon="9.2695933"><ele>904.0</ele><time>2026-04-21T15:12:12.662Z</time></trkpt><trkpt lat="44.4789533" lon="9.2693467"><ele>908.0</ele><time>2026-04-21T15:12:13.662Z</time></trkpt><trkpt lat="44.4788483" lon="9.2690867"><ele>902.3333333333334</ele><time>2026-04-21T15:12:14.662Z</time></trkpt><trkpt lat="44.47874" lon="9.26882"><ele>896.6666666666667</ele><time>2026-04-21T15:12:15.662Z</time></trkpt><trkpt lat="44.47863" lon="9.268575"><ele>891.0</ele><time>2026-04-21T15:12:16.662Z</time></trkpt><trkpt lat="44.478505" lon="9.2683233"><ele>891.0</ele><time>2026-04-21T15:12:17.662Z</time></trkpt><trkpt lat="44.4783717" lon="9.26812"><ele>891.0</ele><time>2026-04-21T15:12:18.662Z</time></trkpt><trkpt lat="44.478245" lon="9.2679233"><ele>891.0</ele><time>2026-04-21T15:12:19.661Z</time></trkpt><trkpt lat="44.4781217" lon="9.2677317"><ele>890.3333333333333</ele><time>2026-04-21T15:12:20.662Z</time></trkpt><trkpt lat="44.4779983" lon="9.2675233"><ele>889.6666666666666</ele><time>2026-04-21T15:12:21.661Z</time></trkpt><trkpt lat="44.4778783" lon="9.2673183"><ele>889.0</ele><time>2026-04-21T15:12:22.661Z</time></trkpt><trkpt lat="44.4777783" lon="9.2670817"><ele>891.3333333333333</ele><time>2026-04-21T15:12:23.661Z</time></trkpt><trkpt lat="44.4776867" lon="9.2668433"><ele>893.6666666666667</ele><time>2026-04-21T15:12:24.662Z</time></trkpt><trkpt lat="44.4775767" lon="9.2666067"><ele>896.0</ele><time>2026-04-21T15:12:25.662Z</time></trkpt><trkpt lat="44.4774633" lon="9.2663683"><ele>900.3333333333334</ele><time>2026-04-21T15:12:26.662Z</time></trkpt><trkpt lat="44.4773383" lon="9.2661483"><ele>904.6666666666667</ele><time>2026-04-21T15:12:27.661Z</time></trkpt><trkpt lat="44.4772317" lon="9.265925"><ele>909.0</ele><time>2026-04-21T15:12:28.661Z</time></trkpt><trkpt lat="44.4771367" lon="9.26572"><ele>904.3333333333333</ele><time>2026-04-21T15:12:29.661Z</time></trkpt><trkpt lat="44.4770533" lon="9.265475"><ele>899.6666666666666</ele><time>2026-04-21T15:12:30.661Z</time></trkpt><trkpt lat="44.4769767" lon="9.2652217"><ele>895.0</ele><time>2026-04-21T15:12:31.661Z</time></trkpt><trkpt lat="44.4769133" lon="9.2649483"><ele>898.3333333333333</ele><time>2026-04-21T15:12:32.662Z</time></trkpt><trkpt lat="44.4768467" lon="9.2646833"><ele>901.6666666666667</ele><time>2026-04-21T15:12:33.661Z</time></trkpt><trkpt lat="44.4767883" lon="9.2644133"><ele>905.0</ele><time>2026-04-21T15:12:34.661Z</time></trkpt><trkpt lat="44.4766967" lon="9.2641617"><ele>908.6666666666667</ele><time>2026-04-21T15:12:35.662Z</time></trkpt><trkpt lat="44.4766017" lon="9.2639067"><ele>912.3333333333333</ele><time>2026-04-21T15:12:36.661Z</time></trkpt><trkpt lat="44.47648" lon="9.2636733"><ele>916.0</ele><time>2026-04-21T15:12:37.661Z</time></trkpt><trkpt lat="44.4763533" lon="9.26345"><ele>910.6666666666666</ele><time>2026-04-21T15:12:38.661Z</time></trkpt><trkpt lat="44.47623" lon="9.2632467"><ele>905.3333333333333</ele><time>2026-04-21T15:12:39.661Z</time></trkpt><trkpt lat="44.47613" lon="9.2630617"><ele>900.0</ele><time>2026-04-21T15:12:40.662Z</time></trkpt><trkpt lat="44.4760717" lon="9.262895"><ele>899.75</ele><time>2026-04-21T15:12:41.662Z</time></trkpt><trkpt lat="44.476055" lon="9.2627533"><ele>899.5</ele><time>2026-04-21T15:12:42.661Z</time></trkpt><trkpt lat="44.4760817" lon="9.2626083"><ele>899.25</ele><time>2026-04-21T15:12:43.661Z</time></trkpt><trkpt lat="44.47614" lon="9.262465"><ele>899.0</ele><time>2026-04-21T15:12:44.661Z</time></trkpt><trkpt lat="44.4762217" lon="9.2622933"><ele>906.5</ele><time>2026-04-21T15:12:45.661Z</time></trkpt><trkpt lat="44.4763033" lon="9.2621283"><ele>914.0</ele><time>2026-04-21T15:12:46.661Z</time></trkpt><trkpt lat="44.4763717" lon="9.2619617"><ele>921.5</ele><time>2026-04-21T15:12:47.661Z</time></trkpt><trkpt lat="44.47643" lon="9.2618017"><ele>929.0</ele><time>2026-04-21T15:12:48.661Z</time></trkpt><trkpt lat="44.4764767" lon="9.2616433"><ele>929.0</ele><time>2026-04-21T15:12:49.662Z</time></trkpt><trkpt lat="44.4765333" lon="9.26149"><ele>929.0000000000001</ele><time>2026-04-21T15:12:50.662Z</time></trkpt><trkpt lat="44.4765733" lon="9.261355"><ele>929.0000000000001</ele><time>2026-04-21T15:12:51.661Z</time></trkpt><trkpt lat="44.476605" lon="9.2612017"><ele>929.0</ele><time>2026-04-21T15:12:52.661Z</time></trkpt><trkpt lat="44.4766033" lon="9.2610633"><ele>929.0</ele><time>2026-04-21T15:12:53.662Z</time></trkpt><trkpt lat="44.4765767" lon="9.260895"><ele>928.0</ele><time>2026-04-21T15:12:54.662Z</time></trkpt><trkpt lat="44.4765317" lon="9.26071"><ele>927.0</ele><time>2026-04-21T15:12:55.661Z</time></trkpt><trkpt lat="44.4764733" lon="9.2605217"><ele>926.0</ele><time>2026-04-21T15:12:56.661Z</time></trkpt><trkpt lat="44.4764183" lon="9.2603517"><ele>925.0</ele><time>2026-04-21T15:12:57.662Z</time></trkpt><trkpt lat="44.47635" lon="9.2601667"><ele>920.3333333333333</ele><time>2026-04-21T15:12:58.662Z</time></trkpt><trkpt lat="44.4762667" lon="9.2599867"><ele>915.6666666666667</ele><time>2026-04-21T15:12:59.661Z</time></trkpt><trkpt lat="44.476155" lon="9.259805"><ele>911.0</ele><time>2026-04-21T15:13:00.662Z</time></trkpt><trkpt lat="44.47606" lon="9.2596367"><ele>911.0</ele><time>2026-04-21T15:13:01.662Z</time></trkpt><trkpt lat="44.475965" lon="9.2594667"><ele>911.0</ele><time>2026-04-21T15:13:02.661Z</time></trkpt><trkpt lat="44.475895" lon="9.259295"><ele>911.0</ele><time>2026-04-21T15:13:03.661Z</time></trkpt><trkpt lat="44.475835" lon="9.259115"><ele>911.0</ele><time>2026-04-21T15:13:04.662Z</time></trkpt><trkpt lat="44.4758033" lon="9.25893"><ele>910.75</ele><time>2026-04-21T15:13:05.662Z</time></trkpt><trkpt lat="44.475805" lon="9.2587417"><ele>910.5</ele><time>2026-04-21T15:13:06.661Z</time></trkpt><trkpt lat="44.4758567" lon="9.2585533"><ele>910.25</ele><time>2026-04-21T15:13:07.661Z</time></trkpt><trkpt lat="44.475935" lon="9.258395"><ele>910.0</ele><time>2026-04-21T15:13:08.662Z</time></trkpt><trkpt lat="44.4760133" lon="9.25822"><ele>909.75</ele><time>2026-04-21T15:13:09.662Z</time></trkpt><trkpt lat="44.4761083" lon="9.2580983"><ele>909.5</ele><time>2026-04-21T15:13:10.662Z</time></trkpt><trkpt lat="44.4762133" lon="9.258"><ele>909.25</ele><time>2026-04-21T15:13:11.662Z</time></trkpt><trkpt lat="44.4763483" lon="9.2579517"><ele>909.0</ele><time>2026-04-21T15:13:12.661Z</time></trkpt><trkpt lat="44.4764917" lon="9.25792"><ele>909.0</ele><time>2026-04-21T15:13:13.661Z</time></trkpt><trkpt lat="44.476635" lon="9.2579267"><ele>909.0</ele><time>2026-04-21T15:13:14.661Z</time></trkpt><trkpt lat="44.476775" lon="9.2579517"><ele>909.0</ele><time>2026-04-21T15:13:15.661Z</time></trkpt><trkpt lat="44.4769033" lon="9.2580033"><ele>909.0</ele><time>2026-04-21T15:13:16.661Z</time></trkpt><trkpt lat="44.4770117" lon="9.2580067"><ele>909.8000000000001</ele><time>2026-04-21T15:13:17.662Z</time></trkpt><trkpt lat="44.4771117" lon="9.257985"><ele>910.6000000000001</ele><time>2026-04-21T15:13:18.661Z</time></trkpt><trkpt lat="44.4771967" lon="9.25791"><ele>911.4</ele><time>2026-04-21T15:13:19.661Z</time></trkpt><trkpt lat="44.4772933" lon="9.257815"><ele>912.2</ele><time>2026-04-21T15:13:20.662Z</time></trkpt><trkpt lat="44.4773617" lon="9.2577033"><ele>913.0</ele><time>2026-04-21T15:13:21.661Z</time></trkpt><trkpt lat="44.4774383" lon="9.2575583"><ele>913.0</ele><time>2026-04-21T15:13:22.661Z</time></trkpt><trkpt lat="44.4774933" lon="9.2573767"><ele>913.0</ele><time>2026-04-21T15:13:23.662Z</time></trkpt><trkpt lat="44.4775367" lon="9.2571517"><ele>913.0</ele><time>2026-04-21T15:13:24.661Z</time></trkpt><trkpt lat="44.47755" lon="9.25692"><ele>914.5</ele><time>2026-04-21T15:13:25.662Z</time></trkpt><trkpt lat="44.47756" lon="9.2567117"><ele>916.0</ele><time>2026-04-21T15:13:26.662Z</time></trkpt><trkpt lat="44.477545" lon="9.2565017"><ele>917.5</ele><time>2026-04-21T15:13:27.661Z</time></trkpt><trkpt lat="44.47751" lon="9.2563067"><ele>919.0</ele><time>2026-04-21T15:13:28.661Z</time></trkpt><trkpt lat="44.47747" lon="9.256115"><ele>921.6666666666666</ele><time>2026-04-21T15:13:29.661Z</time></trkpt><trkpt lat="44.4774133" lon="9.25591"><ele>924.3333333333333</ele><time>2026-04-21T15:13:30.662Z</time></trkpt><trkpt lat="44.4773467" lon="9.2557"><ele>927.0</ele><time>2026-04-21T15:13:31.662Z</time></trkpt><trkpt lat="44.4772533" lon="9.2554917"><ele>929.3333333333333</ele><time>2026-04-21T15:13:32.662Z</time></trkpt><trkpt lat="44.4771367" lon="9.2552867"><ele>931.6666666666666</ele><time>2026-04-21T15:13:33.661Z</time></trkpt><trkpt lat="44.477015" lon="9.2551133"><ele>934.0</ele><time>2026-04-21T15:13:34.662Z</time></trkpt><trkpt lat="44.4769083" lon="9.2549367"><ele>931.0</ele><time>2026-04-21T15:13:35.662Z</time></trkpt><trkpt lat="44.4767867" lon="9.2547767"><ele>928.0</ele><time>2026-04-21T15:13:36.662Z</time></trkpt><trkpt lat="44.47666" lon="9.2546233"><ele>925.0</ele><time>2026-04-21T15:13:37.662Z</time></trkpt><trkpt lat="44.4765183" lon="9.25449"><ele>925.0</ele><time>2026-04-21T15:13:38.662Z</time></trkpt><trkpt lat="44.476345" lon="9.2543617"><ele>925.0</ele><time>2026-04-21T15:13:39.662Z</time></trkpt><trkpt lat="44.4762017" lon="9.25423"><ele>925.0</ele><time>2026-04-21T15:13:40.661Z</time></trkpt><trkpt lat="44.476045" lon="9.254095"><ele>923.0</ele><time>2026-04-21T15:13:41.661Z</time></trkpt><trkpt lat="44.475895" lon="9.2539717"><ele>921.0</ele><time>2026-04-21T15:13:42.661Z</time></trkpt><trkpt lat="44.475765" lon="9.25382"><ele>919.0</ele><time>2026-04-21T15:13:43.662Z</time></trkpt><trkpt lat="44.475645" lon="9.2536467"><ele>918.6666666666666</ele><time>2026-04-21T15:13:44.661Z</time></trkpt><trkpt lat="44.4755333" lon="9.25345"><ele>918.3333333333333</ele><time>2026-04-21T15:13:45.662Z</time></trkpt><trkpt lat="44.4754233" lon="9.2532667"><ele>918.0</ele><time>2026-04-21T15:13:46.662Z</time></trkpt><trkpt lat="44.47533" lon="9.2531033"><ele>918.0</ele><time>2026-04-21T15:13:47.661Z</time></trkpt><trkpt lat="44.4752633" lon="9.2529183"><ele>918.0</ele><time>2026-04-21T15:13:48.661Z</time></trkpt><trkpt lat="44.4752267" lon="9.2527083"><ele>918.0</ele><time>2026-04-21T15:13:49.661Z</time></trkpt><trkpt lat="44.4752167" lon="9.25251"><ele>918.0</ele><time>2026-04-21T15:13:50.661Z</time></trkpt><trkpt lat="44.4752067" lon="9.2523017"><ele>921.0</ele><time>2026-04-21T15:13:51.662Z</time></trkpt><trkpt lat="44.4751767" lon="9.2520767"><ele>924.0</ele><time>2026-04-21T15:13:52.662Z</time></trkpt><trkpt lat="44.4751233" lon="9.25184"><ele>927.0</ele><time>2026-04-21T15:13:53.662Z</time></trkpt><trkpt lat="44.4750567" lon="9.2515883"><ele>929.0</ele><time>2026-04-21T15:13:54.662Z</time></trkpt><trkpt lat="44.4749867" lon="9.2513717"><ele>931.0</ele><time>2026-04-21T15:13:55.661Z</time></trkpt><trkpt lat="44.4749217" lon="9.2511633"><ele>933.0</ele><time>2026-04-21T15:13:56.661Z</time></trkpt><trkpt lat="44.4748683" lon="9.2509617"><ele>933.0</ele><time>2026-04-21T15:13:57.661Z</time></trkpt><trkpt lat="44.4748067" lon="9.2507683"><ele>933.0</ele><time>2026-04-21T15:13:58.661Z</time></trkpt><trkpt lat="44.4747533" lon="9.2505917"><ele>933.0</ele><time>2026-04-21T15:13:59.661Z</time></trkpt><trkpt lat="44.4746583" lon="9.2504617"><ele>933.0</ele><time>2026-04-21T15:14:00.661Z</time></trkpt><trkpt lat="44.474545" lon="9.2503567"><ele>934.0</ele><time>2026-04-21T15:14:01.661Z</time></trkpt><trkpt lat="44.4743983" lon="9.250295"><ele>935.0</ele><time>2026-04-21T15:14:02.661Z</time></trkpt><trkpt lat="44.4742367" lon="9.250235"><ele>936.0</ele><time>2026-04-21T15:14:03.661Z</time></trkpt><trkpt lat="44.4740533" lon="9.2501683"><ele>936.0</ele><time>2026-04-21T15:14:04.661Z</time></trkpt><trkpt lat="44.4738733" lon="9.2501083"><ele>936.0</ele><time>2026-04-21T15:14:05.662Z</time></trkpt><trkpt lat="44.47369" lon="9.25003"><ele>936.0</ele><time>2026-04-21T15:14:06.662Z</time></trkpt><trkpt lat="44.473505" lon="9.2499367"><ele>935.6666666666667</ele><time>2026-04-21T15:14:07.662Z</time></trkpt><trkpt lat="44.4733183" lon="9.2498433"><ele>935.3333333333334</ele><time>2026-04-21T15:14:08.661Z</time></trkpt><trkpt lat="44.4731683" lon="9.2497833"><ele>935.0</ele><time>2026-04-21T15:14:09.662Z</time></trkpt><trkpt lat="44.4730383" lon="9.24975"><ele>934.6</ele><time>2026-04-21T15:14:10.661Z</time></trkpt><trkpt lat="44.4729133" lon="9.2497717"><ele>934.2</ele><time>2026-04-21T15:14:11.661Z</time></trkpt><trkpt lat="44.47281" lon="9.2498233"><ele>933.8</ele><time>2026-04-21T15:14:12.662Z</time></trkpt><trkpt lat="44.472725" lon="9.2498833"><ele>933.4</ele><time>2026-04-21T15:14:13.661Z</time></trkpt><trkpt lat="44.4726483" lon="9.2499233"><ele>933.0</ele><time>2026-04-21T15:14:14.661Z</time></trkpt><trkpt lat="44.472585" lon="9.2499433"><ele>933.0</ele><time>2026-04-21T15:14:15.661Z</time></trkpt><trkpt lat="44.47252" lon="9.2498917"><ele>933.0</ele><time>2026-04-21T15:14:17.661Z</time></trkpt><trkpt lat="44.47249" lon="9.2497133"><ele>933.0</ele><time>2026-04-21T15:14:19.662Z</time></trkpt><trkpt lat="44.4724817" lon="9.2495933"><ele>933.0</ele><time>2026-04-21T15:14:20.661Z</time></trkpt><trkpt lat="44.4724817" lon="9.24946"><ele>933.0</ele><time>2026-04-21T15:14:21.661Z</time></trkpt><trkpt lat="44.4725017" lon="9.2493167"><ele>933.0</ele><time>2026-04-21T15:14:22.661Z</time></trkpt><trkpt lat="44.4725217" lon="9.2491517"><ele>933.0</ele><time>2026-04-21T15:14:23.661Z</time></trkpt><trkpt lat="44.4725483" lon="9.24898"><ele>933.0</ele><time>2026-04-21T15:14:24.662Z</time></trkpt><trkpt lat="44.4725833" lon="9.2488033"><ele>933.0</ele><time>2026-04-21T15:14:25.662Z</time></trkpt><trkpt lat="44.47261" lon="9.248645"><ele>934.5999999999999</ele><time>2026-04-21T15:14:26.661Z</time></trkpt><trkpt lat="44.4726317" lon="9.2485017"><ele>936.1999999999999</ele><time>2026-04-21T15:14:27.662Z</time></trkpt><trkpt lat="44.4726233" lon="9.2483933"><ele>937.8</ele><time>2026-04-21T15:14:28.661Z</time></trkpt><trkpt lat="44.472595" lon="9.2482667"><ele>939.4</ele><time>2026-04-21T15:14:29.661Z</time></trkpt><trkpt lat="44.4725383" lon="9.24813"><ele>941.0</ele><time>2026-04-21T15:14:30.662Z</time></trkpt><trkpt lat="44.4724633" lon="9.24799"><ele>940.75</ele><time>2026-04-21T15:14:31.662Z</time></trkpt><trkpt lat="44.4723867" lon="9.2478333"><ele>940.5</ele><time>2026-04-21T15:14:32.662Z</time></trkpt><trkpt lat="44.47231" lon="9.2477083"><ele>940.25</ele><time>2026-04-21T15:14:33.661Z</time></trkpt><trkpt lat="44.4722067" lon="9.2476033"><ele>940.0</ele><time>2026-04-21T15:14:34.661Z</time></trkpt><trkpt lat="44.472085" lon="9.2475067"><ele>940.0</ele><time>2026-04-21T15:14:35.662Z</time></trkpt><trkpt lat="44.471965" lon="9.2474117"><ele>940.0</ele><time>2026-04-21T15:14:36.661Z</time></trkpt><trkpt lat="44.4718433" lon="9.2473467"><ele>940.0</ele><time>2026-04-21T15:14:37.662Z</time></trkpt><trkpt lat="44.4717233" lon="9.2472717"><ele>940.0</ele><time>2026-04-21T15:14:38.661Z</time></trkpt><trkpt lat="44.4716167" lon="9.2471967"><ele>942.8</ele><time>2026-04-21T15:14:39.661Z</time></trkpt><trkpt lat="44.4715267" lon="9.2471167"><ele>945.6</ele><time>2026-04-21T15:14:40.661Z</time></trkpt><trkpt lat="44.47147" lon="9.2470267"><ele>948.4000000000001</ele><time>2026-04-21T15:14:41.662Z</time></trkpt><trkpt lat="44.471425" lon="9.2469283"><ele>951.2</ele><time>2026-04-21T15:14:42.661Z</time></trkpt><trkpt lat="44.471395" lon="9.2468083"><ele>954.0</ele><time>2026-04-21T15:14:43.661Z</time></trkpt><trkpt lat="44.4713583" lon="9.2466717"><ele>954.0</ele><time>2026-04-21T15:14:44.661Z</time></trkpt><trkpt lat="44.47132" lon="9.246515"><ele>954.0</ele><time>2026-04-21T15:14:45.662Z</time></trkpt><trkpt lat="44.4712983" lon="9.2463333"><ele>954.0</ele><time>2026-04-21T15:14:46.662Z</time></trkpt><trkpt lat="44.4712667" lon="9.2461483"><ele>954.0</ele><time>2026-04-21T15:14:47.661Z</time></trkpt><trkpt lat="44.4712367" lon="9.2459633"><ele>953.0</ele><time>2026-04-21T15:14:48.662Z</time></trkpt><trkpt lat="44.47122" lon="9.245775"><ele>952.0</ele><time>2026-04-21T15:14:49.661Z</time></trkpt><trkpt lat="44.4712017" lon="9.2456"><ele>951.0</ele><time>2026-04-21T15:14:50.662Z</time></trkpt><trkpt lat="44.4711783" lon="9.2454483"><ele>950.0</ele><time>2026-04-21T15:14:51.661Z</time></trkpt><trkpt lat="44.47116" lon="9.245315"><ele>950.0000000000001</ele><time>2026-04-21T15:14:52.661Z</time></trkpt><trkpt lat="44.471155" lon="9.2452033"><ele>950.0</ele><time>2026-04-21T15:14:53.662Z</time></trkpt><trkpt lat="44.4711633" lon="9.2451017"><ele>950.0</ele><time>2026-04-21T15:14:54.662Z</time></trkpt><trkpt lat="44.4711933" lon="9.24502"><ele>950.0</ele><time>2026-04-21T15:14:55.661Z</time></trkpt><trkpt lat="44.4712683" lon="9.2449017"><ele>950.0000000000001</ele><time>2026-04-21T15:14:57.661Z</time></trkpt><trkpt lat="44.4713083" lon="9.24483"><ele>950.0</ele><time>2026-04-21T15:14:59.661Z</time></trkpt><trkpt lat="44.4712317" lon="9.2448"><ele>950.0000000000001</ele><time>2026-04-21T15:15:02.661Z</time></trkpt><trkpt lat="44.4711667" lon="9.244815"><ele>950.0</ele><time>2026-04-21T15:15:03.661Z</time></trkpt><trkpt lat="44.47105" lon="9.2448017"><ele>950.0</ele><time>2026-04-21T15:15:05.662Z</time></trkpt><trkpt lat="44.471" lon="9.2447333"><ele>950.0</ele><time>2026-04-21T15:15:06.662Z</time></trkpt><trkpt lat="44.4709583" lon="9.244655"><ele>950.0000000000001</ele><time>2026-04-21T15:15:07.661Z</time></trkpt><trkpt lat="44.4709267" lon="9.2445567"><ele>950.0</ele><time>2026-04-21T15:15:08.661Z</time></trkpt><trkpt lat="44.4709183" lon="9.2444283"><ele>951.25</ele><time>2026-04-21T15:15:09.662Z</time></trkpt><trkpt lat="44.4709567" lon="9.2442717"><ele>952.5</ele><time>2026-04-21T15:15:10.661Z</time></trkpt><trkpt lat="44.4710167" lon="9.244115"><ele>953.75</ele><time>2026-04-21T15:15:11.661Z</time></trkpt><trkpt lat="44.471105" lon="9.24395"><ele>955.0</ele><time>2026-04-21T15:15:12.662Z</time></trkpt><trkpt lat="44.4712017" lon="9.243785"><ele>959.2</ele><time>2026-04-21T15:15:13.662Z</time></trkpt><trkpt lat="44.4712867" lon="9.243655"><ele>963.4</ele><time>2026-04-21T15:15:14.661Z</time></trkpt><trkpt lat="44.47136" lon="9.24353"><ele>967.5999999999999</ele><time>2026-04-21T15:15:15.661Z</time></trkpt><trkpt lat="44.471415" lon="9.2434283"><ele>971.8</ele><time>2026-04-21T15:15:16.661Z</time></trkpt><trkpt lat="44.4714467" lon="9.2433383"><ele>976.0</ele><time>2026-04-21T15:15:17.661Z</time></trkpt><trkpt lat="44.4714633" lon="9.2432033"><ele>976.0</ele><time>2026-04-21T15:15:19.661Z</time></trkpt><trkpt lat="44.47138" lon="9.2431633"><ele>975.9999999999999</ele><time>2026-04-21T15:15:21.662Z</time></trkpt><trkpt lat="44.4713017" lon="9.2431867"><ele>975.9999999999999</ele><time>2026-04-21T15:15:22.661Z</time></trkpt><trkpt lat="44.47119" lon="9.2432267"><ele>976.0</ele><time>2026-04-21T15:15:23.662Z</time></trkpt><trkpt lat="44.4710533" lon="9.2433217"><ele>976.0</ele><time>2026-04-21T15:15:24.662Z</time></trkpt><trkpt lat="44.4709067" lon="9.2434233"><ele>973.0</ele><time>2026-04-21T15:15:25.662Z</time></trkpt><trkpt lat="44.47076" lon="9.243505"><ele>970.0</ele><time>2026-04-21T15:15:26.661Z</time></trkpt><trkpt lat="44.470645" lon="9.24355"><ele>967.0</ele><time>2026-04-21T15:15:27.661Z</time></trkpt><trkpt lat="44.4705567" lon="9.243595"><ele>964.0</ele><time>2026-04-21T15:15:28.661Z</time></trkpt><trkpt lat="44.47048" lon="9.2436217"><ele>963.6</ele><time>2026-04-21T15:15:29.661Z</time></trkpt><trkpt lat="44.4704133" lon="9.2436017"><ele>963.2</ele><time>2026-04-21T15:15:30.662Z</time></trkpt><trkpt lat="44.4703317" lon="9.24346"><ele>962.8000000000001</ele><time>2026-04-21T15:15:32.662Z</time></trkpt><trkpt lat="44.4703183" lon="9.2433217"><ele>962.4000000000001</ele><time>2026-04-21T15:15:33.662Z</time></trkpt><trkpt lat="44.4703267" lon="9.2431267"><ele>962.0</ele><time>2026-04-21T15:15:34.661Z</time></trkpt><trkpt lat="44.4703367" lon="9.2429083"><ele>962.0</ele><time>2026-04-21T15:15:35.661Z</time></trkpt><trkpt lat="44.4703617" lon="9.2426517"><ele>962.0</ele><time>2026-04-21T15:15:36.661Z</time></trkpt><trkpt lat="44.470385" lon="9.242435"><ele>962.0</ele><time>2026-04-21T15:15:37.661Z</time></trkpt><trkpt lat="44.4704033" lon="9.2422433"><ele>963.8</ele><time>2026-04-21T15:15:38.662Z</time></trkpt><trkpt lat="44.4704117" lon="9.24209"><ele>965.6</ele><time>2026-04-21T15:15:39.661Z</time></trkpt><trkpt lat="44.4703983" lon="9.2419717"><ele>967.3999999999999</ele><time>2026-04-21T15:15:40.661Z</time></trkpt><trkpt lat="44.470355" lon="9.2418617"><ele>969.1999999999999</ele><time>2026-04-21T15:15:41.661Z</time></trkpt><trkpt lat="44.47029" lon="9.2417483"><ele>971.0</ele><time>2026-04-21T15:15:42.661Z</time></trkpt><trkpt lat="44.4702183" lon="9.2416183"><ele>971.0</ele><time>2026-04-21T15:15:43.661Z</time></trkpt><trkpt lat="44.470165" lon="9.2414683"><ele>970.9999999999999</ele><time>2026-04-21T15:15:44.662Z</time></trkpt><trkpt lat="44.4701317" lon="9.2413333"><ele>970.9999999999999</ele><time>2026-04-21T15:15:45.662Z</time></trkpt><trkpt lat="44.4701067" lon="9.241195"><ele>971.0</ele><time>2026-04-21T15:15:46.662Z</time></trkpt><trkpt lat="44.470105" lon="9.2410517"><ele>971.0</ele><time>2026-04-21T15:15:47.661Z</time></trkpt><trkpt lat="44.4701133" lon="9.2409067"><ele>972.5999999999999</ele><time>2026-04-21T15:15:48.662Z</time></trkpt><trkpt lat="44.4701183" lon="9.2407617"><ele>974.1999999999999</ele><time>2026-04-21T15:15:49.661Z</time></trkpt><trkpt lat="44.4701067" lon="9.2406317"><ele>975.8000000000001</ele><time>2026-04-21T15:15:50.661Z</time></trkpt><trkpt lat="44.4700633" lon="9.2405"><ele>977.4000000000001</ele><time>2026-04-21T15:15:51.661Z</time></trkpt><trkpt lat="44.470015" lon="9.2403567"><ele>979.0</ele><time>2026-04-21T15:15:52.661Z</time></trkpt><trkpt lat="44.4699617" lon="9.240205"><ele>982.0</ele><time>2026-04-21T15:15:53.661Z</time></trkpt><trkpt lat="44.4698767" lon="9.2400733"><ele>985.0</ele><time>2026-04-21T15:15:54.661Z</time></trkpt><trkpt lat="44.469785" lon="9.239955"><ele>988.0</ele><time>2026-04-21T15:15:55.662Z</time></trkpt><trkpt lat="44.4696983" lon="9.2398517"><ele>991.0</ele><time>2026-04-21T15:15:56.661Z</time></trkpt><trkpt lat="44.4696367" lon="9.23977"><ele>991.0</ele><time>2026-04-21T15:15:57.661Z</time></trkpt><trkpt lat="44.4697017" lon="9.2397133"><ele>990.9999999999999</ele><time>2026-04-21T15:16:01.661Z</time></trkpt><trkpt lat="44.4697933" lon="9.239855"><ele>990.9999999999999</ele><time>2026-04-21T15:16:03.661Z</time></trkpt><trkpt lat="44.46985" lon="9.2399533"><ele>991.0</ele><time>2026-04-21T15:16:04.661Z</time></trkpt><trkpt lat="44.4699167" lon="9.240065"><ele>991.0</ele><time>2026-04-21T15:16:05.662Z</time></trkpt><trkpt lat="44.4699917" lon="9.2401933"><ele>991.75</ele><time>2026-04-21T15:16:06.662Z</time></trkpt><trkpt lat="44.4700783" lon="9.2403233"><ele>992.5</ele><time>2026-04-21T15:16:07.662Z</time></trkpt><trkpt lat="44.4701533" lon="9.2404633"><ele>993.25</ele><time>2026-04-21T15:16:08.662Z</time></trkpt><trkpt lat="44.4702117" lon="9.2406033"><ele>994.0</ele><time>2026-04-21T15:16:09.661Z</time></trkpt><trkpt lat="44.470255" lon="9.2407417"><ele>991.0</ele><time>2026-04-21T15:16:10.661Z</time></trkpt><trkpt lat="44.47028" lon="9.2408783"><ele>988.0000000000001</ele><time>2026-04-21T15:16:11.662Z</time></trkpt><trkpt lat="44.4703" lon="9.2410017"><ele>985.0000000000001</ele><time>2026-04-21T15:16:12.661Z</time></trkpt><trkpt lat="44.470325" lon="9.24113"><ele>982.0</ele><time>2026-04-21T15:16:13.661Z</time></trkpt><trkpt lat="44.47036" lon="9.2412517"><ele>979.0</ele><time>2026-04-21T15:16:14.661Z</time></trkpt><trkpt lat="44.4704033" lon="9.24135"><ele>983.6</ele><time>2026-04-21T15:16:15.662Z</time></trkpt><trkpt lat="44.470465" lon="9.2414383"><ele>988.2</ele><time>2026-04-21T15:16:16.661Z</time></trkpt><trkpt lat="44.4705417" lon="9.2415283"><ele>992.8000000000001</ele><time>2026-04-21T15:16:17.661Z</time></trkpt><trkpt lat="44.47062" lon="9.2416267"><ele>997.4000000000001</ele><time>2026-04-21T15:16:18.661Z</time></trkpt><trkpt lat="44.4706717" lon="9.241765"><ele>1002.0</ele><time>2026-04-21T15:16:19.661Z</time></trkpt><trkpt lat="44.4707167" lon="9.2419117"><ele>1002.0</ele><time>2026-04-21T15:16:20.662Z</time></trkpt><trkpt lat="44.470765" lon="9.242035"><ele>1002.0</ele><time>2026-04-21T15:16:21.662Z</time></trkpt><trkpt lat="44.470805" lon="9.2421367"><ele>1002.0</ele><time>2026-04-21T15:16:22.662Z</time></trkpt><trkpt lat="44.4708417" lon="9.2422183"><ele>1002.0</ele><time>2026-04-21T15:16:23.661Z</time></trkpt><trkpt lat="44.47093" lon="9.2422383"><ele>1002.0</ele><time>2026-04-21T15:16:25.661Z</time></trkpt><trkpt lat="44.47099" lon="9.2421717"><ele>1002.0</ele><time>2026-04-21T15:16:26.661Z</time></trkpt><trkpt lat="44.4710667" lon="9.2420983"><ele>1002.0</ele><time>2026-04-21T15:16:27.661Z</time></trkpt><trkpt lat="44.47115" lon="9.2420167"><ele>1002.0</ele><time>2026-04-21T15:16:28.661Z</time></trkpt><trkpt lat="44.4712533" lon="9.2419433"><ele>1002.0</ele><time>2026-04-21T15:16:29.661Z</time></trkpt><trkpt lat="44.471375" lon="9.24186"><ele>1002.0</ele><time>2026-04-21T15:16:30.662Z</time></trkpt><trkpt lat="44.4715067" lon="9.2417767"><ele>1003.8</ele><time>2026-04-21T15:16:31.661Z</time></trkpt><trkpt lat="44.4716317" lon="9.2417267"><ele>1005.6</ele><time>2026-04-21T15:16:32.661Z</time></trkpt><trkpt lat="44.471745" lon="9.2416967"><ele>1007.3999999999999</ele><time>2026-04-21T15:16:33.661Z</time></trkpt><trkpt lat="44.4718367" lon="9.2416583"><ele>1009.1999999999999</ele><time>2026-04-21T15:16:34.662Z</time></trkpt><trkpt lat="44.4719133" lon="9.2415967"><ele>1011.0</ele><time>2026-04-21T15:16:35.661Z</time></trkpt><trkpt lat="44.471995" lon="9.2415083"><ele>1013.8333333333334</ele><time>2026-04-21T15:16:36.661Z</time></trkpt><trkpt lat="44.47207" lon="9.2414617"><ele>1016.6666666666667</ele><time>2026-04-21T15:16:37.662Z</time></trkpt><trkpt lat="44.47215" lon="9.2414517"><ele>1019.5</ele><time>2026-04-21T15:16:38.661Z</time></trkpt><trkpt lat="44.472225" lon="9.24147"><ele>1022.3333333333334</ele><time>2026-04-21T15:16:39.661Z</time></trkpt><trkpt lat="44.4723167" lon="9.24158"><ele>1025.1666666666667</ele><time>2026-04-21T15:16:41.661Z</time></trkpt><trkpt lat="44.4723217" lon="9.2416833"><ele>1028.0</ele><time>2026-04-21T15:16:42.662Z</time></trkpt><trkpt lat="44.47231" lon="9.2417967"><ele>1028.0</ele><time>2026-04-21T15:16:43.661Z</time></trkpt><trkpt lat="44.4722967" lon="9.2419317"><ele>1028.0</ele><time>2026-04-21T15:16:44.662Z</time></trkpt><trkpt lat="44.4723083" lon="9.24204"><ele>1028.0</ele><time>2026-04-21T15:16:45.661Z</time></trkpt><trkpt lat="44.4723367" lon="9.2421483"><ele>1028.0</ele><time>2026-04-21T15:16:46.661Z</time></trkpt><trkpt lat="44.4723833" lon="9.24222"><ele>1028.0</ele><time>2026-04-21T15:16:47.662Z</time></trkpt><trkpt lat="44.4724567" lon="9.2422867"><ele>1028.0</ele><time>2026-04-21T15:16:48.661Z</time></trkpt><trkpt lat="44.472535" lon="9.2423433"><ele>1025.8333333333335</ele><time>2026-04-21T15:16:49.662Z</time></trkpt><trkpt lat="44.4726283" lon="9.24241"><ele>1023.6666666666667</ele><time>2026-04-21T15:16:50.661Z</time></trkpt><trkpt lat="44.4726917" lon="9.2424717"><ele>1021.5</ele><time>2026-04-21T15:16:51.661Z</time></trkpt><trkpt lat="44.472735" lon="9.2425583"><ele>1019.3333333333333</ele><time>2026-04-21T15:16:52.662Z</time></trkpt><trkpt lat="44.4727583" lon="9.2426633"><ele>1017.1666666666666</ele><time>2026-04-21T15:16:53.661Z</time></trkpt><trkpt lat="44.4727567" lon="9.242775"><ele>1015.0</ele><time>2026-04-21T15:16:54.662Z</time></trkpt><trkpt lat="44.4727133" lon="9.2429017"><ele>1015.0</ele><time>2026-04-21T15:16:55.662Z</time></trkpt><trkpt lat="44.472665" lon="9.2430367"><ele>1015.0</ele><time>2026-04-21T15:16:56.661Z</time></trkpt><trkpt lat="44.47264" lon="9.243175"><ele>1015.0</ele><time>2026-04-21T15:16:57.662Z</time></trkpt><trkpt lat="44.4726433" lon="9.243305"><ele>1015.0</ele><time>2026-04-21T15:16:58.662Z</time></trkpt><trkpt lat="44.472665" lon="9.2433983"><ele>1015.0</ele><time>2026-04-21T15:16:59.661Z</time></trkpt><trkpt lat="44.472755" lon="9.243505"><ele>1014.8333333333333</ele><time>2026-04-21T15:17:01.661Z</time></trkpt><trkpt lat="44.4728333" lon="9.243525"><ele>1014.6666666666666</ele><time>2026-04-21T15:17:02.661Z</time></trkpt><trkpt lat="44.472915" lon="9.243535"><ele>1014.5</ele><time>2026-04-21T15:17:03.661Z</time></trkpt><trkpt lat="44.473015" lon="9.2435433"><ele>1014.3333333333333</ele><time>2026-04-21T15:17:04.661Z</time></trkpt><trkpt lat="44.4730983" lon="9.2435717"><ele>1014.1666666666666</ele><time>2026-04-21T15:17:05.661Z</time></trkpt><trkpt lat="44.4731617" lon="9.2436267"><ele>1014.0</ele><time>2026-04-21T15:17:06.662Z</time></trkpt><trkpt lat="44.4732067" lon="9.2437"><ele>1017.8000000000001</ele><time>2026-04-21T15:17:07.661Z</time></trkpt><trkpt lat="44.473245" lon="9.2438067"><ele>1021.6000000000001</ele><time>2026-04-21T15:17:08.662Z</time></trkpt><trkpt lat="44.4732833" lon="9.24395"><ele>1025.4</ele><time>2026-04-21T15:17:09.662Z</time></trkpt><trkpt lat="44.4733133" lon="9.2441333"><ele>1029.2</ele><time>2026-04-21T15:17:10.661Z</time></trkpt><trkpt lat="44.473335" lon="9.244295"><ele>1033.0</ele><time>2026-04-21T15:17:11.662Z</time></trkpt><trkpt lat="44.4733383" lon="9.2444417"><ele>1033.0</ele><time>2026-04-21T15:17:12.661Z</time></trkpt><trkpt lat="44.4733183" lon="9.2445817"><ele>1033.0</ele><time>2026-04-21T15:17:13.661Z</time></trkpt><trkpt lat="44.4732867" lon="9.2447083"><ele>1033.0</ele><time>2026-04-21T15:17:14.662Z</time></trkpt><trkpt lat="44.4732633" lon="9.2448217"><ele>1033.0</ele><time>2026-04-21T15:17:15.661Z</time></trkpt><trkpt lat="44.4732433" lon="9.2449133"><ele>1033.0</ele><time>2026-04-21T15:17:16.662Z</time></trkpt><trkpt lat="44.473285" lon="9.2450433"><ele>1033.0</ele><time>2026-04-21T15:17:18.662Z</time></trkpt><trkpt lat="44.4733717" lon="9.245045"><ele>1033.0</ele><time>2026-04-21T15:17:20.662Z</time></trkpt><trkpt lat="44.4734267" lon="9.2449833"><ele>1033.0</ele><time>2026-04-21T15:17:21.663Z</time></trkpt><trkpt lat="44.47348" lon="9.2448783"><ele>1033.0</ele><time>2026-04-21T15:17:22.663Z</time></trkpt><trkpt lat="44.4735217" lon="9.24475"><ele>1033.0</ele><time>2026-04-21T15:17:23.662Z</time></trkpt><trkpt lat="44.4735267" lon="9.24458"><ele>1033.0</ele><time>2026-04-21T15:17:24.662Z</time></trkpt><trkpt lat="44.4735217" lon="9.2443933"><ele>1033.0</ele><time>2026-04-21T15:17:25.663Z</time></trkpt><trkpt lat="44.4735167" lon="9.2441717"><ele>1033.0</ele><time>2026-04-21T15:17:26.662Z</time></trkpt><trkpt lat="44.4735067" lon="9.24398"><ele>1033.0</ele><time>2026-04-21T15:17:27.662Z</time></trkpt><trkpt lat="44.4735017" lon="9.24377"><ele>1036.5</ele><time>2026-04-21T15:17:28.663Z</time></trkpt><trkpt lat="44.473495" lon="9.24358"><ele>1040.0</ele><time>2026-04-21T15:17:29.662Z</time></trkpt><trkpt lat="44.4734733" lon="9.2434217"><ele>1043.5</ele><time>2026-04-21T15:17:30.663Z</time></trkpt><trkpt lat="44.4734233" lon="9.2433017"><ele>1047.0</ele><time>2026-04-21T15:17:31.662Z</time></trkpt><trkpt lat="44.4733317" lon="9.2432"><ele>1048.5</ele><time>2026-04-21T15:17:32.663Z</time></trkpt><trkpt lat="44.4732383" lon="9.243125"><ele>1050.0</ele><time>2026-04-21T15:17:33.662Z</time></trkpt><trkpt lat="44.47318" lon="9.24303"><ele>1051.5</ele><time>2026-04-21T15:17:34.663Z</time></trkpt><trkpt lat="44.4731333" lon="9.2429383"><ele>1053.0</ele><time>2026-04-21T15:17:35.662Z</time></trkpt><trkpt lat="44.4731233" lon="9.2428333"><ele>1054.5</ele><time>2026-04-21T15:17:36.663Z</time></trkpt><trkpt lat="44.4731583" lon="9.2427133"><ele>1056.0</ele><time>2026-04-21T15:17:37.663Z</time></trkpt><trkpt lat="44.4732383" lon="9.2425683"><ele>1056.0</ele><time>2026-04-21T15:17:38.662Z</time></trkpt><trkpt lat="44.47329" lon="9.2424117"><ele>1056.0</ele><time>2026-04-21T15:17:39.662Z</time></trkpt><trkpt lat="44.4733233" lon="9.242265"><ele>1056.0</ele><time>2026-04-21T15:17:40.662Z</time></trkpt><trkpt lat="44.4733217" lon="9.2421283"><ele>1056.0</ele><time>2026-04-21T15:17:41.662Z</time></trkpt><trkpt lat="44.473305" lon="9.2420133"><ele>1056.0</ele><time>2026-04-21T15:17:42.662Z</time></trkpt><trkpt lat="44.4732583" lon="9.2419083"><ele>1058.0</ele><time>2026-04-21T15:17:43.662Z</time></trkpt><trkpt lat="44.47318" lon="9.2418183"><ele>1060.0</ele><time>2026-04-21T15:17:44.662Z</time></trkpt><trkpt lat="44.4731067" lon="9.2417467"><ele>1062.0</ele><time>2026-04-21T15:17:45.663Z</time></trkpt><trkpt lat="44.4730567" lon="9.2416667"><ele>1064.0</ele><time>2026-04-21T15:17:46.663Z</time></trkpt><trkpt lat="44.4730367" lon="9.24157"><ele>1066.0</ele><time>2026-04-21T15:17:47.662Z</time></trkpt><trkpt lat="44.4730517" lon="9.2414633"><ele>1068.0</ele><time>2026-04-21T15:17:48.662Z</time></trkpt><trkpt lat="44.4730817" lon="9.2413433"><ele>1070.2</ele><time>2026-04-21T15:17:49.663Z</time></trkpt><trkpt lat="44.4731233" lon="9.2411967"><ele>1072.4</ele><time>2026-04-21T15:17:50.662Z</time></trkpt><trkpt lat="44.4731467" lon="9.24107"><ele>1074.6000000000001</ele><time>2026-04-21T15:17:51.662Z</time></trkpt><trkpt lat="44.47314" lon="9.2409533"><ele>1076.8</ele><time>2026-04-21T15:17:52.662Z</time></trkpt><trkpt lat="44.4730967" lon="9.24083"><ele>1079.0</ele><time>2026-04-21T15:17:53.662Z</time></trkpt><trkpt lat="44.47306" lon="9.2406967"><ele>1079.0</ele><time>2026-04-21T15:17:54.663Z</time></trkpt><trkpt lat="44.4730417" lon="9.2405633"><ele>1079.0</ele><time>2026-04-21T15:17:55.663Z</time></trkpt><trkpt lat="44.47302" lon="9.2404567"><ele>1079.0</ele><time>2026-04-21T15:17:56.662Z</time></trkpt><trkpt lat="44.4729833" lon="9.2403633"><ele>1079.0</ele><time>2026-04-21T15:17:57.662Z</time></trkpt><trkpt lat="44.4729267" lon="9.240305"><ele>1079.0</ele><time>2026-04-21T15:17:58.662Z</time></trkpt><trkpt lat="44.4728283" lon="9.24027"><ele>1079.0</ele><time>2026-04-21T15:17:59.662Z</time></trkpt><trkpt lat="44.47271" lon="9.24025"><ele>1079.0</ele><time>2026-04-21T15:18:00.662Z</time></trkpt><trkpt lat="44.4725783" lon="9.240255"><ele>1079.0</ele><time>2026-04-21T15:18:01.662Z</time></trkpt><trkpt lat="44.47245" lon="9.2402517"><ele>1079.0</ele><time>2026-04-21T15:18:02.662Z</time></trkpt><trkpt lat="44.4723467" lon="9.2402267"><ele>1079.0</ele><time>2026-04-21T15:18:03.663Z</time></trkpt><trkpt lat="44.4722467" lon="9.24017"><ele>1079.0</ele><time>2026-04-21T15:18:04.662Z</time></trkpt><trkpt lat="44.47215" lon="9.2400933"><ele>1079.0</ele><time>2026-04-21T15:18:05.663Z</time></trkpt><trkpt lat="44.472065" lon="9.24004"><ele>1079.0</ele><time>2026-04-21T15:18:06.662Z</time></trkpt><trkpt lat="44.47197" lon="9.2400167"><ele>1079.0</ele><time>2026-04-21T15:18:07.662Z</time></trkpt><trkpt lat="44.4718667" lon="9.2400433"><ele>1079.0</ele><time>2026-04-21T15:18:08.662Z</time></trkpt><trkpt lat="44.471765" lon="9.240105"><ele>1076.8</ele><time>2026-04-21T15:18:09.662Z</time></trkpt><trkpt lat="44.4716667" lon="9.2401817"><ele>1074.6000000000001</ele><time>2026-04-21T15:18:10.662Z</time></trkpt><trkpt lat="44.471575" lon="9.2402383"><ele>1072.4</ele><time>2026-04-21T15:18:11.662Z</time></trkpt><trkpt lat="44.4715" lon="9.2402633"><ele>1070.2</ele><time>2026-04-21T15:18:12.662Z</time></trkpt><trkpt lat="44.4714383" lon="9.2402367"><ele>1068.0</ele><time>2026-04-21T15:18:13.663Z</time></trkpt><trkpt lat="44.471385" lon="9.240075"><ele>1068.0</ele><time>2026-04-21T15:18:15.662Z</time></trkpt><trkpt lat="44.4714133" lon="9.239945"><ele>1068.0</ele><time>2026-04-21T15:18:16.662Z</time></trkpt><trkpt lat="44.47148" lon="9.2398117"><ele>1068.0</ele><time>2026-04-21T15:18:17.662Z</time></trkpt><trkpt lat="44.4715767" lon="9.2396733"><ele>1068.0</ele><time>2026-04-21T15:18:18.662Z</time></trkpt><trkpt lat="44.471685" lon="9.2395333"><ele>1068.0</ele><time>2026-04-21T15:18:19.662Z</time></trkpt><trkpt lat="44.4717867" lon="9.2393783"><ele>1068.0</ele><time>2026-04-21T15:18:20.662Z</time></trkpt><trkpt lat="44.471865" lon="9.2392133"><ele>1068.0</ele><time>2026-04-21T15:18:21.662Z</time></trkpt><trkpt lat="44.471925" lon="9.2390667"><ele>1068.0</ele><time>2026-04-21T15:18:22.663Z</time></trkpt><trkpt lat="44.4719733" lon="9.2389283"><ele>1065.8</ele><time>2026-04-21T15:18:23.662Z</time></trkpt><trkpt lat="44.4720217" lon="9.2388267"><ele>1063.6</ele><time>2026-04-21T15:18:24.662Z</time></trkpt><trkpt lat="44.4720833" lon="9.2387467"><ele>1061.4</ele><time>2026-04-21T15:18:25.662Z</time></trkpt><trkpt lat="44.472175" lon="9.2386717"><ele>1059.2</ele><time>2026-04-21T15:18:26.662Z</time></trkpt><trkpt lat="44.4722783" lon="9.238605"><ele>1057.0</ele><time>2026-04-21T15:18:27.663Z</time></trkpt><trkpt lat="44.4723817" lon="9.23856"><ele>1062.0</ele><time>2026-04-21T15:18:28.662Z</time></trkpt><trkpt lat="44.4724717" lon="9.23853"><ele>1067.0</ele><time>2026-04-21T15:18:29.663Z</time></trkpt><trkpt lat="44.472555" lon="9.2385217"><ele>1072.0</ele><time>2026-04-21T15:18:30.662Z</time></trkpt><trkpt lat="44.4726567" lon="9.2385467"><ele>1077.0</ele><time>2026-04-21T15:18:31.663Z</time></trkpt><trkpt lat="44.472755" lon="9.2385733"><ele>1082.0</ele><time>2026-04-21T15:18:32.662Z</time></trkpt><trkpt lat="44.4728533" lon="9.2385967"><ele>1084.6</ele><time>2026-04-21T15:18:33.663Z</time></trkpt><trkpt lat="44.4729417" lon="9.2386267"><ele>1087.2</ele><time>2026-04-21T15:18:34.662Z</time></trkpt><trkpt lat="44.473035" lon="9.238655"><ele>1089.8</ele><time>2026-04-21T15:18:35.662Z</time></trkpt><trkpt lat="44.4731167" lon="9.2386733"><ele>1092.4</ele><time>2026-04-21T15:18:36.662Z</time></trkpt><trkpt lat="44.4731883" lon="9.2386717"><ele>1095.0</ele><time>2026-04-21T15:18:37.663Z</time></trkpt><trkpt lat="44.4733117" lon="9.2385833"><ele>1095.0</ele><time>2026-04-21T15:18:39.662Z</time></trkpt><trkpt lat="44.4733917" lon="9.2385117"><ele>1095.0</ele><time>2026-04-21T15:18:40.663Z</time></trkpt><trkpt lat="44.473485" lon="9.2384533"><ele>1095.0</ele><time>2026-04-21T15:18:41.662Z</time></trkpt><trkpt lat="44.4735933" lon="9.23841"><ele>1095.0</ele><time>2026-04-21T15:18:42.662Z</time></trkpt><trkpt lat="44.47372" lon="9.2383733"><ele>1095.0</ele><time>2026-04-21T15:18:43.662Z</time></trkpt><trkpt lat="44.473855" lon="9.23834"><ele>1096.75</ele><time>2026-04-21T15:18:44.663Z</time></trkpt><trkpt lat="44.4739967" lon="9.2383067"><ele>1098.5</ele><time>2026-04-21T15:18:45.662Z</time></trkpt><trkpt lat="44.4741433" lon="9.23827"><ele>1100.25</ele><time>2026-04-21T15:18:46.662Z</time></trkpt><trkpt lat="44.4742833" lon="9.2382183"><ele>1102.0</ele><time>2026-04-21T15:18:47.662Z</time></trkpt><trkpt lat="44.47441" lon="9.2381917"><ele>1102.0</ele><time>2026-04-21T15:18:48.662Z</time></trkpt><trkpt lat="44.474515" lon="9.2381417"><ele>1102.0</ele><time>2026-04-21T15:18:49.662Z</time></trkpt><trkpt lat="44.4746033" lon="9.2380717"><ele>1102.0</ele><time>2026-04-21T15:18:50.662Z</time></trkpt><trkpt lat="44.4746767" lon="9.2379983"><ele>1102.0</ele><time>2026-04-21T15:18:51.663Z</time></trkpt><trkpt lat="44.4747317" lon="9.23789"><ele>1102.0</ele><time>2026-04-21T15:18:52.662Z</time></trkpt><trkpt lat="44.4747783" lon="9.2377417"><ele>1101.25</ele><time>2026-04-21T15:18:53.662Z</time></trkpt><trkpt lat="44.4748367" lon="9.237575"><ele>1100.5</ele><time>2026-04-21T15:18:54.662Z</time></trkpt><trkpt lat="44.4749067" lon="9.2374133"><ele>1099.75</ele><time>2026-04-21T15:18:55.663Z</time></trkpt><trkpt lat="44.474975" lon="9.2372633"><ele>1099.0</ele><time>2026-04-21T15:18:56.662Z</time></trkpt><trkpt lat="44.475045" lon="9.237125"><ele>1103.75</ele><time>2026-04-21T15:18:57.663Z</time></trkpt><trkpt lat="44.4751217" lon="9.2369967"><ele>1108.5</ele><time>2026-04-21T15:18:58.662Z</time></trkpt><trkpt lat="44.4752117" lon="9.2368617"><ele>1113.25</ele><time>2026-04-21T15:18:59.662Z</time></trkpt><trkpt lat="44.47531" lon="9.2367483"><ele>1118.0</ele><time>2026-04-21T15:19:00.662Z</time></trkpt><trkpt lat="44.475415" lon="9.2366417"><ele>1121.5</ele><time>2026-04-21T15:19:01.662Z</time></trkpt><trkpt lat="44.4755383" lon="9.2365617"><ele>1125.0</ele><time>2026-04-21T15:19:02.662Z</time></trkpt><trkpt lat="44.4756467" lon="9.236475"><ele>1128.5</ele><time>2026-04-21T15:19:03.662Z</time></trkpt><trkpt lat="44.4757467" lon="9.2363867"><ele>1132.0</ele><time>2026-04-21T15:19:04.663Z</time></trkpt><trkpt lat="44.4758483" lon="9.236315"><ele>1132.0</ele><time>2026-04-21T15:19:05.662Z</time></trkpt><trkpt lat="44.4759233" lon="9.236275"><ele>1132.0</ele><time>2026-04-21T15:19:06.662Z</time></trkpt><trkpt lat="44.4759983" lon="9.2362833"><ele>1132.0</ele><time>2026-04-21T15:19:07.662Z</time></trkpt><trkpt lat="44.47607" lon="9.23634"><ele>1132.0</ele><time>2026-04-21T15:19:08.662Z</time></trkpt><trkpt lat="44.4761367" lon="9.2364183"><ele>1132.0</ele><time>2026-04-21T15:19:09.662Z</time></trkpt><trkpt lat="44.47621" lon="9.2364967"><ele>1132.0</ele><time>2026-04-21T15:19:10.662Z</time></trkpt><trkpt lat="44.4762833" lon="9.2365533"><ele>1127.8</ele><time>2026-04-21T15:19:11.662Z</time></trkpt><trkpt lat="44.4763717" lon="9.2365783"><ele>1123.6</ele><time>2026-04-21T15:19:12.663Z</time></trkpt><trkpt lat="44.476465" lon="9.236575"><ele>1119.3999999999999</ele><time>2026-04-21T15:19:13.662Z</time></trkpt><trkpt lat="44.4765733" lon="9.2365567"><ele>1115.2</ele><time>2026-04-21T15:19:14.662Z</time></trkpt><trkpt lat="44.4766683" lon="9.2365617"><ele>1111.0</ele><time>2026-04-21T15:19:15.663Z</time></trkpt><trkpt lat="44.4767667" lon="9.23662"><ele>1111.0</ele><time>2026-04-21T15:19:16.663Z</time></trkpt><trkpt lat="44.4768717" lon="9.236705"><ele>1111.0</ele><time>2026-04-21T15:19:17.662Z</time></trkpt><trkpt lat="44.47697" lon="9.2368083"><ele>1111.0</ele><time>2026-04-21T15:19:18.663Z</time></trkpt><trkpt lat="44.4770617" lon="9.2369"><ele>1111.0</ele><time>2026-04-21T15:19:19.662Z</time></trkpt><trkpt lat="44.47715" lon="9.23699"><ele>1112.8</ele><time>2026-04-21T15:19:20.662Z</time></trkpt><trkpt lat="44.47723" lon="9.237045"><ele>1114.6</ele><time>2026-04-21T15:19:21.662Z</time></trkpt><trkpt lat="44.477305" lon="9.2370733"><ele>1116.4</ele><time>2026-04-21T15:19:22.662Z</time></trkpt><trkpt lat="44.4773817" lon="9.2370717"><ele>1118.2</ele><time>2026-04-21T15:19:23.662Z</time></trkpt><trkpt lat="44.4774767" lon="9.2370317"><ele>1120.0</ele><time>2026-04-21T15:19:24.663Z</time></trkpt><trkpt lat="44.4775867" lon="9.236975"><ele>1120.0</ele><time>2026-04-21T15:19:25.663Z</time></trkpt><trkpt lat="44.4777183" lon="9.236915"><ele>1120.0</ele><time>2026-04-21T15:19:26.662Z</time></trkpt><trkpt lat="44.4778533" lon="9.2368617"><ele>1120.0</ele><time>2026-04-21T15:19:27.662Z</time></trkpt><trkpt lat="44.47798" lon="9.236815"><ele>1120.0</ele><time>2026-04-21T15:19:28.662Z</time></trkpt><trkpt lat="44.4780883" lon="9.2367817"><ele>1117.8</ele><time>2026-04-21T15:19:29.663Z</time></trkpt><trkpt lat="44.4781933" lon="9.2367717"><ele>1115.6</ele><time>2026-04-21T15:19:30.663Z</time></trkpt><trkpt lat="44.47828" lon="9.236775"><ele>1113.4</ele><time>2026-04-21T15:19:31.662Z</time></trkpt><trkpt lat="44.478365" lon="9.23679"><ele>1111.2</ele><time>2026-04-21T15:19:32.663Z</time></trkpt><trkpt lat="44.4784417" lon="9.236845"><ele>1109.0</ele><time>2026-04-21T15:19:33.662Z</time></trkpt><trkpt lat="44.4785217" lon="9.236935"><ele>1109.0</ele><time>2026-04-21T15:19:34.662Z</time></trkpt><trkpt lat="44.4786083" lon="9.2370533"><ele>1109.0</ele><time>2026-04-21T15:19:35.662Z</time></trkpt><trkpt lat="44.4786967" lon="9.2372183"><ele>1109.0</ele><time>2026-04-21T15:19:36.663Z</time></trkpt><trkpt lat="44.47877" lon="9.2373767"><ele>1109.0</ele><time>2026-04-21T15:19:37.662Z</time></trkpt><trkpt lat="44.4788467" lon="9.23752"><ele>1110.75</ele><time>2026-04-21T15:19:38.662Z</time></trkpt><trkpt lat="44.4789333" lon="9.2376417"><ele>1112.5</ele><time>2026-04-21T15:19:39.662Z</time></trkpt><trkpt lat="44.4790517" lon="9.2377683"><ele>1114.25</ele><time>2026-04-21T15:19:40.663Z</time></trkpt><trkpt lat="44.4791783" lon="9.2378733"><ele>1116.0</ele><time>2026-04-21T15:19:41.663Z</time></trkpt><trkpt lat="44.4793017" lon="9.2379817"><ele>1116.0</ele><time>2026-04-21T15:19:42.663Z</time></trkpt><trkpt lat="44.479415" lon="9.2380933"><ele>1116.0</ele><time>2026-04-21T15:19:43.663Z</time></trkpt><trkpt lat="44.47952" lon="9.238215"><ele>1116.0</ele><time>2026-04-21T15:19:44.662Z</time></trkpt><trkpt lat="44.4796083" lon="9.2383583"><ele>1116.0</ele><time>2026-04-21T15:19:45.662Z</time></trkpt><trkpt lat="44.4796867" lon="9.238525"><ele>1113.6666666666667</ele><time>2026-04-21T15:19:46.663Z</time></trkpt><trkpt lat="44.4797483" lon="9.23872"><ele>1111.3333333333335</ele><time>2026-04-21T15:19:47.662Z</time></trkpt><trkpt lat="44.4798117" lon="9.23893"><ele>1109.0</ele><time>2026-04-21T15:19:48.662Z</time></trkpt><trkpt lat="44.4798717" lon="9.2391367"><ele>1109.0</ele><time>2026-04-21T15:19:49.662Z</time></trkpt><trkpt lat="44.4799233" lon="9.2393367"><ele>1109.0</ele><time>2026-04-21T15:19:50.662Z</time></trkpt><trkpt lat="44.47996" lon="9.23952"><ele>1109.0</ele><time>2026-04-21T15:19:51.662Z</time></trkpt><trkpt lat="44.4799983" lon="9.239685"><ele>1109.0</ele><time>2026-04-21T15:19:52.662Z</time></trkpt><trkpt lat="44.4800533" lon="9.23982"><ele>1107.25</ele><time>2026-04-21T15:19:53.663Z</time></trkpt><trkpt lat="44.4801283" lon="9.23995"><ele>1105.5</ele><time>2026-04-21T15:19:54.663Z</time></trkpt><trkpt lat="44.4802117" lon="9.2400933"><ele>1103.75</ele><time>2026-04-21T15:19:55.662Z</time></trkpt><trkpt lat="44.4802933" lon="9.2402433"><ele>1102.0</ele><time>2026-04-21T15:19:56.662Z</time></trkpt><trkpt lat="44.4803783" lon="9.240425"><ele>1101.3333333333333</ele><time>2026-04-21T15:19:57.663Z</time></trkpt><trkpt lat="44.4804683" lon="9.2406017"><ele>1100.6666666666667</ele><time>2026-04-21T15:19:58.663Z</time></trkpt><trkpt lat="44.4805367" lon="9.240785"><ele>1100.0</ele><time>2026-04-21T15:19:59.662Z</time></trkpt><trkpt lat="44.4805983" lon="9.240995"><ele>1101.25</ele><time>2026-04-21T15:20:00.662Z</time></trkpt><trkpt lat="44.4806567" lon="9.2411717"><ele>1102.5</ele><time>2026-04-21T15:20:01.662Z</time></trkpt><trkpt lat="44.4807267" lon="9.2413567"><ele>1103.75</ele><time>2026-04-21T15:20:02.663Z</time></trkpt><trkpt lat="44.4807983" lon="9.24153"><ele>1105.0</ele><time>2026-04-21T15:20:03.662Z</time></trkpt><trkpt lat="44.4808717" lon="9.2416867"><ele>1107.5</ele><time>2026-04-21T15:20:04.662Z</time></trkpt><trkpt lat="44.4809383" lon="9.24184"><ele>1110.0</ele><time>2026-04-21T15:20:05.663Z</time></trkpt><trkpt lat="44.48101" lon="9.2419817"><ele>1112.5</ele><time>2026-04-21T15:20:06.662Z</time></trkpt><trkpt lat="44.4810883" lon="9.2421083"><ele>1115.0</ele><time>2026-04-21T15:20:07.663Z</time></trkpt><trkpt lat="44.4811833" lon="9.2422217"><ele>1117.25</ele><time>2026-04-21T15:20:08.662Z</time></trkpt><trkpt lat="44.4812967" lon="9.2423117"><ele>1119.5</ele><time>2026-04-21T15:20:09.663Z</time></trkpt><trkpt lat="44.48143" lon="9.2423717"><ele>1121.75</ele><time>2026-04-21T15:20:10.663Z</time></trkpt><trkpt lat="44.4815583" lon="9.242425"><ele>1124.0</ele><time>2026-04-21T15:20:11.662Z</time></trkpt><trkpt lat="44.4816917" lon="9.2424683"><ele>1124.0</ele><time>2026-04-21T15:20:12.662Z</time></trkpt><trkpt lat="44.48184" lon="9.242525"><ele>1124.0</ele><time>2026-04-21T15:20:13.662Z</time></trkpt><trkpt lat="44.48197" lon="9.2425517"><ele>1124.0</ele><time>2026-04-21T15:20:14.663Z</time></trkpt><trkpt lat="44.48211" lon="9.2425917"><ele>1124.0</ele><time>2026-04-21T15:20:15.663Z</time></trkpt><trkpt lat="44.482245" lon="9.242625"><ele>1121.0</ele><time>2026-04-21T15:20:16.662Z</time></trkpt><trkpt lat="44.4823817" lon="9.24266"><ele>1118.0</ele><time>2026-04-21T15:20:17.663Z</time></trkpt><trkpt lat="44.4825283" lon="9.2427267"><ele>1115.0</ele><time>2026-04-21T15:20:18.662Z</time></trkpt><trkpt lat="44.4826817" lon="9.2428083"><ele>1115.0</ele><time>2026-04-21T15:20:19.662Z</time></trkpt><trkpt lat="44.482825" lon="9.2428833"><ele>1115.0</ele><time>2026-04-21T15:20:20.662Z</time></trkpt><trkpt lat="44.48297" lon="9.24294"><ele>1115.0</ele><time>2026-04-21T15:20:21.663Z</time></trkpt><trkpt lat="44.4831017" lon="9.24299"><ele>1115.0</ele><time>2026-04-21T15:20:22.663Z</time></trkpt><trkpt lat="44.4832317" lon="9.2430483"><ele>1111.75</ele><time>2026-04-21T15:20:23.662Z</time></trkpt><trkpt lat="44.4833617" lon="9.2431183"><ele>1108.5</ele><time>2026-04-21T15:20:24.663Z</time></trkpt><trkpt lat="44.4834883" lon="9.2431767"><ele>1105.25</ele><time>2026-04-21T15:20:25.662Z</time></trkpt><trkpt lat="44.4836" lon="9.2432083"><ele>1102.0</ele><time>2026-04-21T15:20:26.662Z</time></trkpt><trkpt lat="44.4836767" lon="9.2432267"><ele>1101.5</ele><time>2026-04-21T15:20:27.663Z</time></trkpt><trkpt lat="44.4837567" lon="9.24321"><ele>1101.0</ele><time>2026-04-21T15:20:28.662Z</time></trkpt><trkpt lat="44.4838167" lon="9.243155"><ele>1100.5</ele><time>2026-04-21T15:20:29.662Z</time></trkpt><trkpt lat="44.48388" lon="9.2430567"><ele>1100.0</ele><time>2026-04-21T15:20:30.662Z</time></trkpt><trkpt lat="44.483955" lon="9.2429617"><ele>1099.5</ele><time>2026-04-21T15:20:31.662Z</time></trkpt><trkpt lat="44.4840317" lon="9.242875"><ele>1099.0</ele><time>2026-04-21T15:20:32.662Z</time></trkpt><trkpt lat="44.484125" lon="9.24284"><ele>1099.0</ele><time>2026-04-21T15:20:33.662Z</time></trkpt><trkpt lat="44.4842167" lon="9.2428433"><ele>1099.0</ele><time>2026-04-21T15:20:34.662Z</time></trkpt><trkpt lat="44.484315" lon="9.2428617"><ele>1099.0</ele><time>2026-04-21T15:20:35.662Z</time></trkpt><trkpt lat="44.4844167" lon="9.2428983"><ele>1099.0</ele><time>2026-04-21T15:20:36.662Z</time></trkpt><trkpt lat="44.4845233" lon="9.2429667"><ele>1099.0</ele><time>2026-04-21T15:20:37.663Z</time></trkpt><trkpt lat="44.4846283" lon="9.2430483"><ele>1100.0</ele><time>2026-04-21T15:20:38.663Z</time></trkpt><trkpt lat="44.4847267" lon="9.243125"><ele>1101.0</ele><time>2026-04-21T15:20:39.663Z</time></trkpt><trkpt lat="44.4848267" lon="9.2431733"><ele>1102.0</ele><time>2026-04-21T15:20:40.663Z</time></trkpt><trkpt lat="44.48493" lon="9.2432167"><ele>1103.0</ele><time>2026-04-21T15:20:41.662Z</time></trkpt><trkpt lat="44.4850333" lon="9.2432267"><ele>1104.0</ele><time>2026-04-21T15:20:42.663Z</time></trkpt><trkpt lat="44.4851283" lon="9.24321"><ele>1104.0</ele><time>2026-04-21T15:20:43.662Z</time></trkpt><trkpt lat="44.4852233" lon="9.243175"><ele>1104.0</ele><time>2026-04-21T15:20:44.663Z</time></trkpt><trkpt lat="44.48532" lon="9.243125"><ele>1104.0</ele><time>2026-04-21T15:20:45.663Z</time></trkpt><trkpt lat="44.4854017" lon="9.24303"><ele>1104.0</ele><time>2026-04-21T15:20:46.662Z</time></trkpt><trkpt lat="44.48547" lon="9.242925"><ele>1104.0</ele><time>2026-04-21T15:20:47.662Z</time></trkpt><trkpt lat="44.4855233" lon="9.2428033"><ele>1107.6666666666667</ele><time>2026-04-21T15:20:48.662Z</time></trkpt><trkpt lat="44.4855767" lon="9.242715"><ele>1111.3333333333333</ele><time>2026-04-21T15:20:49.662Z</time></trkpt><trkpt lat="44.4856417" lon="9.2426433"><ele>1115.0</ele><time>2026-04-21T15:20:50.663Z</time></trkpt><trkpt lat="44.4857233" lon="9.2425867"><ele>1118.6666666666665</ele><time>2026-04-21T15:20:51.662Z</time></trkpt><trkpt lat="44.48581" lon="9.2425417"><ele>1122.3333333333333</ele><time>2026-04-21T15:20:52.663Z</time></trkpt><trkpt lat="44.485895" lon="9.2424967"><ele>1126.0</ele><time>2026-04-21T15:20:53.662Z</time></trkpt><trkpt lat="44.4859733" lon="9.2424367"><ele>1126.0</ele><time>2026-04-21T15:20:54.662Z</time></trkpt><trkpt lat="44.48604" lon="9.2423717"><ele>1126.0</ele><time>2026-04-21T15:20:55.663Z</time></trkpt><trkpt lat="44.486095" lon="9.242295"><ele>1126.0</ele><time>2026-04-21T15:20:56.662Z</time></trkpt><trkpt lat="44.4861333" lon="9.242205"><ele>1126.0</ele><time>2026-04-21T15:20:57.662Z</time></trkpt><trkpt lat="44.4861617" lon="9.242095"><ele>1126.0</ele><time>2026-04-21T15:20:58.663Z</time></trkpt><trkpt lat="44.4861833" lon="9.2419867"><ele>1126.0</ele><time>2026-04-21T15:20:59.662Z</time></trkpt><trkpt lat="44.486205" lon="9.2418983"><ele>1126.7142857142858</ele><time>2026-04-21T15:21:00.662Z</time></trkpt><trkpt lat="44.4862467" lon="9.241825"><ele>1127.4285714285716</ele><time>2026-04-21T15:21:01.662Z</time></trkpt><trkpt lat="44.4863067" lon="9.241765"><ele>1128.1428571428573</ele><time>2026-04-21T15:21:02.662Z</time></trkpt><trkpt lat="44.4863767" lon="9.24172"><ele>1128.857142857143</ele><time>2026-04-21T15:21:03.663Z</time></trkpt><trkpt lat="44.486445" lon="9.24168"><ele>1129.5714285714287</ele><time>2026-04-21T15:21:04.663Z</time></trkpt><trkpt lat="44.4864983" lon="9.2416233"><ele>1130.2857142857144</ele><time>2026-04-21T15:21:05.663Z</time></trkpt><trkpt lat="44.4865367" lon="9.241515"><ele>1131.0</ele><time>2026-04-21T15:21:06.663Z</time></trkpt><trkpt lat="44.48657" lon="9.2413917"><ele>1125.6666666666667</ele><time>2026-04-21T15:21:07.662Z</time></trkpt><trkpt lat="44.4866083" lon="9.241255"><ele>1120.3333333333333</ele><time>2026-04-21T15:21:08.662Z</time></trkpt><trkpt lat="44.48664" lon="9.2411317"><ele>1115.0</ele><time>2026-04-21T15:21:09.663Z</time></trkpt><trkpt lat="44.4866867" lon="9.241055"><ele>1109.6666666666665</ele><time>2026-04-21T15:21:10.662Z</time></trkpt><trkpt lat="44.4867517" lon="9.24101"><ele>1104.3333333333333</ele><time>2026-04-21T15:21:11.662Z</time></trkpt><trkpt lat="44.4868383" lon="9.240975"><ele>1099.0</ele><time>2026-04-21T15:21:12.662Z</time></trkpt><trkpt lat="44.48692" lon="9.2409283"><ele>1099.0</ele><time>2026-04-21T15:21:13.662Z</time></trkpt><trkpt lat="44.4869883" lon="9.2408667"><ele>1099.0</ele><time>2026-04-21T15:21:14.662Z</time></trkpt><trkpt lat="44.4870483" lon="9.2407933"><ele>1099.0</ele><time>2026-04-21T15:21:15.663Z</time></trkpt><trkpt lat="44.487105" lon="9.2407083"><ele>1099.0</ele><time>2026-04-21T15:21:16.662Z</time></trkpt><trkpt lat="44.4871667" lon="9.2406417"><ele>1099.0</ele><time>2026-04-21T15:21:17.663Z</time></trkpt><trkpt lat="44.4872333" lon="9.2405783"><ele>1099.0</ele><time>2026-04-21T15:21:18.662Z</time></trkpt><trkpt lat="44.487305" lon="9.2405"><ele>1098.6666666666665</ele><time>2026-04-21T15:21:19.662Z</time></trkpt><trkpt lat="44.4873767" lon="9.2404233"><ele>1098.3333333333333</ele><time>2026-04-21T15:21:20.663Z</time></trkpt><trkpt lat="44.487445" lon="9.240355"><ele>1098.0</ele><time>2026-04-21T15:21:21.662Z</time></trkpt><trkpt lat="44.4875183" lon="9.2403133"><ele>1097.6666666666667</ele><time>2026-04-21T15:21:22.662Z</time></trkpt><trkpt lat="44.4875867" lon="9.2402967"><ele>1097.3333333333335</ele><time>2026-04-21T15:21:23.663Z</time></trkpt><trkpt lat="44.487655" lon="9.2403017"><ele>1097.0</ele><time>2026-04-21T15:21:24.662Z</time></trkpt><trkpt lat="44.48772" lon="9.2403267"><ele>1097.0</ele><time>2026-04-21T15:21:25.663Z</time></trkpt><trkpt lat="44.4877933" lon="9.240385"><ele>1097.0</ele><time>2026-04-21T15:21:26.662Z</time></trkpt><trkpt lat="44.4878717" lon="9.2404667"><ele>1097.0</ele><time>2026-04-21T15:21:27.662Z</time></trkpt><trkpt lat="44.487965" lon="9.24057"><ele>1097.0</ele><time>2026-04-21T15:21:28.662Z</time></trkpt><trkpt lat="44.48806" lon="9.240675"><ele>1097.0</ele><time>2026-04-21T15:21:29.663Z</time></trkpt><trkpt lat="44.4881517" lon="9.2407683"><ele>1097.8333333333335</ele><time>2026-04-21T15:21:30.663Z</time></trkpt><trkpt lat="44.488235" lon="9.24085"><ele>1098.6666666666667</ele><time>2026-04-21T15:21:31.663Z</time></trkpt><trkpt lat="44.4882967" lon="9.2409317"><ele>1099.5</ele><time>2026-04-21T15:21:32.662Z</time></trkpt><trkpt lat="44.4883583" lon="9.2410183"><ele>1100.3333333333333</ele><time>2026-04-21T15:21:33.662Z</time></trkpt><trkpt lat="44.4884033" lon="9.24113"><ele>1101.1666666666665</ele><time>2026-04-21T15:21:34.663Z</time></trkpt><trkpt lat="44.4884283" lon="9.2412367"><ele>1102.0</ele><time>2026-04-21T15:21:35.662Z</time></trkpt><trkpt lat="44.488455" lon="9.241355"><ele>1107.4</ele><time>2026-04-21T15:21:36.663Z</time></trkpt><trkpt lat="44.4884917" lon="9.24147"><ele>1112.8000000000002</ele><time>2026-04-21T15:21:37.663Z</time></trkpt><trkpt lat="44.4885367" lon="9.2415817"><ele>1118.2</ele><time>2026-04-21T15:21:38.662Z</time></trkpt><trkpt lat="44.4885983" lon="9.2416783"><ele>1123.6000000000001</ele><time>2026-04-21T15:21:39.663Z</time></trkpt><trkpt lat="44.488675" lon="9.24176"><ele>1129.0</ele><time>2026-04-21T15:21:40.663Z</time></trkpt><trkpt lat="44.48875" lon="9.2418317"><ele>1125.0</ele><time>2026-04-21T15:21:41.662Z</time></trkpt><trkpt lat="44.4888233" lon="9.2418933"><ele>1121.0</ele><time>2026-04-21T15:21:42.663Z</time></trkpt><trkpt lat="44.4888867" lon="9.2419133"><ele>1117.0</ele><time>2026-04-21T15:21:43.662Z</time></trkpt><trkpt lat="44.4889517" lon="9.2419033"><ele>1113.0</ele><time>2026-04-21T15:21:44.662Z</time></trkpt><trkpt lat="44.489025" lon="9.241905"><ele>1109.0</ele><time>2026-04-21T15:21:45.663Z</time></trkpt><trkpt lat="44.489095" lon="9.241925"><ele>1105.0</ele><time>2026-04-21T15:21:46.662Z</time></trkpt><trkpt lat="44.4891567" lon="9.2419733"><ele>1101.0</ele><time>2026-04-21T15:21:47.662Z</time></trkpt><trkpt lat="44.48921" lon="9.24205"><ele>1101.0</ele><time>2026-04-21T15:21:48.663Z</time></trkpt><trkpt lat="44.4892567" lon="9.24214"><ele>1101.0</ele><time>2026-04-21T15:21:49.662Z</time></trkpt><trkpt lat="44.489305" lon="9.2422483"><ele>1101.0</ele><time>2026-04-21T15:21:50.662Z</time></trkpt><trkpt lat="44.48935" lon="9.2423667"><ele>1101.0</ele><time>2026-04-21T15:21:51.663Z</time></trkpt><trkpt lat="44.4893983" lon="9.242525"><ele>1101.0</ele><time>2026-04-21T15:21:52.663Z</time></trkpt><trkpt lat="44.4894267" lon="9.2427117"><ele>1106.25</ele><time>2026-04-21T15:21:53.662Z</time></trkpt><trkpt lat="44.48945" lon="9.2428933"><ele>1111.5</ele><time>2026-04-21T15:21:54.662Z</time></trkpt><trkpt lat="44.489475" lon="9.2430583"><ele>1116.75</ele><time>2026-04-21T15:21:55.663Z</time></trkpt><trkpt lat="44.4895" lon="9.2432183"><ele>1122.0</ele><time>2026-04-21T15:21:56.662Z</time></trkpt><trkpt lat="44.4895267" lon="9.243375"><ele>1123.75</ele><time>2026-04-21T15:21:57.662Z</time></trkpt><trkpt lat="44.48956" lon="9.24353"><ele>1125.5</ele><time>2026-04-21T15:21:58.663Z</time></trkpt><trkpt lat="44.4896117" lon="9.2436867"><ele>1127.25</ele><time>2026-04-21T15:21:59.663Z</time></trkpt><trkpt lat="44.4896667" lon="9.2438383"><ele>1129.0</ele><time>2026-04-21T15:22:00.662Z</time></trkpt><trkpt lat="44.48972" lon="9.2439933"><ele>1120.25</ele><time>2026-04-21T15:22:01.663Z</time></trkpt><trkpt lat="44.4897683" lon="9.24415"><ele>1111.5</ele><time>2026-04-21T15:22:02.662Z</time></trkpt><trkpt lat="44.4898117" lon="9.2443"><ele>1102.75</ele><time>2026-04-21T15:22:03.662Z</time></trkpt><trkpt lat="44.4898683" lon="9.244455"><ele>1094.0</ele><time>2026-04-21T15:22:04.662Z</time></trkpt><trkpt lat="44.48993" lon="9.244625"><ele>1094.0</ele><time>2026-04-21T15:22:05.663Z</time></trkpt><trkpt lat="44.4899967" lon="9.2447817"><ele>1094.0</ele><time>2026-04-21T15:22:06.663Z</time></trkpt><trkpt lat="44.4900733" lon="9.2449017"><ele>1094.0</ele><time>2026-04-21T15:22:07.662Z</time></trkpt><trkpt lat="44.4901483" lon="9.2450267"><ele>1094.0</ele><time>2026-04-21T15:22:08.663Z</time></trkpt><trkpt lat="44.4902233" lon="9.2451817"><ele>1092.0</ele><time>2026-04-21T15:22:09.662Z</time></trkpt><trkpt lat="44.4903183" lon="9.2452883"><ele>1090.0</ele><time>2026-04-21T15:22:10.663Z</time></trkpt><trkpt lat="44.4904067" lon="9.2453767"><ele>1088.0</ele><time>2026-04-21T15:22:11.663Z</time></trkpt><trkpt lat="44.490485" lon="9.2455"><ele>1086.0</ele><time>2026-04-21T15:22:12.662Z</time></trkpt><trkpt lat="44.4905483" lon="9.2456083"><ele>1084.0</ele><time>2026-04-21T15:22:13.662Z</time></trkpt><trkpt lat="44.4906067" lon="9.2457283"><ele>1087.2857142857142</ele><time>2026-04-21T15:22:14.662Z</time></trkpt><trkpt lat="44.4906583" lon="9.2458417"><ele>1090.5714285714287</ele><time>2026-04-21T15:22:15.663Z</time></trkpt><trkpt lat="44.4907017" lon="9.2459317"><ele>1093.857142857143</ele><time>2026-04-21T15:22:16.662Z</time></trkpt><trkpt lat="44.49074" lon="9.246005"><ele>1097.142857142857</ele><time>2026-04-21T15:22:17.662Z</time></trkpt><trkpt lat="44.490775" lon="9.24608"><ele>1100.4285714285713</ele><time>2026-04-21T15:22:18.663Z</time></trkpt><trkpt lat="44.490815" lon="9.246155"><ele>1103.7142857142858</ele><time>2026-04-21T15:22:19.662Z</time></trkpt><trkpt lat="44.4908717" lon="9.2462317"><ele>1107.0</ele><time>2026-04-21T15:22:20.662Z</time></trkpt><trkpt lat="44.4909433" lon="9.2463"><ele>1107.0</ele><time>2026-04-21T15:22:21.662Z</time></trkpt><trkpt lat="44.491035" lon="9.2463683"><ele>1107.0</ele><time>2026-04-21T15:22:22.663Z</time></trkpt><trkpt lat="44.4911383" lon="9.2464267"><ele>1107.0</ele><time>2026-04-21T15:22:23.663Z</time></trkpt><trkpt lat="44.49124" lon="9.246475"><ele>1107.0</ele><time>2026-04-21T15:22:24.663Z</time></trkpt><trkpt lat="44.4913433" lon="9.2465017"><ele>1107.0</ele><time>2026-04-21T15:22:25.663Z</time></trkpt><trkpt lat="44.4914367" lon="9.246505"><ele>1110.5</ele><time>2026-04-21T15:22:26.663Z</time></trkpt><trkpt lat="44.491545" lon="9.2464783"><ele>1114.0</ele><time>2026-04-21T15:22:27.663Z</time></trkpt><trkpt lat="44.49165" lon="9.246415"><ele>1117.5</ele><time>2026-04-21T15:22:28.662Z</time></trkpt><trkpt lat="44.4917533" lon="9.24633"><ele>1121.0</ele><time>2026-04-21T15:22:29.663Z</time></trkpt><trkpt lat="44.4918767" lon="9.2462267"><ele>1116.6666666666667</ele><time>2026-04-21T15:22:30.663Z</time></trkpt><trkpt lat="44.49201" lon="9.2461"><ele>1112.3333333333333</ele><time>2026-04-21T15:22:31.663Z</time></trkpt><trkpt lat="44.4921517" lon="9.245965"><ele>1108.0</ele><time>2026-04-21T15:22:32.663Z</time></trkpt><trkpt lat="44.4922933" lon="9.2458367"><ele>1108.0</ele><time>2026-04-21T15:22:33.662Z</time></trkpt><trkpt lat="44.4924233" lon="9.24571"><ele>1108.0</ele><time>2026-04-21T15:22:34.662Z</time></trkpt><trkpt lat="44.492545" lon="9.2455917"><ele>1108.0</ele><time>2026-04-21T15:22:35.663Z</time></trkpt><trkpt lat="44.4926583" lon="9.24549"><ele>1108.0</ele><time>2026-04-21T15:22:36.663Z</time></trkpt><trkpt lat="44.49276" lon="9.2454017"><ele>1104.6</ele><time>2026-04-21T15:22:37.662Z</time></trkpt><trkpt lat="44.4928617" lon="9.2453317"><ele>1101.1999999999998</ele><time>2026-04-21T15:22:38.662Z</time></trkpt><trkpt lat="44.4929567" lon="9.2452867"><ele>1097.8</ele><time>2026-04-21T15:22:39.663Z</time></trkpt><trkpt lat="44.49304" lon="9.2452733"><ele>1094.3999999999999</ele><time>2026-04-21T15:22:40.662Z</time></trkpt><trkpt lat="44.493115" lon="9.2452767"><ele>1091.0</ele><time>2026-04-21T15:22:41.662Z</time></trkpt><trkpt lat="44.4931917" lon="9.24531"><ele>1091.0</ele><time>2026-04-21T15:22:42.662Z</time></trkpt><trkpt lat="44.4932767" lon="9.24537"><ele>1091.0</ele><time>2026-04-21T15:22:43.662Z</time></trkpt><trkpt lat="44.493365" lon="9.2454383"><ele>1091.0</ele><time>2026-04-21T15:22:44.662Z</time></trkpt><trkpt lat="44.493455" lon="9.2454883"><ele>1091.0</ele><time>2026-04-21T15:22:45.662Z</time></trkpt><trkpt lat="44.4935467" lon="9.2454917"><ele>1091.0</ele><time>2026-04-21T15:22:46.663Z</time></trkpt><trkpt lat="44.4936517" lon="9.2454533"><ele>1091.5</ele><time>2026-04-21T15:22:47.663Z</time></trkpt><trkpt lat="44.4937567" lon="9.2453983"><ele>1092.0</ele><time>2026-04-21T15:22:48.663Z</time></trkpt><trkpt lat="44.4938767" lon="9.24535"><ele>1092.5</ele><time>2026-04-21T15:22:49.662Z</time></trkpt><trkpt lat="44.494" lon="9.2453"><ele>1093.0</ele><time>2026-04-21T15:22:50.662Z</time></trkpt><trkpt lat="44.49411" lon="9.2452567"><ele>1093.0</ele><time>2026-04-21T15:22:51.663Z</time></trkpt><trkpt lat="44.4942117" lon="9.24522"><ele>1093.0</ele><time>2026-04-21T15:22:52.662Z</time></trkpt><trkpt lat="44.4943" lon="9.24519"><ele>1093.0</ele><time>2026-04-21T15:22:53.663Z</time></trkpt><trkpt lat="44.4943883" lon="9.2451883"><ele>1093.0</ele><time>2026-04-21T15:22:54.662Z</time></trkpt><trkpt lat="44.4944733" lon="9.2452"><ele>1093.0</ele><time>2026-04-21T15:22:55.662Z</time></trkpt><trkpt lat="44.4945683" lon="9.2452067"><ele>1094.0</ele><time>2026-04-21T15:22:56.662Z</time></trkpt><trkpt lat="44.49467" lon="9.245215"><ele>1095.0</ele><time>2026-04-21T15:22:57.663Z</time></trkpt><trkpt lat="44.4947767" lon="9.245215"><ele>1096.0</ele><time>2026-04-21T15:22:58.662Z</time></trkpt><trkpt lat="44.4948983" lon="9.24521"><ele>1097.0</ele><time>2026-04-21T15:22:59.662Z</time></trkpt><trkpt lat="44.4950167" lon="9.2452033"><ele>1098.0</ele><time>2026-04-21T15:23:00.663Z</time></trkpt><trkpt lat="44.4951383" lon="9.2451883"><ele>1098.0</ele><time>2026-04-21T15:23:01.663Z</time></trkpt><trkpt lat="44.49525" lon="9.2451633"><ele>1098.0</ele><time>2026-04-21T15:23:02.662Z</time></trkpt><trkpt lat="44.4953633" lon="9.2451383"><ele>1098.0</ele><time>2026-04-21T15:23:03.663Z</time></trkpt><trkpt lat="44.49547" lon="9.2451183"><ele>1098.0</ele><time>2026-04-21T15:23:04.662Z</time></trkpt><trkpt lat="44.49557" lon="9.2450967"><ele>1098.0</ele><time>2026-04-21T15:23:05.662Z</time></trkpt><trkpt lat="44.4956617" lon="9.245065"><ele>1098.2</ele><time>2026-04-21T15:23:06.663Z</time></trkpt><trkpt lat="44.4957467" lon="9.245015"><ele>1098.4</ele><time>2026-04-21T15:23:07.662Z</time></trkpt><trkpt lat="44.4958267" lon="9.2449467"><ele>1098.6000000000001</ele><time>2026-04-21T15:23:08.663Z</time></trkpt><trkpt lat="44.495905" lon="9.244875"><ele>1098.8</ele><time>2026-04-21T15:23:09.663Z</time></trkpt><trkpt lat="44.4959917" lon="9.2447933"><ele>1099.0</ele><time>2026-04-21T15:23:10.662Z</time></trkpt><trkpt lat="44.49608" lon="9.244685"><ele>1099.0</ele><time>2026-04-21T15:23:11.662Z</time></trkpt><trkpt lat="44.496165" lon="9.2445633"><ele>1099.0</ele><time>2026-04-21T15:23:12.662Z</time></trkpt><trkpt lat="44.496245" lon="9.2444483"><ele>1099.0</ele><time>2026-04-21T15:23:13.662Z</time></trkpt><trkpt lat="44.4963383" lon="9.244345"><ele>1099.0</ele><time>2026-04-21T15:23:14.662Z</time></trkpt><trkpt lat="44.4964317" lon="9.2442867"><ele>1093.25</ele><time>2026-04-21T15:23:15.662Z</time></trkpt><trkpt lat="44.4965417" lon="9.2442383"><ele>1087.5</ele><time>2026-04-21T15:23:16.662Z</time></trkpt><trkpt lat="44.496655" lon="9.2441867"><ele>1081.75</ele><time>2026-04-21T15:23:17.663Z</time></trkpt><trkpt lat="44.4967667" lon="9.2441283"><ele>1076.0</ele><time>2026-04-21T15:23:18.662Z</time></trkpt><trkpt lat="44.4968683" lon="9.2440533"><ele>1076.0</ele><time>2026-04-21T15:23:19.662Z</time></trkpt><trkpt lat="44.4969633" lon="9.2439683"><ele>1076.0</ele><time>2026-04-21T15:23:20.662Z</time></trkpt><trkpt lat="44.4970517" lon="9.2438817"><ele>1076.0</ele><time>2026-04-21T15:23:21.662Z</time></trkpt><trkpt lat="44.4971333" lon="9.2437883"><ele>1076.0</ele><time>2026-04-21T15:23:22.663Z</time></trkpt><trkpt lat="44.497205" lon="9.2436967"><ele>1076.0</ele><time>2026-04-21T15:23:23.662Z</time></trkpt><trkpt lat="44.49727" lon="9.2436183"><ele>1072.6</ele><time>2026-04-21T15:23:24.663Z</time></trkpt><trkpt lat="44.4973333" lon="9.243545"><ele>1069.1999999999998</ele><time>2026-04-21T15:23:25.662Z</time></trkpt><trkpt lat="44.497425" lon="9.2434817"><ele>1065.8000000000002</ele><time>2026-04-21T15:23:26.662Z</time></trkpt><trkpt lat="44.49753" lon="9.243435"><ele>1062.4</ele><time>2026-04-21T15:23:27.663Z</time></trkpt><trkpt lat="44.4976433" lon="9.24337"><ele>1059.0</ele><time>2026-04-21T15:23:28.663Z</time></trkpt><trkpt lat="44.4977567" lon="9.2432917"><ele>1059.0</ele><time>2026-04-21T15:23:29.663Z</time></trkpt><trkpt lat="44.497845" lon="9.243195"><ele>1059.0</ele><time>2026-04-21T15:23:30.663Z</time></trkpt><trkpt lat="44.49791" lon="9.2431067"><ele>1059.0</ele><time>2026-04-21T15:23:31.663Z</time></trkpt><trkpt lat="44.4979617" lon="9.2430283"><ele>1059.0</ele><time>2026-04-21T15:23:32.662Z</time></trkpt><trkpt lat="44.4980117" lon="9.242965"><ele>1059.0</ele><time>2026-04-21T15:23:33.663Z</time></trkpt><trkpt lat="44.49808" lon="9.2429217"><ele>1059.0</ele><time>2026-04-21T15:23:34.662Z</time></trkpt><trkpt lat="44.4981767" lon="9.2429083"><ele>1054.2</ele><time>2026-04-21T15:23:35.663Z</time></trkpt><trkpt lat="44.4982817" lon="9.24293"><ele>1049.4</ele><time>2026-04-21T15:23:36.662Z</time></trkpt><trkpt lat="44.4983883" lon="9.242925"><ele>1044.6</ele><time>2026-04-21T15:23:37.662Z</time></trkpt><trkpt lat="44.4985" lon="9.2429017"><ele>1039.8</ele><time>2026-04-21T15:23:38.662Z</time></trkpt><trkpt lat="44.49861" lon="9.2428583"><ele>1035.0</ele><time>2026-04-21T15:23:39.663Z</time></trkpt><trkpt lat="44.4987183" lon="9.2427933"><ele>1038.75</ele><time>2026-04-21T15:23:40.662Z</time></trkpt><trkpt lat="44.49882" lon="9.2427017"><ele>1042.5</ele><time>2026-04-21T15:23:41.662Z</time></trkpt><trkpt lat="44.4989217" lon="9.2426117"><ele>1046.25</ele><time>2026-04-21T15:23:42.662Z</time></trkpt><trkpt lat="44.499015" lon="9.2425267"><ele>1050.0</ele><time>2026-04-21T15:23:43.662Z</time></trkpt><trkpt lat="44.4991067" lon="9.2424333"><ele>1050.0</ele><time>2026-04-21T15:23:44.662Z</time></trkpt><trkpt lat="44.49919" lon="9.2423167"><ele>1050.0</ele><time>2026-04-21T15:23:45.663Z</time></trkpt><trkpt lat="44.4992617" lon="9.2421933"><ele>1050.0</ele><time>2026-04-21T15:23:46.663Z</time></trkpt><trkpt lat="44.49934" lon="9.2420817"><ele>1050.0</ele><time>2026-04-21T15:23:47.662Z</time></trkpt><trkpt lat="44.4994367" lon="9.2419917"><ele>1045.2</ele><time>2026-04-21T15:23:48.663Z</time></trkpt><trkpt lat="44.49952" lon="9.2419167"><ele>1040.4</ele><time>2026-04-21T15:23:49.663Z</time></trkpt><trkpt lat="44.499605" lon="9.2418533"><ele>1035.6</ele><time>2026-04-21T15:23:50.662Z</time></trkpt><trkpt lat="44.49971" lon="9.241825"><ele>1030.8</ele><time>2026-04-21T15:23:51.663Z</time></trkpt><trkpt lat="44.4998433" lon="9.2418167"><ele>1026.0</ele><time>2026-04-21T15:23:52.663Z</time></trkpt><trkpt lat="44.4999933" lon="9.2418217"><ele>1026.0</ele><time>2026-04-21T15:23:53.663Z</time></trkpt><trkpt lat="44.5001583" lon="9.2418017"><ele>1026.0</ele><time>2026-04-21T15:23:54.662Z</time></trkpt><trkpt lat="44.5003067" lon="9.24177"><ele>1026.0</ele><time>2026-04-21T15:23:55.663Z</time></trkpt><trkpt lat="44.50045" lon="9.2417167"><ele>1023.6666666666667</ele><time>2026-04-21T15:23:56.662Z</time></trkpt><trkpt lat="44.5005883" lon="9.2416517"><ele>1021.3333333333334</ele><time>2026-04-21T15:23:57.662Z</time></trkpt><trkpt lat="44.5007233" lon="9.2415533"><ele>1019.0</ele><time>2026-04-21T15:23:58.662Z</time></trkpt><trkpt lat="44.5008517" lon="9.2414217"><ele>1014.6666666666667</ele><time>2026-04-21T15:23:59.662Z</time></trkpt><trkpt lat="44.5009733" lon="9.2412767"><ele>1010.3333333333333</ele><time>2026-04-21T15:24:00.663Z</time></trkpt><trkpt lat="44.5010917" lon="9.2411283"><ele>1006.0</ele><time>2026-04-21T15:24:01.663Z</time></trkpt><trkpt lat="44.5012117" lon="9.240985"><ele>1008.0</ele><time>2026-04-21T15:24:02.662Z</time></trkpt><trkpt lat="44.5013083" lon="9.2408567"><ele>1010.0</ele><time>2026-04-21T15:24:03.663Z</time></trkpt><trkpt lat="44.5013783" lon="9.2407117"><ele>1012.0</ele><time>2026-04-21T15:24:04.662Z</time></trkpt><trkpt lat="44.50144" lon="9.240555"><ele>1014.0</ele><time>2026-04-21T15:24:05.662Z</time></trkpt><trkpt lat="44.5014883" lon="9.2403867"><ele>1014.0</ele><time>2026-04-21T15:24:06.662Z</time></trkpt><trkpt lat="44.5015217" lon="9.2402233"><ele>1014.0</ele><time>2026-04-21T15:24:07.662Z</time></trkpt><trkpt lat="44.5015517" lon="9.2400867"><ele>1014.0</ele><time>2026-04-21T15:24:08.663Z</time></trkpt><trkpt lat="44.50159" lon="9.2399867"><ele>1014.0</ele><time>2026-04-21T15:24:09.662Z</time></trkpt><trkpt lat="44.5016417" lon="9.2399283"><ele>1014.0</ele><time>2026-04-21T15:24:10.662Z</time></trkpt><trkpt lat="44.5017083" lon="9.2399117"><ele>1014.0</ele><time>2026-04-21T15:24:11.662Z</time></trkpt><trkpt lat="44.50179" lon="9.2399133"><ele>1014.0</ele><time>2026-04-21T15:24:12.662Z</time></trkpt><trkpt lat="44.5018967" lon="9.23996"><ele>1014.0</ele><time>2026-04-21T15:24:13.662Z</time></trkpt><trkpt lat="44.5020083" lon="9.2399933"><ele>1014.0</ele><time>2026-04-21T15:24:14.663Z</time></trkpt><trkpt lat="44.5021533" lon="9.2400233"><ele>1014.0</ele><time>2026-04-21T15:24:15.663Z</time></trkpt><trkpt lat="44.50228" lon="9.2400133"><ele>1016.0</ele><time>2026-04-21T15:24:16.662Z</time></trkpt><trkpt lat="44.5024117" lon="9.2399833"><ele>1018.0</ele><time>2026-04-21T15:24:17.663Z</time></trkpt><trkpt lat="44.5025183" lon="9.2399367"><ele>1020.0</ele><time>2026-04-21T15:24:18.663Z</time></trkpt><trkpt lat="44.5026167" lon="9.239875"><ele>1022.0</ele><time>2026-04-21T15:24:19.663Z</time></trkpt><trkpt lat="44.5027217" lon="9.23979"><ele>1020.8</ele><time>2026-04-21T15:24:20.662Z</time></trkpt><trkpt lat="44.5028" lon="9.2397233"><ele>1019.6</ele><time>2026-04-21T15:24:21.663Z</time></trkpt><trkpt lat="44.5028733" lon="9.239695"><ele>1018.3999999999999</ele><time>2026-04-21T15:24:22.662Z</time></trkpt><trkpt lat="44.5029517" lon="9.2397033"><ele>1017.1999999999999</ele><time>2026-04-21T15:24:23.662Z</time></trkpt><trkpt lat="44.5030383" lon="9.23977"><ele>1016.0</ele><time>2026-04-21T15:24:24.662Z</time></trkpt><trkpt lat="44.5031333" lon="9.2398717"><ele>1016.0</ele><time>2026-04-21T15:24:25.663Z</time></trkpt><trkpt lat="44.5032417" lon="9.2399583"><ele>1016.0</ele><time>2026-04-21T15:24:26.663Z</time></trkpt><trkpt lat="44.503365" lon="9.2400167"><ele>1016.0</ele><time>2026-04-21T15:24:27.663Z</time></trkpt><trkpt lat="44.5035017" lon="9.2400583"><ele>1016.0</ele><time>2026-04-21T15:24:28.663Z</time></trkpt><trkpt lat="44.50365" lon="9.24009"><ele>1014.75</ele><time>2026-04-21T15:24:29.662Z</time></trkpt><trkpt lat="44.5037833" lon="9.2400967"><ele>1013.5</ele><time>2026-04-21T15:24:30.662Z</time></trkpt><trkpt lat="44.5039133" lon="9.24009"><ele>1012.25</ele><time>2026-04-21T15:24:31.663Z</time></trkpt><trkpt lat="44.5040467" lon="9.24006"><ele>1011.0</ele><time>2026-04-21T15:24:32.663Z</time></trkpt><trkpt lat="44.5041817" lon="9.2400083"><ele>1011.0</ele><time>2026-04-21T15:24:33.662Z</time></trkpt><trkpt lat="44.5043133" lon="9.2399333"><ele>1011.0</ele><time>2026-04-21T15:24:34.662Z</time></trkpt><trkpt lat="44.5044317" lon="9.2398783"><ele>1011.0</ele><time>2026-04-21T15:24:35.662Z</time></trkpt><trkpt lat="44.5045483" lon="9.23982"><ele>1011.0</ele><time>2026-04-21T15:24:36.662Z</time></trkpt><trkpt lat="44.5046667" lon="9.2397467"><ele>1008.25</ele><time>2026-04-21T15:24:37.662Z</time></trkpt><trkpt lat="44.5047633" lon="9.23964"><ele>1005.5</ele><time>2026-04-21T15:24:38.662Z</time></trkpt><trkpt lat="44.5048483" lon="9.2395033"><ele>1002.75</ele><time>2026-04-21T15:24:39.662Z</time></trkpt><trkpt lat="44.5049583" lon="9.2393783"><ele>1000.0</ele><time>2026-04-21T15:24:40.663Z</time></trkpt><trkpt lat="44.5050783" lon="9.2392517"><ele>1000.0</ele><time>2026-04-21T15:24:41.662Z</time></trkpt><trkpt lat="44.5051933" lon="9.2391267"><ele>1000.0</ele><time>2026-04-21T15:24:42.662Z</time></trkpt><trkpt lat="44.5053017" lon="9.239"><ele>1000.0</ele><time>2026-04-21T15:24:43.663Z</time></trkpt><trkpt lat="44.5054167" lon="9.2388767"><ele>1000.0</ele><time>2026-04-21T15:24:44.663Z</time></trkpt><trkpt lat="44.50549" lon="9.23874"><ele>999.8</ele><time>2026-04-21T15:24:45.663Z</time></trkpt><trkpt lat="44.5055517" lon="9.2385933"><ele>999.6</ele><time>2026-04-21T15:24:46.663Z</time></trkpt><trkpt lat="44.5056083" lon="9.2384433"><ele>999.4000000000001</ele><time>2026-04-21T15:24:47.662Z</time></trkpt><trkpt lat="44.50566" lon="9.2383333"><ele>999.2</ele><time>2026-04-21T15:24:48.662Z</time></trkpt><trkpt lat="44.5057167" lon="9.23825"><ele>999.0</ele><time>2026-04-21T15:24:49.663Z</time></trkpt><trkpt lat="44.5057967" lon="9.238205"><ele>999.0</ele><time>2026-04-21T15:24:50.663Z</time></trkpt><trkpt lat="44.5059" lon="9.2381867"><ele>999.0</ele><time>2026-04-21T15:24:51.662Z</time></trkpt><trkpt lat="44.5060233" lon="9.2381517"><ele>999.0</ele><time>2026-04-21T15:24:52.662Z</time></trkpt><trkpt lat="44.5061617" lon="9.2381017"><ele>999.0</ele><time>2026-04-21T15:24:53.662Z</time></trkpt><trkpt lat="44.50631" lon="9.2380567"><ele>994.25</ele><time>2026-04-21T15:24:54.663Z</time></trkpt><trkpt lat="44.5064517" lon="9.2380167"><ele>989.5</ele><time>2026-04-21T15:24:55.662Z</time></trkpt><trkpt lat="44.506585" lon="9.23798"><ele>984.75</ele><time>2026-04-21T15:24:56.662Z</time></trkpt><trkpt lat="44.5067183" lon="9.23794"><ele>980.0</ele><time>2026-04-21T15:24:57.663Z</time></trkpt><trkpt lat="44.5068417" lon="9.237885"><ele>980.0</ele><time>2026-04-21T15:24:58.663Z</time></trkpt><trkpt lat="44.5069517" lon="9.2378033"><ele>980.0</ele><time>2026-04-21T15:24:59.662Z</time></trkpt><trkpt lat="44.5070583" lon="9.2377267"><ele>980.0</ele><time>2026-04-21T15:25:00.663Z</time></trkpt><trkpt lat="44.5071617" lon="9.2376333"><ele>980.0</ele><time>2026-04-21T15:25:01.662Z</time></trkpt><trkpt lat="44.507255" lon="9.2375417"><ele>978.75</ele><time>2026-04-21T15:25:02.662Z</time></trkpt><trkpt lat="44.5073417" lon="9.237425"><ele>977.5</ele><time>2026-04-21T15:25:03.662Z</time></trkpt><trkpt lat="44.5074117" lon="9.237285"><ele>976.25</ele><time>2026-04-21T15:25:04.662Z</time></trkpt><trkpt lat="44.50748" lon="9.23714"><ele>975.0</ele><time>2026-04-21T15:25:05.663Z</time></trkpt><trkpt lat="44.5075417" lon="9.2369967"><ele>975.0</ele><time>2026-04-21T15:25:06.662Z</time></trkpt><trkpt lat="44.507595" lon="9.236855"><ele>975.0</ele><time>2026-04-21T15:25:07.663Z</time></trkpt><trkpt lat="44.5076517" lon="9.236725"><ele>975.0</ele><time>2026-04-21T15:25:08.663Z</time></trkpt><trkpt lat="44.50772" lon="9.2366183"><ele>975.0</ele><time>2026-04-21T15:25:09.662Z</time></trkpt><trkpt lat="44.507795" lon="9.2365167"><ele>975.0</ele><time>2026-04-21T15:25:10.663Z</time></trkpt><trkpt lat="44.5078883" lon="9.2364417"><ele>970.75</ele><time>2026-04-21T15:25:11.662Z</time></trkpt><trkpt lat="44.5079983" lon="9.236385"><ele>966.5</ele><time>2026-04-21T15:25:12.662Z</time></trkpt><trkpt lat="44.508105" lon="9.2363133"><ele>962.25</ele><time>2026-04-21T15:25:13.662Z</time></trkpt><trkpt lat="44.5082067" lon="9.2362433"><ele>958.0</ele><time>2026-04-21T15:25:14.663Z</time></trkpt><trkpt lat="44.5082983" lon="9.2361617"><ele>958.0</ele><time>2026-04-21T15:25:15.663Z</time></trkpt><trkpt lat="44.5083733" lon="9.236095"><ele>958.0</ele><time>2026-04-21T15:25:16.663Z</time></trkpt><trkpt lat="44.508485" lon="9.2360617"><ele>958.0</ele><time>2026-04-21T15:25:18.662Z</time></trkpt><trkpt lat="44.5085433" lon="9.2361767"><ele>958.0</ele><time>2026-04-21T15:25:20.663Z</time></trkpt><trkpt lat="44.5085583" lon="9.2362633"><ele>958.0</ele><time>2026-04-21T15:25:21.662Z</time></trkpt><trkpt lat="44.5085667" lon="9.2363983"><ele>958.25</ele><time>2026-04-21T15:25:22.662Z</time></trkpt><trkpt lat="44.5085817" lon="9.2365583"><ele>958.5</ele><time>2026-04-21T15:25:23.662Z</time></trkpt><trkpt lat="44.5086167" lon="9.2367183"><ele>958.75</ele><time>2026-04-21T15:25:24.662Z</time></trkpt><trkpt lat="44.508675" lon="9.2368667"><ele>959.0</ele><time>2026-04-21T15:25:25.663Z</time></trkpt><trkpt lat="44.5087467" lon="9.2369667"><ele>959.0</ele><time>2026-04-21T15:25:26.662Z</time></trkpt><trkpt lat="44.5088467" lon="9.2370383"><ele>959.0</ele><time>2026-04-21T15:25:27.663Z</time></trkpt><trkpt lat="44.5089633" lon="9.2371017"><ele>959.0</ele><time>2026-04-21T15:25:28.662Z</time></trkpt><trkpt lat="44.50909" lon="9.2371683"><ele>959.0</ele><time>2026-04-21T15:25:29.662Z</time></trkpt><trkpt lat="44.5092283" lon="9.2372367"><ele>959.0</ele><time>2026-04-21T15:25:30.662Z</time></trkpt><trkpt lat="44.50936" lon="9.2373017"><ele>959.0</ele><time>2026-04-21T15:25:31.663Z</time></trkpt><trkpt lat="44.5094867" lon="9.2373767"><ele>959.0</ele><time>2026-04-21T15:25:32.663Z</time></trkpt><trkpt lat="44.5096" lon="9.237455"><ele>959.0</ele><time>2026-04-21T15:25:33.663Z</time></trkpt><trkpt lat="44.5097183" lon="9.2375283"><ele>958.25</ele><time>2026-04-21T15:25:34.662Z</time></trkpt><trkpt lat="44.5098417" lon="9.2375733"><ele>957.5</ele><time>2026-04-21T15:25:35.663Z</time></trkpt><trkpt lat="44.5099683" lon="9.2376"><ele>956.75</ele><time>2026-04-21T15:25:36.663Z</time></trkpt><trkpt lat="44.5100967" lon="9.23762"><ele>956.0</ele><time>2026-04-21T15:25:37.663Z</time></trkpt><trkpt lat="44.51022" lon="9.2376517"><ele>956.0</ele><time>2026-04-21T15:25:38.663Z</time></trkpt><trkpt lat="44.5103433" lon="9.23769"><ele>956.0</ele><time>2026-04-21T15:25:39.662Z</time></trkpt><trkpt lat="44.510465" lon="9.237725"><ele>956.0</ele><time>2026-04-21T15:25:40.663Z</time></trkpt><trkpt lat="44.5105883" lon="9.2377433"><ele>956.0</ele><time>2026-04-21T15:25:41.662Z</time></trkpt><trkpt lat="44.510705" lon="9.2377733"><ele>955.1999999999999</ele><time>2026-04-21T15:25:42.662Z</time></trkpt><trkpt lat="44.5108067" lon="9.2378183"><ele>954.3999999999999</ele><time>2026-04-21T15:25:43.662Z</time></trkpt><trkpt lat="44.5108967" lon="9.237885"><ele>953.6</ele><time>2026-04-21T15:25:44.662Z</time></trkpt><trkpt lat="44.5109733" lon="9.237965"><ele>952.8</ele><time>2026-04-21T15:25:45.663Z</time></trkpt><trkpt lat="44.5110317" lon="9.2380483"><ele>952.0</ele><time>2026-04-21T15:25:46.663Z</time></trkpt><trkpt lat="44.5110883" lon="9.23811"><ele>948.5</ele><time>2026-04-21T15:25:47.663Z</time></trkpt><trkpt lat="44.5111917" lon="9.2381467"><ele>945.0</ele><time>2026-04-21T15:25:49.662Z</time></trkpt><trkpt lat="44.5112767" lon="9.2380867"><ele>941.5</ele><time>2026-04-21T15:25:50.662Z</time></trkpt><trkpt lat="44.5113767" lon="9.2380017"><ele>938.0</ele><time>2026-04-21T15:25:51.662Z</time></trkpt><trkpt lat="44.511525" lon="9.2379033"><ele>938.0</ele><time>2026-04-21T15:25:52.662Z</time></trkpt><trkpt lat="44.51168" lon="9.237835"><ele>938.0</ele><time>2026-04-21T15:25:53.663Z</time></trkpt><trkpt lat="44.5118533" lon="9.2377983"><ele>938.0</ele><time>2026-04-21T15:25:54.662Z</time></trkpt><trkpt lat="44.512015" lon="9.237785"><ele>932.75</ele><time>2026-04-21T15:25:55.662Z</time></trkpt><trkpt lat="44.51216" lon="9.2378"><ele>927.5</ele><time>2026-04-21T15:25:56.663Z</time></trkpt><trkpt lat="44.5123017" lon="9.2378133"><ele>922.25</ele><time>2026-04-21T15:25:57.662Z</time></trkpt><trkpt lat="44.5124367" lon="9.2378433"><ele>917.0</ele><time>2026-04-21T15:25:58.663Z</time></trkpt><trkpt lat="44.512555" lon="9.237855"><ele>917.0</ele><time>2026-04-21T15:25:59.663Z</time></trkpt><trkpt lat="44.51267" lon="9.2378583"><ele>917.0</ele><time>2026-04-21T15:26:00.663Z</time></trkpt><trkpt lat="44.5127867" lon="9.2378283"><ele>917.0</ele><time>2026-04-21T15:26:01.663Z</time></trkpt><trkpt lat="44.5129117" lon="9.2377783"><ele>917.0</ele><time>2026-04-21T15:26:02.663Z</time></trkpt><trkpt lat="44.5130417" lon="9.2377133"><ele>916.5</ele><time>2026-04-21T15:26:03.663Z</time></trkpt><trkpt lat="44.51317" lon="9.2376367"><ele>916.0</ele><time>2026-04-21T15:26:04.662Z</time></trkpt><trkpt lat="44.5133033" lon="9.23757"><ele>915.5</ele><time>2026-04-21T15:26:05.662Z</time></trkpt><trkpt lat="44.5134517" lon="9.237515"><ele>915.0</ele><time>2026-04-21T15:26:06.663Z</time></trkpt><trkpt lat="44.5136017" lon="9.2374683"><ele>914.75</ele><time>2026-04-21T15:26:07.662Z</time></trkpt><trkpt lat="44.5137433" lon="9.237415"><ele>914.5</ele><time>2026-04-21T15:26:08.663Z</time></trkpt><trkpt lat="44.5138917" lon="9.2373767"><ele>914.25</ele><time>2026-04-21T15:26:09.663Z</time></trkpt><trkpt lat="44.5140333" lon="9.2373417"><ele>914.0</ele><time>2026-04-21T15:26:10.662Z</time></trkpt><trkpt lat="44.5141433" lon="9.2373083"><ele>914.0</ele><time>2026-04-21T15:26:11.662Z</time></trkpt><trkpt lat="44.5142233" lon="9.2372717"><ele>914.0000000000001</ele><time>2026-04-21T15:26:12.662Z</time></trkpt><trkpt lat="44.5143467" lon="9.2373133"><ele>914.0000000000001</ele><time>2026-04-21T15:26:14.662Z</time></trkpt><trkpt lat="44.5144183" lon="9.2374183"><ele>914.0</ele><time>2026-04-21T15:26:15.663Z</time></trkpt><trkpt lat="44.5145033" lon="9.23756"><ele>914.0</ele><time>2026-04-21T15:26:16.663Z</time></trkpt><trkpt lat="44.5146017" lon="9.237705"><ele>909.25</ele><time>2026-04-21T15:26:17.662Z</time></trkpt><trkpt lat="44.5146983" lon="9.2378367"><ele>904.5</ele><time>2026-04-21T15:26:18.663Z</time></trkpt><trkpt lat="44.514795" lon="9.2379467"><ele>899.75</ele><time>2026-04-21T15:26:19.662Z</time></trkpt><trkpt lat="44.5149017" lon="9.2380233"><ele>895.0</ele><time>2026-04-21T15:26:20.663Z</time></trkpt><trkpt lat="44.5150067" lon="9.238055"><ele>894.9999999999999</ele><time>2026-04-21T15:26:21.663Z</time></trkpt><trkpt lat="44.5151017" lon="9.238065"><ele>895.0</ele><time>2026-04-21T15:26:22.663Z</time></trkpt><trkpt lat="44.5151767" lon="9.2380833"><ele>895.0</ele><time>2026-04-21T15:26:23.662Z</time></trkpt><trkpt lat="44.51525" lon="9.2381383"><ele>895.0</ele><time>2026-04-21T15:26:24.662Z</time></trkpt><trkpt lat="44.5153117" lon="9.23822"><ele>894.9999999999999</ele><time>2026-04-21T15:26:25.663Z</time></trkpt><trkpt lat="44.51537" lon="9.2383367"><ele>895.0</ele><time>2026-04-21T15:26:26.663Z</time></trkpt><trkpt lat="44.51545" lon="9.238485"><ele>896.5</ele><time>2026-04-21T15:26:27.663Z</time></trkpt><trkpt lat="44.5155467" lon="9.2386183"><ele>898.0</ele><time>2026-04-21T15:26:28.662Z</time></trkpt><trkpt lat="44.5156617" lon="9.2387333"><ele>899.5</ele><time>2026-04-21T15:26:29.663Z</time></trkpt><trkpt lat="44.5157533" lon="9.23884"><ele>901.0</ele><time>2026-04-21T15:26:30.663Z</time></trkpt><trkpt lat="44.5158683" lon="9.2389283"><ele>899.25</ele><time>2026-04-21T15:26:31.663Z</time></trkpt><trkpt lat="44.5160033" lon="9.2390017"><ele>897.5</ele><time>2026-04-21T15:26:32.662Z</time></trkpt><trkpt lat="44.5161217" lon="9.2390533"><ele>895.75</ele><time>2026-04-21T15:26:33.662Z</time></trkpt><trkpt lat="44.5162383" lon="9.239095"><ele>894.0</ele><time>2026-04-21T15:26:34.662Z</time></trkpt><trkpt lat="44.5163483" lon="9.23914"><ele>894.0</ele><time>2026-04-21T15:26:35.662Z</time></trkpt><trkpt lat="44.5164517" lon="9.239185"><ele>894.0000000000001</ele><time>2026-04-21T15:26:36.662Z</time></trkpt><trkpt lat="44.516555" lon="9.2392083"><ele>894.0000000000001</ele><time>2026-04-21T15:26:37.662Z</time></trkpt><trkpt lat="44.51666" lon="9.239215"><ele>894.0</ele><time>2026-04-21T15:26:38.663Z</time></trkpt><trkpt lat="44.5167817" lon="9.239245"><ele>894.0</ele><time>2026-04-21T15:26:39.662Z</time></trkpt><trkpt lat="44.5168933" lon="9.2392933"><ele>894.0</ele><time>2026-04-21T15:26:40.662Z</time></trkpt><trkpt lat="44.51701" lon="9.2393833"><ele>894.0</ele><time>2026-04-21T15:26:41.662Z</time></trkpt><trkpt lat="44.5171333" lon="9.2395067"><ele>894.0</ele><time>2026-04-21T15:26:42.663Z</time></trkpt><trkpt lat="44.5172633" lon="9.2396233"><ele>894.0</ele><time>2026-04-21T15:26:43.662Z</time></trkpt><trkpt lat="44.51737" lon="9.23974"><ele>890.0</ele><time>2026-04-21T15:26:44.663Z</time></trkpt><trkpt lat="44.5174517" lon="9.2398933"><ele>886.0</ele><time>2026-04-21T15:26:45.662Z</time></trkpt><trkpt lat="44.5175317" lon="9.2400533"><ele>882.0</ele><time>2026-04-21T15:26:46.663Z</time></trkpt><trkpt lat="44.5176033" lon="9.24023"><ele>878.0</ele><time>2026-04-21T15:26:47.663Z</time></trkpt><trkpt lat="44.5176683" lon="9.2403833"><ele>878.0000000000001</ele><time>2026-04-21T15:26:48.662Z</time></trkpt><trkpt lat="44.5177217" lon="9.2405033"><ele>878.0</ele><time>2026-04-21T15:26:49.662Z</time></trkpt><trkpt lat="44.51777" lon="9.2405867"><ele>878.0</ele><time>2026-04-21T15:26:50.662Z</time></trkpt><trkpt lat="44.51782" lon="9.2406417"><ele>878.0</ele><time>2026-04-21T15:26:51.662Z</time></trkpt><trkpt lat="44.51791" lon="9.2406167"><ele>878.0000000000001</ele><time>2026-04-21T15:26:53.662Z</time></trkpt><trkpt lat="44.5179633" lon="9.2405433"><ele>878.0</ele><time>2026-04-21T15:26:54.663Z</time></trkpt><trkpt lat="44.518025" lon="9.2404483"><ele>877.0</ele><time>2026-04-21T15:26:55.663Z</time></trkpt><trkpt lat="44.5181167" lon="9.240305"><ele>876.0</ele><time>2026-04-21T15:26:56.663Z</time></trkpt><trkpt lat="44.51822" lon="9.2401433"><ele>875.0</ele><time>2026-04-21T15:26:57.663Z</time></trkpt><trkpt lat="44.5182933" lon="9.2400267"><ele>874.0</ele><time>2026-04-21T15:26:58.662Z</time></trkpt><trkpt lat="44.5183617" lon="9.23993"><ele>874.0</ele><time>2026-04-21T15:26:59.662Z</time></trkpt><trkpt lat="44.518415" lon="9.2398533"><ele>874.0000000000001</ele><time>2026-04-21T15:27:00.662Z</time></trkpt><trkpt lat="44.5184817" lon="9.2398017"><ele>874.0000000000001</ele><time>2026-04-21T15:27:01.662Z</time></trkpt><trkpt lat="44.518575" lon="9.2398217"><ele>874.0</ele><time>2026-04-21T15:27:02.663Z</time></trkpt><trkpt lat="44.518685" lon="9.23987"><ele>874.0</ele><time>2026-04-21T15:27:03.663Z</time></trkpt><trkpt lat="44.5188567" lon="9.240025"><ele>872.0</ele><time>2026-04-21T15:27:04.662Z</time></trkpt><trkpt lat="44.5190017" lon="9.24014"><ele>870.0</ele><time>2026-04-21T15:27:05.662Z</time></trkpt><trkpt lat="44.5191567" lon="9.2402517"><ele>868.0</ele><time>2026-04-21T15:27:06.663Z</time></trkpt><trkpt lat="44.519305" lon="9.2403383"><ele>868.0</ele><time>2026-04-21T15:27:07.662Z</time></trkpt><trkpt lat="44.5194533" lon="9.2404183"><ele>868.0</ele><time>2026-04-21T15:27:08.663Z</time></trkpt><trkpt lat="44.51957" lon="9.2404817"><ele>868.0</ele><time>2026-04-21T15:27:09.662Z</time></trkpt><trkpt lat="44.5196883" lon="9.24056"><ele>868.0</ele><time>2026-04-21T15:27:10.662Z</time></trkpt><trkpt lat="44.5197867" lon="9.24067"><ele>865.0</ele><time>2026-04-21T15:27:11.663Z</time></trkpt><trkpt lat="44.51987" lon="9.2407933"><ele>862.0</ele><time>2026-04-21T15:27:12.662Z</time></trkpt><trkpt lat="44.51995" lon="9.2409217"><ele>859.0</ele><time>2026-04-21T15:27:13.663Z</time></trkpt><trkpt lat="44.5200367" lon="9.241065"><ele>856.0</ele><time>2026-04-21T15:27:14.663Z</time></trkpt><trkpt lat="44.520125" lon="9.2411867"><ele>856.0</ele><time>2026-04-21T15:27:15.663Z</time></trkpt><trkpt lat="44.520215" lon="9.2412833"><ele>856.0</ele><time>2026-04-21T15:27:16.662Z</time></trkpt><trkpt lat="44.520315" lon="9.24135"><ele>856.0</ele><time>2026-04-21T15:27:17.662Z</time></trkpt><trkpt lat="44.5204367" lon="9.2414"><ele>856.0</ele><time>2026-04-21T15:27:18.663Z</time></trkpt><trkpt lat="44.5205683" lon="9.2414517"><ele>852.5</ele><time>2026-04-21T15:27:19.663Z</time></trkpt><trkpt lat="44.5206867" lon="9.2415183"><ele>849.0</ele><time>2026-04-21T15:27:20.663Z</time></trkpt><trkpt lat="44.5208033" lon="9.24159"><ele>845.5</ele><time>2026-04-21T15:27:21.662Z</time></trkpt><trkpt lat="44.5209133" lon="9.241655"><ele>842.0</ele><time>2026-04-21T15:27:22.662Z</time></trkpt><trkpt lat="44.521025" lon="9.2416917"><ele>842.0</ele><time>2026-04-21T15:27:23.662Z</time></trkpt><trkpt lat="44.5211483" lon="9.24172"><ele>842.0</ele><time>2026-04-21T15:27:24.662Z</time></trkpt><trkpt lat="44.52127" lon="9.2417417"><ele>842.0</ele><time>2026-04-21T15:27:25.662Z</time></trkpt><trkpt lat="44.5213867" lon="9.2417717"><ele>842.0</ele><time>2026-04-21T15:27:26.663Z</time></trkpt><trkpt lat="44.5214983" lon="9.2418233"><ele>841.75</ele><time>2026-04-21T15:27:27.662Z</time></trkpt><trkpt lat="44.521595" lon="9.241905"><ele>841.5</ele><time>2026-04-21T15:27:28.663Z</time></trkpt><trkpt lat="44.521685" lon="9.2420183"><ele>841.25</ele><time>2026-04-21T15:27:29.663Z</time></trkpt><trkpt lat="44.521765" lon="9.24214"><ele>841.0</ele><time>2026-04-21T15:27:30.663Z</time></trkpt><trkpt lat="44.521845" lon="9.242235"><ele>840.9999999999999</ele><time>2026-04-21T15:27:31.663Z</time></trkpt><trkpt lat="44.5219183" lon="9.24229"><ele>841.0</ele><time>2026-04-21T15:27:32.662Z</time></trkpt><trkpt lat="44.5219833" lon="9.24232"><ele>841.0</ele><time>2026-04-21T15:27:33.663Z</time></trkpt><trkpt lat="44.522075" lon="9.24232"><ele>841.0</ele><time>2026-04-21T15:27:35.663Z</time></trkpt><trkpt lat="44.5220767" lon="9.24243"><ele>840.9999999999999</ele><time>2026-04-21T15:27:38.662Z</time></trkpt><trkpt lat="44.5219783" lon="9.2424783"><ele>841.0</ele><time>2026-04-21T15:27:40.664Z</time></trkpt><trkpt lat="44.5218867" lon="9.2424483"><ele>841.0</ele><time>2026-04-21T15:27:41.663Z</time></trkpt><trkpt lat="44.521765" lon="9.242365"><ele>841.0</ele><time>2026-04-21T15:27:42.664Z</time></trkpt><trkpt lat="44.5216367" lon="9.2422633"><ele>841.0</ele><time>2026-04-21T15:27:43.664Z</time></trkpt><trkpt lat="44.5215317" lon="9.24217"><ele>841.0</ele><time>2026-04-21T15:27:44.664Z</time></trkpt><trkpt lat="44.5214367" lon="9.24212"><ele>841.0</ele><time>2026-04-21T15:27:45.664Z</time></trkpt><trkpt lat="44.5213417" lon="9.2421167"><ele>841.0</ele><time>2026-04-21T15:27:46.664Z</time></trkpt><trkpt lat="44.5212317" lon="9.2421517"><ele>841.0</ele><time>2026-04-21T15:27:47.663Z</time></trkpt><trkpt lat="44.5211017" lon="9.2422167"><ele>841.0</ele><time>2026-04-21T15:27:48.663Z</time></trkpt><trkpt lat="44.5209783" lon="9.24227"><ele>841.25</ele><time>2026-04-21T15:27:49.664Z</time></trkpt><trkpt lat="44.5208667" lon="9.2422967"><ele>841.5</ele><time>2026-04-21T15:27:50.664Z</time></trkpt><trkpt lat="44.5207567" lon="9.2422867"><ele>841.75</ele><time>2026-04-21T15:27:51.664Z</time></trkpt><trkpt lat="44.5206383" lon="9.2422717"><ele>842.0</ele><time>2026-04-21T15:27:52.663Z</time></trkpt><trkpt lat="44.52052" lon="9.242275"><ele>838.6</ele><time>2026-04-21T15:27:53.664Z</time></trkpt><trkpt lat="44.520405" lon="9.2423067"><ele>835.2</ele><time>2026-04-21T15:27:54.664Z</time></trkpt><trkpt lat="44.5203033" lon="9.24233"><ele>831.8</ele><time>2026-04-21T15:27:55.663Z</time></trkpt><trkpt lat="44.520205" lon="9.2423367"><ele>828.4</ele><time>2026-04-21T15:27:56.663Z</time></trkpt><trkpt lat="44.5201067" lon="9.24231"><ele>825.0</ele><time>2026-04-21T15:27:57.663Z</time></trkpt><trkpt lat="44.52001" lon="9.2422433"><ele>825.0</ele><time>2026-04-21T15:27:58.664Z</time></trkpt><trkpt lat="44.519925" lon="9.24213"><ele>825.0</ele><time>2026-04-21T15:27:59.663Z</time></trkpt><trkpt lat="44.5198417" lon="9.2419983"><ele>825.0</ele><time>2026-04-21T15:28:00.664Z</time></trkpt><trkpt lat="44.51977" lon="9.241875"><ele>825.0</ele><time>2026-04-21T15:28:01.664Z</time></trkpt><trkpt lat="44.5197117" lon="9.2417983"><ele>825.0</ele><time>2026-04-21T15:28:02.664Z</time></trkpt><trkpt lat="44.5195933" lon="9.2417317"><ele>825.0</ele><time>2026-04-21T15:28:04.663Z</time></trkpt><trkpt lat="44.5195283" lon="9.24177"><ele>825.0</ele><time>2026-04-21T15:28:06.664Z</time></trkpt><trkpt lat="44.519585" lon="9.241885"><ele>825.0</ele><time>2026-04-21T15:28:08.664Z</time></trkpt><trkpt lat="44.519645" lon="9.241975"><ele>825.0</ele><time>2026-04-21T15:28:09.664Z</time></trkpt><trkpt lat="44.5197517" lon="9.2420883"><ele>825.0</ele><time>2026-04-21T15:28:10.664Z</time></trkpt><trkpt lat="44.5198517" lon="9.2422133"><ele>818.0</ele><time>2026-04-21T15:28:11.663Z</time></trkpt><trkpt lat="44.51995" lon="9.242335"><ele>811.0</ele><time>2026-04-21T15:28:12.663Z</time></trkpt><trkpt lat="44.52004" lon="9.242435"><ele>804.0</ele><time>2026-04-21T15:28:13.663Z</time></trkpt><trkpt lat="44.520125" lon="9.2425183"><ele>797.0</ele><time>2026-04-21T15:28:14.664Z</time></trkpt><trkpt lat="44.5202067" lon="9.2425833"><ele>790.0</ele><time>2026-04-21T15:28:15.663Z</time></trkpt><trkpt lat="44.5202817" lon="9.2426067"><ele>790.0</ele><time>2026-04-21T15:28:16.664Z</time></trkpt><trkpt lat="44.520365" lon="9.2426083"><ele>790.0</ele><time>2026-04-21T15:28:17.663Z</time></trkpt><trkpt lat="44.5204567" lon="9.2426117"><ele>790.0</ele><time>2026-04-21T15:28:18.664Z</time></trkpt><trkpt lat="44.52056" lon="9.24264"><ele>790.0</ele><time>2026-04-21T15:28:19.663Z</time></trkpt><trkpt lat="44.52064" lon="9.2426833"><ele>790.0</ele><time>2026-04-21T15:28:20.664Z</time></trkpt><trkpt lat="44.5207233" lon="9.2427283"><ele>792.6</ele><time>2026-04-21T15:28:21.663Z</time></trkpt><trkpt lat="44.52081" lon="9.2427667"><ele>795.2</ele><time>2026-04-21T15:28:22.663Z</time></trkpt><trkpt lat="44.5209033" lon="9.2427917"><ele>797.8</ele><time>2026-04-21T15:28:23.664Z</time></trkpt><trkpt lat="44.52101" lon="9.2427833"><ele>800.4</ele><time>2026-04-21T15:28:24.664Z</time></trkpt><trkpt lat="44.52111" lon="9.242775"><ele>803.0</ele><time>2026-04-21T15:28:25.663Z</time></trkpt><trkpt lat="44.5212017" lon="9.2427717"><ele>805.1666666666667</ele><time>2026-04-21T15:28:26.663Z</time></trkpt><trkpt lat="44.521275" lon="9.2427933"><ele>807.3333333333334</ele><time>2026-04-21T15:28:27.663Z</time></trkpt><trkpt lat="44.5213333" lon="9.2428433"><ele>809.5</ele><time>2026-04-21T15:28:28.663Z</time></trkpt><trkpt lat="44.5213933" lon="9.2429333"><ele>811.6666666666667</ele><time>2026-04-21T15:28:29.664Z</time></trkpt><trkpt lat="44.5214617" lon="9.2430283"><ele>813.8333333333334</ele><time>2026-04-21T15:28:30.664Z</time></trkpt><trkpt lat="44.5215367" lon="9.2431133"><ele>816.0</ele><time>2026-04-21T15:28:31.664Z</time></trkpt><trkpt lat="44.5216133" lon="9.2431783"><ele>809.8</ele><time>2026-04-21T15:28:32.663Z</time></trkpt><trkpt lat="44.5217033" lon="9.24322"><ele>803.5999999999999</ele><time>2026-04-21T15:28:33.663Z</time></trkpt><trkpt lat="44.5218117" lon="9.2432567"><ele>797.4</ele><time>2026-04-21T15:28:34.663Z</time></trkpt><trkpt lat="44.521915" lon="9.2433133"><ele>791.2</ele><time>2026-04-21T15:28:35.663Z</time></trkpt><trkpt lat="44.522005" lon="9.24341"><ele>785.0</ele><time>2026-04-21T15:28:36.664Z</time></trkpt><trkpt lat="44.52209" lon="9.2435467"><ele>785.0</ele><time>2026-04-21T15:28:37.663Z</time></trkpt><trkpt lat="44.52216" lon="9.2437017"><ele>785.0</ele><time>2026-04-21T15:28:38.664Z</time></trkpt><trkpt lat="44.52223" lon="9.2438533"><ele>785.0</ele><time>2026-04-21T15:28:39.663Z</time></trkpt><trkpt lat="44.5222933" lon="9.24399"><ele>785.0</ele><time>2026-04-21T15:28:40.663Z</time></trkpt><trkpt lat="44.5223583" lon="9.2441"><ele>785.0</ele><time>2026-04-21T15:28:41.663Z</time></trkpt><trkpt lat="44.5224283" lon="9.244175"><ele>785.0</ele><time>2026-04-21T15:28:42.663Z</time></trkpt><trkpt lat="44.5225433" lon="9.244205"><ele>785.0</ele><time>2026-04-21T15:28:44.663Z</time></trkpt><trkpt lat="44.5226033" lon="9.2441483"><ele>785.0</ele><time>2026-04-21T15:28:45.663Z</time></trkpt><trkpt lat="44.52266" lon="9.2440283"><ele>785.0</ele><time>2026-04-21T15:28:46.663Z</time></trkpt><trkpt lat="44.5227283" lon="9.2438767"><ele>785.0</ele><time>2026-04-21T15:28:47.663Z</time></trkpt><trkpt lat="44.5227967" lon="9.243715"><ele>785.0</ele><time>2026-04-21T15:28:48.664Z</time></trkpt><trkpt lat="44.52287" lon="9.2435717"><ele>785.0</ele><time>2026-04-21T15:28:49.663Z</time></trkpt><trkpt lat="44.5229433" lon="9.2434383"><ele>785.0</ele><time>2026-04-21T15:28:50.663Z</time></trkpt><trkpt lat="44.5230183" lon="9.243285"><ele>777.3333333333334</ele><time>2026-04-21T15:28:51.663Z</time></trkpt><trkpt lat="44.52309" lon="9.2431167"><ele>769.6666666666667</ele><time>2026-04-21T15:28:52.663Z</time></trkpt><trkpt lat="44.5231617" lon="9.2429183"><ele>762.0</ele><time>2026-04-21T15:28:53.663Z</time></trkpt><trkpt lat="44.523225" lon="9.2427033"><ele>762.0</ele><time>2026-04-21T15:28:54.664Z</time></trkpt><trkpt lat="44.5232967" lon="9.242495"><ele>762.0</ele><time>2026-04-21T15:28:55.664Z</time></trkpt><trkpt lat="44.523365" lon="9.242295"><ele>762.0</ele><time>2026-04-21T15:28:56.663Z</time></trkpt><trkpt lat="44.52342" lon="9.2421"><ele>762.6666666666666</ele><time>2026-04-21T15:28:57.664Z</time></trkpt><trkpt lat="44.523465" lon="9.2419017"><ele>763.3333333333333</ele><time>2026-04-21T15:28:58.663Z</time></trkpt><trkpt lat="44.523495" lon="9.241695"><ele>764.0</ele><time>2026-04-21T15:28:59.663Z</time></trkpt><trkpt lat="44.5235133" lon="9.2414767"><ele>764.25</ele><time>2026-04-21T15:29:00.664Z</time></trkpt><trkpt lat="44.52353" lon="9.2412733"><ele>764.5</ele><time>2026-04-21T15:29:01.663Z</time></trkpt><trkpt lat="44.5235617" lon="9.241085"><ele>764.75</ele><time>2026-04-21T15:29:02.663Z</time></trkpt><trkpt lat="44.5236233" lon="9.2408867"><ele>765.0</ele><time>2026-04-21T15:29:03.664Z</time></trkpt><trkpt lat="44.5237" lon="9.2406733"><ele>753.0</ele><time>2026-04-21T15:29:04.664Z</time></trkpt><trkpt lat="44.5237767" lon="9.2404483"><ele>741.0</ele><time>2026-04-21T15:29:05.663Z</time></trkpt><trkpt lat="44.5238433" lon="9.2402167"><ele>729.0</ele><time>2026-04-21T15:29:06.663Z</time></trkpt><trkpt lat="44.5239" lon="9.2400017"><ele>729.0</ele><time>2026-04-21T15:29:07.663Z</time></trkpt><trkpt lat="44.52395" lon="9.2398083"><ele>729.0</ele><time>2026-04-21T15:29:08.663Z</time></trkpt><trkpt lat="44.5240033" lon="9.2396283"><ele>729.0</ele><time>2026-04-21T15:29:09.663Z</time></trkpt><trkpt lat="44.524075" lon="9.2394783"><ele>729.0</ele><time>2026-04-21T15:29:10.663Z</time></trkpt><trkpt lat="44.52415" lon="9.2393633"><ele>730.6</ele><time>2026-04-21T15:29:11.664Z</time></trkpt><trkpt lat="44.5242467" lon="9.23927"><ele>732.2</ele><time>2026-04-21T15:29:12.663Z</time></trkpt><trkpt lat="44.5243517" lon="9.2391917"><ele>733.8000000000001</ele><time>2026-04-21T15:29:13.664Z</time></trkpt><trkpt lat="44.52446" lon="9.2391417"><ele>735.4000000000001</ele><time>2026-04-21T15:29:14.663Z</time></trkpt><trkpt lat="44.524555" lon="9.2391017"><ele>737.0</ele><time>2026-04-21T15:29:15.663Z</time></trkpt><trkpt lat="44.52463" lon="9.239065"><ele>731.6</ele><time>2026-04-21T15:29:16.663Z</time></trkpt><trkpt lat="44.5247067" lon="9.2390517"><ele>726.2</ele><time>2026-04-21T15:29:17.663Z</time></trkpt><trkpt lat="44.5247667" lon="9.2390817"><ele>720.8</ele><time>2026-04-21T15:29:18.663Z</time></trkpt><trkpt lat="44.5248017" lon="9.2392"><ele>715.4</ele><time>2026-04-21T15:29:20.663Z</time></trkpt><trkpt lat="44.52472" lon="9.239335"><ele>710.0</ele><time>2026-04-21T15:29:22.663Z</time></trkpt><trkpt lat="44.5246183" lon="9.2393883"><ele>715.4</ele><time>2026-04-21T15:29:23.663Z</time></trkpt><trkpt lat="44.5245" lon="9.2394483"><ele>720.8</ele><time>2026-04-21T15:29:24.664Z</time></trkpt><trkpt lat="44.524405" lon="9.2395133"><ele>726.2</ele><time>2026-04-21T15:29:25.663Z</time></trkpt><trkpt lat="44.52433" lon="9.2395933"><ele>731.6</ele><time>2026-04-21T15:29:26.664Z</time></trkpt><trkpt lat="44.5242967" lon="9.23968"><ele>737.0</ele><time>2026-04-21T15:29:27.664Z</time></trkpt><trkpt lat="44.524285" lon="9.2397883"><ele>735.0</ele><time>2026-04-21T15:29:28.663Z</time></trkpt><trkpt lat="44.524305" lon="9.239935"><ele>733.0</ele><time>2026-04-21T15:29:29.663Z</time></trkpt><trkpt lat="44.5243417" lon="9.24012"><ele>731.0</ele><time>2026-04-21T15:29:30.664Z</time></trkpt><trkpt lat="44.5243783" lon="9.2403283"><ele>729.0</ele><time>2026-04-21T15:29:31.663Z</time></trkpt><trkpt lat="44.5244083" lon="9.2405333"><ele>727.75</ele><time>2026-04-21T15:29:32.664Z</time></trkpt><trkpt lat="44.5244217" lon="9.2407467"><ele>726.5</ele><time>2026-04-21T15:29:33.663Z</time></trkpt><trkpt lat="44.5244417" lon="9.2409467"><ele>725.25</ele><time>2026-04-21T15:29:34.663Z</time></trkpt><trkpt lat="44.5244367" lon="9.241145"><ele>724.0</ele><time>2026-04-21T15:29:35.663Z</time></trkpt><trkpt lat="44.5244217" lon="9.241335"><ele>723.4000000000001</ele><time>2026-04-21T15:29:36.663Z</time></trkpt><trkpt lat="44.5244067" lon="9.2415017"><ele>722.8</ele><time>2026-04-21T15:29:37.663Z</time></trkpt><trkpt lat="44.5244083" lon="9.2416533"><ele>722.2</ele><time>2026-04-21T15:29:38.664Z</time></trkpt><trkpt lat="44.52443" lon="9.2418"><ele>721.5999999999999</ele><time>2026-04-21T15:29:39.664Z</time></trkpt><trkpt lat="44.5244683" lon="9.2419283"><ele>721.0</ele><time>2026-04-21T15:29:40.663Z</time></trkpt><trkpt lat="44.5244917" lon="9.2420383"><ele>721.0</ele><time>2026-04-21T15:29:41.663Z</time></trkpt><trkpt lat="44.52449" lon="9.2421383"><ele>721.0</ele><time>2026-04-21T15:29:42.663Z</time></trkpt><trkpt lat="44.5244717" lon="9.2422417"><ele>721.0</ele><time>2026-04-21T15:29:43.664Z</time></trkpt><trkpt lat="44.5244383" lon="9.242355"><ele>721.0</ele><time>2026-04-21T15:29:44.663Z</time></trkpt><trkpt lat="44.5244117" lon="9.242485"><ele>721.0</ele><time>2026-04-21T15:29:45.664Z</time></trkpt><trkpt lat="44.5243933" lon="9.2426333"><ele>721.0</ele><time>2026-04-21T15:29:46.663Z</time></trkpt><trkpt lat="44.524385" lon="9.2428017"><ele>718.5</ele><time>2026-04-21T15:29:47.664Z</time></trkpt><trkpt lat="44.524375" lon="9.2429667"><ele>716.0</ele><time>2026-04-21T15:29:48.664Z</time></trkpt><trkpt lat="44.5243567" lon="9.2431217"><ele>713.5</ele><time>2026-04-21T15:29:49.663Z</time></trkpt><trkpt lat="44.5243083" lon="9.2432867"><ele>711.0</ele><time>2026-04-21T15:29:50.663Z</time></trkpt><trkpt lat="44.524245" lon="9.2434633"><ele>706.6666666666666</ele><time>2026-04-21T15:29:51.664Z</time></trkpt><trkpt lat="44.52416" lon="9.24367"><ele>702.3333333333333</ele><time>2026-04-21T15:29:52.664Z</time></trkpt><trkpt lat="44.5240867" lon="9.2438517"><ele>698.0</ele><time>2026-04-21T15:29:53.664Z</time></trkpt><trkpt lat="44.524015" lon="9.24402"><ele>693.25</ele><time>2026-04-21T15:29:54.663Z</time></trkpt><trkpt lat="44.523955" lon="9.2441833"><ele>688.5</ele><time>2026-04-21T15:29:55.663Z</time></trkpt><trkpt lat="44.52392" lon="9.2443617"><ele>683.75</ele><time>2026-04-21T15:29:56.663Z</time></trkpt><trkpt lat="44.5239083" lon="9.2445483"><ele>679.0</ele><time>2026-04-21T15:29:57.663Z</time></trkpt><trkpt lat="44.52388" lon="9.2447717"><ele>676.6666666666667</ele><time>2026-04-21T15:29:58.663Z</time></trkpt><trkpt lat="44.52385" lon="9.244985"><ele>674.3333333333334</ele><time>2026-04-21T15:29:59.664Z</time></trkpt><trkpt lat="44.5238183" lon="9.2451933"><ele>672.0</ele><time>2026-04-21T15:30:00.664Z</time></trkpt><trkpt lat="44.5237867" lon="9.2454033"><ele>672.0</ele><time>2026-04-21T15:30:01.664Z</time></trkpt><trkpt lat="44.5237633" lon="9.2456067"><ele>672.0</ele><time>2026-04-21T15:30:02.663Z</time></trkpt><trkpt lat="44.52376" lon="9.24581"><ele>672.0</ele><time>2026-04-21T15:30:03.663Z</time></trkpt><trkpt lat="44.5237667" lon="9.2460067"><ele>672.0</ele><time>2026-04-21T15:30:04.663Z</time></trkpt><trkpt lat="44.5237783" lon="9.2462017"><ele>670.5</ele><time>2026-04-21T15:30:05.664Z</time></trkpt><trkpt lat="44.5237967" lon="9.24639"><ele>669.0</ele><time>2026-04-21T15:30:06.664Z</time></trkpt><trkpt lat="44.5238217" lon="9.2465667"><ele>667.5</ele><time>2026-04-21T15:30:07.664Z</time></trkpt><trkpt lat="44.523845" lon="9.2467233"><ele>666.0</ele><time>2026-04-21T15:30:08.663Z</time></trkpt><trkpt lat="44.52387" lon="9.24686"><ele>665.25</ele><time>2026-04-21T15:30:09.663Z</time></trkpt><trkpt lat="44.523915" lon="9.246975"><ele>664.5</ele><time>2026-04-21T15:30:10.664Z</time></trkpt><trkpt lat="44.523985" lon="9.2470867"><ele>663.75</ele><time>2026-04-21T15:30:11.664Z</time></trkpt><trkpt lat="44.524095" lon="9.2472217"><ele>663.0</ele><time>2026-04-21T15:30:12.664Z</time></trkpt><trkpt lat="44.5242" lon="9.2473433"><ele>661.75</ele><time>2026-04-21T15:30:13.664Z</time></trkpt><trkpt lat="44.52427" lon="9.247475"><ele>660.5</ele><time>2026-04-21T15:30:14.663Z</time></trkpt><trkpt lat="44.524315" lon="9.247615"><ele>659.25</ele><time>2026-04-21T15:30:15.663Z</time></trkpt><trkpt lat="44.5243467" lon="9.2477733"><ele>658.0</ele><time>2026-04-21T15:30:16.664Z</time></trkpt><trkpt lat="44.524375" lon="9.2479817"><ele>659.3333333333334</ele><time>2026-04-21T15:30:17.663Z</time></trkpt><trkpt lat="44.5243967" lon="9.2481983"><ele>660.6666666666666</ele><time>2026-04-21T15:30:18.663Z</time></trkpt><trkpt lat="44.5244267" lon="9.24843"><ele>662.0</ele><time>2026-04-21T15:30:19.664Z</time></trkpt><trkpt lat="44.5244583" lon="9.2486517"><ele>662.0</ele><time>2026-04-21T15:30:20.663Z</time></trkpt><trkpt lat="44.52449" lon="9.24886"><ele>662.0</ele><time>2026-04-21T15:30:21.663Z</time></trkpt><trkpt lat="44.5245217" lon="9.2490517"><ele>662.0</ele><time>2026-04-21T15:30:22.664Z</time></trkpt><trkpt lat="44.52456" lon="9.24924"><ele>662.0</ele><time>2026-04-21T15:30:23.663Z</time></trkpt><trkpt lat="44.5246" lon="9.24943"><ele>663.0</ele><time>2026-04-21T15:30:24.663Z</time></trkpt><trkpt lat="44.5246617" lon="9.24963"><ele>664.0</ele><time>2026-04-21T15:30:25.663Z</time></trkpt><trkpt lat="44.5247467" lon="9.2498183"><ele>665.0</ele><time>2026-04-21T15:30:26.664Z</time></trkpt><trkpt lat="44.5248517" lon="9.2500017"><ele>665.0</ele><time>2026-04-21T15:30:27.664Z</time></trkpt><trkpt lat="44.5249783" lon="9.2501667"><ele>665.0</ele><time>2026-04-21T15:30:28.664Z</time></trkpt><trkpt lat="44.5251317" lon="9.25031"><ele>665.0</ele><time>2026-04-21T15:30:29.664Z</time></trkpt><trkpt lat="44.5253133" lon="9.250445"><ele>664.3333333333333</ele><time>2026-04-21T15:30:30.664Z</time></trkpt><trkpt lat="44.525485" lon="9.2505733"><ele>663.6666666666666</ele><time>2026-04-21T15:30:31.664Z</time></trkpt><trkpt lat="44.5256517" lon="9.2507"><ele>663.0</ele><time>2026-04-21T15:30:32.663Z</time></trkpt><trkpt lat="44.5258117" lon="9.2508217"><ele>663.0</ele><time>2026-04-21T15:30:33.664Z</time></trkpt><trkpt lat="44.5259667" lon="9.2509517"><ele>663.0</ele><time>2026-04-21T15:30:34.663Z</time></trkpt><trkpt lat="44.526115" lon="9.2510833"><ele>663.0</ele><time>2026-04-21T15:30:35.663Z</time></trkpt><trkpt lat="44.5262667" lon="9.2512117"><ele>662.3333333333334</ele><time>2026-04-21T15:30:36.663Z</time></trkpt><trkpt lat="44.5264117" lon="9.2513383"><ele>661.6666666666667</ele><time>2026-04-21T15:30:37.663Z</time></trkpt><trkpt lat="44.5265467" lon="9.2514583"><ele>661.0</ele><time>2026-04-21T15:30:38.664Z</time></trkpt><trkpt lat="44.5266617" lon="9.2515633"><ele>661.0</ele><time>2026-04-21T15:30:39.663Z</time></trkpt><trkpt lat="44.5267817" lon="9.2516267"><ele>661.0</ele><time>2026-04-21T15:30:40.663Z</time></trkpt><trkpt lat="44.5268783" lon="9.25166"><ele>661.0</ele><time>2026-04-21T15:30:41.663Z</time></trkpt><trkpt lat="44.526995" lon="9.2516517"><ele>661.0</ele><time>2026-04-21T15:30:42.664Z</time></trkpt><trkpt lat="44.5270967" lon="9.2516083"><ele>659.75</ele><time>2026-04-21T15:30:43.664Z</time></trkpt><trkpt lat="44.5271917" lon="9.25153"><ele>658.5</ele><time>2026-04-21T15:30:44.663Z</time></trkpt><trkpt lat="44.527275" lon="9.2514183"><ele>657.25</ele><time>2026-04-21T15:30:45.664Z</time></trkpt><trkpt lat="44.5273617" lon="9.2512883"><ele>656.0</ele><time>2026-04-21T15:30:46.664Z</time></trkpt><trkpt lat="44.5274467" lon="9.2511633"><ele>656.0</ele><time>2026-04-21T15:30:47.663Z</time></trkpt><trkpt lat="44.527505" lon="9.2510683"><ele>656.0</ele><time>2026-04-21T15:30:48.664Z</time></trkpt><trkpt lat="44.527545" lon="9.251"><ele>656.0</ele><time>2026-04-21T15:30:49.664Z</time></trkpt><trkpt lat="44.527625" lon="9.2509683"><ele>656.0</ele><time>2026-04-21T15:30:51.663Z</time></trkpt><trkpt lat="44.5277283" lon="9.251015"><ele>656.0</ele><time>2026-04-21T15:30:54.663Z</time></trkpt><trkpt lat="44.5278033" lon="9.2510767"><ele>656.0</ele><time>2026-04-21T15:30:55.663Z</time></trkpt><trkpt lat="44.5278833" lon="9.2511567"><ele>660.5</ele><time>2026-04-21T15:30:56.664Z</time></trkpt><trkpt lat="44.527975" lon="9.2512617"><ele>665.0</ele><time>2026-04-21T15:30:57.664Z</time></trkpt><trkpt lat="44.528065" lon="9.2513783"><ele>669.5</ele><time>2026-04-21T15:30:58.663Z</time></trkpt><trkpt lat="44.5281417" lon="9.2515233"><ele>674.0</ele><time>2026-04-21T15:30:59.663Z</time></trkpt><trkpt lat="44.5282117" lon="9.2516983"><ele>674.0</ele><time>2026-04-21T15:31:00.663Z</time></trkpt><trkpt lat="44.528275" lon="9.2518917"><ele>674.0</ele><time>2026-04-21T15:31:01.663Z</time></trkpt><trkpt lat="44.528305" lon="9.2521017"><ele>674.0</ele><time>2026-04-21T15:31:02.664Z</time></trkpt><trkpt lat="44.5283217" lon="9.25233"><ele>673.3333333333333</ele><time>2026-04-21T15:31:03.663Z</time></trkpt><trkpt lat="44.5283233" lon="9.25256"><ele>672.6666666666666</ele><time>2026-04-21T15:31:04.664Z</time></trkpt><trkpt lat="44.528295" lon="9.252795"><ele>672.0</ele><time>2026-04-21T15:31:05.663Z</time></trkpt><trkpt lat="44.52825" lon="9.253"><ele>673.3333333333334</ele><time>2026-04-21T15:31:06.663Z</time></trkpt><trkpt lat="44.528185" lon="9.2531967"><ele>674.6666666666667</ele><time>2026-04-21T15:31:07.663Z</time></trkpt><trkpt lat="44.5280617" lon="9.2533967"><ele>676.0</ele><time>2026-04-21T15:31:08.663Z</time></trkpt><trkpt lat="44.52793" lon="9.253605"><ele>669.6666666666667</ele><time>2026-04-21T15:31:09.664Z</time></trkpt><trkpt lat="44.5278183" lon="9.25383"><ele>663.3333333333334</ele><time>2026-04-21T15:31:10.664Z</time></trkpt><trkpt lat="44.5276983" lon="9.2540667"><ele>657.0</ele><time>2026-04-21T15:31:11.663Z</time></trkpt><trkpt lat="44.5275733" lon="9.25431"><ele>657.0</ele><time>2026-04-21T15:31:12.663Z</time></trkpt><trkpt lat="44.5274483" lon="9.2545333"><ele>657.0</ele><time>2026-04-21T15:31:13.664Z</time></trkpt><trkpt lat="44.52732" lon="9.2547533"><ele>657.0</ele><time>2026-04-21T15:31:14.664Z</time></trkpt><trkpt lat="44.5272033" lon="9.2549583"><ele>656.0</ele><time>2026-04-21T15:31:15.663Z</time></trkpt><trkpt lat="44.5271" lon="9.2551417"><ele>655.0</ele><time>2026-04-21T15:31:16.663Z</time></trkpt><trkpt lat="44.5270083" lon="9.2553583"><ele>654.0</ele><time>2026-04-21T15:31:17.663Z</time></trkpt><trkpt lat="44.5269183" lon="9.255575"><ele>656.0</ele><time>2026-04-21T15:31:18.663Z</time></trkpt><trkpt lat="44.5268133" lon="9.255805"><ele>658.0</ele><time>2026-04-21T15:31:19.664Z</time></trkpt><trkpt lat="44.5267083" lon="9.2560333"><ele>660.0</ele><time>2026-04-21T15:31:20.664Z</time></trkpt><trkpt lat="44.526605" lon="9.2562517"><ele>662.3333333333334</ele><time>2026-04-21T15:31:21.663Z</time></trkpt><trkpt lat="44.5265167" lon="9.2564633"><ele>664.6666666666667</ele><time>2026-04-21T15:31:22.663Z</time></trkpt><trkpt lat="44.526445" lon="9.256685"><ele>667.0</ele><time>2026-04-21T15:31:23.664Z</time></trkpt><trkpt lat="44.5264" lon="9.2569217"><ele>667.0</ele><time>2026-04-21T15:31:24.663Z</time></trkpt><trkpt lat="44.5263717" lon="9.25715"><ele>667.0</ele><time>2026-04-21T15:31:25.663Z</time></trkpt><trkpt lat="44.5263767" lon="9.2573817"><ele>667.0</ele><time>2026-04-21T15:31:26.663Z</time></trkpt><trkpt lat="44.5264083" lon="9.2576183"><ele>668.0</ele><time>2026-04-21T15:31:27.664Z</time></trkpt><trkpt lat="44.5264833" lon="9.2578533"><ele>669.0</ele><time>2026-04-21T15:31:28.663Z</time></trkpt><trkpt lat="44.5265817" lon="9.2580733"><ele>670.0</ele><time>2026-04-21T15:31:29.663Z</time></trkpt><trkpt lat="44.5267017" lon="9.2582833"><ele>666.0</ele><time>2026-04-21T15:31:30.664Z</time></trkpt><trkpt lat="44.5268383" lon="9.2584717"><ele>662.0</ele><time>2026-04-21T15:31:31.664Z</time></trkpt><trkpt lat="44.5269767" lon="9.258645"><ele>658.0</ele><time>2026-04-21T15:31:32.664Z</time></trkpt><trkpt lat="44.5271367" lon="9.258795"><ele>658.0</ele><time>2026-04-21T15:31:33.664Z</time></trkpt><trkpt lat="44.5273117" lon="9.2589217"><ele>658.0</ele><time>2026-04-21T15:31:34.664Z</time></trkpt><trkpt lat="44.527495" lon="9.259035"><ele>658.0</ele><time>2026-04-21T15:31:35.663Z</time></trkpt><trkpt lat="44.527675" lon="9.2591633"><ele>658.0</ele><time>2026-04-21T15:31:36.663Z</time></trkpt><trkpt lat="44.5278467" lon="9.2593083"><ele>658.0</ele><time>2026-04-21T15:31:37.663Z</time></trkpt><trkpt lat="44.5280033" lon="9.2594867"><ele>658.0</ele><time>2026-04-21T15:31:38.663Z</time></trkpt><trkpt lat="44.5281567" lon="9.2596867"><ele>656.0</ele><time>2026-04-21T15:31:39.663Z</time></trkpt><trkpt lat="44.5283067" lon="9.259855"><ele>654.0</ele><time>2026-04-21T15:31:40.664Z</time></trkpt><trkpt lat="44.528455" lon="9.2599983"><ele>652.0</ele><time>2026-04-21T15:31:41.664Z</time></trkpt><trkpt lat="44.5286167" lon="9.2600933"><ele>656.0</ele><time>2026-04-21T15:31:42.664Z</time></trkpt><trkpt lat="44.5287917" lon="9.260165"><ele>660.0</ele><time>2026-04-21T15:31:43.664Z</time></trkpt><trkpt lat="44.52896" lon="9.2601783"><ele>664.0</ele><time>2026-04-21T15:31:44.664Z</time></trkpt><trkpt lat="44.5291433" lon="9.260225"><ele>664.0</ele><time>2026-04-21T15:31:45.664Z</time></trkpt><trkpt lat="44.5293267" lon="9.2603117"><ele>664.0</ele><time>2026-04-21T15:31:46.664Z</time></trkpt><trkpt lat="44.52949" lon="9.2604117"><ele>664.0</ele><time>2026-04-21T15:31:47.663Z</time></trkpt><trkpt lat="44.5296533" lon="9.260485"><ele>658.6666666666667</ele><time>2026-04-21T15:31:48.663Z</time></trkpt><trkpt lat="44.529815" lon="9.26052"><ele>653.3333333333334</ele><time>2026-04-21T15:31:49.664Z</time></trkpt><trkpt lat="44.5299767" lon="9.2605083"><ele>648.0</ele><time>2026-04-21T15:31:50.663Z</time></trkpt><trkpt lat="44.5301367" lon="9.260455"><ele>648.0</ele><time>2026-04-21T15:31:51.664Z</time></trkpt><trkpt lat="44.5302767" lon="9.2603583"><ele>648.0</ele><time>2026-04-21T15:31:52.663Z</time></trkpt><trkpt lat="44.5303833" lon="9.260205"><ele>648.0</ele><time>2026-04-21T15:31:53.663Z</time></trkpt><trkpt lat="44.5304583" lon="9.26002"><ele>647.6666666666666</ele><time>2026-04-21T15:31:54.663Z</time></trkpt><trkpt lat="44.5304883" lon="9.259795"><ele>647.3333333333333</ele><time>2026-04-21T15:31:55.664Z</time></trkpt><trkpt lat="44.5305033" lon="9.259565"><ele>647.0</ele><time>2026-04-21T15:31:56.663Z</time></trkpt><trkpt lat="44.5304883" lon="9.2593117"><ele>647.0</ele><time>2026-04-21T15:31:57.663Z</time></trkpt><trkpt lat="44.53047" lon="9.2590367"><ele>647.0</ele><time>2026-04-21T15:31:58.663Z</time></trkpt><trkpt lat="44.53045" lon="9.2587583"><ele>647.0</ele><time>2026-04-21T15:31:59.664Z</time></trkpt><trkpt lat="44.5304217" lon="9.2584567"><ele>646.6666666666666</ele><time>2026-04-21T15:32:00.664Z</time></trkpt><trkpt lat="44.5303983" lon="9.2581717"><ele>646.3333333333334</ele><time>2026-04-21T15:32:01.663Z</time></trkpt><trkpt lat="44.53038" lon="9.2578967"><ele>646.0</ele><time>2026-04-21T15:32:02.663Z</time></trkpt><trkpt lat="44.5303767" lon="9.2576467"><ele>645.3333333333334</ele><time>2026-04-21T15:32:03.664Z</time></trkpt><trkpt lat="44.53039" lon="9.2573983"><ele>644.6666666666666</ele><time>2026-04-21T15:32:04.664Z</time></trkpt><trkpt lat="44.5304033" lon="9.2571417"><ele>644.0</ele><time>2026-04-21T15:32:05.664Z</time></trkpt><trkpt lat="44.5304483" lon="9.25668"><ele>644.0</ele><time>2026-04-21T15:32:07.664Z</time></trkpt><trkpt lat="44.5304733" lon="9.25647"><ele>644.0</ele><time>2026-04-21T15:32:08.663Z</time></trkpt><trkpt lat="44.5305367" lon="9.256265"><ele>644.0</ele><time>2026-04-21T15:32:09.664Z</time></trkpt><trkpt lat="44.530615" lon="9.25605"><ele>646.5</ele><time>2026-04-21T15:32:10.664Z</time></trkpt><trkpt lat="44.5306967" lon="9.2558267"><ele>649.0</ele><time>2026-04-21T15:32:11.664Z</time></trkpt><trkpt lat="44.5310067" lon="9.2552083"><ele>645.6666666666667</ele><time>2026-04-21T15:32:14.663Z</time></trkpt><trkpt lat="44.53113" lon="9.255015"><ele>642.3333333333334</ele><time>2026-04-21T15:32:15.663Z</time></trkpt><trkpt lat="44.5312583" lon="9.2548133"><ele>639.0</ele><time>2026-04-21T15:32:16.663Z</time></trkpt><trkpt lat="44.53156" lon="9.2544767"><ele>647.0</ele><time>2026-04-21T15:32:18.664Z</time></trkpt><trkpt lat="44.5317183" lon="9.2543567"><ele>655.0</ele><time>2026-04-21T15:32:19.664Z</time></trkpt><trkpt lat="44.5318767" lon="9.2542567"><ele>663.0</ele><time>2026-04-21T15:32:20.663Z</time></trkpt><trkpt lat="44.5320367" lon="9.2541767"><ele>658.3333333333334</ele><time>2026-04-21T15:32:21.664Z</time></trkpt><trkpt lat="44.5321983" lon="9.2541367"><ele>653.6666666666667</ele><time>2026-04-21T15:32:22.663Z</time></trkpt><trkpt lat="44.5323617" lon="9.2541233"><ele>649.0</ele><time>2026-04-21T15:32:23.664Z</time></trkpt><trkpt lat="44.5325417" lon="9.2541517"><ele>649.0</ele><time>2026-04-21T15:32:24.663Z</time></trkpt><trkpt lat="44.5327067" lon="9.2542017"><ele>649.0</ele><time>2026-04-21T15:32:25.663Z</time></trkpt><trkpt lat="44.5328517" lon="9.254285"><ele>649.0</ele><time>2026-04-21T15:32:26.663Z</time></trkpt><trkpt lat="44.532995" lon="9.25441"><ele>644.0</ele><time>2026-04-21T15:32:27.664Z</time></trkpt><trkpt lat="44.5334183" lon="9.2548017"><ele>644.0</ele><time>2026-04-21T15:32:30.663Z</time></trkpt><trkpt lat="44.53354" lon="9.2549317"><ele>644.0</ele><time>2026-04-21T15:32:31.663Z</time></trkpt><trkpt lat="44.533655" lon="9.255075"><ele>644.0</ele><time>2026-04-21T15:32:32.663Z</time></trkpt><trkpt lat="44.5337617" lon="9.25524"><ele>647.75</ele><time>2026-04-21T15:32:33.664Z</time></trkpt><trkpt lat="44.5338633" lon="9.25541"><ele>651.5</ele><time>2026-04-21T15:32:34.664Z</time></trkpt><trkpt lat="44.533945" lon="9.2555717"><ele>655.25</ele><time>2026-04-21T15:32:35.663Z</time></trkpt><trkpt lat="44.534005" lon="9.255735"><ele>659.0</ele><time>2026-04-21T15:32:36.663Z</time></trkpt><trkpt lat="44.5340333" lon="9.2559017"><ele>659.0</ele><time>2026-04-21T15:32:37.663Z</time></trkpt><trkpt lat="44.5340317" lon="9.2560717"><ele>659.0</ele><time>2026-04-21T15:32:38.663Z</time></trkpt><trkpt lat="44.533975" lon="9.2567517"><ele>659.0</ele><time>2026-04-21T15:32:41.663Z</time></trkpt><trkpt lat="44.5339267" lon="9.2570083"><ele>659.0</ele><time>2026-04-21T15:32:42.664Z</time></trkpt><trkpt lat="44.5338967" lon="9.2572633"><ele>659.0</ele><time>2026-04-21T15:32:43.663Z</time></trkpt><trkpt lat="44.5338617" lon="9.2575067"><ele>659.0</ele><time>2026-04-21T15:32:44.663Z</time></trkpt><trkpt lat="44.5338367" lon="9.2577367"><ele>659.0</ele><time>2026-04-21T15:32:45.664Z</time></trkpt><trkpt lat="44.5338133" lon="9.2579717"><ele>659.0</ele><time>2026-04-21T15:32:46.663Z</time></trkpt><trkpt lat="44.5338033" lon="9.25823"><ele>659.0</ele><time>2026-04-21T15:32:47.663Z</time></trkpt><trkpt lat="44.5338133" lon="9.2585067"><ele>659.0</ele><time>2026-04-21T15:32:48.664Z</time></trkpt><trkpt lat="44.5338233" lon="9.2587733"><ele>659.0</ele><time>2026-04-21T15:32:49.663Z</time></trkpt><trkpt lat="44.5338233" lon="9.25966"><ele>658.5</ele><time>2026-04-21T15:32:52.664Z</time></trkpt><trkpt lat="44.53382" lon="9.2599833"><ele>658.0</ele><time>2026-04-21T15:32:53.663Z</time></trkpt><trkpt lat="44.5338267" lon="9.2603"><ele>658.0</ele><time>2026-04-21T15:32:54.663Z</time></trkpt><trkpt lat="44.5338267" lon="9.2606033"><ele>658.0</ele><time>2026-04-21T15:32:55.663Z</time></trkpt><trkpt lat="44.533805" lon="9.26116"><ele>656.25</ele><time>2026-04-21T15:32:57.664Z</time></trkpt><trkpt lat="44.5338" lon="9.26139"><ele>654.5</ele><time>2026-04-21T15:32:58.663Z</time></trkpt><trkpt lat="44.5338117" lon="9.261605"><ele>652.75</ele><time>2026-04-21T15:32:59.663Z</time></trkpt><trkpt lat="44.5338433" lon="9.2617817"><ele>651.0</ele><time>2026-04-21T15:33:00.663Z</time></trkpt><trkpt lat="44.5339817" lon="9.2620183"><ele>647.75</ele><time>2026-04-21T15:33:02.664Z</time></trkpt><trkpt lat="44.5340833" lon="9.26206"><ele>644.5</ele><time>2026-04-21T15:33:03.663Z</time></trkpt><trkpt lat="44.5342033" lon="9.2620617"><ele>641.25</ele><time>2026-04-21T15:33:04.664Z</time></trkpt><trkpt lat="44.5343283" lon="9.2620283"><ele>638.0</ele><time>2026-04-21T15:33:05.664Z</time></trkpt><trkpt lat="44.5344667" lon="9.261975"><ele>638.0</ele><time>2026-04-21T15:33:06.663Z</time></trkpt><trkpt lat="44.534605" lon="9.261915"><ele>638.0</ele><time>2026-04-21T15:33:07.663Z</time></trkpt><trkpt lat="44.5349033" lon="9.26168"><ele>638.0</ele><time>2026-04-21T15:33:09.663Z</time></trkpt><trkpt lat="44.5350483" lon="9.26154"><ele>638.0</ele><time>2026-04-21T15:33:10.663Z</time></trkpt><trkpt lat="44.5351933" lon="9.2614067"><ele>638.0</ele><time>2026-04-21T15:33:11.663Z</time></trkpt><trkpt lat="44.535345" lon="9.2612867"><ele>648.5</ele><time>2026-04-21T15:33:12.663Z</time></trkpt><trkpt lat="44.535655" lon="9.2611417"><ele>659.0</ele><time>2026-04-21T15:33:14.663Z</time></trkpt><trkpt lat="44.5358233" lon="9.2611267"><ele>659.0</ele><time>2026-04-21T15:33:15.664Z</time></trkpt><trkpt lat="44.5360017" lon="9.26113"><ele>659.0</ele><time>2026-04-21T15:33:16.664Z</time></trkpt><trkpt lat="44.5361883" lon="9.2611367"><ele>659.0</ele><time>2026-04-21T15:33:17.664Z</time></trkpt><trkpt lat="44.5363883" lon="9.2611217"><ele>649.0</ele><time>2026-04-21T15:33:18.663Z</time></trkpt><trkpt lat="44.536815" lon="9.2610767"><ele>639.0</ele><time>2026-04-21T15:33:20.664Z</time></trkpt><trkpt lat="44.53704" lon="9.2610383"><ele>637.5</ele><time>2026-04-21T15:33:21.663Z</time></trkpt><trkpt lat="44.537265" lon="9.2610233"><ele>636.0</ele><time>2026-04-21T15:33:22.663Z</time></trkpt><trkpt lat="44.5374933" lon="9.2610067"><ele>636.0</ele><time>2026-04-21T15:33:23.664Z</time></trkpt><trkpt lat="44.5377233" lon="9.261005"><ele>636.0</ele><time>2026-04-21T15:33:24.664Z</time></trkpt><trkpt lat="44.5379617" lon="9.261"><ele>637.5</ele><time>2026-04-21T15:33:25.663Z</time></trkpt><trkpt lat="44.538195" lon="9.2609967"><ele>639.0</ele><time>2026-04-21T15:33:26.664Z</time></trkpt><trkpt lat="44.5384317" lon="9.261005"><ele>648.0</ele><time>2026-04-21T15:33:27.663Z</time></trkpt><trkpt lat="44.5388983" lon="9.2609933"><ele>648.0</ele><time>2026-04-21T15:33:29.663Z</time></trkpt><trkpt lat="44.5391117" lon="9.2609967"><ele>648.0</ele><time>2026-04-21T15:33:30.664Z</time></trkpt><trkpt lat="44.5393083" lon="9.260985"><ele>648.0</ele><time>2026-04-21T15:33:31.664Z</time></trkpt><trkpt lat="44.5394983" lon="9.2609783"><ele>646.0</ele><time>2026-04-21T15:33:32.664Z</time></trkpt><trkpt lat="44.5396883" lon="9.2609783"><ele>644.0</ele><time>2026-04-21T15:33:33.664Z</time></trkpt><trkpt lat="44.5398683" lon="9.2609583"><ele>642.0</ele><time>2026-04-21T15:33:34.664Z</time></trkpt><trkpt lat="44.5400467" lon="9.2609433"><ele>642.0</ele><time>2026-04-21T15:33:35.664Z</time></trkpt><trkpt lat="44.5402417" lon="9.2609367"><ele>642.0</ele><time>2026-04-21T15:33:36.663Z</time></trkpt><trkpt lat="44.540415" lon="9.2609267"><ele>642.0</ele><time>2026-04-21T15:33:37.663Z</time></trkpt><trkpt lat="44.5405867" lon="9.2609033"><ele>638.6666666666666</ele><time>2026-04-21T15:33:38.664Z</time></trkpt><trkpt lat="44.5407467" lon="9.2608917"><ele>635.3333333333333</ele><time>2026-04-21T15:33:39.663Z</time></trkpt><trkpt lat="44.5408933" lon="9.2608683"><ele>632.0</ele><time>2026-04-21T15:33:40.663Z</time></trkpt><trkpt lat="44.5410483" lon="9.260835"><ele>632.0</ele><time>2026-04-21T15:33:41.663Z</time></trkpt><trkpt lat="44.5411783" lon="9.2607783"><ele>632.0</ele><time>2026-04-21T15:33:42.663Z</time></trkpt><trkpt lat="44.5413117" lon="9.2607"><ele>632.0</ele><time>2026-04-21T15:33:43.664Z</time></trkpt><trkpt lat="44.5414283" lon="9.2605917"><ele>632.0</ele><time>2026-04-21T15:33:44.663Z</time></trkpt><trkpt lat="44.541525" lon="9.2604883"><ele>631.1666666666666</ele><time>2026-04-21T15:33:45.664Z</time></trkpt><trkpt lat="44.5416017" lon="9.26039"><ele>630.3333333333333</ele><time>2026-04-21T15:33:46.663Z</time></trkpt><trkpt lat="44.5416617" lon="9.260305"><ele>629.5</ele><time>2026-04-21T15:33:47.663Z</time></trkpt><trkpt lat="44.5417267" lon="9.2602"><ele>628.6666666666666</ele><time>2026-04-21T15:33:49.664Z</time></trkpt><trkpt lat="44.5417767" lon="9.2601367"><ele>627.8333333333334</ele><time>2026-04-21T15:35:37.664Z</time></trkpt><trkpt lat="44.54184" lon="9.2600467"><ele>627.0</ele><time>2026-04-21T15:35:38.664Z</time></trkpt><trkpt lat="44.5420183" lon="9.2598517"><ele>626.25</ele><time>2026-04-21T15:35:40.664Z</time></trkpt><trkpt lat="44.5421167" lon="9.25976"><ele>625.5</ele><time>2026-04-21T15:35:41.663Z</time></trkpt><trkpt lat="44.5422283" lon="9.2597167"><ele>624.75</ele><time>2026-04-21T15:35:42.664Z</time></trkpt><trkpt lat="44.5423533" lon="9.2597067"><ele>624.0</ele><time>2026-04-21T15:35:43.663Z</time></trkpt><trkpt lat="44.5424933" lon="9.2597317"><ele>624.0</ele><time>2026-04-21T15:35:44.663Z</time></trkpt><trkpt lat="44.54264" lon="9.2597833"><ele>624.0</ele><time>2026-04-21T15:35:45.664Z</time></trkpt><trkpt lat="44.5427933" lon="9.25986"><ele>624.0</ele><time>2026-04-21T15:35:46.663Z</time></trkpt><trkpt lat="44.5429467" lon="9.25995"><ele>623.5</ele><time>2026-04-21T15:35:47.664Z</time></trkpt><trkpt lat="44.5430933" lon="9.2600217"><ele>623.0</ele><time>2026-04-21T15:35:48.663Z</time></trkpt><trkpt lat="44.5432317" lon="9.2600633"><ele>622.5</ele><time>2026-04-21T15:35:49.663Z</time></trkpt><trkpt lat="44.54337" lon="9.26012"><ele>622.0</ele><time>2026-04-21T15:35:50.664Z</time></trkpt><trkpt lat="44.5435" lon="9.26016"><ele>622.0</ele><time>2026-04-21T15:35:51.663Z</time></trkpt><trkpt lat="44.5436317" lon="9.2602233"><ele>622.0</ele><time>2026-04-21T15:35:52.663Z</time></trkpt><trkpt lat="44.543755" lon="9.26028"><ele>622.0</ele><time>2026-04-21T15:35:53.663Z</time></trkpt><trkpt lat="44.54387" lon="9.2603383"><ele>622.0</ele><time>2026-04-21T15:35:54.663Z</time></trkpt><trkpt lat="44.5439917" lon="9.2603883"><ele>622.5</ele><time>2026-04-21T15:35:55.664Z</time></trkpt><trkpt lat="44.5440967" lon="9.2604433"><ele>623.0</ele><time>2026-04-21T15:35:56.663Z</time></trkpt><trkpt lat="44.5442317" lon="9.2605967"><ele>623.5</ele><time>2026-04-21T15:35:58.663Z</time></trkpt><trkpt lat="44.54428" lon="9.2607083"><ele>624.0</ele><time>2026-04-21T15:35:59.663Z</time></trkpt><trkpt lat="44.5443117" lon="9.2608633"><ele>624.0</ele><time>2026-04-21T15:36:00.663Z</time></trkpt><trkpt lat="44.5443433" lon="9.2610517"><ele>624.0</ele><time>2026-04-21T15:36:01.664Z</time></trkpt><trkpt lat="44.5443617" lon="9.2612633"><ele>624.0</ele><time>2026-04-21T15:36:02.663Z</time></trkpt><trkpt lat="44.5443983" lon="9.2614833"><ele>622.3333333333334</ele><time>2026-04-21T15:36:03.663Z</time></trkpt><trkpt lat="44.5444483" lon="9.2617033"><ele>620.6666666666667</ele><time>2026-04-21T15:36:04.663Z</time></trkpt><trkpt lat="44.5445067" lon="9.2619283"><ele>619.0</ele><time>2026-04-21T15:36:05.663Z</time></trkpt><trkpt lat="44.5445767" lon="9.2621633"><ele>629.0</ele><time>2026-04-21T15:36:06.663Z</time></trkpt><trkpt lat="44.5446517" lon="9.2624033"><ele>639.0</ele><time>2026-04-21T15:36:07.663Z</time></trkpt><trkpt lat="44.544735" lon="9.2626483"><ele>649.0</ele><time>2026-04-21T15:36:08.663Z</time></trkpt><trkpt lat="44.5448217" lon="9.26291"><ele>641.5</ele><time>2026-04-21T15:36:09.663Z</time></trkpt><trkpt lat="44.5450083" lon="9.2634567"><ele>634.0</ele><time>2026-04-21T15:36:11.664Z</time></trkpt><trkpt lat="44.5450967" lon="9.26373"><ele>629.6666666666667</ele><time>2026-04-21T15:36:12.663Z</time></trkpt><trkpt lat="44.5451883" lon="9.264005"><ele>625.3333333333334</ele><time>2026-04-21T15:36:13.663Z</time></trkpt><trkpt lat="44.545285" lon="9.2643"><ele>621.0</ele><time>2026-04-21T15:36:14.664Z</time></trkpt><trkpt lat="44.5453667" lon="9.264605"><ele>625.3333333333334</ele><time>2026-04-21T15:36:15.663Z</time></trkpt><trkpt lat="44.5454517" lon="9.2648883"><ele>629.6666666666667</ele><time>2026-04-21T15:36:16.664Z</time></trkpt><trkpt lat="44.54552" lon="9.26516"><ele>634.0</ele><time>2026-04-21T15:36:17.663Z</time></trkpt><trkpt lat="44.5455883" lon="9.265425"><ele>631.3333333333334</ele><time>2026-04-21T15:36:18.663Z</time></trkpt><trkpt lat="44.54565" lon="9.2656917"><ele>628.6666666666666</ele><time>2026-04-21T15:36:19.664Z</time></trkpt><trkpt lat="44.5457067" lon="9.2659433"><ele>626.0</ele><time>2026-04-21T15:36:20.663Z</time></trkpt><trkpt lat="44.5457633" lon="9.2661883"><ele>623.0</ele><time>2026-04-21T15:36:21.663Z</time></trkpt><trkpt lat="44.545805" lon="9.2664533"><ele>620.0</ele><time>2026-04-21T15:36:22.664Z</time></trkpt><trkpt lat="44.5458533" lon="9.26695"><ele>620.0</ele><time>2026-04-21T15:36:24.663Z</time></trkpt><trkpt lat="44.5459017" lon="9.2671583"><ele>620.0</ele><time>2026-04-21T15:36:25.664Z</time></trkpt><trkpt lat="44.545975" lon="9.26735"><ele>620.0</ele><time>2026-04-21T15:36:26.663Z</time></trkpt><trkpt lat="44.54609" lon="9.2675333"><ele>621.6666666666666</ele><time>2026-04-21T15:36:27.664Z</time></trkpt><trkpt lat="44.5462317" lon="9.2677167"><ele>623.3333333333334</ele><time>2026-04-21T15:36:28.664Z</time></trkpt><trkpt lat="44.546385" lon="9.2678983"><ele>625.0</ele><time>2026-04-21T15:36:29.663Z</time></trkpt><trkpt lat="44.5465383" lon="9.2680883"><ele>623.3333333333334</ele><time>2026-04-21T15:36:30.663Z</time></trkpt><trkpt lat="44.5466967" lon="9.2682883"><ele>621.6666666666666</ele><time>2026-04-21T15:36:31.664Z</time></trkpt><trkpt lat="44.5468433" lon="9.268475"><ele>620.0</ele><time>2026-04-21T15:36:32.663Z</time></trkpt><trkpt lat="44.5469667" lon="9.26864"><ele>622.0</ele><time>2026-04-21T15:36:33.664Z</time></trkpt><trkpt lat="44.54707" lon="9.26882"><ele>624.0</ele><time>2026-04-21T15:36:34.664Z</time></trkpt><trkpt lat="44.547155" lon="9.2690167"><ele>626.0</ele><time>2026-04-21T15:36:35.663Z</time></trkpt><trkpt lat="44.5472317" lon="9.2692467"><ele>626.0</ele><time>2026-04-21T15:36:36.664Z</time></trkpt><trkpt lat="44.5473133" lon="9.26949"><ele>626.0</ele><time>2026-04-21T15:36:37.664Z</time></trkpt><trkpt lat="44.5473983" lon="9.269715"><ele>626.0</ele><time>2026-04-21T15:36:38.663Z</time></trkpt><trkpt lat="44.5474733" lon="9.269925"><ele>622.3333333333333</ele><time>2026-04-21T15:36:39.664Z</time></trkpt><trkpt lat="44.54756" lon="9.27012"><ele>618.6666666666666</ele><time>2026-04-21T15:36:40.663Z</time></trkpt><trkpt lat="44.5476583" lon="9.2703"><ele>615.0</ele><time>2026-04-21T15:36:41.663Z</time></trkpt><trkpt lat="44.5477783" lon="9.2704567"><ele>615.6666666666666</ele><time>2026-04-21T15:36:42.664Z</time></trkpt><trkpt lat="44.547925" lon="9.27062"><ele>616.3333333333333</ele><time>2026-04-21T15:36:43.664Z</time></trkpt><trkpt lat="44.54809" lon="9.2707433"><ele>617.0</ele><time>2026-04-21T15:36:44.664Z</time></trkpt><trkpt lat="44.5482667" lon="9.270865"><ele>617.0</ele><time>2026-04-21T15:36:45.664Z</time></trkpt><trkpt lat="44.5484517" lon="9.27097"><ele>617.0</ele><time>2026-04-21T15:36:46.663Z</time></trkpt><trkpt lat="44.5486383" lon="9.27106"><ele>617.0</ele><time>2026-04-21T15:36:47.663Z</time></trkpt><trkpt lat="44.5488367" lon="9.2711517"><ele>615.3333333333333</ele><time>2026-04-21T15:36:48.663Z</time></trkpt><trkpt lat="44.5490383" lon="9.2712417"><ele>613.6666666666666</ele><time>2026-04-21T15:36:49.664Z</time></trkpt><trkpt lat="44.5492283" lon="9.2713383"><ele>612.0</ele><time>2026-04-21T15:36:50.664Z</time></trkpt><trkpt lat="44.5494117" lon="9.271455"><ele>619.6666666666666</ele><time>2026-04-21T15:36:51.664Z</time></trkpt><trkpt lat="44.5495933" lon="9.2715733"><ele>627.3333333333333</ele><time>2026-04-21T15:36:52.663Z</time></trkpt><trkpt lat="44.54978" lon="9.2716883"><ele>635.0</ele><time>2026-04-21T15:36:53.663Z</time></trkpt><trkpt lat="44.5499717" lon="9.27181"><ele>635.0</ele><time>2026-04-21T15:36:54.664Z</time></trkpt><trkpt lat="44.5501567" lon="9.2719333"><ele>635.0</ele><time>2026-04-21T15:36:55.663Z</time></trkpt><trkpt lat="44.55032" lon="9.2720733"><ele>635.0</ele><time>2026-04-21T15:36:56.663Z</time></trkpt><trkpt lat="44.550465" lon="9.2722067"><ele>636.0</ele><time>2026-04-21T15:36:57.663Z</time></trkpt><trkpt lat="44.5505917" lon="9.2723683"><ele>637.0</ele><time>2026-04-21T15:36:58.663Z</time></trkpt><trkpt lat="44.55084" lon="9.2727417"><ele>637.0</ele><time>2026-04-21T15:37:00.664Z</time></trkpt><trkpt lat="44.5509517" lon="9.2729267"><ele>637.0</ele><time>2026-04-21T15:37:01.664Z</time></trkpt><trkpt lat="44.5510533" lon="9.2731283"><ele>637.0</ele><time>2026-04-21T15:37:02.664Z</time></trkpt><trkpt lat="44.5511517" lon="9.27331"><ele>644.0</ele><time>2026-04-21T15:37:03.664Z</time></trkpt><trkpt lat="44.5512383" lon="9.2734817"><ele>651.0</ele><time>2026-04-21T15:37:04.664Z</time></trkpt><trkpt lat="44.5513183" lon="9.2736733"><ele>658.0</ele><time>2026-04-21T15:37:05.663Z</time></trkpt><trkpt lat="44.5513817" lon="9.27388"><ele>649.0</ele><time>2026-04-21T15:37:06.664Z</time></trkpt><trkpt lat="44.5514333" lon="9.27411"><ele>640.0</ele><time>2026-04-21T15:37:07.663Z</time></trkpt><trkpt lat="44.55148" lon="9.2743267"><ele>631.0</ele><time>2026-04-21T15:37:08.664Z</time></trkpt><trkpt lat="44.5515217" lon="9.2745167"><ele>631.0</ele><time>2026-04-21T15:37:09.663Z</time></trkpt><trkpt lat="44.551605" lon="9.27469"><ele>631.0</ele><time>2026-04-21T15:37:10.664Z</time></trkpt><trkpt lat="44.551705" lon="9.274855"><ele>631.0</ele><time>2026-04-21T15:37:11.663Z</time></trkpt><trkpt lat="44.5517917" lon="9.274985"><ele>631.0</ele><time>2026-04-21T15:37:12.663Z</time></trkpt><trkpt lat="44.551855" lon="9.2751267"><ele>627.5</ele><time>2026-04-21T15:37:13.663Z</time></trkpt><trkpt lat="44.5518817" lon="9.2752517"><ele>624.0</ele><time>2026-04-21T15:37:14.664Z</time></trkpt><trkpt lat="44.551875" lon="9.2753967"><ele>620.5</ele><time>2026-04-21T15:37:15.663Z</time></trkpt><trkpt lat="44.5518317" lon="9.2755883"><ele>617.0</ele><time>2026-04-21T15:37:16.663Z</time></trkpt><trkpt lat="44.5517783" lon="9.2758033"><ele>618.3333333333333</ele><time>2026-04-21T15:37:17.664Z</time></trkpt><trkpt lat="44.5517267" lon="9.2760167"><ele>619.6666666666666</ele><time>2026-04-21T15:37:18.663Z</time></trkpt><trkpt lat="44.5516717" lon="9.2762417"><ele>621.0</ele><time>2026-04-21T15:37:19.664Z</time></trkpt><trkpt lat="44.55162" lon="9.276485"><ele>621.0</ele><time>2026-04-21T15:37:20.663Z</time></trkpt><trkpt lat="44.551565" lon="9.2767367"><ele>621.0</ele><time>2026-04-21T15:37:21.663Z</time></trkpt><trkpt lat="44.55151" lon="9.276975"><ele>621.0</ele><time>2026-04-21T15:37:22.664Z</time></trkpt><trkpt lat="44.55146" lon="9.2772117"><ele>621.6666666666666</ele><time>2026-04-21T15:37:23.664Z</time></trkpt><trkpt lat="44.5514283" lon="9.2774767"><ele>622.3333333333333</ele><time>2026-04-21T15:37:24.663Z</time></trkpt><trkpt lat="44.5514083" lon="9.277765"><ele>623.0</ele><time>2026-04-21T15:37:25.663Z</time></trkpt><trkpt lat="44.5514033" lon="9.27802"><ele>620.3333333333333</ele><time>2026-04-21T15:37:26.664Z</time></trkpt><trkpt lat="44.5513983" lon="9.278285"><ele>617.6666666666666</ele><time>2026-04-21T15:37:27.664Z</time></trkpt><trkpt lat="44.5514" lon="9.2785433"><ele>615.0</ele><time>2026-04-21T15:37:28.664Z</time></trkpt><trkpt lat="44.5514117" lon="9.2787333"><ele>615.0</ele><time>2026-04-21T15:37:29.663Z</time></trkpt><trkpt lat="44.5514417" lon="9.2789017"><ele>615.0</ele><time>2026-04-21T15:37:30.663Z</time></trkpt><trkpt lat="44.5515" lon="9.2790533"><ele>615.0</ele><time>2026-04-21T15:37:31.663Z</time></trkpt><trkpt lat="44.5515967" lon="9.2791867"><ele>615.0</ele><time>2026-04-21T15:37:32.664Z</time></trkpt><trkpt lat="44.551715" lon="9.2793117"><ele>616.3333333333334</ele><time>2026-04-21T15:37:33.663Z</time></trkpt><trkpt lat="44.55185" lon="9.2794383"><ele>617.6666666666667</ele><time>2026-04-21T15:37:34.664Z</time></trkpt><trkpt lat="44.55199" lon="9.2795583"><ele>619.0</ele><time>2026-04-21T15:37:35.663Z</time></trkpt><trkpt lat="44.5521383" lon="9.2796783"><ele>616.6666666666667</ele><time>2026-04-21T15:37:36.663Z</time></trkpt><trkpt lat="44.55228" lon="9.2797883"><ele>614.3333333333334</ele><time>2026-04-21T15:37:37.663Z</time></trkpt><trkpt lat="44.5524183" lon="9.2799067"><ele>612.0</ele><time>2026-04-21T15:37:38.664Z</time></trkpt><trkpt lat="44.5525633" lon="9.2800117"><ele>612.0</ele><time>2026-04-21T15:37:39.664Z</time></trkpt><trkpt lat="44.5527133" lon="9.2801"><ele>612.0</ele><time>2026-04-21T15:37:40.663Z</time></trkpt><trkpt lat="44.552865" lon="9.2802033"><ele>612.0</ele><time>2026-04-21T15:37:41.663Z</time></trkpt><trkpt lat="44.553175" lon="9.2804217"><ele>610.6666666666666</ele><time>2026-04-21T15:37:43.663Z</time></trkpt><trkpt lat="44.5533317" lon="9.2805117"><ele>609.3333333333333</ele><time>2026-04-21T15:37:44.663Z</time></trkpt><trkpt lat="44.5534933" lon="9.280625"><ele>608.0</ele><time>2026-04-21T15:37:45.664Z</time></trkpt><trkpt lat="44.553655" lon="9.2807183"><ele>614.0</ele><time>2026-04-21T15:37:46.663Z</time></trkpt><trkpt lat="44.5538167" lon="9.2808283"><ele>620.0</ele><time>2026-04-21T15:37:47.663Z</time></trkpt><trkpt lat="44.553965" lon="9.2809133"><ele>626.0</ele><time>2026-04-21T15:37:48.663Z</time></trkpt><trkpt lat="44.55411" lon="9.2809983"><ele>626.0</ele><time>2026-04-21T15:37:49.663Z</time></trkpt><trkpt lat="44.5542333" lon="9.2811233"><ele>626.0</ele><time>2026-04-21T15:37:50.663Z</time></trkpt><trkpt lat="44.5543433" lon="9.281265"><ele>626.0</ele><time>2026-04-21T15:37:51.664Z</time></trkpt><trkpt lat="44.5544333" lon="9.2814317"><ele>625.0</ele><time>2026-04-21T15:37:52.663Z</time></trkpt><trkpt lat="44.55453" lon="9.2816067"><ele>624.0</ele><time>2026-04-21T15:37:53.664Z</time></trkpt><trkpt lat="44.5547533" lon="9.2819633"><ele>624.0</ele><time>2026-04-21T15:37:55.664Z</time></trkpt><trkpt lat="44.55487" lon="9.28211"><ele>624.0</ele><time>2026-04-21T15:37:56.664Z</time></trkpt><trkpt lat="44.5549817" lon="9.28227"><ele>624.0</ele><time>2026-04-21T15:37:57.663Z</time></trkpt><trkpt lat="44.5550783" lon="9.2824283"><ele>618.5</ele><time>2026-04-21T15:37:58.663Z</time></trkpt><trkpt lat="44.5551567" lon="9.2825917"><ele>613.0</ele><time>2026-04-21T15:37:59.664Z</time></trkpt><trkpt lat="44.555225" lon="9.2827833"><ele>607.5</ele><time>2026-04-21T15:38:00.663Z</time></trkpt><trkpt lat="44.55528" lon="9.282975"><ele>602.0</ele><time>2026-04-21T15:38:01.663Z</time></trkpt><trkpt lat="44.5553367" lon="9.2831517"><ele>603.0</ele><time>2026-04-21T15:38:02.663Z</time></trkpt><trkpt lat="44.5554" lon="9.2832967"><ele>604.0</ele><time>2026-04-21T15:38:03.663Z</time></trkpt><trkpt lat="44.5554733" lon="9.28342"><ele>605.0</ele><time>2026-04-21T15:38:04.664Z</time></trkpt><trkpt lat="44.5555483" lon="9.2835167"><ele>606.0</ele><time>2026-04-21T15:38:05.663Z</time></trkpt><trkpt lat="44.5556317" lon="9.28358"><ele>607.0</ele><time>2026-04-21T15:38:06.663Z</time></trkpt><trkpt lat="44.5557183" lon="9.2836233"><ele>607.0</ele><time>2026-04-21T15:38:07.663Z</time></trkpt><trkpt lat="44.5558267" lon="9.2836267"><ele>607.0</ele><time>2026-04-21T15:38:08.664Z</time></trkpt><trkpt lat="44.5559517" lon="9.2835667"><ele>607.0</ele><time>2026-04-21T15:38:09.664Z</time></trkpt><trkpt lat="44.5560917" lon="9.283475"><ele>607.0</ele><time>2026-04-21T15:38:10.664Z</time></trkpt><trkpt lat="44.5562383" lon="9.2833733"><ele>605.6666666666667</ele><time>2026-04-21T15:38:11.664Z</time></trkpt><trkpt lat="44.5563917" lon="9.2832517"><ele>604.3333333333334</ele><time>2026-04-21T15:38:12.663Z</time></trkpt><trkpt lat="44.55655" lon="9.2831417"><ele>603.0</ele><time>2026-04-21T15:38:13.664Z</time></trkpt><trkpt lat="44.5567167" lon="9.2830317"><ele>603.0</ele><time>2026-04-21T15:38:14.663Z</time></trkpt><trkpt lat="44.5568817" lon="9.282935"><ele>603.0</ele><time>2026-04-21T15:38:15.664Z</time></trkpt><trkpt lat="44.55704" lon="9.2828517"><ele>603.0</ele><time>2026-04-21T15:38:16.663Z</time></trkpt><trkpt lat="44.5572017" lon="9.2827583"><ele>601.6666666666666</ele><time>2026-04-21T15:38:17.664Z</time></trkpt><trkpt lat="44.5573633" lon="9.2826467"><ele>600.3333333333333</ele><time>2026-04-21T15:38:18.663Z</time></trkpt><trkpt lat="44.557525" lon="9.28252"><ele>599.0</ele><time>2026-04-21T15:38:19.664Z</time></trkpt><trkpt lat="44.5576917" lon="9.282415"><ele>599.0</ele><time>2026-04-21T15:38:20.664Z</time></trkpt><trkpt lat="44.5578483" lon="9.2822933"><ele>599.0</ele><time>2026-04-21T15:38:21.664Z</time></trkpt><trkpt lat="44.5580033" lon="9.2821917"><ele>599.0</ele><time>2026-04-21T15:38:22.664Z</time></trkpt><trkpt lat="44.5581433" lon="9.2820933"><ele>600.75</ele><time>2026-04-21T15:38:23.663Z</time></trkpt><trkpt lat="44.5582817" lon="9.2820183"><ele>602.5</ele><time>2026-04-21T15:38:24.664Z</time></trkpt><trkpt lat="44.5584133" lon="9.2819683"><ele>604.25</ele><time>2026-04-21T15:38:25.663Z</time></trkpt><trkpt lat="44.5585433" lon="9.28195"><ele>606.0</ele><time>2026-04-21T15:38:26.664Z</time></trkpt><trkpt lat="44.5586783" lon="9.2819683"><ele>607.75</ele><time>2026-04-21T15:38:27.663Z</time></trkpt><trkpt lat="44.5588033" lon="9.2820233"><ele>609.5</ele><time>2026-04-21T15:38:28.663Z</time></trkpt><trkpt lat="44.5589217" lon="9.2821267"><ele>611.25</ele><time>2026-04-21T15:38:29.664Z</time></trkpt><trkpt lat="44.559025" lon="9.2822367"><ele>613.0</ele><time>2026-04-21T15:38:30.664Z</time></trkpt><trkpt lat="44.559125" lon="9.2823783"><ele>613.0</ele><time>2026-04-21T15:38:31.664Z</time></trkpt><trkpt lat="44.5591883" lon="9.28256"><ele>613.0</ele><time>2026-04-21T15:38:32.663Z</time></trkpt><trkpt lat="44.5592167" lon="9.2827717"><ele>613.0</ele><time>2026-04-21T15:38:33.664Z</time></trkpt><trkpt lat="44.55923" lon="9.2829883"><ele>610.0</ele><time>2026-04-21T15:38:34.663Z</time></trkpt><trkpt lat="44.55924" lon="9.2831967"><ele>607.0</ele><time>2026-04-21T15:38:35.663Z</time></trkpt><trkpt lat="44.5592567" lon="9.28337"><ele>604.0</ele><time>2026-04-21T15:38:36.663Z</time></trkpt><trkpt lat="44.5593117" lon="9.2835217"><ele>601.0</ele><time>2026-04-21T15:38:37.664Z</time></trkpt><trkpt lat="44.5594083" lon="9.2836517"><ele>601.0</ele><time>2026-04-21T15:38:38.664Z</time></trkpt><trkpt lat="44.55953" lon="9.2837467"><ele>601.0</ele><time>2026-04-21T15:38:39.663Z</time></trkpt><trkpt lat="44.559665" lon="9.2838017"><ele>601.0</ele><time>2026-04-21T15:38:40.664Z</time></trkpt><trkpt lat="44.5598233" lon="9.2838233"><ele>601.0</ele><time>2026-04-21T15:38:41.663Z</time></trkpt><trkpt lat="44.5600017" lon="9.2838267"><ele>610.0</ele><time>2026-04-21T15:38:42.663Z</time></trkpt><trkpt lat="44.56019" lon="9.28383"><ele>619.0</ele><time>2026-04-21T15:38:43.663Z</time></trkpt><trkpt lat="44.5603783" lon="9.28384"><ele>628.0</ele><time>2026-04-21T15:38:44.663Z</time></trkpt><trkpt lat="44.560575" lon="9.2838383"><ele>628.0</ele><time>2026-04-21T15:38:45.663Z</time></trkpt><trkpt lat="44.5607817" lon="9.2838383"><ele>628.0</ele><time>2026-04-21T15:38:46.663Z</time></trkpt><trkpt lat="44.5609767" lon="9.2838217"><ele>628.0</ele><time>2026-04-21T15:38:47.663Z</time></trkpt><trkpt lat="44.5611683" lon="9.283795"><ele>623.6666666666667</ele><time>2026-04-21T15:38:48.664Z</time></trkpt><trkpt lat="44.561345" lon="9.283765"><ele>619.3333333333334</ele><time>2026-04-21T15:38:49.664Z</time></trkpt><trkpt lat="44.561525" lon="9.28372"><ele>615.0</ele><time>2026-04-21T15:38:50.663Z</time></trkpt><trkpt lat="44.5617" lon="9.2836683"><ele>615.0</ele><time>2026-04-21T15:38:51.664Z</time></trkpt><trkpt lat="44.5618683" lon="9.2836017"><ele>615.0</ele><time>2026-04-21T15:38:52.664Z</time></trkpt><trkpt lat="44.5620367" lon="9.28351"><ele>615.0</ele><time>2026-04-21T15:38:53.663Z</time></trkpt><trkpt lat="44.5622" lon="9.2834033"><ele>611.3333333333334</ele><time>2026-04-21T15:38:54.664Z</time></trkpt><trkpt lat="44.562365" lon="9.2832517"><ele>607.6666666666667</ele><time>2026-04-21T15:38:55.663Z</time></trkpt><trkpt lat="44.5625183" lon="9.2830667"><ele>604.0</ele><time>2026-04-21T15:38:56.663Z</time></trkpt><trkpt lat="44.5627" lon="9.2829017"><ele>599.0</ele><time>2026-04-21T15:38:57.664Z</time></trkpt><trkpt lat="44.5628783" lon="9.2827367"><ele>594.0</ele><time>2026-04-21T15:38:58.663Z</time></trkpt><trkpt lat="44.5630683" lon="9.2825583"><ele>589.0</ele><time>2026-04-21T15:38:59.663Z</time></trkpt><trkpt lat="44.5632667" lon="9.2823867"><ele>599.5</ele><time>2026-04-21T15:39:00.663Z</time></trkpt><trkpt lat="44.56346" lon="9.2821867"><ele>610.0</ele><time>2026-04-21T15:39:01.664Z</time></trkpt><trkpt lat="44.5636483" lon="9.2820067"><ele>600.0</ele><time>2026-04-21T15:39:02.663Z</time></trkpt><trkpt lat="44.563835" lon="9.2818233"><ele>590.0</ele><time>2026-04-21T15:39:03.664Z</time></trkpt><trkpt lat="44.5640233" lon="9.281645"><ele>590.0</ele><time>2026-04-21T15:39:04.663Z</time></trkpt><trkpt lat="44.5642067" lon="9.281465"><ele>590.0</ele><time>2026-04-21T15:39:05.663Z</time></trkpt><trkpt lat="44.5643817" lon="9.2812983"><ele>590.0</ele><time>2026-04-21T15:39:06.664Z</time></trkpt><trkpt lat="44.56452" lon="9.281145"><ele>590.25</ele><time>2026-04-21T15:39:07.663Z</time></trkpt><trkpt lat="44.564635" lon="9.2809967"><ele>590.5</ele><time>2026-04-21T15:39:08.664Z</time></trkpt><trkpt lat="44.564725" lon="9.2808683"><ele>590.75</ele><time>2026-04-21T15:39:09.663Z</time></trkpt><trkpt lat="44.564815" lon="9.2807733"><ele>591.0</ele><time>2026-04-21T15:39:10.663Z</time></trkpt><trkpt lat="44.5649083" lon="9.28074"><ele>591.0</ele><time>2026-04-21T15:39:11.664Z</time></trkpt><trkpt lat="44.5650033" lon="9.2807667"><ele>591.0</ele><time>2026-04-21T15:39:12.664Z</time></trkpt><trkpt lat="44.5651067" lon="9.280845"><ele>591.0</ele><time>2026-04-21T15:39:13.664Z</time></trkpt><trkpt lat="44.5652233" lon="9.2809517"><ele>591.0</ele><time>2026-04-21T15:39:14.663Z</time></trkpt><trkpt lat="44.5653533" lon="9.2810617"><ele>591.6</ele><time>2026-04-21T15:39:15.663Z</time></trkpt><trkpt lat="44.5654617" lon="9.2811367"><ele>592.2</ele><time>2026-04-21T15:39:16.663Z</time></trkpt><trkpt lat="44.56556" lon="9.2811633"><ele>592.8</ele><time>2026-04-21T15:39:17.663Z</time></trkpt><trkpt lat="44.5656633" lon="9.2811383"><ele>593.4</ele><time>2026-04-21T15:39:18.664Z</time></trkpt><trkpt lat="44.5657617" lon="9.2810583"><ele>594.0</ele><time>2026-04-21T15:39:19.663Z</time></trkpt><trkpt lat="44.5658483" lon="9.2809367"><ele>594.0</ele><time>2026-04-21T15:39:20.663Z</time></trkpt><trkpt lat="44.56593" lon="9.2807867"><ele>594.0</ele><time>2026-04-21T15:39:21.663Z</time></trkpt><trkpt lat="44.5660017" lon="9.2805967"><ele>594.0</ele><time>2026-04-21T15:39:22.664Z</time></trkpt><trkpt lat="44.5660783" lon="9.2804033"><ele>594.0</ele><time>2026-04-21T15:39:23.664Z</time></trkpt><trkpt lat="44.5661567" lon="9.28019"><ele>596.0</ele><time>2026-04-21T15:39:24.664Z</time></trkpt><trkpt lat="44.56624" lon="9.2800017"><ele>598.0</ele><time>2026-04-21T15:39:25.664Z</time></trkpt><trkpt lat="44.5663233" lon="9.279825"><ele>600.0</ele><time>2026-04-21T15:39:26.664Z</time></trkpt><trkpt lat="44.5664217" lon="9.279675"><ele>596.0</ele><time>2026-04-21T15:39:27.663Z</time></trkpt><trkpt lat="44.566535" lon="9.279545"><ele>592.0</ele><time>2026-04-21T15:39:28.663Z</time></trkpt><trkpt lat="44.5666667" lon="9.2794183"><ele>588.0</ele><time>2026-04-21T15:39:29.664Z</time></trkpt><trkpt lat="44.5668267" lon="9.2793083"><ele>588.0</ele><time>2026-04-21T15:39:30.663Z</time></trkpt><trkpt lat="44.5669833" lon="9.27918"><ele>588.0</ele><time>2026-04-21T15:39:31.664Z</time></trkpt><trkpt lat="44.5671517" lon="9.2790483"><ele>588.0</ele><time>2026-04-21T15:39:32.663Z</time></trkpt><trkpt lat="44.5673183" lon="9.27892"><ele>587.3333333333334</ele><time>2026-04-21T15:39:33.663Z</time></trkpt><trkpt lat="44.567485" lon="9.278785"><ele>586.6666666666667</ele><time>2026-04-21T15:39:34.663Z</time></trkpt><trkpt lat="44.5676433" lon="9.2786533"><ele>586.0</ele><time>2026-04-21T15:39:35.664Z</time></trkpt><trkpt lat="44.5677983" lon="9.2785017"><ele>584.6666666666667</ele><time>2026-04-21T15:39:36.663Z</time></trkpt><trkpt lat="44.5679583" lon="9.27833"><ele>583.3333333333334</ele><time>2026-04-21T15:39:37.664Z</time></trkpt><trkpt lat="44.5681267" lon="9.278155"><ele>582.0</ele><time>2026-04-21T15:39:38.664Z</time></trkpt><trkpt lat="44.5682967" lon="9.27798"><ele>582.0</ele><time>2026-04-21T15:39:39.664Z</time></trkpt><trkpt lat="44.5684683" lon="9.2778083"><ele>582.0</ele><time>2026-04-21T15:39:40.663Z</time></trkpt><trkpt lat="44.5686317" lon="9.2776433"><ele>582.0</ele><time>2026-04-21T15:39:41.663Z</time></trkpt><trkpt lat="44.5687783" lon="9.2774917"><ele>582.0</ele><time>2026-04-21T15:39:42.663Z</time></trkpt><trkpt lat="44.5689017" lon="9.2773517"><ele>582.0</ele><time>2026-04-21T15:39:43.663Z</time></trkpt><trkpt lat="44.5690167" lon="9.2771983"><ele>582.0</ele><time>2026-04-21T15:39:44.663Z</time></trkpt><trkpt lat="44.5691033" lon="9.2770233"><ele>582.0</ele><time>2026-04-21T15:39:45.663Z</time></trkpt><trkpt lat="44.56916" lon="9.27684"><ele>582.0</ele><time>2026-04-21T15:39:46.663Z</time></trkpt><trkpt lat="44.5692117" lon="9.2766233"><ele>582.0</ele><time>2026-04-21T15:39:47.664Z</time></trkpt><trkpt lat="44.5692733" lon="9.2764283"><ele>581.75</ele><time>2026-04-21T15:39:48.663Z</time></trkpt><trkpt lat="44.5693567" lon="9.2762533"><ele>581.5</ele><time>2026-04-21T15:39:49.664Z</time></trkpt><trkpt lat="44.569455" lon="9.2761117"><ele>581.25</ele><time>2026-04-21T15:39:50.664Z</time></trkpt><trkpt lat="44.5695817" lon="9.2759833"><ele>581.0</ele><time>2026-04-21T15:39:51.664Z</time></trkpt><trkpt lat="44.5697283" lon="9.275895"><ele>582.0</ele><time>2026-04-21T15:39:52.663Z</time></trkpt><trkpt lat="44.5698833" lon="9.2758367"><ele>583.0</ele><time>2026-04-21T15:39:53.664Z</time></trkpt><trkpt lat="44.5700567" lon="9.2758067"><ele>584.0</ele><time>2026-04-21T15:39:54.663Z</time></trkpt><trkpt lat="44.5702283" lon="9.2757983"><ele>585.6666666666666</ele><time>2026-04-21T15:39:55.663Z</time></trkpt><trkpt lat="44.5703917" lon="9.2758067"><ele>587.3333333333334</ele><time>2026-04-21T15:39:56.663Z</time></trkpt><trkpt lat="44.5705417" lon="9.27584"><ele>589.0</ele><time>2026-04-21T15:39:57.664Z</time></trkpt><trkpt lat="44.5706883" lon="9.2759167"><ele>589.0</ele><time>2026-04-21T15:39:58.663Z</time></trkpt><trkpt lat="44.5708267" lon="9.276005"><ele>589.0</ele><time>2026-04-21T15:39:59.663Z</time></trkpt><trkpt lat="44.5709517" lon="9.276095"><ele>589.0</ele><time>2026-04-21T15:40:00.663Z</time></trkpt><trkpt lat="44.5710633" lon="9.2761567"><ele>589.0</ele><time>2026-04-21T15:40:01.663Z</time></trkpt><trkpt lat="44.5711767" lon="9.276195"><ele>589.0</ele><time>2026-04-21T15:40:02.664Z</time></trkpt><trkpt lat="44.5712833" lon="9.27618"><ele>589.0</ele><time>2026-04-21T15:40:03.664Z</time></trkpt><trkpt lat="44.5713883" lon="9.2760967"><ele>589.0</ele><time>2026-04-21T15:40:04.664Z</time></trkpt><trkpt lat="44.5714933" lon="9.2759567"><ele>589.0</ele><time>2026-04-21T15:40:05.663Z</time></trkpt><trkpt lat="44.571615" lon="9.2758133"><ele>589.0</ele><time>2026-04-21T15:40:06.664Z</time></trkpt><trkpt lat="44.5717517" lon="9.275675"><ele>589.0</ele><time>2026-04-21T15:40:07.664Z</time></trkpt><trkpt lat="44.5719117" lon="9.2755317"><ele>589.0</ele><time>2026-04-21T15:40:08.664Z</time></trkpt><trkpt lat="44.5720833" lon="9.2753967"><ele>588.3333333333334</ele><time>2026-04-21T15:40:09.665Z</time></trkpt><trkpt lat="44.5722533" lon="9.2752767"><ele>587.6666666666666</ele><time>2026-04-21T15:40:10.664Z</time></trkpt><trkpt lat="44.57242" lon="9.2751533"><ele>587.0</ele><time>2026-04-21T15:40:11.665Z</time></trkpt><trkpt lat="44.5725933" lon="9.2750367"><ele>587.0</ele><time>2026-04-21T15:40:12.664Z</time></trkpt><trkpt lat="44.5727667" lon="9.2749133"><ele>587.0</ele><time>2026-04-21T15:40:13.665Z</time></trkpt><trkpt lat="44.5729267" lon="9.27478"><ele>587.0</ele><time>2026-04-21T15:40:14.665Z</time></trkpt><trkpt lat="44.57307" lon="9.2746367"><ele>586.3333333333333</ele><time>2026-04-21T15:40:15.665Z</time></trkpt><trkpt lat="44.5732017" lon="9.2744817"><ele>585.6666666666666</ele><time>2026-04-21T15:40:16.664Z</time></trkpt><trkpt lat="44.5733483" lon="9.2743067"><ele>585.0</ele><time>2026-04-21T15:40:17.665Z</time></trkpt><trkpt lat="44.5734917" lon="9.2741233"><ele>585.0</ele><time>2026-04-21T15:40:18.665Z</time></trkpt><trkpt lat="44.573635" lon="9.2739533"><ele>585.0</ele><time>2026-04-21T15:40:19.664Z</time></trkpt><trkpt lat="44.5737883" lon="9.2737917"><ele>585.0</ele><time>2026-04-21T15:40:20.665Z</time></trkpt><trkpt lat="44.5739283" lon="9.27363"><ele>585.6666666666666</ele><time>2026-04-21T15:40:21.664Z</time></trkpt><trkpt lat="44.5740667" lon="9.2734767"><ele>586.3333333333333</ele><time>2026-04-21T15:40:22.664Z</time></trkpt><trkpt lat="44.5742033" lon="9.2733367"><ele>587.0</ele><time>2026-04-21T15:40:23.664Z</time></trkpt><trkpt lat="44.574325" lon="9.2731867"><ele>589.6666666666666</ele><time>2026-04-21T15:40:24.665Z</time></trkpt><trkpt lat="44.5744283" lon="9.2730233"><ele>592.3333333333334</ele><time>2026-04-21T15:40:25.664Z</time></trkpt><trkpt lat="44.5745067" lon="9.272825"><ele>595.0</ele><time>2026-04-21T15:40:26.664Z</time></trkpt><trkpt lat="44.5745717" lon="9.2725917"><ele>595.0</ele><time>2026-04-21T15:40:27.665Z</time></trkpt><trkpt lat="44.5746483" lon="9.2723617"><ele>595.0</ele><time>2026-04-21T15:40:28.665Z</time></trkpt><trkpt lat="44.5747267" lon="9.2721417"><ele>595.0</ele><time>2026-04-21T15:40:29.665Z</time></trkpt><trkpt lat="44.5748017" lon="9.2719233"><ele>592.3333333333334</ele><time>2026-04-21T15:40:30.664Z</time></trkpt><trkpt lat="44.5748917" lon="9.271725"><ele>589.6666666666666</ele><time>2026-04-21T15:40:31.665Z</time></trkpt><trkpt lat="44.5749817" lon="9.2715367"><ele>587.0</ele><time>2026-04-21T15:40:32.665Z</time></trkpt><trkpt lat="44.5750717" lon="9.27136"><ele>586.75</ele><time>2026-04-21T15:40:33.664Z</time></trkpt><trkpt lat="44.5751633" lon="9.2711867"><ele>586.5</ele><time>2026-04-21T15:40:34.664Z</time></trkpt><trkpt lat="44.57525" lon="9.271025"><ele>586.25</ele><time>2026-04-21T15:40:35.665Z</time></trkpt><trkpt lat="44.5753333" lon="9.2708883"><ele>586.0</ele><time>2026-04-21T15:40:36.664Z</time></trkpt><trkpt lat="44.575415" lon="9.270755"><ele>586.0</ele><time>2026-04-21T15:40:37.665Z</time></trkpt><trkpt lat="44.5754967" lon="9.2706567"><ele>586.0</ele><time>2026-04-21T15:40:38.665Z</time></trkpt><trkpt lat="44.5755783" lon="9.2705867"><ele>586.0</ele><time>2026-04-21T15:40:39.664Z</time></trkpt><trkpt lat="44.5756533" lon="9.2705433"><ele>586.0</ele><time>2026-04-21T15:40:40.664Z</time></trkpt><trkpt lat="44.57574" lon="9.2705033"><ele>586.0</ele><time>2026-04-21T15:40:41.665Z</time></trkpt><trkpt lat="44.57585" lon="9.27048"><ele>584.25</ele><time>2026-04-21T15:40:42.665Z</time></trkpt><trkpt lat="44.5759767" lon="9.2704483"><ele>582.5</ele><time>2026-04-21T15:40:43.665Z</time></trkpt><trkpt lat="44.5761317" lon="9.2704167"><ele>580.75</ele><time>2026-04-21T15:40:44.665Z</time></trkpt><trkpt lat="44.5762767" lon="9.2703783"><ele>579.0</ele><time>2026-04-21T15:40:45.665Z</time></trkpt><trkpt lat="44.576425" lon="9.2703417"><ele>578.5</ele><time>2026-04-21T15:40:46.664Z</time></trkpt><trkpt lat="44.5765567" lon="9.2703017"><ele>578.0</ele><time>2026-04-21T15:40:47.665Z</time></trkpt><trkpt lat="44.5767" lon="9.27026"><ele>577.5</ele><time>2026-04-21T15:40:48.665Z</time></trkpt><trkpt lat="44.576835" lon="9.2702383"><ele>577.0</ele><time>2026-04-21T15:40:49.665Z</time></trkpt><trkpt lat="44.5769683" lon="9.2702217"><ele>576.3333333333334</ele><time>2026-04-21T15:40:50.665Z</time></trkpt><trkpt lat="44.5771117" lon="9.2702283"><ele>575.6666666666666</ele><time>2026-04-21T15:40:51.665Z</time></trkpt><trkpt lat="44.577265" lon="9.270245"><ele>575.0</ele><time>2026-04-21T15:40:52.665Z</time></trkpt><trkpt lat="44.57743" lon="9.27026"><ele>575.0</ele><time>2026-04-21T15:40:53.664Z</time></trkpt><trkpt lat="44.5775983" lon="9.270265"><ele>575.0</ele><time>2026-04-21T15:40:54.665Z</time></trkpt><trkpt lat="44.5777683" lon="9.2702583"><ele>575.0</ele><time>2026-04-21T15:40:55.665Z</time></trkpt><trkpt lat="44.577945" lon="9.2702317"><ele>575.0</ele><time>2026-04-21T15:40:56.664Z</time></trkpt><trkpt lat="44.5781217" lon="9.2701917"><ele>575.0</ele><time>2026-04-21T15:40:57.664Z</time></trkpt><trkpt lat="44.5782967" lon="9.2701633"><ele>575.0</ele><time>2026-04-21T15:40:58.664Z</time></trkpt><trkpt lat="44.5784567" lon="9.2701167"><ele>575.0</ele><time>2026-04-21T15:40:59.665Z</time></trkpt><trkpt lat="44.57862" lon="9.27009"><ele>575.0</ele><time>2026-04-21T15:41:00.664Z</time></trkpt><trkpt lat="44.5787817" lon="9.270055"><ele>575.0</ele><time>2026-04-21T15:41:01.665Z</time></trkpt><trkpt lat="44.5789433" lon="9.2700267"><ele>575.3333333333333</ele><time>2026-04-21T15:41:02.664Z</time></trkpt><trkpt lat="44.5791017" lon="9.2700133"><ele>575.6666666666666</ele><time>2026-04-21T15:41:03.665Z</time></trkpt><trkpt lat="44.5792783" lon="9.270005"><ele>576.0</ele><time>2026-04-21T15:41:04.665Z</time></trkpt><trkpt lat="44.57947" lon="9.2700117"><ele>576.0</ele><time>2026-04-21T15:41:05.664Z</time></trkpt><trkpt lat="44.5796717" lon="9.2700367"><ele>576.0</ele><time>2026-04-21T15:41:06.665Z</time></trkpt><trkpt lat="44.5798517" lon="9.2700583"><ele>576.0</ele><time>2026-04-21T15:41:07.665Z</time></trkpt><trkpt lat="44.580035" lon="9.2700667"><ele>576.0</ele><time>2026-04-21T15:41:08.665Z</time></trkpt><trkpt lat="44.5802183" lon="9.270095"><ele>576.0</ele><time>2026-04-21T15:41:09.664Z</time></trkpt><trkpt lat="44.5803967" lon="9.2701117"><ele>576.0</ele><time>2026-04-21T15:41:10.664Z</time></trkpt><trkpt lat="44.5805767" lon="9.2701417"><ele>575.0</ele><time>2026-04-21T15:41:11.665Z</time></trkpt><trkpt lat="44.5807617" lon="9.2701833"><ele>574.0</ele><time>2026-04-21T15:41:12.665Z</time></trkpt><trkpt lat="44.5809367" lon="9.27022"><ele>573.0</ele><time>2026-04-21T15:41:13.664Z</time></trkpt><trkpt lat="44.581105" lon="9.2702867"><ele>571.0</ele><time>2026-04-21T15:41:14.664Z</time></trkpt><trkpt lat="44.58127" lon="9.2703767"><ele>569.0</ele><time>2026-04-21T15:41:15.665Z</time></trkpt><trkpt lat="44.58144" lon="9.270475"><ele>567.0</ele><time>2026-04-21T15:41:16.665Z</time></trkpt><trkpt lat="44.5816167" lon="9.2705833"><ele>567.3333333333334</ele><time>2026-04-21T15:41:17.664Z</time></trkpt><trkpt lat="44.58179" lon="9.2707067"><ele>567.6666666666667</ele><time>2026-04-21T15:41:18.664Z</time></trkpt><trkpt lat="44.5819683" lon="9.2708333"><ele>568.0</ele><time>2026-04-21T15:41:19.664Z</time></trkpt><trkpt lat="44.5821533" lon="9.2709633"><ele>568.0</ele><time>2026-04-21T15:41:20.664Z</time></trkpt><trkpt lat="44.5823367" lon="9.2710917"><ele>568.0</ele><time>2026-04-21T15:41:21.665Z</time></trkpt><trkpt lat="44.58252" lon="9.2712183"><ele>568.0</ele><time>2026-04-21T15:41:22.664Z</time></trkpt><trkpt lat="44.5826933" lon="9.27134"><ele>569.3333333333334</ele><time>2026-04-21T15:41:23.664Z</time></trkpt><trkpt lat="44.58286" lon="9.271455"><ele>570.6666666666666</ele><time>2026-04-21T15:41:24.665Z</time></trkpt><trkpt lat="44.5830217" lon="9.2715733"><ele>572.0</ele><time>2026-04-21T15:41:25.664Z</time></trkpt><trkpt lat="44.58317" lon="9.2716767"><ele>572.0</ele><time>2026-04-21T15:41:26.664Z</time></trkpt><trkpt lat="44.5833133" lon="9.2717867"><ele>572.0</ele><time>2026-04-21T15:41:27.664Z</time></trkpt><trkpt lat="44.5834383" lon="9.2719067"><ele>572.0</ele><time>2026-04-21T15:41:28.665Z</time></trkpt><trkpt lat="44.583565" lon="9.272075"><ele>571.0</ele><time>2026-04-21T15:41:29.665Z</time></trkpt><trkpt lat="44.5837" lon="9.27228"><ele>570.0</ele><time>2026-04-21T15:41:30.665Z</time></trkpt><trkpt lat="44.5838083" lon="9.2724983"><ele>569.0</ele><time>2026-04-21T15:41:31.665Z</time></trkpt><trkpt lat="44.5839383" lon="9.2727267"><ele>569.0</ele><time>2026-04-21T15:41:32.664Z</time></trkpt><trkpt lat="44.58406" lon="9.27295"><ele>569.0</ele><time>2026-04-21T15:41:33.665Z</time></trkpt><trkpt lat="44.5841933" lon="9.2731783"><ele>569.0</ele><time>2026-04-21T15:41:34.665Z</time></trkpt><trkpt lat="44.5843117" lon="9.273395"><ele>567.3333333333333</ele><time>2026-04-21T15:41:35.664Z</time></trkpt><trkpt lat="44.5844217" lon="9.2736067"><ele>565.6666666666666</ele><time>2026-04-21T15:41:36.664Z</time></trkpt><trkpt lat="44.5845317" lon="9.2738217"><ele>564.0</ele><time>2026-04-21T15:41:37.664Z</time></trkpt><trkpt lat="44.5846333" lon="9.2740517"><ele>564.0</ele><time>2026-04-21T15:41:38.664Z</time></trkpt><trkpt lat="44.58473" lon="9.274285"><ele>564.0</ele><time>2026-04-21T15:41:39.664Z</time></trkpt><trkpt lat="44.5848117" lon="9.274535"><ele>564.0</ele><time>2026-04-21T15:41:40.665Z</time></trkpt><trkpt lat="44.584895" lon="9.2747883"><ele>565.3333333333334</ele><time>2026-04-21T15:41:41.664Z</time></trkpt><trkpt lat="44.5849583" lon="9.2750167"><ele>566.6666666666667</ele><time>2026-04-21T15:41:42.665Z</time></trkpt><trkpt lat="44.5850517" lon="9.2752383"><ele>568.0</ele><time>2026-04-21T15:41:43.664Z</time></trkpt><trkpt lat="44.5851367" lon="9.2754583"><ele>570.6666666666667</ele><time>2026-04-21T15:41:44.664Z</time></trkpt><trkpt lat="44.5852017" lon="9.275665"><ele>573.3333333333334</ele><time>2026-04-21T15:41:45.664Z</time></trkpt><trkpt lat="44.585255" lon="9.2758967"><ele>576.0</ele><time>2026-04-21T15:41:46.665Z</time></trkpt><trkpt lat="44.5852833" lon="9.2761267"><ele>576.0</ele><time>2026-04-21T15:41:47.664Z</time></trkpt><trkpt lat="44.5852983" lon="9.2763917"><ele>576.0</ele><time>2026-04-21T15:41:48.665Z</time></trkpt><trkpt lat="44.5853033" lon="9.2766433"><ele>576.0</ele><time>2026-04-21T15:41:49.665Z</time></trkpt><trkpt lat="44.58531" lon="9.2768917"><ele>575.0</ele><time>2026-04-21T15:41:50.665Z</time></trkpt><trkpt lat="44.5853317" lon="9.277125"><ele>574.0</ele><time>2026-04-21T15:41:51.665Z</time></trkpt><trkpt lat="44.5853567" lon="9.277345"><ele>573.0</ele><time>2026-04-21T15:41:52.665Z</time></trkpt><trkpt lat="44.585415" lon="9.2775483"><ele>570.0</ele><time>2026-04-21T15:41:53.665Z</time></trkpt><trkpt lat="44.585495" lon="9.2777367"><ele>567.0</ele><time>2026-04-21T15:41:54.664Z</time></trkpt><trkpt lat="44.5856017" lon="9.277945"><ele>564.0</ele><time>2026-04-21T15:41:55.665Z</time></trkpt><trkpt lat="44.5857083" lon="9.2781567"><ele>564.0</ele><time>2026-04-21T15:41:56.665Z</time></trkpt><trkpt lat="44.5858033" lon="9.2783633"><ele>564.0</ele><time>2026-04-21T15:41:57.665Z</time></trkpt><trkpt lat="44.5858867" lon="9.2785533"><ele>564.0</ele><time>2026-04-21T15:41:58.665Z</time></trkpt><trkpt lat="44.5859567" lon="9.2787467"><ele>566.75</ele><time>2026-04-21T15:41:59.664Z</time></trkpt><trkpt lat="44.5860117" lon="9.2789533"><ele>569.5</ele><time>2026-04-21T15:42:00.664Z</time></trkpt><trkpt lat="44.586055" lon="9.279155"><ele>572.25</ele><time>2026-04-21T15:42:01.664Z</time></trkpt><trkpt lat="44.5860933" lon="9.279335"><ele>575.0</ele><time>2026-04-21T15:42:02.664Z</time></trkpt><trkpt lat="44.5861483" lon="9.2794833"><ele>570.2</ele><time>2026-04-21T15:42:03.665Z</time></trkpt><trkpt lat="44.58618" lon="9.2796"><ele>565.4</ele><time>2026-04-21T15:42:04.665Z</time></trkpt><trkpt lat="44.586235" lon="9.27972"><ele>560.6</ele><time>2026-04-21T15:42:06.664Z</time></trkpt><trkpt lat="44.586265" lon="9.2798933"><ele>555.8</ele><time>2026-04-21T15:45:13.664Z</time></trkpt><trkpt lat="44.58632" lon="9.2800167"><ele>551.0</ele><time>2026-04-21T15:45:14.665Z</time></trkpt><trkpt lat="44.58638" lon="9.2801617"><ele>551.0</ele><time>2026-04-21T15:45:15.665Z</time></trkpt><trkpt lat="44.586465" lon="9.28033"><ele>551.0</ele><time>2026-04-21T15:45:16.665Z</time></trkpt><trkpt lat="44.586535" lon="9.2805133"><ele>551.0</ele><time>2026-04-21T15:45:17.665Z</time></trkpt><trkpt lat="44.586615" lon="9.2807083"><ele>553.75</ele><time>2026-04-21T15:45:18.665Z</time></trkpt><trkpt lat="44.5866883" lon="9.2808933"><ele>556.5</ele><time>2026-04-21T15:45:19.665Z</time></trkpt><trkpt lat="44.5867633" lon="9.281065"><ele>559.25</ele><time>2026-04-21T15:45:20.665Z</time></trkpt><trkpt lat="44.5868517" lon="9.28123"><ele>562.0</ele><time>2026-04-21T15:45:21.665Z</time></trkpt><trkpt lat="44.5869517" lon="9.281395"><ele>561.3333333333334</ele><time>2026-04-21T15:45:22.664Z</time></trkpt><trkpt lat="44.58707" lon="9.281555"><ele>560.6666666666666</ele><time>2026-04-21T15:45:23.664Z</time></trkpt><trkpt lat="44.5871917" lon="9.2816883"><ele>560.0</ele><time>2026-04-21T15:45:24.665Z</time></trkpt><trkpt lat="44.5873133" lon="9.2818067"><ele>560.0</ele><time>2026-04-21T15:45:25.665Z</time></trkpt><trkpt lat="44.5874333" lon="9.2818933"><ele>560.0</ele><time>2026-04-21T15:45:26.665Z</time></trkpt><trkpt lat="44.587545" lon="9.2819817"><ele>560.0</ele><time>2026-04-21T15:45:27.665Z</time></trkpt><trkpt lat="44.5876583" lon="9.2820417"><ele>560.0</ele><time>2026-04-21T15:45:28.665Z</time></trkpt><trkpt lat="44.5877683" lon="9.2820717"><ele>560.0</ele><time>2026-04-21T15:45:29.665Z</time></trkpt><trkpt lat="44.5878867" lon="9.2820783"><ele>560.0</ele><time>2026-04-21T15:45:30.664Z</time></trkpt><trkpt lat="44.588005" lon="9.2820417"><ele>560.0</ele><time>2026-04-21T15:45:31.664Z</time></trkpt><trkpt lat="44.5881317" lon="9.2819667"><ele>560.0</ele><time>2026-04-21T15:45:32.664Z</time></trkpt><trkpt lat="44.58825" lon="9.281885"><ele>560.0</ele><time>2026-04-21T15:45:33.664Z</time></trkpt><trkpt lat="44.5883633" lon="9.28182"><ele>560.0</ele><time>2026-04-21T15:45:34.664Z</time></trkpt><trkpt lat="44.5884783" lon="9.2817833"><ele>560.0</ele><time>2026-04-21T15:45:35.664Z</time></trkpt><trkpt lat="44.5885883" lon="9.2817783"><ele>560.0</ele><time>2026-04-21T15:45:36.664Z</time></trkpt><trkpt lat="44.58868" lon="9.28181"><ele>560.0</ele><time>2026-04-21T15:45:37.665Z</time></trkpt><trkpt lat="44.5887733" lon="9.2818933"><ele>560.0</ele><time>2026-04-21T15:45:38.664Z</time></trkpt><trkpt lat="44.5888617" lon="9.2820133"><ele>560.0</ele><time>2026-04-21T15:45:39.664Z</time></trkpt><trkpt lat="44.5889467" lon="9.282175"><ele>560.0</ele><time>2026-04-21T15:45:40.664Z</time></trkpt><trkpt lat="44.589025" lon="9.2823717"><ele>560.0</ele><time>2026-04-21T15:45:41.665Z</time></trkpt><trkpt lat="44.5891" lon="9.2826017"><ele>560.0</ele><time>2026-04-21T15:45:42.665Z</time></trkpt><trkpt lat="44.589165" lon="9.2828383"><ele>560.0</ele><time>2026-04-21T15:45:43.665Z</time></trkpt><trkpt lat="44.5892067" lon="9.283065"><ele>560.0</ele><time>2026-04-21T15:45:44.664Z</time></trkpt><trkpt lat="44.5892317" lon="9.2832917"><ele>562.6666666666666</ele><time>2026-04-21T15:45:45.664Z</time></trkpt><trkpt lat="44.5892367" lon="9.2835317"><ele>565.3333333333334</ele><time>2026-04-21T15:45:46.664Z</time></trkpt><trkpt lat="44.5892267" lon="9.2837567"><ele>568.0</ele><time>2026-04-21T15:45:47.664Z</time></trkpt><trkpt lat="44.5892167" lon="9.28396"><ele>568.0</ele><time>2026-04-21T15:45:48.664Z</time></trkpt><trkpt lat="44.58923" lon="9.28417"><ele>568.0</ele><time>2026-04-21T15:45:49.665Z</time></trkpt><trkpt lat="44.5892883" lon="9.2843617"><ele>568.0</ele><time>2026-04-21T15:45:50.665Z</time></trkpt><trkpt lat="44.5893633" lon="9.2845733"><ele>571.3333333333334</ele><time>2026-04-21T15:45:51.665Z</time></trkpt><trkpt lat="44.589445" lon="9.2847883"><ele>574.6666666666666</ele><time>2026-04-21T15:45:52.665Z</time></trkpt><trkpt lat="44.5895367" lon="9.2850183"><ele>578.0</ele><time>2026-04-21T15:45:53.664Z</time></trkpt><trkpt lat="44.58962" lon="9.28523"><ele>571.6666666666666</ele><time>2026-04-21T15:45:54.664Z</time></trkpt><trkpt lat="44.589705" lon="9.285415"><ele>565.3333333333334</ele><time>2026-04-21T15:45:55.664Z</time></trkpt><trkpt lat="44.58981" lon="9.2855817"><ele>559.0</ele><time>2026-04-21T15:45:56.664Z</time></trkpt><trkpt lat="44.5899433" lon="9.28572"><ele>559.0</ele><time>2026-04-21T15:45:57.664Z</time></trkpt><trkpt lat="44.5900683" lon="9.2858433"><ele>559.0</ele><time>2026-04-21T15:45:58.665Z</time></trkpt><trkpt lat="44.590175" lon="9.2859867"><ele>559.0</ele><time>2026-04-21T15:45:59.665Z</time></trkpt><trkpt lat="44.5902567" lon="9.2861583"><ele>559.0</ele><time>2026-04-21T15:46:00.664Z</time></trkpt><trkpt lat="44.590335" lon="9.2863483"><ele>555.0</ele><time>2026-04-21T15:46:01.664Z</time></trkpt><trkpt lat="44.590405" lon="9.28656"><ele>551.0</ele><time>2026-04-21T15:46:02.665Z</time></trkpt><trkpt lat="44.5904717" lon="9.28679"><ele>547.0</ele><time>2026-04-21T15:46:03.664Z</time></trkpt><trkpt lat="44.5905333" lon="9.2870283"><ele>549.0</ele><time>2026-04-21T15:46:04.664Z</time></trkpt><trkpt lat="44.5906033" lon="9.28728"><ele>551.0</ele><time>2026-04-21T15:46:05.664Z</time></trkpt><trkpt lat="44.5906817" lon="9.287525"><ele>553.0</ele><time>2026-04-21T15:46:06.664Z</time></trkpt><trkpt lat="44.5907483" lon="9.2877533"><ele>553.0</ele><time>2026-04-21T15:46:07.664Z</time></trkpt><trkpt lat="44.590815" lon="9.2879667"><ele>553.0</ele><time>2026-04-21T15:46:08.665Z</time></trkpt><trkpt lat="44.5909017" lon="9.288155"><ele>553.0</ele><time>2026-04-21T15:46:09.664Z</time></trkpt><trkpt lat="44.591" lon="9.2883017"><ele>552.0</ele><time>2026-04-21T15:46:10.664Z</time></trkpt><trkpt lat="44.5911383" lon="9.2884067"><ele>551.0</ele><time>2026-04-21T15:46:11.664Z</time></trkpt><trkpt lat="44.5912567" lon="9.288505"><ele>550.0</ele><time>2026-04-21T15:46:12.665Z</time></trkpt><trkpt lat="44.59141" lon="9.28861"><ele>550.0</ele><time>2026-04-21T15:46:13.664Z</time></trkpt><trkpt lat="44.5915667" lon="9.2886967"><ele>550.0</ele><time>2026-04-21T15:46:14.664Z</time></trkpt><trkpt lat="44.5917283" lon="9.28877"><ele>550.0</ele><time>2026-04-21T15:46:15.665Z</time></trkpt><trkpt lat="44.5918883" lon="9.2888083"><ele>547.6666666666667</ele><time>2026-04-21T15:46:16.665Z</time></trkpt><trkpt lat="44.5920483" lon="9.2887933"><ele>545.3333333333334</ele><time>2026-04-21T15:46:17.664Z</time></trkpt><trkpt lat="44.59221" lon="9.288725"><ele>543.0</ele><time>2026-04-21T15:46:18.664Z</time></trkpt><trkpt lat="44.5923633" lon="9.288675"><ele>543.0</ele><time>2026-04-21T15:46:19.664Z</time></trkpt><trkpt lat="44.5925217" lon="9.2886783"><ele>543.0</ele><time>2026-04-21T15:46:20.664Z</time></trkpt><trkpt lat="44.592655" lon="9.2887233"><ele>543.0</ele><time>2026-04-21T15:46:21.665Z</time></trkpt><trkpt lat="44.5927817" lon="9.2888333"><ele>543.0</ele><time>2026-04-21T15:46:22.665Z</time></trkpt><trkpt lat="44.5928683" lon="9.2889633"><ele>544.3333333333334</ele><time>2026-04-21T15:46:23.664Z</time></trkpt><trkpt lat="44.5929583" lon="9.28914"><ele>545.6666666666667</ele><time>2026-04-21T15:46:24.665Z</time></trkpt><trkpt lat="44.5930533" lon="9.2893367"><ele>547.0</ele><time>2026-04-21T15:46:25.665Z</time></trkpt><trkpt lat="44.5931533" lon="9.2895483"><ele>552.3333333333334</ele><time>2026-04-21T15:46:26.665Z</time></trkpt><trkpt lat="44.593265" lon="9.2897717"><ele>557.6666666666666</ele><time>2026-04-21T15:46:27.665Z</time></trkpt><trkpt lat="44.5933633" lon="9.2899833"><ele>563.0</ele><time>2026-04-21T15:46:28.665Z</time></trkpt><trkpt lat="44.5934767" lon="9.2901867"><ele>563.0</ele><time>2026-04-21T15:46:29.664Z</time></trkpt><trkpt lat="44.5936017" lon="9.2903783"><ele>563.0</ele><time>2026-04-21T15:46:30.664Z</time></trkpt><trkpt lat="44.59371" lon="9.2905717"><ele>563.0</ele><time>2026-04-21T15:46:31.664Z</time></trkpt><trkpt lat="44.5938083" lon="9.2907917"><ele>560.0</ele><time>2026-04-21T15:46:32.665Z</time></trkpt><trkpt lat="44.5938933" lon="9.2910333"><ele>557.0</ele><time>2026-04-21T15:46:33.665Z</time></trkpt><trkpt lat="44.5939533" lon="9.291285"><ele>554.0</ele><time>2026-04-21T15:46:34.664Z</time></trkpt><trkpt lat="44.59401" lon="9.291535"><ele>554.0</ele><time>2026-04-21T15:46:35.665Z</time></trkpt><trkpt lat="44.594075" lon="9.2917467"><ele>554.0</ele><time>2026-04-21T15:46:36.665Z</time></trkpt><trkpt lat="44.5941617" lon="9.2919433"><ele>554.0</ele><time>2026-04-21T15:46:37.664Z</time></trkpt><trkpt lat="44.5942583" lon="9.292085"><ele>554.0</ele><time>2026-04-21T15:46:38.664Z</time></trkpt><trkpt lat="44.5943867" lon="9.2921967"><ele>554.0</ele><time>2026-04-21T15:46:39.664Z</time></trkpt><trkpt lat="44.5945233" lon="9.2922683"><ele>554.0</ele><time>2026-04-21T15:46:40.665Z</time></trkpt><trkpt lat="44.5946583" lon="9.2923117"><ele>554.0</ele><time>2026-04-21T15:46:41.665Z</time></trkpt><trkpt lat="44.5947933" lon="9.292355"><ele>554.25</ele><time>2026-04-21T15:46:42.664Z</time></trkpt><trkpt lat="44.594925" lon="9.2924333"><ele>554.5</ele><time>2026-04-21T15:46:43.664Z</time></trkpt><trkpt lat="44.595045" lon="9.2925467"><ele>554.75</ele><time>2026-04-21T15:46:44.665Z</time></trkpt><trkpt lat="44.5951617" lon="9.2926333"><ele>555.0</ele><time>2026-04-21T15:46:45.665Z</time></trkpt><trkpt lat="44.5952883" lon="9.292695"><ele>548.6666666666666</ele><time>2026-04-21T15:46:46.664Z</time></trkpt><trkpt lat="44.5954367" lon="9.2927433"><ele>542.3333333333333</ele><time>2026-04-21T15:46:47.664Z</time></trkpt><trkpt lat="44.5956" lon="9.2928017"><ele>536.0</ele><time>2026-04-21T15:46:48.664Z</time></trkpt><trkpt lat="44.5957767" lon="9.2928633"><ele>536.0</ele><time>2026-04-21T15:46:49.664Z</time></trkpt><trkpt lat="44.5959617" lon="9.2929183"><ele>536.0</ele><time>2026-04-21T15:46:50.665Z</time></trkpt><trkpt lat="44.5961567" lon="9.2929867"><ele>536.0</ele><time>2026-04-21T15:46:51.664Z</time></trkpt><trkpt lat="44.5963533" lon="9.2930283"><ele>541.0</ele><time>2026-04-21T15:46:52.665Z</time></trkpt><trkpt lat="44.596555" lon="9.2930917"><ele>546.0</ele><time>2026-04-21T15:46:53.664Z</time></trkpt><trkpt lat="44.5967433" lon="9.293155"><ele>551.0</ele><time>2026-04-21T15:46:54.665Z</time></trkpt><trkpt lat="44.59692" lon="9.2932233"><ele>548.6666666666666</ele><time>2026-04-21T15:46:55.664Z</time></trkpt><trkpt lat="44.5970683" lon="9.2933033"><ele>546.3333333333334</ele><time>2026-04-21T15:46:56.665Z</time></trkpt><trkpt lat="44.59723" lon="9.293405"><ele>544.0</ele><time>2026-04-21T15:46:57.664Z</time></trkpt><trkpt lat="44.5973917" lon="9.293525"><ele>544.0</ele><time>2026-04-21T15:46:58.665Z</time></trkpt><trkpt lat="44.5975517" lon="9.2936333"><ele>544.0</ele><time>2026-04-21T15:46:59.665Z</time></trkpt><trkpt lat="44.5977033" lon="9.29369"><ele>544.0</ele><time>2026-04-21T15:47:00.664Z</time></trkpt><trkpt lat="44.5978533" lon="9.29369"><ele>544.6666666666667</ele><time>2026-04-21T15:47:01.665Z</time></trkpt><trkpt lat="44.598015" lon="9.29365"><ele>545.3333333333334</ele><time>2026-04-21T15:47:02.665Z</time></trkpt><trkpt lat="44.59818" lon="9.2935867"><ele>546.0</ele><time>2026-04-21T15:47:03.665Z</time></trkpt><trkpt lat="44.5983333" lon="9.2934883"><ele>546.0</ele><time>2026-04-21T15:47:04.664Z</time></trkpt><trkpt lat="44.59851" lon="9.2933733"><ele>546.0</ele><time>2026-04-21T15:47:05.664Z</time></trkpt><trkpt lat="44.5986817" lon="9.2932583"><ele>546.0</ele><time>2026-04-21T15:47:06.665Z</time></trkpt><trkpt lat="44.5988683" lon="9.2931533"><ele>542.3333333333334</ele><time>2026-04-21T15:47:07.664Z</time></trkpt><trkpt lat="44.5990383" lon="9.2930683"><ele>538.6666666666667</ele><time>2026-04-21T15:47:08.665Z</time></trkpt><trkpt lat="44.5991917" lon="9.2929783"><ele>535.0</ele><time>2026-04-21T15:47:09.665Z</time></trkpt><trkpt lat="44.5993267" lon="9.2928833"><ele>535.0</ele><time>2026-04-21T15:47:10.664Z</time></trkpt><trkpt lat="44.5994383" lon="9.2927783"><ele>535.0</ele><time>2026-04-21T15:47:11.665Z</time></trkpt><trkpt lat="44.599535" lon="9.2926383"><ele>535.0</ele><time>2026-04-21T15:47:12.664Z</time></trkpt><trkpt lat="44.5996067" lon="9.2924617"><ele>535.0</ele><time>2026-04-21T15:47:13.664Z</time></trkpt><trkpt lat="44.5996883" lon="9.2922633"><ele>538.0</ele><time>2026-04-21T15:47:14.664Z</time></trkpt><trkpt lat="44.59977" lon="9.2920533"><ele>541.0</ele><time>2026-04-21T15:47:15.665Z</time></trkpt><trkpt lat="44.5998567" lon="9.291835"><ele>544.0</ele><time>2026-04-21T15:47:16.665Z</time></trkpt><trkpt lat="44.5999467" lon="9.2916183"><ele>540.0</ele><time>2026-04-21T15:47:17.664Z</time></trkpt><trkpt lat="44.6000417" lon="9.2914"><ele>536.0</ele><time>2026-04-21T15:47:18.664Z</time></trkpt><trkpt lat="44.6001383" lon="9.291205"><ele>532.0</ele><time>2026-04-21T15:47:19.664Z</time></trkpt><trkpt lat="44.6002333" lon="9.291015"><ele>531.75</ele><time>2026-04-21T15:47:20.665Z</time></trkpt><trkpt lat="44.6003333" lon="9.29085"><ele>531.5</ele><time>2026-04-21T15:47:21.664Z</time></trkpt><trkpt lat="44.600445" lon="9.2907167"><ele>531.25</ele><time>2026-04-21T15:47:22.664Z</time></trkpt><trkpt lat="44.6005733" lon="9.2906167"><ele>531.0</ele><time>2026-04-21T15:47:23.664Z</time></trkpt><trkpt lat="44.600725" lon="9.2905483"><ele>531.0</ele><time>2026-04-21T15:47:24.664Z</time></trkpt><trkpt lat="44.6008767" lon="9.2904767"><ele>531.0</ele><time>2026-04-21T15:47:25.664Z</time></trkpt><trkpt lat="44.6010317" lon="9.2904283"><ele>531.0</ele><time>2026-04-21T15:47:26.664Z</time></trkpt><trkpt lat="44.6011883" lon="9.2903733"><ele>531.0</ele><time>2026-04-21T15:47:27.664Z</time></trkpt><trkpt lat="44.6013383" lon="9.2903417"><ele>531.0</ele><time>2026-04-21T15:47:28.665Z</time></trkpt><trkpt lat="44.60149" lon="9.2903367"><ele>531.0</ele><time>2026-04-21T15:47:29.664Z</time></trkpt><trkpt lat="44.6016517" lon="9.2903833"><ele>531.0</ele><time>2026-04-21T15:47:30.665Z</time></trkpt><trkpt lat="44.6018133" lon="9.2904483"><ele>531.0</ele><time>2026-04-21T15:47:31.664Z</time></trkpt><trkpt lat="44.60197" lon="9.2905133"><ele>531.0</ele><time>2026-04-21T15:47:32.664Z</time></trkpt><trkpt lat="44.6021417" lon="9.2906033"><ele>531.0</ele><time>2026-04-21T15:47:33.664Z</time></trkpt><trkpt lat="44.6023233" lon="9.290695"><ele>531.0</ele><time>2026-04-21T15:47:34.664Z</time></trkpt><trkpt lat="44.6025083" lon="9.29079"><ele>531.0</ele><time>2026-04-21T15:47:35.664Z</time></trkpt><trkpt lat="44.6027" lon="9.29088"><ele>528.0</ele><time>2026-04-21T15:47:36.664Z</time></trkpt><trkpt lat="44.6028883" lon="9.2909783"><ele>525.0</ele><time>2026-04-21T15:47:37.664Z</time></trkpt><trkpt lat="44.6030733" lon="9.2910667"><ele>522.0</ele><time>2026-04-21T15:47:38.665Z</time></trkpt><trkpt lat="44.6032667" lon="9.29116"><ele>522.0</ele><time>2026-04-21T15:47:39.665Z</time></trkpt><trkpt lat="44.6034533" lon="9.29126"><ele>522.0</ele><time>2026-04-21T15:47:40.665Z</time></trkpt><trkpt lat="44.6036417" lon="9.291365"><ele>522.0</ele><time>2026-04-21T15:47:41.665Z</time></trkpt><trkpt lat="44.6038367" lon="9.2914617"><ele>523.0</ele><time>2026-04-21T15:47:42.664Z</time></trkpt><trkpt lat="44.6040183" lon="9.291555"><ele>524.0</ele><time>2026-04-21T15:47:43.665Z</time></trkpt><trkpt lat="44.6041783" lon="9.2916483"><ele>525.0</ele><time>2026-04-21T15:47:44.664Z</time></trkpt><trkpt lat="44.6043267" lon="9.2917317"><ele>525.0</ele><time>2026-04-21T15:47:45.665Z</time></trkpt><trkpt lat="44.604455" lon="9.291805"><ele>525.0</ele><time>2026-04-21T15:47:46.664Z</time></trkpt><trkpt lat="44.6045683" lon="9.2918667"><ele>525.0</ele><time>2026-04-21T15:47:47.665Z</time></trkpt><trkpt lat="44.6046717" lon="9.29195"><ele>525.0</ele><time>2026-04-21T15:47:48.664Z</time></trkpt><trkpt lat="44.60476" lon="9.2920533"><ele>525.0</ele><time>2026-04-21T15:47:49.665Z</time></trkpt><trkpt lat="44.6048467" lon="9.2921917"><ele>525.0</ele><time>2026-04-21T15:47:50.664Z</time></trkpt><trkpt lat="44.6049333" lon="9.29235"><ele>525.0</ele><time>2026-04-21T15:47:51.665Z</time></trkpt><trkpt lat="44.6050167" lon="9.29252"><ele>525.0</ele><time>2026-04-21T15:47:52.664Z</time></trkpt><trkpt lat="44.605105" lon="9.2926883"><ele>525.0</ele><time>2026-04-21T15:47:53.664Z</time></trkpt><trkpt lat="44.605185" lon="9.2928667"><ele>525.0</ele><time>2026-04-21T15:47:54.664Z</time></trkpt><trkpt lat="44.6052833" lon="9.2930583"><ele>525.0</ele><time>2026-04-21T15:47:55.664Z</time></trkpt><trkpt lat="44.6053767" lon="9.29324"><ele>524.6666666666666</ele><time>2026-04-21T15:47:56.664Z</time></trkpt><trkpt lat="44.6054767" lon="9.293435"><ele>524.3333333333333</ele><time>2026-04-21T15:47:57.664Z</time></trkpt><trkpt lat="44.605575" lon="9.2936367"><ele>524.0</ele><time>2026-04-21T15:47:58.664Z</time></trkpt><trkpt lat="44.6056783" lon="9.293845"><ele>524.0</ele><time>2026-04-21T15:47:59.664Z</time></trkpt><trkpt lat="44.60578" lon="9.294045"><ele>524.0</ele><time>2026-04-21T15:48:00.664Z</time></trkpt><trkpt lat="44.6058783" lon="9.2942467"><ele>524.0</ele><time>2026-04-21T15:48:01.664Z</time></trkpt><trkpt lat="44.60599" lon="9.2944667"><ele>524.0</ele><time>2026-04-21T15:48:02.665Z</time></trkpt><trkpt lat="44.6060933" lon="9.2946933"><ele>524.0</ele><time>2026-04-21T15:48:03.665Z</time></trkpt><trkpt lat="44.6062033" lon="9.294915"><ele>524.0</ele><time>2026-04-21T15:48:04.664Z</time></trkpt><trkpt lat="44.6063217" lon="9.2951483"><ele>525.6666666666666</ele><time>2026-04-21T15:48:05.664Z</time></trkpt><trkpt lat="44.6064267" lon="9.295375"><ele>527.3333333333334</ele><time>2026-04-21T15:48:06.664Z</time></trkpt><trkpt lat="44.60653" lon="9.29559"><ele>529.0</ele><time>2026-04-21T15:48:07.665Z</time></trkpt><trkpt lat="44.6066233" lon="9.2957883"><ele>529.3333333333334</ele><time>2026-04-21T15:48:08.665Z</time></trkpt><trkpt lat="44.6067233" lon="9.29597"><ele>529.6666666666666</ele><time>2026-04-21T15:48:09.664Z</time></trkpt><trkpt lat="44.6068017" lon="9.29615"><ele>530.0</ele><time>2026-04-21T15:48:10.665Z</time></trkpt><trkpt lat="44.60686" lon="9.2963533"><ele>529.0</ele><time>2026-04-21T15:48:11.664Z</time></trkpt><trkpt lat="44.6068883" lon="9.2965683"><ele>528.0</ele><time>2026-04-21T15:48:12.664Z</time></trkpt><trkpt lat="44.6069217" lon="9.2967667"><ele>527.0</ele><time>2026-04-21T15:48:13.665Z</time></trkpt><trkpt lat="44.6069683" lon="9.296945"><ele>526.0</ele><time>2026-04-21T15:48:14.664Z</time></trkpt><trkpt lat="44.6070417" lon="9.2971"><ele>528.0</ele><time>2026-04-21T15:48:15.665Z</time></trkpt><trkpt lat="44.6071283" lon="9.297255"><ele>530.0</ele><time>2026-04-21T15:48:16.664Z</time></trkpt><trkpt lat="44.6072217" lon="9.2974133"><ele>532.0</ele><time>2026-04-21T15:48:17.665Z</time></trkpt><trkpt lat="44.6073183" lon="9.2975733"><ele>534.0</ele><time>2026-04-21T15:48:18.664Z</time></trkpt><trkpt lat="44.6074117" lon="9.2977133"><ele>534.0</ele><time>2026-04-21T15:48:19.665Z</time></trkpt><trkpt lat="44.6074983" lon="9.2978317"><ele>534.0</ele><time>2026-04-21T15:48:20.665Z</time></trkpt><trkpt lat="44.60761" lon="9.2979183"><ele>534.0</ele><time>2026-04-21T15:48:21.665Z</time></trkpt><trkpt lat="44.6077333" lon="9.2979983"><ele>534.0</ele><time>2026-04-21T15:48:22.664Z</time></trkpt><trkpt lat="44.6078617" lon="9.2980883"><ele>538.75</ele><time>2026-04-21T15:48:23.665Z</time></trkpt><trkpt lat="44.607965" lon="9.29818"><ele>543.5</ele><time>2026-04-21T15:48:24.664Z</time></trkpt><trkpt lat="44.6080383" lon="9.2983"><ele>548.25</ele><time>2026-04-21T15:48:25.665Z</time></trkpt><trkpt lat="44.608095" lon="9.29846"><ele>553.0</ele><time>2026-04-21T15:48:26.665Z</time></trkpt><trkpt lat="44.6081283" lon="9.2986533"><ele>553.0</ele><time>2026-04-21T15:48:27.664Z</time></trkpt><trkpt lat="44.6081517" lon="9.2988533"><ele>553.0</ele><time>2026-04-21T15:48:28.664Z</time></trkpt><trkpt lat="44.6081783" lon="9.2990767"><ele>553.0</ele><time>2026-04-21T15:48:29.664Z</time></trkpt><trkpt lat="44.6082033" lon="9.2993133"><ele>551.0</ele><time>2026-04-21T15:48:30.664Z</time></trkpt><trkpt lat="44.60823" lon="9.29952"><ele>549.0</ele><time>2026-04-21T15:48:31.665Z</time></trkpt><trkpt lat="44.6082583" lon="9.2997567"><ele>547.0</ele><time>2026-04-21T15:48:32.665Z</time></trkpt><trkpt lat="44.608315" lon="9.299985"><ele>545.0</ele><time>2026-04-21T15:48:33.664Z</time></trkpt><trkpt lat="44.60833" lon="9.30022"><ele>543.0</ele><time>2026-04-21T15:48:34.665Z</time></trkpt><trkpt lat="44.608345" lon="9.300465"><ele>541.0</ele><time>2026-04-21T15:48:35.664Z</time></trkpt><trkpt lat="44.6083483" lon="9.30071"><ele>538.3333333333334</ele><time>2026-04-21T15:48:36.665Z</time></trkpt><trkpt lat="44.6083433" lon="9.30096"><ele>535.6666666666666</ele><time>2026-04-21T15:48:37.664Z</time></trkpt><trkpt lat="44.6083567" lon="9.3012333"><ele>533.0</ele><time>2026-04-21T15:48:38.664Z</time></trkpt><trkpt lat="44.608385" lon="9.3015"><ele>532.6666666666666</ele><time>2026-04-21T15:48:39.664Z</time></trkpt><trkpt lat="44.6084083" lon="9.3017717"><ele>532.3333333333334</ele><time>2026-04-21T15:48:40.665Z</time></trkpt><trkpt lat="44.60844" lon="9.3020233"><ele>532.0</ele><time>2026-04-21T15:48:41.665Z</time></trkpt><trkpt lat="44.6084617" lon="9.3022667"><ele>532.0</ele><time>2026-04-21T15:48:42.665Z</time></trkpt><trkpt lat="44.6084833" lon="9.302475"><ele>532.0</ele><time>2026-04-21T15:48:43.665Z</time></trkpt><trkpt lat="44.608485" lon="9.30265"><ele>532.0</ele><time>2026-04-21T15:48:44.665Z</time></trkpt><trkpt lat="44.6084533" lon="9.3027933"><ele>532.0</ele><time>2026-04-21T15:48:45.664Z</time></trkpt><trkpt lat="44.6083917" lon="9.3029583"><ele>532.5</ele><time>2026-04-21T15:48:46.664Z</time></trkpt><trkpt lat="44.6083133" lon="9.3031267"><ele>533.0</ele><time>2026-04-21T15:48:47.664Z</time></trkpt><trkpt lat="44.608235" lon="9.3032983"><ele>533.5</ele><time>2026-04-21T15:48:48.665Z</time></trkpt><trkpt lat="44.6081567" lon="9.3034617"><ele>534.0</ele><time>2026-04-21T15:48:49.664Z</time></trkpt><trkpt lat="44.60805" lon="9.3036283"><ele>534.0</ele><time>2026-04-21T15:48:50.665Z</time></trkpt><trkpt lat="44.6079217" lon="9.3037783"><ele>534.0</ele><time>2026-04-21T15:48:51.665Z</time></trkpt><trkpt lat="44.607785" lon="9.3039433"><ele>534.0</ele><time>2026-04-21T15:48:52.665Z</time></trkpt><trkpt lat="44.6076517" lon="9.30406"><ele>533.6666666666666</ele><time>2026-04-21T15:48:53.664Z</time></trkpt><trkpt lat="44.6075183" lon="9.3041767"><ele>533.3333333333333</ele><time>2026-04-21T15:48:54.665Z</time></trkpt><trkpt lat="44.6073667" lon="9.3042667"><ele>533.0</ele><time>2026-04-21T15:48:55.665Z</time></trkpt><trkpt lat="44.6072117" lon="9.30429"><ele>533.0</ele><time>2026-04-21T15:48:56.664Z</time></trkpt><trkpt lat="44.6070733" lon="9.30431"><ele>533.0</ele><time>2026-04-21T15:48:57.664Z</time></trkpt><trkpt lat="44.6069467" lon="9.3043033"><ele>533.0</ele><time>2026-04-21T15:48:58.664Z</time></trkpt><trkpt lat="44.606835" lon="9.3043483"><ele>533.0</ele><time>2026-04-21T15:48:59.664Z</time></trkpt><trkpt lat="44.6067433" lon="9.30443"><ele>531.5</ele><time>2026-04-21T15:49:00.664Z</time></trkpt><trkpt lat="44.6066967" lon="9.30458"><ele>530.0</ele><time>2026-04-21T15:49:01.664Z</time></trkpt><trkpt lat="44.6066717" lon="9.30476"><ele>528.5</ele><time>2026-04-21T15:49:02.665Z</time></trkpt><trkpt lat="44.6066817" lon="9.304975"><ele>527.0</ele><time>2026-04-21T15:49:03.664Z</time></trkpt><trkpt lat="44.6067" lon="9.3051967"><ele>527.0</ele><time>2026-04-21T15:49:04.665Z</time></trkpt><trkpt lat="44.60673" lon="9.30544"><ele>527.0</ele><time>2026-04-21T15:49:05.664Z</time></trkpt><trkpt lat="44.6067667" lon="9.3056567"><ele>527.0</ele><time>2026-04-21T15:49:06.665Z</time></trkpt><trkpt lat="44.6068083" lon="9.3058883"><ele>527.0</ele><time>2026-04-21T15:49:07.665Z</time></trkpt><trkpt lat="44.6068483" lon="9.3060867"><ele>527.0</ele><time>2026-04-21T15:49:08.664Z</time></trkpt><trkpt lat="44.6069117" lon="9.3062933"><ele>527.0</ele><time>2026-04-21T15:49:09.665Z</time></trkpt><trkpt lat="44.6069833" lon="9.30647"><ele>526.75</ele><time>2026-04-21T15:49:10.664Z</time></trkpt><trkpt lat="44.607085" lon="9.30663"><ele>526.5</ele><time>2026-04-21T15:49:11.664Z</time></trkpt><trkpt lat="44.60721" lon="9.3067667"><ele>526.25</ele><time>2026-04-21T15:49:12.664Z</time></trkpt><trkpt lat="44.60733" lon="9.3068617"><ele>526.0</ele><time>2026-04-21T15:49:13.664Z</time></trkpt><trkpt lat="44.6074433" lon="9.30693"><ele>526.0</ele><time>2026-04-21T15:49:14.665Z</time></trkpt><trkpt lat="44.6075683" lon="9.3069583"><ele>526.0</ele><time>2026-04-21T15:49:15.664Z</time></trkpt><trkpt lat="44.6077117" lon="9.3069617"><ele>526.0</ele><time>2026-04-21T15:49:16.664Z</time></trkpt><trkpt lat="44.60788" lon="9.3069633"><ele>526.0</ele><time>2026-04-21T15:49:17.665Z</time></trkpt><trkpt lat="44.6080533" lon="9.30698"><ele>526.6666666666667</ele><time>2026-04-21T15:49:18.664Z</time></trkpt><trkpt lat="44.6082417" lon="9.3070117"><ele>527.3333333333334</ele><time>2026-04-21T15:49:19.665Z</time></trkpt><trkpt lat="44.6084" lon="9.3070517"><ele>528.0</ele><time>2026-04-21T15:49:20.664Z</time></trkpt><trkpt lat="44.60854" lon="9.30707"><ele>528.6666666666666</ele><time>2026-04-21T15:49:21.665Z</time></trkpt><trkpt lat="44.60868" lon="9.307065"><ele>529.3333333333333</ele><time>2026-04-21T15:49:22.664Z</time></trkpt><trkpt lat="44.608835" lon="9.307015"><ele>530.0</ele><time>2026-04-21T15:49:23.664Z</time></trkpt><trkpt lat="44.6089967" lon="9.3069533"><ele>530.0</ele><time>2026-04-21T15:49:24.664Z</time></trkpt><trkpt lat="44.609175" lon="9.3068867"><ele>530.0</ele><time>2026-04-21T15:49:25.665Z</time></trkpt><trkpt lat="44.60936" lon="9.3068233"><ele>530.0</ele><time>2026-04-21T15:49:26.664Z</time></trkpt><trkpt lat="44.6095433" lon="9.3067683"><ele>531.6666666666666</ele><time>2026-04-21T15:49:27.664Z</time></trkpt><trkpt lat="44.609715" lon="9.3067317"><ele>533.3333333333334</ele><time>2026-04-21T15:49:28.664Z</time></trkpt><trkpt lat="44.6098833" lon="9.306715"><ele>535.0</ele><time>2026-04-21T15:49:29.665Z</time></trkpt><trkpt lat="44.6100367" lon="9.3067"><ele>535.0</ele><time>2026-04-21T15:49:30.665Z</time></trkpt><trkpt lat="44.6101817" lon="9.30672"><ele>535.0</ele><time>2026-04-21T15:49:31.664Z</time></trkpt><trkpt lat="44.6103183" lon="9.306785"><ele>535.0</ele><time>2026-04-21T15:49:32.665Z</time></trkpt><trkpt lat="44.6104467" lon="9.3068867"><ele>535.0</ele><time>2026-04-21T15:49:33.664Z</time></trkpt><trkpt lat="44.6105383" lon="9.30697"><ele>532.6</ele><time>2026-04-21T15:49:34.665Z</time></trkpt><trkpt lat="44.610595" lon="9.3071067"><ele>530.2</ele><time>2026-04-21T15:49:35.665Z</time></trkpt><trkpt lat="44.61063" lon="9.3072267"><ele>527.8</ele><time>2026-04-21T15:49:36.664Z</time></trkpt><trkpt lat="44.6106317" lon="9.3073583"><ele>525.4</ele><time>2026-04-21T15:49:37.664Z</time></trkpt><trkpt lat="44.6106333" lon="9.3075117"><ele>523.0</ele><time>2026-04-21T15:49:38.664Z</time></trkpt><trkpt lat="44.6106483" lon="9.3076633"><ele>523.0</ele><time>2026-04-21T15:49:39.665Z</time></trkpt><trkpt lat="44.61069" lon="9.3078283"><ele>523.0</ele><time>2026-04-21T15:49:40.665Z</time></trkpt><trkpt lat="44.610785" lon="9.307995"><ele>523.0</ele><time>2026-04-21T15:49:41.664Z</time></trkpt><trkpt lat="44.6108867" lon="9.308175"><ele>523.0</ele><time>2026-04-21T15:49:42.665Z</time></trkpt><trkpt lat="44.6109917" lon="9.3083333"><ele>525.0</ele><time>2026-04-21T15:49:43.664Z</time></trkpt><trkpt lat="44.61108" lon="9.30848"><ele>527.0</ele><time>2026-04-21T15:49:44.665Z</time></trkpt><trkpt lat="44.6111583" lon="9.308615"><ele>529.0</ele><time>2026-04-21T15:49:45.664Z</time></trkpt><trkpt lat="44.6112283" lon="9.3087517"><ele>531.0</ele><time>2026-04-21T15:49:46.664Z</time></trkpt><trkpt lat="44.6112733" lon="9.3088767"><ele>534.5</ele><time>2026-04-21T15:49:47.665Z</time></trkpt><trkpt lat="44.61128" lon="9.30901"><ele>538.0</ele><time>2026-04-21T15:49:48.665Z</time></trkpt><trkpt lat="44.6112567" lon="9.3091633"><ele>541.5</ele><time>2026-04-21T15:49:49.665Z</time></trkpt><trkpt lat="44.6112233" lon="9.309345"><ele>545.0</ele><time>2026-04-21T15:49:50.664Z</time></trkpt><trkpt lat="44.6111783" lon="9.30955"><ele>537.5</ele><time>2026-04-21T15:49:51.665Z</time></trkpt><trkpt lat="44.611145" lon="9.3097367"><ele>530.0</ele><time>2026-04-21T15:49:52.664Z</time></trkpt><trkpt lat="44.6110917" lon="9.3099083"><ele>522.5</ele><time>2026-04-21T15:49:53.665Z</time></trkpt><trkpt lat="44.61103" lon="9.3100833"><ele>515.0</ele><time>2026-04-21T15:49:54.665Z</time></trkpt><trkpt lat="44.61095" lon="9.3102533"><ele>515.0</ele><time>2026-04-21T15:49:55.665Z</time></trkpt><trkpt lat="44.6108517" lon="9.3104217"><ele>515.0</ele><time>2026-04-21T15:49:56.664Z</time></trkpt><trkpt lat="44.610745" lon="9.310595"><ele>515.0</ele><time>2026-04-21T15:49:57.664Z</time></trkpt><trkpt lat="44.610635" lon="9.31076"><ele>513.5</ele><time>2026-04-21T15:49:58.665Z</time></trkpt><trkpt lat="44.610535" lon="9.3109217"><ele>512.0</ele><time>2026-04-21T15:49:59.664Z</time></trkpt><trkpt lat="44.6104433" lon="9.3110817"><ele>510.5</ele><time>2026-04-21T15:50:00.664Z</time></trkpt><trkpt lat="44.61036" lon="9.3112383"><ele>509.0</ele><time>2026-04-21T15:50:01.664Z</time></trkpt><trkpt lat="44.6102867" lon="9.3113967"><ele>509.5</ele><time>2026-04-21T15:50:02.664Z</time></trkpt><trkpt lat="44.610215" lon="9.3115433"><ele>510.0</ele><time>2026-04-21T15:50:03.664Z</time></trkpt><trkpt lat="44.6101633" lon="9.31167"><ele>510.5</ele><time>2026-04-21T15:50:04.665Z</time></trkpt><trkpt lat="44.6101367" lon="9.311825"><ele>511.0</ele><time>2026-04-21T15:50:05.664Z</time></trkpt><trkpt lat="44.6101633" lon="9.3119867"><ele>511.0</ele><time>2026-04-21T15:50:06.665Z</time></trkpt><trkpt lat="44.6102033" lon="9.3121367"><ele>511.0</ele><time>2026-04-21T15:50:07.665Z</time></trkpt><trkpt lat="44.6102433" lon="9.3123183"><ele>511.0</ele><time>2026-04-21T15:50:08.664Z</time></trkpt><trkpt lat="44.6103017" lon="9.3125267"><ele>511.0</ele><time>2026-04-21T15:50:09.664Z</time></trkpt><trkpt lat="44.6103583" lon="9.31275"><ele>516.3333333333334</ele><time>2026-04-21T15:50:10.665Z</time></trkpt><trkpt lat="44.61041" lon="9.31297"><ele>521.6666666666666</ele><time>2026-04-21T15:50:11.664Z</time></trkpt><trkpt lat="44.6104483" lon="9.313195"><ele>527.0</ele><time>2026-04-21T15:50:12.665Z</time></trkpt><trkpt lat="44.6104867" lon="9.3134183"><ele>527.0</ele><time>2026-04-21T15:50:13.665Z</time></trkpt><trkpt lat="44.6105083" lon="9.3136317"><ele>527.0</ele><time>2026-04-21T15:50:14.664Z</time></trkpt><trkpt lat="44.6105183" lon="9.313855"><ele>527.0</ele><time>2026-04-21T15:50:15.664Z</time></trkpt><trkpt lat="44.6105183" lon="9.3140717"><ele>527.0</ele><time>2026-04-21T15:50:16.664Z</time></trkpt><trkpt lat="44.61052" lon="9.3142983"><ele>527.0</ele><time>2026-04-21T15:50:17.665Z</time></trkpt><trkpt lat="44.6105333" lon="9.3145117"><ele>527.0</ele><time>2026-04-21T15:50:18.665Z</time></trkpt><trkpt lat="44.6105667" lon="9.314725"><ele>524.3333333333333</ele><time>2026-04-21T15:50:19.664Z</time></trkpt><trkpt lat="44.6106217" lon="9.3149733"><ele>521.6666666666666</ele><time>2026-04-21T15:50:20.665Z</time></trkpt><trkpt lat="44.61068" lon="9.3152117"><ele>519.0</ele><time>2026-04-21T15:50:21.665Z</time></trkpt><trkpt lat="44.6107433" lon="9.3154533"><ele>518.6666666666666</ele><time>2026-04-21T15:50:22.665Z</time></trkpt><trkpt lat="44.610795" lon="9.3156883"><ele>518.3333333333333</ele><time>2026-04-21T15:50:23.665Z</time></trkpt><trkpt lat="44.6108317" lon="9.3158967"><ele>518.0</ele><time>2026-04-21T15:50:24.664Z</time></trkpt><trkpt lat="44.61086" lon="9.3161"><ele>518.0</ele><time>2026-04-21T15:50:25.665Z</time></trkpt><trkpt lat="44.6108717" lon="9.31629"><ele>518.0</ele><time>2026-04-21T15:50:26.664Z</time></trkpt><trkpt lat="44.6108533" lon="9.3164567"><ele>518.0</ele><time>2026-04-21T15:50:27.665Z</time></trkpt><trkpt lat="44.610825" lon="9.316615"><ele>518.0</ele><time>2026-04-21T15:50:28.665Z</time></trkpt><trkpt lat="44.610795" lon="9.3167667"><ele>517.75</ele><time>2026-04-21T15:50:29.665Z</time></trkpt><trkpt lat="44.6107767" lon="9.3169217"><ele>517.5</ele><time>2026-04-21T15:50:30.664Z</time></trkpt><trkpt lat="44.6107783" lon="9.31711"><ele>517.25</ele><time>2026-04-21T15:50:31.664Z</time></trkpt><trkpt lat="44.6107917" lon="9.3173067"><ele>517.0</ele><time>2026-04-21T15:50:32.665Z</time></trkpt><trkpt lat="44.6107967" lon="9.3175067"><ele>516.0</ele><time>2026-04-21T15:50:33.665Z</time></trkpt><trkpt lat="44.6107917" lon="9.31768"><ele>515.0</ele><time>2026-04-21T15:50:34.664Z</time></trkpt><trkpt lat="44.6107817" lon="9.3178233"><ele>514.0</ele><time>2026-04-21T15:50:35.664Z</time></trkpt><trkpt lat="44.6107933" lon="9.3179717"><ele>513.0</ele><time>2026-04-21T15:50:36.664Z</time></trkpt><trkpt lat="44.6108283" lon="9.3180833"><ele>512.0</ele><time>2026-04-21T15:50:37.664Z</time></trkpt><trkpt lat="44.61089" lon="9.318175"><ele>510.0</ele><time>2026-04-21T15:50:38.665Z</time></trkpt><trkpt lat="44.6109883" lon="9.3182283"><ele>508.0</ele><time>2026-04-21T15:50:39.664Z</time></trkpt><trkpt lat="44.611115" lon="9.3182967"><ele>506.0</ele><time>2026-04-21T15:50:40.664Z</time></trkpt><trkpt lat="44.611245" lon="9.3183833"><ele>504.0</ele><time>2026-04-21T15:50:41.664Z</time></trkpt><trkpt lat="44.6113783" lon="9.3185033"><ele>511.25</ele><time>2026-04-21T15:50:42.664Z</time></trkpt><trkpt lat="44.611505" lon="9.318615"><ele>518.5</ele><time>2026-04-21T15:50:43.664Z</time></trkpt><trkpt lat="44.6116267" lon="9.31872"><ele>525.75</ele><time>2026-04-21T15:50:44.664Z</time></trkpt><trkpt lat="44.611715" lon="9.3188083"><ele>533.0</ele><time>2026-04-21T15:50:45.665Z</time></trkpt><trkpt lat="44.6118017" lon="9.3188917"><ele>527.4</ele><time>2026-04-21T15:50:46.665Z</time></trkpt><trkpt lat="44.6118633" lon="9.318985"><ele>521.8</ele><time>2026-04-21T15:50:47.665Z</time></trkpt><trkpt lat="44.6119" lon="9.3191083"><ele>516.2</ele><time>2026-04-21T15:50:48.665Z</time></trkpt><trkpt lat="44.6119067" lon="9.319265"><ele>510.6</ele><time>2026-04-21T15:50:49.664Z</time></trkpt><trkpt lat="44.6119083" lon="9.3194217"><ele>505.0</ele><time>2026-04-21T15:50:50.665Z</time></trkpt><trkpt lat="44.6119067" lon="9.3195917"><ele>505.0</ele><time>2026-04-21T15:50:51.664Z</time></trkpt><trkpt lat="44.6119217" lon="9.3197333"><ele>505.0</ele><time>2026-04-21T15:50:52.664Z</time></trkpt><trkpt lat="44.6119617" lon="9.319845"><ele>505.0</ele><time>2026-04-21T15:50:53.665Z</time></trkpt><trkpt lat="44.61203" lon="9.319925"><ele>505.0</ele><time>2026-04-21T15:50:54.664Z</time></trkpt><trkpt lat="44.612115" lon="9.3200017"><ele>505.0</ele><time>2026-04-21T15:50:55.664Z</time></trkpt><trkpt lat="44.6122217" lon="9.3200817"><ele>505.0</ele><time>2026-04-21T15:50:56.664Z</time></trkpt><trkpt lat="44.6123633" lon="9.320175"><ele>505.0</ele><time>2026-04-21T15:50:57.664Z</time></trkpt><trkpt lat="44.6125017" lon="9.3203"><ele>505.0</ele><time>2026-04-21T15:50:58.664Z</time></trkpt><trkpt lat="44.6126233" lon="9.3204233"><ele>505.0</ele><time>2026-04-21T15:50:59.665Z</time></trkpt><trkpt lat="44.61274" lon="9.3205583"><ele>505.0</ele><time>2026-04-21T15:51:00.664Z</time></trkpt><trkpt lat="44.612805" lon="9.3206967"><ele>505.0</ele><time>2026-04-21T15:51:01.665Z</time></trkpt><trkpt lat="44.6128567" lon="9.32087"><ele>505.0</ele><time>2026-04-21T15:51:02.665Z</time></trkpt><trkpt lat="44.6129067" lon="9.3210683"><ele>504.25</ele><time>2026-04-21T15:51:03.665Z</time></trkpt><trkpt lat="44.6129517" lon="9.32127"><ele>503.5</ele><time>2026-04-21T15:51:04.664Z</time></trkpt><trkpt lat="44.612995" lon="9.32146"><ele>502.75</ele><time>2026-04-21T15:51:05.665Z</time></trkpt><trkpt lat="44.6130433" lon="9.3216033"><ele>502.0</ele><time>2026-04-21T15:51:06.664Z</time></trkpt><trkpt lat="44.6130983" lon="9.3217033"><ele>505.75</ele><time>2026-04-21T15:51:07.664Z</time></trkpt><trkpt lat="44.6131767" lon="9.3217583"><ele>509.5</ele><time>2026-04-21T15:51:08.664Z</time></trkpt><trkpt lat="44.6132733" lon="9.3217733"><ele>513.25</ele><time>2026-04-21T15:51:09.665Z</time></trkpt><trkpt lat="44.613395" lon="9.321725"><ele>517.0</ele><time>2026-04-21T15:51:10.665Z</time></trkpt><trkpt lat="44.6135433" lon="9.3216717"><ele>518.3333333333334</ele><time>2026-04-21T15:51:11.665Z</time></trkpt><trkpt lat="44.6137067" lon="9.32161"><ele>519.6666666666666</ele><time>2026-04-21T15:51:12.664Z</time></trkpt><trkpt lat="44.6138567" lon="9.32155"><ele>521.0</ele><time>2026-04-21T15:51:13.664Z</time></trkpt><trkpt lat="44.6140067" lon="9.3215067"><ele>521.0</ele><time>2026-04-21T15:51:14.665Z</time></trkpt><trkpt lat="44.6141367" lon="9.3214667"><ele>521.0</ele><time>2026-04-21T15:51:15.664Z</time></trkpt><trkpt lat="44.614265" lon="9.3214467"><ele>521.0</ele><time>2026-04-21T15:51:16.665Z</time></trkpt><trkpt lat="44.614395" lon="9.321415"><ele>521.0</ele><time>2026-04-21T15:51:17.664Z</time></trkpt><trkpt lat="44.6145267" lon="9.3213983"><ele>518.5</ele><time>2026-04-21T15:51:18.665Z</time></trkpt><trkpt lat="44.6146533" lon="9.3214"><ele>516.0</ele><time>2026-04-21T15:51:19.664Z</time></trkpt><trkpt lat="44.6147717" lon="9.3214483"><ele>513.5</ele><time>2026-04-21T15:51:20.665Z</time></trkpt><trkpt lat="44.6148733" lon="9.32153"><ele>511.0</ele><time>2026-04-21T15:51:21.664Z</time></trkpt><trkpt lat="44.6149767" lon="9.3216517"><ele>511.0</ele><time>2026-04-21T15:51:22.664Z</time></trkpt><trkpt lat="44.6150983" lon="9.32174"><ele>511.0</ele><time>2026-04-21T15:51:23.664Z</time></trkpt><trkpt lat="44.6152267" lon="9.3218"><ele>511.0</ele><time>2026-04-21T15:51:24.665Z</time></trkpt><trkpt lat="44.6153683" lon="9.321835"><ele>511.0</ele><time>2026-04-21T15:51:25.664Z</time></trkpt><trkpt lat="44.6155233" lon="9.321845"><ele>510.33333333333337</ele><time>2026-04-21T15:51:26.664Z</time></trkpt><trkpt lat="44.615685" lon="9.321835"><ele>509.66666666666663</ele><time>2026-04-21T15:51:27.665Z</time></trkpt><trkpt lat="44.6158617" lon="9.3218167"><ele>509.0</ele><time>2026-04-21T15:51:28.664Z</time></trkpt><trkpt lat="44.6160383" lon="9.3218133"><ele>506.66666666666663</ele><time>2026-04-21T15:51:29.664Z</time></trkpt><trkpt lat="44.6162017" lon="9.321815"><ele>504.33333333333337</ele><time>2026-04-21T15:51:30.665Z</time></trkpt><trkpt lat="44.6163533" lon="9.32182"><ele>502.0</ele><time>2026-04-21T15:51:31.665Z</time></trkpt><trkpt lat="44.6165033" lon="9.3218233"><ele>502.0</ele><time>2026-04-21T15:51:32.664Z</time></trkpt><trkpt lat="44.616645" lon="9.3218433"><ele>502.0</ele><time>2026-04-21T15:51:33.664Z</time></trkpt><trkpt lat="44.6167833" lon="9.3218883"><ele>502.0</ele><time>2026-04-21T15:51:34.664Z</time></trkpt><trkpt lat="44.6169283" lon="9.3219583"><ele>502.0</ele><time>2026-04-21T15:51:35.665Z</time></trkpt><trkpt lat="44.6170633" lon="9.3220383"><ele>498.0</ele><time>2026-04-21T15:51:36.664Z</time></trkpt><trkpt lat="44.6172117" lon="9.322175"><ele>494.0</ele><time>2026-04-21T15:51:37.665Z</time></trkpt><trkpt lat="44.6173383" lon="9.32234"><ele>490.0</ele><time>2026-04-21T15:51:38.664Z</time></trkpt><trkpt lat="44.6174683" lon="9.3225167"><ele>490.0</ele><time>2026-04-21T15:51:39.664Z</time></trkpt><trkpt lat="44.6175983" lon="9.3226867"><ele>490.0</ele><time>2026-04-21T15:51:40.664Z</time></trkpt><trkpt lat="44.61773" lon="9.3228717"><ele>490.0</ele><time>2026-04-21T15:51:41.665Z</time></trkpt><trkpt lat="44.6178717" lon="9.323075"><ele>493.0</ele><time>2026-04-21T15:51:42.664Z</time></trkpt><trkpt lat="44.6180133" lon="9.3232683"><ele>496.0</ele><time>2026-04-21T15:51:43.665Z</time></trkpt><trkpt lat="44.6181683" lon="9.3234783"><ele>499.0</ele><time>2026-04-21T15:51:44.664Z</time></trkpt><trkpt lat="44.6183217" lon="9.3236883"><ele>499.0</ele><time>2026-04-21T15:51:45.664Z</time></trkpt><trkpt lat="44.6184817" lon="9.323895"><ele>499.0</ele><time>2026-04-21T15:51:46.665Z</time></trkpt><trkpt lat="44.61863" lon="9.32408"><ele>499.0</ele><time>2026-04-21T15:51:47.665Z</time></trkpt><trkpt lat="44.6187667" lon="9.3242717"><ele>500.6666666666667</ele><time>2026-04-21T15:51:48.665Z</time></trkpt><trkpt lat="44.6189067" lon="9.3244483"><ele>502.33333333333337</ele><time>2026-04-21T15:51:49.664Z</time></trkpt><trkpt lat="44.6190417" lon="9.3246367"><ele>504.0</ele><time>2026-04-21T15:51:50.664Z</time></trkpt><trkpt lat="44.6191833" lon="9.32482"><ele>500.0</ele><time>2026-04-21T15:51:51.665Z</time></trkpt><trkpt lat="44.619325" lon="9.3250133"><ele>496.0</ele><time>2026-04-21T15:51:52.664Z</time></trkpt><trkpt lat="44.6194667" lon="9.3252217"><ele>492.0</ele><time>2026-04-21T15:51:53.665Z</time></trkpt><trkpt lat="44.61961" lon="9.3254133"><ele>490.66666666666663</ele><time>2026-04-21T15:51:54.664Z</time></trkpt><trkpt lat="44.6197483" lon="9.3255933"><ele>489.3333333333333</ele><time>2026-04-21T15:51:55.665Z</time></trkpt><trkpt lat="44.6198783" lon="9.32578"><ele>488.0</ele><time>2026-04-21T15:51:56.664Z</time></trkpt><trkpt lat="44.6199983" lon="9.32596"><ele>488.0</ele><time>2026-04-21T15:51:57.664Z</time></trkpt><trkpt lat="44.620125" lon="9.326135"><ele>488.0</ele><time>2026-04-21T15:51:58.664Z</time></trkpt><trkpt lat="44.62025" lon="9.326315"><ele>488.0</ele><time>2026-04-21T15:51:59.664Z</time></trkpt><trkpt lat="44.6203767" lon="9.326495"><ele>486.66666666666663</ele><time>2026-04-21T15:52:00.664Z</time></trkpt><trkpt lat="44.62049" lon="9.3266917"><ele>485.33333333333337</ele><time>2026-04-21T15:52:01.665Z</time></trkpt><trkpt lat="44.6205983" lon="9.3268933"><ele>484.0</ele><time>2026-04-21T15:52:02.665Z</time></trkpt><trkpt lat="44.62071" lon="9.3271033"><ele>483.6666666666667</ele><time>2026-04-21T15:52:03.665Z</time></trkpt><trkpt lat="44.6208067" lon="9.3273283"><ele>483.33333333333337</ele><time>2026-04-21T15:52:04.664Z</time></trkpt><trkpt lat="44.6209067" lon="9.3275417"><ele>483.0</ele><time>2026-04-21T15:52:05.664Z</time></trkpt><trkpt lat="44.6210017" lon="9.327775"><ele>483.0</ele><time>2026-04-21T15:52:06.664Z</time></trkpt><trkpt lat="44.6211017" lon="9.3280117"><ele>483.0</ele><time>2026-04-21T15:52:07.664Z</time></trkpt><trkpt lat="44.6212" lon="9.3282483"><ele>483.0</ele><time>2026-04-21T15:52:08.664Z</time></trkpt><trkpt lat="44.6212983" lon="9.3284883"><ele>484.0</ele><time>2026-04-21T15:52:09.664Z</time></trkpt><trkpt lat="44.62141" lon="9.3287417"><ele>485.0</ele><time>2026-04-21T15:52:10.664Z</time></trkpt><trkpt lat="44.621515" lon="9.3289933"><ele>486.0</ele><time>2026-04-21T15:52:11.665Z</time></trkpt><trkpt lat="44.6216233" lon="9.3292167"><ele>486.0</ele><time>2026-04-21T15:52:12.664Z</time></trkpt><trkpt lat="44.6217467" lon="9.3294467"><ele>486.0</ele><time>2026-04-21T15:52:13.664Z</time></trkpt><trkpt lat="44.6218783" lon="9.32967"><ele>486.0</ele><time>2026-04-21T15:52:14.665Z</time></trkpt><trkpt lat="44.6220167" lon="9.3298833"><ele>485.0</ele><time>2026-04-21T15:52:15.665Z</time></trkpt><trkpt lat="44.6221733" lon="9.33009"><ele>484.0</ele><time>2026-04-21T15:52:16.665Z</time></trkpt><trkpt lat="44.6223317" lon="9.33027"><ele>483.0</ele><time>2026-04-21T15:52:17.664Z</time></trkpt><trkpt lat="44.62249" lon="9.3304433"><ele>481.66666666666663</ele><time>2026-04-21T15:52:18.665Z</time></trkpt><trkpt lat="44.6226633" lon="9.3305983"><ele>480.3333333333333</ele><time>2026-04-21T15:52:19.665Z</time></trkpt><trkpt lat="44.6228517" lon="9.3307517"><ele>479.0</ele><time>2026-04-21T15:52:20.665Z</time></trkpt><trkpt lat="44.6230433" lon="9.3308833"><ele>479.0</ele><time>2026-04-21T15:52:21.664Z</time></trkpt><trkpt lat="44.623245" lon="9.3310083"><ele>479.0</ele><time>2026-04-21T15:52:22.664Z</time></trkpt><trkpt lat="44.623455" lon="9.331125"><ele>479.0</ele><time>2026-04-21T15:52:23.665Z</time></trkpt><trkpt lat="44.6236633" lon="9.331235"><ele>479.0</ele><time>2026-04-21T15:52:24.665Z</time></trkpt><trkpt lat="44.6238767" lon="9.3313483"><ele>479.0</ele><time>2026-04-21T15:52:25.665Z</time></trkpt><trkpt lat="44.62408" lon="9.33147"><ele>479.0</ele><time>2026-04-21T15:52:26.665Z</time></trkpt><trkpt lat="44.6242883" lon="9.33159"><ele>479.5</ele><time>2026-04-21T15:52:27.665Z</time></trkpt><trkpt lat="44.624495" lon="9.3317133"><ele>480.0</ele><time>2026-04-21T15:52:28.664Z</time></trkpt><trkpt lat="44.6247083" lon="9.3318467"><ele>480.0</ele><time>2026-04-21T15:52:29.665Z</time></trkpt><trkpt lat="44.6249217" lon="9.3319733"><ele>480.0</ele><time>2026-04-21T15:52:30.664Z</time></trkpt><trkpt lat="44.625125" lon="9.3321033"><ele>478.0</ele><time>2026-04-21T15:52:31.665Z</time></trkpt><trkpt lat="44.6253317" lon="9.33221"><ele>476.0</ele><time>2026-04-21T15:52:32.665Z</time></trkpt><trkpt lat="44.6255433" lon="9.3323217"><ele>474.0</ele><time>2026-04-21T15:52:33.665Z</time></trkpt><trkpt lat="44.625765" lon="9.332445"><ele>474.0</ele><time>2026-04-21T15:52:34.664Z</time></trkpt><trkpt lat="44.625985" lon="9.3325583"><ele>474.0</ele><time>2026-04-21T15:52:35.664Z</time></trkpt><trkpt lat="44.626205" lon="9.3326567"><ele>476.5</ele><time>2026-04-21T15:52:36.664Z</time></trkpt><trkpt lat="44.6264367" lon="9.3327517"><ele>479.0</ele><time>2026-04-21T15:52:37.664Z</time></trkpt><trkpt lat="44.6266733" lon="9.332825"><ele>479.0</ele><time>2026-04-21T15:52:38.665Z</time></trkpt><trkpt lat="44.6269017" lon="9.3328867"><ele>479.0</ele><time>2026-04-21T15:52:39.664Z</time></trkpt><trkpt lat="44.62713" lon="9.3329233"><ele>476.0</ele><time>2026-04-21T15:52:40.664Z</time></trkpt><trkpt lat="44.6273717" lon="9.332955"><ele>473.0</ele><time>2026-04-21T15:52:41.664Z</time></trkpt><trkpt lat="44.6276017" lon="9.332975"><ele>473.0</ele><time>2026-04-21T15:52:42.665Z</time></trkpt><trkpt lat="44.6278317" lon="9.3329883"><ele>473.0</ele><time>2026-04-21T15:52:43.664Z</time></trkpt><trkpt lat="44.6280617" lon="9.333015"><ele>473.0</ele><time>2026-04-21T15:52:44.664Z</time></trkpt><trkpt lat="44.62829" lon="9.333035"><ele>473.0</ele><time>2026-04-21T15:52:45.665Z</time></trkpt><trkpt lat="44.6285033" lon="9.33305"><ele>473.0</ele><time>2026-04-21T15:52:46.664Z</time></trkpt><trkpt lat="44.628715" lon="9.3330633"><ele>475.3333333333333</ele><time>2026-04-21T15:52:47.665Z</time></trkpt><trkpt lat="44.628915" lon="9.3330833"><ele>477.66666666666663</ele><time>2026-04-21T15:52:48.664Z</time></trkpt><trkpt lat="44.6291117" lon="9.3330983"><ele>480.0</ele><time>2026-04-21T15:52:49.664Z</time></trkpt><trkpt lat="44.6293083" lon="9.3330967"><ele>481.0</ele><time>2026-04-21T15:52:50.665Z</time></trkpt><trkpt lat="44.6295067" lon="9.3330683"><ele>482.0</ele><time>2026-04-21T15:52:51.665Z</time></trkpt><trkpt lat="44.6296983" lon="9.333005"><ele>483.0</ele><time>2026-04-21T15:52:52.664Z</time></trkpt><trkpt lat="44.629895" lon="9.33292"><ele>483.66666666666663</ele><time>2026-04-21T15:52:53.665Z</time></trkpt><trkpt lat="44.6301" lon="9.3328333"><ele>484.3333333333333</ele><time>2026-04-21T15:52:54.664Z</time></trkpt><trkpt lat="44.6302933" lon="9.3327183"><ele>485.0</ele><time>2026-04-21T15:52:55.665Z</time></trkpt><trkpt lat="44.6304933" lon="9.332575"><ele>485.0</ele><time>2026-04-21T15:52:56.664Z</time></trkpt><trkpt lat="44.630695" lon="9.3324333"><ele>485.0</ele><time>2026-04-21T15:52:57.665Z</time></trkpt><trkpt lat="44.6308967" lon="9.33231"><ele>485.0</ele><time>2026-04-21T15:52:58.665Z</time></trkpt><trkpt lat="44.631095" lon="9.3321667"><ele>483.3333333333333</ele><time>2026-04-21T15:52:59.664Z</time></trkpt><trkpt lat="44.6312883" lon="9.332015"><ele>481.66666666666663</ele><time>2026-04-21T15:53:00.664Z</time></trkpt><trkpt lat="44.6314667" lon="9.331855"><ele>480.0</ele><time>2026-04-21T15:53:01.664Z</time></trkpt><trkpt lat="44.6316433" lon="9.3316767"><ele>480.0</ele><time>2026-04-21T15:53:02.665Z</time></trkpt><trkpt lat="44.63182" lon="9.3314833"><ele>480.0</ele><time>2026-04-21T15:53:03.664Z</time></trkpt><trkpt lat="44.6320017" lon="9.331285"><ele>478.66666666666663</ele><time>2026-04-21T15:53:04.664Z</time></trkpt><trkpt lat="44.6321883" lon="9.3311067"><ele>477.3333333333333</ele><time>2026-04-21T15:53:05.664Z</time></trkpt><trkpt lat="44.6323583" lon="9.33093"><ele>476.0</ele><time>2026-04-21T15:53:06.665Z</time></trkpt><trkpt lat="44.6325167" lon="9.33076"><ele>476.0</ele><time>2026-04-21T15:53:07.664Z</time></trkpt><trkpt lat="44.6326833" lon="9.3306017"><ele>476.0</ele><time>2026-04-21T15:53:08.664Z</time></trkpt><trkpt lat="44.6328567" lon="9.3304533"><ele>476.0</ele><time>2026-04-21T15:53:09.665Z</time></trkpt><trkpt lat="44.633045" lon="9.3303067"><ele>474.66666666666663</ele><time>2026-04-21T15:53:10.665Z</time></trkpt><trkpt lat="44.633235" lon="9.3301717"><ele>473.33333333333337</ele><time>2026-04-21T15:53:11.665Z</time></trkpt><trkpt lat="44.633435" lon="9.3300283"><ele>472.0</ele><time>2026-04-21T15:53:12.664Z</time></trkpt><trkpt lat="44.6336333" lon="9.32989"><ele>471.0</ele><time>2026-04-21T15:53:13.664Z</time></trkpt><trkpt lat="44.6338283" lon="9.3297517"><ele>470.0</ele><time>2026-04-21T15:53:14.664Z</time></trkpt><trkpt lat="44.634025" lon="9.329605"><ele>469.0</ele><time>2026-04-21T15:53:15.664Z</time></trkpt><trkpt lat="44.6342217" lon="9.329475"><ele>469.0</ele><time>2026-04-21T15:53:16.664Z</time></trkpt><trkpt lat="44.6344117" lon="9.3293667"><ele>469.0</ele><time>2026-04-21T15:53:17.665Z</time></trkpt><trkpt lat="44.6346017" lon="9.329235"><ele>469.0</ele><time>2026-04-21T15:53:18.664Z</time></trkpt><trkpt lat="44.6347817" lon="9.3291183"><ele>467.6666666666667</ele><time>2026-04-21T15:53:19.665Z</time></trkpt><trkpt lat="44.6349517" lon="9.32899"><ele>466.33333333333337</ele><time>2026-04-21T15:53:20.665Z</time></trkpt><trkpt lat="44.635125" lon="9.3288817"><ele>465.0</ele><time>2026-04-21T15:53:21.664Z</time></trkpt><trkpt lat="44.6352967" lon="9.3287683"><ele>465.66666666666663</ele><time>2026-04-21T15:53:22.664Z</time></trkpt><trkpt lat="44.6354683" lon="9.3286733"><ele>466.3333333333333</ele><time>2026-04-21T15:53:23.665Z</time></trkpt><trkpt lat="44.63566" lon="9.328595"><ele>467.0</ele><time>2026-04-21T15:53:24.665Z</time></trkpt><trkpt lat="44.6358433" lon="9.3285517"><ele>467.0</ele><time>2026-04-21T15:53:25.665Z</time></trkpt><trkpt lat="44.6360283" lon="9.3285267"><ele>467.0</ele><time>2026-04-21T15:53:26.665Z</time></trkpt><trkpt lat="44.6362183" lon="9.32853"><ele>467.0</ele><time>2026-04-21T15:53:27.664Z</time></trkpt><trkpt lat="44.6364033" lon="9.328555"><ele>465.66666666666663</ele><time>2026-04-21T15:53:28.664Z</time></trkpt><trkpt lat="44.6365917" lon="9.3286167"><ele>464.33333333333337</ele><time>2026-04-21T15:53:29.664Z</time></trkpt><trkpt lat="44.6367683" lon="9.3287067"><ele>463.0</ele><time>2026-04-21T15:53:30.664Z</time></trkpt><trkpt lat="44.63694" lon="9.328815"><ele>464.6666666666667</ele><time>2026-04-21T15:53:31.664Z</time></trkpt><trkpt lat="44.63712" lon="9.32895"><ele>466.33333333333337</ele><time>2026-04-21T15:53:32.665Z</time></trkpt><trkpt lat="44.6372967" lon="9.32907"><ele>468.0</ele><time>2026-04-21T15:53:33.665Z</time></trkpt><trkpt lat="44.63749" lon="9.3292167"><ele>468.0</ele><time>2026-04-21T15:53:34.665Z</time></trkpt><trkpt lat="44.6376817" lon="9.32936"><ele>468.0</ele><time>2026-04-21T15:53:35.665Z</time></trkpt><trkpt lat="44.6378867" lon="9.329515"><ele>469.66666666666663</ele><time>2026-04-21T15:53:36.665Z</time></trkpt><trkpt lat="44.63807" lon="9.3296667"><ele>471.3333333333333</ele><time>2026-04-21T15:53:37.664Z</time></trkpt><trkpt lat="44.638255" lon="9.3298067"><ele>473.0</ele><time>2026-04-21T15:53:38.664Z</time></trkpt><trkpt lat="44.6384283" lon="9.3298967"><ele>473.0</ele><time>2026-04-21T15:53:39.665Z</time></trkpt><trkpt lat="44.638605" lon="9.329965"><ele>473.0</ele><time>2026-04-21T15:53:40.664Z</time></trkpt><trkpt lat="44.6387917" lon="9.3300033"><ele>473.0</ele><time>2026-04-21T15:53:41.665Z</time></trkpt><trkpt lat="44.6389733" lon="9.330025"><ele>469.0</ele><time>2026-04-21T15:53:42.665Z</time></trkpt><trkpt lat="44.6391667" lon="9.3300233"><ele>465.0</ele><time>2026-04-21T15:53:43.665Z</time></trkpt><trkpt lat="44.6393617" lon="9.3299883"><ele>461.0</ele><time>2026-04-21T15:53:44.664Z</time></trkpt><trkpt lat="44.6395667" lon="9.3299483"><ele>460.3333333333333</ele><time>2026-04-21T15:53:45.664Z</time></trkpt><trkpt lat="44.6397667" lon="9.3298833"><ele>459.66666666666663</ele><time>2026-04-21T15:53:46.665Z</time></trkpt><trkpt lat="44.6399783" lon="9.3298433"><ele>459.0</ele><time>2026-04-21T15:53:47.664Z</time></trkpt><trkpt lat="44.6401967" lon="9.329795"><ele>458.0</ele><time>2026-04-21T15:53:48.664Z</time></trkpt><trkpt lat="44.6404033" lon="9.3297467"><ele>457.0</ele><time>2026-04-21T15:53:49.665Z</time></trkpt><trkpt lat="44.6406133" lon="9.3297"><ele>456.0</ele><time>2026-04-21T15:53:50.665Z</time></trkpt><trkpt lat="44.6408383" lon="9.3296533"><ele>458.66666666666663</ele><time>2026-04-21T15:53:51.664Z</time></trkpt><trkpt lat="44.6410567" lon="9.3295917"><ele>461.3333333333333</ele><time>2026-04-21T15:53:52.665Z</time></trkpt><trkpt lat="44.6412767" lon="9.3295383"><ele>464.0</ele><time>2026-04-21T15:53:53.665Z</time></trkpt><trkpt lat="44.64149" lon="9.3294767"><ele>464.0</ele><time>2026-04-21T15:53:54.665Z</time></trkpt><trkpt lat="44.6416983" lon="9.3294317"><ele>464.0</ele><time>2026-04-21T15:53:55.665Z</time></trkpt><trkpt lat="44.641905" lon="9.3293783"><ele>464.0</ele><time>2026-04-21T15:53:56.664Z</time></trkpt><trkpt lat="44.6420983" lon="9.3293133"><ele>463.0</ele><time>2026-04-21T15:53:57.664Z</time></trkpt><trkpt lat="44.6422833" lon="9.329245"><ele>462.0</ele><time>2026-04-21T15:53:58.665Z</time></trkpt><trkpt lat="44.6424767" lon="9.3291917"><ele>461.0</ele><time>2026-04-21T15:53:59.664Z</time></trkpt><trkpt lat="44.6426617" lon="9.329135"><ele>460.3333333333333</ele><time>2026-04-21T15:54:00.664Z</time></trkpt><trkpt lat="44.6428633" lon="9.32908"><ele>459.66666666666663</ele><time>2026-04-21T15:54:01.665Z</time></trkpt><trkpt lat="44.6430567" lon="9.3290217"><ele>459.0</ele><time>2026-04-21T15:54:02.665Z</time></trkpt><trkpt lat="44.6432617" lon="9.3289717"><ele>459.0</ele><time>2026-04-21T15:54:03.664Z</time></trkpt><trkpt lat="44.64346" lon="9.328915"><ele>459.0</ele><time>2026-04-21T15:54:04.664Z</time></trkpt><trkpt lat="44.6436517" lon="9.3288533"><ele>459.0</ele><time>2026-04-21T15:54:05.664Z</time></trkpt><trkpt lat="44.643855" lon="9.3288"><ele>462.33333333333337</ele><time>2026-04-21T15:54:06.664Z</time></trkpt><trkpt lat="44.6440583" lon="9.3287567"><ele>465.6666666666667</ele><time>2026-04-21T15:54:07.664Z</time></trkpt><trkpt lat="44.6442567" lon="9.3287017"><ele>469.0</ele><time>2026-04-21T15:54:08.664Z</time></trkpt><trkpt lat="44.6444567" lon="9.3286583"><ele>468.33333333333337</ele><time>2026-04-21T15:54:09.664Z</time></trkpt><trkpt lat="44.644645" lon="9.3286083"><ele>467.66666666666663</ele><time>2026-04-21T15:54:10.664Z</time></trkpt><trkpt lat="44.644835" lon="9.3285483"><ele>467.0</ele><time>2026-04-21T15:54:11.664Z</time></trkpt><trkpt lat="44.64502" lon="9.3284717"><ele>467.0</ele><time>2026-04-21T15:54:12.665Z</time></trkpt><trkpt lat="44.64518" lon="9.3283967"><ele>467.0</ele><time>2026-04-21T15:54:13.664Z</time></trkpt><trkpt lat="44.6453367" lon="9.328315"><ele>467.0</ele><time>2026-04-21T15:54:14.665Z</time></trkpt><trkpt lat="44.64548" lon="9.3282183"><ele>467.66666666666663</ele><time>2026-04-21T15:54:15.665Z</time></trkpt><trkpt lat="44.64563" lon="9.3281117"><ele>468.33333333333337</ele><time>2026-04-21T15:54:16.664Z</time></trkpt><trkpt lat="44.6457683" lon="9.3279917"><ele>469.0</ele><time>2026-04-21T15:54:17.665Z</time></trkpt><trkpt lat="44.6459233" lon="9.3278833"><ele>469.0</ele><time>2026-04-21T15:54:18.664Z</time></trkpt><trkpt lat="44.64608" lon="9.327785"><ele>469.0</ele><time>2026-04-21T15:54:19.664Z</time></trkpt><trkpt lat="44.646205" lon="9.32768"><ele>469.0</ele><time>2026-04-21T15:54:20.665Z</time></trkpt><trkpt lat="44.646295" lon="9.3275617"><ele>469.0</ele><time>2026-04-21T15:54:21.664Z</time></trkpt><trkpt lat="44.6463767" lon="9.327415"><ele>469.0</ele><time>2026-04-21T15:54:22.665Z</time></trkpt><trkpt lat="44.6464417" lon="9.32727"><ele>469.0</ele><time>2026-04-21T15:54:23.665Z</time></trkpt><trkpt lat="44.6465183" lon="9.327135"><ele>469.0</ele><time>2026-04-21T15:54:24.665Z</time></trkpt><trkpt lat="44.6466167" lon="9.32701"><ele>469.0</ele><time>2026-04-21T15:54:25.664Z</time></trkpt><trkpt lat="44.6467017" lon="9.326885"><ele>469.0</ele><time>2026-04-21T15:54:26.664Z</time></trkpt><trkpt lat="44.6467967" lon="9.3267817"><ele>469.0</ele><time>2026-04-21T15:54:27.664Z</time></trkpt><trkpt lat="44.6468717" lon="9.3266717"><ele>469.0</ele><time>2026-04-21T15:54:28.664Z</time></trkpt><trkpt lat="44.6469367" lon="9.32656"><ele>469.0</ele><time>2026-04-21T15:54:29.664Z</time></trkpt><trkpt lat="44.6470333" lon="9.326465"><ele>469.0</ele><time>2026-04-21T15:54:30.665Z</time></trkpt><trkpt lat="44.6471167" lon="9.32636"><ele>464.0</ele><time>2026-04-21T15:54:31.664Z</time></trkpt><trkpt lat="44.64718" lon="9.3262367"><ele>459.0</ele><time>2026-04-21T15:54:32.664Z</time></trkpt><trkpt lat="44.6472283" lon="9.3260917"><ele>454.0</ele><time>2026-04-21T15:54:33.664Z</time></trkpt><trkpt lat="44.6472433" lon="9.3259133"><ele>449.0</ele><time>2026-04-21T15:54:34.665Z</time></trkpt><trkpt lat="44.6472467" lon="9.3257033"><ele>449.66666666666663</ele><time>2026-04-21T15:54:35.665Z</time></trkpt><trkpt lat="44.6472333" lon="9.325465"><ele>450.33333333333337</ele><time>2026-04-21T15:54:36.664Z</time></trkpt><trkpt lat="44.6472067" lon="9.3252433"><ele>451.0</ele><time>2026-04-21T15:54:37.665Z</time></trkpt><trkpt lat="44.64718" lon="9.3250183"><ele>451.0</ele><time>2026-04-21T15:54:38.664Z</time></trkpt><trkpt lat="44.6471567" lon="9.324805"><ele>451.0</ele><time>2026-04-21T15:54:39.665Z</time></trkpt><trkpt lat="44.6471383" lon="9.3245983"><ele>451.0</ele><time>2026-04-21T15:54:40.665Z</time></trkpt><trkpt lat="44.6471183" lon="9.324405"><ele>451.0</ele><time>2026-04-21T15:54:41.665Z</time></trkpt><trkpt lat="44.6471133" lon="9.3242383"><ele>450.8</ele><time>2026-04-21T15:54:42.664Z</time></trkpt><trkpt lat="44.6471233" lon="9.32409"><ele>450.6</ele><time>2026-04-21T15:54:43.664Z</time></trkpt><trkpt lat="44.6471433" lon="9.32397"><ele>450.4</ele><time>2026-04-21T15:54:44.664Z</time></trkpt><trkpt lat="44.6471517" lon="9.32382"><ele>450.2</ele><time>2026-04-21T15:54:46.664Z</time></trkpt><trkpt lat="44.647085" lon="9.323905"><ele>450.0</ele><time>2026-04-21T15:54:51.665Z</time></trkpt><trkpt lat="44.6470583" lon="9.3240867"><ele>450.25</ele><time>2026-04-21T15:54:53.664Z</time></trkpt><trkpt lat="44.6470417" lon="9.3242317"><ele>450.5</ele><time>2026-04-21T15:54:54.665Z</time></trkpt><trkpt lat="44.6470417" lon="9.324425"><ele>450.75</ele><time>2026-04-21T15:54:55.664Z</time></trkpt><trkpt lat="44.6470283" lon="9.32464"><ele>451.0</ele><time>2026-04-21T15:54:56.664Z</time></trkpt><trkpt lat="44.6470017" lon="9.3248483"><ele>451.0</ele><time>2026-04-21T15:54:57.664Z</time></trkpt><trkpt lat="44.64698" lon="9.3250367"><ele>451.0</ele><time>2026-04-21T15:54:58.665Z</time></trkpt><trkpt lat="44.6469733" lon="9.3252317"><ele>451.0</ele><time>2026-04-21T15:54:59.665Z</time></trkpt><trkpt lat="44.64698" lon="9.3254067"><ele>451.0</ele><time>2026-04-21T15:55:00.664Z</time></trkpt><trkpt lat="44.6470083" lon="9.3256033"><ele>450.6</ele><time>2026-04-21T15:55:01.664Z</time></trkpt><trkpt lat="44.647035" lon="9.325805"><ele>450.20000000000005</ele><time>2026-04-21T15:55:02.665Z</time></trkpt><trkpt lat="44.6470483" lon="9.32597"><ele>449.79999999999995</ele><time>2026-04-21T15:55:03.665Z</time></trkpt><trkpt lat="44.647065" lon="9.3261033"><ele>449.4</ele><time>2026-04-21T15:55:04.664Z</time></trkpt><trkpt lat="44.6470667" lon="9.3262017"><ele>449.0</ele><time>2026-04-21T15:55:05.665Z</time></trkpt><trkpt lat="44.647025" lon="9.3263167"><ele>454.4</ele><time>2026-04-21T15:55:07.665Z</time></trkpt><trkpt lat="44.6469517" lon="9.3262483"><ele>459.79999999999995</ele><time>2026-04-21T15:55:10.664Z</time></trkpt><trkpt lat="44.6469333" lon="9.3261167"><ele>465.20000000000005</ele><time>2026-04-21T15:55:11.664Z</time></trkpt><trkpt lat="44.646915" lon="9.3259583"><ele>470.6</ele><time>2026-04-21T15:55:12.664Z</time></trkpt><trkpt lat="44.6468867" lon="9.32578"><ele>476.0</ele><time>2026-04-21T15:55:13.664Z</time></trkpt><trkpt lat="44.646835" lon="9.3256067"><ele>475.75</ele><time>2026-04-21T15:55:14.664Z</time></trkpt><trkpt lat="44.6467867" lon="9.3254383"><ele>475.5</ele><time>2026-04-21T15:55:15.665Z</time></trkpt><trkpt lat="44.6467517" lon="9.3252717"><ele>475.25</ele><time>2026-04-21T15:55:16.664Z</time></trkpt><trkpt lat="44.64672" lon="9.3251017"><ele>475.0</ele><time>2026-04-21T15:55:17.664Z</time></trkpt><trkpt lat="44.6466933" lon="9.32493"><ele>475.0</ele><time>2026-04-21T15:55:18.664Z</time></trkpt><trkpt lat="44.6466667" lon="9.3247583"><ele>475.0</ele><time>2026-04-21T15:55:19.665Z</time></trkpt><trkpt lat="44.64666" lon="9.3246183"><ele>475.0</ele><time>2026-04-21T15:55:20.664Z</time></trkpt><trkpt lat="44.6466817" lon="9.3244783"><ele>475.0</ele><time>2026-04-21T15:55:21.665Z</time></trkpt><trkpt lat="44.64672" lon="9.3243233"><ele>475.0</ele><time>2026-04-21T15:55:22.665Z</time></trkpt><trkpt lat="44.6467683" lon="9.32418"><ele>476.0</ele><time>2026-04-21T15:55:23.664Z</time></trkpt><trkpt lat="44.6467933" lon="9.32403"><ele>477.0</ele><time>2026-04-21T15:55:24.664Z</time></trkpt><trkpt lat="44.6467983" lon="9.3238833"><ele>478.0</ele><time>2026-04-21T15:55:25.665Z</time></trkpt><trkpt lat="44.64678" lon="9.323755"><ele>479.0</ele><time>2026-04-21T15:55:26.664Z</time></trkpt><trkpt lat="44.6467267" lon="9.3236433"><ele>480.0</ele><time>2026-04-21T15:55:27.665Z</time></trkpt><trkpt lat="44.646655" lon="9.3235683"><ele>480.0</ele><time>2026-04-21T15:55:28.664Z</time></trkpt><trkpt lat="44.6465683" lon="9.3235183"><ele>480.0</ele><time>2026-04-21T15:55:29.665Z</time></trkpt><trkpt lat="44.6464633" lon="9.3234933"><ele>480.0</ele><time>2026-04-21T15:55:30.665Z</time></trkpt><trkpt lat="44.6463383" lon="9.3234733"><ele>480.0</ele><time>2026-04-21T15:55:31.664Z</time></trkpt><trkpt lat="44.64623" lon="9.323435"><ele>480.0</ele><time>2026-04-21T15:55:32.665Z</time></trkpt><trkpt lat="44.64614" lon="9.323375"><ele>481.0</ele><time>2026-04-21T15:55:33.664Z</time></trkpt><trkpt lat="44.6460767" lon="9.3232817"><ele>482.0</ele><time>2026-04-21T15:55:34.665Z</time></trkpt><trkpt lat="44.64605" lon="9.323165"><ele>483.0</ele><time>2026-04-21T15:55:35.664Z</time></trkpt><trkpt lat="44.64604" lon="9.3230033"><ele>484.0</ele><time>2026-04-21T15:55:36.664Z</time></trkpt><trkpt lat="44.6460633" lon="9.3228433"><ele>485.0</ele><time>2026-04-21T15:55:37.664Z</time></trkpt><trkpt lat="44.6461333" lon="9.322685"><ele>485.0</ele><time>2026-04-21T15:55:38.665Z</time></trkpt><trkpt lat="44.6461933" lon="9.3225017"><ele>485.0</ele><time>2026-04-21T15:55:39.664Z</time></trkpt><trkpt lat="44.6462583" lon="9.3223133"><ele>485.0</ele><time>2026-04-21T15:55:40.664Z</time></trkpt><trkpt lat="44.6463383" lon="9.3221383"><ele>485.0</ele><time>2026-04-21T15:55:41.664Z</time></trkpt><trkpt lat="44.6463883" lon="9.3219683"><ele>486.0</ele><time>2026-04-21T15:55:42.664Z</time></trkpt><trkpt lat="44.6464167" lon="9.3218167"><ele>487.0</ele><time>2026-04-21T15:55:43.665Z</time></trkpt><trkpt lat="44.6464267" lon="9.3216567"><ele>488.0</ele><time>2026-04-21T15:55:44.665Z</time></trkpt><trkpt lat="44.6464183" lon="9.3214817"><ele>489.0</ele><time>2026-04-21T15:55:45.664Z</time></trkpt><trkpt lat="44.646445" lon="9.321305"><ele>492.0</ele><time>2026-04-21T15:55:46.665Z</time></trkpt><trkpt lat="44.6464983" lon="9.3211633"><ele>495.0</ele><time>2026-04-21T15:55:47.664Z</time></trkpt><trkpt lat="44.646585" lon="9.321055"><ele>498.0</ele><time>2026-04-21T15:55:48.664Z</time></trkpt><trkpt lat="44.6466733" lon="9.3209733"><ele>501.0</ele><time>2026-04-21T15:55:49.665Z</time></trkpt><trkpt lat="44.6467517" lon="9.3208717"><ele>504.0</ele><time>2026-04-21T15:55:50.664Z</time></trkpt><trkpt lat="44.6468233" lon="9.3207533"><ele>504.0</ele><time>2026-04-21T15:55:51.664Z</time></trkpt><trkpt lat="44.6468867" lon="9.320595"><ele>504.0</ele><time>2026-04-21T15:55:52.664Z</time></trkpt><trkpt lat="44.6469517" lon="9.3204133"><ele>504.0</ele><time>2026-04-21T15:55:53.664Z</time></trkpt><trkpt lat="44.6470183" lon="9.32024"><ele>504.0</ele><time>2026-04-21T15:55:54.665Z</time></trkpt><trkpt lat="44.647085" lon="9.3200767"><ele>500.5</ele><time>2026-04-21T15:55:55.664Z</time></trkpt><trkpt lat="44.6471433" lon="9.3199183"><ele>497.0</ele><time>2026-04-21T15:55:56.664Z</time></trkpt><trkpt lat="44.6472183" lon="9.319775"><ele>493.5</ele><time>2026-04-21T15:55:57.665Z</time></trkpt><trkpt lat="44.6472717" lon="9.3195933"><ele>490.0</ele><time>2026-04-21T15:55:58.664Z</time></trkpt><trkpt lat="44.64729" lon="9.31941"><ele>490.0</ele><time>2026-04-21T15:55:59.665Z</time></trkpt><trkpt lat="44.6472967" lon="9.3192117"><ele>490.0</ele><time>2026-04-21T15:56:00.664Z</time></trkpt><trkpt lat="44.647295" lon="9.3190117"><ele>490.0</ele><time>2026-04-21T15:56:01.665Z</time></trkpt><trkpt lat="44.6473083" lon="9.3188117"><ele>490.0</ele><time>2026-04-21T15:56:02.664Z</time></trkpt><trkpt lat="44.6473433" lon="9.3186183"><ele>491.6666666666667</ele><time>2026-04-21T15:56:03.665Z</time></trkpt><trkpt lat="44.64741" lon="9.318425"><ele>493.33333333333337</ele><time>2026-04-21T15:56:04.664Z</time></trkpt><trkpt lat="44.647465" lon="9.3181933"><ele>495.0</ele><time>2026-04-21T15:56:05.664Z</time></trkpt><trkpt lat="44.6475283" lon="9.3179833"><ele>496.5</ele><time>2026-04-21T15:56:06.664Z</time></trkpt><trkpt lat="44.647585" lon="9.3177833"><ele>498.0</ele><time>2026-04-21T15:56:07.664Z</time></trkpt><trkpt lat="44.6476367" lon="9.3176133"><ele>499.5</ele><time>2026-04-21T15:56:08.664Z</time></trkpt><trkpt lat="44.6476667" lon="9.3174733"><ele>501.0</ele><time>2026-04-21T15:56:09.664Z</time></trkpt><trkpt lat="44.6476633" lon="9.3173433"><ele>504.1666666666667</ele><time>2026-04-21T15:56:10.664Z</time></trkpt><trkpt lat="44.6476367" lon="9.3172067"><ele>507.33333333333337</ele><time>2026-04-21T15:56:11.665Z</time></trkpt><trkpt lat="44.6476067" lon="9.3170933"><ele>510.5</ele><time>2026-04-21T15:56:12.665Z</time></trkpt><trkpt lat="44.6475983" lon="9.3169833"><ele>513.6666666666667</ele><time>2026-04-21T15:56:13.665Z</time></trkpt><trkpt lat="44.6476083" lon="9.3168717"><ele>516.8333333333334</ele><time>2026-04-21T15:56:14.665Z</time></trkpt><trkpt lat="44.6476533" lon="9.31677"><ele>520.0</ele><time>2026-04-21T15:56:15.665Z</time></trkpt><trkpt lat="44.647745" lon="9.316685"><ele>513.5</ele><time>2026-04-21T15:56:16.664Z</time></trkpt><trkpt lat="44.6478833" lon="9.3166217"><ele>507.0</ele><time>2026-04-21T15:56:17.665Z</time></trkpt><trkpt lat="44.6480167" lon="9.3165583"><ele>500.5</ele><time>2026-04-21T15:56:18.665Z</time></trkpt><trkpt lat="44.6481517" lon="9.3165067"><ele>494.0</ele><time>2026-04-21T15:56:19.665Z</time></trkpt><trkpt lat="44.648285" lon="9.31649"><ele>493.99999999999994</ele><time>2026-04-21T15:56:20.664Z</time></trkpt><trkpt lat="44.6484117" lon="9.3164667"><ele>494.0</ele><time>2026-04-21T15:56:21.665Z</time></trkpt><trkpt lat="44.6485067" lon="9.3164267"><ele>494.0</ele><time>2026-04-21T15:56:22.664Z</time></trkpt><trkpt lat="44.648575" lon="9.3163683"><ele>494.0</ele><time>2026-04-21T15:56:23.664Z</time></trkpt><trkpt lat="44.64862" lon="9.3162967"><ele>493.99999999999994</ele><time>2026-04-21T15:56:24.665Z</time></trkpt><trkpt lat="44.64864" lon="9.31621"><ele>494.0</ele><time>2026-04-21T15:56:25.664Z</time></trkpt><trkpt lat="44.64863" lon="9.3160983"><ele>498.0</ele><time>2026-04-21T15:56:26.665Z</time></trkpt><trkpt lat="44.6486083" lon="9.31596"><ele>502.0</ele><time>2026-04-21T15:56:27.664Z</time></trkpt><trkpt lat="44.6485483" lon="9.3157833"><ele>506.0</ele><time>2026-04-21T15:56:28.664Z</time></trkpt><trkpt lat="44.648475" lon="9.3155983"><ele>510.0</ele><time>2026-04-21T15:56:29.664Z</time></trkpt><trkpt lat="44.64842" lon="9.3154183"><ele>510.5</ele><time>2026-04-21T15:56:30.665Z</time></trkpt><trkpt lat="44.64838" lon="9.3152467"><ele>511.0</ele><time>2026-04-21T15:56:31.664Z</time></trkpt><trkpt lat="44.64838" lon="9.31508"><ele>511.5</ele><time>2026-04-21T15:56:32.664Z</time></trkpt><trkpt lat="44.6483817" lon="9.314915"><ele>512.0</ele><time>2026-04-21T15:56:33.664Z</time></trkpt><trkpt lat="44.64837" lon="9.3147317"><ele>512.75</ele><time>2026-04-21T15:56:34.664Z</time></trkpt><trkpt lat="44.6483567" lon="9.31456"><ele>513.5</ele><time>2026-04-21T15:56:35.665Z</time></trkpt><trkpt lat="44.6483617" lon="9.31439"><ele>514.25</ele><time>2026-04-21T15:56:36.664Z</time></trkpt><trkpt lat="44.6483883" lon="9.3142417"><ele>515.0</ele><time>2026-04-21T15:56:37.665Z</time></trkpt><trkpt lat="44.648445" lon="9.3140967"><ele>515.0</ele><time>2026-04-21T15:56:38.664Z</time></trkpt><trkpt lat="44.648515" lon="9.3139783"><ele>515.0</ele><time>2026-04-21T15:56:39.664Z</time></trkpt><trkpt lat="44.648605" lon="9.3138733"><ele>515.0</ele><time>2026-04-21T15:56:40.665Z</time></trkpt><trkpt lat="44.648705" lon="9.3137833"><ele>515.0</ele><time>2026-04-21T15:56:41.665Z</time></trkpt><trkpt lat="44.6487967" lon="9.3137067"><ele>511.49999999999994</ele><time>2026-04-21T15:56:42.664Z</time></trkpt><trkpt lat="44.648875" lon="9.3136267"><ele>508.0</ele><time>2026-04-21T15:56:43.665Z</time></trkpt><trkpt lat="44.6489267" lon="9.313535"><ele>504.5</ele><time>2026-04-21T15:56:44.664Z</time></trkpt><trkpt lat="44.6489617" lon="9.3134433"><ele>501.0</ele><time>2026-04-21T15:56:45.664Z</time></trkpt><trkpt lat="44.64896" lon="9.31334"><ele>497.49999999999994</ele><time>2026-04-21T15:56:46.665Z</time></trkpt><trkpt lat="44.6489683" lon="9.313235"><ele>494.0</ele><time>2026-04-21T15:56:47.665Z</time></trkpt><trkpt lat="44.6489917" lon="9.3131383"><ele>495.3333333333333</ele><time>2026-04-21T15:56:48.665Z</time></trkpt><trkpt lat="44.6490417" lon="9.3130467"><ele>496.66666666666663</ele><time>2026-04-21T15:56:49.664Z</time></trkpt><trkpt lat="44.6491083" lon="9.3129633"><ele>498.0</ele><time>2026-04-21T15:56:50.665Z</time></trkpt><trkpt lat="44.6491767" lon="9.3128683"><ele>499.33333333333337</ele><time>2026-04-21T15:56:51.665Z</time></trkpt><trkpt lat="44.6492317" lon="9.312765"><ele>500.6666666666667</ele><time>2026-04-21T15:56:52.665Z</time></trkpt><trkpt lat="44.6492667" lon="9.31265"><ele>502.0</ele><time>2026-04-21T15:56:53.664Z</time></trkpt><trkpt lat="44.6493" lon="9.31253"><ele>502.0</ele><time>2026-04-21T15:56:54.665Z</time></trkpt><trkpt lat="44.6492983" lon="9.3123667"><ele>502.0</ele><time>2026-04-21T15:56:56.665Z</time></trkpt><trkpt lat="44.6491867" lon="9.3122467"><ele>502.0</ele><time>2026-04-21T15:56:58.665Z</time></trkpt><trkpt lat="44.649085" lon="9.3121667"><ele>502.0</ele><time>2026-04-21T15:56:59.665Z</time></trkpt><trkpt lat="44.6489617" lon="9.31207"><ele>500.0</ele><time>2026-04-21T15:57:00.664Z</time></trkpt><trkpt lat="44.6488567" lon="9.311955"><ele>498.00000000000006</ele><time>2026-04-21T15:57:01.665Z</time></trkpt><trkpt lat="44.6487867" lon="9.311835"><ele>496.00000000000006</ele><time>2026-04-21T15:57:02.664Z</time></trkpt><trkpt lat="44.6487433" lon="9.311725"><ele>494.0</ele><time>2026-04-21T15:57:03.664Z</time></trkpt><trkpt lat="44.6487183" lon="9.311615"><ele>492.0</ele><time>2026-04-21T15:57:04.664Z</time></trkpt><trkpt lat="44.648715" lon="9.3114983"><ele>490.0</ele><time>2026-04-21T15:57:05.664Z</time></trkpt><trkpt lat="44.6487333" lon="9.31138"><ele>488.0</ele><time>2026-04-21T15:57:06.664Z</time></trkpt><trkpt lat="44.648775" lon="9.3112867"><ele>486.0</ele><time>2026-04-21T15:57:07.664Z</time></trkpt><trkpt lat="44.6488" lon="9.311185"><ele>484.0</ele><time>2026-04-21T15:57:08.664Z</time></trkpt><trkpt lat="44.648785" lon="9.3110817"><ele>482.0</ele><time>2026-04-21T15:57:09.665Z</time></trkpt><trkpt lat="44.6487033" lon="9.3109833"><ele>480.0</ele><time>2026-04-21T15:57:11.664Z</time></trkpt><trkpt lat="44.6486283" lon="9.3109933"><ele>480.6666666666667</ele><time>2026-04-21T15:57:12.664Z</time></trkpt><trkpt lat="44.648535" lon="9.3110083"><ele>481.33333333333337</ele><time>2026-04-21T15:57:13.665Z</time></trkpt><trkpt lat="44.648455" lon="9.3109833"><ele>482.0</ele><time>2026-04-21T15:57:14.664Z</time></trkpt><trkpt lat="44.6483933" lon="9.310905"><ele>482.6666666666667</ele><time>2026-04-21T15:57:15.664Z</time></trkpt><trkpt lat="44.6483583" lon="9.310805"><ele>483.33333333333337</ele><time>2026-04-21T15:57:16.665Z</time></trkpt><trkpt lat="44.6483517" lon="9.310665"><ele>484.0</ele><time>2026-04-21T15:57:17.665Z</time></trkpt><trkpt lat="44.64835" lon="9.3105217"><ele>484.0</ele><time>2026-04-21T15:57:18.665Z</time></trkpt><trkpt lat="44.6483667" lon="9.310325"><ele>484.0</ele><time>2026-04-21T15:57:19.665Z</time></trkpt><trkpt lat="44.6483583" lon="9.3101433"><ele>484.0</ele><time>2026-04-21T15:57:20.664Z</time></trkpt><trkpt lat="44.6483383" lon="9.310005"><ele>484.0</ele><time>2026-04-21T15:57:21.664Z</time></trkpt><trkpt lat="44.6483" lon="9.3099267"><ele>484.0</ele><time>2026-04-21T15:57:22.665Z</time></trkpt><trkpt lat="44.6482383" lon="9.3098533"><ele>484.0</ele><time>2026-04-21T15:57:23.664Z</time></trkpt><trkpt lat="44.6481633" lon="9.3098"><ele>484.0</ele><time>2026-04-21T15:57:24.664Z</time></trkpt><trkpt lat="44.6480683" lon="9.309795"><ele>484.0</ele><time>2026-04-21T15:57:25.665Z</time></trkpt><trkpt lat="44.6479667" lon="9.3097967"><ele>484.0</ele><time>2026-04-21T15:57:26.665Z</time></trkpt><trkpt lat="44.6478517" lon="9.3098017"><ele>484.0</ele><time>2026-04-21T15:57:27.664Z</time></trkpt><trkpt lat="44.6477533" lon="9.3098033"><ele>485.75</ele><time>2026-04-21T15:57:28.665Z</time></trkpt><trkpt lat="44.6476483" lon="9.3097683"><ele>487.5</ele><time>2026-04-21T15:57:29.665Z</time></trkpt><trkpt lat="44.6475417" lon="9.309695"><ele>489.25</ele><time>2026-04-21T15:57:30.664Z</time></trkpt><trkpt lat="44.64743" lon="9.30958"><ele>491.0</ele><time>2026-04-21T15:57:31.664Z</time></trkpt><trkpt lat="44.64732" lon="9.309455"><ele>488.3333333333333</ele><time>2026-04-21T15:57:32.664Z</time></trkpt><trkpt lat="44.647185" lon="9.3092883"><ele>485.66666666666663</ele><time>2026-04-21T15:57:33.664Z</time></trkpt><trkpt lat="44.6470467" lon="9.3091433"><ele>483.0</ele><time>2026-04-21T15:57:34.665Z</time></trkpt><trkpt lat="44.6469183" lon="9.3090067"><ele>479.33333333333337</ele><time>2026-04-21T15:57:35.664Z</time></trkpt><trkpt lat="44.6467867" lon="9.30885"><ele>475.6666666666667</ele><time>2026-04-21T15:57:36.665Z</time></trkpt><trkpt lat="44.6466617" lon="9.3087133"><ele>472.0</ele><time>2026-04-21T15:57:37.664Z</time></trkpt><trkpt lat="44.6465433" lon="9.3085883"><ele>472.0</ele><time>2026-04-21T15:57:38.665Z</time></trkpt><trkpt lat="44.6464267" lon="9.3084667"><ele>472.00000000000006</ele><time>2026-04-21T15:57:39.664Z</time></trkpt><trkpt lat="44.6463333" lon="9.308385"><ele>472.00000000000006</ele><time>2026-04-21T15:57:40.665Z</time></trkpt><trkpt lat="44.6462667" lon="9.30831"><ele>472.0</ele><time>2026-04-21T15:57:41.664Z</time></trkpt><trkpt lat="44.6462217" lon="9.3082217"><ele>472.0</ele><time>2026-04-21T15:57:42.664Z</time></trkpt><trkpt lat="44.646195" lon="9.3081317"><ele>469.5</ele><time>2026-04-21T15:57:43.665Z</time></trkpt><trkpt lat="44.646185" lon="9.30799"><ele>467.0</ele><time>2026-04-21T15:57:44.664Z</time></trkpt><trkpt lat="44.646195" lon="9.3078267"><ele>464.5</ele><time>2026-04-21T15:57:45.664Z</time></trkpt><trkpt lat="44.6462283" lon="9.3076367"><ele>462.0</ele><time>2026-04-21T15:57:46.664Z</time></trkpt><trkpt lat="44.64624" lon="9.30747"><ele>462.0</ele><time>2026-04-21T15:57:47.665Z</time></trkpt><trkpt lat="44.6462383" lon="9.30731"><ele>462.0</ele><time>2026-04-21T15:57:48.664Z</time></trkpt><trkpt lat="44.6462167" lon="9.30716"><ele>462.0</ele><time>2026-04-21T15:57:49.664Z</time></trkpt><trkpt lat="44.6461783" lon="9.3070033"><ele>462.0</ele><time>2026-04-21T15:57:50.665Z</time></trkpt><trkpt lat="44.64614" lon="9.3068533"><ele>463.5</ele><time>2026-04-21T15:57:51.665Z</time></trkpt><trkpt lat="44.6460967" lon="9.3067217"><ele>465.0</ele><time>2026-04-21T15:57:52.664Z</time></trkpt><trkpt lat="44.6460283" lon="9.3065967"><ele>466.5</ele><time>2026-04-21T15:57:53.665Z</time></trkpt><trkpt lat="44.6459383" lon="9.306505"><ele>468.0</ele><time>2026-04-21T15:57:54.664Z</time></trkpt><trkpt lat="44.6458217" lon="9.30641"><ele>463.5</ele><time>2026-04-21T15:57:55.665Z</time></trkpt><trkpt lat="44.6456983" lon="9.3063133"><ele>459.0</ele><time>2026-04-21T15:57:56.664Z</time></trkpt><trkpt lat="44.64558" lon="9.3062133"><ele>454.5</ele><time>2026-04-21T15:57:57.665Z</time></trkpt><trkpt lat="44.6454667" lon="9.3061183"><ele>450.0</ele><time>2026-04-21T15:57:58.665Z</time></trkpt><trkpt lat="44.6453517" lon="9.3060433"><ele>455.75</ele><time>2026-04-21T15:57:59.665Z</time></trkpt><trkpt lat="44.6452367" lon="9.3059833"><ele>461.5</ele><time>2026-04-21T15:58:00.664Z</time></trkpt><trkpt lat="44.6451183" lon="9.3059167"><ele>467.25</ele><time>2026-04-21T15:58:01.664Z</time></trkpt><trkpt lat="44.645005" lon="9.3058483"><ele>473.0</ele><time>2026-04-21T15:58:02.664Z</time></trkpt><trkpt lat="44.6448967" lon="9.305745"><ele>473.0</ele><time>2026-04-21T15:58:03.665Z</time></trkpt><trkpt lat="44.6448083" lon="9.3056267"><ele>473.0</ele><time>2026-04-21T15:58:04.665Z</time></trkpt><trkpt lat="44.6447333" lon="9.3054933"><ele>473.0</ele><time>2026-04-21T15:58:05.665Z</time></trkpt><trkpt lat="44.6446733" lon="9.3053333"><ele>473.0</ele><time>2026-04-21T15:58:06.664Z</time></trkpt><trkpt lat="44.6446517" lon="9.3052017"><ele>470.5</ele><time>2026-04-21T15:58:07.665Z</time></trkpt><trkpt lat="44.644675" lon="9.3050333"><ele>468.0</ele><time>2026-04-21T15:58:08.664Z</time></trkpt><trkpt lat="44.6447167" lon="9.3048817"><ele>465.5</ele><time>2026-04-21T15:58:09.664Z</time></trkpt><trkpt lat="44.644785" lon="9.304745"><ele>463.0</ele><time>2026-04-21T15:58:10.665Z</time></trkpt><trkpt lat="44.644855" lon="9.3046467"><ele>463.0</ele><time>2026-04-21T15:58:11.665Z</time></trkpt><trkpt lat="44.6449367" lon="9.3045917"><ele>462.99999999999994</ele><time>2026-04-21T15:58:12.665Z</time></trkpt><trkpt lat="44.6450183" lon="9.3045733"><ele>462.99999999999994</ele><time>2026-04-21T15:58:13.665Z</time></trkpt><trkpt lat="44.6451183" lon="9.3046083"><ele>463.0</ele><time>2026-04-21T15:58:14.664Z</time></trkpt><trkpt lat="44.6452283" lon="9.304675"><ele>463.0</ele><time>2026-04-21T15:58:15.665Z</time></trkpt><trkpt lat="44.645355" lon="9.3047717"><ele>463.5</ele><time>2026-04-21T15:58:16.665Z</time></trkpt><trkpt lat="44.6454917" lon="9.3048517"><ele>464.0</ele><time>2026-04-21T15:58:17.665Z</time></trkpt><trkpt lat="44.645635" lon="9.3049233"><ele>464.5</ele><time>2026-04-21T15:58:18.665Z</time></trkpt><trkpt lat="44.6457733" lon="9.304995"><ele>465.0</ele><time>2026-04-21T15:58:19.664Z</time></trkpt><trkpt lat="44.6459167" lon="9.3050717"><ele>465.0</ele><time>2026-04-21T15:58:20.664Z</time></trkpt><trkpt lat="44.6460633" lon="9.3051483"><ele>465.0</ele><time>2026-04-21T15:58:21.664Z</time></trkpt><trkpt lat="44.6461983" lon="9.3052483"><ele>465.0</ele><time>2026-04-21T15:58:22.664Z</time></trkpt><trkpt lat="44.6463433" lon="9.3053217"><ele>470.66666666666663</ele><time>2026-04-21T15:58:23.664Z</time></trkpt><trkpt lat="44.6464933" lon="9.3053717"><ele>476.3333333333333</ele><time>2026-04-21T15:58:24.664Z</time></trkpt><trkpt lat="44.6466383" lon="9.3054217"><ele>482.0</ele><time>2026-04-21T15:58:25.664Z</time></trkpt><trkpt lat="44.6467867" lon="9.3054733"><ele>482.0</ele><time>2026-04-21T15:58:26.665Z</time></trkpt><trkpt lat="44.6469267" lon="9.3055217"><ele>482.0</ele><time>2026-04-21T15:58:27.664Z</time></trkpt><trkpt lat="44.64706" lon="9.3055617"><ele>482.0</ele><time>2026-04-21T15:58:28.664Z</time></trkpt><trkpt lat="44.6471917" lon="9.30558"><ele>482.0</ele><time>2026-04-21T15:58:29.664Z</time></trkpt><trkpt lat="44.6473283" lon="9.3055667"><ele>486.25</ele><time>2026-04-21T15:58:30.664Z</time></trkpt><trkpt lat="44.64746" lon="9.305545"><ele>490.5</ele><time>2026-04-21T15:58:31.664Z</time></trkpt><trkpt lat="44.6475983" lon="9.3055517"><ele>494.75</ele><time>2026-04-21T15:58:32.665Z</time></trkpt><trkpt lat="44.6477233" lon="9.3055633"><ele>499.0</ele><time>2026-04-21T15:58:33.664Z</time></trkpt><trkpt lat="44.647855" lon="9.3055533"><ele>502.25</ele><time>2026-04-21T15:58:34.665Z</time></trkpt><trkpt lat="44.6479867" lon="9.3055383"><ele>505.5</ele><time>2026-04-21T15:58:35.665Z</time></trkpt><trkpt lat="44.6481183" lon="9.3055083"><ele>508.75</ele><time>2026-04-21T15:58:36.664Z</time></trkpt><trkpt lat="44.6482383" lon="9.3054817"><ele>512.0</ele><time>2026-04-21T15:58:37.665Z</time></trkpt><trkpt lat="44.6483367" lon="9.30549"><ele>511.99999999999994</ele><time>2026-04-21T15:58:38.665Z</time></trkpt><trkpt lat="44.6484283" lon="9.3055083"><ele>512.0</ele><time>2026-04-21T15:58:39.664Z</time></trkpt><trkpt lat="44.6484967" lon="9.3055267"><ele>512.0</ele><time>2026-04-21T15:58:40.664Z</time></trkpt><trkpt lat="44.6485833" lon="9.3055117"><ele>512.0</ele><time>2026-04-21T15:58:42.664Z</time></trkpt><trkpt lat="44.6485117" lon="9.30541"><ele>511.99999999999994</ele><time>2026-04-21T15:58:46.664Z</time></trkpt><trkpt lat="44.648435" lon="9.3053967"><ele>512.0</ele><time>2026-04-21T15:58:47.664Z</time></trkpt><trkpt lat="44.64832" lon="9.3053783"><ele>512.0</ele><time>2026-04-21T15:58:48.665Z</time></trkpt><trkpt lat="44.6481817" lon="9.3053383"><ele>512.0</ele><time>2026-04-21T15:58:49.664Z</time></trkpt><trkpt lat="44.6480417" lon="9.3052683"><ele>512.0</ele><time>2026-04-21T15:58:50.665Z</time></trkpt><trkpt lat="44.6478983" lon="9.3051933"><ele>512.0</ele><time>2026-04-21T15:58:51.664Z</time></trkpt><trkpt lat="44.6477617" lon="9.3051233"><ele>507.66666666666663</ele><time>2026-04-21T15:58:52.664Z</time></trkpt><trkpt lat="44.647615" lon="9.3050317"><ele>503.33333333333337</ele><time>2026-04-21T15:58:53.664Z</time></trkpt><trkpt lat="44.647465" lon="9.304955"><ele>499.0</ele><time>2026-04-21T15:58:54.664Z</time></trkpt><trkpt lat="44.647305" lon="9.30487"><ele>499.0</ele><time>2026-04-21T15:58:55.665Z</time></trkpt><trkpt lat="44.647145" lon="9.3047783"><ele>499.0</ele><time>2026-04-21T15:58:56.665Z</time></trkpt><trkpt lat="44.6469817" lon="9.3046867"><ele>499.0</ele><time>2026-04-21T15:58:57.664Z</time></trkpt><trkpt lat="44.646825" lon="9.3045933"><ele>503.33333333333337</ele><time>2026-04-21T15:58:58.664Z</time></trkpt><trkpt lat="44.6466867" lon="9.3045"><ele>507.66666666666663</ele><time>2026-04-21T15:58:59.664Z</time></trkpt><trkpt lat="44.6465667" lon="9.304415"><ele>512.0</ele><time>2026-04-21T15:59:00.665Z</time></trkpt><trkpt lat="44.646405" lon="9.3043383"><ele>512.0</ele><time>2026-04-21T15:59:01.665Z</time></trkpt><trkpt lat="44.64626" lon="9.304255"><ele>512.0</ele><time>2026-04-21T15:59:02.664Z</time></trkpt><trkpt lat="44.646125" lon="9.3041633"><ele>512.0</ele><time>2026-04-21T15:59:03.664Z</time></trkpt><trkpt lat="44.646015" lon="9.3040667"><ele>512.0</ele><time>2026-04-21T15:59:04.664Z</time></trkpt><trkpt lat="44.6459217" lon="9.3039683"><ele>512.0</ele><time>2026-04-21T15:59:05.664Z</time></trkpt><trkpt lat="44.6458417" lon="9.30388"><ele>512.0</ele><time>2026-04-21T15:59:06.664Z</time></trkpt><trkpt lat="44.645785" lon="9.3037833"><ele>512.0</ele><time>2026-04-21T15:59:07.664Z</time></trkpt><trkpt lat="44.6457433" lon="9.3036517"><ele>512.0</ele><time>2026-04-21T15:59:08.664Z</time></trkpt><trkpt lat="44.64573" lon="9.3035117"><ele>512.0</ele><time>2026-04-21T15:59:09.664Z</time></trkpt><trkpt lat="44.6457417" lon="9.3033517"><ele>512.0</ele><time>2026-04-21T15:59:10.664Z</time></trkpt><trkpt lat="44.6457667" lon="9.3031833"><ele>512.0</ele><time>2026-04-21T15:59:11.665Z</time></trkpt><trkpt lat="44.6457867" lon="9.3030017"><ele>512.0</ele><time>2026-04-21T15:59:12.665Z</time></trkpt><trkpt lat="44.6458033" lon="9.30283"><ele>512.0</ele><time>2026-04-21T15:59:13.664Z</time></trkpt><trkpt lat="44.6458033" lon="9.3026683"><ele>511.8</ele><time>2026-04-21T15:59:14.664Z</time></trkpt><trkpt lat="44.6457883" lon="9.3025183"><ele>511.6</ele><time>2026-04-21T15:59:15.665Z</time></trkpt><trkpt lat="44.6457817" lon="9.30238"><ele>511.40000000000003</ele><time>2026-04-21T15:59:16.664Z</time></trkpt><trkpt lat="44.6458" lon="9.3022517"><ele>511.20000000000005</ele><time>2026-04-21T15:59:17.665Z</time></trkpt><trkpt lat="44.6458533" lon="9.30213"><ele>511.0</ele><time>2026-04-21T15:59:18.664Z</time></trkpt><trkpt lat="44.6459167" lon="9.3020133"><ele>510.20000000000005</ele><time>2026-04-21T15:59:19.664Z</time></trkpt><trkpt lat="44.6459983" lon="9.3019183"><ele>509.40000000000003</ele><time>2026-04-21T15:59:20.664Z</time></trkpt><trkpt lat="44.6460817" lon="9.3018317"><ele>508.6</ele><time>2026-04-21T15:59:21.664Z</time></trkpt><trkpt lat="44.6461767" lon="9.30179"><ele>507.8</ele><time>2026-04-21T15:59:22.664Z</time></trkpt><trkpt lat="44.6462683" lon="9.301755"><ele>507.0</ele><time>2026-04-21T15:59:23.664Z</time></trkpt><trkpt lat="44.64635" lon="9.301705"><ele>511.40000000000003</ele><time>2026-04-21T15:59:24.664Z</time></trkpt><trkpt lat="44.6464183" lon="9.30165"><ele>515.8000000000001</ele><time>2026-04-21T15:59:25.665Z</time></trkpt><trkpt lat="44.6464633" lon="9.3015667"><ele>520.2</ele><time>2026-04-21T15:59:26.664Z</time></trkpt><trkpt lat="44.6464333" lon="9.3013867"><ele>524.6</ele><time>2026-04-21T15:59:28.665Z</time></trkpt><trkpt lat="44.64643" lon="9.3012567"><ele>529.0</ele><time>2026-04-21T15:59:29.664Z</time></trkpt><trkpt lat="44.64642" lon="9.301105"><ele>529.0</ele><time>2026-04-21T15:59:30.665Z</time></trkpt><trkpt lat="44.6464467" lon="9.3009433"><ele>529.0</ele><time>2026-04-21T15:59:31.665Z</time></trkpt><trkpt lat="44.64649" lon="9.30078"><ele>529.0</ele><time>2026-04-21T15:59:32.665Z</time></trkpt><trkpt lat="44.6465433" lon="9.3006217"><ele>529.0</ele><time>2026-04-21T15:59:33.665Z</time></trkpt><trkpt lat="44.64661" lon="9.300465"><ele>529.0</ele><time>2026-04-21T15:59:34.664Z</time></trkpt><trkpt lat="44.6466717" lon="9.3003317"><ele>529.0</ele><time>2026-04-21T15:59:35.665Z</time></trkpt><trkpt lat="44.6467367" lon="9.3002233"><ele>529.0</ele><time>2026-04-21T15:59:36.665Z</time></trkpt><trkpt lat="44.646795" lon="9.3001183"><ele>529.0</ele><time>2026-04-21T15:59:37.664Z</time></trkpt><trkpt lat="44.6468583" lon="9.300065"><ele>529.0</ele><time>2026-04-21T15:59:38.664Z</time></trkpt><trkpt lat="44.6469317" lon="9.3000533"><ele>530.6</ele><time>2026-04-21T15:59:39.664Z</time></trkpt><trkpt lat="44.64702" lon="9.3000933"><ele>532.2</ele><time>2026-04-21T15:59:40.664Z</time></trkpt><trkpt lat="44.647115" lon="9.30016"><ele>533.8000000000001</ele><time>2026-04-21T15:59:41.664Z</time></trkpt><trkpt lat="44.6472167" lon="9.3002467"><ele>535.4</ele><time>2026-04-21T15:59:42.665Z</time></trkpt><trkpt lat="44.6473267" lon="9.3003333"><ele>537.0</ele><time>2026-04-21T15:59:43.665Z</time></trkpt><trkpt lat="44.647425" lon="9.300375"><ele>537.0</ele><time>2026-04-21T15:59:44.664Z</time></trkpt><trkpt lat="44.647515" lon="9.3003783"><ele>537.0</ele><time>2026-04-21T15:59:45.665Z</time></trkpt><trkpt lat="44.647595" lon="9.3003483"><ele>537.0</ele><time>2026-04-21T15:59:46.665Z</time></trkpt><trkpt lat="44.6476833" lon="9.3002783"><ele>537.0</ele><time>2026-04-21T15:59:47.665Z</time></trkpt><trkpt lat="44.6477617" lon="9.30016"><ele>537.0</ele><time>2026-04-21T15:59:48.665Z</time></trkpt><trkpt lat="44.647805" lon="9.3000067"><ele>537.5</ele><time>2026-04-21T15:59:49.664Z</time></trkpt><trkpt lat="44.647815" lon="9.2998217"><ele>538.0</ele><time>2026-04-21T15:59:50.664Z</time></trkpt><trkpt lat="44.64779" lon="9.2996167"><ele>538.5</ele><time>2026-04-21T15:59:51.665Z</time></trkpt><trkpt lat="44.64775" lon="9.2994483"><ele>539.0</ele><time>2026-04-21T15:59:52.665Z</time></trkpt><trkpt lat="44.6477117" lon="9.2992883"><ele>539.0</ele><time>2026-04-21T15:59:53.664Z</time></trkpt><trkpt lat="44.647675" lon="9.2991433"><ele>539.0</ele><time>2026-04-21T15:59:54.664Z</time></trkpt><trkpt lat="44.6476683" lon="9.29901"><ele>539.0</ele><time>2026-04-21T15:59:55.665Z</time></trkpt><trkpt lat="44.647715" lon="9.298895"><ele>539.0</ele><time>2026-04-21T15:59:56.665Z</time></trkpt><trkpt lat="44.6477867" lon="9.2987883"><ele>539.0</ele><time>2026-04-21T15:59:57.664Z</time></trkpt><trkpt lat="44.6478967" lon="9.2986967"><ele>542.75</ele><time>2026-04-21T15:59:58.664Z</time></trkpt><trkpt lat="44.6480283" lon="9.2986083"><ele>546.5</ele><time>2026-04-21T15:59:59.665Z</time></trkpt><trkpt lat="44.6481667" lon="9.2985217"><ele>550.25</ele><time>2026-04-21T16:00:00.664Z</time></trkpt><trkpt lat="44.6483" lon="9.2984483"><ele>554.0</ele><time>2026-04-21T16:00:01.665Z</time></trkpt><trkpt lat="44.648425" lon="9.298395"><ele>554.0</ele><time>2026-04-21T16:00:02.665Z</time></trkpt><trkpt lat="44.6485233" lon="9.2982833"><ele>554.0</ele><time>2026-04-21T16:00:03.665Z</time></trkpt><trkpt lat="44.6486083" lon="9.2981417"><ele>554.0</ele><time>2026-04-21T16:00:04.664Z</time></trkpt><trkpt lat="44.648655" lon="9.2979617"><ele>554.0</ele><time>2026-04-21T16:00:05.664Z</time></trkpt><trkpt lat="44.6486767" lon="9.2977667"><ele>557.25</ele><time>2026-04-21T16:00:06.665Z</time></trkpt><trkpt lat="44.648685" lon="9.2975567"><ele>560.5</ele><time>2026-04-21T16:00:07.665Z</time></trkpt><trkpt lat="44.6487" lon="9.29734"><ele>563.75</ele><time>2026-04-21T16:00:08.664Z</time></trkpt><trkpt lat="44.6487717" lon="9.29718"><ele>567.0</ele><time>2026-04-21T16:00:09.665Z</time></trkpt><trkpt lat="44.6488767" lon="9.2970167"><ele>567.0</ele><time>2026-04-21T16:00:10.664Z</time></trkpt><trkpt lat="44.6489617" lon="9.29684"><ele>567.0</ele><time>2026-04-21T16:00:11.664Z</time></trkpt><trkpt lat="44.64906" lon="9.2967033"><ele>567.0</ele><time>2026-04-21T16:00:12.664Z</time></trkpt><trkpt lat="44.6491117" lon="9.296525"><ele>567.0</ele><time>2026-04-21T16:00:13.664Z</time></trkpt><trkpt lat="44.64915" lon="9.29638"><ele>567.6</ele><time>2026-04-21T16:00:14.665Z</time></trkpt><trkpt lat="44.6491483" lon="9.2962067"><ele>568.2</ele><time>2026-04-21T16:00:15.665Z</time></trkpt><trkpt lat="44.64912" lon="9.2960517"><ele>568.8</ele><time>2026-04-21T16:00:16.664Z</time></trkpt><trkpt lat="44.6490933" lon="9.2959083"><ele>569.4</ele><time>2026-04-21T16:00:17.664Z</time></trkpt><trkpt lat="44.649075" lon="9.2958067"><ele>570.0</ele><time>2026-04-21T16:00:18.665Z</time></trkpt><trkpt lat="44.6491017" lon="9.2956767"><ele>570.0</ele><time>2026-04-21T16:00:20.665Z</time></trkpt><trkpt lat="44.6491783" lon="9.29571"><ele>570.0</ele><time>2026-04-21T16:00:22.664Z</time></trkpt><trkpt lat="44.64921" lon="9.2958167"><ele>570.0</ele><time>2026-04-21T16:00:23.664Z</time></trkpt><trkpt lat="44.6492317" lon="9.29598"><ele>570.0</ele><time>2026-04-21T16:00:24.664Z</time></trkpt><trkpt lat="44.6492483" lon="9.296185"><ele>570.0</ele><time>2026-04-21T16:00:25.665Z</time></trkpt><trkpt lat="44.6492767" lon="9.29638"><ele>569.0</ele><time>2026-04-21T16:00:26.665Z</time></trkpt><trkpt lat="44.6493117" lon="9.296585"><ele>568.0</ele><time>2026-04-21T16:00:27.664Z</time></trkpt><trkpt lat="44.64935" lon="9.29679"><ele>567.0</ele><time>2026-04-21T16:00:28.665Z</time></trkpt><trkpt lat="44.6493883" lon="9.2970083"><ele>567.0</ele><time>2026-04-21T16:00:29.664Z</time></trkpt><trkpt lat="44.6494383" lon="9.29721"><ele>567.0</ele><time>2026-04-21T16:00:30.664Z</time></trkpt><trkpt lat="44.6495167" lon="9.2973917"><ele>567.0</ele><time>2026-04-21T16:00:31.664Z</time></trkpt><trkpt lat="44.6495933" lon="9.2975767"><ele>571.75</ele><time>2026-04-21T16:00:32.665Z</time></trkpt><trkpt lat="44.6496567" lon="9.29777"><ele>576.5</ele><time>2026-04-21T16:00:33.665Z</time></trkpt><trkpt lat="44.6497" lon="9.2979617"><ele>581.25</ele><time>2026-04-21T16:00:34.665Z</time></trkpt><trkpt lat="44.6497167" lon="9.2981633"><ele>586.0</ele><time>2026-04-21T16:00:35.664Z</time></trkpt><trkpt lat="44.6497233" lon="9.2983517"><ele>586.75</ele><time>2026-04-21T16:00:36.664Z</time></trkpt><trkpt lat="44.64974" lon="9.2985567"><ele>587.5</ele><time>2026-04-21T16:00:37.664Z</time></trkpt><trkpt lat="44.64976" lon="9.298765"><ele>588.25</ele><time>2026-04-21T16:00:38.664Z</time></trkpt><trkpt lat="44.6497867" lon="9.2989533"><ele>589.0</ele><time>2026-04-21T16:00:39.664Z</time></trkpt><trkpt lat="44.64984" lon="9.2991333"><ele>589.25</ele><time>2026-04-21T16:00:40.664Z</time></trkpt><trkpt lat="44.6499067" lon="9.2993133"><ele>589.5</ele><time>2026-04-21T16:00:41.665Z</time></trkpt><trkpt lat="44.649975" lon="9.29949"><ele>589.75</ele><time>2026-04-21T16:00:42.664Z</time></trkpt><trkpt lat="44.65003" lon="9.2996733"><ele>590.0</ele><time>2026-04-21T16:00:43.664Z</time></trkpt><trkpt lat="44.6500633" lon="9.2998867"><ele>588.3333333333333</ele><time>2026-04-21T16:00:44.665Z</time></trkpt><trkpt lat="44.650105" lon="9.300095"><ele>586.6666666666666</ele><time>2026-04-21T16:00:45.665Z</time></trkpt><trkpt lat="44.65014" lon="9.3003017"><ele>585.0</ele><time>2026-04-21T16:00:46.664Z</time></trkpt><trkpt lat="44.6501567" lon="9.300515"><ele>584.5</ele><time>2026-04-21T16:00:47.664Z</time></trkpt><trkpt lat="44.6501767" lon="9.3006867"><ele>584.0</ele><time>2026-04-21T16:00:48.664Z</time></trkpt><trkpt lat="44.65019" lon="9.3008617"><ele>583.5</ele><time>2026-04-21T16:00:49.665Z</time></trkpt><trkpt lat="44.6502283" lon="9.3010333"><ele>583.0</ele><time>2026-04-21T16:00:50.664Z</time></trkpt><trkpt lat="44.6502983" lon="9.3012017"><ele>588.75</ele><time>2026-04-21T16:00:51.664Z</time></trkpt><trkpt lat="44.6503833" lon="9.30139"><ele>594.5</ele><time>2026-04-21T16:00:52.665Z</time></trkpt><trkpt lat="44.65046" lon="9.3015617"><ele>600.25</ele><time>2026-04-21T16:00:53.665Z</time></trkpt><trkpt lat="44.6505267" lon="9.3017383"><ele>606.0</ele><time>2026-04-21T16:00:54.665Z</time></trkpt><trkpt lat="44.65058" lon="9.3019217"><ele>606.25</ele><time>2026-04-21T16:00:55.664Z</time></trkpt><trkpt lat="44.650615" lon="9.3021"><ele>606.5</ele><time>2026-04-21T16:00:56.664Z</time></trkpt><trkpt lat="44.6506433" lon="9.3022967"><ele>606.75</ele><time>2026-04-21T16:00:57.664Z</time></trkpt><trkpt lat="44.6506617" lon="9.3024933"><ele>607.0</ele><time>2026-04-21T16:00:58.664Z</time></trkpt><trkpt lat="44.6506883" lon="9.3027067"><ele>606.5</ele><time>2026-04-21T16:00:59.664Z</time></trkpt><trkpt lat="44.650715" lon="9.302915"><ele>606.0</ele><time>2026-04-21T16:01:00.665Z</time></trkpt><trkpt lat="44.6507333" lon="9.3031033"><ele>605.5</ele><time>2026-04-21T16:01:01.664Z</time></trkpt><trkpt lat="44.6507467" lon="9.3032583"><ele>605.0</ele><time>2026-04-21T16:01:02.665Z</time></trkpt><trkpt lat="44.650765" lon="9.3033883"><ele>605.0</ele><time>2026-04-21T16:01:03.665Z</time></trkpt><trkpt lat="44.6508" lon="9.3034667"><ele>605.0</ele><time>2026-04-21T16:01:04.664Z</time></trkpt><trkpt lat="44.6508833" lon="9.3035017"><ele>605.0</ele><time>2026-04-21T16:01:06.665Z</time></trkpt><trkpt lat="44.6509267" lon="9.3033583"><ele>605.0</ele><time>2026-04-21T16:01:08.664Z</time></trkpt><trkpt lat="44.6509017" lon="9.3032083"><ele>605.0</ele><time>2026-04-21T16:01:09.665Z</time></trkpt><trkpt lat="44.6508783" lon="9.30302"><ele>605.0</ele><time>2026-04-21T16:01:10.665Z</time></trkpt><trkpt lat="44.6508767" lon="9.30283"><ele>605.0</ele><time>2026-04-21T16:01:11.665Z</time></trkpt><trkpt lat="44.6509" lon="9.302615"><ele>605.0</ele><time>2026-04-21T16:01:12.664Z</time></trkpt><trkpt lat="44.650935" lon="9.302405"><ele>605.0</ele><time>2026-04-21T16:01:13.664Z</time></trkpt><trkpt lat="44.6509733" lon="9.3021933"><ele>605.5</ele><time>2026-04-21T16:01:14.665Z</time></trkpt><trkpt lat="44.6510133" lon="9.3019967"><ele>606.0</ele><time>2026-04-21T16:01:15.664Z</time></trkpt><trkpt lat="44.6510583" lon="9.3018067"><ele>606.5</ele><time>2026-04-21T16:01:16.665Z</time></trkpt><trkpt lat="44.6510983" lon="9.30163"><ele>607.0</ele><time>2026-04-21T16:01:17.664Z</time></trkpt><trkpt lat="44.651125" lon="9.301445"><ele>606.75</ele><time>2026-04-21T16:01:18.664Z</time></trkpt><trkpt lat="44.6511367" lon="9.301255"><ele>606.5</ele><time>2026-04-21T16:01:19.664Z</time></trkpt><trkpt lat="44.6511133" lon="9.3010483"><ele>606.25</ele><time>2026-04-21T16:01:20.665Z</time></trkpt><trkpt lat="44.6510833" lon="9.3008333"><ele>606.0</ele><time>2026-04-21T16:01:21.664Z</time></trkpt><trkpt lat="44.6510733" lon="9.3006183"><ele>607.6666666666666</ele><time>2026-04-21T16:01:22.664Z</time></trkpt><trkpt lat="44.6510767" lon="9.30041"><ele>609.3333333333333</ele><time>2026-04-21T16:01:23.665Z</time></trkpt><trkpt lat="44.6510933" lon="9.3002"><ele>611.0</ele><time>2026-04-21T16:01:24.665Z</time></trkpt><trkpt lat="44.651105" lon="9.29998"><ele>611.0</ele><time>2026-04-21T16:01:25.664Z</time></trkpt><trkpt lat="44.6511183" lon="9.2997583"><ele>611.0</ele><time>2026-04-21T16:01:26.665Z</time></trkpt><trkpt lat="44.6511267" lon="9.2995417"><ele>611.0</ele><time>2026-04-21T16:01:27.665Z</time></trkpt><trkpt lat="44.65113" lon="9.29934"><ele>617.75</ele><time>2026-04-21T16:01:28.664Z</time></trkpt><trkpt lat="44.651145" lon="9.299145"><ele>624.5</ele><time>2026-04-21T16:01:29.664Z</time></trkpt><trkpt lat="44.651165" lon="9.2989633"><ele>631.25</ele><time>2026-04-21T16:01:30.664Z</time></trkpt><trkpt lat="44.6512" lon="9.2987833"><ele>638.0</ele><time>2026-04-21T16:01:31.665Z</time></trkpt><trkpt lat="44.65124" lon="9.2985783"><ele>638.0</ele><time>2026-04-21T16:01:32.665Z</time></trkpt><trkpt lat="44.651275" lon="9.29835"><ele>638.0</ele><time>2026-04-21T16:01:33.664Z</time></trkpt><trkpt lat="44.6513117" lon="9.298115"><ele>638.0</ele><time>2026-04-21T16:01:34.664Z</time></trkpt><trkpt lat="44.651345" lon="9.2978983"><ele>638.0</ele><time>2026-04-21T16:01:35.665Z</time></trkpt><trkpt lat="44.6513917" lon="9.29768"><ele>638.0</ele><time>2026-04-21T16:01:36.664Z</time></trkpt><trkpt lat="44.6514383" lon="9.2974883"><ele>638.0</ele><time>2026-04-21T16:01:37.664Z</time></trkpt><trkpt lat="44.6514817" lon="9.2972833"><ele>637.25</ele><time>2026-04-21T16:01:38.664Z</time></trkpt><trkpt lat="44.65152" lon="9.29709"><ele>636.5</ele><time>2026-04-21T16:01:39.665Z</time></trkpt><trkpt lat="44.6515583" lon="9.2969233"><ele>635.75</ele><time>2026-04-21T16:01:40.664Z</time></trkpt><trkpt lat="44.651585" lon="9.2967733"><ele>635.0</ele><time>2026-04-21T16:01:41.665Z</time></trkpt><trkpt lat="44.6516183" lon="9.2966667"><ele>635.0</ele><time>2026-04-21T16:01:42.665Z</time></trkpt><trkpt lat="44.65169" lon="9.2965683"><ele>635.0</ele><time>2026-04-21T16:01:44.664Z</time></trkpt><trkpt lat="44.6517517" lon="9.2966483"><ele>635.0</ele><time>2026-04-21T16:01:46.664Z</time></trkpt><trkpt lat="44.65175" lon="9.296755"><ele>635.0</ele><time>2026-04-21T16:01:47.665Z</time></trkpt><trkpt lat="44.65173" lon="9.296875"><ele>635.0</ele><time>2026-04-21T16:01:48.665Z</time></trkpt><trkpt lat="44.651695" lon="9.2970367"><ele>635.0</ele><time>2026-04-21T16:01:49.665Z</time></trkpt><trkpt lat="44.6516717" lon="9.2971983"><ele>635.0</ele><time>2026-04-21T16:01:50.664Z</time></trkpt><trkpt lat="44.6516733" lon="9.2973733"><ele>635.0</ele><time>2026-04-21T16:01:51.664Z</time></trkpt><trkpt lat="44.6516967" lon="9.297555"><ele>635.0</ele><time>2026-04-21T16:01:52.664Z</time></trkpt><trkpt lat="44.6517283" lon="9.2977633"><ele>636.0</ele><time>2026-04-21T16:01:53.665Z</time></trkpt><trkpt lat="44.651765" lon="9.297975"><ele>637.0</ele><time>2026-04-21T16:01:54.665Z</time></trkpt><trkpt lat="44.65179" lon="9.2981933"><ele>638.0</ele><time>2026-04-21T16:01:55.665Z</time></trkpt><trkpt lat="44.651825" lon="9.2984217"><ele>638.0</ele><time>2026-04-21T16:01:56.665Z</time></trkpt><trkpt lat="44.6518533" lon="9.2986483"><ele>638.0</ele><time>2026-04-21T16:01:57.664Z</time></trkpt><trkpt lat="44.65187" lon="9.2988767"><ele>638.0</ele><time>2026-04-21T16:01:58.665Z</time></trkpt><trkpt lat="44.6518817" lon="9.2991017"><ele>638.0</ele><time>2026-04-21T16:01:59.664Z</time></trkpt><trkpt lat="44.6518983" lon="9.2993383"><ele>638.0</ele><time>2026-04-21T16:02:00.665Z</time></trkpt><trkpt lat="44.6519233" lon="9.2995667"><ele>638.0</ele><time>2026-04-21T16:02:01.665Z</time></trkpt><trkpt lat="44.6519517" lon="9.2997683"><ele>643.75</ele><time>2026-04-21T16:02:02.665Z</time></trkpt><trkpt lat="44.6519817" lon="9.2999633"><ele>649.5</ele><time>2026-04-21T16:02:03.665Z</time></trkpt><trkpt lat="44.6520233" lon="9.3001217"><ele>655.25</ele><time>2026-04-21T16:02:04.666Z</time></trkpt><trkpt lat="44.65209" lon="9.3002867"><ele>661.0</ele><time>2026-04-21T16:02:05.665Z</time></trkpt><trkpt lat="44.6521733" lon="9.30046"><ele>661.0</ele><time>2026-04-21T16:02:06.665Z</time></trkpt><trkpt lat="44.6522467" lon="9.3006417"><ele>661.0</ele><time>2026-04-21T16:02:07.666Z</time></trkpt><trkpt lat="44.6523017" lon="9.3008167"><ele>661.0</ele><time>2026-04-21T16:02:08.666Z</time></trkpt><trkpt lat="44.6523317" lon="9.30101"><ele>661.0</ele><time>2026-04-21T16:02:09.665Z</time></trkpt><trkpt lat="44.65235" lon="9.3012117"><ele>660.0</ele><time>2026-04-21T16:02:10.665Z</time></trkpt><trkpt lat="44.652365" lon="9.3014167"><ele>659.0</ele><time>2026-04-21T16:02:11.666Z</time></trkpt><trkpt lat="44.6523833" lon="9.3016233"><ele>658.0</ele><time>2026-04-21T16:02:12.666Z</time></trkpt><trkpt lat="44.6524067" lon="9.3018017"><ele>657.0</ele><time>2026-04-21T16:02:13.665Z</time></trkpt><trkpt lat="44.652425" lon="9.3019683"><ele>657.0</ele><time>2026-04-21T16:02:14.666Z</time></trkpt><trkpt lat="44.6524417" lon="9.3021217"><ele>657.0</ele><time>2026-04-21T16:02:15.665Z</time></trkpt><trkpt lat="44.6524667" lon="9.302235"><ele>657.0</ele><time>2026-04-21T16:02:16.666Z</time></trkpt><trkpt lat="44.6525367" lon="9.30234"><ele>657.0</ele><time>2026-04-21T16:02:18.666Z</time></trkpt><trkpt lat="44.6526217" lon="9.3022467"><ele>657.0</ele><time>2026-04-21T16:02:20.665Z</time></trkpt><trkpt lat="44.6526417" lon="9.3021333"><ele>657.0</ele><time>2026-04-21T16:02:21.666Z</time></trkpt><trkpt lat="44.652635" lon="9.301955"><ele>657.0</ele><time>2026-04-21T16:02:22.666Z</time></trkpt><trkpt lat="44.6526233" lon="9.30177"><ele>657.0</ele><time>2026-04-21T16:02:23.665Z</time></trkpt><trkpt lat="44.6526233" lon="9.3015533"><ele>657.0</ele><time>2026-04-21T16:02:24.665Z</time></trkpt><trkpt lat="44.6526233" lon="9.3013367"><ele>658.3333333333334</ele><time>2026-04-21T16:02:25.666Z</time></trkpt><trkpt lat="44.6526367" lon="9.3011167"><ele>659.6666666666667</ele><time>2026-04-21T16:02:26.666Z</time></trkpt><trkpt lat="44.6526617" lon="9.3008933"><ele>661.0</ele><time>2026-04-21T16:02:27.665Z</time></trkpt><trkpt lat="44.6526933" lon="9.3006717"><ele>661.0</ele><time>2026-04-21T16:02:28.666Z</time></trkpt><trkpt lat="44.6527217" lon="9.300435"><ele>661.0</ele><time>2026-04-21T16:02:29.666Z</time></trkpt><trkpt lat="44.65273" lon="9.3001817"><ele>661.0</ele><time>2026-04-21T16:02:30.665Z</time></trkpt><trkpt lat="44.6527433" lon="9.299945"><ele>661.6666666666667</ele><time>2026-04-21T16:02:31.665Z</time></trkpt><trkpt lat="44.6527467" lon="9.2997117"><ele>662.3333333333334</ele><time>2026-04-21T16:02:32.665Z</time></trkpt><trkpt lat="44.6527717" lon="9.2995"><ele>663.0</ele><time>2026-04-21T16:02:33.666Z</time></trkpt><trkpt lat="44.652815" lon="9.299305"><ele>671.0</ele><time>2026-04-21T16:02:34.665Z</time></trkpt><trkpt lat="44.6528567" lon="9.299085"><ele>679.0</ele><time>2026-04-21T16:02:35.665Z</time></trkpt><trkpt lat="44.6528883" lon="9.298855"><ele>687.0</ele><time>2026-04-21T16:02:36.666Z</time></trkpt><trkpt lat="44.6528967" lon="9.298615"><ele>687.3333333333334</ele><time>2026-04-21T16:02:37.666Z</time></trkpt><trkpt lat="44.6529" lon="9.2983717"><ele>687.6666666666667</ele><time>2026-04-21T16:02:38.665Z</time></trkpt><trkpt lat="44.652895" lon="9.2981467"><ele>688.0</ele><time>2026-04-21T16:02:39.665Z</time></trkpt><trkpt lat="44.652915" lon="9.2979583"><ele>688.0</ele><time>2026-04-21T16:02:40.665Z</time></trkpt><trkpt lat="44.6529617" lon="9.2977883"><ele>688.0</ele><time>2026-04-21T16:02:41.665Z</time></trkpt><trkpt lat="44.6530283" lon="9.2976083"><ele>688.0</ele><time>2026-04-21T16:02:42.665Z</time></trkpt><trkpt lat="44.6530967" lon="9.297425"><ele>688.0</ele><time>2026-04-21T16:02:43.665Z</time></trkpt><trkpt lat="44.6531617" lon="9.2972483"><ele>687.0</ele><time>2026-04-21T16:02:44.666Z</time></trkpt><trkpt lat="44.653205" lon="9.2970667"><ele>686.0</ele><time>2026-04-21T16:02:45.665Z</time></trkpt><trkpt lat="44.6532183" lon="9.29686"><ele>685.0</ele><time>2026-04-21T16:02:46.666Z</time></trkpt><trkpt lat="44.653215" lon="9.296635"><ele>684.0</ele><time>2026-04-21T16:02:47.665Z</time></trkpt><trkpt lat="44.6532083" lon="9.2964333"><ele>684.25</ele><time>2026-04-21T16:02:48.665Z</time></trkpt><trkpt lat="44.6531983" lon="9.29625"><ele>684.5</ele><time>2026-04-21T16:02:49.666Z</time></trkpt><trkpt lat="44.653205" lon="9.296075"><ele>684.75</ele><time>2026-04-21T16:02:50.666Z</time></trkpt><trkpt lat="44.6532183" lon="9.2959083"><ele>685.0</ele><time>2026-04-21T16:02:51.666Z</time></trkpt><trkpt lat="44.65325" lon="9.29577"><ele>685.0</ele><time>2026-04-21T16:02:52.666Z</time></trkpt><trkpt lat="44.653315" lon="9.2956517"><ele>685.0</ele><time>2026-04-21T16:02:53.665Z</time></trkpt><trkpt lat="44.6534033" lon="9.2955567"><ele>685.0</ele><time>2026-04-21T16:02:54.665Z</time></trkpt><trkpt lat="44.6535117" lon="9.2954767"><ele>685.0</ele><time>2026-04-21T16:02:55.665Z</time></trkpt><trkpt lat="44.6536233" lon="9.2954067"><ele>690.25</ele><time>2026-04-21T16:02:56.666Z</time></trkpt><trkpt lat="44.6537167" lon="9.29533"><ele>695.5</ele><time>2026-04-21T16:02:57.665Z</time></trkpt><trkpt lat="44.6538" lon="9.2952217"><ele>700.75</ele><time>2026-04-21T16:02:58.666Z</time></trkpt><trkpt lat="44.6538633" lon="9.2950817"><ele>706.0</ele><time>2026-04-21T16:02:59.665Z</time></trkpt><trkpt lat="44.6539083" lon="9.2949217"><ele>705.5</ele><time>2026-04-21T16:03:00.665Z</time></trkpt><trkpt lat="44.6539233" lon="9.2947317"><ele>705.0</ele><time>2026-04-21T16:03:01.666Z</time></trkpt><trkpt lat="44.6539283" lon="9.2945333"><ele>704.5</ele><time>2026-04-21T16:03:02.666Z</time></trkpt><trkpt lat="44.6539483" lon="9.2943267"><ele>704.0</ele><time>2026-04-21T16:03:03.666Z</time></trkpt><trkpt lat="44.6539883" lon="9.2941383"><ele>704.0</ele><time>2026-04-21T16:03:04.665Z</time></trkpt><trkpt lat="44.65403" lon="9.2939383"><ele>704.0</ele><time>2026-04-21T16:03:05.666Z</time></trkpt><trkpt lat="44.6540633" lon="9.293735"><ele>704.0</ele><time>2026-04-21T16:03:06.665Z</time></trkpt><trkpt lat="44.6540717" lon="9.29355"><ele>704.0</ele><time>2026-04-21T16:03:07.665Z</time></trkpt><trkpt lat="44.6540733" lon="9.293375"><ele>703.4000000000001</ele><time>2026-04-21T16:03:08.665Z</time></trkpt><trkpt lat="44.654085" lon="9.2932367"><ele>702.8</ele><time>2026-04-21T16:03:09.666Z</time></trkpt><trkpt lat="44.654115" lon="9.2931183"><ele>702.2</ele><time>2026-04-21T16:03:10.665Z</time></trkpt><trkpt lat="44.6541933" lon="9.2930267"><ele>701.5999999999999</ele><time>2026-04-21T16:03:11.665Z</time></trkpt><trkpt lat="44.6542867" lon="9.2929683"><ele>701.0</ele><time>2026-04-21T16:03:12.665Z</time></trkpt><trkpt lat="44.6544" lon="9.29295"><ele>693.0</ele><time>2026-04-21T16:03:13.665Z</time></trkpt><trkpt lat="44.65452" lon="9.2929567"><ele>685.0</ele><time>2026-04-21T16:03:14.666Z</time></trkpt><trkpt lat="44.6546433" lon="9.292975"><ele>677.0</ele><time>2026-04-21T16:03:15.665Z</time></trkpt><trkpt lat="44.6547633" lon="9.2930017"><ele>669.0</ele><time>2026-04-21T16:03:16.665Z</time></trkpt><trkpt lat="44.6548967" lon="9.2930567"><ele>679.25</ele><time>2026-04-21T16:03:17.665Z</time></trkpt><trkpt lat="44.6550233" lon="9.29312"><ele>689.5</ele><time>2026-04-21T16:03:18.666Z</time></trkpt><trkpt lat="44.6551617" lon="9.2931933"><ele>699.75</ele><time>2026-04-21T16:03:19.665Z</time></trkpt><trkpt lat="44.655305" lon="9.2932733"><ele>710.0</ele><time>2026-04-21T16:03:20.666Z</time></trkpt><trkpt lat="44.6554533" lon="9.2933583"><ele>710.0</ele><time>2026-04-21T16:03:21.666Z</time></trkpt><trkpt lat="44.6556" lon="9.2934333"><ele>710.0</ele><time>2026-04-21T16:03:22.665Z</time></trkpt><trkpt lat="44.655755" lon="9.2935167"><ele>710.0</ele><time>2026-04-21T16:03:23.665Z</time></trkpt><trkpt lat="44.6558883" lon="9.2936033"><ele>710.0</ele><time>2026-04-21T16:03:24.665Z</time></trkpt><trkpt lat="44.6560217" lon="9.2936817"><ele>710.0</ele><time>2026-04-21T16:03:25.665Z</time></trkpt><trkpt lat="44.656145" lon="9.2937283"><ele>710.0</ele><time>2026-04-21T16:03:26.665Z</time></trkpt><trkpt lat="44.6562817" lon="9.2937667"><ele>710.0</ele><time>2026-04-21T16:03:27.666Z</time></trkpt><trkpt lat="44.6564183" lon="9.2937583"><ele>709.0</ele><time>2026-04-21T16:03:28.666Z</time></trkpt><trkpt lat="44.656555" lon="9.29371"><ele>708.0</ele><time>2026-04-21T16:03:29.665Z</time></trkpt><trkpt lat="44.656675" lon="9.293645"><ele>707.0</ele><time>2026-04-21T16:03:30.665Z</time></trkpt><trkpt lat="44.6568017" lon="9.29359"><ele>706.0</ele><time>2026-04-21T16:03:31.666Z</time></trkpt><trkpt lat="44.65694" lon="9.2935933"><ele>711.0</ele><time>2026-04-21T16:03:32.665Z</time></trkpt><trkpt lat="44.6570717" lon="9.29361"><ele>716.0</ele><time>2026-04-21T16:03:33.665Z</time></trkpt><trkpt lat="44.6572" lon="9.2936217"><ele>721.0</ele><time>2026-04-21T16:03:34.666Z</time></trkpt><trkpt lat="44.657325" lon="9.2936183"><ele>726.0</ele><time>2026-04-21T16:03:35.666Z</time></trkpt><trkpt lat="44.6574433" lon="9.2935667"><ele>726.0</ele><time>2026-04-21T16:03:36.665Z</time></trkpt><trkpt lat="44.6575733" lon="9.2934867"><ele>726.0</ele><time>2026-04-21T16:03:37.665Z</time></trkpt><trkpt lat="44.6577" lon="9.293385"><ele>726.0</ele><time>2026-04-21T16:03:38.665Z</time></trkpt><trkpt lat="44.657825" lon="9.293285"><ele>726.0</ele><time>2026-04-21T16:03:39.665Z</time></trkpt><trkpt lat="44.65796" lon="9.2932083"><ele>722.0</ele><time>2026-04-21T16:03:40.665Z</time></trkpt><trkpt lat="44.658105" lon="9.293135"><ele>718.0</ele><time>2026-04-21T16:03:41.665Z</time></trkpt><trkpt lat="44.6582567" lon="9.293055"><ele>714.0</ele><time>2026-04-21T16:03:42.665Z</time></trkpt><trkpt lat="44.6584067" lon="9.2929833"><ele>714.0</ele><time>2026-04-21T16:03:43.665Z</time></trkpt><trkpt lat="44.6585533" lon="9.2929167"><ele>714.0</ele><time>2026-04-21T16:03:44.666Z</time></trkpt><trkpt lat="44.658705" lon="9.2928533"><ele>714.0</ele><time>2026-04-21T16:03:45.666Z</time></trkpt><trkpt lat="44.6588533" lon="9.292795"><ele>720.0</ele><time>2026-04-21T16:03:46.665Z</time></trkpt><trkpt lat="44.6590033" lon="9.2927383"><ele>726.0</ele><time>2026-04-21T16:03:47.665Z</time></trkpt><trkpt lat="44.6591567" lon="9.29268"><ele>732.0</ele><time>2026-04-21T16:03:48.665Z</time></trkpt><trkpt lat="44.6593083" lon="9.29262"><ele>734.75</ele><time>2026-04-21T16:03:49.665Z</time></trkpt><trkpt lat="44.65946" lon="9.2925633"><ele>737.5</ele><time>2026-04-21T16:03:50.665Z</time></trkpt><trkpt lat="44.6596083" lon="9.2925283"><ele>740.25</ele><time>2026-04-21T16:03:51.665Z</time></trkpt><trkpt lat="44.659745" lon="9.2924933"><ele>743.0</ele><time>2026-04-21T16:03:52.666Z</time></trkpt><trkpt lat="44.6598683" lon="9.2924683"><ele>743.0</ele><time>2026-04-21T16:03:53.666Z</time></trkpt><trkpt lat="44.659985" lon="9.2924783"><ele>743.0</ele><time>2026-04-21T16:03:54.665Z</time></trkpt><trkpt lat="44.6600933" lon="9.2925117"><ele>743.0</ele><time>2026-04-21T16:03:55.665Z</time></trkpt><trkpt lat="44.660185" lon="9.2925667"><ele>743.0</ele><time>2026-04-21T16:03:56.666Z</time></trkpt><trkpt lat="44.6602933" lon="9.2926683"><ele>742.0</ele><time>2026-04-21T16:03:57.665Z</time></trkpt><trkpt lat="44.660405" lon="9.2927783"><ele>741.0</ele><time>2026-04-21T16:03:58.665Z</time></trkpt><trkpt lat="44.6605233" lon="9.2928917"><ele>740.0</ele><time>2026-04-21T16:03:59.665Z</time></trkpt><trkpt lat="44.6606517" lon="9.2930133"><ele>739.0</ele><time>2026-04-21T16:04:00.665Z</time></trkpt><trkpt lat="44.660785" lon="9.29314"><ele>744.25</ele><time>2026-04-21T16:04:01.665Z</time></trkpt><trkpt lat="44.6609217" lon="9.2932283"><ele>749.5</ele><time>2026-04-21T16:04:02.665Z</time></trkpt><trkpt lat="44.661055" lon="9.2933017"><ele>754.75</ele><time>2026-04-21T16:04:03.665Z</time></trkpt><trkpt lat="44.66118" lon="9.29334"><ele>760.0</ele><time>2026-04-21T16:04:04.666Z</time></trkpt><trkpt lat="44.6612967" lon="9.29331"><ele>760.0</ele><time>2026-04-21T16:04:05.665Z</time></trkpt><trkpt lat="44.6614117" lon="9.29328"><ele>760.0</ele><time>2026-04-21T16:04:06.666Z</time></trkpt><trkpt lat="44.6615283" lon="9.2932033"><ele>760.0</ele><time>2026-04-21T16:04:07.665Z</time></trkpt><trkpt lat="44.6616333" lon="9.2931"><ele>760.0</ele><time>2026-04-21T16:04:08.666Z</time></trkpt><trkpt lat="44.6617017" lon="9.2929567"><ele>760.75</ele><time>2026-04-21T16:04:09.665Z</time></trkpt><trkpt lat="44.6618067" lon="9.2927983"><ele>761.5</ele><time>2026-04-21T16:04:10.666Z</time></trkpt><trkpt lat="44.6619083" lon="9.2926717"><ele>762.25</ele><time>2026-04-21T16:04:11.666Z</time></trkpt><trkpt lat="44.6620083" lon="9.2925583"><ele>763.0</ele><time>2026-04-21T16:04:12.665Z</time></trkpt><trkpt lat="44.6621217" lon="9.2924583"><ele>763.0</ele><time>2026-04-21T16:04:13.666Z</time></trkpt><trkpt lat="44.6622483" lon="9.2923667"><ele>763.0</ele><time>2026-04-21T16:04:14.665Z</time></trkpt><trkpt lat="44.66237" lon="9.2922867"><ele>763.0</ele><time>2026-04-21T16:04:15.666Z</time></trkpt><trkpt lat="44.6624867" lon="9.29221"><ele>763.0</ele><time>2026-04-21T16:04:16.666Z</time></trkpt><trkpt lat="44.6626117" lon="9.2921533"><ele>763.0</ele><time>2026-04-21T16:04:17.665Z</time></trkpt><trkpt lat="44.6627417" lon="9.29212"><ele>763.0</ele><time>2026-04-21T16:04:18.665Z</time></trkpt><trkpt lat="44.662865" lon="9.2920967"><ele>763.0</ele><time>2026-04-21T16:04:19.666Z</time></trkpt><trkpt lat="44.66299" lon="9.2920733"><ele>763.0</ele><time>2026-04-21T16:04:20.665Z</time></trkpt><trkpt lat="44.6631267" lon="9.292025"><ele>763.0</ele><time>2026-04-21T16:04:21.666Z</time></trkpt><trkpt lat="44.6632617" lon="9.2919333"><ele>763.0</ele><time>2026-04-21T16:04:22.665Z</time></trkpt><trkpt lat="44.6633817" lon="9.291825"><ele>763.0</ele><time>2026-04-21T16:04:23.666Z</time></trkpt><trkpt lat="44.66351" lon="9.2916933"><ele>765.3333333333334</ele><time>2026-04-21T16:04:24.665Z</time></trkpt><trkpt lat="44.663635" lon="9.291545"><ele>767.6666666666667</ele><time>2026-04-21T16:04:25.665Z</time></trkpt><trkpt lat="44.663755" lon="9.2914117"><ele>770.0</ele><time>2026-04-21T16:04:26.665Z</time></trkpt><trkpt lat="44.663895" lon="9.2912767"><ele>770.0</ele><time>2026-04-21T16:04:27.665Z</time></trkpt><trkpt lat="44.66404" lon="9.2911533"><ele>770.0</ele><time>2026-04-21T16:04:28.665Z</time></trkpt><trkpt lat="44.6641817" lon="9.2910167"><ele>770.0</ele><time>2026-04-21T16:04:29.666Z</time></trkpt><trkpt lat="44.6643133" lon="9.2908967"><ele>770.0</ele><time>2026-04-21T16:04:30.665Z</time></trkpt><trkpt lat="44.6644333" lon="9.290775"><ele>770.0</ele><time>2026-04-21T16:04:31.666Z</time></trkpt><trkpt lat="44.6645333" lon="9.29065"><ele>770.0</ele><time>2026-04-21T16:04:32.666Z</time></trkpt><trkpt lat="44.6646183" lon="9.290505"><ele>770.0</ele><time>2026-04-21T16:04:33.666Z</time></trkpt><trkpt lat="44.6646983" lon="9.2903433"><ele>772.75</ele><time>2026-04-21T16:04:34.665Z</time></trkpt><trkpt lat="44.664765" lon="9.2901583"><ele>775.5</ele><time>2026-04-21T16:04:35.666Z</time></trkpt><trkpt lat="44.664825" lon="9.2899633"><ele>778.25</ele><time>2026-04-21T16:04:36.665Z</time></trkpt><trkpt lat="44.6648733" lon="9.2897883"><ele>781.0</ele><time>2026-04-21T16:04:37.666Z</time></trkpt><trkpt lat="44.6649117" lon="9.2896267"><ele>781.0</ele><time>2026-04-21T16:04:38.666Z</time></trkpt><trkpt lat="44.664945" lon="9.2894933"><ele>781.0</ele><time>2026-04-21T16:04:39.666Z</time></trkpt><trkpt lat="44.6649867" lon="9.2893733"><ele>781.0</ele><time>2026-04-21T16:04:40.665Z</time></trkpt><trkpt lat="44.66505" lon="9.28927"><ele>781.0</ele><time>2026-04-21T16:04:41.666Z</time></trkpt><trkpt lat="44.6651333" lon="9.2891833"><ele>781.0</ele><time>2026-04-21T16:04:42.665Z</time></trkpt><trkpt lat="44.6652217" lon="9.2890833"><ele>786.0</ele><time>2026-04-21T16:04:43.666Z</time></trkpt><trkpt lat="44.6653017" lon="9.2889867"><ele>791.0</ele><time>2026-04-21T16:04:44.665Z</time></trkpt><trkpt lat="44.665375" lon="9.2888567"><ele>796.0</ele><time>2026-04-21T16:04:45.666Z</time></trkpt><trkpt lat="44.6654333" lon="9.2887217"><ele>801.0</ele><time>2026-04-21T16:04:46.666Z</time></trkpt><trkpt lat="44.6654667" lon="9.2886017"><ele>806.0</ele><time>2026-04-21T16:04:47.665Z</time></trkpt><trkpt lat="44.6654917" lon="9.2884683"><ele>806.0</ele><time>2026-04-21T16:04:48.665Z</time></trkpt><trkpt lat="44.6654917" lon="9.2883167"><ele>806.0</ele><time>2026-04-21T16:04:49.666Z</time></trkpt><trkpt lat="44.6654767" lon="9.2881517"><ele>806.0</ele><time>2026-04-21T16:04:50.666Z</time></trkpt><trkpt lat="44.6654683" lon="9.28801"><ele>806.0</ele><time>2026-04-21T16:04:51.666Z</time></trkpt><trkpt lat="44.6654433" lon="9.2878633"><ele>806.0</ele><time>2026-04-21T16:04:52.665Z</time></trkpt><trkpt lat="44.66544" lon="9.2877433"><ele>806.8</ele><time>2026-04-21T16:04:53.665Z</time></trkpt><trkpt lat="44.665465" lon="9.28764"><ele>807.5999999999999</ele><time>2026-04-21T16:04:54.665Z</time></trkpt><trkpt lat="44.6655133" lon="9.2875383"><ele>808.4</ele><time>2026-04-21T16:04:55.666Z</time></trkpt><trkpt lat="44.66559" lon="9.2874383"><ele>809.2</ele><time>2026-04-21T16:04:56.665Z</time></trkpt><trkpt lat="44.6656617" lon="9.28732"><ele>810.0</ele><time>2026-04-21T16:04:57.665Z</time></trkpt><trkpt lat="44.6657033" lon="9.2872017"><ele>810.4</ele><time>2026-04-21T16:04:58.665Z</time></trkpt><trkpt lat="44.665725" lon="9.2871"><ele>810.8</ele><time>2026-04-21T16:04:59.666Z</time></trkpt><trkpt lat="44.66572" lon="9.2869867"><ele>811.2</ele><time>2026-04-21T16:05:00.665Z</time></trkpt><trkpt lat="44.6656967" lon="9.2868583"><ele>811.6</ele><time>2026-04-21T16:05:01.666Z</time></trkpt><trkpt lat="44.6656583" lon="9.286715"><ele>812.0</ele><time>2026-04-21T16:05:02.665Z</time></trkpt><trkpt lat="44.665625" lon="9.2865667"><ele>811.8</ele><time>2026-04-21T16:05:03.665Z</time></trkpt><trkpt lat="44.6655967" lon="9.286415"><ele>811.6</ele><time>2026-04-21T16:05:04.665Z</time></trkpt><trkpt lat="44.66557" lon="9.28627"><ele>811.4</ele><time>2026-04-21T16:05:05.665Z</time></trkpt><trkpt lat="44.6655617" lon="9.2861283"><ele>811.1999999999999</ele><time>2026-04-21T16:05:06.666Z</time></trkpt><trkpt lat="44.66556" lon="9.2859883"><ele>811.0</ele><time>2026-04-21T16:05:07.665Z</time></trkpt><trkpt lat="44.6655717" lon="9.28585"><ele>811.0</ele><time>2026-04-21T16:05:08.666Z</time></trkpt><trkpt lat="44.6656117" lon="9.2857233"><ele>811.0</ele><time>2026-04-21T16:05:09.665Z</time></trkpt><trkpt lat="44.6656917" lon="9.285625"><ele>811.0</ele><time>2026-04-21T16:05:10.666Z</time></trkpt><trkpt lat="44.6657817" lon="9.2855467"><ele>811.0</ele><time>2026-04-21T16:05:11.666Z</time></trkpt><trkpt lat="44.6658667" lon="9.28546"><ele>811.0</ele><time>2026-04-21T16:05:12.665Z</time></trkpt><trkpt lat="44.6659317" lon="9.2853417"><ele>811.0</ele><time>2026-04-21T16:05:13.666Z</time></trkpt><trkpt lat="44.665985" lon="9.2851983"><ele>811.0</ele><time>2026-04-21T16:05:14.665Z</time></trkpt><trkpt lat="44.6660283" lon="9.2850417"><ele>811.0</ele><time>2026-04-21T16:05:15.666Z</time></trkpt><trkpt lat="44.6660617" lon="9.28488"><ele>811.0</ele><time>2026-04-21T16:05:16.665Z</time></trkpt><trkpt lat="44.66609" lon="9.28474"><ele>811.5999999999999</ele><time>2026-04-21T16:05:17.666Z</time></trkpt><trkpt lat="44.6661017" lon="9.2846067"><ele>812.2</ele><time>2026-04-21T16:05:18.666Z</time></trkpt><trkpt lat="44.6660933" lon="9.2844767"><ele>812.8</ele><time>2026-04-21T16:05:19.666Z</time></trkpt><trkpt lat="44.6660683" lon="9.284335"><ele>813.4000000000001</ele><time>2026-04-21T16:05:20.666Z</time></trkpt><trkpt lat="44.6660367" lon="9.2841667"><ele>814.0</ele><time>2026-04-21T16:05:21.665Z</time></trkpt><trkpt lat="44.666005" lon="9.2839867"><ele>813.75</ele><time>2026-04-21T16:05:22.665Z</time></trkpt><trkpt lat="44.665975" lon="9.283805"><ele>813.5</ele><time>2026-04-21T16:05:23.666Z</time></trkpt><trkpt lat="44.66596" lon="9.2836383"><ele>813.25</ele><time>2026-04-21T16:05:24.665Z</time></trkpt><trkpt lat="44.6659617" lon="9.2834983"><ele>813.0</ele><time>2026-04-21T16:05:25.665Z</time></trkpt><trkpt lat="44.665985" lon="9.2833633"><ele>813.0</ele><time>2026-04-21T16:05:26.666Z</time></trkpt><trkpt lat="44.666025" lon="9.2832167"><ele>813.0</ele><time>2026-04-21T16:05:27.666Z</time></trkpt><trkpt lat="44.666065" lon="9.283065"><ele>813.0</ele><time>2026-04-21T16:05:28.665Z</time></trkpt><trkpt lat="44.6661067" lon="9.2829283"><ele>813.0</ele><time>2026-04-21T16:05:29.665Z</time></trkpt><trkpt lat="44.66614" lon="9.2827933"><ele>813.0</ele><time>2026-04-21T16:05:30.666Z</time></trkpt><trkpt lat="44.6661583" lon="9.2826517"><ele>821.2</ele><time>2026-04-21T16:05:31.665Z</time></trkpt><trkpt lat="44.6661583" lon="9.2825017"><ele>829.4</ele><time>2026-04-21T16:05:32.665Z</time></trkpt><trkpt lat="44.6661467" lon="9.28234"><ele>837.6000000000001</ele><time>2026-04-21T16:05:33.666Z</time></trkpt><trkpt lat="44.6661333" lon="9.2821983"><ele>845.8000000000001</ele><time>2026-04-21T16:05:34.666Z</time></trkpt><trkpt lat="44.6661283" lon="9.282055"><ele>854.0</ele><time>2026-04-21T16:05:35.666Z</time></trkpt><trkpt lat="44.66614" lon="9.2819217"><ele>854.2</ele><time>2026-04-21T16:05:36.665Z</time></trkpt><trkpt lat="44.6661833" lon="9.2817833"><ele>854.4000000000001</ele><time>2026-04-21T16:05:37.666Z</time></trkpt><trkpt lat="44.6662317" lon="9.2816517"><ele>854.6</ele><time>2026-04-21T16:05:38.666Z</time></trkpt><trkpt lat="44.6662733" lon="9.2815233"><ele>854.8</ele><time>2026-04-21T16:05:39.665Z</time></trkpt><trkpt lat="44.666295" lon="9.281405"><ele>855.0</ele><time>2026-04-21T16:05:40.665Z</time></trkpt><trkpt lat="44.6662917" lon="9.2812867"><ele>853.5</ele><time>2026-04-21T16:05:41.665Z</time></trkpt><trkpt lat="44.666275" lon="9.281185"><ele>852.0</ele><time>2026-04-21T16:05:42.665Z</time></trkpt><trkpt lat="44.66624" lon="9.2810617"><ele>850.5</ele><time>2026-04-21T16:05:43.665Z</time></trkpt><trkpt lat="44.666215" lon="9.28094"><ele>849.0</ele><time>2026-04-21T16:05:44.666Z</time></trkpt><trkpt lat="44.6662" lon="9.2808167"><ele>847.5</ele><time>2026-04-21T16:05:45.665Z</time></trkpt><trkpt lat="44.6662017" lon="9.2807"><ele>846.0</ele><time>2026-04-21T16:05:46.665Z</time></trkpt><trkpt lat="44.6662267" lon="9.2805983"><ele>844.1999999999999</ele><time>2026-04-21T16:05:47.665Z</time></trkpt><trkpt lat="44.666275" lon="9.2805017"><ele>842.4</ele><time>2026-04-21T16:05:48.666Z</time></trkpt><trkpt lat="44.66634" lon="9.2804117"><ele>840.6</ele><time>2026-04-21T16:05:49.665Z</time></trkpt><trkpt lat="44.6664083" lon="9.2803333"><ele>838.8</ele><time>2026-04-21T16:05:50.666Z</time></trkpt><trkpt lat="44.6665017" lon="9.2802533"><ele>837.0</ele><time>2026-04-21T16:05:51.665Z</time></trkpt><trkpt lat="44.6666017" lon="9.28019"><ele>837.0</ele><time>2026-04-21T16:05:52.665Z</time></trkpt><trkpt lat="44.6666967" lon="9.2801083"><ele>837.0</ele><time>2026-04-21T16:05:53.665Z</time></trkpt><trkpt lat="44.666765" lon="9.280005"><ele>837.0</ele><time>2026-04-21T16:05:54.665Z</time></trkpt><trkpt lat="44.6668183" lon="9.2798967"><ele>837.0</ele><time>2026-04-21T16:05:55.665Z</time></trkpt><trkpt lat="44.66686" lon="9.2797933"><ele>837.0</ele><time>2026-04-21T16:05:56.666Z</time></trkpt><trkpt lat="44.6668983" lon="9.279635"><ele>838.0</ele><time>2026-04-21T16:05:57.666Z</time></trkpt><trkpt lat="44.6669333" lon="9.27949"><ele>839.0</ele><time>2026-04-21T16:05:58.666Z</time></trkpt><trkpt lat="44.6669783" lon="9.2793567"><ele>840.0</ele><time>2026-04-21T16:05:59.665Z</time></trkpt><trkpt lat="44.667045" lon="9.2792517"><ele>841.0</ele><time>2026-04-21T16:06:00.665Z</time></trkpt><trkpt lat="44.6671367" lon="9.2791733"><ele>842.0</ele><time>2026-04-21T16:06:01.666Z</time></trkpt><trkpt lat="44.6672417" lon="9.279115"><ele>842.0</ele><time>2026-04-21T16:06:02.666Z</time></trkpt><trkpt lat="44.6673517" lon="9.2790617"><ele>842.0</ele><time>2026-04-21T16:06:03.665Z</time></trkpt><trkpt lat="44.6674517" lon="9.2790017"><ele>842.0</ele><time>2026-04-21T16:06:04.665Z</time></trkpt><trkpt lat="44.667535" lon="9.278915"><ele>842.0</ele><time>2026-04-21T16:06:05.666Z</time></trkpt><trkpt lat="44.6675983" lon="9.27881"><ele>842.0</ele><time>2026-04-21T16:06:06.666Z</time></trkpt><trkpt lat="44.6676567" lon="9.2786667"><ele>841.8</ele><time>2026-04-21T16:06:07.666Z</time></trkpt><trkpt lat="44.6677067" lon="9.27852"><ele>841.6</ele><time>2026-04-21T16:06:08.665Z</time></trkpt><trkpt lat="44.6677467" lon="9.2783683"><ele>841.4</ele><time>2026-04-21T16:06:09.666Z</time></trkpt><trkpt lat="44.6677733" lon="9.2782283"><ele>841.1999999999999</ele><time>2026-04-21T16:06:10.666Z</time></trkpt><trkpt lat="44.6677817" lon="9.278105"><ele>841.0</ele><time>2026-04-21T16:06:11.666Z</time></trkpt><trkpt lat="44.66776" lon="9.2779717"><ele>841.0</ele><time>2026-04-21T16:06:12.665Z</time></trkpt><trkpt lat="44.667705" lon="9.27783"><ele>841.0</ele><time>2026-04-21T16:06:13.665Z</time></trkpt><trkpt lat="44.6676167" lon="9.2776717"><ele>841.0</ele><time>2026-04-21T16:06:14.666Z</time></trkpt><trkpt lat="44.6675267" lon="9.277515"><ele>841.0</ele><time>2026-04-21T16:06:15.665Z</time></trkpt><trkpt lat="44.6674383" lon="9.2773433"><ele>845.3333333333333</ele><time>2026-04-21T16:06:16.665Z</time></trkpt><trkpt lat="44.6673583" lon="9.277135"><ele>849.6666666666667</ele><time>2026-04-21T16:06:17.665Z</time></trkpt><trkpt lat="44.667275" lon="9.2769267"><ele>854.0</ele><time>2026-04-21T16:06:18.665Z</time></trkpt><trkpt lat="44.6671817" lon="9.2767317"><ele>854.0</ele><time>2026-04-21T16:06:19.665Z</time></trkpt><trkpt lat="44.6670933" lon="9.27654"><ele>854.0</ele><time>2026-04-21T16:06:20.666Z</time></trkpt><trkpt lat="44.6669967" lon="9.2763883"><ele>854.0</ele><time>2026-04-21T16:06:21.666Z</time></trkpt><trkpt lat="44.6668833" lon="9.2762583"><ele>852.0</ele><time>2026-04-21T16:06:22.665Z</time></trkpt><trkpt lat="44.6667533" lon="9.276145"><ele>850.0</ele><time>2026-04-21T16:06:23.665Z</time></trkpt><trkpt lat="44.6666367" lon="9.2760517"><ele>848.0</ele><time>2026-04-21T16:06:24.666Z</time></trkpt><trkpt lat="44.6665417" lon="9.27596"><ele>846.0</ele><time>2026-04-21T16:06:25.665Z</time></trkpt><trkpt lat="44.6664733" lon="9.27586"><ele>846.0</ele><time>2026-04-21T16:06:26.666Z</time></trkpt><trkpt lat="44.6664317" lon="9.27574"><ele>846.0</ele><time>2026-04-21T16:06:27.666Z</time></trkpt><trkpt lat="44.6664133" lon="9.2756083"><ele>846.0</ele><time>2026-04-21T16:06:28.666Z</time></trkpt><trkpt lat="44.6664267" lon="9.275465"><ele>846.0</ele><time>2026-04-21T16:06:29.665Z</time></trkpt><trkpt lat="44.66645" lon="9.2753333"><ele>846.0</ele><time>2026-04-21T16:06:30.666Z</time></trkpt><trkpt lat="44.6664833" lon="9.2752117"><ele>846.0</ele><time>2026-04-21T16:06:31.665Z</time></trkpt><trkpt lat="44.6665333" lon="9.2751083"><ele>846.0</ele><time>2026-04-21T16:06:32.666Z</time></trkpt><trkpt lat="44.6666033" lon="9.2750367"><ele>846.0</ele><time>2026-04-21T16:06:33.665Z</time></trkpt><trkpt lat="44.6666917" lon="9.274975"><ele>846.0</ele><time>2026-04-21T16:06:34.665Z</time></trkpt><trkpt lat="44.6667967" lon="9.2749217"><ele>846.0</ele><time>2026-04-21T16:06:35.666Z</time></trkpt><trkpt lat="44.666885" lon="9.2748583"><ele>849.5999999999999</ele><time>2026-04-21T16:06:36.665Z</time></trkpt><trkpt lat="44.666955" lon="9.2747817"><ele>853.2</ele><time>2026-04-21T16:06:37.665Z</time></trkpt><trkpt lat="44.6670067" lon="9.2747"><ele>856.8000000000001</ele><time>2026-04-21T16:06:38.665Z</time></trkpt><trkpt lat="44.6670433" lon="9.2746"><ele>860.4000000000001</ele><time>2026-04-21T16:06:39.666Z</time></trkpt><trkpt lat="44.66704" lon="9.274465"><ele>864.0</ele><time>2026-04-21T16:06:40.666Z</time></trkpt><trkpt lat="44.6670183" lon="9.2742967"><ele>864.0</ele><time>2026-04-21T16:06:41.666Z</time></trkpt><trkpt lat="44.6670033" lon="9.274115"><ele>864.0</ele><time>2026-04-21T16:06:42.665Z</time></trkpt><trkpt lat="44.667015" lon="9.27393"><ele>864.0</ele><time>2026-04-21T16:06:43.665Z</time></trkpt><trkpt lat="44.6670667" lon="9.2737417"><ele>864.0</ele><time>2026-04-21T16:06:44.665Z</time></trkpt><trkpt lat="44.667145" lon="9.2735817"><ele>860.8000000000001</ele><time>2026-04-21T16:06:45.666Z</time></trkpt><trkpt lat="44.6672283" lon="9.273455"><ele>857.6000000000001</ele><time>2026-04-21T16:06:46.666Z</time></trkpt><trkpt lat="44.6673117" lon="9.27336"><ele>854.4</ele><time>2026-04-21T16:06:47.665Z</time></trkpt><trkpt lat="44.6673967" lon="9.2732883"><ele>851.2</ele><time>2026-04-21T16:06:48.666Z</time></trkpt><trkpt lat="44.6675067" lon="9.2732533"><ele>848.0</ele><time>2026-04-21T16:06:49.666Z</time></trkpt><trkpt lat="44.6676283" lon="9.2732183"><ele>848.0</ele><time>2026-04-21T16:06:50.665Z</time></trkpt><trkpt lat="44.6677467" lon="9.2731783"><ele>848.0</ele><time>2026-04-21T16:06:51.666Z</time></trkpt><trkpt lat="44.667845" lon="9.2731267"><ele>848.0</ele><time>2026-04-21T16:06:52.666Z</time></trkpt><trkpt lat="44.6679233" lon="9.2730633"><ele>848.0</ele><time>2026-04-21T16:06:53.665Z</time></trkpt><trkpt lat="44.6679833" lon="9.2729883"><ele>848.0</ele><time>2026-04-21T16:06:54.666Z</time></trkpt><trkpt lat="44.6680183" lon="9.2728933"><ele>848.0</ele><time>2026-04-21T16:06:55.666Z</time></trkpt><trkpt lat="44.6680133" lon="9.2727917"><ele>848.0</ele><time>2026-04-21T16:06:56.666Z</time></trkpt><trkpt lat="44.66795" lon="9.2726817"><ele>848.0</ele><time>2026-04-21T16:06:57.665Z</time></trkpt><trkpt lat="44.6678467" lon="9.2726067"><ele>848.0</ele><time>2026-04-21T16:06:58.665Z</time></trkpt><trkpt lat="44.6677067" lon="9.272545"><ele>848.0</ele><time>2026-04-21T16:06:59.666Z</time></trkpt><trkpt lat="44.6675483" lon="9.2724733"><ele>848.0</ele><time>2026-04-21T16:07:00.665Z</time></trkpt><trkpt lat="44.6673933" lon="9.2723683"><ele>848.0</ele><time>2026-04-21T16:07:01.665Z</time></trkpt><trkpt lat="44.667255" lon="9.272255"><ele>848.0</ele><time>2026-04-21T16:07:02.665Z</time></trkpt><trkpt lat="44.667115" lon="9.2721167"><ele>851.25</ele><time>2026-04-21T16:07:03.665Z</time></trkpt><trkpt lat="44.667005" lon="9.271985"><ele>854.5</ele><time>2026-04-21T16:07:04.666Z</time></trkpt><trkpt lat="44.6668867" lon="9.2718683"><ele>857.75</ele><time>2026-04-21T16:07:05.665Z</time></trkpt><trkpt lat="44.6667483" lon="9.2717733"><ele>861.0</ele><time>2026-04-21T16:07:06.665Z</time></trkpt><trkpt lat="44.666605" lon="9.2717083"><ele>861.0</ele><time>2026-04-21T16:07:07.665Z</time></trkpt><trkpt lat="44.6664517" lon="9.2716433"><ele>861.0</ele><time>2026-04-21T16:07:08.665Z</time></trkpt><trkpt lat="44.666295" lon="9.271565"><ele>861.0</ele><time>2026-04-21T16:07:09.666Z</time></trkpt><trkpt lat="44.66613" lon="9.2714883"><ele>870.5</ele><time>2026-04-21T16:07:10.665Z</time></trkpt><trkpt lat="44.66598" lon="9.271425"><ele>880.0</ele><time>2026-04-21T16:07:11.665Z</time></trkpt><trkpt lat="44.66583" lon="9.2713817"><ele>889.5</ele><time>2026-04-21T16:07:12.665Z</time></trkpt><trkpt lat="44.6657017" lon="9.2713267"><ele>899.0</ele><time>2026-04-21T16:07:13.666Z</time></trkpt><trkpt lat="44.6655617" lon="9.2712367"><ele>899.0</ele><time>2026-04-21T16:07:14.665Z</time></trkpt><trkpt lat="44.66543" lon="9.2711283"><ele>899.0</ele><time>2026-04-21T16:07:15.665Z</time></trkpt><trkpt lat="44.66529" lon="9.271005"><ele>899.0</ele><time>2026-04-21T16:07:16.665Z</time></trkpt><trkpt lat="44.66515" lon="9.2708933"><ele>899.25</ele><time>2026-04-21T16:07:17.665Z</time></trkpt><trkpt lat="44.665005" lon="9.27079"><ele>899.5</ele><time>2026-04-21T16:07:18.665Z</time></trkpt><trkpt lat="44.6648733" lon="9.2706917"><ele>899.75</ele><time>2026-04-21T16:07:19.665Z</time></trkpt><trkpt lat="44.6647533" lon="9.2706"><ele>900.0</ele><time>2026-04-21T16:07:20.665Z</time></trkpt><trkpt lat="44.6646633" lon="9.2705217"><ele>900.0</ele><time>2026-04-21T16:07:21.666Z</time></trkpt><trkpt lat="44.6645967" lon="9.27042"><ele>900.0</ele><time>2026-04-21T16:07:22.665Z</time></trkpt><trkpt lat="44.6645483" lon="9.2703017"><ele>900.0</ele><time>2026-04-21T16:07:23.666Z</time></trkpt><trkpt lat="44.6645167" lon="9.270155"><ele>900.0</ele><time>2026-04-21T16:07:24.665Z</time></trkpt><trkpt lat="44.6644883" lon="9.269975"><ele>900.0</ele><time>2026-04-21T16:07:25.665Z</time></trkpt><trkpt lat="44.6644667" lon="9.26981"><ele>898.0</ele><time>2026-04-21T16:07:26.665Z</time></trkpt><trkpt lat="44.6644467" lon="9.2696783"><ele>896.0</ele><time>2026-04-21T16:07:27.665Z</time></trkpt><trkpt lat="44.6644183" lon="9.26955"><ele>894.0</ele><time>2026-04-21T16:07:28.665Z</time></trkpt><trkpt lat="44.6643683" lon="9.2694767"><ele>892.0</ele><time>2026-04-21T16:07:29.665Z</time></trkpt><trkpt lat="44.6643167" lon="9.26942"><ele>890.0</ele><time>2026-04-21T16:07:30.666Z</time></trkpt><trkpt lat="44.6642533" lon="9.2694083"><ele>888.0</ele><time>2026-04-21T16:07:31.666Z</time></trkpt><trkpt lat="44.6641717" lon="9.2694367"><ele>888.0</ele><time>2026-04-21T16:07:32.665Z</time></trkpt><trkpt lat="44.6640883" lon="9.2694783"><ele>888.0</ele><time>2026-04-21T16:07:33.665Z</time></trkpt><trkpt lat="44.6640067" lon="9.2694983"><ele>888.0</ele><time>2026-04-21T16:07:34.666Z</time></trkpt><trkpt lat="44.663925" lon="9.2694583"><ele>888.0</ele><time>2026-04-21T16:07:35.665Z</time></trkpt><trkpt lat="44.6638433" lon="9.2693767"><ele>888.0</ele><time>2026-04-21T16:07:36.665Z</time></trkpt><trkpt lat="44.6637433" lon="9.2692933"><ele>888.0</ele><time>2026-04-21T16:07:37.666Z</time></trkpt><trkpt lat="44.663635" lon="9.2692367"><ele>888.0</ele><time>2026-04-21T16:07:38.666Z</time></trkpt><trkpt lat="44.6635317" lon="9.2691917"><ele>888.0</ele><time>2026-04-21T16:07:39.665Z</time></trkpt><trkpt lat="44.663435" lon="9.2691283"><ele>888.0</ele><time>2026-04-21T16:07:40.666Z</time></trkpt><trkpt lat="44.6633517" lon="9.2690617"><ele>888.0</ele><time>2026-04-21T16:07:41.665Z</time></trkpt><trkpt lat="44.6632833" lon="9.2689817"><ele>892.4</ele><time>2026-04-21T16:07:42.666Z</time></trkpt><trkpt lat="44.6632333" lon="9.2688817"><ele>896.8</ele><time>2026-04-21T16:07:43.665Z</time></trkpt><trkpt lat="44.6631933" lon="9.268765"><ele>901.2</ele><time>2026-04-21T16:07:44.666Z</time></trkpt><trkpt lat="44.663145" lon="9.2686467"><ele>905.6</ele><time>2026-04-21T16:07:45.666Z</time></trkpt><trkpt lat="44.66308" lon="9.2685333"><ele>910.0</ele><time>2026-04-21T16:07:46.665Z</time></trkpt><trkpt lat="44.6630067" lon="9.2684367"><ele>909.9999999999999</ele><time>2026-04-21T16:07:47.666Z</time></trkpt><trkpt lat="44.6629283" lon="9.2683717"><ele>910.0</ele><time>2026-04-21T16:07:48.665Z</time></trkpt><trkpt lat="44.6628517" lon="9.268345"><ele>910.0</ele><time>2026-04-21T16:07:49.666Z</time></trkpt><trkpt lat="44.6627767" lon="9.26833"><ele>910.0</ele><time>2026-04-21T16:07:50.666Z</time></trkpt><trkpt lat="44.6627067" lon="9.2682933"><ele>909.9999999999999</ele><time>2026-04-21T16:07:51.666Z</time></trkpt><trkpt lat="44.6626433" lon="9.2682267"><ele>910.0</ele><time>2026-04-21T16:07:52.666Z</time></trkpt><trkpt lat="44.6625883" lon="9.2681183"><ele>905.6</ele><time>2026-04-21T16:07:53.665Z</time></trkpt><trkpt lat="44.6625367" lon="9.267995"><ele>901.2</ele><time>2026-04-21T16:07:54.666Z</time></trkpt><trkpt lat="44.6625017" lon="9.26786"><ele>896.8</ele><time>2026-04-21T16:07:55.665Z</time></trkpt><trkpt lat="44.6624783" lon="9.267705"><ele>892.4</ele><time>2026-04-21T16:07:56.665Z</time></trkpt><trkpt lat="44.6624667" lon="9.2675383"><ele>888.0</ele><time>2026-04-21T16:07:57.665Z</time></trkpt><trkpt lat="44.66245" lon="9.2673717"><ele>896.0</ele><time>2026-04-21T16:07:58.666Z</time></trkpt><trkpt lat="44.6624483" lon="9.267205"><ele>904.0</ele><time>2026-04-21T16:07:59.665Z</time></trkpt><trkpt lat="44.6624283" lon="9.267045"><ele>912.0</ele><time>2026-04-21T16:08:00.665Z</time></trkpt><trkpt lat="44.6623833" lon="9.266885"><ele>920.0</ele><time>2026-04-21T16:08:01.666Z</time></trkpt><trkpt lat="44.6623117" lon="9.2667533"><ele>920.0</ele><time>2026-04-21T16:08:02.665Z</time></trkpt><trkpt lat="44.6622167" lon="9.2666367"><ele>920.0</ele><time>2026-04-21T16:08:03.665Z</time></trkpt><trkpt lat="44.66211" lon="9.266545"><ele>920.0</ele><time>2026-04-21T16:08:04.665Z</time></trkpt><trkpt lat="44.66201" lon="9.26648"><ele>920.0</ele><time>2026-04-21T16:08:05.666Z</time></trkpt><trkpt lat="44.661915" lon="9.2664533"><ele>913.8</ele><time>2026-04-21T16:08:06.665Z</time></trkpt><trkpt lat="44.6618183" lon="9.2664667"><ele>907.6</ele><time>2026-04-21T16:08:07.665Z</time></trkpt><trkpt lat="44.6617117" lon="9.266505"><ele>901.4000000000001</ele><time>2026-04-21T16:08:08.665Z</time></trkpt><trkpt lat="44.6615967" lon="9.2665617"><ele>895.2</ele><time>2026-04-21T16:08:09.665Z</time></trkpt><trkpt lat="44.6614867" lon="9.26659"><ele>889.0</ele><time>2026-04-21T16:08:10.665Z</time></trkpt><trkpt lat="44.661345" lon="9.2666"><ele>889.0</ele><time>2026-04-21T16:08:11.665Z</time></trkpt><trkpt lat="44.6612117" lon="9.2666167"><ele>889.0</ele><time>2026-04-21T16:08:12.666Z</time></trkpt><trkpt lat="44.6610783" lon="9.2666267"><ele>889.0</ele><time>2026-04-21T16:08:13.665Z</time></trkpt><trkpt lat="44.6609683" lon="9.2666067"><ele>889.0</ele><time>2026-04-21T16:08:14.666Z</time></trkpt><trkpt lat="44.6608783" lon="9.26657"><ele>885.8000000000001</ele><time>2026-04-21T16:08:15.666Z</time></trkpt><trkpt lat="44.66081" lon="9.2665083"><ele>882.6000000000001</ele><time>2026-04-21T16:08:16.665Z</time></trkpt><trkpt lat="44.6607467" lon="9.266425"><ele>879.4</ele><time>2026-04-21T16:08:17.665Z</time></trkpt><trkpt lat="44.6606817" lon="9.266325"><ele>876.2</ele><time>2026-04-21T16:08:18.666Z</time></trkpt><trkpt lat="44.660595" lon="9.26625"><ele>873.0</ele><time>2026-04-21T16:08:19.666Z</time></trkpt><trkpt lat="44.6604933" lon="9.2661917"><ele>876.0</ele><time>2026-04-21T16:08:20.665Z</time></trkpt><trkpt lat="44.6603967" lon="9.2661517"><ele>879.0</ele><time>2026-04-21T16:08:21.665Z</time></trkpt><trkpt lat="44.66031" lon="9.2661083"><ele>882.0</ele><time>2026-04-21T16:08:22.665Z</time></trkpt><trkpt lat="44.660235" lon="9.26604"><ele>885.0</ele><time>2026-04-21T16:08:23.665Z</time></trkpt><trkpt lat="44.6601667" lon="9.2659317"><ele>888.0</ele><time>2026-04-21T16:08:24.665Z</time></trkpt><trkpt lat="44.6600917" lon="9.2658017"><ele>888.0</ele><time>2026-04-21T16:08:25.666Z</time></trkpt><trkpt lat="44.660005" lon="9.26567"><ele>888.0</ele><time>2026-04-21T16:08:26.665Z</time></trkpt><trkpt lat="44.65991" lon="9.2655583"><ele>888.0</ele><time>2026-04-21T16:08:27.665Z</time></trkpt><trkpt lat="44.6598183" lon="9.2654767"><ele>888.0</ele><time>2026-04-21T16:08:28.666Z</time></trkpt><trkpt lat="44.6597367" lon="9.2653983"><ele>895.4</ele><time>2026-04-21T16:08:29.665Z</time></trkpt><trkpt lat="44.6596767" lon="9.2653117"><ele>902.8</ele><time>2026-04-21T16:08:30.666Z</time></trkpt><trkpt lat="44.659635" lon="9.265195"><ele>910.2</ele><time>2026-04-21T16:08:31.666Z</time></trkpt><trkpt lat="44.6596233" lon="9.26506"><ele>917.6</ele><time>2026-04-21T16:08:32.666Z</time></trkpt><trkpt lat="44.6596183" lon="9.2649033"><ele>925.0</ele><time>2026-04-21T16:08:33.665Z</time></trkpt><trkpt lat="44.6595967" lon="9.26473"><ele>918.5</ele><time>2026-04-21T16:08:34.666Z</time></trkpt><trkpt lat="44.659545" lon="9.2645583"><ele>912.0</ele><time>2026-04-21T16:08:35.666Z</time></trkpt><trkpt lat="44.6594733" lon="9.2644083"><ele>905.5</ele><time>2026-04-21T16:08:36.665Z</time></trkpt><trkpt lat="44.6593883" lon="9.2643"><ele>899.0</ele><time>2026-04-21T16:08:37.665Z</time></trkpt><trkpt lat="44.6593017" lon="9.2642183"><ele>899.0</ele><time>2026-04-21T16:08:38.666Z</time></trkpt><trkpt lat="44.6592117" lon="9.2641483"><ele>899.0000000000001</ele><time>2026-04-21T16:08:39.665Z</time></trkpt><trkpt lat="44.6591217" lon="9.264075"><ele>899.0000000000001</ele><time>2026-04-21T16:08:40.666Z</time></trkpt><trkpt lat="44.659065" lon="9.26398"><ele>899.0</ele><time>2026-04-21T16:08:41.665Z</time></trkpt><trkpt lat="44.6590233" lon="9.2638617"><ele>899.0</ele><time>2026-04-21T16:08:42.665Z</time></trkpt><trkpt lat="44.6589917" lon="9.2637217"><ele>909.5</ele><time>2026-04-21T16:08:43.665Z</time></trkpt><trkpt lat="44.658945" lon="9.263545"><ele>920.0</ele><time>2026-04-21T16:08:44.666Z</time></trkpt><trkpt lat="44.6588733" lon="9.2633683"><ele>930.5</ele><time>2026-04-21T16:08:45.666Z</time></trkpt><trkpt lat="44.658775" lon="9.2632117"><ele>941.0</ele><time>2026-04-21T16:08:46.666Z</time></trkpt><trkpt lat="44.65867" lon="9.26307"><ele>932.25</ele><time>2026-04-21T16:08:47.666Z</time></trkpt><trkpt lat="44.6585683" lon="9.26295"><ele>923.5</ele><time>2026-04-21T16:08:48.666Z</time></trkpt><trkpt lat="44.65849" lon="9.2628317"><ele>914.75</ele><time>2026-04-21T16:08:49.665Z</time></trkpt><trkpt lat="44.6584283" lon="9.26271"><ele>906.0</ele><time>2026-04-21T16:08:50.665Z</time></trkpt><trkpt lat="44.6584017" lon="9.2625533"><ele>906.0</ele><time>2026-04-21T16:08:51.666Z</time></trkpt><trkpt lat="44.6583933" lon="9.2623817"><ele>906.0</ele><time>2026-04-21T16:08:52.666Z</time></trkpt><trkpt lat="44.6583967" lon="9.2621967"><ele>906.0</ele><time>2026-04-21T16:08:53.666Z</time></trkpt><trkpt lat="44.6584117" lon="9.2620133"><ele>906.0</ele><time>2026-04-21T16:08:54.665Z</time></trkpt><trkpt lat="44.65844" lon="9.2618483"><ele>904.4</ele><time>2026-04-21T16:08:55.666Z</time></trkpt><trkpt lat="44.6584783" lon="9.2617117"><ele>902.8</ele><time>2026-04-21T16:08:56.665Z</time></trkpt><trkpt lat="44.6585283" lon="9.2615883"><ele>901.1999999999999</ele><time>2026-04-21T16:08:57.665Z</time></trkpt><trkpt lat="44.6586017" lon="9.2614733"><ele>899.5999999999999</ele><time>2026-04-21T16:08:58.665Z</time></trkpt><trkpt lat="44.6586917" lon="9.2613667"><ele>898.0</ele><time>2026-04-21T16:08:59.666Z</time></trkpt><trkpt lat="44.658775" lon="9.261245"><ele>904.25</ele><time>2026-04-21T16:09:00.665Z</time></trkpt><trkpt lat="44.6588383" lon="9.2610967"><ele>910.5</ele><time>2026-04-21T16:09:01.665Z</time></trkpt><trkpt lat="44.6588817" lon="9.2609233"><ele>916.75</ele><time>2026-04-21T16:09:02.665Z</time></trkpt><trkpt lat="44.658925" lon="9.2607483"><ele>923.0</ele><time>2026-04-21T16:09:03.665Z</time></trkpt><trkpt lat="44.6589833" lon="9.2605917"><ele>923.0</ele><time>2026-04-21T16:09:04.666Z</time></trkpt><trkpt lat="44.6590567" lon="9.260445"><ele>923.0</ele><time>2026-04-21T16:09:05.666Z</time></trkpt><trkpt lat="44.6591417" lon="9.2603"><ele>923.0</ele><time>2026-04-21T16:09:06.665Z</time></trkpt><trkpt lat="44.659235" lon="9.26017"><ele>923.0</ele><time>2026-04-21T16:09:07.665Z</time></trkpt><trkpt lat="44.65934" lon="9.26007"><ele>923.0000000000001</ele><time>2026-04-21T16:09:08.665Z</time></trkpt><trkpt lat="44.6594183" lon="9.2600133"><ele>923.0</ele><time>2026-04-21T16:09:09.665Z</time></trkpt><trkpt lat="44.6594867" lon="9.2599767"><ele>923.0</ele><time>2026-04-21T16:09:10.665Z</time></trkpt><trkpt lat="44.65955" lon="9.259975"><ele>923.0</ele><time>2026-04-21T16:09:11.665Z</time></trkpt><trkpt lat="44.6596017" lon="9.2600733"><ele>923.0000000000001</ele><time>2026-04-21T16:09:13.665Z</time></trkpt><trkpt lat="44.6595733" lon="9.2601833"><ele>923.0</ele><time>2026-04-21T16:09:14.665Z</time></trkpt><trkpt lat="44.6595283" lon="9.2602917"><ele>923.0000000000001</ele><time>2026-04-21T16:09:15.665Z</time></trkpt><trkpt lat="44.6594617" lon="9.26039"><ele>923.0</ele><time>2026-04-21T16:09:16.665Z</time></trkpt><trkpt lat="44.6593967" lon="9.2604983"><ele>923.0</ele><time>2026-04-21T16:09:17.666Z</time></trkpt><trkpt lat="44.6593667" lon="9.2605983"><ele>923.0</ele><time>2026-04-21T16:09:18.665Z</time></trkpt><trkpt lat="44.6593467" lon="9.2606933"><ele>923.0000000000001</ele><time>2026-04-21T16:09:19.665Z</time></trkpt><trkpt lat="44.6593867" lon="9.2608017"><ele>923.0</ele><time>2026-04-21T16:09:21.665Z</time></trkpt><trkpt lat="44.6594833" lon="9.26073"><ele>932.0</ele><time>2026-04-21T16:09:23.666Z</time></trkpt><trkpt lat="44.6595433" lon="9.2606433"><ele>941.0</ele><time>2026-04-21T16:09:24.665Z</time></trkpt><trkpt lat="44.6596183" lon="9.2604933"><ele>950.0</ele><time>2026-04-21T16:09:25.665Z</time></trkpt><trkpt lat="44.659695" lon="9.2603633"><ele>959.0</ele><time>2026-04-21T16:09:26.666Z</time></trkpt><trkpt lat="44.6597683" lon="9.2602133"><ele>959.0</ele><time>2026-04-21T16:09:27.665Z</time></trkpt><trkpt lat="44.6598217" lon="9.260085"><ele>959.0</ele><time>2026-04-21T16:09:28.666Z</time></trkpt><trkpt lat="44.659855" lon="9.2599"><ele>959.0</ele><time>2026-04-21T16:09:29.666Z</time></trkpt><trkpt lat="44.6598883" lon="9.2597333"><ele>959.0</ele><time>2026-04-21T16:09:30.666Z</time></trkpt><trkpt lat="44.6599217" lon="9.2595567"><ele>957.25</ele><time>2026-04-21T16:09:31.665Z</time></trkpt><trkpt lat="44.6599567" lon="9.2593733"><ele>955.5</ele><time>2026-04-21T16:09:32.666Z</time></trkpt><trkpt lat="44.659965" lon="9.2591817"><ele>953.75</ele><time>2026-04-21T16:09:33.665Z</time></trkpt><trkpt lat="44.6599783" lon="9.2590133"><ele>952.0</ele><time>2026-04-21T16:09:34.665Z</time></trkpt><trkpt lat="44.65999" lon="9.25887"><ele>955.8</ele><time>2026-04-21T16:09:35.665Z</time></trkpt><trkpt lat="44.6600317" lon="9.2587533"><ele>959.6</ele><time>2026-04-21T16:09:36.666Z</time></trkpt><trkpt lat="44.6601" lon="9.2586383"><ele>963.3999999999999</ele><time>2026-04-21T16:09:37.665Z</time></trkpt><trkpt lat="44.6601733" lon="9.258535"><ele>967.1999999999999</ele><time>2026-04-21T16:09:38.666Z</time></trkpt><trkpt lat="44.66027" lon="9.2584467"><ele>971.0</ele><time>2026-04-21T16:09:39.666Z</time></trkpt><trkpt lat="44.6603717" lon="9.2583783"><ele>971.0</ele><time>2026-04-21T16:09:40.665Z</time></trkpt><trkpt lat="44.660485" lon="9.2583383"><ele>971.0</ele><time>2026-04-21T16:09:41.665Z</time></trkpt><trkpt lat="44.6606033" lon="9.2583183"><ele>971.0</ele><time>2026-04-21T16:09:42.665Z</time></trkpt><trkpt lat="44.6607233" lon="9.2582933"><ele>971.0</ele><time>2026-04-21T16:09:43.665Z</time></trkpt><trkpt lat="44.6608417" lon="9.258245"><ele>971.0</ele><time>2026-04-21T16:09:44.666Z</time></trkpt><trkpt lat="44.6609383" lon="9.258155"><ele>971.0</ele><time>2026-04-21T16:09:45.665Z</time></trkpt><trkpt lat="44.6610217" lon="9.2580383"><ele>971.0</ele><time>2026-04-21T16:09:46.666Z</time></trkpt><trkpt lat="44.6610917" lon="9.257885"><ele>971.0</ele><time>2026-04-21T16:09:47.666Z</time></trkpt><trkpt lat="44.6611667" lon="9.2577217"><ele>972.25</ele><time>2026-04-21T16:09:48.666Z</time></trkpt><trkpt lat="44.6612433" lon="9.2575533"><ele>973.5</ele><time>2026-04-21T16:09:49.665Z</time></trkpt><trkpt lat="44.6613317" lon="9.2574017"><ele>974.75</ele><time>2026-04-21T16:09:50.665Z</time></trkpt><trkpt lat="44.6614183" lon="9.25725"><ele>976.0</ele><time>2026-04-21T16:09:51.665Z</time></trkpt><trkpt lat="44.6614983" lon="9.257115"><ele>971.25</ele><time>2026-04-21T16:09:52.665Z</time></trkpt><trkpt lat="44.6615817" lon="9.2570017"><ele>966.5</ele><time>2026-04-21T16:09:53.665Z</time></trkpt><trkpt lat="44.6616917" lon="9.2569183"><ele>961.75</ele><time>2026-04-21T16:09:54.665Z</time></trkpt><trkpt lat="44.661805" lon="9.2568417"><ele>957.0</ele><time>2026-04-21T16:09:55.665Z</time></trkpt><trkpt lat="44.6619317" lon="9.2568133"><ele>960.5</ele><time>2026-04-21T16:09:56.665Z</time></trkpt><trkpt lat="44.6620633" lon="9.2567967"><ele>964.0</ele><time>2026-04-21T16:09:57.666Z</time></trkpt><trkpt lat="44.6621917" lon="9.25678"><ele>967.5</ele><time>2026-04-21T16:09:58.665Z</time></trkpt><trkpt lat="44.6623267" lon="9.25678"><ele>971.0</ele><time>2026-04-21T16:09:59.666Z</time></trkpt><trkpt lat="44.6624617" lon="9.2567917"><ele>971.0</ele><time>2026-04-21T16:10:00.665Z</time></trkpt><trkpt lat="44.6626" lon="9.256805"><ele>971.0</ele><time>2026-04-21T16:10:01.666Z</time></trkpt><trkpt lat="44.6627467" lon="9.2568033"><ele>971.0</ele><time>2026-04-21T16:10:02.666Z</time></trkpt><trkpt lat="44.66288" lon="9.2567767"><ele>971.0</ele><time>2026-04-21T16:10:03.665Z</time></trkpt><trkpt lat="44.6630083" lon="9.2567483"><ele>971.1999999999999</ele><time>2026-04-21T16:10:04.666Z</time></trkpt><trkpt lat="44.6631117" lon="9.256705"><ele>971.3999999999999</ele><time>2026-04-21T16:10:05.665Z</time></trkpt><trkpt lat="44.6631917" lon="9.2566383"><ele>971.6</ele><time>2026-04-21T16:10:06.665Z</time></trkpt><trkpt lat="44.6632683" lon="9.2565383"><ele>971.8</ele><time>2026-04-21T16:10:07.665Z</time></trkpt><trkpt lat="44.6633533" lon="9.2564133"><ele>972.0</ele><time>2026-04-21T16:10:08.665Z</time></trkpt><trkpt lat="44.6634533" lon="9.2562867"><ele>972.0</ele><time>2026-04-21T16:10:09.665Z</time></trkpt><trkpt lat="44.66357" lon="9.2561667"><ele>972.0</ele><time>2026-04-21T16:10:10.665Z</time></trkpt><trkpt lat="44.663695" lon="9.2560483"><ele>972.0</ele><time>2026-04-21T16:10:11.666Z</time></trkpt><trkpt lat="44.663815" lon="9.2559167"><ele>972.0</ele><time>2026-04-21T16:10:12.665Z</time></trkpt><trkpt lat="44.6639183" lon="9.2557683"><ele>975.5</ele><time>2026-04-21T16:10:13.665Z</time></trkpt><trkpt lat="44.6639883" lon="9.2556083"><ele>979.0</ele><time>2026-04-21T16:10:14.666Z</time></trkpt><trkpt lat="44.664035" lon="9.2554467"><ele>982.5</ele><time>2026-04-21T16:10:15.665Z</time></trkpt><trkpt lat="44.6640517" lon="9.2552717"><ele>986.0</ele><time>2026-04-21T16:10:16.666Z</time></trkpt><trkpt lat="44.6640567" lon="9.2551017"><ele>986.0</ele><time>2026-04-21T16:10:17.665Z</time></trkpt><trkpt lat="44.6640617" lon="9.2549567"><ele>985.9999999999999</ele><time>2026-04-21T16:10:18.665Z</time></trkpt><trkpt lat="44.6640817" lon="9.25483"><ele>985.9999999999999</ele><time>2026-04-21T16:10:19.665Z</time></trkpt><trkpt lat="44.6641633" lon="9.25469"><ele>986.0</ele><time>2026-04-21T16:10:21.666Z</time></trkpt><trkpt lat="44.6642317" lon="9.2546517"><ele>986.0</ele><time>2026-04-21T16:10:22.665Z</time></trkpt><trkpt lat="44.66432" lon="9.25464"><ele>987.4</ele><time>2026-04-21T16:10:23.665Z</time></trkpt><trkpt lat="44.6644267" lon="9.2546283"><ele>988.8</ele><time>2026-04-21T16:10:24.665Z</time></trkpt><trkpt lat="44.66453" lon="9.2545833"><ele>990.1999999999999</ele><time>2026-04-21T16:10:25.666Z</time></trkpt><trkpt lat="44.664645" lon="9.254525"><ele>991.5999999999999</ele><time>2026-04-21T16:10:26.666Z</time></trkpt><trkpt lat="44.6647433" lon="9.2544617"><ele>993.0</ele><time>2026-04-21T16:10:27.666Z</time></trkpt><trkpt lat="44.66483" lon="9.2543967"><ele>993.0</ele><time>2026-04-21T16:10:28.665Z</time></trkpt><trkpt lat="44.6649117" lon="9.2543517"><ele>993.0</ele><time>2026-04-21T16:10:29.665Z</time></trkpt><trkpt lat="44.6649983" lon="9.25429"><ele>993.0</ele><time>2026-04-21T16:10:30.666Z</time></trkpt><trkpt lat="44.6650867" lon="9.2542183"><ele>993.0</ele><time>2026-04-21T16:10:31.666Z</time></trkpt><trkpt lat="44.665165" lon="9.2541567"><ele>993.0</ele><time>2026-04-21T16:10:32.665Z</time></trkpt><trkpt lat="44.6652367" lon="9.2540867"><ele>994.4</ele><time>2026-04-21T16:10:33.666Z</time></trkpt><trkpt lat="44.6653033" lon="9.2540233"><ele>995.8</ele><time>2026-04-21T16:10:34.665Z</time></trkpt><trkpt lat="44.66537" lon="9.2539517"><ele>997.2</ele><time>2026-04-21T16:10:35.666Z</time></trkpt><trkpt lat="44.6654517" lon="9.2538933"><ele>998.6</ele><time>2026-04-21T16:10:36.665Z</time></trkpt><trkpt lat="44.6655367" lon="9.25382"><ele>1000.0</ele><time>2026-04-21T16:10:37.666Z</time></trkpt><trkpt lat="44.6656083" lon="9.2537333"><ele>1000.0</ele><time>2026-04-21T16:10:38.666Z</time></trkpt><trkpt lat="44.66568" lon="9.25362"><ele>1000.0</ele><time>2026-04-21T16:10:39.665Z</time></trkpt><trkpt lat="44.6657617" lon="9.2534833"><ele>1000.0</ele><time>2026-04-21T16:10:40.666Z</time></trkpt><trkpt lat="44.66584" lon="9.25335"><ele>1000.0</ele><time>2026-04-21T16:10:41.665Z</time></trkpt><trkpt lat="44.6659183" lon="9.253215"><ele>999.0</ele><time>2026-04-21T16:10:42.665Z</time></trkpt><trkpt lat="44.6660033" lon="9.25308"><ele>998.0</ele><time>2026-04-21T16:10:43.665Z</time></trkpt><trkpt lat="44.6660933" lon="9.252965"><ele>997.0</ele><time>2026-04-21T16:10:44.665Z</time></trkpt><trkpt lat="44.66618" lon="9.252875"><ele>996.0</ele><time>2026-04-21T16:10:45.666Z</time></trkpt><trkpt lat="44.6662683" lon="9.2528267"><ele>996.0</ele><time>2026-04-21T16:10:46.665Z</time></trkpt><trkpt lat="44.6663667" lon="9.2528"><ele>995.9999999999999</ele><time>2026-04-21T16:10:47.665Z</time></trkpt><trkpt lat="44.6664667" lon="9.2527767"><ele>995.9999999999999</ele><time>2026-04-21T16:10:48.666Z</time></trkpt><trkpt lat="44.66656" lon="9.25273"><ele>996.0</ele><time>2026-04-21T16:10:49.666Z</time></trkpt><trkpt lat="44.6666417" lon="9.2526383"><ele>996.0</ele><time>2026-04-21T16:10:50.666Z</time></trkpt><trkpt lat="44.66673" lon="9.252545"><ele>996.0</ele><time>2026-04-21T16:10:51.665Z</time></trkpt><trkpt lat="44.6668167" lon="9.25243"><ele>996.0</ele><time>2026-04-21T16:10:52.665Z</time></trkpt><trkpt lat="44.6669117" lon="9.25231"><ele>996.0</ele><time>2026-04-21T16:10:53.665Z</time></trkpt><trkpt lat="44.6670033" lon="9.2521817"><ele>996.0</ele><time>2026-04-21T16:10:54.665Z</time></trkpt><trkpt lat="44.6670733" lon="9.25204"><ele>995.5</ele><time>2026-04-21T16:10:55.665Z</time></trkpt><trkpt lat="44.6671233" lon="9.2519117"><ele>995.0</ele><time>2026-04-21T16:10:56.665Z</time></trkpt><trkpt lat="44.6671717" lon="9.2518217"><ele>994.5</ele><time>2026-04-21T16:10:57.665Z</time></trkpt><trkpt lat="44.6672283" lon="9.251765"><ele>994.0</ele><time>2026-04-21T16:10:58.665Z</time></trkpt><trkpt lat="44.6672917" lon="9.2517283"><ele>993.5</ele><time>2026-04-21T16:10:59.666Z</time></trkpt><trkpt lat="44.6673683" lon="9.2517033"><ele>993.0</ele><time>2026-04-21T16:11:00.666Z</time></trkpt><trkpt lat="44.667475" lon="9.2516883"><ele>993.0</ele><time>2026-04-21T16:11:01.665Z</time></trkpt><trkpt lat="44.6675967" lon="9.2516667"><ele>993.0</ele><time>2026-04-21T16:11:02.666Z</time></trkpt><trkpt lat="44.6677183" lon="9.2516317"><ele>993.0</ele><time>2026-04-21T16:11:03.665Z</time></trkpt><trkpt lat="44.6678383" lon="9.251555"><ele>993.0</ele><time>2026-04-21T16:11:04.666Z</time></trkpt><trkpt lat="44.6679633" lon="9.2514583"><ele>989.75</ele><time>2026-04-21T16:11:05.665Z</time></trkpt><trkpt lat="44.6680883" lon="9.2513517"><ele>986.5</ele><time>2026-04-21T16:11:06.665Z</time></trkpt><trkpt lat="44.66821" lon="9.25124"><ele>983.25</ele><time>2026-04-21T16:11:07.665Z</time></trkpt><trkpt lat="44.6683283" lon="9.2511283"><ele>980.0</ele><time>2026-04-21T16:11:08.666Z</time></trkpt><trkpt lat="44.6684367" lon="9.251015"><ele>980.0</ele><time>2026-04-21T16:11:09.665Z</time></trkpt><trkpt lat="44.66854" lon="9.2508983"><ele>980.0</ele><time>2026-04-21T16:11:10.665Z</time></trkpt><trkpt lat="44.6686383" lon="9.2507817"><ele>980.0</ele><time>2026-04-21T16:11:11.665Z</time></trkpt><trkpt lat="44.66873" lon="9.2506683"><ele>980.0</ele><time>2026-04-21T16:11:12.666Z</time></trkpt><trkpt lat="44.6688167" lon="9.2505733"><ele>978.8333333333334</ele><time>2026-04-21T16:11:13.665Z</time></trkpt><trkpt lat="44.668895" lon="9.2505167"><ele>977.6666666666667</ele><time>2026-04-21T16:11:14.665Z</time></trkpt><trkpt lat="44.668965" lon="9.2504867"><ele>976.5</ele><time>2026-04-21T16:11:15.665Z</time></trkpt><trkpt lat="44.6690367" lon="9.2504917"><ele>975.3333333333333</ele><time>2026-04-21T16:11:16.666Z</time></trkpt><trkpt lat="44.6691133" lon="9.2505283"><ele>974.1666666666666</ele><time>2026-04-21T16:11:17.666Z</time></trkpt><trkpt lat="44.669195" lon="9.2505733"><ele>973.0</ele><time>2026-04-21T16:11:18.665Z</time></trkpt><trkpt lat="44.669275" lon="9.2506033"><ele>973.0</ele><time>2026-04-21T16:11:19.665Z</time></trkpt><trkpt lat="44.6693467" lon="9.250605"><ele>973.0</ele><time>2026-04-21T16:11:20.665Z</time></trkpt><trkpt lat="44.6694117" lon="9.250575"><ele>973.0</ele><time>2026-04-21T16:11:21.665Z</time></trkpt><trkpt lat="44.6694833" lon="9.250425"><ele>973.0</ele><time>2026-04-21T16:11:23.666Z</time></trkpt><trkpt lat="44.6695" lon="9.2502967"><ele>973.0</ele><time>2026-04-21T16:11:24.665Z</time></trkpt><trkpt lat="44.6695133" lon="9.25013"><ele>971.5999999999999</ele><time>2026-04-21T16:11:25.665Z</time></trkpt><trkpt lat="44.66954" lon="9.2500133"><ele>970.1999999999999</ele><time>2026-04-21T16:11:26.665Z</time></trkpt><trkpt lat="44.6695817" lon="9.2499133"><ele>968.8</ele><time>2026-04-21T16:11:27.665Z</time></trkpt><trkpt lat="44.669645" lon="9.2498233"><ele>967.4</ele><time>2026-04-21T16:11:28.665Z</time></trkpt><trkpt lat="44.669725" lon="9.24976"><ele>966.0</ele><time>2026-04-21T16:11:29.666Z</time></trkpt><trkpt lat="44.6698233" lon="9.2497233"><ele>966.0</ele><time>2026-04-21T16:11:30.665Z</time></trkpt><trkpt lat="44.6699217" lon="9.2497117"><ele>965.9999999999999</ele><time>2026-04-21T16:11:31.665Z</time></trkpt><trkpt lat="44.6700267" lon="9.2497117"><ele>965.9999999999999</ele><time>2026-04-21T16:11:32.665Z</time></trkpt><trkpt lat="44.6701267" lon="9.2496883"><ele>966.0</ele><time>2026-04-21T16:11:33.666Z</time></trkpt><trkpt lat="44.6702317" lon="9.2496683"><ele>966.0</ele><time>2026-04-21T16:11:34.666Z</time></trkpt><trkpt lat="44.6703517" lon="9.2496067"><ele>971.5</ele><time>2026-04-21T16:11:35.666Z</time></trkpt><trkpt lat="44.6704483" lon="9.2494983"><ele>977.0</ele><time>2026-04-21T16:11:36.665Z</time></trkpt><trkpt lat="44.670525" lon="9.2494133"><ele>982.5</ele><time>2026-04-21T16:11:37.665Z</time></trkpt><trkpt lat="44.6705767" lon="9.2493333"><ele>988.0</ele><time>2026-04-21T16:11:38.666Z</time></trkpt><trkpt lat="44.6705983" lon="9.24924"><ele>993.5</ele><time>2026-04-21T16:11:39.665Z</time></trkpt><trkpt lat="44.6706033" lon="9.249135"><ele>999.0</ele><time>2026-04-21T16:11:40.665Z</time></trkpt><trkpt lat="44.670605" lon="9.2490167"><ele>991.8333333333334</ele><time>2026-04-21T16:11:41.666Z</time></trkpt><trkpt lat="44.6706217" lon="9.2488983"><ele>984.6666666666667</ele><time>2026-04-21T16:11:42.665Z</time></trkpt><trkpt lat="44.670675" lon="9.2487917"><ele>977.5</ele><time>2026-04-21T16:11:43.665Z</time></trkpt><trkpt lat="44.6707417" lon="9.2487083"><ele>970.3333333333334</ele><time>2026-04-21T16:11:44.665Z</time></trkpt><trkpt lat="44.670815" lon="9.2486483"><ele>963.1666666666667</ele><time>2026-04-21T16:11:45.665Z</time></trkpt><trkpt lat="44.6708933" lon="9.2486233"><ele>956.0</ele><time>2026-04-21T16:11:46.665Z</time></trkpt><trkpt lat="44.6709617" lon="9.248615"><ele>956.0</ele><time>2026-04-21T16:11:47.665Z</time></trkpt><trkpt lat="44.671045" lon="9.2486433"><ele>955.9999999999999</ele><time>2026-04-21T16:11:48.666Z</time></trkpt><trkpt lat="44.6711417" lon="9.248725"><ele>955.9999999999999</ele><time>2026-04-21T16:11:49.665Z</time></trkpt><trkpt lat="44.6712333" lon="9.2488083"><ele>956.0</ele><time>2026-04-21T16:11:50.666Z</time></trkpt><trkpt lat="44.6712983" lon="9.24887"><ele>956.0</ele><time>2026-04-21T16:11:51.666Z</time></trkpt><trkpt lat="44.671375" lon="9.2489233"><ele>960.3333333333334</ele><time>2026-04-21T16:11:52.665Z</time></trkpt><trkpt lat="44.67144" lon="9.2489367"><ele>964.6666666666667</ele><time>2026-04-21T16:11:53.666Z</time></trkpt><trkpt lat="44.6715067" lon="9.24891"><ele>969.0</ele><time>2026-04-21T16:11:54.665Z</time></trkpt><trkpt lat="44.6715667" lon="9.2488217"><ele>973.3333333333333</ele><time>2026-04-21T16:11:55.666Z</time></trkpt><trkpt lat="44.6716117" lon="9.2486867"><ele>977.6666666666666</ele><time>2026-04-21T16:11:56.666Z</time></trkpt><trkpt lat="44.6716433" lon="9.2485433"><ele>982.0</ele><time>2026-04-21T16:11:57.665Z</time></trkpt><trkpt lat="44.67169" lon="9.248465"><ele>981.9999999999999</ele><time>2026-04-21T16:11:58.665Z</time></trkpt><trkpt lat="44.6717533" lon="9.24842"><ele>982.0</ele><time>2026-04-21T16:11:59.666Z</time></trkpt><trkpt lat="44.671815" lon="9.24838"><ele>982.0</ele><time>2026-04-21T16:12:00.665Z</time></trkpt><trkpt lat="44.67187" lon="9.2483217"><ele>982.0</ele><time>2026-04-21T16:12:01.665Z</time></trkpt><trkpt lat="44.6719117" lon="9.2481367"><ele>981.9999999999999</ele><time>2026-04-21T16:12:03.665Z</time></trkpt><trkpt lat="44.671915" lon="9.24801"><ele>982.0</ele><time>2026-04-21T16:12:04.665Z</time></trkpt><trkpt lat="44.67193" lon="9.2479"><ele>983.5</ele><time>2026-04-21T16:12:05.666Z</time></trkpt><trkpt lat="44.672015" lon="9.2478083"><ele>985.0</ele><time>2026-04-21T16:12:07.665Z</time></trkpt><trkpt lat="44.672165" lon="9.24781"><ele>986.5</ele><time>2026-04-21T16:12:09.666Z</time></trkpt><trkpt lat="44.6722733" lon="9.2477967"><ele>988.0</ele><time>2026-04-21T16:12:10.665Z</time></trkpt><trkpt lat="44.672395" lon="9.2477267"><ele>988.0</ele><time>2026-04-21T16:12:11.665Z</time></trkpt><trkpt lat="44.672515" lon="9.247655"><ele>988.0</ele><time>2026-04-21T16:12:12.665Z</time></trkpt><trkpt lat="44.672625" lon="9.24756"><ele>988.0</ele><time>2026-04-21T16:12:13.666Z</time></trkpt><trkpt lat="44.6727167" lon="9.2474533"><ele>988.0</ele><time>2026-04-21T16:12:14.665Z</time></trkpt><trkpt lat="44.672785" lon="9.2473383"><ele>992.4</ele><time>2026-04-21T16:12:15.666Z</time></trkpt><trkpt lat="44.6728283" lon="9.24721"><ele>996.8</ele><time>2026-04-21T16:12:16.665Z</time></trkpt><trkpt lat="44.6728467" lon="9.247065"><ele>1001.2</ele><time>2026-04-21T16:12:17.665Z</time></trkpt><trkpt lat="44.6728533" lon="9.2468983"><ele>1005.6</ele><time>2026-04-21T16:12:18.666Z</time></trkpt><trkpt lat="44.6728483" lon="9.2467267"><ele>1010.0</ele><time>2026-04-21T16:12:19.665Z</time></trkpt><trkpt lat="44.6728467" lon="9.2465667"><ele>1005.25</ele><time>2026-04-21T16:12:20.665Z</time></trkpt><trkpt lat="44.6728517" lon="9.246425"><ele>1000.5</ele><time>2026-04-21T16:12:21.666Z</time></trkpt><trkpt lat="44.6728667" lon="9.2462767"><ele>995.75</ele><time>2026-04-21T16:12:22.665Z</time></trkpt><trkpt lat="44.672905" lon="9.2461083"><ele>991.0</ele><time>2026-04-21T16:12:23.665Z</time></trkpt><trkpt lat="44.6729567" lon="9.245925"><ele>991.0</ele><time>2026-04-21T16:12:24.665Z</time></trkpt><trkpt lat="44.6730217" lon="9.2457667"><ele>990.9999999999999</ele><time>2026-04-21T16:12:25.665Z</time></trkpt><trkpt lat="44.673085" lon="9.2456467"><ele>990.9999999999999</ele><time>2026-04-21T16:12:26.666Z</time></trkpt><trkpt lat="44.6731317" lon="9.2455433"><ele>991.0</ele><time>2026-04-21T16:12:27.665Z</time></trkpt><trkpt lat="44.6731417" lon="9.2454433"><ele>991.0</ele><time>2026-04-21T16:12:28.665Z</time></trkpt><trkpt lat="44.6731267" lon="9.24535"><ele>992.4999999999999</ele><time>2026-04-21T16:12:29.666Z</time></trkpt><trkpt lat="44.67309" lon="9.2452683"><ele>994.0</ele><time>2026-04-21T16:12:30.666Z</time></trkpt><trkpt lat="44.6730283" lon="9.2452083"><ele>995.5</ele><time>2026-04-21T16:12:31.666Z</time></trkpt><trkpt lat="44.67294" lon="9.2451767"><ele>997.0</ele><time>2026-04-21T16:12:32.665Z</time></trkpt><trkpt lat="44.6728617" lon="9.2451733"><ele>998.4999999999999</ele><time>2026-04-21T16:12:33.666Z</time></trkpt><trkpt lat="44.6727783" lon="9.245205"><ele>1000.0</ele><time>2026-04-21T16:12:34.665Z</time></trkpt><trkpt lat="44.6726783" lon="9.245265"><ele>1007.0</ele><time>2026-04-21T16:12:35.665Z</time></trkpt><trkpt lat="44.6725367" lon="9.245415"><ele>1014.0</ele><time>2026-04-21T16:12:36.665Z</time></trkpt><trkpt lat="44.6724417" lon="9.245625"><ele>1021.0</ele><time>2026-04-21T16:12:37.666Z</time></trkpt><trkpt lat="44.6723583" lon="9.2458"><ele>1011.1999999999999</ele><time>2026-04-21T16:12:38.666Z</time></trkpt><trkpt lat="44.6722917" lon="9.245925"><ele>1001.3999999999999</ele><time>2026-04-21T16:12:39.666Z</time></trkpt><trkpt lat="44.67221" lon="9.2460267"><ele>991.6</ele><time>2026-04-21T16:12:40.665Z</time></trkpt><trkpt lat="44.6721217" lon="9.24607"><ele>981.8</ele><time>2026-04-21T16:12:41.665Z</time></trkpt><trkpt lat="44.6720367" lon="9.2460717"><ele>972.0</ele><time>2026-04-21T16:12:42.666Z</time></trkpt><trkpt lat="44.6719467" lon="9.2460433"><ele>976.75</ele><time>2026-04-21T16:12:43.666Z</time></trkpt><trkpt lat="44.6718417" lon="9.2459967"><ele>981.5</ele><time>2026-04-21T16:12:44.666Z</time></trkpt><trkpt lat="44.6717383" lon="9.2459633"><ele>986.25</ele><time>2026-04-21T16:12:45.665Z</time></trkpt><trkpt lat="44.671625" lon="9.2459417"><ele>991.0</ele><time>2026-04-21T16:12:46.666Z</time></trkpt><trkpt lat="44.6714967" lon="9.2459133"><ele>991.0</ele><time>2026-04-21T16:12:47.665Z</time></trkpt><trkpt lat="44.6713633" lon="9.2459"><ele>991.0</ele><time>2026-04-21T16:12:48.666Z</time></trkpt><trkpt lat="44.6712367" lon="9.2459083"><ele>991.0</ele><time>2026-04-21T16:12:49.665Z</time></trkpt><trkpt lat="44.671115" lon="9.2459167"><ele>991.0</ele><time>2026-04-21T16:12:50.666Z</time></trkpt><trkpt lat="44.671005" lon="9.2459417"><ele>993.4</ele><time>2026-04-21T16:12:51.665Z</time></trkpt><trkpt lat="44.6709117" lon="9.246"><ele>995.8</ele><time>2026-04-21T16:12:52.665Z</time></trkpt><trkpt lat="44.6708267" lon="9.2460633"><ele>998.1999999999999</ele><time>2026-04-21T16:12:53.665Z</time></trkpt><trkpt lat="44.67074" lon="9.24614"><ele>1000.5999999999999</ele><time>2026-04-21T16:12:54.666Z</time></trkpt><trkpt lat="44.6706617" lon="9.246205"><ele>1003.0</ele><time>2026-04-21T16:12:55.665Z</time></trkpt><trkpt lat="44.67059" lon="9.24623"><ele>1003.0</ele><time>2026-04-21T16:12:56.665Z</time></trkpt><trkpt lat="44.6705167" lon="9.2462167"><ele>1003.0</ele><time>2026-04-21T16:12:57.666Z</time></trkpt><trkpt lat="44.670445" lon="9.24617"><ele>1003.0</ele><time>2026-04-21T16:12:58.666Z</time></trkpt><trkpt lat="44.6703767" lon="9.2460967"><ele>1003.0</ele><time>2026-04-21T16:12:59.666Z</time></trkpt><trkpt lat="44.670305" lon="9.2459983"><ele>1003.0</ele><time>2026-04-21T16:13:00.666Z</time></trkpt><trkpt lat="44.67024" lon="9.2458683"><ele>1002.8</ele><time>2026-04-21T16:13:01.665Z</time></trkpt><trkpt lat="44.67018" lon="9.2457233"><ele>1002.5999999999999</ele><time>2026-04-21T16:13:02.665Z</time></trkpt><trkpt lat="44.6701233" lon="9.24559"><ele>1002.4000000000001</ele><time>2026-04-21T16:13:03.665Z</time></trkpt><trkpt lat="44.6700633" lon="9.245485"><ele>1002.2</ele><time>2026-04-21T16:13:04.665Z</time></trkpt><trkpt lat="44.6699883" lon="9.24541"><ele>1002.0</ele><time>2026-04-21T16:13:05.665Z</time></trkpt><trkpt lat="44.6699033" lon="9.2453533"><ele>1005.6</ele><time>2026-04-21T16:13:06.666Z</time></trkpt><trkpt lat="44.6698217" lon="9.2453283"><ele>1009.2</ele><time>2026-04-21T16:13:07.666Z</time></trkpt><trkpt lat="44.6697183" lon="9.2453317"><ele>1012.8</ele><time>2026-04-21T16:13:08.666Z</time></trkpt><trkpt lat="44.6696133" lon="9.2453483"><ele>1016.4</ele><time>2026-04-21T16:13:09.665Z</time></trkpt><trkpt lat="44.669505" lon="9.245365"><ele>1020.0</ele><time>2026-04-21T16:13:10.666Z</time></trkpt><trkpt lat="44.66938" lon="9.2453533"><ele>1020.0</ele><time>2026-04-21T16:13:11.666Z</time></trkpt><trkpt lat="44.669255" lon="9.2453083"><ele>1020.0</ele><time>2026-04-21T16:13:12.666Z</time></trkpt><trkpt lat="44.66913" lon="9.2452283"><ele>1020.0</ele><time>2026-04-21T16:13:13.666Z</time></trkpt><trkpt lat="44.6690017" lon="9.2451217"><ele>1020.0</ele><time>2026-04-21T16:13:14.665Z</time></trkpt><trkpt lat="44.6688767" lon="9.2450167"><ele>1020.0</ele><time>2026-04-21T16:13:15.665Z</time></trkpt><trkpt lat="44.668755" lon="9.244905"><ele>1020.0</ele><time>2026-04-21T16:13:16.665Z</time></trkpt><trkpt lat="44.6686367" lon="9.2448017"><ele>1020.0</ele><time>2026-04-21T16:13:17.665Z</time></trkpt><trkpt lat="44.6685333" lon="9.244715"><ele>1020.0</ele><time>2026-04-21T16:13:18.666Z</time></trkpt><trkpt lat="44.6684283" lon="9.2446417"><ele>1027.75</ele><time>2026-04-21T16:13:19.666Z</time></trkpt><trkpt lat="44.6683083" lon="9.2445767"><ele>1035.5</ele><time>2026-04-21T16:13:20.666Z</time></trkpt><trkpt lat="44.66819" lon="9.2445217"><ele>1043.25</ele><time>2026-04-21T16:13:21.666Z</time></trkpt><trkpt lat="44.66807" lon="9.2444883"><ele>1051.0</ele><time>2026-04-21T16:13:22.666Z</time></trkpt><trkpt lat="44.6679467" lon="9.24448"><ele>1051.0</ele><time>2026-04-21T16:13:23.665Z</time></trkpt><trkpt lat="44.6678167" lon="9.24448"><ele>1051.0</ele><time>2026-04-21T16:13:24.665Z</time></trkpt><trkpt lat="44.6676667" lon="9.2445267"><ele>1051.0</ele><time>2026-04-21T16:13:25.665Z</time></trkpt><trkpt lat="44.6675267" lon="9.2445583"><ele>1051.0</ele><time>2026-04-21T16:13:26.666Z</time></trkpt><trkpt lat="44.66738" lon="9.2445783"><ele>1051.0</ele><time>2026-04-21T16:13:27.665Z</time></trkpt><trkpt lat="44.6672367" lon="9.2446033"><ele>1051.0</ele><time>2026-04-21T16:13:28.666Z</time></trkpt><trkpt lat="44.6670983" lon="9.244625"><ele>1051.0</ele><time>2026-04-21T16:13:29.666Z</time></trkpt><trkpt lat="44.6669583" lon="9.24464"><ele>1051.0</ele><time>2026-04-21T16:13:30.665Z</time></trkpt><trkpt lat="44.66682" lon="9.2446467"><ele>1051.0</ele><time>2026-04-21T16:13:31.666Z</time></trkpt><trkpt lat="44.6666617" lon="9.2446433"><ele>1051.0</ele><time>2026-04-21T16:13:32.665Z</time></trkpt><trkpt lat="44.6665117" lon="9.2446583"><ele>1051.0</ele><time>2026-04-21T16:13:33.666Z</time></trkpt><trkpt lat="44.6663767" lon="9.2446817"><ele>1051.0</ele><time>2026-04-21T16:13:34.665Z</time></trkpt><trkpt lat="44.66626" lon="9.244705"><ele>1051.0</ele><time>2026-04-21T16:13:35.665Z</time></trkpt><trkpt lat="44.6661717" lon="9.244715"><ele>1051.0</ele><time>2026-04-21T16:13:36.665Z</time></trkpt><trkpt lat="44.66606" lon="9.2446733"><ele>1051.0</ele><time>2026-04-21T16:13:37.665Z</time></trkpt><trkpt lat="44.6659433" lon="9.2446583"><ele>1051.0</ele><time>2026-04-21T16:13:38.666Z</time></trkpt><trkpt lat="44.6658117" lon="9.244645"><ele>1048.0</ele><time>2026-04-21T16:13:39.666Z</time></trkpt><trkpt lat="44.6656833" lon="9.2446267"><ele>1045.0</ele><time>2026-04-21T16:13:40.665Z</time></trkpt><trkpt lat="44.665565" lon="9.2446283"><ele>1042.0</ele><time>2026-04-21T16:13:41.665Z</time></trkpt><trkpt lat="44.6654433" lon="9.2446583"><ele>1039.0</ele><time>2026-04-21T16:13:42.665Z</time></trkpt><trkpt lat="44.6653233" lon="9.2447033"><ele>1033.8</ele><time>2026-04-21T16:13:43.665Z</time></trkpt><trkpt lat="44.665215" lon="9.2447417"><ele>1028.6000000000001</ele><time>2026-04-21T16:13:44.666Z</time></trkpt><trkpt lat="44.6651233" lon="9.2448067"><ele>1023.4</ele><time>2026-04-21T16:13:45.665Z</time></trkpt><trkpt lat="44.66505" lon="9.2448317"><ele>1018.2</ele><time>2026-04-21T16:13:46.666Z</time></trkpt><trkpt lat="44.6649467" lon="9.244835"><ele>1013.0</ele><time>2026-04-21T16:13:48.666Z</time></trkpt><trkpt lat="44.6649" lon="9.2446983"><ele>1013.0</ele><time>2026-04-21T16:13:50.666Z</time></trkpt><trkpt lat="44.664905" lon="9.2445633"><ele>1013.0</ele><time>2026-04-21T16:13:51.665Z</time></trkpt><trkpt lat="44.66493" lon="9.2444217"><ele>1013.0</ele><time>2026-04-21T16:13:52.666Z</time></trkpt><trkpt lat="44.6649817" lon="9.244275"><ele>1013.0</ele><time>2026-04-21T16:13:53.665Z</time></trkpt><trkpt lat="44.6650517" lon="9.2441367"><ele>1013.0</ele><time>2026-04-21T16:13:54.665Z</time></trkpt><trkpt lat="44.665135" lon="9.24402"><ele>1015.5999999999999</ele><time>2026-04-21T16:13:55.665Z</time></trkpt><trkpt lat="44.6652133" lon="9.2438933"><ele>1018.1999999999999</ele><time>2026-04-21T16:13:56.665Z</time></trkpt><trkpt lat="44.66529" lon="9.2437883"><ele>1020.8</ele><time>2026-04-21T16:13:57.666Z</time></trkpt><trkpt lat="44.6653617" lon="9.2437183"><ele>1023.4</ele><time>2026-04-21T16:13:58.665Z</time></trkpt><trkpt lat="44.6654317" lon="9.2436783"><ele>1026.0</ele><time>2026-04-21T16:13:59.666Z</time></trkpt><trkpt lat="44.6655167" lon="9.2436483"><ele>1026.0</ele><time>2026-04-21T16:14:00.665Z</time></trkpt><trkpt lat="44.6656183" lon="9.2436267"><ele>1026.0</ele><time>2026-04-21T16:14:01.666Z</time></trkpt><trkpt lat="44.66574" lon="9.2435917"><ele>1026.0</ele><time>2026-04-21T16:14:02.666Z</time></trkpt><trkpt lat="44.6658733" lon="9.243515"><ele>1026.0</ele><time>2026-04-21T16:14:03.665Z</time></trkpt><trkpt lat="44.66598" lon="9.2434317"><ele>1026.0</ele><time>2026-04-21T16:14:04.665Z</time></trkpt><trkpt lat="44.666115" lon="9.2433533"><ele>1026.0</ele><time>2026-04-21T16:14:05.665Z</time></trkpt><trkpt lat="44.6662333" lon="9.2432583"><ele>1026.0</ele><time>2026-04-21T16:14:06.665Z</time></trkpt><trkpt lat="44.6663383" lon="9.24315"><ele>1026.0</ele><time>2026-04-21T16:14:07.665Z</time></trkpt><trkpt lat="44.6664183" lon="9.2430317"><ele>1026.0</ele><time>2026-04-21T16:14:08.666Z</time></trkpt><trkpt lat="44.666505" lon="9.24292"><ele>1026.0</ele><time>2026-04-21T16:14:09.666Z</time></trkpt><trkpt lat="44.6665983" lon="9.2428217"><ele>1026.0</ele><time>2026-04-21T16:14:10.665Z</time></trkpt><trkpt lat="44.66671" lon="9.24274"><ele>1026.0</ele><time>2026-04-21T16:14:11.665Z</time></trkpt><trkpt lat="44.666835" lon="9.24265"><ele>1027.8</ele><time>2026-04-21T16:14:12.665Z</time></trkpt><trkpt lat="44.6669633" lon="9.2425683"><ele>1029.6</ele><time>2026-04-21T16:14:13.666Z</time></trkpt><trkpt lat="44.66707" lon="9.2424967"><ele>1031.4</ele><time>2026-04-21T16:14:14.666Z</time></trkpt><trkpt lat="44.6671517" lon="9.2424183"><ele>1033.2</ele><time>2026-04-21T16:14:15.665Z</time></trkpt><trkpt lat="44.6672133" lon="9.24234"><ele>1035.0</ele><time>2026-04-21T16:14:16.665Z</time></trkpt><trkpt lat="44.667245" lon="9.2422467"><ele>1035.0</ele><time>2026-04-21T16:14:17.665Z</time></trkpt><trkpt lat="44.6672783" lon="9.2421483"><ele>1035.0</ele><time>2026-04-21T16:14:18.665Z</time></trkpt><trkpt lat="44.6673217" lon="9.2420533"><ele>1035.0</ele><time>2026-04-21T16:14:19.666Z</time></trkpt><trkpt lat="44.6673767" lon="9.2419617"><ele>1035.0</ele><time>2026-04-21T16:14:20.666Z</time></trkpt><trkpt lat="44.6674517" lon="9.2418833"><ele>1035.0</ele><time>2026-04-21T16:14:21.665Z</time></trkpt><trkpt lat="44.6675317" lon="9.2418283"><ele>1035.0</ele><time>2026-04-21T16:14:22.665Z</time></trkpt><trkpt lat="44.6676283" lon="9.241785"><ele>1035.0</ele><time>2026-04-21T16:14:23.665Z</time></trkpt><trkpt lat="44.66774" lon="9.2417483"><ele>1035.0</ele><time>2026-04-21T16:14:24.666Z</time></trkpt><trkpt lat="44.6678533" lon="9.241715"><ele>1035.0</ele><time>2026-04-21T16:14:25.666Z</time></trkpt><trkpt lat="44.6679667" lon="9.2416783"><ele>1035.0</ele><time>2026-04-21T16:14:26.665Z</time></trkpt><trkpt lat="44.6680767" lon="9.24165"><ele>1033.8</ele><time>2026-04-21T16:14:27.666Z</time></trkpt><trkpt lat="44.6681717" lon="9.2416133"><ele>1032.6</ele><time>2026-04-21T16:14:28.666Z</time></trkpt><trkpt lat="44.6682517" lon="9.2415517"><ele>1031.4</ele><time>2026-04-21T16:14:29.665Z</time></trkpt><trkpt lat="44.6683217" lon="9.24146"><ele>1030.2</ele><time>2026-04-21T16:14:30.665Z</time></trkpt><trkpt lat="44.668385" lon="9.24135"><ele>1029.0</ele><time>2026-04-21T16:14:31.666Z</time></trkpt><trkpt lat="44.6684367" lon="9.24123"><ele>1029.0</ele><time>2026-04-21T16:14:32.666Z</time></trkpt><trkpt lat="44.6684833" lon="9.24113"><ele>1029.0</ele><time>2026-04-21T16:14:33.666Z</time></trkpt><trkpt lat="44.6685267" lon="9.24106"><ele>1029.0</ele><time>2026-04-21T16:14:34.666Z</time></trkpt><trkpt lat="44.6686467" lon="9.2409983"><ele>1029.0</ele><time>2026-04-21T16:14:36.665Z</time></trkpt><trkpt lat="44.6687333" lon="9.2409783"><ele>1029.0</ele><time>2026-04-21T16:14:37.665Z</time></trkpt><trkpt lat="44.66886" lon="9.240985"><ele>1034.2</ele><time>2026-04-21T16:14:38.665Z</time></trkpt><trkpt lat="44.6689983" lon="9.24099"><ele>1039.4</ele><time>2026-04-21T16:14:39.665Z</time></trkpt><trkpt lat="44.6691217" lon="9.2409733"><ele>1044.6</ele><time>2026-04-21T16:14:40.665Z</time></trkpt><trkpt lat="44.6692183" lon="9.240935"><ele>1049.8</ele><time>2026-04-21T16:14:41.666Z</time></trkpt><trkpt lat="44.66929" lon="9.240885"><ele>1055.0</ele><time>2026-04-21T16:14:42.666Z</time></trkpt><trkpt lat="44.6693617" lon="9.2408233"><ele>1055.0</ele><time>2026-04-21T16:14:43.666Z</time></trkpt><trkpt lat="44.6694383" lon="9.2407867"><ele>1055.0</ele><time>2026-04-21T16:14:44.665Z</time></trkpt><trkpt lat="44.66952" lon="9.2407433"><ele>1055.0</ele><time>2026-04-21T16:14:45.666Z</time></trkpt><trkpt lat="44.66961" lon="9.2406933"><ele>1055.0</ele><time>2026-04-21T16:14:46.666Z</time></trkpt><trkpt lat="44.6696967" lon="9.2406433"><ele>1055.0</ele><time>2026-04-21T16:14:47.666Z</time></trkpt><trkpt lat="44.6697733" lon="9.2405417"><ele>1053.0</ele><time>2026-04-21T16:14:48.665Z</time></trkpt><trkpt lat="44.6698583" lon="9.2404117"><ele>1051.0</ele><time>2026-04-21T16:14:49.665Z</time></trkpt><trkpt lat="44.66995" lon="9.2402817"><ele>1049.0</ele><time>2026-04-21T16:14:50.666Z</time></trkpt><trkpt lat="44.670035" lon="9.240155"><ele>1047.0</ele><time>2026-04-21T16:14:51.665Z</time></trkpt><trkpt lat="44.6701183" lon="9.24003"><ele>1047.0</ele><time>2026-04-21T16:14:52.665Z</time></trkpt><trkpt lat="44.670195" lon="9.2399"><ele>1047.0</ele><time>2026-04-21T16:14:53.665Z</time></trkpt><trkpt lat="44.670275" lon="9.2397933"><ele>1047.0</ele><time>2026-04-21T16:14:54.666Z</time></trkpt><trkpt lat="44.6703617" lon="9.239685"><ele>1047.0</ele><time>2026-04-21T16:14:55.666Z</time></trkpt><trkpt lat="44.6704367" lon="9.2396117"><ele>1047.0</ele><time>2026-04-21T16:14:56.665Z</time></trkpt><trkpt lat="44.6705033" lon="9.2395783"><ele>1044.3333333333333</ele><time>2026-04-21T16:14:57.666Z</time></trkpt><trkpt lat="44.6706133" lon="9.2396133"><ele>1041.6666666666667</ele><time>2026-04-21T16:14:59.665Z</time></trkpt><trkpt lat="44.670655" lon="9.23968"><ele>1039.0</ele><time>2026-04-21T16:15:00.665Z</time></trkpt><trkpt lat="44.6707" lon="9.2397867"><ele>1036.3333333333335</ele><time>2026-04-21T16:15:01.666Z</time></trkpt><trkpt lat="44.6707533" lon="9.2398733"><ele>1033.6666666666667</ele><time>2026-04-21T16:15:02.666Z</time></trkpt><trkpt lat="44.6708267" lon="9.23995"><ele>1031.0</ele><time>2026-04-21T16:15:03.665Z</time></trkpt><trkpt lat="44.6709217" lon="9.240015"><ele>1038.0</ele><time>2026-04-21T16:15:04.665Z</time></trkpt><trkpt lat="44.6710167" lon="9.24007"><ele>1045.0</ele><time>2026-04-21T16:15:05.666Z</time></trkpt><trkpt lat="44.6711017" lon="9.240135"><ele>1052.0</ele><time>2026-04-21T16:15:06.665Z</time></trkpt><trkpt lat="44.6711633" lon="9.2402083"><ele>1059.0</ele><time>2026-04-21T16:15:07.665Z</time></trkpt><trkpt lat="44.67123" lon="9.24027"><ele>1066.0</ele><time>2026-04-21T16:15:08.665Z</time></trkpt><trkpt lat="44.6713633" lon="9.24029"><ele>1066.0</ele><time>2026-04-21T16:15:10.666Z</time></trkpt><trkpt lat="44.67144" lon="9.2402617"><ele>1066.0</ele><time>2026-04-21T16:15:11.666Z</time></trkpt><trkpt lat="44.6715167" lon="9.24024"><ele>1066.0</ele><time>2026-04-21T16:15:12.666Z</time></trkpt><trkpt lat="44.6716" lon="9.2402283"><ele>1066.0</ele><time>2026-04-21T16:15:13.666Z</time></trkpt><trkpt lat="44.6717" lon="9.2402433"><ele>1066.0</ele><time>2026-04-21T16:15:14.666Z</time></trkpt><trkpt lat="44.6718133" lon="9.24026"><ele>1066.0</ele><time>2026-04-21T16:15:15.666Z</time></trkpt><trkpt lat="44.6719317" lon="9.240265"><ele>1066.0</ele><time>2026-04-21T16:15:16.666Z</time></trkpt><trkpt lat="44.67204" lon="9.2402533"><ele>1066.0</ele><time>2026-04-21T16:15:17.665Z</time></trkpt><trkpt lat="44.6721333" lon="9.2402133"><ele>1066.0</ele><time>2026-04-21T16:15:18.665Z</time></trkpt><trkpt lat="44.67222" lon="9.2401317"><ele>1066.0</ele><time>2026-04-21T16:15:19.665Z</time></trkpt><trkpt lat="44.6723117" lon="9.2400183"><ele>1064.6</ele><time>2026-04-21T16:15:20.665Z</time></trkpt><trkpt lat="44.672395" lon="9.23988"><ele>1063.1999999999998</ele><time>2026-04-21T16:15:21.665Z</time></trkpt><trkpt lat="44.6724717" lon="9.2397683"><ele>1061.8000000000002</ele><time>2026-04-21T16:15:22.666Z</time></trkpt><trkpt lat="44.67256" lon="9.239685"><ele>1060.4</ele><time>2026-04-21T16:15:23.666Z</time></trkpt><trkpt lat="44.672635" lon="9.2396083"><ele>1059.0</ele><time>2026-04-21T16:15:24.665Z</time></trkpt><trkpt lat="44.6726867" lon="9.2395233"><ele>1059.0</ele><time>2026-04-21T16:15:25.666Z</time></trkpt><trkpt lat="44.6727067" lon="9.2394167"><ele>1059.0</ele><time>2026-04-21T16:15:26.666Z</time></trkpt><trkpt lat="44.6726983" lon="9.2393083"><ele>1059.0</ele><time>2026-04-21T16:15:27.666Z</time></trkpt><trkpt lat="44.672695" lon="9.2391983"><ele>1059.0</ele><time>2026-04-21T16:15:28.665Z</time></trkpt><trkpt lat="44.6727117" lon="9.239105"><ele>1059.0</ele><time>2026-04-21T16:15:29.666Z</time></trkpt><trkpt lat="44.672745" lon="9.239005"><ele>1059.0</ele><time>2026-04-21T16:15:30.666Z</time></trkpt><trkpt lat="44.67281" lon="9.2389067"><ele>1063.0</ele><time>2026-04-21T16:15:31.665Z</time></trkpt><trkpt lat="44.6728933" lon="9.2387967"><ele>1067.0</ele><time>2026-04-21T16:15:32.665Z</time></trkpt><trkpt lat="44.67296" lon="9.238685"><ele>1071.0</ele><time>2026-04-21T16:15:33.665Z</time></trkpt><trkpt lat="44.673" lon="9.238585"><ele>1075.0</ele><time>2026-04-21T16:15:34.665Z</time></trkpt><trkpt lat="44.6730333" lon="9.238505"><ele>1079.0</ele><time>2026-04-21T16:15:35.665Z</time></trkpt><trkpt lat="44.6731217" lon="9.2383917"><ele>1079.0</ele><time>2026-04-21T16:15:37.666Z</time></trkpt><trkpt lat="44.6732" lon="9.2383583"><ele>1079.0</ele><time>2026-04-21T16:15:38.666Z</time></trkpt><trkpt lat="44.67328" lon="9.2383283"><ele>1079.0</ele><time>2026-04-21T16:15:39.666Z</time></trkpt><trkpt lat="44.6733783" lon="9.23827"><ele>1079.0</ele><time>2026-04-21T16:15:40.665Z</time></trkpt><trkpt lat="44.673485" lon="9.2381917"><ele>1079.0</ele><time>2026-04-21T16:15:41.665Z</time></trkpt><trkpt lat="44.6735883" lon="9.2380917"><ele>1079.8</ele><time>2026-04-21T16:15:42.666Z</time></trkpt><trkpt lat="44.6736917" lon="9.2379883"><ele>1080.6000000000001</ele><time>2026-04-21T16:15:43.665Z</time></trkpt><trkpt lat="44.6737917" lon="9.2378983"><ele>1081.4</ele><time>2026-04-21T16:15:44.665Z</time></trkpt><trkpt lat="44.673885" lon="9.2378283"><ele>1082.2</ele><time>2026-04-21T16:15:45.665Z</time></trkpt><trkpt lat="44.6739717" lon="9.2377767"><ele>1083.0</ele><time>2026-04-21T16:15:46.666Z</time></trkpt><trkpt lat="44.6740467" lon="9.2377467"><ele>1083.0</ele><time>2026-04-21T16:15:47.666Z</time></trkpt><trkpt lat="44.67411" lon="9.23772"><ele>1083.0</ele><time>2026-04-21T16:15:48.665Z</time></trkpt><trkpt lat="44.674175" lon="9.237625"><ele>1083.0</ele><time>2026-04-21T16:15:50.665Z</time></trkpt><trkpt lat="44.6741867" lon="9.237525"><ele>1083.0</ele><time>2026-04-21T16:15:51.666Z</time></trkpt><trkpt lat="44.6742083" lon="9.237385"><ele>1083.0</ele><time>2026-04-21T16:15:52.665Z</time></trkpt><trkpt lat="44.674235" lon="9.23725"><ele>1083.0</ele><time>2026-04-21T16:15:53.666Z</time></trkpt><trkpt lat="44.6742667" lon="9.237135"><ele>1085.2</ele><time>2026-04-21T16:15:54.665Z</time></trkpt><trkpt lat="44.6742967" lon="9.237035"><ele>1087.4</ele><time>2026-04-21T16:15:55.665Z</time></trkpt><trkpt lat="44.6743983" lon="9.236935"><ele>1089.6000000000001</ele><time>2026-04-21T16:15:57.665Z</time></trkpt><trkpt lat="44.6744767" lon="9.23692"><ele>1091.8</ele><time>2026-04-21T16:15:58.665Z</time></trkpt><trkpt lat="44.6745583" lon="9.23692"><ele>1094.0</ele><time>2026-04-21T16:15:59.665Z</time></trkpt><trkpt lat="44.6746467" lon="9.236935"><ele>1094.0</ele><time>2026-04-21T16:16:00.665Z</time></trkpt><trkpt lat="44.6747167" lon="9.2369217"><ele>1094.0</ele><time>2026-04-21T16:16:01.665Z</time></trkpt><trkpt lat="44.674775" lon="9.2368783"><ele>1094.0</ele><time>2026-04-21T16:16:02.665Z</time></trkpt><trkpt lat="44.6748367" lon="9.2368217"><ele>1094.0</ele><time>2026-04-21T16:16:03.666Z</time></trkpt><trkpt lat="44.6748867" lon="9.23674"><ele>1094.0</ele><time>2026-04-21T16:16:04.665Z</time></trkpt><trkpt lat="44.6749267" lon="9.2366333"><ele>1094.0</ele><time>2026-04-21T16:16:05.665Z</time></trkpt><trkpt lat="44.6749783" lon="9.236525"><ele>1088.4</ele><time>2026-04-21T16:16:06.665Z</time></trkpt><trkpt lat="44.67505" lon="9.2364233"><ele>1082.8000000000002</ele><time>2026-04-21T16:16:07.665Z</time></trkpt><trkpt lat="44.6751133" lon="9.236325"><ele>1077.1999999999998</ele><time>2026-04-21T16:16:08.665Z</time></trkpt><trkpt lat="44.6751767" lon="9.23622"><ele>1071.6</ele><time>2026-04-21T16:16:09.665Z</time></trkpt><trkpt lat="44.6752233" lon="9.2360783"><ele>1066.0</ele><time>2026-04-21T16:16:10.665Z</time></trkpt><trkpt lat="44.6752717" lon="9.23593"><ele>1070.0</ele><time>2026-04-21T16:16:11.665Z</time></trkpt><trkpt lat="44.675315" lon="9.235785"><ele>1074.0</ele><time>2026-04-21T16:16:12.665Z</time></trkpt><trkpt lat="44.6753667" lon="9.2356917"><ele>1078.0</ele><time>2026-04-21T16:16:13.666Z</time></trkpt><trkpt lat="44.6754167" lon="9.2356283"><ele>1082.0</ele><time>2026-04-21T16:16:14.666Z</time></trkpt><trkpt lat="44.675485" lon="9.23559"><ele>1086.0</ele><time>2026-04-21T16:16:15.665Z</time></trkpt><trkpt lat="44.6755583" lon="9.2355483"><ele>1090.0</ele><time>2026-04-21T16:16:16.666Z</time></trkpt><trkpt lat="44.675635" lon="9.2354967"><ele>1090.0</ele><time>2026-04-21T16:16:17.665Z</time></trkpt><trkpt lat="44.675695" lon="9.235415"><ele>1090.0</ele><time>2026-04-21T16:16:18.666Z</time></trkpt><trkpt lat="44.6757433" lon="9.235325"><ele>1090.0</ele><time>2026-04-21T16:16:19.666Z</time></trkpt><trkpt lat="44.6758" lon="9.2352483"><ele>1090.0</ele><time>2026-04-21T16:16:20.665Z</time></trkpt><trkpt lat="44.67587" lon="9.235185"><ele>1090.0</ele><time>2026-04-21T16:16:21.665Z</time></trkpt><trkpt lat="44.6759533" lon="9.2351133"><ele>1090.0</ele><time>2026-04-21T16:16:22.665Z</time></trkpt><trkpt lat="44.6760483" lon="9.235035"><ele>1091.5</ele><time>2026-04-21T16:16:23.665Z</time></trkpt><trkpt lat="44.6761517" lon="9.23494"><ele>1093.0</ele><time>2026-04-21T16:16:24.666Z</time></trkpt><trkpt lat="44.6762633" lon="9.2348333"><ele>1094.5</ele><time>2026-04-21T16:16:25.665Z</time></trkpt><trkpt lat="44.6763667" lon="9.234715"><ele>1096.0</ele><time>2026-04-21T16:16:26.666Z</time></trkpt><trkpt lat="44.676465" lon="9.2346083"><ele>1096.0</ele><time>2026-04-21T16:16:27.666Z</time></trkpt><trkpt lat="44.6765617" lon="9.2345333"><ele>1096.0</ele><time>2026-04-21T16:16:28.665Z</time></trkpt><trkpt lat="44.6766567" lon="9.2344433"><ele>1096.0</ele><time>2026-04-21T16:16:29.666Z</time></trkpt><trkpt lat="44.67674" lon="9.2343383"><ele>1096.0</ele><time>2026-04-21T16:16:30.666Z</time></trkpt><trkpt lat="44.676815" lon="9.2342167"><ele>1096.0</ele><time>2026-04-21T16:16:31.665Z</time></trkpt><trkpt lat="44.6768817" lon="9.234095"><ele>1096.0</ele><time>2026-04-21T16:16:32.665Z</time></trkpt><trkpt lat="44.67694" lon="9.2339917"><ele>1096.0</ele><time>2026-04-21T16:16:33.665Z</time></trkpt><trkpt lat="44.6769917" lon="9.233915"><ele>1096.0</ele><time>2026-04-21T16:16:34.665Z</time></trkpt><trkpt lat="44.6770467" lon="9.233865"><ele>1096.0</ele><time>2026-04-21T16:16:35.665Z</time></trkpt><trkpt lat="44.6771417" lon="9.233875"><ele>1096.0</ele><time>2026-04-21T16:16:37.665Z</time></trkpt><trkpt lat="44.677245" lon="9.2340017"><ele>1097.8</ele><time>2026-04-21T16:16:39.666Z</time></trkpt><trkpt lat="44.6773" lon="9.2340983"><ele>1099.6</ele><time>2026-04-21T16:16:40.666Z</time></trkpt><trkpt lat="44.6773733" lon="9.2342133"><ele>1101.4</ele><time>2026-04-21T16:16:41.666Z</time></trkpt><trkpt lat="44.6774567" lon="9.2343033"><ele>1103.2</ele><time>2026-04-21T16:16:42.665Z</time></trkpt><trkpt lat="44.67755" lon="9.2343483"><ele>1105.0</ele><time>2026-04-21T16:16:43.665Z</time></trkpt><trkpt lat="44.677665" lon="9.2343417"><ele>1109.25</ele><time>2026-04-21T16:16:44.665Z</time></trkpt><trkpt lat="44.6777867" lon="9.2343233"><ele>1113.5</ele><time>2026-04-21T16:16:45.665Z</time></trkpt><trkpt lat="44.67791" lon="9.2342867"><ele>1117.75</ele><time>2026-04-21T16:16:46.666Z</time></trkpt><trkpt lat="44.6780167" lon="9.23424"><ele>1122.0</ele><time>2026-04-21T16:16:47.666Z</time></trkpt><trkpt lat="44.6781067" lon="9.2341867"><ele>1122.0</ele><time>2026-04-21T16:16:48.666Z</time></trkpt><trkpt lat="44.6781867" lon="9.23411"><ele>1122.0</ele><time>2026-04-21T16:16:49.666Z</time></trkpt><trkpt lat="44.6782483" lon="9.2340183"><ele>1122.0</ele><time>2026-04-21T16:16:50.665Z</time></trkpt><trkpt lat="44.6782917" lon="9.233925"><ele>1122.0</ele><time>2026-04-21T16:16:51.666Z</time></trkpt><trkpt lat="44.67833" lon="9.2338"><ele>1122.0</ele><time>2026-04-21T16:16:52.665Z</time></trkpt><trkpt lat="44.67836" lon="9.2336667"><ele>1117.3333333333333</ele><time>2026-04-21T16:16:53.665Z</time></trkpt><trkpt lat="44.6783767" lon="9.2335233"><ele>1112.6666666666667</ele><time>2026-04-21T16:16:54.665Z</time></trkpt><trkpt lat="44.6783883" lon="9.2334033"><ele>1108.0</ele><time>2026-04-21T16:16:55.665Z</time></trkpt><trkpt lat="44.6783933" lon="9.23328"><ele>1103.3333333333335</ele><time>2026-04-21T16:16:56.666Z</time></trkpt><trkpt lat="44.6784317" lon="9.23319"><ele>1098.6666666666667</ele><time>2026-04-21T16:16:57.665Z</time></trkpt><trkpt lat="44.67849" lon="9.2331233"><ele>1094.0</ele><time>2026-04-21T16:16:58.666Z</time></trkpt><trkpt lat="44.6785733" lon="9.2330733"><ele>1093.0</ele><time>2026-04-21T16:16:59.666Z</time></trkpt><trkpt lat="44.678675" lon="9.2330283"><ele>1092.0</ele><time>2026-04-21T16:17:00.665Z</time></trkpt><trkpt lat="44.67879" lon="9.232975"><ele>1091.0</ele><time>2026-04-21T16:17:01.665Z</time></trkpt><trkpt lat="44.6789067" lon="9.2329017"><ele>1090.0</ele><time>2026-04-21T16:17:02.665Z</time></trkpt><trkpt lat="44.6790233" lon="9.2328233"><ele>1090.0</ele><time>2026-04-21T16:17:03.666Z</time></trkpt><trkpt lat="44.67913" lon="9.2327417"><ele>1090.0</ele><time>2026-04-21T16:17:04.665Z</time></trkpt><trkpt lat="44.67924" lon="9.232695"><ele>1090.0</ele><time>2026-04-21T16:17:05.666Z</time></trkpt><trkpt lat="44.67935" lon="9.232665"><ele>1090.0</ele><time>2026-04-21T16:17:06.665Z</time></trkpt><trkpt lat="44.6794417" lon="9.232635"><ele>1090.0</ele><time>2026-04-21T16:17:07.665Z</time></trkpt><trkpt lat="44.6795217" lon="9.2325767"><ele>1091.0</ele><time>2026-04-21T16:17:08.666Z</time></trkpt><trkpt lat="44.6795867" lon="9.2325"><ele>1092.0</ele><time>2026-04-21T16:17:09.665Z</time></trkpt><trkpt lat="44.67965" lon="9.2323983"><ele>1093.0</ele><time>2026-04-21T16:17:10.666Z</time></trkpt><trkpt lat="44.6797133" lon="9.232295"><ele>1094.0</ele><time>2026-04-21T16:17:11.666Z</time></trkpt><trkpt lat="44.67978" lon="9.2322117"><ele>1095.0</ele><time>2026-04-21T16:17:12.666Z</time></trkpt><trkpt lat="44.679855" lon="9.23215"><ele>1095.0</ele><time>2026-04-21T16:17:13.666Z</time></trkpt><trkpt lat="44.6799367" lon="9.232095"><ele>1095.0</ele><time>2026-04-21T16:17:14.665Z</time></trkpt><trkpt lat="44.6800283" lon="9.2320267"><ele>1095.0</ele><time>2026-04-21T16:17:15.666Z</time></trkpt><trkpt lat="44.68012" lon="9.231935"><ele>1095.0</ele><time>2026-04-21T16:17:16.666Z</time></trkpt><trkpt lat="44.6802033" lon="9.2318133"><ele>1095.0</ele><time>2026-04-21T16:17:17.666Z</time></trkpt><trkpt lat="44.6802767" lon="9.2316767"><ele>1102.2</ele><time>2026-04-21T16:17:18.665Z</time></trkpt><trkpt lat="44.6803417" lon="9.2315283"><ele>1109.4</ele><time>2026-04-21T16:17:19.666Z</time></trkpt><trkpt lat="44.6803667" lon="9.2314167"><ele>1116.6</ele><time>2026-04-21T16:17:20.665Z</time></trkpt><trkpt lat="44.680375" lon="9.231295"><ele>1123.8</ele><time>2026-04-21T16:17:21.666Z</time></trkpt><trkpt lat="44.6803567" lon="9.2311883"><ele>1131.0</ele><time>2026-04-21T16:17:22.665Z</time></trkpt><trkpt lat="44.6803133" lon="9.2310883"><ele>1131.0</ele><time>2026-04-21T16:17:23.665Z</time></trkpt><trkpt lat="44.6802483" lon="9.231"><ele>1131.0</ele><time>2026-04-21T16:17:24.665Z</time></trkpt><trkpt lat="44.6802067" lon="9.2309317"><ele>1131.0</ele><time>2026-04-21T16:17:25.665Z</time></trkpt><trkpt lat="44.680205" lon="9.2307883"><ele>1131.0</ele><time>2026-04-21T16:17:27.665Z</time></trkpt><trkpt lat="44.6802983" lon="9.2306467"><ele>1131.0</ele><time>2026-04-21T16:17:29.665Z</time></trkpt><trkpt lat="44.6803667" lon="9.2305567"><ele>1128.75</ele><time>2026-04-21T16:17:30.666Z</time></trkpt><trkpt lat="44.6804317" lon="9.2304517"><ele>1126.5</ele><time>2026-04-21T16:17:31.666Z</time></trkpt><trkpt lat="44.6804883" lon="9.2303167"><ele>1124.25</ele><time>2026-04-21T16:17:32.665Z</time></trkpt><trkpt lat="44.6805333" lon="9.2301617"><ele>1122.0</ele><time>2026-04-21T16:17:33.665Z</time></trkpt><trkpt lat="44.6805817" lon="9.2300067"><ele>1122.0</ele><time>2026-04-21T16:17:34.666Z</time></trkpt><trkpt lat="44.680615" lon="9.229875"><ele>1122.0</ele><time>2026-04-21T16:17:35.666Z</time></trkpt><trkpt lat="44.6806367" lon="9.229755"><ele>1122.0</ele><time>2026-04-21T16:17:36.665Z</time></trkpt><trkpt lat="44.6806333" lon="9.2296517"><ele>1122.0</ele><time>2026-04-21T16:17:37.666Z</time></trkpt><trkpt lat="44.6806133" lon="9.2295567"><ele>1122.0</ele><time>2026-04-21T16:17:38.666Z</time></trkpt><trkpt lat="44.6805767" lon="9.22948"><ele>1122.0</ele><time>2026-04-21T16:17:39.666Z</time></trkpt><trkpt lat="44.680505" lon="9.2294367"><ele>1122.2</ele><time>2026-04-21T16:17:40.665Z</time></trkpt><trkpt lat="44.6804" lon="9.2294367"><ele>1122.4</ele><time>2026-04-21T16:17:41.665Z</time></trkpt><trkpt lat="44.6802867" lon="9.2294233"><ele>1122.6</ele><time>2026-04-21T16:17:42.665Z</time></trkpt><trkpt lat="44.680185" lon="9.2294183"><ele>1122.8</ele><time>2026-04-21T16:17:43.666Z</time></trkpt><trkpt lat="44.6800683" lon="9.229445"><ele>1123.0</ele><time>2026-04-21T16:17:44.665Z</time></trkpt><trkpt lat="44.679965" lon="9.2294633"><ele>1123.0</ele><time>2026-04-21T16:17:45.666Z</time></trkpt><trkpt lat="44.6798633" lon="9.2294767"><ele>1123.0</ele><time>2026-04-21T16:17:46.665Z</time></trkpt><trkpt lat="44.6797667" lon="9.2294767"><ele>1123.0</ele><time>2026-04-21T16:17:47.665Z</time></trkpt><trkpt lat="44.679665" lon="9.22943"><ele>1123.0</ele><time>2026-04-21T16:17:48.665Z</time></trkpt><trkpt lat="44.6795617" lon="9.229375"><ele>1123.0</ele><time>2026-04-21T16:17:49.665Z</time></trkpt><trkpt lat="44.67945" lon="9.229325"><ele>1121.0</ele><time>2026-04-21T16:17:50.665Z</time></trkpt><trkpt lat="44.6793333" lon="9.2292733"><ele>1119.0</ele><time>2026-04-21T16:17:51.665Z</time></trkpt><trkpt lat="44.679215" lon="9.2292267"><ele>1117.0</ele><time>2026-04-21T16:17:52.666Z</time></trkpt><trkpt lat="44.6791117" lon="9.2291933"><ele>1115.0</ele><time>2026-04-21T16:17:53.666Z</time></trkpt><trkpt lat="44.6790267" lon="9.2291683"><ele>1113.0</ele><time>2026-04-21T16:17:54.666Z</time></trkpt><trkpt lat="44.6789533" lon="9.2291317"><ele>1113.0</ele><time>2026-04-21T16:17:55.665Z</time></trkpt><trkpt lat="44.678875" lon="9.2290733"><ele>1113.0</ele><time>2026-04-21T16:17:56.665Z</time></trkpt><trkpt lat="44.6787883" lon="9.2289917"><ele>1113.0</ele><time>2026-04-21T16:17:57.665Z</time></trkpt><trkpt lat="44.678685" lon="9.228925"><ele>1113.0</ele><time>2026-04-21T16:17:58.665Z</time></trkpt><trkpt lat="44.67858" lon="9.2288733"><ele>1113.0</ele><time>2026-04-21T16:17:59.666Z</time></trkpt><trkpt lat="44.6784683" lon="9.2288617"><ele>1119.6666666666667</ele><time>2026-04-21T16:18:00.665Z</time></trkpt><trkpt lat="44.678365" lon="9.2288817"><ele>1126.3333333333333</ele><time>2026-04-21T16:18:01.665Z</time></trkpt><trkpt lat="44.6782767" lon="9.2288967"><ele>1133.0</ele><time>2026-04-21T16:18:02.665Z</time></trkpt><trkpt lat="44.6782083" lon="9.2288967"><ele>1139.6666666666665</ele><time>2026-04-21T16:18:03.666Z</time></trkpt><trkpt lat="44.6781417" lon="9.22885"><ele>1146.3333333333333</ele><time>2026-04-21T16:18:04.666Z</time></trkpt><trkpt lat="44.6780833" lon="9.2287883"><ele>1153.0</ele><time>2026-04-21T16:18:05.666Z</time></trkpt><trkpt lat="44.678025" lon="9.2286967"><ele>1153.0</ele><time>2026-04-21T16:18:06.665Z</time></trkpt><trkpt lat="44.677965" lon="9.2285917"><ele>1153.0</ele><time>2026-04-21T16:18:07.666Z</time></trkpt><trkpt lat="44.6779133" lon="9.228465"><ele>1153.0</ele><time>2026-04-21T16:18:08.666Z</time></trkpt><trkpt lat="44.67787" lon="9.2283267"><ele>1153.0</ele><time>2026-04-21T16:18:09.666Z</time></trkpt><trkpt lat="44.6778217" lon="9.2281933"><ele>1153.0</ele><time>2026-04-21T16:18:10.666Z</time></trkpt><trkpt lat="44.67775" lon="9.2281017"><ele>1155.4</ele><time>2026-04-21T16:18:11.666Z</time></trkpt><trkpt lat="44.6776767" lon="9.2280433"><ele>1157.8</ele><time>2026-04-21T16:18:12.665Z</time></trkpt><trkpt lat="44.6775817" lon="9.22801"><ele>1160.2</ele><time>2026-04-21T16:18:13.666Z</time></trkpt><trkpt lat="44.677485" lon="9.2279633"><ele>1162.6</ele><time>2026-04-21T16:18:14.666Z</time></trkpt><trkpt lat="44.6773917" lon="9.22789"><ele>1165.0</ele><time>2026-04-21T16:18:15.666Z</time></trkpt><trkpt lat="44.6772883" lon="9.2278133"><ele>1165.0</ele><time>2026-04-21T16:18:16.666Z</time></trkpt><trkpt lat="44.6771833" lon="9.2277433"><ele>1165.0</ele><time>2026-04-21T16:18:17.665Z</time></trkpt><trkpt lat="44.6770883" lon="9.2276683"><ele>1165.0</ele><time>2026-04-21T16:18:18.665Z</time></trkpt><trkpt lat="44.67702" lon="9.227595"><ele>1165.0</ele><time>2026-04-21T16:18:19.665Z</time></trkpt><trkpt lat="44.676975" lon="9.2275083"><ele>1165.0</ele><time>2026-04-21T16:18:20.665Z</time></trkpt><trkpt lat="44.6769567" lon="9.2273917"><ele>1168.4</ele><time>2026-04-21T16:18:21.665Z</time></trkpt><trkpt lat="44.6769583" lon="9.2272567"><ele>1171.8</ele><time>2026-04-21T16:18:22.666Z</time></trkpt><trkpt lat="44.6769617" lon="9.22712"><ele>1175.2</ele><time>2026-04-21T16:18:23.666Z</time></trkpt><trkpt lat="44.6769633" lon="9.2269967"><ele>1178.6</ele><time>2026-04-21T16:18:24.665Z</time></trkpt><trkpt lat="44.6769617" lon="9.22688"><ele>1182.0</ele><time>2026-04-21T16:18:25.666Z</time></trkpt><trkpt lat="44.676965" lon="9.2267433"><ele>1182.0</ele><time>2026-04-21T16:18:26.665Z</time></trkpt><trkpt lat="44.676985" lon="9.2266167"><ele>1182.0</ele><time>2026-04-21T16:18:27.665Z</time></trkpt><trkpt lat="44.6770033" lon="9.2264917"><ele>1182.0</ele><time>2026-04-21T16:18:28.666Z</time></trkpt><trkpt lat="44.67702" lon="9.2263567"><ele>1182.0</ele><time>2026-04-21T16:18:29.665Z</time></trkpt><trkpt lat="44.6770283" lon="9.22623"><ele>1182.0</ele><time>2026-04-21T16:18:30.666Z</time></trkpt><trkpt lat="44.6770433" lon="9.2261183"><ele>1180.2</ele><time>2026-04-21T16:18:31.665Z</time></trkpt><trkpt lat="44.6770733" lon="9.226005"><ele>1178.4</ele><time>2026-04-21T16:18:32.666Z</time></trkpt><trkpt lat="44.677115" lon="9.2258867"><ele>1176.6</ele><time>2026-04-21T16:18:33.665Z</time></trkpt><trkpt lat="44.6771583" lon="9.2257567"><ele>1174.8</ele><time>2026-04-21T16:18:34.665Z</time></trkpt><trkpt lat="44.677205" lon="9.2256167"><ele>1173.0</ele><time>2026-04-21T16:18:35.666Z</time></trkpt><trkpt lat="44.6772517" lon="9.22546"><ele>1169.25</ele><time>2026-04-21T16:18:36.666Z</time></trkpt><trkpt lat="44.67731" lon="9.22529"><ele>1165.5</ele><time>2026-04-21T16:18:37.665Z</time></trkpt><trkpt lat="44.6773667" lon="9.22512"><ele>1161.75</ele><time>2026-04-21T16:18:38.666Z</time></trkpt><trkpt lat="44.677415" lon="9.224955"><ele>1158.0</ele><time>2026-04-21T16:18:39.666Z</time></trkpt><trkpt lat="44.67746" lon="9.2248167"><ele>1155.0</ele><time>2026-04-21T16:18:40.665Z</time></trkpt><trkpt lat="44.6775083" lon="9.2246733"><ele>1152.0</ele><time>2026-04-21T16:18:41.665Z</time></trkpt><trkpt lat="44.677555" lon="9.2245217"><ele>1149.0</ele><time>2026-04-21T16:18:42.665Z</time></trkpt><trkpt lat="44.6776067" lon="9.224365"><ele>1146.0</ele><time>2026-04-21T16:18:43.665Z</time></trkpt><trkpt lat="44.6776683" lon="9.2242017"><ele>1146.0</ele><time>2026-04-21T16:18:44.666Z</time></trkpt><trkpt lat="44.6777383" lon="9.2240417"><ele>1146.0</ele><time>2026-04-21T16:18:45.666Z</time></trkpt><trkpt lat="44.6778117" lon="9.22388"><ele>1146.0</ele><time>2026-04-21T16:18:46.666Z</time></trkpt><trkpt lat="44.6778817" lon="9.22372"><ele>1146.0</ele><time>2026-04-21T16:18:47.665Z</time></trkpt><trkpt lat="44.677945" lon="9.22356"><ele>1149.0</ele><time>2026-04-21T16:18:48.665Z</time></trkpt><trkpt lat="44.6780033" lon="9.223405"><ele>1152.0</ele><time>2026-04-21T16:18:49.665Z</time></trkpt><trkpt lat="44.678055" lon="9.2232483"><ele>1155.0</ele><time>2026-04-21T16:18:50.665Z</time></trkpt><trkpt lat="44.6781083" lon="9.2230783"><ele>1158.0</ele><time>2026-04-21T16:18:51.666Z</time></trkpt><trkpt lat="44.6781533" lon="9.2228917"><ele>1158.0</ele><time>2026-04-21T16:18:52.666Z</time></trkpt><trkpt lat="44.6781967" lon="9.2227167"><ele>1158.0</ele><time>2026-04-21T16:18:53.665Z</time></trkpt><trkpt lat="44.6782367" lon="9.2225533"><ele>1158.0</ele><time>2026-04-21T16:18:54.666Z</time></trkpt><trkpt lat="44.67826" lon="9.2223817"><ele>1158.0</ele><time>2026-04-21T16:18:55.665Z</time></trkpt><trkpt lat="44.6782883" lon="9.2222183"><ele>1158.75</ele><time>2026-04-21T16:18:56.666Z</time></trkpt><trkpt lat="44.67832" lon="9.22204"><ele>1159.5</ele><time>2026-04-21T16:18:57.665Z</time></trkpt><trkpt lat="44.6783583" lon="9.22186"><ele>1160.25</ele><time>2026-04-21T16:18:58.665Z</time></trkpt><trkpt lat="44.6783883" lon="9.2217033"><ele>1161.0</ele><time>2026-04-21T16:18:59.665Z</time></trkpt><trkpt lat="44.678415" lon="9.2215583"><ele>1160.6</ele><time>2026-04-21T16:19:00.666Z</time></trkpt><trkpt lat="44.6784433" lon="9.2214233"><ele>1160.1999999999998</ele><time>2026-04-21T16:19:01.665Z</time></trkpt><trkpt lat="44.6784767" lon="9.2213017"><ele>1159.8000000000002</ele><time>2026-04-21T16:19:02.666Z</time></trkpt><trkpt lat="44.67853" lon="9.2211967"><ele>1159.4</ele><time>2026-04-21T16:19:03.666Z</time></trkpt><trkpt lat="44.6785933" lon="9.2211167"><ele>1159.0</ele><time>2026-04-21T16:19:04.665Z</time></trkpt><trkpt lat="44.6786767" lon="9.2210567"><ele>1161.8</ele><time>2026-04-21T16:19:05.666Z</time></trkpt><trkpt lat="44.6787717" lon="9.221"><ele>1164.6000000000001</ele><time>2026-04-21T16:19:06.666Z</time></trkpt><trkpt lat="44.6788667" lon="9.22094"><ele>1167.4</ele><time>2026-04-21T16:19:07.666Z</time></trkpt><trkpt lat="44.67895" lon="9.2208733"><ele>1170.2</ele><time>2026-04-21T16:19:08.666Z</time></trkpt><trkpt lat="44.6790133" lon="9.2208083"><ele>1173.0</ele><time>2026-04-21T16:19:09.666Z</time></trkpt><trkpt lat="44.6790633" lon="9.220725"><ele>1173.5</ele><time>2026-04-21T16:19:10.666Z</time></trkpt><trkpt lat="44.6791017" lon="9.2206133"><ele>1174.0</ele><time>2026-04-21T16:19:11.665Z</time></trkpt><trkpt lat="44.6791367" lon="9.2204883"><ele>1174.5</ele><time>2026-04-21T16:19:12.665Z</time></trkpt><trkpt lat="44.679175" lon="9.2203933"><ele>1175.0</ele><time>2026-04-21T16:19:13.665Z</time></trkpt><trkpt lat="44.6792217" lon="9.2203167"><ele>1175.5</ele><time>2026-04-21T16:19:14.666Z</time></trkpt><trkpt lat="44.6792683" lon="9.2202567"><ele>1176.0</ele><time>2026-04-21T16:19:15.667Z</time></trkpt><trkpt lat="44.67933" lon="9.2202217"><ele>1181.6</ele><time>2026-04-21T16:19:16.667Z</time></trkpt><trkpt lat="44.679455" lon="9.2202167"><ele>1187.1999999999998</ele><time>2026-04-21T16:19:18.666Z</time></trkpt><trkpt lat="44.6795317" lon="9.2202367"><ele>1192.8000000000002</ele><time>2026-04-21T16:19:19.667Z</time></trkpt><trkpt lat="44.6796217" lon="9.2202633"><ele>1198.4</ele><time>2026-04-21T16:19:20.667Z</time></trkpt><trkpt lat="44.679715" lon="9.2202783"><ele>1204.0</ele><time>2026-04-21T16:19:21.667Z</time></trkpt><trkpt lat="44.6798083" lon="9.220265"><ele>1204.0</ele><time>2026-04-21T16:19:22.667Z</time></trkpt><trkpt lat="44.6799" lon="9.22026"><ele>1204.0</ele><time>2026-04-21T16:19:23.667Z</time></trkpt><trkpt lat="44.6799683" lon="9.22029"><ele>1204.0</ele><time>2026-04-21T16:19:24.666Z</time></trkpt><trkpt lat="44.6800533" lon="9.2204317"><ele>1204.0</ele><time>2026-04-21T16:19:26.666Z</time></trkpt><trkpt lat="44.6800633" lon="9.2205483"><ele>1204.0</ele><time>2026-04-21T16:19:27.667Z</time></trkpt><trkpt lat="44.6800567" lon="9.2206883"><ele>1201.0</ele><time>2026-04-21T16:19:28.666Z</time></trkpt><trkpt lat="44.68004" lon="9.2208617"><ele>1198.0</ele><time>2026-04-21T16:19:29.667Z</time></trkpt><trkpt lat="44.6800317" lon="9.221035"><ele>1195.0</ele><time>2026-04-21T16:19:30.666Z</time></trkpt><trkpt lat="44.6800433" lon="9.2212133"><ele>1192.0</ele><time>2026-04-21T16:19:31.666Z</time></trkpt><trkpt lat="44.6800567" lon="9.221395"><ele>1192.75</ele><time>2026-04-21T16:19:32.667Z</time></trkpt><trkpt lat="44.6800517" lon="9.2215683"><ele>1193.5</ele><time>2026-04-21T16:19:33.666Z</time></trkpt><trkpt lat="44.6800083" lon="9.2217233"><ele>1194.25</ele><time>2026-04-21T16:19:34.667Z</time></trkpt><trkpt lat="44.6799417" lon="9.2218633"><ele>1195.0</ele><time>2026-04-21T16:19:35.667Z</time></trkpt><trkpt lat="44.6798683" lon="9.2219783"><ele>1195.0</ele><time>2026-04-21T16:19:36.666Z</time></trkpt><trkpt lat="44.6798217" lon="9.2220933"><ele>1195.0</ele><time>2026-04-21T16:19:37.667Z</time></trkpt><trkpt lat="44.6798067" lon="9.22223"><ele>1195.0</ele><time>2026-04-21T16:19:38.667Z</time></trkpt><trkpt lat="44.6798117" lon="9.2223833"><ele>1195.0</ele><time>2026-04-21T16:19:39.667Z</time></trkpt><trkpt lat="44.679815" lon="9.22253"><ele>1195.0</ele><time>2026-04-21T16:19:40.667Z</time></trkpt><trkpt lat="44.6798133" lon="9.22267"><ele>1197.2</ele><time>2026-04-21T16:19:41.667Z</time></trkpt><trkpt lat="44.6797883" lon="9.22279"><ele>1199.4</ele><time>2026-04-21T16:19:42.666Z</time></trkpt><trkpt lat="44.6797367" lon="9.22288"><ele>1201.6</ele><time>2026-04-21T16:19:43.666Z</time></trkpt><trkpt lat="44.6796717" lon="9.222965"><ele>1203.8</ele><time>2026-04-21T16:19:44.666Z</time></trkpt><trkpt lat="44.6795933" lon="9.223065"><ele>1206.0</ele><time>2026-04-21T16:19:45.666Z</time></trkpt><trkpt lat="44.6795167" lon="9.2231733"><ele>1204.0</ele><time>2026-04-21T16:19:46.667Z</time></trkpt><trkpt lat="44.6794383" lon="9.2232933"><ele>1202.0</ele><time>2026-04-21T16:19:47.666Z</time></trkpt><trkpt lat="44.67936" lon="9.2233933"><ele>1200.0</ele><time>2026-04-21T16:19:48.667Z</time></trkpt><trkpt lat="44.6792883" lon="9.2234617"><ele>1198.0</ele><time>2026-04-21T16:19:49.667Z</time></trkpt><trkpt lat="44.6792217" lon="9.2235367"><ele>1196.0</ele><time>2026-04-21T16:19:50.666Z</time></trkpt><trkpt lat="44.6791617" lon="9.2236167"><ele>1196.0</ele><time>2026-04-21T16:19:51.666Z</time></trkpt><trkpt lat="44.6791" lon="9.22373"><ele>1196.0</ele><time>2026-04-21T16:19:52.667Z</time></trkpt><trkpt lat="44.6790433" lon="9.22387"><ele>1196.0</ele><time>2026-04-21T16:19:53.666Z</time></trkpt><trkpt lat="44.6789983" lon="9.224025"><ele>1196.0</ele><time>2026-04-21T16:19:54.666Z</time></trkpt><trkpt lat="44.6789567" lon="9.2241817"><ele>1201.75</ele><time>2026-04-21T16:19:55.666Z</time></trkpt><trkpt lat="44.67894" lon="9.22436"><ele>1207.5</ele><time>2026-04-21T16:19:56.667Z</time></trkpt><trkpt lat="44.678855" lon="9.2245117"><ele>1213.25</ele><time>2026-04-21T16:19:57.666Z</time></trkpt><trkpt lat="44.6787833" lon="9.2246517"><ele>1219.0</ele><time>2026-04-21T16:19:58.666Z</time></trkpt><trkpt lat="44.6787367" lon="9.224775"><ele>1222.2</ele><time>2026-04-21T16:19:59.666Z</time></trkpt><trkpt lat="44.6786917" lon="9.2249067"><ele>1225.4</ele><time>2026-04-21T16:20:00.666Z</time></trkpt><trkpt lat="44.6786617" lon="9.2250417"><ele>1228.6</ele><time>2026-04-21T16:20:01.666Z</time></trkpt><trkpt lat="44.678635" lon="9.2251983"><ele>1231.8</ele><time>2026-04-21T16:20:02.667Z</time></trkpt><trkpt lat="44.6786033" lon="9.225365"><ele>1235.0</ele><time>2026-04-21T16:20:03.666Z</time></trkpt><trkpt lat="44.6785583" lon="9.2255567"><ele>1228.75</ele><time>2026-04-21T16:20:04.666Z</time></trkpt><trkpt lat="44.6785133" lon="9.225735"><ele>1222.5</ele><time>2026-04-21T16:20:05.666Z</time></trkpt><trkpt lat="44.6784733" lon="9.22591"><ele>1216.25</ele><time>2026-04-21T16:20:06.667Z</time></trkpt><trkpt lat="44.67844" lon="9.2260717"><ele>1210.0</ele><time>2026-04-21T16:20:07.666Z</time></trkpt><trkpt lat="44.6784183" lon="9.22622"><ele>1210.0</ele><time>2026-04-21T16:20:08.667Z</time></trkpt><trkpt lat="44.6783717" lon="9.22635"><ele>1210.0</ele><time>2026-04-21T16:20:09.666Z</time></trkpt><trkpt lat="44.6783167" lon="9.2264333"><ele>1210.0</ele><time>2026-04-21T16:20:10.666Z</time></trkpt><trkpt lat="44.6782717" lon="9.22651"><ele>1210.0</ele><time>2026-04-21T16:20:11.666Z</time></trkpt><trkpt lat="44.67823" lon="9.2266183"><ele>1210.0</ele><time>2026-04-21T16:20:13.666Z</time></trkpt><trkpt lat="44.6783433" lon="9.2265983"><ele>1210.0</ele><time>2026-04-21T16:20:16.667Z</time></trkpt><trkpt lat="44.6784083" lon="9.226505"><ele>1210.0</ele><time>2026-04-21T16:20:17.667Z</time></trkpt><trkpt lat="44.6784667" lon="9.2263667"><ele>1210.0</ele><time>2026-04-21T16:20:18.666Z</time></trkpt><trkpt lat="44.6785317" lon="9.2262283"><ele>1210.0</ele><time>2026-04-21T16:20:19.666Z</time></trkpt><trkpt lat="44.6786117" lon="9.226105"><ele>1210.0</ele><time>2026-04-21T16:20:20.666Z</time></trkpt><trkpt lat="44.6787" lon="9.2259867"><ele>1216.25</ele><time>2026-04-21T16:20:21.666Z</time></trkpt><trkpt lat="44.6787817" lon="9.2258533"><ele>1222.5</ele><time>2026-04-21T16:20:22.666Z</time></trkpt><trkpt lat="44.678845" lon="9.2257017"><ele>1228.75</ele><time>2026-04-21T16:20:23.666Z</time></trkpt><trkpt lat="44.678885" lon="9.225545"><ele>1235.0</ele><time>2026-04-21T16:20:24.666Z</time></trkpt><trkpt lat="44.6789033" lon="9.22539"><ele>1235.0</ele><time>2026-04-21T16:20:25.666Z</time></trkpt><trkpt lat="44.6789117" lon="9.22525"><ele>1235.0</ele><time>2026-04-21T16:20:26.666Z</time></trkpt><trkpt lat="44.6789333" lon="9.225135"><ele>1235.0</ele><time>2026-04-21T16:20:27.667Z</time></trkpt><trkpt lat="44.6789767" lon="9.22504"><ele>1235.0</ele><time>2026-04-21T16:20:28.667Z</time></trkpt><trkpt lat="44.6790433" lon="9.2249617"><ele>1235.0</ele><time>2026-04-21T16:20:29.666Z</time></trkpt><trkpt lat="44.6791167" lon="9.2248767"><ele>1235.0</ele><time>2026-04-21T16:20:30.667Z</time></trkpt><trkpt lat="44.679195" lon="9.22477"><ele>1231.8</ele><time>2026-04-21T16:20:31.667Z</time></trkpt><trkpt lat="44.6792517" lon="9.2246467"><ele>1228.6</ele><time>2026-04-21T16:20:32.667Z</time></trkpt><trkpt lat="44.679305" lon="9.2245017"><ele>1225.4</ele><time>2026-04-21T16:20:33.667Z</time></trkpt><trkpt lat="44.6793583" lon="9.2243617"><ele>1222.2</ele><time>2026-04-21T16:20:34.666Z</time></trkpt><trkpt lat="44.6794167" lon="9.22426"><ele>1219.0</ele><time>2026-04-21T16:20:35.667Z</time></trkpt><trkpt lat="44.6794817" lon="9.2242"><ele>1221.0</ele><time>2026-04-21T16:20:36.666Z</time></trkpt><trkpt lat="44.679555" lon="9.2241767"><ele>1223.0</ele><time>2026-04-21T16:20:37.667Z</time></trkpt><trkpt lat="44.67963" lon="9.2241517"><ele>1225.0</ele><time>2026-04-21T16:20:38.667Z</time></trkpt><trkpt lat="44.6797083" lon="9.224115"><ele>1227.0</ele><time>2026-04-21T16:20:39.666Z</time></trkpt><trkpt lat="44.6797733" lon="9.2240417"><ele>1229.0</ele><time>2026-04-21T16:20:40.666Z</time></trkpt><trkpt lat="44.6798317" lon="9.2239683"><ele>1231.0</ele><time>2026-04-21T16:20:41.666Z</time></trkpt><trkpt lat="44.67993" lon="9.2239233"><ele>1234.8333333333333</ele><time>2026-04-21T16:20:43.667Z</time></trkpt><trkpt lat="44.6799583" lon="9.224005"><ele>1238.6666666666665</ele><time>2026-04-21T16:20:45.667Z</time></trkpt><trkpt lat="44.679935" lon="9.22409"><ele>1242.5</ele><time>2026-04-21T16:20:46.667Z</time></trkpt><trkpt lat="44.67989" lon="9.2242"><ele>1246.3333333333333</ele><time>2026-04-21T16:20:47.666Z</time></trkpt><trkpt lat="44.6798333" lon="9.224315"><ele>1250.1666666666667</ele><time>2026-04-21T16:20:48.666Z</time></trkpt><trkpt lat="44.6797567" lon="9.2244417"><ele>1254.0</ele><time>2026-04-21T16:20:49.666Z</time></trkpt><trkpt lat="44.679675" lon="9.2245667"><ele>1254.0</ele><time>2026-04-21T16:20:50.666Z</time></trkpt><trkpt lat="44.6796133" lon="9.2246833"><ele>1254.0</ele><time>2026-04-21T16:20:51.667Z</time></trkpt><trkpt lat="44.6795617" lon="9.22482"><ele>1254.0</ele><time>2026-04-21T16:20:52.667Z</time></trkpt><trkpt lat="44.67952" lon="9.22497"><ele>1254.0</ele><time>2026-04-21T16:20:53.667Z</time></trkpt><trkpt lat="44.6794717" lon="9.225125"><ele>1254.0</ele><time>2026-04-21T16:20:54.667Z</time></trkpt><trkpt lat="44.6794217" lon="9.22528"><ele>1253.6000000000001</ele><time>2026-04-21T16:20:55.666Z</time></trkpt><trkpt lat="44.6793633" lon="9.22542"><ele>1253.2</ele><time>2026-04-21T16:20:56.667Z</time></trkpt><trkpt lat="44.6793083" lon="9.225545"><ele>1252.8000000000002</ele><time>2026-04-21T16:20:57.666Z</time></trkpt><trkpt lat="44.6792733" lon="9.2256633"><ele>1252.4</ele><time>2026-04-21T16:20:58.666Z</time></trkpt><trkpt lat="44.6792533" lon="9.2257917"><ele>1252.0</ele><time>2026-04-21T16:20:59.666Z</time></trkpt><trkpt lat="44.6792367" lon="9.22594"><ele>1252.0</ele><time>2026-04-21T16:21:00.667Z</time></trkpt><trkpt lat="44.6792117" lon="9.22608"><ele>1252.0</ele><time>2026-04-21T16:21:01.667Z</time></trkpt><trkpt lat="44.6791833" lon="9.2262217"><ele>1252.0</ele><time>2026-04-21T16:21:02.666Z</time></trkpt><trkpt lat="44.679165" lon="9.2263567"><ele>1252.0</ele><time>2026-04-21T16:21:03.667Z</time></trkpt><trkpt lat="44.6791583" lon="9.226465"><ele>1252.0</ele><time>2026-04-21T16:21:04.667Z</time></trkpt><trkpt lat="44.6791967" lon="9.22661"><ele>1251.5</ele><time>2026-04-21T16:21:06.667Z</time></trkpt><trkpt lat="44.6793167" lon="9.2266367"><ele>1251.0</ele><time>2026-04-21T16:21:08.666Z</time></trkpt><trkpt lat="44.6794233" lon="9.2266017"><ele>1250.5</ele><time>2026-04-21T16:21:09.666Z</time></trkpt><trkpt lat="44.6795567" lon="9.2265633"><ele>1250.0</ele><time>2026-04-21T16:21:10.666Z</time></trkpt><trkpt lat="44.6796917" lon="9.2265733"><ele>1252.6</ele><time>2026-04-21T16:21:11.666Z</time></trkpt><trkpt lat="44.67981" lon="9.2265783"><ele>1255.2</ele><time>2026-04-21T16:21:12.667Z</time></trkpt><trkpt lat="44.67992" lon="9.2265783"><ele>1257.8</ele><time>2026-04-21T16:21:13.666Z</time></trkpt><trkpt lat="44.68002" lon="9.2265667"><ele>1260.4</ele><time>2026-04-21T16:21:14.666Z</time></trkpt><trkpt lat="44.6801167" lon="9.2265317"><ele>1263.0</ele><time>2026-04-21T16:21:15.666Z</time></trkpt><trkpt lat="44.68021" lon="9.2264717"><ele>1269.1666666666667</ele><time>2026-04-21T16:21:16.666Z</time></trkpt><trkpt lat="44.6803067" lon="9.2264017"><ele>1275.3333333333333</ele><time>2026-04-21T16:21:17.667Z</time></trkpt><trkpt lat="44.6803967" lon="9.2263383"><ele>1281.5</ele><time>2026-04-21T16:21:18.666Z</time></trkpt><trkpt lat="44.6804633" lon="9.2262683"><ele>1287.6666666666665</ele><time>2026-04-21T16:21:19.666Z</time></trkpt><trkpt lat="44.6805067" lon="9.2262017"><ele>1293.8333333333333</ele><time>2026-04-21T16:21:20.667Z</time></trkpt><trkpt lat="44.680525" lon="9.2260883"><ele>1300.0</ele><time>2026-04-21T16:21:22.666Z</time></trkpt><trkpt lat="44.6804417" lon="9.226075"><ele>1300.0</ele><time>2026-04-21T16:21:24.666Z</time></trkpt><trkpt lat="44.68037" lon="9.22612"><ele>1300.0</ele><time>2026-04-21T16:21:25.667Z</time></trkpt><trkpt lat="44.68028" lon="9.2261783"><ele>1300.0</ele><time>2026-04-21T16:21:26.667Z</time></trkpt><trkpt lat="44.6801733" lon="9.226235"><ele>1300.0</ele><time>2026-04-21T16:21:27.666Z</time></trkpt><trkpt lat="44.680065" lon="9.2262783"><ele>1300.0</ele><time>2026-04-21T16:21:28.666Z</time></trkpt><trkpt lat="44.67996" lon="9.22629"><ele>1295.4</ele><time>2026-04-21T16:21:29.666Z</time></trkpt><trkpt lat="44.6798633" lon="9.226275"><ele>1290.8</ele><time>2026-04-21T16:21:30.667Z</time></trkpt><trkpt lat="44.6797883" lon="9.2262467"><ele>1286.2</ele><time>2026-04-21T16:21:31.667Z</time></trkpt><trkpt lat="44.6797367" lon="9.226115"><ele>1281.6</ele><time>2026-04-21T16:21:33.667Z</time></trkpt><trkpt lat="44.6797867" lon="9.2259683"><ele>1277.0</ele><time>2026-04-21T16:21:35.667Z</time></trkpt><trkpt lat="44.6798433" lon="9.2258917"><ele>1277.0</ele><time>2026-04-21T16:21:36.666Z</time></trkpt><trkpt lat="44.6799167" lon="9.2258033"><ele>1277.0</ele><time>2026-04-21T16:21:37.667Z</time></trkpt><trkpt lat="44.6799917" lon="9.2257"><ele>1277.0</ele><time>2026-04-21T16:21:38.666Z</time></trkpt><trkpt lat="44.680075" lon="9.2255883"><ele>1277.0</ele><time>2026-04-21T16:21:39.666Z</time></trkpt><trkpt lat="44.680165" lon="9.2254667"><ele>1277.0</ele><time>2026-04-21T16:21:40.666Z</time></trkpt><trkpt lat="44.68026" lon="9.2253383"><ele>1282.0</ele><time>2026-04-21T16:21:41.667Z</time></trkpt><trkpt lat="44.6803583" lon="9.22521"><ele>1287.0</ele><time>2026-04-21T16:21:42.666Z</time></trkpt><trkpt lat="44.6804517" lon="9.2250783"><ele>1292.0</ele><time>2026-04-21T16:21:43.666Z</time></trkpt><trkpt lat="44.6805367" lon="9.2249383"><ele>1297.0</ele><time>2026-04-21T16:21:44.667Z</time></trkpt><trkpt lat="44.680605" lon="9.2247933"><ele>1297.0</ele><time>2026-04-21T16:21:45.667Z</time></trkpt><trkpt lat="44.6806567" lon="9.2246317"><ele>1297.0</ele><time>2026-04-21T16:21:46.667Z</time></trkpt><trkpt lat="44.6807067" lon="9.2244683"><ele>1297.0</ele><time>2026-04-21T16:21:47.666Z</time></trkpt><trkpt lat="44.6807617" lon="9.2243267"><ele>1297.0</ele><time>2026-04-21T16:21:48.667Z</time></trkpt><trkpt lat="44.6808233" lon="9.2242083"><ele>1297.0</ele><time>2026-04-21T16:21:49.666Z</time></trkpt><trkpt lat="44.6809" lon="9.2241117"><ele>1297.0</ele><time>2026-04-21T16:21:50.666Z</time></trkpt><trkpt lat="44.680985" lon="9.224025"><ele>1297.0</ele><time>2026-04-21T16:21:51.666Z</time></trkpt><trkpt lat="44.6810883" lon="9.2239467"><ele>1297.0</ele><time>2026-04-21T16:21:52.667Z</time></trkpt><trkpt lat="44.68119" lon="9.2238617"><ele>1297.0</ele><time>2026-04-21T16:21:53.667Z</time></trkpt><trkpt lat="44.6812867" lon="9.2237517"><ele>1301.5</ele><time>2026-04-21T16:21:54.667Z</time></trkpt><trkpt lat="44.68137" lon="9.2236183"><ele>1306.0</ele><time>2026-04-21T16:21:55.666Z</time></trkpt><trkpt lat="44.681445" lon="9.2234917"><ele>1310.5</ele><time>2026-04-21T16:21:56.667Z</time></trkpt><trkpt lat="44.6815267" lon="9.2233817"><ele>1315.0</ele><time>2026-04-21T16:21:57.666Z</time></trkpt><trkpt lat="44.681615" lon="9.2232817"><ele>1315.0</ele><time>2026-04-21T16:21:58.666Z</time></trkpt><trkpt lat="44.6817117" lon="9.22318"><ele>1315.0</ele><time>2026-04-21T16:21:59.667Z</time></trkpt><trkpt lat="44.68181" lon="9.2230633"><ele>1315.0</ele><time>2026-04-21T16:22:00.666Z</time></trkpt><trkpt lat="44.6818967" lon="9.2229233"><ele>1315.0</ele><time>2026-04-21T16:22:01.667Z</time></trkpt><trkpt lat="44.6819817" lon="9.2227767"><ele>1316.75</ele><time>2026-04-21T16:22:02.667Z</time></trkpt><trkpt lat="44.6820717" lon="9.2226383"><ele>1318.5</ele><time>2026-04-21T16:22:03.666Z</time></trkpt><trkpt lat="44.68216" lon="9.222505"><ele>1320.25</ele><time>2026-04-21T16:22:04.666Z</time></trkpt><trkpt lat="44.6822383" lon="9.2223717"><ele>1322.0</ele><time>2026-04-21T16:22:05.666Z</time></trkpt><trkpt lat="44.6823083" lon="9.222245"><ele>1322.0</ele><time>2026-04-21T16:22:06.666Z</time></trkpt><trkpt lat="44.682385" lon="9.2221517"><ele>1322.0</ele><time>2026-04-21T16:22:07.667Z</time></trkpt><trkpt lat="44.6824667" lon="9.2220733"><ele>1322.0</ele><time>2026-04-21T16:22:08.666Z</time></trkpt><trkpt lat="44.6825433" lon="9.222005"><ele>1322.0</ele><time>2026-04-21T16:22:09.666Z</time></trkpt><trkpt lat="44.6826083" lon="9.22192"><ele>1322.0</ele><time>2026-04-21T16:22:10.666Z</time></trkpt><trkpt lat="44.6826567" lon="9.2218183"><ele>1322.0</ele><time>2026-04-21T16:22:11.666Z</time></trkpt><trkpt lat="44.6826883" lon="9.2216867"><ele>1322.0</ele><time>2026-04-21T16:22:12.667Z</time></trkpt><trkpt lat="44.68269" lon="9.2215183"><ele>1322.0</ele><time>2026-04-21T16:22:13.666Z</time></trkpt><trkpt lat="44.682695" lon="9.2213617"><ele>1322.0</ele><time>2026-04-21T16:22:14.666Z</time></trkpt><trkpt lat="44.6827" lon="9.2211933"><ele>1321.6</ele><time>2026-04-21T16:22:15.666Z</time></trkpt><trkpt lat="44.6827117" lon="9.22104"><ele>1321.1999999999998</ele><time>2026-04-21T16:22:16.666Z</time></trkpt><trkpt lat="44.68273" lon="9.22091"><ele>1320.8</ele><time>2026-04-21T16:22:17.666Z</time></trkpt><trkpt lat="44.6827533" lon="9.2208017"><ele>1320.4</ele><time>2026-04-21T16:22:18.666Z</time></trkpt><trkpt lat="44.6827883" lon="9.220685"><ele>1320.0</ele><time>2026-04-21T16:22:19.667Z</time></trkpt><trkpt lat="44.6828183" lon="9.2205583"><ele>1329.0</ele><time>2026-04-21T16:22:20.666Z</time></trkpt><trkpt lat="44.6828517" lon="9.2204183"><ele>1338.0</ele><time>2026-04-21T16:22:21.667Z</time></trkpt><trkpt lat="44.6828883" lon="9.2202617"><ele>1347.0</ele><time>2026-04-21T16:22:22.667Z</time></trkpt><trkpt lat="44.68293" lon="9.2201017"><ele>1356.0</ele><time>2026-04-21T16:22:23.666Z</time></trkpt><trkpt lat="44.682975" lon="9.2199367"><ele>1354.8</ele><time>2026-04-21T16:22:24.667Z</time></trkpt><trkpt lat="44.6830183" lon="9.21978"><ele>1353.6</ele><time>2026-04-21T16:22:25.666Z</time></trkpt><trkpt lat="44.6830583" lon="9.2196517"><ele>1352.4</ele><time>2026-04-21T16:22:26.666Z</time></trkpt><trkpt lat="44.6831083" lon="9.2195517"><ele>1351.2</ele><time>2026-04-21T16:22:27.666Z</time></trkpt><trkpt lat="44.6831767" lon="9.21947"><ele>1350.0</ele><time>2026-04-21T16:22:28.667Z</time></trkpt><trkpt lat="44.6832617" lon="9.2193833"><ele>1350.0</ele><time>2026-04-21T16:22:29.667Z</time></trkpt><trkpt lat="44.6833383" lon="9.219275"><ele>1350.0</ele><time>2026-04-21T16:22:30.667Z</time></trkpt><trkpt lat="44.6834083" lon="9.219155"><ele>1350.0</ele><time>2026-04-21T16:22:31.667Z</time></trkpt><trkpt lat="44.6834683" lon="9.21903"><ele>1350.0</ele><time>2026-04-21T16:22:32.666Z</time></trkpt><trkpt lat="44.6835083" lon="9.2188933"><ele>1350.0</ele><time>2026-04-21T16:22:33.667Z</time></trkpt><trkpt lat="44.6835183" lon="9.218735"><ele>1350.25</ele><time>2026-04-21T16:22:34.666Z</time></trkpt><trkpt lat="44.683515" lon="9.218575"><ele>1350.5</ele><time>2026-04-21T16:22:35.667Z</time></trkpt><trkpt lat="44.6835083" lon="9.218395"><ele>1350.75</ele><time>2026-04-21T16:22:36.667Z</time></trkpt><trkpt lat="44.6835033" lon="9.21822"><ele>1351.0</ele><time>2026-04-21T16:22:37.666Z</time></trkpt><trkpt lat="44.6835017" lon="9.218055"><ele>1351.0</ele><time>2026-04-21T16:22:38.666Z</time></trkpt><trkpt lat="44.6834967" lon="9.2178967"><ele>1351.0</ele><time>2026-04-21T16:22:39.667Z</time></trkpt><trkpt lat="44.683505" lon="9.2177283"><ele>1351.0</ele><time>2026-04-21T16:22:40.666Z</time></trkpt><trkpt lat="44.6835167" lon="9.2175483"><ele>1351.0</ele><time>2026-04-21T16:22:41.666Z</time></trkpt><trkpt lat="44.6835267" lon="9.217365"><ele>1351.25</ele><time>2026-04-21T16:22:42.666Z</time></trkpt><trkpt lat="44.6835333" lon="9.2171883"><ele>1351.5</ele><time>2026-04-21T16:22:43.667Z</time></trkpt><trkpt lat="44.6835333" lon="9.217025"><ele>1351.75</ele><time>2026-04-21T16:22:44.667Z</time></trkpt><trkpt lat="44.6835433" lon="9.21687"><ele>1352.0</ele><time>2026-04-21T16:22:45.666Z</time></trkpt><trkpt lat="44.6835583" lon="9.2167067"><ele>1352.0</ele><time>2026-04-21T16:22:46.667Z</time></trkpt><trkpt lat="44.6835733" lon="9.21654"><ele>1352.0</ele><time>2026-04-21T16:22:47.666Z</time></trkpt><trkpt lat="44.6835917" lon="9.2163883"><ele>1352.0</ele><time>2026-04-21T16:22:48.666Z</time></trkpt><trkpt lat="44.68361" lon="9.2162583"><ele>1352.0</ele><time>2026-04-21T16:22:49.667Z</time></trkpt><trkpt lat="44.683625" lon="9.2161517"><ele>1352.0</ele><time>2026-04-21T16:22:50.667Z</time></trkpt><trkpt lat="44.6836717" lon="9.2160217"><ele>1354.6666666666667</ele><time>2026-04-21T16:22:52.667Z</time></trkpt><trkpt lat="44.6837333" lon="9.21608"><ele>1357.3333333333335</ele><time>2026-04-21T16:22:55.667Z</time></trkpt><trkpt lat="44.6836967" lon="9.2162267"><ele>1360.0</ele><time>2026-04-21T16:22:57.667Z</time></trkpt><trkpt lat="44.6836583" lon="9.2163283"><ele>1362.6666666666667</ele><time>2026-04-21T16:22:58.667Z</time></trkpt><trkpt lat="44.6836267" lon="9.2164533"><ele>1365.3333333333333</ele><time>2026-04-21T16:22:59.667Z</time></trkpt><trkpt lat="44.68362" lon="9.21656"><ele>1368.0</ele><time>2026-04-21T16:23:00.666Z</time></trkpt><trkpt lat="44.6836333" lon="9.2166667"><ele>1368.0</ele><time>2026-04-21T16:23:01.666Z</time></trkpt><trkpt lat="44.683655" lon="9.2167617"><ele>1368.0</ele><time>2026-04-21T16:23:02.667Z</time></trkpt><trkpt lat="44.6836933" lon="9.2168533"><ele>1368.0</ele><time>2026-04-21T16:23:03.667Z</time></trkpt><trkpt lat="44.6837533" lon="9.2169417"><ele>1368.0</ele><time>2026-04-21T16:23:04.666Z</time></trkpt><trkpt lat="44.6838167" lon="9.217005"><ele>1368.0</ele><time>2026-04-21T16:23:05.667Z</time></trkpt><trkpt lat="44.6838917" lon="9.2170417"><ele>1368.0</ele><time>2026-04-21T16:23:06.667Z</time></trkpt><trkpt lat="44.6839683" lon="9.21705"><ele>1368.0</ele><time>2026-04-21T16:23:07.666Z</time></trkpt><trkpt lat="44.68404" lon="9.217015"><ele>1368.0</ele><time>2026-04-21T16:23:08.667Z</time></trkpt><trkpt lat="44.6840983" lon="9.2169417"><ele>1368.0</ele><time>2026-04-21T16:23:09.666Z</time></trkpt><trkpt lat="44.6841533" lon="9.2168133"><ele>1368.0</ele><time>2026-04-21T16:23:10.667Z</time></trkpt><trkpt lat="44.6842117" lon="9.2166533"><ele>1368.0</ele><time>2026-04-21T16:23:11.666Z</time></trkpt><trkpt lat="44.6842733" lon="9.21649"><ele>1368.8000000000002</ele><time>2026-04-21T16:23:12.667Z</time></trkpt><trkpt lat="44.6843333" lon="9.21633"><ele>1369.6</ele><time>2026-04-21T16:23:13.666Z</time></trkpt><trkpt lat="44.6843867" lon="9.2161883"><ele>1370.4</ele><time>2026-04-21T16:23:14.667Z</time></trkpt><trkpt lat="44.684425" lon="9.2160583"><ele>1371.1999999999998</ele><time>2026-04-21T16:23:15.667Z</time></trkpt><trkpt lat="44.6844517" lon="9.2159467"><ele>1372.0</ele><time>2026-04-21T16:23:16.667Z</time></trkpt><trkpt lat="44.6844633" lon="9.2158467"><ele>1370.1666666666665</ele><time>2026-04-21T16:23:17.666Z</time></trkpt><trkpt lat="44.6844767" lon="9.2157517"><ele>1368.3333333333333</ele><time>2026-04-21T16:23:18.666Z</time></trkpt><trkpt lat="44.6844917" lon="9.2156367"><ele>1366.5</ele><time>2026-04-21T16:23:19.667Z</time></trkpt><trkpt lat="44.6845067" lon="9.2155283"><ele>1364.6666666666667</ele><time>2026-04-21T16:23:20.666Z</time></trkpt><trkpt lat="44.6845533" lon="9.2154467"><ele>1362.8333333333335</ele><time>2026-04-21T16:23:21.666Z</time></trkpt><trkpt lat="44.6846233" lon="9.2153983"><ele>1361.0</ele><time>2026-04-21T16:23:22.667Z</time></trkpt><trkpt lat="44.68471" lon="9.2153833"><ele>1361.0</ele><time>2026-04-21T16:23:23.666Z</time></trkpt><trkpt lat="44.6847933" lon="9.2154183"><ele>1361.0</ele><time>2026-04-21T16:23:24.666Z</time></trkpt><trkpt lat="44.6848633" lon="9.2154883"><ele>1361.0</ele><time>2026-04-21T16:23:25.666Z</time></trkpt><trkpt lat="44.6849317" lon="9.2156033"><ele>1361.0</ele><time>2026-04-21T16:23:26.666Z</time></trkpt><trkpt lat="44.6850017" lon="9.2157183"><ele>1361.0</ele><time>2026-04-21T16:23:27.666Z</time></trkpt><trkpt lat="44.68507" lon="9.2158067"><ele>1360.1666666666667</ele><time>2026-04-21T16:23:28.666Z</time></trkpt><trkpt lat="44.68514" lon="9.215855"><ele>1359.3333333333335</ele><time>2026-04-21T16:23:29.666Z</time></trkpt><trkpt lat="44.6852183" lon="9.215865"><ele>1358.5</ele><time>2026-04-21T16:23:30.666Z</time></trkpt><trkpt lat="44.685285" lon="9.2158417"><ele>1357.6666666666667</ele><time>2026-04-21T16:23:31.667Z</time></trkpt><trkpt lat="44.6853333" lon="9.2157617"><ele>1356.8333333333333</ele><time>2026-04-21T16:23:32.666Z</time></trkpt><trkpt lat="44.6853767" lon="9.215635"><ele>1356.0</ele><time>2026-04-21T16:23:33.667Z</time></trkpt><trkpt lat="44.6854267" lon="9.2154933"><ele>1355.0</ele><time>2026-04-21T16:23:34.666Z</time></trkpt><trkpt lat="44.6854833" lon="9.2153383"><ele>1354.0</ele><time>2026-04-21T16:23:35.666Z</time></trkpt><trkpt lat="44.6855383" lon="9.2151883"><ele>1353.0</ele><time>2026-04-21T16:23:36.667Z</time></trkpt><trkpt lat="44.68559" lon="9.215055"><ele>1352.0</ele><time>2026-04-21T16:23:37.666Z</time></trkpt><trkpt lat="44.6856333" lon="9.214935"><ele>1351.0</ele><time>2026-04-21T16:23:38.666Z</time></trkpt><trkpt lat="44.685685" lon="9.2148267"><ele>1351.8333333333333</ele><time>2026-04-21T16:23:39.666Z</time></trkpt><trkpt lat="44.6857417" lon="9.2147483"><ele>1352.6666666666665</ele><time>2026-04-21T16:23:40.667Z</time></trkpt><trkpt lat="44.6858" lon="9.2147117"><ele>1353.5</ele><time>2026-04-21T16:23:41.667Z</time></trkpt><trkpt lat="44.68587" lon="9.214695"><ele>1354.3333333333333</ele><time>2026-04-21T16:23:42.667Z</time></trkpt><trkpt lat="44.6859517" lon="9.2147233"><ele>1355.1666666666667</ele><time>2026-04-21T16:23:43.667Z</time></trkpt><trkpt lat="44.6860533" lon="9.2148017"><ele>1356.0</ele><time>2026-04-21T16:23:45.667Z</time></trkpt><trkpt lat="44.6861233" lon="9.21479"><ele>1356.0</ele><time>2026-04-21T16:23:46.667Z</time></trkpt><trkpt lat="44.686215" lon="9.2147633"><ele>1356.0</ele><time>2026-04-21T16:23:47.667Z</time></trkpt><trkpt lat="44.6863033" lon="9.2147417"><ele>1356.0</ele><time>2026-04-21T16:23:48.666Z</time></trkpt><trkpt lat="44.686405" lon="9.2147467"><ele>1356.0</ele><time>2026-04-21T16:23:49.666Z</time></trkpt><trkpt lat="44.6864933" lon="9.2147733"><ele>1356.0</ele><time>2026-04-21T16:23:50.666Z</time></trkpt><trkpt lat="44.686585" lon="9.2148233"><ele>1353.3333333333333</ele><time>2026-04-21T16:23:51.666Z</time></trkpt><trkpt lat="44.6866683" lon="9.2148867"><ele>1350.6666666666667</ele><time>2026-04-21T16:23:52.666Z</time></trkpt><trkpt lat="44.6867383" lon="9.214945"><ele>1348.0</ele><time>2026-04-21T16:23:53.666Z</time></trkpt><trkpt lat="44.68681" lon="9.2149783"><ele>1345.3333333333335</ele><time>2026-04-21T16:23:54.666Z</time></trkpt><trkpt lat="44.6869267" lon="9.2149683"><ele>1342.6666666666667</ele><time>2026-04-21T16:23:56.666Z</time></trkpt><trkpt lat="44.6869817" lon="9.2149167"><ele>1340.0</ele><time>2026-04-21T16:23:57.666Z</time></trkpt><trkpt lat="44.6870483" lon="9.214865"><ele>1339.1666666666667</ele><time>2026-04-21T16:23:58.667Z</time></trkpt><trkpt lat="44.6871217" lon="9.2148433"><ele>1338.3333333333335</ele><time>2026-04-21T16:23:59.667Z</time></trkpt><trkpt lat="44.6871867" lon="9.2148583"><ele>1337.5</ele><time>2026-04-21T16:24:00.667Z</time></trkpt><trkpt lat="44.687255" lon="9.2148967"><ele>1336.6666666666667</ele><time>2026-04-21T16:24:01.666Z</time></trkpt><trkpt lat="44.6873317" lon="9.2149283"><ele>1335.8333333333333</ele><time>2026-04-21T16:24:02.667Z</time></trkpt><trkpt lat="44.687425" lon="9.214935"><ele>1335.0</ele><time>2026-04-21T16:24:03.666Z</time></trkpt><trkpt lat="44.6875317" lon="9.2149317"><ele>1335.0</ele><time>2026-04-21T16:24:04.666Z</time></trkpt><trkpt lat="44.68764" lon="9.214915"><ele>1335.0</ele><time>2026-04-21T16:24:05.667Z</time></trkpt><trkpt lat="44.68776" lon="9.2149017"><ele>1335.0</ele><time>2026-04-21T16:24:06.666Z</time></trkpt><trkpt lat="44.6878767" lon="9.2148783"><ele>1335.0</ele><time>2026-04-21T16:24:07.666Z</time></trkpt><trkpt lat="44.6879817" lon="9.2148683"><ele>1334.5</ele><time>2026-04-21T16:24:08.666Z</time></trkpt><trkpt lat="44.6881083" lon="9.2148917"><ele>1334.0</ele><time>2026-04-21T16:24:09.667Z</time></trkpt><trkpt lat="44.6882333" lon="9.2149467"><ele>1333.5</ele><time>2026-04-21T16:24:10.667Z</time></trkpt><trkpt lat="44.68837" lon="9.2150017"><ele>1333.0</ele><time>2026-04-21T16:24:11.667Z</time></trkpt><trkpt lat="44.68851" lon="9.2150483"><ele>1331.75</ele><time>2026-04-21T16:24:12.667Z</time></trkpt><trkpt lat="44.688655" lon="9.2150733"><ele>1330.5</ele><time>2026-04-21T16:24:13.666Z</time></trkpt><trkpt lat="44.688795" lon="9.2150767"><ele>1329.25</ele><time>2026-04-21T16:24:14.666Z</time></trkpt><trkpt lat="44.68892" lon="9.21506"><ele>1328.0</ele><time>2026-04-21T16:24:15.666Z</time></trkpt><trkpt lat="44.6890367" lon="9.2150367"><ele>1328.0</ele><time>2026-04-21T16:24:16.667Z</time></trkpt><trkpt lat="44.6891417" lon="9.2149817"><ele>1328.0</ele><time>2026-04-21T16:24:17.666Z</time></trkpt><trkpt lat="44.6892383" lon="9.2149167"><ele>1328.0</ele><time>2026-04-21T16:24:18.666Z</time></trkpt><trkpt lat="44.68933" lon="9.21486"><ele>1328.0</ele><time>2026-04-21T16:24:19.666Z</time></trkpt><trkpt lat="44.6894067" lon="9.2148417"><ele>1328.0</ele><time>2026-04-21T16:24:20.666Z</time></trkpt><trkpt lat="44.6894783" lon="9.2148617"><ele>1328.2</ele><time>2026-04-21T16:24:21.666Z</time></trkpt><trkpt lat="44.689545" lon="9.21493"><ele>1328.4</ele><time>2026-04-21T16:24:22.666Z</time></trkpt><trkpt lat="44.6895733" lon="9.215025"><ele>1328.6000000000001</ele><time>2026-04-21T16:24:23.667Z</time></trkpt><trkpt lat="44.6895717" lon="9.2151417"><ele>1328.8000000000002</ele><time>2026-04-21T16:24:24.666Z</time></trkpt><trkpt lat="44.68954" lon="9.2152883"><ele>1329.0</ele><time>2026-04-21T16:24:25.667Z</time></trkpt><trkpt lat="44.6894767" lon="9.215435"><ele>1328.8000000000002</ele><time>2026-04-21T16:24:26.666Z</time></trkpt><trkpt lat="44.6894017" lon="9.21556"><ele>1328.6000000000001</ele><time>2026-04-21T16:24:27.667Z</time></trkpt><trkpt lat="44.6893183" lon="9.2156467"><ele>1328.4</ele><time>2026-04-21T16:24:28.666Z</time></trkpt><trkpt lat="44.6892317" lon="9.21573"><ele>1328.2</ele><time>2026-04-21T16:24:29.666Z</time></trkpt><trkpt lat="44.689135" lon="9.2157883"><ele>1328.0</ele><time>2026-04-21T16:24:30.667Z</time></trkpt><trkpt lat="44.6890517" lon="9.2158517"><ele>1326.4</ele><time>2026-04-21T16:24:31.667Z</time></trkpt><trkpt lat="44.68899" lon="9.2159367"><ele>1324.8000000000002</ele><time>2026-04-21T16:24:32.666Z</time></trkpt><trkpt lat="44.688945" lon="9.21606"><ele>1323.2</ele><time>2026-04-21T16:24:33.666Z</time></trkpt><trkpt lat="44.688905" lon="9.216225"><ele>1321.6</ele><time>2026-04-21T16:24:34.666Z</time></trkpt><trkpt lat="44.688865" lon="9.2164133"><ele>1320.0</ele><time>2026-04-21T16:24:35.667Z</time></trkpt><trkpt lat="44.6888267" lon="9.2165833"><ele>1319.0</ele><time>2026-04-21T16:24:36.666Z</time></trkpt><trkpt lat="44.6887733" lon="9.216735"><ele>1318.0</ele><time>2026-04-21T16:24:37.667Z</time></trkpt><trkpt lat="44.6887167" lon="9.2168783"><ele>1317.0</ele><time>2026-04-21T16:24:38.666Z</time></trkpt><trkpt lat="44.6886617" lon="9.2170267"><ele>1316.0</ele><time>2026-04-21T16:24:39.667Z</time></trkpt><trkpt lat="44.6886133" lon="9.2171583"><ele>1314.0</ele><time>2026-04-21T16:24:40.667Z</time></trkpt><trkpt lat="44.6885783" lon="9.2172783"><ele>1312.0</ele><time>2026-04-21T16:24:41.667Z</time></trkpt><trkpt lat="44.688535" lon="9.2173733"><ele>1310.0</ele><time>2026-04-21T16:24:42.667Z</time></trkpt><trkpt lat="44.6884333" lon="9.2174183"><ele>1308.0</ele><time>2026-04-21T16:24:44.667Z</time></trkpt><trkpt lat="44.68837" lon="9.2172933"><ele>1306.0</ele><time>2026-04-21T16:24:46.666Z</time></trkpt><trkpt lat="44.68839" lon="9.2171867"><ele>1306.0</ele><time>2026-04-21T16:24:47.667Z</time></trkpt><trkpt lat="44.6884283" lon="9.2170583"><ele>1306.0</ele><time>2026-04-21T16:24:48.666Z</time></trkpt><trkpt lat="44.688485" lon="9.2168967"><ele>1306.0</ele><time>2026-04-21T16:24:49.666Z</time></trkpt><trkpt lat="44.688535" lon="9.2167467"><ele>1306.0</ele><time>2026-04-21T16:24:50.666Z</time></trkpt><trkpt lat="44.6885767" lon="9.2166033"><ele>1308.0</ele><time>2026-04-21T16:24:51.667Z</time></trkpt><trkpt lat="44.6886033" lon="9.2164867"><ele>1310.0</ele><time>2026-04-21T16:24:52.667Z</time></trkpt><trkpt lat="44.6886167" lon="9.2163917"><ele>1312.0</ele><time>2026-04-21T16:24:53.666Z</time></trkpt><trkpt lat="44.688565" lon="9.2162767"><ele>1314.0</ele><time>2026-04-21T16:24:55.667Z</time></trkpt><trkpt lat="44.688485" lon="9.216265"><ele>1316.0</ele><time>2026-04-21T16:24:57.666Z</time></trkpt><trkpt lat="44.6883567" lon="9.2163667"><ele>1313.5</ele><time>2026-04-21T16:24:59.667Z</time></trkpt><trkpt lat="44.6882617" lon="9.2164883"><ele>1311.0</ele><time>2026-04-21T16:25:00.666Z</time></trkpt><trkpt lat="44.6881717" lon="9.2166133"><ele>1308.5</ele><time>2026-04-21T16:25:01.666Z</time></trkpt><trkpt lat="44.688095" lon="9.2167517"><ele>1306.0</ele><time>2026-04-21T16:25:02.666Z</time></trkpt><trkpt lat="44.6880467" lon="9.2168967"><ele>1306.0</ele><time>2026-04-21T16:25:03.666Z</time></trkpt><trkpt lat="44.68802" lon="9.217045"><ele>1306.0</ele><time>2026-04-21T16:25:04.666Z</time></trkpt><trkpt lat="44.68802" lon="9.2172117"><ele>1306.0</ele><time>2026-04-21T16:25:05.666Z</time></trkpt><trkpt lat="44.68805" lon="9.2173767"><ele>1306.0</ele><time>2026-04-21T16:25:06.667Z</time></trkpt><trkpt lat="44.688095" lon="9.2174933"><ele>1306.0</ele><time>2026-04-21T16:25:07.666Z</time></trkpt><trkpt lat="44.688135" lon="9.2175883"><ele>1306.4</ele><time>2026-04-21T16:25:08.666Z</time></trkpt><trkpt lat="44.688205" lon="9.2176667"><ele>1306.8</ele><time>2026-04-21T16:25:09.667Z</time></trkpt><trkpt lat="44.688295" lon="9.2177433"><ele>1307.2</ele><time>2026-04-21T16:25:10.667Z</time></trkpt><trkpt lat="44.6883983" lon="9.217825"><ele>1307.6000000000001</ele><time>2026-04-21T16:25:11.666Z</time></trkpt><trkpt lat="44.6885117" lon="9.217895"><ele>1308.0</ele><time>2026-04-21T16:25:12.667Z</time></trkpt><trkpt lat="44.68863" lon="9.2179683"><ele>1308.0</ele><time>2026-04-21T16:25:13.667Z</time></trkpt><trkpt lat="44.68874" lon="9.2180433"><ele>1308.0</ele><time>2026-04-21T16:25:14.666Z</time></trkpt><trkpt lat="44.68885" lon="9.2181283"><ele>1308.0</ele><time>2026-04-21T16:25:15.667Z</time></trkpt><trkpt lat="44.6889517" lon="9.2181967"><ele>1308.0</ele><time>2026-04-21T16:25:16.667Z</time></trkpt><trkpt lat="44.68905" lon="9.2182583"><ele>1303.6000000000001</ele><time>2026-04-21T16:25:17.666Z</time></trkpt><trkpt lat="44.6891167" lon="9.2183167"><ele>1299.2</ele><time>2026-04-21T16:25:18.666Z</time></trkpt><trkpt lat="44.6891783" lon="9.2184017"><ele>1294.8</ele><time>2026-04-21T16:25:20.666Z</time></trkpt><trkpt lat="44.6891217" lon="9.218485"><ele>1290.4</ele><time>2026-04-21T16:25:22.666Z</time></trkpt><trkpt lat="44.6889867" lon="9.21843"><ele>1286.0</ele><time>2026-04-21T16:25:24.666Z</time></trkpt><trkpt lat="44.6888917" lon="9.2183583"><ele>1286.0</ele><time>2026-04-21T16:25:25.666Z</time></trkpt><trkpt lat="44.6887833" lon="9.218285"><ele>1286.0</ele><time>2026-04-21T16:25:26.666Z</time></trkpt><trkpt lat="44.6886783" lon="9.21823"><ele>1286.0</ele><time>2026-04-21T16:25:27.667Z</time></trkpt><trkpt lat="44.6885617" lon="9.2181783"><ele>1286.0</ele><time>2026-04-21T16:25:28.666Z</time></trkpt><trkpt lat="44.6884367" lon="9.21813"><ele>1289.25</ele><time>2026-04-21T16:25:29.666Z</time></trkpt><trkpt lat="44.688305" lon="9.2180883"><ele>1292.5</ele><time>2026-04-21T16:25:30.667Z</time></trkpt><trkpt lat="44.6881683" lon="9.2180533"><ele>1295.75</ele><time>2026-04-21T16:25:31.667Z</time></trkpt><trkpt lat="44.6880367" lon="9.2180267"><ele>1299.0</ele><time>2026-04-21T16:25:32.666Z</time></trkpt><trkpt lat="44.6879283" lon="9.2180033"><ele>1299.0</ele><time>2026-04-21T16:25:33.667Z</time></trkpt><trkpt lat="44.68786" lon="9.2179883"><ele>1299.0</ele><time>2026-04-21T16:25:34.667Z</time></trkpt><trkpt lat="44.6877833" lon="9.218065"><ele>1299.0</ele><time>2026-04-21T16:25:36.667Z</time></trkpt><trkpt lat="44.6878067" lon="9.2181783"><ele>1299.0</ele><time>2026-04-21T16:25:38.667Z</time></trkpt><trkpt lat="44.6878683" lon="9.21822"><ele>1299.0</ele><time>2026-04-21T16:25:39.666Z</time></trkpt><trkpt lat="44.687965" lon="9.2182667"><ele>1299.0</ele><time>2026-04-21T16:25:40.666Z</time></trkpt><trkpt lat="44.688075" lon="9.2183367"><ele>1294.5</ele><time>2026-04-21T16:25:41.666Z</time></trkpt><trkpt lat="44.6881783" lon="9.2184167"><ele>1290.0</ele><time>2026-04-21T16:25:42.666Z</time></trkpt><trkpt lat="44.6882867" lon="9.218505"><ele>1285.5</ele><time>2026-04-21T16:25:43.666Z</time></trkpt><trkpt lat="44.6883883" lon="9.2185917"><ele>1281.0</ele><time>2026-04-21T16:25:44.666Z</time></trkpt><trkpt lat="44.6884833" lon="9.2186917"><ele>1281.0</ele><time>2026-04-21T16:25:45.667Z</time></trkpt><trkpt lat="44.6885783" lon="9.2187933"><ele>1281.0</ele><time>2026-04-21T16:25:46.666Z</time></trkpt><trkpt lat="44.6886817" lon="9.21888"><ele>1281.0</ele><time>2026-04-21T16:25:47.667Z</time></trkpt><trkpt lat="44.6887867" lon="9.2189667"><ele>1281.0</ele><time>2026-04-21T16:25:48.666Z</time></trkpt><trkpt lat="44.6888817" lon="9.2190617"><ele>1277.5</ele><time>2026-04-21T16:25:49.666Z</time></trkpt><trkpt lat="44.6889633" lon="9.2191517"><ele>1274.0</ele><time>2026-04-21T16:25:50.666Z</time></trkpt><trkpt lat="44.6890383" lon="9.2192383"><ele>1270.5</ele><time>2026-04-21T16:25:51.666Z</time></trkpt><trkpt lat="44.6891117" lon="9.2192917"><ele>1267.0</ele><time>2026-04-21T16:25:52.666Z</time></trkpt><trkpt lat="44.6891867" lon="9.2193233"><ele>1263.5</ele><time>2026-04-21T16:25:53.666Z</time></trkpt><trkpt lat="44.6892617" lon="9.21931"><ele>1260.0</ele><time>2026-04-21T16:25:54.666Z</time></trkpt><trkpt lat="44.68935" lon="9.2192467"><ele>1258.5</ele><time>2026-04-21T16:25:55.666Z</time></trkpt><trkpt lat="44.6894433" lon="9.219155"><ele>1257.0</ele><time>2026-04-21T16:25:56.666Z</time></trkpt><trkpt lat="44.6895483" lon="9.2190017"><ele>1255.5</ele><time>2026-04-21T16:25:57.667Z</time></trkpt><trkpt lat="44.6896483" lon="9.21889"><ele>1254.0</ele><time>2026-04-21T16:25:58.666Z</time></trkpt><trkpt lat="44.68972" lon="9.218835"><ele>1254.0</ele><time>2026-04-21T16:25:59.667Z</time></trkpt><trkpt lat="44.689805" lon="9.2188383"><ele>1254.0</ele><time>2026-04-21T16:26:00.667Z</time></trkpt><trkpt lat="44.6898833" lon="9.21886"><ele>1254.0</ele><time>2026-04-21T16:26:01.666Z</time></trkpt><trkpt lat="44.6899817" lon="9.2189"><ele>1254.0</ele><time>2026-04-21T16:26:02.667Z</time></trkpt><trkpt lat="44.69011" lon="9.218965"><ele>1254.0</ele><time>2026-04-21T16:26:03.666Z</time></trkpt><trkpt lat="44.6902233" lon="9.219045"><ele>1257.25</ele><time>2026-04-21T16:26:04.667Z</time></trkpt><trkpt lat="44.6903183" lon="9.219145"><ele>1260.5</ele><time>2026-04-21T16:26:05.667Z</time></trkpt><trkpt lat="44.6904033" lon="9.2192483"><ele>1263.75</ele><time>2026-04-21T16:26:06.667Z</time></trkpt><trkpt lat="44.690485" lon="9.2193633"><ele>1267.0</ele><time>2026-04-21T16:26:07.666Z</time></trkpt><trkpt lat="44.690565" lon="9.2195133"><ele>1267.0</ele><time>2026-04-21T16:26:08.666Z</time></trkpt><trkpt lat="44.690645" lon="9.2196467"><ele>1267.0</ele><time>2026-04-21T16:26:09.666Z</time></trkpt><trkpt lat="44.690705" lon="9.2197883"><ele>1267.0</ele><time>2026-04-21T16:26:10.666Z</time></trkpt><trkpt lat="44.6907517" lon="9.219925"><ele>1267.0</ele><time>2026-04-21T16:26:11.667Z</time></trkpt><trkpt lat="44.69079" lon="9.2200517"><ele>1267.0</ele><time>2026-04-21T16:26:12.667Z</time></trkpt><trkpt lat="44.6908317" lon="9.2201417"><ele>1262.8</ele><time>2026-04-21T16:26:13.666Z</time></trkpt><trkpt lat="44.6908883" lon="9.220185"><ele>1258.6</ele><time>2026-04-21T16:26:14.667Z</time></trkpt><trkpt lat="44.690965" lon="9.2201933"><ele>1254.3999999999999</ele><time>2026-04-21T16:26:15.666Z</time></trkpt><trkpt lat="44.6910633" lon="9.22018"><ele>1250.2</ele><time>2026-04-21T16:26:16.666Z</time></trkpt><trkpt lat="44.6911783" lon="9.2201367"><ele>1246.0</ele><time>2026-04-21T16:26:17.667Z</time></trkpt><trkpt lat="44.6912817" lon="9.22007"><ele>1246.0</ele><time>2026-04-21T16:26:18.666Z</time></trkpt><trkpt lat="44.69138" lon="9.2200183"><ele>1246.0</ele><time>2026-04-21T16:26:19.666Z</time></trkpt><trkpt lat="44.6914817" lon="9.2200183"><ele>1246.0</ele><time>2026-04-21T16:26:20.667Z</time></trkpt><trkpt lat="44.6915517" lon="9.2200533"><ele>1246.0</ele><time>2026-04-21T16:26:21.666Z</time></trkpt><trkpt lat="44.6916133" lon="9.2201183"><ele>1246.0</ele><time>2026-04-21T16:26:22.666Z</time></trkpt><trkpt lat="44.691695" lon="9.2201817"><ele>1246.0</ele><time>2026-04-21T16:26:23.666Z</time></trkpt><trkpt lat="44.691785" lon="9.2202433"><ele>1246.0</ele><time>2026-04-21T16:26:24.667Z</time></trkpt><trkpt lat="44.6918667" lon="9.2203183"><ele>1246.0</ele><time>2026-04-21T16:26:25.667Z</time></trkpt><trkpt lat="44.6919367" lon="9.2204"><ele>1246.0</ele><time>2026-04-21T16:26:26.666Z</time></trkpt><trkpt lat="44.6920167" lon="9.2204817"><ele>1246.0</ele><time>2026-04-21T16:26:27.666Z</time></trkpt><trkpt lat="44.69211" lon="9.22055"><ele>1247.6</ele><time>2026-04-21T16:26:28.666Z</time></trkpt><trkpt lat="44.6921983" lon="9.2206183"><ele>1249.1999999999998</ele><time>2026-04-21T16:26:29.666Z</time></trkpt><trkpt lat="44.6922767" lon="9.2207033"><ele>1250.8000000000002</ele><time>2026-04-21T16:26:30.666Z</time></trkpt><trkpt lat="44.6923433" lon="9.220805"><ele>1252.4</ele><time>2026-04-21T16:26:31.666Z</time></trkpt><trkpt lat="44.69239" lon="9.2209183"><ele>1254.0</ele><time>2026-04-21T16:26:32.666Z</time></trkpt><trkpt lat="44.6924383" lon="9.2210283"><ele>1251.8</ele><time>2026-04-21T16:26:33.666Z</time></trkpt><trkpt lat="44.6925033" lon="9.2211217"><ele>1249.6000000000001</ele><time>2026-04-21T16:26:34.667Z</time></trkpt><trkpt lat="44.6925917" lon="9.2212"><ele>1247.4</ele><time>2026-04-21T16:26:35.667Z</time></trkpt><trkpt lat="44.6926933" lon="9.2212817"><ele>1245.2</ele><time>2026-04-21T16:26:36.667Z</time></trkpt><trkpt lat="44.6927833" lon="9.22137"><ele>1243.0</ele><time>2026-04-21T16:26:37.666Z</time></trkpt><trkpt lat="44.6928633" lon="9.22147"><ele>1239.8</ele><time>2026-04-21T16:26:38.666Z</time></trkpt><trkpt lat="44.692935" lon="9.2215767"><ele>1236.6</ele><time>2026-04-21T16:26:39.666Z</time></trkpt><trkpt lat="44.6929967" lon="9.2217017"><ele>1233.4</ele><time>2026-04-21T16:26:40.666Z</time></trkpt><trkpt lat="44.69306" lon="9.2218117"><ele>1230.2</ele><time>2026-04-21T16:26:41.666Z</time></trkpt><trkpt lat="44.6931283" lon="9.22189"><ele>1227.0</ele><time>2026-04-21T16:26:42.666Z</time></trkpt><trkpt lat="44.6932217" lon="9.2219517"><ele>1227.0</ele><time>2026-04-21T16:26:43.666Z</time></trkpt><trkpt lat="44.69333" lon="9.222"><ele>1227.0</ele><time>2026-04-21T16:26:44.667Z</time></trkpt><trkpt lat="44.6934383" lon="9.2220233"><ele>1227.0</ele><time>2026-04-21T16:26:45.666Z</time></trkpt><trkpt lat="44.6935417" lon="9.2220283"><ele>1227.0</ele><time>2026-04-21T16:26:46.667Z</time></trkpt><trkpt lat="44.693635" lon="9.2219967"><ele>1227.0</ele><time>2026-04-21T16:26:47.667Z</time></trkpt><trkpt lat="44.6937117" lon="9.22192"><ele>1223.0</ele><time>2026-04-21T16:26:48.666Z</time></trkpt><trkpt lat="44.6937967" lon="9.221825"><ele>1219.0</ele><time>2026-04-21T16:26:49.667Z</time></trkpt><trkpt lat="44.6938917" lon="9.2216983"><ele>1215.0</ele><time>2026-04-21T16:26:50.666Z</time></trkpt><trkpt lat="44.69398" lon="9.221585"><ele>1211.0</ele><time>2026-04-21T16:26:51.666Z</time></trkpt><trkpt lat="44.6940717" lon="9.2215083"><ele>1210.5</ele><time>2026-04-21T16:26:52.666Z</time></trkpt><trkpt lat="44.69416" lon="9.221475"><ele>1210.0</ele><time>2026-04-21T16:26:53.666Z</time></trkpt><trkpt lat="44.694255" lon="9.2214767"><ele>1209.5</ele><time>2026-04-21T16:26:54.666Z</time></trkpt><trkpt lat="44.6943367" lon="9.2214583"><ele>1209.0</ele><time>2026-04-21T16:26:55.667Z</time></trkpt><trkpt lat="44.6944133" lon="9.22144"><ele>1208.5</ele><time>2026-04-21T16:26:56.666Z</time></trkpt><trkpt lat="44.694465" lon="9.22138"><ele>1208.0</ele><time>2026-04-21T16:26:57.667Z</time></trkpt><trkpt lat="44.6945" lon="9.221295"><ele>1208.0</ele><time>2026-04-21T16:26:58.667Z</time></trkpt><trkpt lat="44.694525" lon="9.2211917"><ele>1208.0</ele><time>2026-04-21T16:26:59.667Z</time></trkpt><trkpt lat="44.694545" lon="9.2210967"><ele>1208.0</ele><time>2026-04-21T16:27:00.667Z</time></trkpt><trkpt lat="44.694595" lon="9.22101"><ele>1208.0</ele><time>2026-04-21T16:27:02.667Z</time></trkpt><trkpt lat="44.694665" lon="9.2210867"><ele>1208.0</ele><time>2026-04-21T16:27:05.667Z</time></trkpt><trkpt lat="44.6946183" lon="9.2212733"><ele>1208.0</ele><time>2026-04-21T16:27:07.667Z</time></trkpt><trkpt lat="44.6945783" lon="9.2214033"><ele>1208.0</ele><time>2026-04-21T16:27:08.666Z</time></trkpt><trkpt lat="44.6945217" lon="9.2215317"><ele>1208.0</ele><time>2026-04-21T16:27:09.666Z</time></trkpt><trkpt lat="44.6944533" lon="9.2216633"><ele>1208.0</ele><time>2026-04-21T16:27:10.667Z</time></trkpt><trkpt lat="44.694375" lon="9.2217917"><ele>1208.0</ele><time>2026-04-21T16:27:11.667Z</time></trkpt><trkpt lat="44.6943067" lon="9.221915"><ele>1208.6</ele><time>2026-04-21T16:27:12.667Z</time></trkpt><trkpt lat="44.6942417" lon="9.2220417"><ele>1209.1999999999998</ele><time>2026-04-21T16:27:13.667Z</time></trkpt><trkpt lat="44.69417" lon="9.2221633"><ele>1209.8</ele><time>2026-04-21T16:27:14.666Z</time></trkpt><trkpt lat="44.69411" lon="9.2222983"><ele>1210.3999999999999</ele><time>2026-04-21T16:27:15.666Z</time></trkpt><trkpt lat="44.69405" lon="9.2224133"><ele>1211.0</ele><time>2026-04-21T16:27:16.667Z</time></trkpt><trkpt lat="44.6939917" lon="9.22251"><ele>1209.8</ele><time>2026-04-21T16:27:17.667Z</time></trkpt><trkpt lat="44.6939283" lon="9.2226017"><ele>1208.6</ele><time>2026-04-21T16:27:18.666Z</time></trkpt><trkpt lat="44.69385" lon="9.2226767"><ele>1207.4</ele><time>2026-04-21T16:27:19.667Z</time></trkpt><trkpt lat="44.6937633" lon="9.2227533"><ele>1206.2</ele><time>2026-04-21T16:27:20.667Z</time></trkpt><trkpt lat="44.6936683" lon="9.2228133"><ele>1205.0</ele><time>2026-04-21T16:27:21.667Z</time></trkpt><trkpt lat="44.6935783" lon="9.2228517"><ele>1205.0</ele><time>2026-04-21T16:27:22.666Z</time></trkpt><trkpt lat="44.6934733" lon="9.2228667"><ele>1205.0</ele><time>2026-04-21T16:27:23.667Z</time></trkpt><trkpt lat="44.6933617" lon="9.2228617"><ele>1205.0</ele><time>2026-04-21T16:27:24.667Z</time></trkpt><trkpt lat="44.6932417" lon="9.2228383"><ele>1205.0</ele><time>2026-04-21T16:27:25.667Z</time></trkpt><trkpt lat="44.69313" lon="9.2228017"><ele>1205.0</ele><time>2026-04-21T16:27:26.666Z</time></trkpt><trkpt lat="44.6930167" lon="9.22276"><ele>1205.0</ele><time>2026-04-21T16:27:27.667Z</time></trkpt><trkpt lat="44.692915" lon="9.2227117"><ele>1205.0</ele><time>2026-04-21T16:27:28.666Z</time></trkpt><trkpt lat="44.6928133" lon="9.22267"><ele>1205.0</ele><time>2026-04-21T16:27:29.666Z</time></trkpt><trkpt lat="44.69272" lon="9.2226233"><ele>1205.0</ele><time>2026-04-21T16:27:30.666Z</time></trkpt><trkpt lat="44.69262" lon="9.2225733"><ele>1207.25</ele><time>2026-04-21T16:27:31.667Z</time></trkpt><trkpt lat="44.6925117" lon="9.2225167"><ele>1209.5</ele><time>2026-04-21T16:27:32.667Z</time></trkpt><trkpt lat="44.692405" lon="9.2224467"><ele>1211.75</ele><time>2026-04-21T16:27:33.667Z</time></trkpt><trkpt lat="44.6923033" lon="9.2223583"><ele>1214.0</ele><time>2026-04-21T16:27:34.666Z</time></trkpt><trkpt lat="44.6922117" lon="9.2222667"><ele>1214.0</ele><time>2026-04-21T16:27:35.666Z</time></trkpt><trkpt lat="44.6921333" lon="9.2221917"><ele>1214.0</ele><time>2026-04-21T16:27:36.666Z</time></trkpt><trkpt lat="44.69205" lon="9.22214"><ele>1214.0</ele><time>2026-04-21T16:27:37.666Z</time></trkpt><trkpt lat="44.6919683" lon="9.2221033"><ele>1214.0</ele><time>2026-04-21T16:27:38.666Z</time></trkpt><trkpt lat="44.6918967" lon="9.2221083"><ele>1214.0</ele><time>2026-04-21T16:27:39.667Z</time></trkpt><trkpt lat="44.691825" lon="9.22215"><ele>1214.0</ele><time>2026-04-21T16:27:40.667Z</time></trkpt><trkpt lat="44.6917517" lon="9.2222133"><ele>1211.0</ele><time>2026-04-21T16:27:41.667Z</time></trkpt><trkpt lat="44.69167" lon="9.2222783"><ele>1208.0</ele><time>2026-04-21T16:27:42.667Z</time></trkpt><trkpt lat="44.6915717" lon="9.222315"><ele>1205.0</ele><time>2026-04-21T16:27:43.667Z</time></trkpt><trkpt lat="44.6914667" lon="9.2223367"><ele>1202.0</ele><time>2026-04-21T16:27:44.666Z</time></trkpt><trkpt lat="44.6913617" lon="9.222335"><ele>1199.0</ele><time>2026-04-21T16:27:45.666Z</time></trkpt><trkpt lat="44.6912667" lon="9.22233"><ele>1195.8333333333335</ele><time>2026-04-21T16:27:46.667Z</time></trkpt><trkpt lat="44.6911883" lon="9.2223233"><ele>1192.6666666666667</ele><time>2026-04-21T16:27:47.666Z</time></trkpt><trkpt lat="44.69108" lon="9.22238"><ele>1189.5</ele><time>2026-04-21T16:27:49.666Z</time></trkpt><trkpt lat="44.6910367" lon="9.2224467"><ele>1186.3333333333333</ele><time>2026-04-21T16:27:50.667Z</time></trkpt><trkpt lat="44.6909917" lon="9.222545"><ele>1183.1666666666665</ele><time>2026-04-21T16:27:51.666Z</time></trkpt><trkpt lat="44.6909317" lon="9.222645"><ele>1180.0</ele><time>2026-04-21T16:27:52.666Z</time></trkpt><trkpt lat="44.6908667" lon="9.2227317"><ele>1179.0</ele><time>2026-04-21T16:27:53.666Z</time></trkpt><trkpt lat="44.6908133" lon="9.2228033"><ele>1178.0</ele><time>2026-04-21T16:27:54.667Z</time></trkpt><trkpt lat="44.6907683" lon="9.2229417"><ele>1177.0</ele><time>2026-04-21T16:27:56.666Z</time></trkpt><trkpt lat="44.6908" lon="9.2230583"><ele>1176.0</ele><time>2026-04-21T16:27:58.667Z</time></trkpt><trkpt lat="44.6909267" lon="9.2230717"><ele>1175.0</ele><time>2026-04-21T16:28:00.667Z</time></trkpt><trkpt lat="44.6910217" lon="9.2230083"><ele>1175.8333333333335</ele><time>2026-04-21T16:28:01.666Z</time></trkpt><trkpt lat="44.6911117" lon="9.2229167"><ele>1176.6666666666667</ele><time>2026-04-21T16:28:02.666Z</time></trkpt><trkpt lat="44.6911867" lon="9.2228483"><ele>1177.5</ele><time>2026-04-21T16:28:03.666Z</time></trkpt><trkpt lat="44.6912483" lon="9.2228183"><ele>1178.3333333333333</ele><time>2026-04-21T16:28:04.666Z</time></trkpt><trkpt lat="44.69131" lon="9.2227983"><ele>1179.1666666666665</ele><time>2026-04-21T16:28:05.666Z</time></trkpt><trkpt lat="44.6914083" lon="9.22284"><ele>1180.0</ele><time>2026-04-21T16:28:07.666Z</time></trkpt><trkpt lat="44.6914417" lon="9.2229517"><ele>1180.0</ele><time>2026-04-21T16:28:09.666Z</time></trkpt><trkpt lat="44.6913567" lon="9.2231167"><ele>1180.0</ele><time>2026-04-21T16:28:11.666Z</time></trkpt><trkpt lat="44.6912867" lon="9.2232233"><ele>1180.0</ele><time>2026-04-21T16:28:12.666Z</time></trkpt><trkpt lat="44.6912317" lon="9.22335"><ele>1180.0</ele><time>2026-04-21T16:28:13.666Z</time></trkpt><trkpt lat="44.691195" lon="9.22349"><ele>1176.6666666666665</ele><time>2026-04-21T16:28:14.666Z</time></trkpt><trkpt lat="44.6911733" lon="9.2236183"><ele>1173.3333333333333</ele><time>2026-04-21T16:28:15.666Z</time></trkpt><trkpt lat="44.6911667" lon="9.2237467"><ele>1170.0</ele><time>2026-04-21T16:28:16.667Z</time></trkpt><trkpt lat="44.6911783" lon="9.2238467"><ele>1166.6666666666667</ele><time>2026-04-21T16:28:17.667Z</time></trkpt><trkpt lat="44.6912067" lon="9.223945"><ele>1163.3333333333335</ele><time>2026-04-21T16:28:18.667Z</time></trkpt><trkpt lat="44.69126" lon="9.2240283"><ele>1160.0</ele><time>2026-04-21T16:28:19.666Z</time></trkpt><trkpt lat="44.6913533" lon="9.2240833"><ele>1158.2</ele><time>2026-04-21T16:28:20.666Z</time></trkpt><trkpt lat="44.6914633" lon="9.2241383"><ele>1156.4</ele><time>2026-04-21T16:28:21.667Z</time></trkpt><trkpt lat="44.6915633" lon="9.2242"><ele>1154.6</ele><time>2026-04-21T16:28:22.666Z</time></trkpt><trkpt lat="44.6916533" lon="9.2242567"><ele>1152.8</ele><time>2026-04-21T16:28:23.666Z</time></trkpt><trkpt lat="44.6917183" lon="9.2243"><ele>1151.0</ele><time>2026-04-21T16:28:24.666Z</time></trkpt><trkpt lat="44.6917867" lon="9.224315"><ele>1151.0</ele><time>2026-04-21T16:28:25.666Z</time></trkpt><trkpt lat="44.6918617" lon="9.2242167"><ele>1151.0</ele><time>2026-04-21T16:28:27.666Z</time></trkpt><trkpt lat="44.691875" lon="9.2241283"><ele>1151.0</ele><time>2026-04-21T16:28:28.667Z</time></trkpt><trkpt lat="44.6918667" lon="9.22401"><ele>1151.0</ele><time>2026-04-21T16:28:29.666Z</time></trkpt><trkpt lat="44.6918417" lon="9.2238783"><ele>1151.0</ele><time>2026-04-21T16:28:30.666Z</time></trkpt><trkpt lat="44.691825" lon="9.2237683"><ele>1151.0</ele><time>2026-04-21T16:28:31.666Z</time></trkpt><trkpt lat="44.6918217" lon="9.2236733"><ele>1152.8</ele><time>2026-04-21T16:28:32.666Z</time></trkpt><trkpt lat="44.6918767" lon="9.2235567"><ele>1154.6</ele><time>2026-04-21T16:28:34.667Z</time></trkpt><trkpt lat="44.6919733" lon="9.2235933"><ele>1156.4</ele><time>2026-04-21T16:28:36.667Z</time></trkpt><trkpt lat="44.6920183" lon="9.22368"><ele>1158.2</ele><time>2026-04-21T16:28:37.666Z</time></trkpt><trkpt lat="44.692055" lon="9.2237933"><ele>1160.0</ele><time>2026-04-21T16:28:38.666Z</time></trkpt><trkpt lat="44.6921067" lon="9.2239367"><ele>1156.75</ele><time>2026-04-21T16:28:39.666Z</time></trkpt><trkpt lat="44.69217" lon="9.2240833"><ele>1153.5</ele><time>2026-04-21T16:28:40.666Z</time></trkpt><trkpt lat="44.6922417" lon="9.224235"><ele>1150.25</ele><time>2026-04-21T16:28:41.667Z</time></trkpt><trkpt lat="44.6923167" lon="9.2243617"><ele>1147.0</ele><time>2026-04-21T16:28:42.667Z</time></trkpt><trkpt lat="44.69239" lon="9.2244833"><ele>1147.0</ele><time>2026-04-21T16:28:43.667Z</time></trkpt><trkpt lat="44.6924567" lon="9.2245933"><ele>1147.0</ele><time>2026-04-21T16:28:44.666Z</time></trkpt><trkpt lat="44.69252" lon="9.2247033"><ele>1147.0</ele><time>2026-04-21T16:28:45.667Z</time></trkpt><trkpt lat="44.6925783" lon="9.224805"><ele>1147.0</ele><time>2026-04-21T16:28:46.666Z</time></trkpt><trkpt lat="44.6926183" lon="9.2248983"><ele>1147.0</ele><time>2026-04-21T16:28:47.667Z</time></trkpt><trkpt lat="44.692615" lon="9.2250583"><ele>1145.4</ele><time>2026-04-21T16:28:49.666Z</time></trkpt><trkpt lat="44.6925717" lon="9.225125"><ele>1143.8000000000002</ele><time>2026-04-21T16:28:50.666Z</time></trkpt><trkpt lat="44.6925017" lon="9.2251733"><ele>1142.2</ele><time>2026-04-21T16:28:51.667Z</time></trkpt><trkpt lat="44.69241" lon="9.225185"><ele>1140.6000000000001</ele><time>2026-04-21T16:28:52.667Z</time></trkpt><trkpt lat="44.6923017" lon="9.2251667"><ele>1139.0</ele><time>2026-04-21T16:28:53.666Z</time></trkpt><trkpt lat="44.6921883" lon="9.2251317"><ele>1139.0</ele><time>2026-04-21T16:28:54.667Z</time></trkpt><trkpt lat="44.6920717" lon="9.2250783"><ele>1139.0</ele><time>2026-04-21T16:28:55.667Z</time></trkpt><trkpt lat="44.6919617" lon="9.2250067"><ele>1139.0</ele><time>2026-04-21T16:28:56.667Z</time></trkpt><trkpt lat="44.691845" lon="9.22493"><ele>1139.0</ele><time>2026-04-21T16:28:57.667Z</time></trkpt><trkpt lat="44.6917183" lon="9.2248833"><ele>1136.3333333333335</ele><time>2026-04-21T16:28:58.667Z</time></trkpt><trkpt lat="44.69158" lon="9.2248433"><ele>1133.6666666666667</ele><time>2026-04-21T16:28:59.666Z</time></trkpt><trkpt lat="44.6914283" lon="9.22481"><ele>1131.0</ele><time>2026-04-21T16:29:00.666Z</time></trkpt><trkpt lat="44.6912683" lon="9.2247717"><ele>1134.6</ele><time>2026-04-21T16:29:01.667Z</time></trkpt><trkpt lat="44.6911367" lon="9.2247417"><ele>1138.1999999999998</ele><time>2026-04-21T16:29:02.667Z</time></trkpt><trkpt lat="44.6910233" lon="9.22472"><ele>1141.8000000000002</ele><time>2026-04-21T16:29:03.666Z</time></trkpt><trkpt lat="44.690925" lon="9.2247083"><ele>1145.4</ele><time>2026-04-21T16:29:04.666Z</time></trkpt><trkpt lat="44.6908333" lon="9.2247"><ele>1149.0</ele><time>2026-04-21T16:29:05.667Z</time></trkpt><trkpt lat="44.690745" lon="9.2246683"><ele>1149.0</ele><time>2026-04-21T16:29:06.666Z</time></trkpt><trkpt lat="44.6906583" lon="9.2245967"><ele>1149.0</ele><time>2026-04-21T16:29:07.667Z</time></trkpt><trkpt lat="44.69057" lon="9.224495"><ele>1149.0</ele><time>2026-04-21T16:29:08.666Z</time></trkpt><trkpt lat="44.69048" lon="9.2243983"><ele>1149.0</ele><time>2026-04-21T16:29:09.667Z</time></trkpt><trkpt lat="44.6903933" lon="9.2243317"><ele>1149.0</ele><time>2026-04-21T16:29:10.666Z</time></trkpt><trkpt lat="44.6903267" lon="9.2243033"><ele>1149.0</ele><time>2026-04-21T16:29:11.666Z</time></trkpt><trkpt lat="44.690245" lon="9.22436"><ele>1149.0</ele><time>2026-04-21T16:29:13.666Z</time></trkpt><trkpt lat="44.6902483" lon="9.224525"><ele>1149.0</ele><time>2026-04-21T16:29:15.666Z</time></trkpt><trkpt lat="44.6902983" lon="9.2246117"><ele>1149.0</ele><time>2026-04-21T16:29:16.666Z</time></trkpt><trkpt lat="44.6903733" lon="9.2246767"><ele>1149.0</ele><time>2026-04-21T16:29:17.666Z</time></trkpt><trkpt lat="44.6904667" lon="9.2247267"><ele>1149.0</ele><time>2026-04-21T16:29:18.667Z</time></trkpt><trkpt lat="44.6905717" lon="9.2247983"><ele>1149.0</ele><time>2026-04-21T16:29:19.666Z</time></trkpt><trkpt lat="44.6906733" lon="9.2248667"><ele>1149.0</ele><time>2026-04-21T16:29:20.667Z</time></trkpt><trkpt lat="44.690775" lon="9.2249333"><ele>1149.0</ele><time>2026-04-21T16:29:21.666Z</time></trkpt><trkpt lat="44.6908717" lon="9.225"><ele>1149.0</ele><time>2026-04-21T16:29:22.666Z</time></trkpt><trkpt lat="44.6909617" lon="9.2250617"><ele>1144.5</ele><time>2026-04-21T16:29:23.666Z</time></trkpt><trkpt lat="44.6910533" lon="9.2251217"><ele>1140.0</ele><time>2026-04-21T16:29:24.667Z</time></trkpt><trkpt lat="44.6911583" lon="9.2251833"><ele>1135.5</ele><time>2026-04-21T16:29:25.667Z</time></trkpt><trkpt lat="44.6912717" lon="9.2252433"><ele>1131.0</ele><time>2026-04-21T16:29:26.666Z</time></trkpt><trkpt lat="44.6913883" lon="9.2252983"><ele>1131.0</ele><time>2026-04-21T16:29:27.667Z</time></trkpt><trkpt lat="44.6915017" lon="9.22534"><ele>1131.0</ele><time>2026-04-21T16:29:28.667Z</time></trkpt><trkpt lat="44.6916183" lon="9.2253617"><ele>1131.0</ele><time>2026-04-21T16:29:29.666Z</time></trkpt><trkpt lat="44.69172" lon="9.2253867"><ele>1131.0</ele><time>2026-04-21T16:29:30.667Z</time></trkpt><trkpt lat="44.6918233" lon="9.2253983"><ele>1131.0</ele><time>2026-04-21T16:29:31.666Z</time></trkpt><trkpt lat="44.69192" lon="9.225425"><ele>1132.3333333333333</ele><time>2026-04-21T16:29:32.666Z</time></trkpt><trkpt lat="44.6919983" lon="9.2254717"><ele>1133.6666666666667</ele><time>2026-04-21T16:29:33.666Z</time></trkpt><trkpt lat="44.692065" lon="9.2255233"><ele>1135.0</ele><time>2026-04-21T16:29:34.666Z</time></trkpt><trkpt lat="44.69213" lon="9.225595"><ele>1136.3333333333335</ele><time>2026-04-21T16:29:35.666Z</time></trkpt><trkpt lat="44.6921967" lon="9.225685"><ele>1137.6666666666667</ele><time>2026-04-21T16:29:36.667Z</time></trkpt><trkpt lat="44.6922783" lon="9.225775"><ele>1139.0</ele><time>2026-04-21T16:29:37.666Z</time></trkpt><trkpt lat="44.6923733" lon="9.2258583"><ele>1134.6000000000001</ele><time>2026-04-21T16:29:38.667Z</time></trkpt><trkpt lat="44.6924633" lon="9.2259417"><ele>1130.2</ele><time>2026-04-21T16:29:39.667Z</time></trkpt><trkpt lat="44.6925433" lon="9.226035"><ele>1125.8000000000002</ele><time>2026-04-21T16:29:40.667Z</time></trkpt><trkpt lat="44.692615" lon="9.2261367"><ele>1121.4</ele><time>2026-04-21T16:29:41.667Z</time></trkpt><trkpt lat="44.6926883" lon="9.2262383"><ele>1117.0</ele><time>2026-04-21T16:29:42.667Z</time></trkpt><trkpt lat="44.692765" lon="9.226305"><ele>1116.0</ele><time>2026-04-21T16:29:43.666Z</time></trkpt><trkpt lat="44.69284" lon="9.2263533"><ele>1115.0</ele><time>2026-04-21T16:29:44.666Z</time></trkpt><trkpt lat="44.6929067" lon="9.2263683"><ele>1114.0</ele><time>2026-04-21T16:29:45.666Z</time></trkpt><trkpt lat="44.6929733" lon="9.2263533"><ele>1113.0</ele><time>2026-04-21T16:29:46.666Z</time></trkpt><trkpt lat="44.69309" lon="9.2262767"><ele>1112.0</ele><time>2026-04-21T16:29:48.667Z</time></trkpt><trkpt lat="44.693155" lon="9.226195"><ele>1111.0</ele><time>2026-04-21T16:29:49.667Z</time></trkpt><trkpt lat="44.6932217" lon="9.2260933"><ele>1111.0</ele><time>2026-04-21T16:29:50.666Z</time></trkpt><trkpt lat="44.6933033" lon="9.225985"><ele>1111.0</ele><time>2026-04-21T16:29:51.666Z</time></trkpt><trkpt lat="44.69338" lon="9.2258767"><ele>1111.0</ele><time>2026-04-21T16:29:52.667Z</time></trkpt><trkpt lat="44.6934317" lon="9.2257783"><ele>1111.0</ele><time>2026-04-21T16:29:53.666Z</time></trkpt><trkpt lat="44.6934767" lon="9.225695"><ele>1111.0</ele><time>2026-04-21T16:29:54.666Z</time></trkpt><trkpt lat="44.69354" lon="9.2255733"><ele>1110.3999999999999</ele><time>2026-04-21T16:29:56.667Z</time></trkpt><trkpt lat="44.69362" lon="9.2255333"><ele>1109.8</ele><time>2026-04-21T16:29:58.667Z</time></trkpt><trkpt lat="44.6937183" lon="9.2256183"><ele>1109.1999999999998</ele><time>2026-04-21T16:30:00.666Z</time></trkpt><trkpt lat="44.6937817" lon="9.2257067"><ele>1108.6</ele><time>2026-04-21T16:30:01.666Z</time></trkpt><trkpt lat="44.6938583" lon="9.2258083"><ele>1108.0</ele><time>2026-04-21T16:30:02.667Z</time></trkpt><trkpt lat="44.6939633" lon="9.22593"><ele>1108.0</ele><time>2026-04-21T16:30:03.666Z</time></trkpt><trkpt lat="44.694075" lon="9.226045"><ele>1108.0</ele><time>2026-04-21T16:30:04.667Z</time></trkpt><trkpt lat="44.6941833" lon="9.2261567"><ele>1108.0</ele><time>2026-04-21T16:30:05.666Z</time></trkpt><trkpt lat="44.6942817" lon="9.2262567"><ele>1108.0</ele><time>2026-04-21T16:30:06.667Z</time></trkpt><trkpt lat="44.6943717" lon="9.2263567"><ele>1109.2</ele><time>2026-04-21T16:30:07.666Z</time></trkpt><trkpt lat="44.694465" lon="9.2264417"><ele>1110.4</ele><time>2026-04-21T16:30:08.666Z</time></trkpt><trkpt lat="44.6945517" lon="9.22652"><ele>1111.6000000000001</ele><time>2026-04-21T16:30:09.666Z</time></trkpt><trkpt lat="44.69464" lon="9.2265967"><ele>1112.8</ele><time>2026-04-21T16:30:10.667Z</time></trkpt><trkpt lat="44.69473" lon="9.2266617"><ele>1114.0</ele><time>2026-04-21T16:30:11.667Z</time></trkpt><trkpt lat="44.6948133" lon="9.2267217"><ele>1109.4</ele><time>2026-04-21T16:30:12.666Z</time></trkpt><trkpt lat="44.6948933" lon="9.2267617"><ele>1104.8000000000002</ele><time>2026-04-21T16:30:13.666Z</time></trkpt><trkpt lat="44.6949667" lon="9.2267833"><ele>1100.1999999999998</ele><time>2026-04-21T16:30:14.666Z</time></trkpt><trkpt lat="44.695095" lon="9.226735"><ele>1095.6</ele><time>2026-04-21T16:30:16.667Z</time></trkpt><trkpt lat="44.6951733" lon="9.2266683"><ele>1091.0</ele><time>2026-04-21T16:30:17.667Z</time></trkpt><trkpt lat="44.695265" lon="9.2265683"><ele>1090.5</ele><time>2026-04-21T16:30:18.667Z</time></trkpt><trkpt lat="44.6953517" lon="9.22647"><ele>1090.0</ele><time>2026-04-21T16:30:19.666Z</time></trkpt><trkpt lat="44.69541" lon="9.2263883"><ele>1089.5</ele><time>2026-04-21T16:30:20.666Z</time></trkpt><trkpt lat="44.6954617" lon="9.2263233"><ele>1089.0</ele><time>2026-04-21T16:30:21.666Z</time></trkpt><trkpt lat="44.695525" lon="9.226295"><ele>1088.5</ele><time>2026-04-21T16:30:23.667Z</time></trkpt><trkpt lat="44.6955833" lon="9.226355"><ele>1088.0</ele><time>2026-04-21T16:30:25.666Z</time></trkpt><trkpt lat="44.6956317" lon="9.2265267"><ele>1088.0</ele><time>2026-04-21T16:30:27.666Z</time></trkpt><trkpt lat="44.6956467" lon="9.22668"><ele>1088.0</ele><time>2026-04-21T16:30:28.667Z</time></trkpt><trkpt lat="44.6956683" lon="9.22687"><ele>1088.0</ele><time>2026-04-21T16:30:29.667Z</time></trkpt><trkpt lat="44.6956867" lon="9.2270483"><ele>1088.0</ele><time>2026-04-21T16:30:30.667Z</time></trkpt><trkpt lat="44.6957183" lon="9.227225"><ele>1085.6</ele><time>2026-04-21T16:30:31.667Z</time></trkpt><trkpt lat="44.6957417" lon="9.227375"><ele>1083.1999999999998</ele><time>2026-04-21T16:30:32.667Z</time></trkpt><trkpt lat="44.6957617" lon="9.22752"><ele>1080.8</ele><time>2026-04-21T16:30:33.667Z</time></trkpt><trkpt lat="44.695775" lon="9.2276467"><ele>1078.3999999999999</ele><time>2026-04-21T16:30:34.666Z</time></trkpt><trkpt lat="44.6957783" lon="9.2277817"><ele>1076.0</ele><time>2026-04-21T16:30:35.667Z</time></trkpt><trkpt lat="44.6957883" lon="9.2278983"><ele>1076.0</ele><time>2026-04-21T16:30:36.666Z</time></trkpt><trkpt lat="44.69582" lon="9.2279967"><ele>1076.0</ele><time>2026-04-21T16:30:37.666Z</time></trkpt><trkpt lat="44.6958733" lon="9.2280567"><ele>1076.0</ele><time>2026-04-21T16:30:38.666Z</time></trkpt><trkpt lat="44.69594" lon="9.2280783"><ele>1076.0</ele><time>2026-04-21T16:30:39.667Z</time></trkpt><trkpt lat="44.6960117" lon="9.2280633"><ele>1076.0</ele><time>2026-04-21T16:30:40.666Z</time></trkpt><trkpt lat="44.6960767" lon="9.228"><ele>1076.0</ele><time>2026-04-21T16:30:41.667Z</time></trkpt><trkpt lat="44.6961283" lon="9.22792"><ele>1076.0</ele><time>2026-04-21T16:30:42.666Z</time></trkpt><trkpt lat="44.6961483" lon="9.2277967"><ele>1073.25</ele><time>2026-04-21T16:30:43.667Z</time></trkpt><trkpt lat="44.69616" lon="9.2276483"><ele>1070.5</ele><time>2026-04-21T16:30:44.666Z</time></trkpt><trkpt lat="44.69616" lon="9.2274767"><ele>1067.75</ele><time>2026-04-21T16:30:45.666Z</time></trkpt><trkpt lat="44.6961733" lon="9.227315"><ele>1065.0</ele><time>2026-04-21T16:30:46.666Z</time></trkpt><trkpt lat="44.696205" lon="9.2271717"><ele>1065.0</ele><time>2026-04-21T16:30:47.667Z</time></trkpt><trkpt lat="44.69625" lon="9.22703"><ele>1065.0</ele><time>2026-04-21T16:30:48.667Z</time></trkpt><trkpt lat="44.69632" lon="9.2268767"><ele>1065.0</ele><time>2026-04-21T16:30:49.666Z</time></trkpt><trkpt lat="44.6964" lon="9.2267383"><ele>1065.0</ele><time>2026-04-21T16:30:50.666Z</time></trkpt><trkpt lat="44.6964983" lon="9.22659"><ele>1069.0</ele><time>2026-04-21T16:30:51.666Z</time></trkpt><trkpt lat="44.6966" lon="9.22646"><ele>1073.0</ele><time>2026-04-21T16:30:52.667Z</time></trkpt><trkpt lat="44.6966983" lon="9.2263433"><ele>1077.0</ele><time>2026-04-21T16:30:53.667Z</time></trkpt><trkpt lat="44.6967933" lon="9.22623"><ele>1081.0</ele><time>2026-04-21T16:30:54.667Z</time></trkpt><trkpt lat="44.696885" lon="9.2261217"><ele>1081.3333333333333</ele><time>2026-04-21T16:30:55.667Z</time></trkpt><trkpt lat="44.696965" lon="9.2260383"><ele>1081.6666666666665</ele><time>2026-04-21T16:30:56.667Z</time></trkpt><trkpt lat="44.6970283" lon="9.2259633"><ele>1082.0</ele><time>2026-04-21T16:30:57.666Z</time></trkpt><trkpt lat="44.6970733" lon="9.2258867"><ele>1082.3333333333333</ele><time>2026-04-21T16:30:58.667Z</time></trkpt><trkpt lat="44.6970883" lon="9.2257417"><ele>1082.6666666666667</ele><time>2026-04-21T16:31:00.667Z</time></trkpt><trkpt lat="44.69708" lon="9.2256433"><ele>1083.0</ele><time>2026-04-21T16:31:01.667Z</time></trkpt><trkpt lat="44.69707" lon="9.2255317"><ele>1083.0</ele><time>2026-04-21T16:31:02.667Z</time></trkpt><trkpt lat="44.697075" lon="9.22542"><ele>1083.0</ele><time>2026-04-21T16:31:03.666Z</time></trkpt><trkpt lat="44.6971083" lon="9.2253333"><ele>1083.0</ele><time>2026-04-21T16:31:04.666Z</time></trkpt><trkpt lat="44.697165" lon="9.22527"><ele>1083.0</ele><time>2026-04-21T16:31:05.667Z</time></trkpt><trkpt lat="44.6972233" lon="9.22523"><ele>1083.0</ele><time>2026-04-21T16:31:06.666Z</time></trkpt><trkpt lat="44.6972917" lon="9.2251917"><ele>1083.0</ele><time>2026-04-21T16:31:07.667Z</time></trkpt><trkpt lat="44.697365" lon="9.2251633"><ele>1083.0</ele><time>2026-04-21T16:31:08.667Z</time></trkpt><trkpt lat="44.6974833" lon="9.2252333"><ele>1083.0</ele><time>2026-04-21T16:31:10.666Z</time></trkpt><trkpt lat="44.6975233" lon="9.22531"><ele>1083.0</ele><time>2026-04-21T16:31:11.667Z</time></trkpt><trkpt lat="44.6975367" lon="9.225425"><ele>1083.0</ele><time>2026-04-21T16:31:12.667Z</time></trkpt><trkpt lat="44.6975267" lon="9.2255617"><ele>1083.0</ele><time>2026-04-21T16:31:13.667Z</time></trkpt><trkpt lat="44.69755" lon="9.225715"><ele>1083.0</ele><time>2026-04-21T16:31:14.667Z</time></trkpt><trkpt lat="44.6975733" lon="9.2258583"><ele>1081.0</ele><time>2026-04-21T16:31:15.666Z</time></trkpt><trkpt lat="44.6976083" lon="9.2259917"><ele>1079.0</ele><time>2026-04-21T16:31:16.666Z</time></trkpt><trkpt lat="44.69765" lon="9.2261083"><ele>1077.0</ele><time>2026-04-21T16:31:17.667Z</time></trkpt><trkpt lat="44.6977017" lon="9.226215"><ele>1075.0</ele><time>2026-04-21T16:31:18.666Z</time></trkpt><trkpt lat="44.6977517" lon="9.226305"><ele>1073.0</ele><time>2026-04-21T16:31:19.667Z</time></trkpt><trkpt lat="44.6977717" lon="9.2263967"><ele>1071.0</ele><time>2026-04-21T16:31:20.666Z</time></trkpt><trkpt lat="44.6977433" lon="9.2265683"><ele>1073.3333333333333</ele><time>2026-04-21T16:31:22.666Z</time></trkpt><trkpt lat="44.6977383" lon="9.226665"><ele>1075.6666666666667</ele><time>2026-04-21T16:31:23.666Z</time></trkpt><trkpt lat="44.6977517" lon="9.22676"><ele>1078.0</ele><time>2026-04-21T16:31:24.666Z</time></trkpt><trkpt lat="44.6977917" lon="9.2268567"><ele>1080.3333333333335</ele><time>2026-04-21T16:31:25.667Z</time></trkpt><trkpt lat="44.697855" lon="9.22694"><ele>1082.6666666666667</ele><time>2026-04-21T16:31:26.666Z</time></trkpt><trkpt lat="44.6979483" lon="9.227005"><ele>1085.0</ele><time>2026-04-21T16:31:27.666Z</time></trkpt><trkpt lat="44.6980517" lon="9.2270717"><ele>1085.0</ele><time>2026-04-21T16:31:28.666Z</time></trkpt><trkpt lat="44.6981617" lon="9.2271633"><ele>1085.0</ele><time>2026-04-21T16:31:29.667Z</time></trkpt><trkpt lat="44.69827" lon="9.227265"><ele>1085.0</ele><time>2026-04-21T16:31:30.667Z</time></trkpt><trkpt lat="44.6983633" lon="9.2273733"><ele>1085.0</ele><time>2026-04-21T16:31:31.666Z</time></trkpt><trkpt lat="44.6984367" lon="9.2274783"><ele>1081.1666666666667</ele><time>2026-04-21T16:31:32.666Z</time></trkpt><trkpt lat="44.6984783" lon="9.2275917"><ele>1077.3333333333335</ele><time>2026-04-21T16:31:33.666Z</time></trkpt><trkpt lat="44.6985067" lon="9.2277067"><ele>1073.5</ele><time>2026-04-21T16:31:34.666Z</time></trkpt><trkpt lat="44.698515" lon="9.2278217"><ele>1069.6666666666667</ele><time>2026-04-21T16:31:35.666Z</time></trkpt><trkpt lat="44.6985217" lon="9.22794"><ele>1065.8333333333333</ele><time>2026-04-21T16:31:36.666Z</time></trkpt><trkpt lat="44.698525" lon="9.2280483"><ele>1062.0</ele><time>2026-04-21T16:31:37.667Z</time></trkpt><trkpt lat="44.6985833" lon="9.2281717"><ele>1062.0</ele><time>2026-04-21T16:31:39.666Z</time></trkpt><trkpt lat="44.69871" lon="9.2281717"><ele>1062.0</ele><time>2026-04-21T16:31:41.666Z</time></trkpt><trkpt lat="44.6987917" lon="9.2281217"><ele>1062.0</ele><time>2026-04-21T16:31:42.666Z</time></trkpt><trkpt lat="44.698875" lon="9.2280433"><ele>1062.0</ele><time>2026-04-21T16:31:43.667Z</time></trkpt><trkpt lat="44.698955" lon="9.2279517"><ele>1062.0</ele><time>2026-04-21T16:31:44.667Z</time></trkpt><trkpt lat="44.699015" lon="9.2278617"><ele>1062.0</ele><time>2026-04-21T16:31:45.666Z</time></trkpt><trkpt lat="44.6990483" lon="9.2277683"><ele>1062.0</ele><time>2026-04-21T16:31:46.667Z</time></trkpt><trkpt lat="44.6990667" lon="9.22768"><ele>1062.0</ele><time>2026-04-21T16:31:47.667Z</time></trkpt><trkpt lat="44.699095" lon="9.2275867"><ele>1062.0</ele><time>2026-04-21T16:31:48.667Z</time></trkpt><trkpt lat="44.6991283" lon="9.2274933"><ele>1062.0</ele><time>2026-04-21T16:31:49.666Z</time></trkpt><trkpt lat="44.6991683" lon="9.22741"><ele>1062.0</ele><time>2026-04-21T16:31:50.666Z</time></trkpt><trkpt lat="44.69921" lon="9.2273317"><ele>1062.0</ele><time>2026-04-21T16:31:51.666Z</time></trkpt><trkpt lat="44.699265" lon="9.2272467"><ele>1062.0</ele><time>2026-04-21T16:31:53.666Z</time></trkpt><trkpt lat="44.6993433" lon="9.22732"><ele>1062.0</ele><time>2026-04-21T16:31:56.666Z</time></trkpt><trkpt lat="44.6994133" lon="9.2274767"><ele>1062.0</ele><time>2026-04-21T16:31:58.666Z</time></trkpt><trkpt lat="44.69945" lon="9.227585"><ele>1062.0</ele><time>2026-04-21T16:31:59.666Z</time></trkpt><trkpt lat="44.69949" lon="9.22771"><ele>1062.0</ele><time>2026-04-21T16:32:00.667Z</time></trkpt><trkpt lat="44.6995433" lon="9.227835"><ele>1059.8</ele><time>2026-04-21T16:32:01.667Z</time></trkpt><trkpt lat="44.6995983" lon="9.2279567"><ele>1057.6</ele><time>2026-04-21T16:32:02.666Z</time></trkpt><trkpt lat="44.699655" lon="9.2280683"><ele>1055.3999999999999</ele><time>2026-04-21T16:32:03.667Z</time></trkpt><trkpt lat="44.6997067" lon="9.2281617"><ele>1053.2</ele><time>2026-04-21T16:32:04.666Z</time></trkpt><trkpt lat="44.699755" lon="9.228255"><ele>1051.0</ele><time>2026-04-21T16:32:05.668Z</time></trkpt><trkpt lat="44.6997917" lon="9.2283983"><ele>1051.0</ele><time>2026-04-21T16:32:07.667Z</time></trkpt><trkpt lat="44.6998033" lon="9.2284933"><ele>1051.0</ele><time>2026-04-21T16:32:08.668Z</time></trkpt><trkpt lat="44.6998383" lon="9.2285733"><ele>1051.0</ele><time>2026-04-21T16:32:09.668Z</time></trkpt><trkpt lat="44.699885" lon="9.2286583"><ele>1051.0</ele><time>2026-04-21T16:32:10.667Z</time></trkpt><trkpt lat="44.6999583" lon="9.2287267"><ele>1051.0</ele><time>2026-04-21T16:32:11.668Z</time></trkpt><trkpt lat="44.7000283" lon="9.2288017"><ele>1051.0</ele><time>2026-04-21T16:32:12.668Z</time></trkpt><trkpt lat="44.7000917" lon="9.2288767"><ele>1048.0</ele><time>2026-04-21T16:32:13.667Z</time></trkpt><trkpt lat="44.7001417" lon="9.2289767"><ele>1045.0</ele><time>2026-04-21T16:32:14.668Z</time></trkpt><trkpt lat="44.700175" lon="9.2291"><ele>1042.0</ele><time>2026-04-21T16:32:15.667Z</time></trkpt><trkpt lat="44.7001983" lon="9.2292617"><ele>1039.0</ele><time>2026-04-21T16:32:16.668Z</time></trkpt><trkpt lat="44.70022" lon="9.2294267"><ele>1036.0</ele><time>2026-04-21T16:32:17.668Z</time></trkpt><trkpt lat="44.7002367" lon="9.2295733"><ele>1036.2</ele><time>2026-04-21T16:32:18.667Z</time></trkpt><trkpt lat="44.7002533" lon="9.229675"><ele>1036.3999999999999</ele><time>2026-04-21T16:32:19.667Z</time></trkpt><trkpt lat="44.7003067" lon="9.2298317"><ele>1036.6</ele><time>2026-04-21T16:32:21.667Z</time></trkpt><trkpt lat="44.7003567" lon="9.22994"><ele>1036.8</ele><time>2026-04-21T16:32:22.667Z</time></trkpt><trkpt lat="44.7004083" lon="9.2300683"><ele>1037.0</ele><time>2026-04-21T16:32:23.667Z</time></trkpt><trkpt lat="44.7004383" lon="9.230195"><ele>1037.0</ele><time>2026-04-21T16:32:24.668Z</time></trkpt><trkpt lat="44.7004633" lon="9.2302967"><ele>1037.0</ele><time>2026-04-21T16:32:25.667Z</time></trkpt><trkpt lat="44.70053" lon="9.2303967"><ele>1037.0</ele><time>2026-04-21T16:32:27.667Z</time></trkpt><trkpt lat="44.7006283" lon="9.2303767"><ele>1037.0</ele><time>2026-04-21T16:32:29.667Z</time></trkpt><trkpt lat="44.7006983" lon="9.2303217"><ele>1037.0</ele><time>2026-04-21T16:32:30.668Z</time></trkpt><trkpt lat="44.7007717" lon="9.2302567"><ele>1037.0</ele><time>2026-04-21T16:32:31.667Z</time></trkpt><trkpt lat="44.700855" lon="9.2301883"><ele>1037.0</ele><time>2026-04-21T16:32:32.668Z</time></trkpt><trkpt lat="44.7009533" lon="9.2301233"><ele>1037.0</ele><time>2026-04-21T16:32:33.667Z</time></trkpt><trkpt lat="44.7010567" lon="9.230055"><ele>1037.0</ele><time>2026-04-21T16:32:34.667Z</time></trkpt><trkpt lat="44.7011533" lon="9.2299967"><ele>1037.0</ele><time>2026-04-21T16:32:35.667Z</time></trkpt><trkpt lat="44.701255" lon="9.2299417"><ele>1037.0</ele><time>2026-04-21T16:32:36.667Z</time></trkpt><trkpt lat="44.7013533" lon="9.2298867"><ele>1040.0</ele><time>2026-04-21T16:32:37.667Z</time></trkpt><trkpt lat="44.7014583" lon="9.22986"><ele>1043.0</ele><time>2026-04-21T16:32:38.667Z</time></trkpt><trkpt lat="44.7015533" lon="9.229855"><ele>1046.0</ele><time>2026-04-21T16:32:39.667Z</time></trkpt><trkpt lat="44.701645" lon="9.2298467"><ele>1049.0</ele><time>2026-04-21T16:32:40.667Z</time></trkpt><trkpt lat="44.7017133" lon="9.2298283"><ele>1052.0</ele><time>2026-04-21T16:32:41.668Z</time></trkpt><trkpt lat="44.7017733" lon="9.2297983"><ele>1055.0</ele><time>2026-04-21T16:32:42.667Z</time></trkpt><trkpt lat="44.7018317" lon="9.22975"><ele>1055.0</ele><time>2026-04-21T16:32:43.667Z</time></trkpt><trkpt lat="44.70189" lon="9.229685"><ele>1055.0</ele><time>2026-04-21T16:32:44.667Z</time></trkpt><trkpt lat="44.7019583" lon="9.2296133"><ele>1055.0</ele><time>2026-04-21T16:32:45.668Z</time></trkpt><trkpt lat="44.7020217" lon="9.2295267"><ele>1055.0</ele><time>2026-04-21T16:32:46.667Z</time></trkpt><trkpt lat="44.7020783" lon="9.229435"><ele>1055.0</ele><time>2026-04-21T16:32:47.667Z</time></trkpt><trkpt lat="44.7021217" lon="9.2293417"><ele>1055.0</ele><time>2026-04-21T16:32:48.667Z</time></trkpt><trkpt lat="44.7021667" lon="9.229245"><ele>1054.8333333333335</ele><time>2026-04-21T16:32:49.667Z</time></trkpt><trkpt lat="44.7022217" lon="9.2291467"><ele>1054.6666666666667</ele><time>2026-04-21T16:32:50.667Z</time></trkpt><trkpt lat="44.7022833" lon="9.22905"><ele>1054.5</ele><time>2026-04-21T16:32:51.668Z</time></trkpt><trkpt lat="44.702345" lon="9.228965"><ele>1054.3333333333333</ele><time>2026-04-21T16:32:52.668Z</time></trkpt><trkpt lat="44.7024" lon="9.2289"><ele>1054.1666666666665</ele><time>2026-04-21T16:32:53.668Z</time></trkpt><trkpt lat="44.70246" lon="9.22886"><ele>1054.0</ele><time>2026-04-21T16:32:54.667Z</time></trkpt><trkpt lat="44.7026067" lon="9.2288567"><ele>1054.0</ele><time>2026-04-21T16:32:56.667Z</time></trkpt><trkpt lat="44.7027067" lon="9.22889"><ele>1054.0</ele><time>2026-04-21T16:32:57.667Z</time></trkpt><trkpt lat="44.7028217" lon="9.2289733"><ele>1054.0</ele><time>2026-04-21T16:32:58.667Z</time></trkpt><trkpt lat="44.7029633" lon="9.2290983"><ele>1054.0</ele><time>2026-04-21T16:32:59.667Z</time></trkpt><trkpt lat="44.7030983" lon="9.2292267"><ele>1046.5</ele><time>2026-04-21T16:33:00.667Z</time></trkpt><trkpt lat="44.70321" lon="9.229355"><ele>1039.0</ele><time>2026-04-21T16:33:01.667Z</time></trkpt><trkpt lat="44.7033117" lon="9.2295167"><ele>1031.5</ele><time>2026-04-21T16:33:02.668Z</time></trkpt><trkpt lat="44.703385" lon="9.2296667"><ele>1024.0</ele><time>2026-04-21T16:33:03.667Z</time></trkpt><trkpt lat="44.7034467" lon="9.229815"><ele>1021.6666666666666</ele><time>2026-04-21T16:33:04.668Z</time></trkpt><trkpt lat="44.7035017" lon="9.2299083"><ele>1019.3333333333333</ele><time>2026-04-21T16:33:05.668Z</time></trkpt><trkpt lat="44.7035567" lon="9.2299783"><ele>1017.0</ele><time>2026-04-21T16:33:06.668Z</time></trkpt><trkpt lat="44.70362" lon="9.230015"><ele>1014.6666666666667</ele><time>2026-04-21T16:33:07.668Z</time></trkpt><trkpt lat="44.7036933" lon="9.2300267"><ele>1012.3333333333334</ele><time>2026-04-21T16:33:08.667Z</time></trkpt><trkpt lat="44.7037767" lon="9.2300367"><ele>1010.0</ele><time>2026-04-21T16:33:09.667Z</time></trkpt><trkpt lat="44.703865" lon="9.230065"><ele>1010.0000000000001</ele><time>2026-04-21T16:33:10.668Z</time></trkpt><trkpt lat="44.70394" lon="9.230105"><ele>1010.0</ele><time>2026-04-21T16:33:11.667Z</time></trkpt><trkpt lat="44.7040133" lon="9.2301917"><ele>1010.0</ele><time>2026-04-21T16:33:12.668Z</time></trkpt><trkpt lat="44.7040767" lon="9.2302883"><ele>1010.0</ele><time>2026-04-21T16:33:13.668Z</time></trkpt><trkpt lat="44.7041283" lon="9.230365"><ele>1010.0000000000001</ele><time>2026-04-21T16:33:14.667Z</time></trkpt><trkpt lat="44.70419" lon="9.230405"><ele>1010.0</ele><time>2026-04-21T16:33:16.667Z</time></trkpt><trkpt lat="44.7043083" lon="9.2303617"><ele>1010.0000000000001</ele><time>2026-04-21T16:33:18.667Z</time></trkpt><trkpt lat="44.7043833" lon="9.2303133"><ele>1010.0</ele><time>2026-04-21T16:33:19.667Z</time></trkpt><trkpt lat="44.7044617" lon="9.230265"><ele>1010.0</ele><time>2026-04-21T16:33:20.667Z</time></trkpt><trkpt lat="44.70454" lon="9.230225"><ele>1010.0</ele><time>2026-04-21T16:33:21.667Z</time></trkpt><trkpt lat="44.70461" lon="9.2302333"><ele>1010.0000000000001</ele><time>2026-04-21T16:33:22.667Z</time></trkpt><trkpt lat="44.7046683" lon="9.2302817"><ele>1010.0</ele><time>2026-04-21T16:33:23.668Z</time></trkpt><trkpt lat="44.7047317" lon="9.23038"><ele>1010.0</ele><time>2026-04-21T16:33:24.667Z</time></trkpt><trkpt lat="44.7048033" lon="9.2304833"><ele>1010.0</ele><time>2026-04-21T16:33:25.667Z</time></trkpt><trkpt lat="44.7048667" lon="9.23057"><ele>1010.0</ele><time>2026-04-21T16:33:26.667Z</time></trkpt><trkpt lat="44.7049267" lon="9.230635"><ele>1010.0</ele><time>2026-04-21T16:33:27.667Z</time></trkpt><trkpt lat="44.7050533" lon="9.230635"><ele>1010.0</ele><time>2026-04-21T16:33:29.667Z</time></trkpt><trkpt lat="44.7051333" lon="9.2305983"><ele>1010.0</ele><time>2026-04-21T16:33:30.667Z</time></trkpt><trkpt lat="44.705225" lon="9.23057"><ele>1010.0</ele><time>2026-04-21T16:33:31.667Z</time></trkpt><trkpt lat="44.7053467" lon="9.2305483"><ele>1010.0</ele><time>2026-04-21T16:33:32.668Z</time></trkpt><trkpt lat="44.7054733" lon="9.230535"><ele>1010.0</ele><time>2026-04-21T16:33:33.667Z</time></trkpt><trkpt lat="44.7055867" lon="9.2305317"><ele>1004.6</ele><time>2026-04-21T16:33:34.667Z</time></trkpt><trkpt lat="44.7056717" lon="9.230535"><ele>999.2</ele><time>2026-04-21T16:33:35.668Z</time></trkpt><trkpt lat="44.7057333" lon="9.230515"><ele>993.8</ele><time>2026-04-21T16:33:36.667Z</time></trkpt><trkpt lat="44.705795" lon="9.23043"><ele>988.4</ele><time>2026-04-21T16:33:38.668Z</time></trkpt><trkpt lat="44.7057933" lon="9.2302567"><ele>983.0</ele><time>2026-04-21T16:33:40.667Z</time></trkpt><trkpt lat="44.7057767" lon="9.2301183"><ele>983.0</ele><time>2026-04-21T16:33:42.668Z</time></trkpt><trkpt lat="44.7058183" lon="9.23001"><ele>983.0</ele><time>2026-04-21T16:33:44.667Z</time></trkpt><trkpt lat="44.70593" lon="9.2299517"><ele>983.0</ele><time>2026-04-21T16:33:46.667Z</time></trkpt><trkpt lat="44.706015" lon="9.2299467"><ele>983.0</ele><time>2026-04-21T16:33:47.667Z</time></trkpt><trkpt lat="44.7061167" lon="9.229955"><ele>983.0</ele><time>2026-04-21T16:33:48.667Z</time></trkpt><trkpt lat="44.7062467" lon="9.2299767"><ele>983.75</ele><time>2026-04-21T16:33:49.667Z</time></trkpt><trkpt lat="44.7063633" lon="9.2300283"><ele>984.5</ele><time>2026-04-21T16:33:50.668Z</time></trkpt><trkpt lat="44.7064817" lon="9.23009"><ele>985.25</ele><time>2026-04-21T16:33:51.667Z</time></trkpt><trkpt lat="44.7065917" lon="9.2301433"><ele>986.0</ele><time>2026-04-21T16:33:52.668Z</time></trkpt><trkpt lat="44.7066817" lon="9.2302017"><ele>986.0</ele><time>2026-04-21T16:33:53.667Z</time></trkpt><trkpt lat="44.7067567" lon="9.2302733"><ele>985.9999999999999</ele><time>2026-04-21T16:33:54.668Z</time></trkpt><trkpt lat="44.7068217" lon="9.230375"><ele>985.9999999999999</ele><time>2026-04-21T16:33:55.668Z</time></trkpt><trkpt lat="44.7068733" lon="9.2304883"><ele>986.0</ele><time>2026-04-21T16:33:56.667Z</time></trkpt><trkpt lat="44.70693" lon="9.230625"><ele>986.0</ele><time>2026-04-21T16:33:57.667Z</time></trkpt><trkpt lat="44.70698" lon="9.2307567"><ele>978.0</ele><time>2026-04-21T16:33:58.667Z</time></trkpt><trkpt lat="44.7070333" lon="9.2308917"><ele>969.9999999999999</ele><time>2026-04-21T16:33:59.667Z</time></trkpt><trkpt lat="44.7070867" lon="9.2310283"><ele>961.9999999999999</ele><time>2026-04-21T16:34:00.667Z</time></trkpt><trkpt lat="44.707135" lon="9.231145"><ele>954.0</ele><time>2026-04-21T16:34:01.668Z</time></trkpt><trkpt lat="44.7071717" lon="9.23125"><ele>946.0</ele><time>2026-04-21T16:34:02.667Z</time></trkpt><trkpt lat="44.707245" lon="9.2313517"><ele>945.9999999999999</ele><time>2026-04-21T16:34:04.668Z</time></trkpt><trkpt lat="44.7073217" lon="9.23133"><ele>946.0</ele><time>2026-04-21T16:34:06.667Z</time></trkpt><trkpt lat="44.707365" lon="9.23126"><ele>946.0</ele><time>2026-04-21T16:34:07.668Z</time></trkpt><trkpt lat="44.707405" lon="9.2311667"><ele>946.0</ele><time>2026-04-21T16:34:08.667Z</time></trkpt><trkpt lat="44.70745" lon="9.2310417"><ele>945.9999999999999</ele><time>2026-04-21T16:34:09.668Z</time></trkpt><trkpt lat="44.7074967" lon="9.2308917"><ele>946.0</ele><time>2026-04-21T16:34:10.668Z</time></trkpt><trkpt lat="44.7075383" lon="9.2307383"><ele>947.6666666666666</ele><time>2026-04-21T16:34:11.667Z</time></trkpt><trkpt lat="44.7075717" lon="9.2306217"><ele>949.3333333333333</ele><time>2026-04-21T16:34:12.667Z</time></trkpt><trkpt lat="44.707605" lon="9.23053"><ele>951.0</ele><time>2026-04-21T16:34:13.667Z</time></trkpt><trkpt lat="44.7076533" lon="9.23046"><ele>952.6666666666667</ele><time>2026-04-21T16:34:14.668Z</time></trkpt><trkpt lat="44.707715" lon="9.2304233"><ele>954.3333333333334</ele><time>2026-04-21T16:34:15.667Z</time></trkpt><trkpt lat="44.7077783" lon="9.2304067"><ele>956.0</ele><time>2026-04-21T16:34:16.667Z</time></trkpt><trkpt lat="44.7078867" lon="9.2303633"><ele>956.0</ele><time>2026-04-21T16:34:18.667Z</time></trkpt><trkpt lat="44.7079817" lon="9.230235"><ele>955.9999999999999</ele><time>2026-04-21T16:34:20.668Z</time></trkpt><trkpt lat="44.7080233" lon="9.2301617"><ele>955.9999999999999</ele><time>2026-04-21T16:34:21.667Z</time></trkpt><trkpt lat="44.708115" lon="9.2300917"><ele>956.0</ele><time>2026-04-21T16:34:23.668Z</time></trkpt><trkpt lat="44.7082317" lon="9.230135"><ele>956.0</ele><time>2026-04-21T16:34:25.667Z</time></trkpt><trkpt lat="44.7083067" lon="9.2301883"><ele>956.0</ele><time>2026-04-21T16:34:26.668Z</time></trkpt><trkpt lat="44.708405" lon="9.2302733"><ele>956.0</ele><time>2026-04-21T16:34:27.667Z</time></trkpt><trkpt lat="44.7084917" lon="9.230395"><ele>956.0</ele><time>2026-04-21T16:34:28.667Z</time></trkpt><trkpt lat="44.7085617" lon="9.2305333"><ele>956.0</ele><time>2026-04-21T16:34:29.668Z</time></trkpt><trkpt lat="44.7086117" lon="9.2306883"><ele>953.8</ele><time>2026-04-21T16:34:30.667Z</time></trkpt><trkpt lat="44.7086283" lon="9.2308333"><ele>951.5999999999999</ele><time>2026-04-21T16:34:31.667Z</time></trkpt><trkpt lat="44.70865" lon="9.23096"><ele>949.4</ele><time>2026-04-21T16:34:32.668Z</time></trkpt><trkpt lat="44.708675" lon="9.231085"><ele>947.2</ele><time>2026-04-21T16:34:33.667Z</time></trkpt><trkpt lat="44.7087167" lon="9.231205"><ele>945.0</ele><time>2026-04-21T16:34:34.667Z</time></trkpt><trkpt lat="44.7087667" lon="9.2313217"><ele>945.0</ele><time>2026-04-21T16:34:35.668Z</time></trkpt><trkpt lat="44.7088267" lon="9.2314383"><ele>945.0</ele><time>2026-04-21T16:34:36.668Z</time></trkpt><trkpt lat="44.7088733" lon="9.2315433"><ele>945.0</ele><time>2026-04-21T16:34:37.667Z</time></trkpt><trkpt lat="44.7089067" lon="9.2316533"><ele>945.0</ele><time>2026-04-21T16:34:38.667Z</time></trkpt><trkpt lat="44.7089283" lon="9.2317667"><ele>945.0</ele><time>2026-04-21T16:34:39.667Z</time></trkpt><trkpt lat="44.7089583" lon="9.2318517"><ele>945.0</ele><time>2026-04-21T16:34:40.667Z</time></trkpt><trkpt lat="44.7090467" lon="9.2319017"><ele>939.4</ele><time>2026-04-21T16:34:42.667Z</time></trkpt><trkpt lat="44.7091233" lon="9.2318967"><ele>933.8</ele><time>2026-04-21T16:34:43.668Z</time></trkpt><trkpt lat="44.70922" lon="9.23191"><ele>928.2</ele><time>2026-04-21T16:34:44.667Z</time></trkpt><trkpt lat="44.709335" lon="9.23193"><ele>922.6</ele><time>2026-04-21T16:34:45.667Z</time></trkpt><trkpt lat="44.70945" lon="9.2319517"><ele>917.0</ele><time>2026-04-21T16:34:46.667Z</time></trkpt><trkpt lat="44.7095433" lon="9.2319767"><ele>913.3333333333334</ele><time>2026-04-21T16:34:47.668Z</time></trkpt><trkpt lat="44.7096133" lon="9.2320033"><ele>909.6666666666667</ele><time>2026-04-21T16:34:48.667Z</time></trkpt><trkpt lat="44.70972" lon="9.23197"><ele>906.0</ele><time>2026-04-21T16:34:50.667Z</time></trkpt><trkpt lat="44.7097667" lon="9.2319067"><ele>902.3333333333333</ele><time>2026-04-21T16:34:51.667Z</time></trkpt><trkpt lat="44.70981" lon="9.231815"><ele>898.6666666666666</ele><time>2026-04-21T16:34:52.668Z</time></trkpt><trkpt lat="44.7098433" lon="9.2316817"><ele>895.0</ele><time>2026-04-21T16:34:53.667Z</time></trkpt><trkpt lat="44.7098583" lon="9.2315383"><ele>902.2</ele><time>2026-04-21T16:34:54.667Z</time></trkpt><trkpt lat="44.7098783" lon="9.231405"><ele>909.4</ele><time>2026-04-21T16:34:55.667Z</time></trkpt><trkpt lat="44.7098967" lon="9.2313067"><ele>916.5999999999999</ele><time>2026-04-21T16:34:56.668Z</time></trkpt><trkpt lat="44.7099633" lon="9.2312283"><ele>923.8</ele><time>2026-04-21T16:34:58.667Z</time></trkpt><trkpt lat="44.710095" lon="9.2312617"><ele>931.0</ele><time>2026-04-21T16:35:00.667Z</time></trkpt><trkpt lat="44.710175" lon="9.2312933"><ele>930.9999999999999</ele><time>2026-04-21T16:35:01.667Z</time></trkpt><trkpt lat="44.710255" lon="9.231315"><ele>931.0</ele><time>2026-04-21T16:35:02.667Z</time></trkpt><trkpt lat="44.7103283" lon="9.231295"><ele>931.0</ele><time>2026-04-21T16:35:03.667Z</time></trkpt><trkpt lat="44.710405" lon="9.2312517"><ele>931.0</ele><time>2026-04-21T16:35:04.667Z</time></trkpt><trkpt lat="44.7104733" lon="9.23118"><ele>930.9999999999999</ele><time>2026-04-21T16:35:05.667Z</time></trkpt><trkpt lat="44.71053" lon="9.2311283"><ele>931.0</ele><time>2026-04-21T16:35:06.668Z</time></trkpt><trkpt lat="44.71062" lon="9.2311283"><ele>931.0</ele><time>2026-04-21T16:35:08.667Z</time></trkpt><trkpt lat="44.7106683" lon="9.231195"><ele>930.9999999999999</ele><time>2026-04-21T16:35:09.668Z</time></trkpt><trkpt lat="44.7107083" lon="9.231285"><ele>930.9999999999999</ele><time>2026-04-21T16:35:10.667Z</time></trkpt><trkpt lat="44.7107433" lon="9.2314217"><ele>931.0</ele><time>2026-04-21T16:35:11.668Z</time></trkpt><trkpt lat="44.7107667" lon="9.23156"><ele>931.0</ele><time>2026-04-21T16:35:12.668Z</time></trkpt><trkpt lat="44.710775" lon="9.231715"><ele>924.0</ele><time>2026-04-21T16:35:13.667Z</time></trkpt><trkpt lat="44.71079" lon="9.2318633"><ele>916.9999999999999</ele><time>2026-04-21T16:35:14.667Z</time></trkpt><trkpt lat="44.710815" lon="9.232005"><ele>909.9999999999999</ele><time>2026-04-21T16:35:15.667Z</time></trkpt><trkpt lat="44.71085" lon="9.2321233"><ele>903.0</ele><time>2026-04-21T16:35:16.668Z</time></trkpt><trkpt lat="44.7108967" lon="9.232215"><ele>896.0</ele><time>2026-04-21T16:35:17.667Z</time></trkpt><trkpt lat="44.7109717" lon="9.2322883"><ele>893.5</ele><time>2026-04-21T16:35:18.667Z</time></trkpt><trkpt lat="44.7110817" lon="9.2323617"><ele>891.0</ele><time>2026-04-21T16:35:19.668Z</time></trkpt><trkpt lat="44.7112" lon="9.2324567"><ele>888.5</ele><time>2026-04-21T16:35:20.668Z</time></trkpt><trkpt lat="44.7113017" lon="9.2325567"><ele>886.0</ele><time>2026-04-21T16:35:21.667Z</time></trkpt><trkpt lat="44.7113883" lon="9.23265"><ele>886.0</ele><time>2026-04-21T16:35:22.667Z</time></trkpt><trkpt lat="44.7114867" lon="9.2327317"><ele>885.9999999999999</ele><time>2026-04-21T16:35:23.667Z</time></trkpt><trkpt lat="44.7115933" lon="9.2328033"><ele>885.9999999999999</ele><time>2026-04-21T16:35:24.667Z</time></trkpt><trkpt lat="44.71169" lon="9.232865"><ele>886.0</ele><time>2026-04-21T16:35:25.668Z</time></trkpt><trkpt lat="44.711765" lon="9.23291"><ele>886.0</ele><time>2026-04-21T16:35:26.667Z</time></trkpt><trkpt lat="44.7118383" lon="9.2329167"><ele>885.9999999999999</ele><time>2026-04-21T16:35:27.668Z</time></trkpt><trkpt lat="44.7119033" lon="9.2328917"><ele>886.0</ele><time>2026-04-21T16:35:28.668Z</time></trkpt><trkpt lat="44.711955" lon="9.2328283"><ele>886.0</ele><time>2026-04-21T16:35:29.667Z</time></trkpt><trkpt lat="44.7120733" lon="9.2327217"><ele>886.0</ele><time>2026-04-21T16:35:31.668Z</time></trkpt><trkpt lat="44.712145" lon="9.23271"><ele>885.9999999999999</ele><time>2026-04-21T16:35:32.667Z</time></trkpt><trkpt lat="44.71223" lon="9.232735"><ele>886.0</ele><time>2026-04-21T16:35:33.667Z</time></trkpt><trkpt lat="44.71235" lon="9.2327933"><ele>885.0</ele><time>2026-04-21T16:35:34.668Z</time></trkpt><trkpt lat="44.7124967" lon="9.2328567"><ele>884.0</ele><time>2026-04-21T16:35:35.667Z</time></trkpt><trkpt lat="44.712635" lon="9.2329183"><ele>883.0</ele><time>2026-04-21T16:35:36.667Z</time></trkpt><trkpt lat="44.71276" lon="9.232975"><ele>882.0</ele><time>2026-04-21T16:35:37.667Z</time></trkpt><trkpt lat="44.7128733" lon="9.233035"><ele>873.8</ele><time>2026-04-21T16:35:38.667Z</time></trkpt><trkpt lat="44.7129583" lon="9.2330967"><ele>865.6</ele><time>2026-04-21T16:35:39.667Z</time></trkpt><trkpt lat="44.7130233" lon="9.23319"><ele>857.4</ele><time>2026-04-21T16:35:40.667Z</time></trkpt><trkpt lat="44.7130733" lon="9.2333017"><ele>849.1999999999999</ele><time>2026-04-21T16:35:41.668Z</time></trkpt><trkpt lat="44.713115" lon="9.2334417"><ele>841.0</ele><time>2026-04-21T16:35:42.667Z</time></trkpt><trkpt lat="44.7131567" lon="9.2335933"><ele>840.8</ele><time>2026-04-21T16:35:43.667Z</time></trkpt><trkpt lat="44.7132133" lon="9.2337567"><ele>840.5999999999999</ele><time>2026-04-21T16:35:44.667Z</time></trkpt><trkpt lat="44.713275" lon="9.2339083"><ele>840.4</ele><time>2026-04-21T16:35:45.667Z</time></trkpt><trkpt lat="44.7133167" lon="9.2340167"><ele>840.2</ele><time>2026-04-21T16:35:46.667Z</time></trkpt><trkpt lat="44.7133367" lon="9.234105"><ele>840.0</ele><time>2026-04-21T16:35:47.667Z</time></trkpt><trkpt lat="44.7133083" lon="9.2342417"><ele>839.0</ele><time>2026-04-21T16:35:49.668Z</time></trkpt><trkpt lat="44.7132533" lon="9.2343117"><ele>838.0</ele><time>2026-04-21T16:35:50.667Z</time></trkpt><trkpt lat="44.713175" lon="9.2343767"><ele>837.0</ele><time>2026-04-21T16:35:51.668Z</time></trkpt><trkpt lat="44.71309" lon="9.2344183"><ele>836.0</ele><time>2026-04-21T16:35:52.667Z</time></trkpt><trkpt lat="44.7129767" lon="9.2344017"><ele>835.0</ele><time>2026-04-21T16:35:54.667Z</time></trkpt><trkpt lat="44.7129367" lon="9.2343317"><ele>834.0</ele><time>2026-04-21T16:35:55.667Z</time></trkpt><trkpt lat="44.712885" lon="9.234235"><ele>834.0</ele><time>2026-04-21T16:35:56.668Z</time></trkpt><trkpt lat="44.7128267" lon="9.2340967"><ele>834.0</ele><time>2026-04-21T16:35:57.667Z</time></trkpt><trkpt lat="44.7127783" lon="9.2339533"><ele>834.0</ele><time>2026-04-21T16:35:58.668Z</time></trkpt><trkpt lat="44.7127483" lon="9.2338083"><ele>834.0</ele><time>2026-04-21T16:35:59.667Z</time></trkpt><trkpt lat="44.71273" lon="9.2336667"><ele>834.0</ele><time>2026-04-21T16:36:00.667Z</time></trkpt><trkpt lat="44.7127167" lon="9.233545"><ele>836.0</ele><time>2026-04-21T16:36:01.667Z</time></trkpt><trkpt lat="44.7126967" lon="9.233445"><ele>838.0</ele><time>2026-04-21T16:36:02.668Z</time></trkpt><trkpt lat="44.7126267" lon="9.2333233"><ele>840.0</ele><time>2026-04-21T16:36:04.667Z</time></trkpt><trkpt lat="44.7125233" lon="9.2333017"><ele>842.0</ele><time>2026-04-21T16:36:06.668Z</time></trkpt><trkpt lat="44.7124817" lon="9.233425"><ele>844.0</ele><time>2026-04-21T16:36:08.668Z</time></trkpt><trkpt lat="44.712485" lon="9.233525"><ele>844.0</ele><time>2026-04-21T16:36:09.668Z</time></trkpt><trkpt lat="44.7125183" lon="9.2336867"><ele>844.0</ele><time>2026-04-21T16:36:10.668Z</time></trkpt><trkpt lat="44.7125783" lon="9.2338833"><ele>844.0</ele><time>2026-04-21T16:36:11.668Z</time></trkpt><trkpt lat="44.71265" lon="9.2340917"><ele>844.0</ele><time>2026-04-21T16:36:12.667Z</time></trkpt><trkpt lat="44.7127117" lon="9.2342917"><ele>841.5</ele><time>2026-04-21T16:36:13.667Z</time></trkpt><trkpt lat="44.7127567" lon="9.2344783"><ele>839.0</ele><time>2026-04-21T16:36:14.667Z</time></trkpt><trkpt lat="44.7127867" lon="9.23465"><ele>836.5</ele><time>2026-04-21T16:36:15.668Z</time></trkpt><trkpt lat="44.71282" lon="9.2347917"><ele>834.0</ele><time>2026-04-21T16:36:16.668Z</time></trkpt><trkpt lat="44.712845" lon="9.2349167"><ele>829.2</ele><time>2026-04-21T16:36:17.667Z</time></trkpt><trkpt lat="44.7129133" lon="9.23505"><ele>824.4000000000001</ele><time>2026-04-21T16:36:19.667Z</time></trkpt><trkpt lat="44.7129733" lon="9.23508"><ele>819.6</ele><time>2026-04-21T16:36:20.667Z</time></trkpt><trkpt lat="44.7130467" lon="9.2350867"><ele>814.8</ele><time>2026-04-21T16:36:21.668Z</time></trkpt><trkpt lat="44.7131433" lon="9.2350733"><ele>810.0</ele><time>2026-04-21T16:36:22.668Z</time></trkpt><trkpt lat="44.713265" lon="9.2350483"><ele>810.0</ele><time>2026-04-21T16:36:23.667Z</time></trkpt><trkpt lat="44.71339" lon="9.2350167"><ele>810.0</ele><time>2026-04-21T16:36:24.667Z</time></trkpt><trkpt lat="44.7134883" lon="9.23499"><ele>810.0</ele><time>2026-04-21T16:36:25.668Z</time></trkpt><trkpt lat="44.71357" lon="9.2349767"><ele>810.0</ele><time>2026-04-21T16:36:26.667Z</time></trkpt><trkpt lat="44.7136417" lon="9.2349933"><ele>810.0</ele><time>2026-04-21T16:36:28.667Z</time></trkpt><trkpt lat="44.7136033" lon="9.2351267"><ele>810.0</ele><time>2026-04-21T16:36:31.667Z</time></trkpt><trkpt lat="44.71354" lon="9.235185"><ele>810.0</ele><time>2026-04-21T16:36:32.668Z</time></trkpt><trkpt lat="44.7134467" lon="9.23523"><ele>810.0</ele><time>2026-04-21T16:36:33.667Z</time></trkpt><trkpt lat="44.7133333" lon="9.2352717"><ele>810.0</ele><time>2026-04-21T16:36:34.667Z</time></trkpt><trkpt lat="44.7132333" lon="9.2353"><ele>810.0</ele><time>2026-04-21T16:36:35.668Z</time></trkpt><trkpt lat="44.7131733" lon="9.23533"><ele>810.0</ele><time>2026-04-21T16:36:36.667Z</time></trkpt><trkpt lat="44.713125" lon="9.23542"><ele>810.0</ele><time>2026-04-21T16:36:38.667Z</time></trkpt><trkpt lat="44.71316" lon="9.2355683"><ele>810.0</ele><time>2026-04-21T16:36:40.667Z</time></trkpt><trkpt lat="44.7132233" lon="9.2356717"><ele>810.0</ele><time>2026-04-21T16:36:41.667Z</time></trkpt><trkpt lat="44.7133167" lon="9.235795"><ele>810.0</ele><time>2026-04-21T16:36:42.668Z</time></trkpt><trkpt lat="44.7134183" lon="9.2359067"><ele>806.8</ele><time>2026-04-21T16:36:43.667Z</time></trkpt><trkpt lat="44.7135183" lon="9.2359917"><ele>803.6</ele><time>2026-04-21T16:36:44.667Z</time></trkpt><trkpt lat="44.7136167" lon="9.2360533"><ele>800.4000000000001</ele><time>2026-04-21T16:36:45.667Z</time></trkpt><trkpt lat="44.7137067" lon="9.2361"><ele>797.2</ele><time>2026-04-21T16:36:46.667Z</time></trkpt><trkpt lat="44.7137933" lon="9.2361183"><ele>794.0</ele><time>2026-04-21T16:36:47.667Z</time></trkpt><trkpt lat="44.7138717" lon="9.2361233"><ele>793.8000000000001</ele><time>2026-04-21T16:36:48.667Z</time></trkpt><trkpt lat="44.71395" lon="9.2360983"><ele>793.6</ele><time>2026-04-21T16:36:49.667Z</time></trkpt><trkpt lat="44.7140333" lon="9.23605"><ele>793.4</ele><time>2026-04-21T16:36:50.667Z</time></trkpt><trkpt lat="44.7141233" lon="9.2359817"><ele>793.2</ele><time>2026-04-21T16:36:51.668Z</time></trkpt><trkpt lat="44.7142167" lon="9.235895"><ele>793.0</ele><time>2026-04-21T16:36:52.668Z</time></trkpt><trkpt lat="44.7143017" lon="9.2357767"><ele>793.0</ele><time>2026-04-21T16:36:53.667Z</time></trkpt><trkpt lat="44.71439" lon="9.23565"><ele>793.0</ele><time>2026-04-21T16:36:54.667Z</time></trkpt><trkpt lat="44.71449" lon="9.2355267"><ele>793.0</ele><time>2026-04-21T16:36:55.668Z</time></trkpt><trkpt lat="44.71457" lon="9.2354117"><ele>793.0</ele><time>2026-04-21T16:36:56.668Z</time></trkpt><trkpt lat="44.7146367" lon="9.2353017"><ele>791.6666666666666</ele><time>2026-04-21T16:36:57.667Z</time></trkpt><trkpt lat="44.714685" lon="9.2352"><ele>790.3333333333333</ele><time>2026-04-21T16:36:58.668Z</time></trkpt><trkpt lat="44.7147333" lon="9.23511"><ele>789.0</ele><time>2026-04-21T16:36:59.668Z</time></trkpt><trkpt lat="44.7148117" lon="9.2350517"><ele>787.6666666666667</ele><time>2026-04-21T16:37:00.667Z</time></trkpt><trkpt lat="44.7148917" lon="9.235015"><ele>786.3333333333334</ele><time>2026-04-21T16:37:01.667Z</time></trkpt><trkpt lat="44.7149733" lon="9.23499"><ele>785.0</ele><time>2026-04-21T16:37:02.667Z</time></trkpt><trkpt lat="44.7150433" lon="9.2350033"><ele>785.0</ele><time>2026-04-21T16:37:03.667Z</time></trkpt><trkpt lat="44.715105" lon="9.235025"><ele>785.0</ele><time>2026-04-21T16:37:04.667Z</time></trkpt><trkpt lat="44.7151583" lon="9.2350933"><ele>785.0</ele><time>2026-04-21T16:37:05.668Z</time></trkpt><trkpt lat="44.7152033" lon="9.2351767"><ele>785.0</ele><time>2026-04-21T16:37:06.667Z</time></trkpt><trkpt lat="44.7152667" lon="9.2352683"><ele>783.0</ele><time>2026-04-21T16:37:08.667Z</time></trkpt></trkseg></trk></gpx>